<?xml version='1.0' encoding='UTF-8'?><gpx version="1.1" creator="JPX - https://github.com/jenetics/jpx" xmlns="http://www.topografix.com/GPX/1/1"><trk><trkseg><trkpt lat="43.301" lon="11.8852033"><ele>259.0</ele><time>2026-04-03T06:08:35.134Z</time></trkpt><trkpt lat="43.3010117" lon="11.8853217"><ele>259.0</ele><time>2026-04-03T06:08:38.134Z</time></trkpt><trkpt lat="43.301065" lon="11.885465"><ele>259.0</ele><time>2026-04-03T06:08:47.133Z</time></trkpt><trkpt lat="43.30112" lon="11.8855183"><ele>259.0</ele><time>2026-04-03T06:08:48.133Z</time></trkpt><trkpt lat="43.3011933" lon="11.8855733"><ele>259.0</ele><time>2026-04-03T06:08:49.133Z</time></trkpt><trkpt lat="43.301275" lon="11.88563"><ele>259.0</ele><time>2026-04-03T06:08:50.133Z</time></trkpt><trkpt lat="43.30136" lon="11.8856833"><ele>259.2</ele><time>2026-04-03T06:08:51.133Z</time></trkpt><trkpt lat="43.3014567" lon="11.8857383"><ele>259.4</ele><time>2026-04-03T06:08:52.133Z</time></trkpt><trkpt lat="43.3015433" lon="11.885795"><ele>259.6</ele><time>2026-04-03T06:08:53.133Z</time></trkpt><trkpt lat="43.30164" lon="11.88586"><ele>259.8</ele><time>2026-04-03T06:08:54.134Z</time></trkpt><trkpt lat="43.3017367" lon="11.885935"><ele>260.0</ele><time>2026-04-03T06:08:55.134Z</time></trkpt><trkpt lat="43.3018283" lon="11.8860133"><ele>260.0</ele><time>2026-04-03T06:08:56.134Z</time></trkpt><trkpt lat="43.3019283" lon="11.8860883"><ele>260.0</ele><time>2026-04-03T06:08:57.133Z</time></trkpt><trkpt lat="43.3020233" lon="11.8861767"><ele>260.0</ele><time>2026-04-03T06:08:58.133Z</time></trkpt><trkpt lat="43.30213" lon="11.8862417"><ele>260.0</ele><time>2026-04-03T06:08:59.134Z</time></trkpt><trkpt lat="43.3022283" lon="11.8863067"><ele>259.8</ele><time>2026-04-03T06:09:00.133Z</time></trkpt><trkpt lat="43.3023233" lon="11.88637"><ele>259.6</ele><time>2026-04-03T06:09:01.133Z</time></trkpt><trkpt lat="43.3024133" lon="11.8864183"><ele>259.4</ele><time>2026-04-03T06:09:02.134Z</time></trkpt><trkpt lat="43.3024917" lon="11.886455"><ele>259.2</ele><time>2026-04-03T06:09:03.133Z</time></trkpt><trkpt lat="43.3025633" lon="11.8864933"><ele>259.0</ele><time>2026-04-03T06:09:04.133Z</time></trkpt><trkpt lat="43.30265" lon="11.8866067"><ele>258.4</ele><time>2026-04-03T06:09:06.133Z</time></trkpt><trkpt lat="43.3026617" lon="11.8867783"><ele>257.79999999999995</ele><time>2026-04-03T06:09:08.133Z</time></trkpt><trkpt lat="43.3026617" lon="11.8868733"><ele>257.20000000000005</ele><time>2026-04-03T06:09:09.133Z</time></trkpt><trkpt lat="43.3026533" lon="11.8869683"><ele>256.6</ele><time>2026-04-03T06:09:10.133Z</time></trkpt><trkpt lat="43.3026417" lon="11.8870833"><ele>256.0</ele><time>2026-04-03T06:09:11.133Z</time></trkpt><trkpt lat="43.30262" lon="11.8872233"><ele>256.0</ele><time>2026-04-03T06:09:12.133Z</time></trkpt><trkpt lat="43.3026033" lon="11.8873583"><ele>256.0</ele><time>2026-04-03T06:09:13.133Z</time></trkpt><trkpt lat="43.3025883" lon="11.8875033"><ele>256.0</ele><time>2026-04-03T06:09:14.134Z</time></trkpt><trkpt lat="43.3025783" lon="11.8876467"><ele>256.0</ele><time>2026-04-03T06:09:15.134Z</time></trkpt><trkpt lat="43.3025683" lon="11.8877933"><ele>256.0</ele><time>2026-04-03T06:09:16.133Z</time></trkpt><trkpt lat="43.3025483" lon="11.8879483"><ele>255.75</ele><time>2026-04-03T06:09:17.133Z</time></trkpt><trkpt lat="43.30254" lon="11.8881083"><ele>255.5</ele><time>2026-04-03T06:09:18.133Z</time></trkpt><trkpt lat="43.3025217" lon="11.8882833"><ele>255.25</ele><time>2026-04-03T06:09:19.133Z</time></trkpt><trkpt lat="43.3025117" lon="11.888445"><ele>255.0</ele><time>2026-04-03T06:09:20.133Z</time></trkpt><trkpt lat="43.3025067" lon="11.888615"><ele>254.75</ele><time>2026-04-03T06:09:21.133Z</time></trkpt><trkpt lat="43.3025017" lon="11.88878"><ele>254.5</ele><time>2026-04-03T06:09:22.133Z</time></trkpt><trkpt lat="43.3024933" lon="11.8889517"><ele>254.25</ele><time>2026-04-03T06:09:23.134Z</time></trkpt><trkpt lat="43.3024833" lon="11.889125"><ele>254.0</ele><time>2026-04-03T06:09:24.133Z</time></trkpt><trkpt lat="43.3024767" lon="11.8892917"><ele>253.0</ele><time>2026-04-03T06:09:25.134Z</time></trkpt><trkpt lat="43.302455" lon="11.889475"><ele>252.0</ele><time>2026-04-03T06:09:26.133Z</time></trkpt><trkpt lat="43.3024383" lon="11.8896583"><ele>251.0</ele><time>2026-04-03T06:09:27.133Z</time></trkpt><trkpt lat="43.30241" lon="11.8898183"><ele>250.0</ele><time>2026-04-03T06:09:28.134Z</time></trkpt><trkpt lat="43.30237" lon="11.8899817"><ele>250.0</ele><time>2026-04-03T06:09:29.133Z</time></trkpt><trkpt lat="43.3023183" lon="11.8901483"><ele>250.0</ele><time>2026-04-03T06:09:30.133Z</time></trkpt><trkpt lat="43.3022517" lon="11.890315"><ele>250.0</ele><time>2026-04-03T06:09:31.134Z</time></trkpt><trkpt lat="43.302185" lon="11.89049"><ele>250.0</ele><time>2026-04-03T06:09:32.134Z</time></trkpt><trkpt lat="43.30212" lon="11.8906683"><ele>250.0</ele><time>2026-04-03T06:09:33.134Z</time></trkpt><trkpt lat="43.3020567" lon="11.89085"><ele>250.0</ele><time>2026-04-03T06:09:34.133Z</time></trkpt><trkpt lat="43.3019883" lon="11.8910283"><ele>250.0</ele><time>2026-04-03T06:09:35.133Z</time></trkpt><trkpt lat="43.301925" lon="11.8912083"><ele>250.0</ele><time>2026-04-03T06:09:36.133Z</time></trkpt><trkpt lat="43.3018633" lon="11.8913917"><ele>248.66666666666666</ele><time>2026-04-03T06:09:37.133Z</time></trkpt><trkpt lat="43.301805" lon="11.8915817"><ele>247.33333333333331</ele><time>2026-04-03T06:09:38.133Z</time></trkpt><trkpt lat="43.3017417" lon="11.891775"><ele>246.0</ele><time>2026-04-03T06:09:39.133Z</time></trkpt><trkpt lat="43.3016783" lon="11.8919633"><ele>246.0</ele><time>2026-04-03T06:09:40.134Z</time></trkpt><trkpt lat="43.3016133" lon="11.8921533"><ele>246.0</ele><time>2026-04-03T06:09:41.134Z</time></trkpt><trkpt lat="43.3015483" lon="11.89235"><ele>246.0</ele><time>2026-04-03T06:09:42.133Z</time></trkpt><trkpt lat="43.3014817" lon="11.8925433"><ele>246.0</ele><time>2026-04-03T06:09:43.134Z</time></trkpt><trkpt lat="43.3014183" lon="11.8927317"><ele>246.0</ele><time>2026-04-03T06:09:44.133Z</time></trkpt><trkpt lat="43.3013717" lon="11.8928983"><ele>246.0</ele><time>2026-04-03T06:09:45.133Z</time></trkpt><trkpt lat="43.3013317" lon="11.8930383"><ele>246.0</ele><time>2026-04-03T06:09:46.134Z</time></trkpt><trkpt lat="43.3012933" lon="11.8931867"><ele>246.0</ele><time>2026-04-03T06:09:47.133Z</time></trkpt><trkpt lat="43.3012567" lon="11.8933517"><ele>246.0</ele><time>2026-04-03T06:09:48.133Z</time></trkpt><trkpt lat="43.301235" lon="11.8935267"><ele>246.0</ele><time>2026-04-03T06:09:49.134Z</time></trkpt><trkpt lat="43.3012167" lon="11.89371"><ele>246.0</ele><time>2026-04-03T06:09:50.133Z</time></trkpt><trkpt lat="43.3012017" lon="11.8938917"><ele>246.0</ele><time>2026-04-03T06:09:51.133Z</time></trkpt><trkpt lat="43.30119" lon="11.89406"><ele>246.0</ele><time>2026-04-03T06:09:52.133Z</time></trkpt><trkpt lat="43.301175" lon="11.8942267"><ele>246.0</ele><time>2026-04-03T06:09:53.134Z</time></trkpt><trkpt lat="43.3011533" lon="11.8943817"><ele>246.0</ele><time>2026-04-03T06:09:54.134Z</time></trkpt><trkpt lat="43.301125" lon="11.8945117"><ele>246.0</ele><time>2026-04-03T06:09:55.133Z</time></trkpt><trkpt lat="43.30108" lon="11.894625"><ele>246.00000000000003</ele><time>2026-04-03T06:09:56.133Z</time></trkpt><trkpt lat="43.3010133" lon="11.8947267"><ele>246.00000000000003</ele><time>2026-04-03T06:09:57.134Z</time></trkpt><trkpt lat="43.300935" lon="11.8948217"><ele>246.0</ele><time>2026-04-03T06:09:58.133Z</time></trkpt><trkpt lat="43.300855" lon="11.89493"><ele>246.0</ele><time>2026-04-03T06:09:59.133Z</time></trkpt><trkpt lat="43.3007667" lon="11.8950467"><ele>246.0</ele><time>2026-04-03T06:10:00.133Z</time></trkpt><trkpt lat="43.3006783" lon="11.8951583"><ele>246.0</ele><time>2026-04-03T06:10:01.133Z</time></trkpt><trkpt lat="43.30059" lon="11.895275"><ele>246.0</ele><time>2026-04-03T06:10:02.133Z</time></trkpt><trkpt lat="43.3004983" lon="11.8954033"><ele>246.0</ele><time>2026-04-03T06:10:03.133Z</time></trkpt><trkpt lat="43.3003967" lon="11.89553"><ele>246.0</ele><time>2026-04-03T06:10:04.133Z</time></trkpt><trkpt lat="43.3002917" lon="11.895665"><ele>246.0</ele><time>2026-04-03T06:10:05.134Z</time></trkpt><trkpt lat="43.30019" lon="11.895795"><ele>246.0</ele><time>2026-04-03T06:10:06.133Z</time></trkpt><trkpt lat="43.300085" lon="11.8959333"><ele>246.0</ele><time>2026-04-03T06:10:07.133Z</time></trkpt><trkpt lat="43.2999733" lon="11.8960717"><ele>246.0</ele><time>2026-04-03T06:10:08.133Z</time></trkpt><trkpt lat="43.2998633" lon="11.8962133"><ele>246.0</ele><time>2026-04-03T06:10:09.134Z</time></trkpt><trkpt lat="43.2997583" lon="11.8963567"><ele>246.0</ele><time>2026-04-03T06:10:10.133Z</time></trkpt><trkpt lat="43.2996517" lon="11.8964933"><ele>246.0</ele><time>2026-04-03T06:10:11.133Z</time></trkpt><trkpt lat="43.2995467" lon="11.896625"><ele>246.0</ele><time>2026-04-03T06:10:12.133Z</time></trkpt><trkpt lat="43.299455" lon="11.8967467"><ele>246.0</ele><time>2026-04-03T06:10:13.134Z</time></trkpt><trkpt lat="43.2993633" lon="11.8968633"><ele>246.0</ele><time>2026-04-03T06:10:14.134Z</time></trkpt><trkpt lat="43.2992817" lon="11.8969783"><ele>246.0</ele><time>2026-04-03T06:10:15.133Z</time></trkpt><trkpt lat="43.299205" lon="11.897075"><ele>245.83333333333334</ele><time>2026-04-03T06:10:16.133Z</time></trkpt><trkpt lat="43.2991383" lon="11.8971567"><ele>245.66666666666669</ele><time>2026-04-03T06:10:17.133Z</time></trkpt><trkpt lat="43.2990833" lon="11.8972333"><ele>245.5</ele><time>2026-04-03T06:10:18.133Z</time></trkpt><trkpt lat="43.2990017" lon="11.8973283"><ele>245.33333333333334</ele><time>2026-04-03T06:10:20.134Z</time></trkpt><trkpt lat="43.2989483" lon="11.8974083"><ele>245.16666666666669</ele><time>2026-04-03T06:10:23.133Z</time></trkpt><trkpt lat="43.2989683" lon="11.8974983"><ele>245.0</ele><time>2026-04-03T06:10:28.133Z</time></trkpt><trkpt lat="43.299055" lon="11.8975633"><ele>245.25</ele><time>2026-04-03T06:11:14.134Z</time></trkpt><trkpt lat="43.29916" lon="11.8977133"><ele>245.5</ele><time>2026-04-03T06:11:16.134Z</time></trkpt><trkpt lat="43.2992417" lon="11.8978333"><ele>245.75</ele><time>2026-04-03T06:11:17.134Z</time></trkpt><trkpt lat="43.2993383" lon="11.897985"><ele>246.0</ele><time>2026-04-03T06:11:18.133Z</time></trkpt><trkpt lat="43.2994483" lon="11.8981533"><ele>246.0</ele><time>2026-04-03T06:11:19.134Z</time></trkpt><trkpt lat="43.2995683" lon="11.8983433"><ele>246.0</ele><time>2026-04-03T06:11:20.133Z</time></trkpt><trkpt lat="43.2997033" lon="11.898555"><ele>246.0</ele><time>2026-04-03T06:11:21.134Z</time></trkpt><trkpt lat="43.299855" lon="11.8987717"><ele>246.0</ele><time>2026-04-03T06:11:22.134Z</time></trkpt><trkpt lat="43.300015" lon="11.898995"><ele>246.0</ele><time>2026-04-03T06:11:23.134Z</time></trkpt><trkpt lat="43.3001817" lon="11.899235"><ele>246.5</ele><time>2026-04-03T06:11:24.132Z</time></trkpt><trkpt lat="43.30035" lon="11.8994733"><ele>247.0</ele><time>2026-04-03T06:11:25.132Z</time></trkpt><trkpt lat="43.3005333" lon="11.8997283"><ele>246.5</ele><time>2026-04-03T06:11:26.133Z</time></trkpt><trkpt lat="43.3007117" lon="11.899985"><ele>246.0</ele><time>2026-04-03T06:11:27.132Z</time></trkpt><trkpt lat="43.3009017" lon="11.900255"><ele>246.0</ele><time>2026-04-03T06:11:28.132Z</time></trkpt><trkpt lat="43.301095" lon="11.9005217"><ele>246.0</ele><time>2026-04-03T06:11:29.133Z</time></trkpt><trkpt lat="43.301295" lon="11.9007917"><ele>247.0</ele><time>2026-04-03T06:11:30.132Z</time></trkpt><trkpt lat="43.3014933" lon="11.9010667"><ele>248.0</ele><time>2026-04-03T06:11:31.133Z</time></trkpt><trkpt lat="43.301695" lon="11.9013333"><ele>248.0</ele><time>2026-04-03T06:11:32.133Z</time></trkpt><trkpt lat="43.3018967" lon="11.901625"><ele>248.0</ele><time>2026-04-03T06:11:33.132Z</time></trkpt><trkpt lat="43.3020933" lon="11.9019267"><ele>247.0</ele><time>2026-04-03T06:11:34.132Z</time></trkpt><trkpt lat="43.30229" lon="11.902225"><ele>246.0</ele><time>2026-04-03T06:11:35.133Z</time></trkpt><trkpt lat="43.3025" lon="11.9025217"><ele>246.5</ele><time>2026-04-03T06:11:36.132Z</time></trkpt><trkpt lat="43.3027167" lon="11.9028117"><ele>247.0</ele><time>2026-04-03T06:11:37.132Z</time></trkpt><trkpt lat="43.3029167" lon="11.903105"><ele>247.0</ele><time>2026-04-03T06:11:38.133Z</time></trkpt><trkpt lat="43.3031017" lon="11.90337"><ele>247.0</ele><time>2026-04-03T06:11:39.132Z</time></trkpt><trkpt lat="43.3032767" lon="11.903605"><ele>247.33333333333331</ele><time>2026-04-03T06:11:40.132Z</time></trkpt><trkpt lat="43.303435" lon="11.90382"><ele>247.66666666666669</ele><time>2026-04-03T06:11:41.133Z</time></trkpt><trkpt lat="43.30357" lon="11.904015"><ele>248.0</ele><time>2026-04-03T06:11:42.133Z</time></trkpt><trkpt lat="43.3036933" lon="11.9041867"><ele>247.66666666666669</ele><time>2026-04-03T06:11:43.132Z</time></trkpt><trkpt lat="43.303805" lon="11.9043467"><ele>247.33333333333331</ele><time>2026-04-03T06:11:44.132Z</time></trkpt><trkpt lat="43.3039167" lon="11.9044933"><ele>247.0</ele><time>2026-04-03T06:11:45.132Z</time></trkpt><trkpt lat="43.3040117" lon="11.9046267"><ele>247.0</ele><time>2026-04-03T06:11:46.132Z</time></trkpt><trkpt lat="43.3040983" lon="11.9047583"><ele>247.0</ele><time>2026-04-03T06:11:47.132Z</time></trkpt><trkpt lat="43.3041767" lon="11.9048783"><ele>247.0</ele><time>2026-04-03T06:11:48.132Z</time></trkpt><trkpt lat="43.3042517" lon="11.904985"><ele>247.0</ele><time>2026-04-03T06:11:49.133Z</time></trkpt><trkpt lat="43.304325" lon="11.9051"><ele>247.0</ele><time>2026-04-03T06:11:50.133Z</time></trkpt><trkpt lat="43.3044067" lon="11.9052233"><ele>247.0</ele><time>2026-04-03T06:11:51.132Z</time></trkpt><trkpt lat="43.3044933" lon="11.905345"><ele>247.0</ele><time>2026-04-03T06:11:52.132Z</time></trkpt><trkpt lat="43.3045833" lon="11.9054817"><ele>247.0</ele><time>2026-04-03T06:11:53.132Z</time></trkpt><trkpt lat="43.3046833" lon="11.905615"><ele>247.0</ele><time>2026-04-03T06:11:54.132Z</time></trkpt><trkpt lat="43.30478" lon="11.9057567"><ele>247.0</ele><time>2026-04-03T06:11:55.132Z</time></trkpt><trkpt lat="43.3048767" lon="11.9059033"><ele>247.0</ele><time>2026-04-03T06:11:56.133Z</time></trkpt><trkpt lat="43.304975" lon="11.906055"><ele>247.0</ele><time>2026-04-03T06:11:57.133Z</time></trkpt><trkpt lat="43.305075" lon="11.9062"><ele>247.0</ele><time>2026-04-03T06:11:58.133Z</time></trkpt><trkpt lat="43.305175" lon="11.9063517"><ele>247.0</ele><time>2026-04-03T06:11:59.133Z</time></trkpt><trkpt lat="43.305285" lon="11.9065"><ele>247.0</ele><time>2026-04-03T06:12:00.133Z</time></trkpt><trkpt lat="43.305385" lon="11.906645"><ele>247.0</ele><time>2026-04-03T06:12:01.132Z</time></trkpt><trkpt lat="43.305485" lon="11.9067933"><ele>247.33333333333331</ele><time>2026-04-03T06:12:02.132Z</time></trkpt><trkpt lat="43.3055917" lon="11.906945"><ele>247.66666666666669</ele><time>2026-04-03T06:12:03.133Z</time></trkpt><trkpt lat="43.3056967" lon="11.9070967"><ele>248.0</ele><time>2026-04-03T06:12:04.132Z</time></trkpt><trkpt lat="43.3058" lon="11.907245"><ele>248.0</ele><time>2026-04-03T06:12:05.132Z</time></trkpt><trkpt lat="43.305905" lon="11.9073983"><ele>248.0</ele><time>2026-04-03T06:12:06.132Z</time></trkpt><trkpt lat="43.3060133" lon="11.9075517"><ele>248.0</ele><time>2026-04-03T06:12:07.132Z</time></trkpt><trkpt lat="43.3061167" lon="11.9077117"><ele>248.0</ele><time>2026-04-03T06:12:08.132Z</time></trkpt><trkpt lat="43.3062367" lon="11.90789"><ele>248.0</ele><time>2026-04-03T06:12:09.132Z</time></trkpt><trkpt lat="43.3063517" lon="11.9080533"><ele>248.0</ele><time>2026-04-03T06:12:10.132Z</time></trkpt><trkpt lat="43.3064783" lon="11.9082167"><ele>247.66666666666669</ele><time>2026-04-03T06:12:11.132Z</time></trkpt><trkpt lat="43.3065883" lon="11.9083817"><ele>247.33333333333331</ele><time>2026-04-03T06:12:12.133Z</time></trkpt><trkpt lat="43.3067083" lon="11.90855"><ele>247.0</ele><time>2026-04-03T06:12:13.133Z</time></trkpt><trkpt lat="43.30683" lon="11.9087133"><ele>247.0</ele><time>2026-04-03T06:12:14.133Z</time></trkpt><trkpt lat="43.3069517" lon="11.9088867"><ele>247.0</ele><time>2026-04-03T06:12:15.132Z</time></trkpt><trkpt lat="43.3070717" lon="11.9090617"><ele>247.0</ele><time>2026-04-03T06:12:16.132Z</time></trkpt><trkpt lat="43.3071817" lon="11.90923"><ele>246.66666666666666</ele><time>2026-04-03T06:12:17.132Z</time></trkpt><trkpt lat="43.3073033" lon="11.9093933"><ele>246.33333333333331</ele><time>2026-04-03T06:12:18.132Z</time></trkpt><trkpt lat="43.307415" lon="11.909565"><ele>246.0</ele><time>2026-04-03T06:12:19.133Z</time></trkpt><trkpt lat="43.307535" lon="11.909735"><ele>246.0</ele><time>2026-04-03T06:12:20.132Z</time></trkpt><trkpt lat="43.3076533" lon="11.9099017"><ele>246.0</ele><time>2026-04-03T06:12:21.132Z</time></trkpt><trkpt lat="43.307765" lon="11.91007"><ele>246.0</ele><time>2026-04-03T06:12:22.132Z</time></trkpt><trkpt lat="43.30788" lon="11.9102433"><ele>246.33333333333331</ele><time>2026-04-03T06:12:23.133Z</time></trkpt><trkpt lat="43.308" lon="11.9104133"><ele>246.66666666666666</ele><time>2026-04-03T06:12:24.132Z</time></trkpt><trkpt lat="43.3081233" lon="11.9105783"><ele>247.0</ele><time>2026-04-03T06:12:25.132Z</time></trkpt><trkpt lat="43.3082383" lon="11.91074"><ele>247.0</ele><time>2026-04-03T06:12:26.132Z</time></trkpt><trkpt lat="43.308355" lon="11.9109067"><ele>247.0</ele><time>2026-04-03T06:12:27.133Z</time></trkpt><trkpt lat="43.30848" lon="11.9110833"><ele>247.0</ele><time>2026-04-03T06:12:28.132Z</time></trkpt><trkpt lat="43.3086" lon="11.9112517"><ele>247.0</ele><time>2026-04-03T06:12:29.133Z</time></trkpt><trkpt lat="43.308725" lon="11.9114233"><ele>247.0</ele><time>2026-04-03T06:12:30.132Z</time></trkpt><trkpt lat="43.308845" lon="11.9115883"><ele>247.0</ele><time>2026-04-03T06:12:31.133Z</time></trkpt><trkpt lat="43.3089667" lon="11.9117617"><ele>246.33333333333331</ele><time>2026-04-03T06:12:32.132Z</time></trkpt><trkpt lat="43.3090817" lon="11.911935"><ele>245.66666666666669</ele><time>2026-04-03T06:12:33.132Z</time></trkpt><trkpt lat="43.3092" lon="11.9121117"><ele>245.0</ele><time>2026-04-03T06:12:34.132Z</time></trkpt><trkpt lat="43.30932" lon="11.9122883"><ele>245.0</ele><time>2026-04-03T06:12:35.133Z</time></trkpt><trkpt lat="43.3094383" lon="11.9124533"><ele>245.0</ele><time>2026-04-03T06:12:36.132Z</time></trkpt><trkpt lat="43.3095583" lon="11.9126283"><ele>245.0</ele><time>2026-04-03T06:12:37.132Z</time></trkpt><trkpt lat="43.309675" lon="11.9128017"><ele>246.0</ele><time>2026-04-03T06:12:38.132Z</time></trkpt><trkpt lat="43.3098" lon="11.9129683"><ele>247.0</ele><time>2026-04-03T06:12:39.132Z</time></trkpt><trkpt lat="43.30993" lon="11.9131467"><ele>248.0</ele><time>2026-04-03T06:12:40.132Z</time></trkpt><trkpt lat="43.3100467" lon="11.9133217"><ele>248.0</ele><time>2026-04-03T06:12:41.133Z</time></trkpt><trkpt lat="43.3101733" lon="11.9134967"><ele>248.0</ele><time>2026-04-03T06:12:42.133Z</time></trkpt><trkpt lat="43.31029" lon="11.913675"><ele>248.0</ele><time>2026-04-03T06:12:43.132Z</time></trkpt><trkpt lat="43.3104067" lon="11.9138533"><ele>248.0</ele><time>2026-04-03T06:12:44.132Z</time></trkpt><trkpt lat="43.3105233" lon="11.91403"><ele>248.0</ele><time>2026-04-03T06:12:45.132Z</time></trkpt><trkpt lat="43.3106467" lon="11.9142067"><ele>248.0</ele><time>2026-04-03T06:12:46.132Z</time></trkpt><trkpt lat="43.3107667" lon="11.9143767"><ele>247.0</ele><time>2026-04-03T06:12:47.132Z</time></trkpt><trkpt lat="43.3108867" lon="11.9145383"><ele>246.0</ele><time>2026-04-03T06:12:48.132Z</time></trkpt><trkpt lat="43.3110017" lon="11.9147067"><ele>245.0</ele><time>2026-04-03T06:12:49.132Z</time></trkpt><trkpt lat="43.311115" lon="11.9148667"><ele>245.0</ele><time>2026-04-03T06:12:50.132Z</time></trkpt><trkpt lat="43.31122" lon="11.9150133"><ele>245.0</ele><time>2026-04-03T06:12:51.132Z</time></trkpt><trkpt lat="43.31133" lon="11.915155"><ele>245.0</ele><time>2026-04-03T06:12:52.132Z</time></trkpt><trkpt lat="43.3114233" lon="11.9152983"><ele>245.0</ele><time>2026-04-03T06:12:53.132Z</time></trkpt><trkpt lat="43.3115133" lon="11.91544"><ele>245.0</ele><time>2026-04-03T06:12:54.132Z</time></trkpt><trkpt lat="43.31161" lon="11.9155767"><ele>245.0</ele><time>2026-04-03T06:12:55.132Z</time></trkpt><trkpt lat="43.311705" lon="11.91572"><ele>245.0</ele><time>2026-04-03T06:12:56.132Z</time></trkpt><trkpt lat="43.3118067" lon="11.915865"><ele>245.0</ele><time>2026-04-03T06:12:57.133Z</time></trkpt><trkpt lat="43.311905" lon="11.9160167"><ele>245.25</ele><time>2026-04-03T06:12:58.132Z</time></trkpt><trkpt lat="43.3120067" lon="11.916165"><ele>245.5</ele><time>2026-04-03T06:12:59.133Z</time></trkpt><trkpt lat="43.3121117" lon="11.9163067"><ele>245.75</ele><time>2026-04-03T06:13:00.132Z</time></trkpt><trkpt lat="43.3122133" lon="11.91645"><ele>246.0</ele><time>2026-04-03T06:13:01.132Z</time></trkpt><trkpt lat="43.31232" lon="11.916595"><ele>246.0</ele><time>2026-04-03T06:13:02.132Z</time></trkpt><trkpt lat="43.31243" lon="11.916745"><ele>246.0</ele><time>2026-04-03T06:13:03.132Z</time></trkpt><trkpt lat="43.31254" lon="11.91689"><ele>246.0</ele><time>2026-04-03T06:13:04.132Z</time></trkpt><trkpt lat="43.312645" lon="11.9170367"><ele>246.0</ele><time>2026-04-03T06:13:05.132Z</time></trkpt><trkpt lat="43.312755" lon="11.917185"><ele>246.0</ele><time>2026-04-03T06:13:06.132Z</time></trkpt><trkpt lat="43.3128567" lon="11.9173383"><ele>246.0</ele><time>2026-04-03T06:13:07.133Z</time></trkpt><trkpt lat="43.31295" lon="11.9174917"><ele>246.0</ele><time>2026-04-03T06:13:08.132Z</time></trkpt><trkpt lat="43.31305" lon="11.9176467"><ele>246.0</ele><time>2026-04-03T06:13:09.133Z</time></trkpt><trkpt lat="43.3131567" lon="11.9178017"><ele>246.0</ele><time>2026-04-03T06:13:10.133Z</time></trkpt><trkpt lat="43.3132717" lon="11.91796"><ele>246.33333333333331</ele><time>2026-04-03T06:13:11.132Z</time></trkpt><trkpt lat="43.3133917" lon="11.91812"><ele>246.66666666666666</ele><time>2026-04-03T06:13:12.133Z</time></trkpt><trkpt lat="43.313495" lon="11.9182767"><ele>247.0</ele><time>2026-04-03T06:13:13.133Z</time></trkpt><trkpt lat="43.3135967" lon="11.918435"><ele>247.0</ele><time>2026-04-03T06:13:14.132Z</time></trkpt><trkpt lat="43.313705" lon="11.9185867"><ele>247.0</ele><time>2026-04-03T06:13:15.133Z</time></trkpt><trkpt lat="43.3138117" lon="11.9187383"><ele>247.0</ele><time>2026-04-03T06:13:16.132Z</time></trkpt><trkpt lat="43.3139217" lon="11.9188917"><ele>247.0</ele><time>2026-04-03T06:13:17.132Z</time></trkpt><trkpt lat="43.3140317" lon="11.919045"><ele>247.0</ele><time>2026-04-03T06:13:18.132Z</time></trkpt><trkpt lat="43.3141417" lon="11.91919"><ele>247.0</ele><time>2026-04-03T06:13:19.133Z</time></trkpt><trkpt lat="43.3142417" lon="11.91934"><ele>247.5</ele><time>2026-04-03T06:13:20.132Z</time></trkpt><trkpt lat="43.3143333" lon="11.9194883"><ele>248.0</ele><time>2026-04-03T06:13:21.132Z</time></trkpt><trkpt lat="43.3144233" lon="11.919615"><ele>248.5</ele><time>2026-04-03T06:13:22.132Z</time></trkpt><trkpt lat="43.3145083" lon="11.919725"><ele>249.0</ele><time>2026-04-03T06:13:23.132Z</time></trkpt><trkpt lat="43.31458" lon="11.9198217"><ele>249.0</ele><time>2026-04-03T06:13:24.132Z</time></trkpt><trkpt lat="43.31466" lon="11.919915"><ele>248.99999999999997</ele><time>2026-04-03T06:13:25.133Z</time></trkpt><trkpt lat="43.3147417" lon="11.9200017"><ele>248.99999999999997</ele><time>2026-04-03T06:13:26.132Z</time></trkpt><trkpt lat="43.3148283" lon="11.92007"><ele>249.0</ele><time>2026-04-03T06:13:27.132Z</time></trkpt><trkpt lat="43.314925" lon="11.9201433"><ele>249.0</ele><time>2026-04-03T06:13:28.133Z</time></trkpt><trkpt lat="43.3150333" lon="11.9202133"><ele>249.25</ele><time>2026-04-03T06:13:29.132Z</time></trkpt><trkpt lat="43.3151517" lon="11.9202767"><ele>249.5</ele><time>2026-04-03T06:13:30.133Z</time></trkpt><trkpt lat="43.3152733" lon="11.9203433"><ele>249.75</ele><time>2026-04-03T06:13:31.132Z</time></trkpt><trkpt lat="43.3154017" lon="11.920405"><ele>250.0</ele><time>2026-04-03T06:13:32.132Z</time></trkpt><trkpt lat="43.31553" lon="11.920465"><ele>250.75</ele><time>2026-04-03T06:13:33.132Z</time></trkpt><trkpt lat="43.3156567" lon="11.9205383"><ele>251.5</ele><time>2026-04-03T06:13:34.133Z</time></trkpt><trkpt lat="43.31578" lon="11.9206117"><ele>252.25</ele><time>2026-04-03T06:13:35.132Z</time></trkpt><trkpt lat="43.3159083" lon="11.9206867"><ele>253.0</ele><time>2026-04-03T06:13:36.132Z</time></trkpt><trkpt lat="43.3160233" lon="11.9207733"><ele>253.0</ele><time>2026-04-03T06:13:37.132Z</time></trkpt><trkpt lat="43.3161233" lon="11.9208683"><ele>253.0</ele><time>2026-04-03T06:13:38.132Z</time></trkpt><trkpt lat="43.316215" lon="11.92098"><ele>253.0</ele><time>2026-04-03T06:13:39.132Z</time></trkpt><trkpt lat="43.3162967" lon="11.92111"><ele>253.0</ele><time>2026-04-03T06:13:40.133Z</time></trkpt><trkpt lat="43.316355" lon="11.9212533"><ele>253.5</ele><time>2026-04-03T06:13:41.132Z</time></trkpt><trkpt lat="43.3164067" lon="11.921405"><ele>254.0</ele><time>2026-04-03T06:13:42.132Z</time></trkpt><trkpt lat="43.316455" lon="11.9215667"><ele>254.5</ele><time>2026-04-03T06:13:43.132Z</time></trkpt><trkpt lat="43.3165133" lon="11.9217367"><ele>255.0</ele><time>2026-04-03T06:13:44.133Z</time></trkpt><trkpt lat="43.316565" lon="11.92192"><ele>255.5</ele><time>2026-04-03T06:13:45.132Z</time></trkpt><trkpt lat="43.3166183" lon="11.92209"><ele>256.0</ele><time>2026-04-03T06:13:46.132Z</time></trkpt><trkpt lat="43.3166667" lon="11.9222533"><ele>256.5</ele><time>2026-04-03T06:13:47.133Z</time></trkpt><trkpt lat="43.3167083" lon="11.9224"><ele>257.0</ele><time>2026-04-03T06:13:48.132Z</time></trkpt><trkpt lat="43.3167467" lon="11.9225233"><ele>258.0</ele><time>2026-04-03T06:13:49.132Z</time></trkpt><trkpt lat="43.316785" lon="11.9226317"><ele>259.0</ele><time>2026-04-03T06:13:50.132Z</time></trkpt><trkpt lat="43.3168083" lon="11.922735"><ele>260.0</ele><time>2026-04-03T06:13:51.133Z</time></trkpt><trkpt lat="43.3168383" lon="11.92283"><ele>261.0</ele><time>2026-04-03T06:13:52.133Z</time></trkpt><trkpt lat="43.3168767" lon="11.922935"><ele>262.0</ele><time>2026-04-03T06:13:53.132Z</time></trkpt><trkpt lat="43.3169083" lon="11.923015"><ele>263.0</ele><time>2026-04-03T06:13:54.133Z</time></trkpt><trkpt lat="43.3169817" lon="11.9230717"><ele>263.0</ele><time>2026-04-03T06:13:56.132Z</time></trkpt><trkpt lat="43.317045" lon="11.9230783"><ele>263.0</ele><time>2026-04-03T06:13:57.132Z</time></trkpt><trkpt lat="43.3171267" lon="11.923065"><ele>263.0</ele><time>2026-04-03T06:13:58.132Z</time></trkpt><trkpt lat="43.317215" lon="11.9230367"><ele>263.0</ele><time>2026-04-03T06:13:59.132Z</time></trkpt><trkpt lat="43.3172917" lon="11.9230083"><ele>263.0</ele><time>2026-04-03T06:14:00.132Z</time></trkpt><trkpt lat="43.317375" lon="11.922975"><ele>263.0</ele><time>2026-04-03T06:14:02.132Z</time></trkpt><trkpt lat="43.3174117" lon="11.9230733"><ele>263.4</ele><time>2026-04-03T06:14:04.132Z</time></trkpt><trkpt lat="43.3174367" lon="11.92324"><ele>263.8</ele><time>2026-04-03T06:14:06.133Z</time></trkpt><trkpt lat="43.3174467" lon="11.9233333"><ele>264.2</ele><time>2026-04-03T06:14:07.132Z</time></trkpt><trkpt lat="43.3174567" lon="11.9234533"><ele>264.6</ele><time>2026-04-03T06:14:08.132Z</time></trkpt><trkpt lat="43.3174717" lon="11.9235717"><ele>265.0</ele><time>2026-04-03T06:14:09.133Z</time></trkpt><trkpt lat="43.3174917" lon="11.9236917"><ele>267.0</ele><time>2026-04-03T06:14:10.132Z</time></trkpt><trkpt lat="43.317515" lon="11.9238167"><ele>269.0</ele><time>2026-04-03T06:14:11.132Z</time></trkpt><trkpt lat="43.3175333" lon="11.9239417"><ele>271.0</ele><time>2026-04-03T06:14:12.132Z</time></trkpt><trkpt lat="43.3175533" lon="11.92406"><ele>273.0</ele><time>2026-04-03T06:14:13.132Z</time></trkpt><trkpt lat="43.3175667" lon="11.9241767"><ele>275.0</ele><time>2026-04-03T06:14:14.132Z</time></trkpt><trkpt lat="43.31762" lon="11.9242617"><ele>277.0</ele><time>2026-04-03T06:14:15.132Z</time></trkpt><trkpt lat="43.3176517" lon="11.9243533"><ele>279.0</ele><time>2026-04-03T06:14:16.132Z</time></trkpt><trkpt lat="43.3177117" lon="11.924485"><ele>281.0</ele><time>2026-04-03T06:14:18.132Z</time></trkpt><trkpt lat="43.31776" lon="11.92463"><ele>283.0</ele><time>2026-04-03T06:14:20.132Z</time></trkpt><trkpt lat="43.317815" lon="11.9247933"><ele>285.0</ele><time>2026-04-03T06:14:22.133Z</time></trkpt><trkpt lat="43.3178417" lon="11.92488"><ele>287.0</ele><time>2026-04-03T06:14:23.132Z</time></trkpt><trkpt lat="43.3178633" lon="11.924965"><ele>289.5</ele><time>2026-04-03T06:14:24.132Z</time></trkpt><trkpt lat="43.3178983" lon="11.9250983"><ele>292.0</ele><time>2026-04-03T06:14:26.132Z</time></trkpt><trkpt lat="43.3179483" lon="11.92516"><ele>294.5</ele><time>2026-04-03T06:14:28.132Z</time></trkpt><trkpt lat="43.3180133" lon="11.9252133"><ele>297.0</ele><time>2026-04-03T06:14:30.132Z</time></trkpt><trkpt lat="43.3180817" lon="11.9252983"><ele>299.5</ele><time>2026-04-03T06:14:32.133Z</time></trkpt><trkpt lat="43.31816" lon="11.9253967"><ele>302.0</ele><time>2026-04-03T06:14:34.133Z</time></trkpt><trkpt lat="43.3182017" lon="11.9254633"><ele>302.0</ele><time>2026-04-03T06:14:35.132Z</time></trkpt><trkpt lat="43.318245" lon="11.92554"><ele>302.0</ele><time>2026-04-03T06:14:36.132Z</time></trkpt><trkpt lat="43.3182883" lon="11.925615"><ele>302.0</ele><time>2026-04-03T06:14:37.132Z</time></trkpt><trkpt lat="43.318335" lon="11.9257033"><ele>302.0</ele><time>2026-04-03T06:14:38.132Z</time></trkpt><trkpt lat="43.3183933" lon="11.9257867"><ele>302.0</ele><time>2026-04-03T06:14:39.133Z</time></trkpt><trkpt lat="43.3184483" lon="11.9259"><ele>302.0</ele><time>2026-04-03T06:14:40.132Z</time></trkpt><trkpt lat="43.3185017" lon="11.9260183"><ele>302.75</ele><time>2026-04-03T06:14:41.133Z</time></trkpt><trkpt lat="43.3185567" lon="11.92616"><ele>303.5</ele><time>2026-04-03T06:14:42.132Z</time></trkpt><trkpt lat="43.3186083" lon="11.926315"><ele>304.25</ele><time>2026-04-03T06:14:43.132Z</time></trkpt><trkpt lat="43.3186517" lon="11.9264867"><ele>305.0</ele><time>2026-04-03T06:14:44.132Z</time></trkpt><trkpt lat="43.318685" lon="11.926655"><ele>304.75</ele><time>2026-04-03T06:14:45.132Z</time></trkpt><trkpt lat="43.3187167" lon="11.92683"><ele>304.5</ele><time>2026-04-03T06:14:46.132Z</time></trkpt><trkpt lat="43.31873" lon="11.927015"><ele>304.25</ele><time>2026-04-03T06:14:47.133Z</time></trkpt><trkpt lat="43.3187367" lon="11.9272133"><ele>304.0</ele><time>2026-04-03T06:14:48.132Z</time></trkpt><trkpt lat="43.318725" lon="11.927405"><ele>302.75</ele><time>2026-04-03T06:14:49.132Z</time></trkpt><trkpt lat="43.318705" lon="11.9275917"><ele>301.5</ele><time>2026-04-03T06:14:50.132Z</time></trkpt><trkpt lat="43.31867" lon="11.927775"><ele>300.25</ele><time>2026-04-03T06:14:51.132Z</time></trkpt><trkpt lat="43.318625" lon="11.9279467"><ele>299.0</ele><time>2026-04-03T06:14:52.132Z</time></trkpt><trkpt lat="43.3185717" lon="11.9280917"><ele>299.0</ele><time>2026-04-03T06:14:53.132Z</time></trkpt><trkpt lat="43.3185483" lon="11.928255"><ele>299.0</ele><time>2026-04-03T06:14:54.132Z</time></trkpt><trkpt lat="43.3185617" lon="11.9284183"><ele>299.0</ele><time>2026-04-03T06:14:55.132Z</time></trkpt><trkpt lat="43.3185783" lon="11.9285933"><ele>299.0</ele><time>2026-04-03T06:14:56.132Z</time></trkpt><trkpt lat="43.31859" lon="11.9287767"><ele>297.0</ele><time>2026-04-03T06:14:57.133Z</time></trkpt><trkpt lat="43.3185917" lon="11.9289567"><ele>295.0</ele><time>2026-04-03T06:14:58.132Z</time></trkpt><trkpt lat="43.3185733" lon="11.92913"><ele>293.0</ele><time>2026-04-03T06:14:59.132Z</time></trkpt><trkpt lat="43.3185283" lon="11.9293033"><ele>291.0</ele><time>2026-04-03T06:15:00.132Z</time></trkpt><trkpt lat="43.3184833" lon="11.9294567"><ele>288.5</ele><time>2026-04-03T06:15:01.133Z</time></trkpt><trkpt lat="43.31846" lon="11.929595"><ele>286.0</ele><time>2026-04-03T06:15:02.133Z</time></trkpt><trkpt lat="43.3184583" lon="11.9297617"><ele>283.5</ele><time>2026-04-03T06:15:03.132Z</time></trkpt><trkpt lat="43.318455" lon="11.929925"><ele>281.0</ele><time>2026-04-03T06:15:04.132Z</time></trkpt><trkpt lat="43.31846" lon="11.9301"><ele>279.0</ele><time>2026-04-03T06:15:05.133Z</time></trkpt><trkpt lat="43.3184633" lon="11.930305"><ele>277.0</ele><time>2026-04-03T06:15:06.132Z</time></trkpt><trkpt lat="43.31847" lon="11.9305133"><ele>275.0</ele><time>2026-04-03T06:15:07.132Z</time></trkpt><trkpt lat="43.3184767" lon="11.9307167"><ele>273.0</ele><time>2026-04-03T06:15:08.132Z</time></trkpt><trkpt lat="43.3185183" lon="11.9309017"><ele>272.0</ele><time>2026-04-03T06:15:09.132Z</time></trkpt><trkpt lat="43.318585" lon="11.9310633"><ele>271.0</ele><time>2026-04-03T06:15:10.132Z</time></trkpt><trkpt lat="43.3186683" lon="11.9312217"><ele>270.0</ele><time>2026-04-03T06:15:11.132Z</time></trkpt><trkpt lat="43.3187683" lon="11.9313767"><ele>269.0</ele><time>2026-04-03T06:15:12.133Z</time></trkpt><trkpt lat="43.3188717" lon="11.9315217"><ele>267.5</ele><time>2026-04-03T06:15:13.132Z</time></trkpt><trkpt lat="43.3189767" lon="11.9316683"><ele>266.0</ele><time>2026-04-03T06:15:14.132Z</time></trkpt><trkpt lat="43.3190767" lon="11.931815"><ele>264.5</ele><time>2026-04-03T06:15:15.132Z</time></trkpt><trkpt lat="43.3191517" lon="11.9319483"><ele>263.0</ele><time>2026-04-03T06:15:16.132Z</time></trkpt><trkpt lat="43.3192117" lon="11.93206"><ele>262.83333333333337</ele><time>2026-04-03T06:15:17.132Z</time></trkpt><trkpt lat="43.31926" lon="11.9321383"><ele>262.6666666666667</ele><time>2026-04-03T06:15:18.133Z</time></trkpt><trkpt lat="43.319315" lon="11.93221"><ele>262.5</ele><time>2026-04-03T06:15:19.132Z</time></trkpt><trkpt lat="43.3193917" lon="11.93231"><ele>262.3333333333333</ele><time>2026-04-03T06:15:21.132Z</time></trkpt><trkpt lat="43.3194483" lon="11.9323683"><ele>262.16666666666663</ele><time>2026-04-03T06:15:22.132Z</time></trkpt><trkpt lat="43.319525" lon="11.93244"><ele>262.0</ele><time>2026-04-03T06:15:23.132Z</time></trkpt><trkpt lat="43.3196167" lon="11.9325267"><ele>262.0</ele><time>2026-04-03T06:15:24.132Z</time></trkpt><trkpt lat="43.31972" lon="11.9326133"><ele>262.0</ele><time>2026-04-03T06:15:25.132Z</time></trkpt><trkpt lat="43.3198367" lon="11.9327167"><ele>262.0</ele><time>2026-04-03T06:15:26.132Z</time></trkpt><trkpt lat="43.3199533" lon="11.932835"><ele>262.0</ele><time>2026-04-03T06:15:27.132Z</time></trkpt><trkpt lat="43.3200633" lon="11.93295"><ele>262.0</ele><time>2026-04-03T06:15:28.133Z</time></trkpt><trkpt lat="43.3201583" lon="11.9330667"><ele>262.0</ele><time>2026-04-03T06:15:29.132Z</time></trkpt><trkpt lat="43.32023" lon="11.933175"><ele>262.0</ele><time>2026-04-03T06:15:30.132Z</time></trkpt><trkpt lat="43.320275" lon="11.9332733"><ele>262.0</ele><time>2026-04-03T06:15:31.132Z</time></trkpt><trkpt lat="43.320285" lon="11.93336"><ele>262.0</ele><time>2026-04-03T06:15:32.132Z</time></trkpt><trkpt lat="43.3202633" lon="11.9334417"><ele>262.0</ele><time>2026-04-03T06:15:33.132Z</time></trkpt><trkpt lat="43.3202033" lon="11.9335167"><ele>262.0</ele><time>2026-04-03T06:15:34.132Z</time></trkpt><trkpt lat="43.320125" lon="11.93361"><ele>262.0</ele><time>2026-04-03T06:15:35.132Z</time></trkpt><trkpt lat="43.3200767" lon="11.9337267"><ele>262.0</ele><time>2026-04-03T06:15:36.132Z</time></trkpt><trkpt lat="43.320035" lon="11.9338717"><ele>262.0</ele><time>2026-04-03T06:15:37.132Z</time></trkpt><trkpt lat="43.3200133" lon="11.93404"><ele>262.0</ele><time>2026-04-03T06:15:38.133Z</time></trkpt><trkpt lat="43.3200033" lon="11.9342233"><ele>262.2</ele><time>2026-04-03T06:15:39.132Z</time></trkpt><trkpt lat="43.3199983" lon="11.9344067"><ele>262.4</ele><time>2026-04-03T06:15:40.132Z</time></trkpt><trkpt lat="43.3200033" lon="11.934585"><ele>262.6</ele><time>2026-04-03T06:15:41.132Z</time></trkpt><trkpt lat="43.3200033" lon="11.9347233"><ele>262.8</ele><time>2026-04-03T06:15:42.132Z</time></trkpt><trkpt lat="43.3200033" lon="11.934825"><ele>263.0</ele><time>2026-04-03T06:15:43.133Z</time></trkpt><trkpt lat="43.3199883" lon="11.9349417"><ele>263.0</ele><time>2026-04-03T06:15:45.133Z</time></trkpt><trkpt lat="43.3198983" lon="11.93502"><ele>263.0</ele><time>2026-04-03T06:15:47.133Z</time></trkpt><trkpt lat="43.3198333" lon="11.9350667"><ele>263.0</ele><time>2026-04-03T06:15:48.132Z</time></trkpt><trkpt lat="43.3197483" lon="11.9351133"><ele>263.0</ele><time>2026-04-03T06:15:49.133Z</time></trkpt><trkpt lat="43.3196467" lon="11.93516"><ele>263.0</ele><time>2026-04-03T06:15:50.132Z</time></trkpt><trkpt lat="43.3195317" lon="11.9352033"><ele>263.5</ele><time>2026-04-03T06:15:51.133Z</time></trkpt><trkpt lat="43.3194067" lon="11.9352533"><ele>264.0</ele><time>2026-04-03T06:15:52.132Z</time></trkpt><trkpt lat="43.31927" lon="11.9353017"><ele>264.5</ele><time>2026-04-03T06:15:53.132Z</time></trkpt><trkpt lat="43.31912" lon="11.935345"><ele>265.0</ele><time>2026-04-03T06:15:54.133Z</time></trkpt><trkpt lat="43.3189683" lon="11.9353967"><ele>264.66666666666663</ele><time>2026-04-03T06:15:55.132Z</time></trkpt><trkpt lat="43.3188233" lon="11.935435"><ele>264.3333333333333</ele><time>2026-04-03T06:15:56.132Z</time></trkpt><trkpt lat="43.318675" lon="11.9354883"><ele>264.0</ele><time>2026-04-03T06:15:57.132Z</time></trkpt><trkpt lat="43.31852" lon="11.935535"><ele>264.0</ele><time>2026-04-03T06:15:58.133Z</time></trkpt><trkpt lat="43.3183583" lon="11.93559"><ele>264.0</ele><time>2026-04-03T06:15:59.133Z</time></trkpt><trkpt lat="43.3182033" lon="11.9356483"><ele>264.0</ele><time>2026-04-03T06:16:00.133Z</time></trkpt><trkpt lat="43.3180483" lon="11.9357067"><ele>265.3333333333333</ele><time>2026-04-03T06:16:01.132Z</time></trkpt><trkpt lat="43.317895" lon="11.93576"><ele>266.66666666666663</ele><time>2026-04-03T06:16:02.133Z</time></trkpt><trkpt lat="43.3177267" lon="11.93581"><ele>268.0</ele><time>2026-04-03T06:16:03.133Z</time></trkpt><trkpt lat="43.31756" lon="11.9358617"><ele>268.0</ele><time>2026-04-03T06:16:04.132Z</time></trkpt><trkpt lat="43.3174183" lon="11.9359217"><ele>268.0</ele><time>2026-04-03T06:16:05.132Z</time></trkpt><trkpt lat="43.317285" lon="11.936"><ele>268.0</ele><time>2026-04-03T06:16:06.132Z</time></trkpt><trkpt lat="43.3171567" lon="11.9360833"><ele>268.0</ele><time>2026-04-03T06:16:07.133Z</time></trkpt><trkpt lat="43.3170667" lon="11.9361683"><ele>268.0</ele><time>2026-04-03T06:16:08.133Z</time></trkpt><trkpt lat="43.3170233" lon="11.9362433"><ele>268.0</ele><time>2026-04-03T06:16:09.132Z</time></trkpt><trkpt lat="43.31702" lon="11.9363867"><ele>268.0</ele><time>2026-04-03T06:16:11.132Z</time></trkpt><trkpt lat="43.3170483" lon="11.9364717"><ele>268.0</ele><time>2026-04-03T06:16:12.132Z</time></trkpt><trkpt lat="43.317095" lon="11.9365883"><ele>268.0</ele><time>2026-04-03T06:16:13.132Z</time></trkpt><trkpt lat="43.3171417" lon="11.93673"><ele>268.0</ele><time>2026-04-03T06:16:14.132Z</time></trkpt><trkpt lat="43.3171883" lon="11.9368833"><ele>268.0</ele><time>2026-04-03T06:16:15.133Z</time></trkpt><trkpt lat="43.3172367" lon="11.9370583"><ele>268.0</ele><time>2026-04-03T06:16:16.132Z</time></trkpt><trkpt lat="43.3172933" lon="11.9372517"><ele>268.0</ele><time>2026-04-03T06:16:17.132Z</time></trkpt><trkpt lat="43.3173517" lon="11.93745"><ele>268.3333333333333</ele><time>2026-04-03T06:16:18.132Z</time></trkpt><trkpt lat="43.3174133" lon="11.9376583"><ele>268.6666666666667</ele><time>2026-04-03T06:16:19.132Z</time></trkpt><trkpt lat="43.31748" lon="11.9378483"><ele>269.0</ele><time>2026-04-03T06:16:20.132Z</time></trkpt><trkpt lat="43.3175417" lon="11.93803"><ele>269.0</ele><time>2026-04-03T06:16:21.132Z</time></trkpt><trkpt lat="43.3175933" lon="11.9382067"><ele>269.0</ele><time>2026-04-03T06:16:22.132Z</time></trkpt><trkpt lat="43.3176417" lon="11.93837"><ele>269.0</ele><time>2026-04-03T06:16:23.132Z</time></trkpt><trkpt lat="43.317675" lon="11.9385233"><ele>269.0</ele><time>2026-04-03T06:16:24.132Z</time></trkpt><trkpt lat="43.317685" lon="11.938685"><ele>269.0</ele><time>2026-04-03T06:16:25.133Z</time></trkpt><trkpt lat="43.3176833" lon="11.9388467"><ele>269.0</ele><time>2026-04-03T06:16:26.132Z</time></trkpt><trkpt lat="43.31767" lon="11.9390183"><ele>269.0</ele><time>2026-04-03T06:16:27.132Z</time></trkpt><trkpt lat="43.3176417" lon="11.93922"><ele>269.0</ele><time>2026-04-03T06:16:28.132Z</time></trkpt><trkpt lat="43.3176133" lon="11.939415"><ele>269.0</ele><time>2026-04-03T06:16:29.133Z</time></trkpt><trkpt lat="43.317585" lon="11.93961"><ele>269.0</ele><time>2026-04-03T06:16:30.133Z</time></trkpt><trkpt lat="43.3175467" lon="11.9397983"><ele>269.0</ele><time>2026-04-03T06:16:31.132Z</time></trkpt><trkpt lat="43.3175067" lon="11.9399833"><ele>269.0</ele><time>2026-04-03T06:16:32.132Z</time></trkpt><trkpt lat="43.3174767" lon="11.9401783"><ele>269.33333333333337</ele><time>2026-04-03T06:16:33.132Z</time></trkpt><trkpt lat="43.3174617" lon="11.9403867"><ele>269.6666666666667</ele><time>2026-04-03T06:16:34.132Z</time></trkpt><trkpt lat="43.3174483" lon="11.940595"><ele>270.0</ele><time>2026-04-03T06:16:35.133Z</time></trkpt><trkpt lat="43.3174417" lon="11.9408067"><ele>270.25</ele><time>2026-04-03T06:16:36.133Z</time></trkpt><trkpt lat="43.317445" lon="11.941015"><ele>270.5</ele><time>2026-04-03T06:16:37.132Z</time></trkpt><trkpt lat="43.3174533" lon="11.941215"><ele>270.75</ele><time>2026-04-03T06:16:38.133Z</time></trkpt><trkpt lat="43.3174633" lon="11.9414083"><ele>271.0</ele><time>2026-04-03T06:16:39.132Z</time></trkpt><trkpt lat="43.317485" lon="11.9415833"><ele>271.2</ele><time>2026-04-03T06:16:40.132Z</time></trkpt><trkpt lat="43.3175067" lon="11.9417467"><ele>271.40000000000003</ele><time>2026-04-03T06:16:41.132Z</time></trkpt><trkpt lat="43.317515" lon="11.9418883"><ele>271.6</ele><time>2026-04-03T06:16:42.132Z</time></trkpt><trkpt lat="43.3175017" lon="11.9419967"><ele>271.8</ele><time>2026-04-03T06:16:43.133Z</time></trkpt><trkpt lat="43.3174683" lon="11.9420983"><ele>272.0</ele><time>2026-04-03T06:16:44.132Z</time></trkpt><trkpt lat="43.3174233" lon="11.9422"><ele>272.0</ele><time>2026-04-03T06:16:45.133Z</time></trkpt><trkpt lat="43.3173683" lon="11.9422883"><ele>272.0</ele><time>2026-04-03T06:16:46.132Z</time></trkpt><trkpt lat="43.3172867" lon="11.9423917"><ele>272.0</ele><time>2026-04-03T06:16:47.133Z</time></trkpt><trkpt lat="43.3171833" lon="11.942515"><ele>272.0</ele><time>2026-04-03T06:16:48.132Z</time></trkpt><trkpt lat="43.3170767" lon="11.9426517"><ele>273.0</ele><time>2026-04-03T06:16:49.133Z</time></trkpt><trkpt lat="43.3169767" lon="11.9428067"><ele>274.0</ele><time>2026-04-03T06:16:50.133Z</time></trkpt><trkpt lat="43.3168617" lon="11.9429667"><ele>275.0</ele><time>2026-04-03T06:16:51.133Z</time></trkpt><trkpt lat="43.3167467" lon="11.94313"><ele>275.0</ele><time>2026-04-03T06:16:52.133Z</time></trkpt><trkpt lat="43.3166233" lon="11.9432983"><ele>275.0</ele><time>2026-04-03T06:16:53.133Z</time></trkpt><trkpt lat="43.316515" lon="11.9434733"><ele>275.0</ele><time>2026-04-03T06:16:54.132Z</time></trkpt><trkpt lat="43.3164217" lon="11.94364"><ele>276.6</ele><time>2026-04-03T06:16:55.132Z</time></trkpt><trkpt lat="43.31634" lon="11.9437933"><ele>278.2</ele><time>2026-04-03T06:16:56.132Z</time></trkpt><trkpt lat="43.3162817" lon="11.943935"><ele>279.8</ele><time>2026-04-03T06:16:57.133Z</time></trkpt><trkpt lat="43.3162517" lon="11.9440517"><ele>281.4</ele><time>2026-04-03T06:16:58.132Z</time></trkpt><trkpt lat="43.31628" lon="11.944185"><ele>283.0</ele><time>2026-04-03T06:17:00.132Z</time></trkpt><trkpt lat="43.316395" lon="11.9442717"><ele>282.8</ele><time>2026-04-03T06:17:02.132Z</time></trkpt><trkpt lat="43.31646" lon="11.9443233"><ele>282.6</ele><time>2026-04-03T06:17:03.132Z</time></trkpt><trkpt lat="43.316515" lon="11.9443933"><ele>282.4</ele><time>2026-04-03T06:17:04.133Z</time></trkpt><trkpt lat="43.3165733" lon="11.9445"><ele>282.2</ele><time>2026-04-03T06:17:05.132Z</time></trkpt><trkpt lat="43.3166283" lon="11.94464"><ele>282.0</ele><time>2026-04-03T06:17:06.132Z</time></trkpt><trkpt lat="43.316695" lon="11.9448"><ele>282.0</ele><time>2026-04-03T06:17:07.132Z</time></trkpt><trkpt lat="43.3167633" lon="11.944955"><ele>282.0</ele><time>2026-04-03T06:17:08.133Z</time></trkpt><trkpt lat="43.31683" lon="11.94509"><ele>282.0</ele><time>2026-04-03T06:17:09.132Z</time></trkpt><trkpt lat="43.3168717" lon="11.9452133"><ele>282.0</ele><time>2026-04-03T06:17:10.132Z</time></trkpt><trkpt lat="43.3168933" lon="11.9453217"><ele>282.0</ele><time>2026-04-03T06:17:11.132Z</time></trkpt><trkpt lat="43.31687" lon="11.9454683"><ele>282.25</ele><time>2026-04-03T06:17:13.132Z</time></trkpt><trkpt lat="43.3167467" lon="11.9455883"><ele>282.5</ele><time>2026-04-03T06:17:15.133Z</time></trkpt><trkpt lat="43.3166567" lon="11.9456417"><ele>282.75</ele><time>2026-04-03T06:17:16.132Z</time></trkpt><trkpt lat="43.316565" lon="11.945705"><ele>283.0</ele><time>2026-04-03T06:17:17.133Z</time></trkpt><trkpt lat="43.3164717" lon="11.945765"><ele>284.0</ele><time>2026-04-03T06:17:18.133Z</time></trkpt><trkpt lat="43.3163783" lon="11.9458233"><ele>285.0</ele><time>2026-04-03T06:17:19.132Z</time></trkpt><trkpt lat="43.3163117" lon="11.9458833"><ele>286.0</ele><time>2026-04-03T06:17:20.133Z</time></trkpt><trkpt lat="43.3162367" lon="11.9459667"><ele>287.0</ele><time>2026-04-03T06:17:22.133Z</time></trkpt><trkpt lat="43.3162583" lon="11.9460833"><ele>288.0</ele><time>2026-04-03T06:17:24.133Z</time></trkpt><trkpt lat="43.316295" lon="11.9461717"><ele>289.0</ele><time>2026-04-03T06:17:25.133Z</time></trkpt><trkpt lat="43.3163483" lon="11.9462867"><ele>288.0</ele><time>2026-04-03T06:17:26.132Z</time></trkpt><trkpt lat="43.316425" lon="11.9464217"><ele>287.0</ele><time>2026-04-03T06:17:27.132Z</time></trkpt><trkpt lat="43.316505" lon="11.94657"><ele>286.0</ele><time>2026-04-03T06:17:28.133Z</time></trkpt><trkpt lat="43.3165867" lon="11.9467183"><ele>285.0</ele><time>2026-04-03T06:17:29.132Z</time></trkpt><trkpt lat="43.3166717" lon="11.9468683"><ele>285.0</ele><time>2026-04-03T06:17:30.133Z</time></trkpt><trkpt lat="43.31676" lon="11.9470233"><ele>285.0</ele><time>2026-04-03T06:17:31.132Z</time></trkpt><trkpt lat="43.3168283" lon="11.94717"><ele>285.0</ele><time>2026-04-03T06:17:32.133Z</time></trkpt><trkpt lat="43.3169017" lon="11.9473233"><ele>285.0</ele><time>2026-04-03T06:17:33.132Z</time></trkpt><trkpt lat="43.3169817" lon="11.94747"><ele>284.75</ele><time>2026-04-03T06:17:34.132Z</time></trkpt><trkpt lat="43.317055" lon="11.9476233"><ele>284.5</ele><time>2026-04-03T06:17:35.132Z</time></trkpt><trkpt lat="43.317135" lon="11.947775"><ele>284.25</ele><time>2026-04-03T06:17:36.132Z</time></trkpt><trkpt lat="43.317205" lon="11.9479217"><ele>284.0</ele><time>2026-04-03T06:17:37.132Z</time></trkpt><trkpt lat="43.3172567" lon="11.94805"><ele>284.0</ele><time>2026-04-03T06:17:38.133Z</time></trkpt><trkpt lat="43.3172883" lon="11.9481467"><ele>284.0</ele><time>2026-04-03T06:17:39.132Z</time></trkpt><trkpt lat="43.3173167" lon="11.9482317"><ele>284.0</ele><time>2026-04-03T06:17:41.132Z</time></trkpt><trkpt lat="43.3172817" lon="11.948105"><ele>284.0</ele><time>2026-04-03T06:17:54.133Z</time></trkpt><trkpt lat="43.3172333" lon="11.9480117"><ele>284.0</ele><time>2026-04-03T06:17:55.133Z</time></trkpt><trkpt lat="43.3171867" lon="11.94791"><ele>284.0</ele><time>2026-04-03T06:17:56.132Z</time></trkpt><trkpt lat="43.3171367" lon="11.9478167"><ele>284.1666666666667</ele><time>2026-04-03T06:17:57.132Z</time></trkpt><trkpt lat="43.3170883" lon="11.9477183"><ele>284.33333333333337</ele><time>2026-04-03T06:17:58.132Z</time></trkpt><trkpt lat="43.3170383" lon="11.9476133"><ele>284.5</ele><time>2026-04-03T06:17:59.133Z</time></trkpt><trkpt lat="43.316985" lon="11.947515"><ele>284.6666666666667</ele><time>2026-04-03T06:18:00.133Z</time></trkpt><trkpt lat="43.316945" lon="11.947425"><ele>284.8333333333333</ele><time>2026-04-03T06:18:01.132Z</time></trkpt><trkpt lat="43.3169117" lon="11.9473417"><ele>285.0</ele><time>2026-04-03T06:18:02.132Z</time></trkpt><trkpt lat="43.31688" lon="11.947205"><ele>285.0</ele><time>2026-04-03T06:18:04.132Z</time></trkpt><trkpt lat="43.3169517" lon="11.9471133"><ele>285.0</ele><time>2026-04-03T06:18:06.132Z</time></trkpt><trkpt lat="43.3170283" lon="11.94707"><ele>285.0</ele><time>2026-04-03T06:18:07.133Z</time></trkpt><trkpt lat="43.3171217" lon="11.9470167"><ele>285.0</ele><time>2026-04-03T06:18:08.133Z</time></trkpt><trkpt lat="43.3172283" lon="11.9469517"><ele>285.0</ele><time>2026-04-03T06:18:09.132Z</time></trkpt><trkpt lat="43.3173467" lon="11.94688"><ele>284.75</ele><time>2026-04-03T06:18:10.133Z</time></trkpt><trkpt lat="43.3174633" lon="11.9468083"><ele>284.5</ele><time>2026-04-03T06:18:11.132Z</time></trkpt><trkpt lat="43.3175817" lon="11.9467383"><ele>284.25</ele><time>2026-04-03T06:18:12.133Z</time></trkpt><trkpt lat="43.31769" lon="11.946685"><ele>284.0</ele><time>2026-04-03T06:18:13.132Z</time></trkpt><trkpt lat="43.3177917" lon="11.9466483"><ele>283.59999999999997</ele><time>2026-04-03T06:18:14.132Z</time></trkpt><trkpt lat="43.3178883" lon="11.9466283"><ele>283.2</ele><time>2026-04-03T06:18:15.132Z</time></trkpt><trkpt lat="43.3179983" lon="11.9466017"><ele>282.79999999999995</ele><time>2026-04-03T06:18:16.132Z</time></trkpt><trkpt lat="43.3181067" lon="11.94659"><ele>282.4</ele><time>2026-04-03T06:18:17.133Z</time></trkpt><trkpt lat="43.318215" lon="11.9466067"><ele>282.0</ele><time>2026-04-03T06:18:18.133Z</time></trkpt><trkpt lat="43.3183333" lon="11.9466483"><ele>282.0</ele><time>2026-04-03T06:18:19.132Z</time></trkpt><trkpt lat="43.3184417" lon="11.946695"><ele>282.0</ele><time>2026-04-03T06:18:20.133Z</time></trkpt><trkpt lat="43.31856" lon="11.94672"><ele>282.0</ele><time>2026-04-03T06:18:21.132Z</time></trkpt><trkpt lat="43.3186717" lon="11.9467233"><ele>282.0</ele><time>2026-04-03T06:18:22.132Z</time></trkpt><trkpt lat="43.31876" lon="11.94672"><ele>282.0</ele><time>2026-04-03T06:18:23.132Z</time></trkpt><trkpt lat="43.318825" lon="11.94672"><ele>282.0</ele><time>2026-04-03T06:18:24.132Z</time></trkpt><trkpt lat="43.31886" lon="11.9468267"><ele>282.0</ele><time>2026-04-03T06:18:27.133Z</time></trkpt><trkpt lat="43.318845" lon="11.94692"><ele>282.0</ele><time>2026-04-03T06:18:28.132Z</time></trkpt><trkpt lat="43.3188133" lon="11.947035"><ele>282.0</ele><time>2026-04-03T06:18:29.133Z</time></trkpt><trkpt lat="43.3187633" lon="11.94716"><ele>282.0</ele><time>2026-04-03T06:18:30.132Z</time></trkpt><trkpt lat="43.3186983" lon="11.94731"><ele>282.0</ele><time>2026-04-03T06:18:31.132Z</time></trkpt><trkpt lat="43.3186167" lon="11.9474517"><ele>282.0</ele><time>2026-04-03T06:18:32.132Z</time></trkpt><trkpt lat="43.3185333" lon="11.9476083"><ele>282.0</ele><time>2026-04-03T06:18:33.132Z</time></trkpt><trkpt lat="43.3184583" lon="11.9477833"><ele>282.0</ele><time>2026-04-03T06:18:34.133Z</time></trkpt><trkpt lat="43.3183867" lon="11.9479617"><ele>282.0</ele><time>2026-04-03T06:18:35.133Z</time></trkpt><trkpt lat="43.3183367" lon="11.9481317"><ele>282.0</ele><time>2026-04-03T06:18:36.132Z</time></trkpt><trkpt lat="43.3183083" lon="11.9483017"><ele>282.0</ele><time>2026-04-03T06:18:37.132Z</time></trkpt><trkpt lat="43.31831" lon="11.9484833"><ele>282.0</ele><time>2026-04-03T06:18:38.132Z</time></trkpt><trkpt lat="43.31833" lon="11.9486817"><ele>283.0</ele><time>2026-04-03T06:18:39.132Z</time></trkpt><trkpt lat="43.318365" lon="11.948885"><ele>284.0</ele><time>2026-04-03T06:18:40.133Z</time></trkpt><trkpt lat="43.318405" lon="11.9490967"><ele>285.0</ele><time>2026-04-03T06:18:41.133Z</time></trkpt><trkpt lat="43.318435" lon="11.9493217"><ele>285.6666666666667</ele><time>2026-04-03T06:18:42.132Z</time></trkpt><trkpt lat="43.3184533" lon="11.94955"><ele>286.33333333333337</ele><time>2026-04-03T06:18:43.132Z</time></trkpt><trkpt lat="43.3184467" lon="11.9497717"><ele>287.0</ele><time>2026-04-03T06:18:44.132Z</time></trkpt><trkpt lat="43.3184517" lon="11.9499767"><ele>287.6666666666667</ele><time>2026-04-03T06:18:45.132Z</time></trkpt><trkpt lat="43.31849" lon="11.950175"><ele>288.3333333333333</ele><time>2026-04-03T06:18:46.132Z</time></trkpt><trkpt lat="43.3185617" lon="11.950355"><ele>289.0</ele><time>2026-04-03T06:18:47.133Z</time></trkpt><trkpt lat="43.318645" lon="11.9505283"><ele>289.0</ele><time>2026-04-03T06:18:48.132Z</time></trkpt><trkpt lat="43.318725" lon="11.9507083"><ele>289.0</ele><time>2026-04-03T06:18:49.132Z</time></trkpt><trkpt lat="43.31879" lon="11.95089"><ele>289.0</ele><time>2026-04-03T06:18:50.133Z</time></trkpt><trkpt lat="43.3188283" lon="11.9510867"><ele>289.0</ele><time>2026-04-03T06:18:51.132Z</time></trkpt><trkpt lat="43.3188383" lon="11.9512867"><ele>290.0</ele><time>2026-04-03T06:18:52.133Z</time></trkpt><trkpt lat="43.3188317" lon="11.9514967"><ele>291.0</ele><time>2026-04-03T06:18:53.132Z</time></trkpt><trkpt lat="43.31881" lon="11.95171"><ele>292.0</ele><time>2026-04-03T06:18:54.132Z</time></trkpt><trkpt lat="43.3187833" lon="11.9519333"><ele>293.66666666666663</ele><time>2026-04-03T06:18:55.132Z</time></trkpt><trkpt lat="43.3187717" lon="11.9521433"><ele>295.3333333333333</ele><time>2026-04-03T06:18:56.132Z</time></trkpt><trkpt lat="43.3187283" lon="11.95238"><ele>297.0</ele><time>2026-04-03T06:18:57.132Z</time></trkpt><trkpt lat="43.3186917" lon="11.9526167"><ele>297.25</ele><time>2026-04-03T06:18:58.133Z</time></trkpt><trkpt lat="43.3186617" lon="11.952835"><ele>297.5</ele><time>2026-04-03T06:18:59.133Z</time></trkpt><trkpt lat="43.318635" lon="11.9530267"><ele>297.75</ele><time>2026-04-03T06:19:00.133Z</time></trkpt><trkpt lat="43.31864" lon="11.953175"><ele>298.0</ele><time>2026-04-03T06:19:01.132Z</time></trkpt><trkpt lat="43.318675" lon="11.9533333"><ele>298.75</ele><time>2026-04-03T06:19:02.132Z</time></trkpt><trkpt lat="43.3187167" lon="11.9534783"><ele>299.5</ele><time>2026-04-03T06:19:03.132Z</time></trkpt><trkpt lat="43.3187717" lon="11.953625"><ele>300.25</ele><time>2026-04-03T06:19:04.132Z</time></trkpt><trkpt lat="43.31883" lon="11.9537883"><ele>301.0</ele><time>2026-04-03T06:19:05.132Z</time></trkpt><trkpt lat="43.3188967" lon="11.953975"><ele>302.0</ele><time>2026-04-03T06:19:06.133Z</time></trkpt><trkpt lat="43.3189667" lon="11.9541683"><ele>303.0</ele><time>2026-04-03T06:19:07.133Z</time></trkpt><trkpt lat="43.3190333" lon="11.954365"><ele>304.0</ele><time>2026-04-03T06:19:08.132Z</time></trkpt><trkpt lat="43.3191033" lon="11.9545617"><ele>305.0</ele><time>2026-04-03T06:19:09.131Z</time></trkpt><trkpt lat="43.31917" lon="11.954755"><ele>306.0</ele><time>2026-04-03T06:19:10.131Z</time></trkpt><trkpt lat="43.3192433" lon="11.9549583"><ele>307.0</ele><time>2026-04-03T06:19:11.131Z</time></trkpt><trkpt lat="43.3193067" lon="11.9551617"><ele>308.0</ele><time>2026-04-03T06:19:12.131Z</time></trkpt><trkpt lat="43.31938" lon="11.9553717"><ele>309.0</ele><time>2026-04-03T06:19:13.131Z</time></trkpt><trkpt lat="43.319445" lon="11.9555783"><ele>310.0</ele><time>2026-04-03T06:19:14.131Z</time></trkpt><trkpt lat="43.3195033" lon="11.9557833"><ele>312.0</ele><time>2026-04-03T06:19:15.131Z</time></trkpt><trkpt lat="43.3195683" lon="11.9559733"><ele>314.0</ele><time>2026-04-03T06:19:16.131Z</time></trkpt><trkpt lat="43.3196283" lon="11.9561633"><ele>316.0</ele><time>2026-04-03T06:19:17.132Z</time></trkpt><trkpt lat="43.3196833" lon="11.95636"><ele>315.3333333333333</ele><time>2026-04-03T06:19:18.131Z</time></trkpt><trkpt lat="43.31975" lon="11.9565717"><ele>314.6666666666667</ele><time>2026-04-03T06:19:19.131Z</time></trkpt><trkpt lat="43.3198333" lon="11.9567783"><ele>314.0</ele><time>2026-04-03T06:19:20.131Z</time></trkpt><trkpt lat="43.3199217" lon="11.9569833"><ele>316.33333333333337</ele><time>2026-04-03T06:19:21.131Z</time></trkpt><trkpt lat="43.3200283" lon="11.957175"><ele>318.6666666666667</ele><time>2026-04-03T06:19:22.131Z</time></trkpt><trkpt lat="43.320135" lon="11.957365"><ele>321.0</ele><time>2026-04-03T06:19:23.132Z</time></trkpt><trkpt lat="43.3202383" lon="11.957545"><ele>322.3333333333333</ele><time>2026-04-03T06:19:24.131Z</time></trkpt><trkpt lat="43.3203683" lon="11.957725"><ele>323.66666666666663</ele><time>2026-04-03T06:19:25.131Z</time></trkpt><trkpt lat="43.3204917" lon="11.9578917"><ele>325.0</ele><time>2026-04-03T06:19:26.131Z</time></trkpt><trkpt lat="43.3206133" lon="11.9580517"><ele>325.0</ele><time>2026-04-03T06:19:27.132Z</time></trkpt><trkpt lat="43.3207417" lon="11.9582083"><ele>325.0</ele><time>2026-04-03T06:19:28.132Z</time></trkpt><trkpt lat="43.3208567" lon="11.95835"><ele>325.0</ele><time>2026-04-03T06:19:29.132Z</time></trkpt><trkpt lat="43.3209617" lon="11.958465"><ele>325.6</ele><time>2026-04-03T06:19:30.131Z</time></trkpt><trkpt lat="43.3210533" lon="11.9585533"><ele>326.2</ele><time>2026-04-03T06:19:31.131Z</time></trkpt><trkpt lat="43.3211417" lon="11.9586117"><ele>326.79999999999995</ele><time>2026-04-03T06:19:32.132Z</time></trkpt><trkpt lat="43.32123" lon="11.9586783"><ele>327.4</ele><time>2026-04-03T06:19:33.132Z</time></trkpt><trkpt lat="43.3213233" lon="11.958765"><ele>328.0</ele><time>2026-04-03T06:19:34.131Z</time></trkpt><trkpt lat="43.3214167" lon="11.9588717"><ele>328.0</ele><time>2026-04-03T06:19:35.131Z</time></trkpt><trkpt lat="43.3215133" lon="11.9589583"><ele>328.0</ele><time>2026-04-03T06:19:36.131Z</time></trkpt><trkpt lat="43.3216233" lon="11.9590333"><ele>328.0</ele><time>2026-04-03T06:19:37.131Z</time></trkpt><trkpt lat="43.3217417" lon="11.9590933"><ele>328.0</ele><time>2026-04-03T06:19:38.131Z</time></trkpt><trkpt lat="43.32186" lon="11.9591167"><ele>328.0</ele><time>2026-04-03T06:19:39.131Z</time></trkpt><trkpt lat="43.3219633" lon="11.9591067"><ele>328.0</ele><time>2026-04-03T06:19:40.131Z</time></trkpt><trkpt lat="43.3220533" lon="11.959115"><ele>328.0</ele><time>2026-04-03T06:19:41.131Z</time></trkpt><trkpt lat="43.3221133" lon="11.9591633"><ele>328.0</ele><time>2026-04-03T06:19:42.132Z</time></trkpt><trkpt lat="43.32217" lon="11.9592333"><ele>328.0</ele><time>2026-04-03T06:19:43.131Z</time></trkpt><trkpt lat="43.3222267" lon="11.9593417"><ele>328.0</ele><time>2026-04-03T06:19:44.131Z</time></trkpt><trkpt lat="43.3222933" lon="11.95944"><ele>329.79999999999995</ele><time>2026-04-03T06:19:45.131Z</time></trkpt><trkpt lat="43.3223717" lon="11.9595367"><ele>331.6</ele><time>2026-04-03T06:19:46.131Z</time></trkpt><trkpt lat="43.3224533" lon="11.959635"><ele>333.4</ele><time>2026-04-03T06:19:47.131Z</time></trkpt><trkpt lat="43.3225267" lon="11.9597483"><ele>335.20000000000005</ele><time>2026-04-03T06:19:48.132Z</time></trkpt><trkpt lat="43.3225933" lon="11.95988"><ele>337.0</ele><time>2026-04-03T06:19:49.132Z</time></trkpt><trkpt lat="43.322625" lon="11.9600283"><ele>337.8</ele><time>2026-04-03T06:19:50.131Z</time></trkpt><trkpt lat="43.3226333" lon="11.9601817"><ele>338.6</ele><time>2026-04-03T06:19:51.131Z</time></trkpt><trkpt lat="43.32264" lon="11.960325"><ele>339.40000000000003</ele><time>2026-04-03T06:19:52.131Z</time></trkpt><trkpt lat="43.322665" lon="11.9604417"><ele>340.20000000000005</ele><time>2026-04-03T06:19:53.131Z</time></trkpt><trkpt lat="43.3227117" lon="11.960505"><ele>341.0</ele><time>2026-04-03T06:19:54.132Z</time></trkpt><trkpt lat="43.32284" lon="11.9604767"><ele>341.0</ele><time>2026-04-03T06:19:56.131Z</time></trkpt><trkpt lat="43.3228833" lon="11.9604"><ele>341.0</ele><time>2026-04-03T06:19:57.131Z</time></trkpt><trkpt lat="43.3228983" lon="11.9602983"><ele>341.0</ele><time>2026-04-03T06:19:58.132Z</time></trkpt><trkpt lat="43.3228933" lon="11.9601867"><ele>341.0</ele><time>2026-04-03T06:19:59.131Z</time></trkpt><trkpt lat="43.3228567" lon="11.960025"><ele>341.0</ele><time>2026-04-03T06:20:00.132Z</time></trkpt><trkpt lat="43.3228267" lon="11.9598667"><ele>340.33333333333337</ele><time>2026-04-03T06:20:01.131Z</time></trkpt><trkpt lat="43.3228383" lon="11.95973"><ele>339.6666666666667</ele><time>2026-04-03T06:20:02.132Z</time></trkpt><trkpt lat="43.3228783" lon="11.9596267"><ele>339.0</ele><time>2026-04-03T06:20:03.131Z</time></trkpt><trkpt lat="43.32294" lon="11.95957"><ele>338.3333333333333</ele><time>2026-04-03T06:20:04.132Z</time></trkpt><trkpt lat="43.3230133" lon="11.9596017"><ele>337.66666666666663</ele><time>2026-04-03T06:20:05.132Z</time></trkpt><trkpt lat="43.3230667" lon="11.9596767"><ele>337.0</ele><time>2026-04-03T06:20:06.131Z</time></trkpt><trkpt lat="43.3230767" lon="11.959795"><ele>338.0</ele><time>2026-04-03T06:20:07.131Z</time></trkpt><trkpt lat="43.323065" lon="11.9599317"><ele>339.0</ele><time>2026-04-03T06:20:08.131Z</time></trkpt><trkpt lat="43.3230483" lon="11.9600883"><ele>340.0</ele><time>2026-04-03T06:20:09.131Z</time></trkpt><trkpt lat="43.3230483" lon="11.9602567"><ele>341.0</ele><time>2026-04-03T06:20:10.132Z</time></trkpt><trkpt lat="43.3230567" lon="11.9604317"><ele>346.25</ele><time>2026-04-03T06:20:11.131Z</time></trkpt><trkpt lat="43.3230817" lon="11.9606117"><ele>351.5</ele><time>2026-04-03T06:20:12.131Z</time></trkpt><trkpt lat="43.32313" lon="11.960815"><ele>356.75</ele><time>2026-04-03T06:20:13.131Z</time></trkpt><trkpt lat="43.3232" lon="11.9610017"><ele>362.0</ele><time>2026-04-03T06:20:14.132Z</time></trkpt><trkpt lat="43.323275" lon="11.961185"><ele>362.0</ele><time>2026-04-03T06:20:15.131Z</time></trkpt><trkpt lat="43.323355" lon="11.9613683"><ele>362.0</ele><time>2026-04-03T06:20:16.131Z</time></trkpt><trkpt lat="43.3234417" lon="11.9615483"><ele>362.0</ele><time>2026-04-03T06:20:17.132Z</time></trkpt><trkpt lat="43.3235367" lon="11.9617217"><ele>361.75</ele><time>2026-04-03T06:20:18.131Z</time></trkpt><trkpt lat="43.32363" lon="11.9618783"><ele>361.5</ele><time>2026-04-03T06:20:19.131Z</time></trkpt><trkpt lat="43.323715" lon="11.9620217"><ele>361.25</ele><time>2026-04-03T06:20:20.131Z</time></trkpt><trkpt lat="43.3237633" lon="11.9621667"><ele>361.0</ele><time>2026-04-03T06:20:21.131Z</time></trkpt><trkpt lat="43.3238067" lon="11.9622933"><ele>361.0</ele><time>2026-04-03T06:20:22.131Z</time></trkpt><trkpt lat="43.3238617" lon="11.9624067"><ele>361.0</ele><time>2026-04-03T06:20:23.131Z</time></trkpt><trkpt lat="43.3239267" lon="11.962465"><ele>361.0</ele><time>2026-04-03T06:20:24.132Z</time></trkpt><trkpt lat="43.3240183" lon="11.9625033"><ele>361.0</ele><time>2026-04-03T06:20:25.131Z</time></trkpt><trkpt lat="43.3241083" lon="11.9625383"><ele>361.0</ele><time>2026-04-03T06:20:26.131Z</time></trkpt><trkpt lat="43.324185" lon="11.9625833"><ele>361.0</ele><time>2026-04-03T06:20:27.131Z</time></trkpt><trkpt lat="43.3242467" lon="11.9626983"><ele>367.5</ele><time>2026-04-03T06:20:29.132Z</time></trkpt><trkpt lat="43.3241233" lon="11.9628433"><ele>374.0</ele><time>2026-04-03T06:20:31.131Z</time></trkpt><trkpt lat="43.32404" lon="11.9629417"><ele>380.5</ele><time>2026-04-03T06:20:32.131Z</time></trkpt><trkpt lat="43.32399" lon="11.9630633"><ele>387.0</ele><time>2026-04-03T06:20:33.131Z</time></trkpt><trkpt lat="43.3239717" lon="11.9632067"><ele>387.0</ele><time>2026-04-03T06:20:34.131Z</time></trkpt><trkpt lat="43.3239983" lon="11.9633567"><ele>387.0</ele><time>2026-04-03T06:20:35.132Z</time></trkpt><trkpt lat="43.3240383" lon="11.9634983"><ele>387.0</ele><time>2026-04-03T06:20:36.131Z</time></trkpt><trkpt lat="43.3240467" lon="11.9636067"><ele>387.0</ele><time>2026-04-03T06:20:37.131Z</time></trkpt><trkpt lat="43.3239967" lon="11.9636667"><ele>387.0</ele><time>2026-04-03T06:20:38.132Z</time></trkpt><trkpt lat="43.3239333" lon="11.9636883"><ele>387.0</ele><time>2026-04-03T06:20:39.131Z</time></trkpt><trkpt lat="43.323875" lon="11.9637217"><ele>385.20000000000005</ele><time>2026-04-03T06:20:40.132Z</time></trkpt><trkpt lat="43.3238217" lon="11.9637783"><ele>383.4</ele><time>2026-04-03T06:20:41.131Z</time></trkpt><trkpt lat="43.3237983" lon="11.963895"><ele>381.6</ele><time>2026-04-03T06:20:42.131Z</time></trkpt><trkpt lat="43.32379" lon="11.9640367"><ele>379.79999999999995</ele><time>2026-04-03T06:20:43.131Z</time></trkpt><trkpt lat="43.3237983" lon="11.9641867"><ele>378.0</ele><time>2026-04-03T06:20:44.132Z</time></trkpt><trkpt lat="43.3238367" lon="11.9643217"><ele>381.0</ele><time>2026-04-03T06:20:45.131Z</time></trkpt><trkpt lat="43.3239117" lon="11.9644167"><ele>384.0</ele><time>2026-04-03T06:20:46.132Z</time></trkpt><trkpt lat="43.324005" lon="11.964485"><ele>387.0</ele><time>2026-04-03T06:20:47.131Z</time></trkpt><trkpt lat="43.3240633" lon="11.9645567"><ele>390.0</ele><time>2026-04-03T06:20:48.132Z</time></trkpt><trkpt lat="43.3240917" lon="11.9646717"><ele>393.0</ele><time>2026-04-03T06:20:49.131Z</time></trkpt><trkpt lat="43.3240983" lon="11.9648033"><ele>393.0</ele><time>2026-04-03T06:20:50.132Z</time></trkpt><trkpt lat="43.3241083" lon="11.9649517"><ele>393.0</ele><time>2026-04-03T06:20:51.131Z</time></trkpt><trkpt lat="43.3241433" lon="11.9650833"><ele>393.0</ele><time>2026-04-03T06:20:52.132Z</time></trkpt><trkpt lat="43.3242133" lon="11.96519"><ele>393.0</ele><time>2026-04-03T06:20:53.131Z</time></trkpt><trkpt lat="43.3243167" lon="11.965255"><ele>393.0</ele><time>2026-04-03T06:20:54.131Z</time></trkpt><trkpt lat="43.3244367" lon="11.965275"><ele>393.5</ele><time>2026-04-03T06:20:55.131Z</time></trkpt><trkpt lat="43.3245583" lon="11.965275"><ele>394.0</ele><time>2026-04-03T06:20:56.131Z</time></trkpt><trkpt lat="43.3246817" lon="11.9652633"><ele>394.5</ele><time>2026-04-03T06:20:57.131Z</time></trkpt><trkpt lat="43.3248117" lon="11.965255"><ele>395.0</ele><time>2026-04-03T06:20:58.131Z</time></trkpt><trkpt lat="43.324945" lon="11.9652567"><ele>397.99999999999994</ele><time>2026-04-03T06:20:59.132Z</time></trkpt><trkpt lat="43.3250467" lon="11.9652667"><ele>401.0</ele><time>2026-04-03T06:21:00.131Z</time></trkpt><trkpt lat="43.3251383" lon="11.965325"><ele>404.0</ele><time>2026-04-03T06:21:01.131Z</time></trkpt><trkpt lat="43.325205" lon="11.96539"><ele>407.0</ele><time>2026-04-03T06:21:02.131Z</time></trkpt><trkpt lat="43.3252467" lon="11.9654783"><ele>409.99999999999994</ele><time>2026-04-03T06:21:03.131Z</time></trkpt><trkpt lat="43.32525" lon="11.9655717"><ele>413.0</ele><time>2026-04-03T06:21:04.132Z</time></trkpt><trkpt lat="43.3251433" lon="11.9656883"><ele>413.0</ele><time>2026-04-03T06:21:05.131Z</time></trkpt><trkpt lat="43.3250717" lon="11.96581"><ele>413.0</ele><time>2026-04-03T06:21:06.131Z</time></trkpt><trkpt lat="43.3250333" lon="11.9659383"><ele>413.0</ele><time>2026-04-03T06:21:07.132Z</time></trkpt><trkpt lat="43.32503" lon="11.96608"><ele>413.0</ele><time>2026-04-03T06:21:08.132Z</time></trkpt><trkpt lat="43.3250367" lon="11.966235"><ele>413.0</ele><time>2026-04-03T06:21:09.131Z</time></trkpt><trkpt lat="43.3250483" lon="11.9663917"><ele>415.25</ele><time>2026-04-03T06:21:10.131Z</time></trkpt><trkpt lat="43.325065" lon="11.9665467"><ele>417.5</ele><time>2026-04-03T06:21:11.131Z</time></trkpt><trkpt lat="43.3250717" lon="11.966705"><ele>419.75</ele><time>2026-04-03T06:21:12.131Z</time></trkpt><trkpt lat="43.3250767" lon="11.9668733"><ele>422.0</ele><time>2026-04-03T06:21:13.131Z</time></trkpt><trkpt lat="43.3250833" lon="11.9670483"><ele>424.49999999999994</ele><time>2026-04-03T06:21:14.131Z</time></trkpt><trkpt lat="43.3250783" lon="11.9672017"><ele>427.0</ele><time>2026-04-03T06:21:15.131Z</time></trkpt><trkpt lat="43.3250967" lon="11.967325"><ele>429.5</ele><time>2026-04-03T06:21:16.131Z</time></trkpt><trkpt lat="43.3251367" lon="11.9674083"><ele>432.0</ele><time>2026-04-03T06:21:17.131Z</time></trkpt><trkpt lat="43.3251933" lon="11.96746"><ele>434.49999999999994</ele><time>2026-04-03T06:21:18.131Z</time></trkpt><trkpt lat="43.3252617" lon="11.967475"><ele>437.0</ele><time>2026-04-03T06:21:19.131Z</time></trkpt><trkpt lat="43.3253217" lon="11.9674317"><ele>437.0</ele><time>2026-04-03T06:21:20.131Z</time></trkpt><trkpt lat="43.3253633" lon="11.9673433"><ele>437.00000000000006</ele><time>2026-04-03T06:21:21.132Z</time></trkpt><trkpt lat="43.3253617" lon="11.967205"><ele>437.00000000000006</ele><time>2026-04-03T06:21:22.131Z</time></trkpt><trkpt lat="43.325295" lon="11.967005"><ele>437.0</ele><time>2026-04-03T06:21:23.132Z</time></trkpt><trkpt lat="43.3252567" lon="11.9668767"><ele>437.0</ele><time>2026-04-03T06:21:24.131Z</time></trkpt><trkpt lat="43.3252533" lon="11.9667683"><ele>436.99999999999994</ele><time>2026-04-03T06:21:25.132Z</time></trkpt><trkpt lat="43.32529" lon="11.9666883"><ele>437.0</ele><time>2026-04-03T06:21:26.131Z</time></trkpt><trkpt lat="43.3253567" lon="11.9666817"><ele>437.0</ele><time>2026-04-03T06:21:27.131Z</time></trkpt><trkpt lat="43.325445" lon="11.966805"><ele>437.0</ele><time>2026-04-03T06:21:29.131Z</time></trkpt><trkpt lat="43.325465" lon="11.96691"><ele>436.99999999999994</ele><time>2026-04-03T06:21:30.132Z</time></trkpt><trkpt lat="43.3254633" lon="11.96704"><ele>437.0</ele><time>2026-04-03T06:21:31.131Z</time></trkpt><trkpt lat="43.3254533" lon="11.9671867"><ele>437.0</ele><time>2026-04-03T06:21:32.131Z</time></trkpt><trkpt lat="43.3254633" lon="11.9673333"><ele>437.0</ele><time>2026-04-03T06:21:33.131Z</time></trkpt><trkpt lat="43.325495" lon="11.96748"><ele>437.0</ele><time>2026-04-03T06:21:34.131Z</time></trkpt><trkpt lat="43.325545" lon="11.9676283"><ele>437.0</ele><time>2026-04-03T06:21:35.132Z</time></trkpt><trkpt lat="43.3255967" lon="11.9677833"><ele>439.8333333333333</ele><time>2026-04-03T06:21:36.131Z</time></trkpt><trkpt lat="43.325635" lon="11.9679183"><ele>442.66666666666663</ele><time>2026-04-03T06:21:37.132Z</time></trkpt><trkpt lat="43.3256617" lon="11.9680383"><ele>445.5</ele><time>2026-04-03T06:21:38.131Z</time></trkpt><trkpt lat="43.3256717" lon="11.96814"><ele>448.33333333333337</ele><time>2026-04-03T06:21:39.131Z</time></trkpt><trkpt lat="43.3256517" lon="11.9682267"><ele>451.1666666666667</ele><time>2026-04-03T06:21:40.132Z</time></trkpt><trkpt lat="43.3255667" lon="11.9683"><ele>454.0</ele><time>2026-04-03T06:21:42.131Z</time></trkpt><trkpt lat="43.3254217" lon="11.9682483"><ele>454.0</ele><time>2026-04-03T06:21:44.132Z</time></trkpt><trkpt lat="43.32531" lon="11.968185"><ele>454.0</ele><time>2026-04-03T06:21:45.131Z</time></trkpt><trkpt lat="43.3251467" lon="11.9679967"><ele>454.0</ele><time>2026-04-03T06:21:46.131Z</time></trkpt><trkpt lat="43.3250183" lon="11.9678783"><ele>454.0</ele><time>2026-04-03T06:21:47.132Z</time></trkpt><trkpt lat="43.32492" lon="11.9678117"><ele>454.0</ele><time>2026-04-03T06:21:48.131Z</time></trkpt><trkpt lat="43.324835" lon="11.9678033"><ele>454.0</ele><time>2026-04-03T06:21:49.131Z</time></trkpt><trkpt lat="43.3247583" lon="11.96795"><ele>454.0</ele><time>2026-04-03T06:21:51.131Z</time></trkpt><trkpt lat="43.3247533" lon="11.9680767"><ele>454.0</ele><time>2026-04-03T06:21:52.131Z</time></trkpt><trkpt lat="43.3247617" lon="11.9682283"><ele>456.25</ele><time>2026-04-03T06:21:53.131Z</time></trkpt><trkpt lat="43.3247667" lon="11.9683917"><ele>458.5</ele><time>2026-04-03T06:21:54.132Z</time></trkpt><trkpt lat="43.3247717" lon="11.9685667"><ele>460.75</ele><time>2026-04-03T06:21:55.131Z</time></trkpt><trkpt lat="43.3247717" lon="11.9687517"><ele>463.0</ele><time>2026-04-03T06:21:56.132Z</time></trkpt><trkpt lat="43.3247733" lon="11.9689517"><ele>463.0</ele><time>2026-04-03T06:21:57.131Z</time></trkpt><trkpt lat="43.3247783" lon="11.969155"><ele>463.0</ele><time>2026-04-03T06:21:58.132Z</time></trkpt><trkpt lat="43.3247833" lon="11.9693567"><ele>463.0</ele><time>2026-04-03T06:21:59.131Z</time></trkpt><trkpt lat="43.3247783" lon="11.9695483"><ele>463.0</ele><time>2026-04-03T06:22:00.131Z</time></trkpt><trkpt lat="43.3247867" lon="11.9697217"><ele>462.79999999999995</ele><time>2026-04-03T06:22:01.131Z</time></trkpt><trkpt lat="43.3248117" lon="11.96983"><ele>462.59999999999997</ele><time>2026-04-03T06:22:02.131Z</time></trkpt><trkpt lat="43.3249167" lon="11.9698467"><ele>462.40000000000003</ele><time>2026-04-03T06:22:04.131Z</time></trkpt><trkpt lat="43.324955" lon="11.9697667"><ele>462.20000000000005</ele><time>2026-04-03T06:22:05.131Z</time></trkpt><trkpt lat="43.3249733" lon="11.9696333"><ele>462.0</ele><time>2026-04-03T06:22:06.131Z</time></trkpt><trkpt lat="43.324985" lon="11.9694767"><ele>462.0</ele><time>2026-04-03T06:22:07.131Z</time></trkpt><trkpt lat="43.3249917" lon="11.9693033"><ele>462.0</ele><time>2026-04-03T06:22:08.131Z</time></trkpt><trkpt lat="43.325005" lon="11.96912"><ele>462.0</ele><time>2026-04-03T06:22:09.131Z</time></trkpt><trkpt lat="43.3250333" lon="11.96893"><ele>462.0</ele><time>2026-04-03T06:22:10.131Z</time></trkpt><trkpt lat="43.325075" lon="11.96879"><ele>462.0</ele><time>2026-04-03T06:22:11.132Z</time></trkpt><trkpt lat="43.3251283" lon="11.968715"><ele>462.0</ele><time>2026-04-03T06:22:12.131Z</time></trkpt><trkpt lat="43.32522" lon="11.9687233"><ele>462.0</ele><time>2026-04-03T06:22:14.131Z</time></trkpt><trkpt lat="43.3252283" lon="11.9688433"><ele>462.0</ele><time>2026-04-03T06:22:15.131Z</time></trkpt><trkpt lat="43.3252267" lon="11.9689483"><ele>462.0</ele><time>2026-04-03T06:22:16.131Z</time></trkpt><trkpt lat="43.3252183" lon="11.9690817"><ele>462.0</ele><time>2026-04-03T06:22:17.131Z</time></trkpt><trkpt lat="43.3251983" lon="11.96924"><ele>462.0</ele><time>2026-04-03T06:22:18.131Z</time></trkpt><trkpt lat="43.325175" lon="11.9693983"><ele>462.0</ele><time>2026-04-03T06:22:19.131Z</time></trkpt><trkpt lat="43.325165" lon="11.969545"><ele>462.0</ele><time>2026-04-03T06:22:20.132Z</time></trkpt><trkpt lat="43.325165" lon="11.9697033"><ele>462.0</ele><time>2026-04-03T06:22:21.131Z</time></trkpt><trkpt lat="43.3251867" lon="11.9698833"><ele>462.5</ele><time>2026-04-03T06:22:22.131Z</time></trkpt><trkpt lat="43.3252167" lon="11.9700583"><ele>463.0</ele><time>2026-04-03T06:22:23.132Z</time></trkpt><trkpt lat="43.3252433" lon="11.97024"><ele>463.5</ele><time>2026-04-03T06:22:24.131Z</time></trkpt><trkpt lat="43.3252817" lon="11.9703983"><ele>464.0</ele><time>2026-04-03T06:22:25.132Z</time></trkpt><trkpt lat="43.3253317" lon="11.97052"><ele>464.0</ele><time>2026-04-03T06:22:26.131Z</time></trkpt><trkpt lat="43.325395" lon="11.9705867"><ele>464.0</ele><time>2026-04-03T06:22:27.131Z</time></trkpt><trkpt lat="43.325475" lon="11.9706317"><ele>464.0</ele><time>2026-04-03T06:22:28.131Z</time></trkpt><trkpt lat="43.3255733" lon="11.9706683"><ele>464.0</ele><time>2026-04-03T06:22:29.131Z</time></trkpt><trkpt lat="43.32568" lon="11.9707033"><ele>464.0</ele><time>2026-04-03T06:22:30.131Z</time></trkpt><trkpt lat="43.3257967" lon="11.9707317"><ele>467.0</ele><time>2026-04-03T06:22:31.131Z</time></trkpt><trkpt lat="43.3259183" lon="11.9707483"><ele>470.0</ele><time>2026-04-03T06:22:32.131Z</time></trkpt><trkpt lat="43.32602" lon="11.9707283"><ele>473.0</ele><time>2026-04-03T06:22:33.131Z</time></trkpt><trkpt lat="43.3260833" lon="11.9706533"><ele>476.0</ele><time>2026-04-03T06:22:34.132Z</time></trkpt><trkpt lat="43.3261183" lon="11.9705133"><ele>479.0</ele><time>2026-04-03T06:22:35.131Z</time></trkpt><trkpt lat="43.3261167" lon="11.9703567"><ele>479.0</ele><time>2026-04-03T06:22:36.132Z</time></trkpt><trkpt lat="43.3260833" lon="11.9702133"><ele>479.0</ele><time>2026-04-03T06:22:37.131Z</time></trkpt><trkpt lat="43.3260317" lon="11.9700733"><ele>479.0</ele><time>2026-04-03T06:22:38.131Z</time></trkpt><trkpt lat="43.3259683" lon="11.9699417"><ele>479.0</ele><time>2026-04-03T06:22:39.132Z</time></trkpt><trkpt lat="43.3259133" lon="11.96983"><ele>479.0</ele><time>2026-04-03T06:22:40.131Z</time></trkpt><trkpt lat="43.325885" lon="11.9697433"><ele>479.8333333333333</ele><time>2026-04-03T06:22:41.131Z</time></trkpt><trkpt lat="43.3259517" lon="11.9696583"><ele>480.66666666666663</ele><time>2026-04-03T06:22:43.131Z</time></trkpt><trkpt lat="43.3260233" lon="11.969665"><ele>481.5</ele><time>2026-04-03T06:22:44.132Z</time></trkpt><trkpt lat="43.3261067" lon="11.969675"><ele>482.33333333333337</ele><time>2026-04-03T06:22:45.132Z</time></trkpt><trkpt lat="43.3261983" lon="11.9696917"><ele>483.1666666666667</ele><time>2026-04-03T06:22:46.132Z</time></trkpt><trkpt lat="43.3263017" lon="11.9697167"><ele>484.0</ele><time>2026-04-03T06:22:47.132Z</time></trkpt><trkpt lat="43.3264183" lon="11.969725"><ele>487.75</ele><time>2026-04-03T06:22:48.131Z</time></trkpt><trkpt lat="43.3265483" lon="11.9697267"><ele>491.5</ele><time>2026-04-03T06:22:49.132Z</time></trkpt><trkpt lat="43.3266667" lon="11.9697033"><ele>495.25</ele><time>2026-04-03T06:22:50.131Z</time></trkpt><trkpt lat="43.3267833" lon="11.9696483"><ele>499.0</ele><time>2026-04-03T06:22:51.131Z</time></trkpt><trkpt lat="43.326885" lon="11.9695567"><ele>499.0</ele><time>2026-04-03T06:22:52.131Z</time></trkpt><trkpt lat="43.32698" lon="11.9694917"><ele>499.0</ele><time>2026-04-03T06:22:53.131Z</time></trkpt><trkpt lat="43.3270683" lon="11.9694483"><ele>499.0</ele><time>2026-04-03T06:22:54.131Z</time></trkpt><trkpt lat="43.3271533" lon="11.969445"><ele>499.0</ele><time>2026-04-03T06:22:55.131Z</time></trkpt><trkpt lat="43.32725" lon="11.9694717"><ele>499.0</ele><time>2026-04-03T06:22:56.132Z</time></trkpt><trkpt lat="43.3273667" lon="11.9694983"><ele>502.79999999999995</ele><time>2026-04-03T06:22:57.131Z</time></trkpt><trkpt lat="43.3274683" lon="11.9695167"><ele>506.59999999999997</ele><time>2026-04-03T06:22:58.131Z</time></trkpt><trkpt lat="43.327565" lon="11.96951"><ele>510.4</ele><time>2026-04-03T06:22:59.131Z</time></trkpt><trkpt lat="43.3276483" lon="11.9694633"><ele>514.1999999999999</ele><time>2026-04-03T06:23:00.131Z</time></trkpt><trkpt lat="43.327725" lon="11.96938"><ele>518.0</ele><time>2026-04-03T06:23:01.131Z</time></trkpt><trkpt lat="43.32778" lon="11.9692633"><ele>516.0</ele><time>2026-04-03T06:23:02.131Z</time></trkpt><trkpt lat="43.32783" lon="11.969125"><ele>514.0</ele><time>2026-04-03T06:23:03.132Z</time></trkpt><trkpt lat="43.3278617" lon="11.9689467"><ele>512.0</ele><time>2026-04-03T06:23:04.131Z</time></trkpt><trkpt lat="43.32789" lon="11.9687583"><ele>510.0</ele><time>2026-04-03T06:23:05.131Z</time></trkpt><trkpt lat="43.3279117" lon="11.968545"><ele>509.75</ele><time>2026-04-03T06:23:06.131Z</time></trkpt><trkpt lat="43.327925" lon="11.968325"><ele>509.5</ele><time>2026-04-03T06:23:07.131Z</time></trkpt><trkpt lat="43.327955" lon="11.9681217"><ele>509.25</ele><time>2026-04-03T06:23:08.132Z</time></trkpt><trkpt lat="43.327995" lon="11.9679433"><ele>509.0</ele><time>2026-04-03T06:23:09.132Z</time></trkpt><trkpt lat="43.3280417" lon="11.9677967"><ele>513.5</ele><time>2026-04-03T06:23:10.131Z</time></trkpt><trkpt lat="43.32811" lon="11.9676667"><ele>518.0</ele><time>2026-04-03T06:23:11.131Z</time></trkpt><trkpt lat="43.32821" lon="11.9675517"><ele>522.5</ele><time>2026-04-03T06:23:12.131Z</time></trkpt><trkpt lat="43.3283317" lon="11.96745"><ele>527.0</ele><time>2026-04-03T06:23:13.131Z</time></trkpt><trkpt lat="43.3284667" lon="11.967365"><ele>527.0</ele><time>2026-04-03T06:23:14.131Z</time></trkpt><trkpt lat="43.3285833" lon="11.9672817"><ele>527.0</ele><time>2026-04-03T06:23:15.131Z</time></trkpt><trkpt lat="43.328685" lon="11.9671967"><ele>527.0</ele><time>2026-04-03T06:23:16.132Z</time></trkpt><trkpt lat="43.3287467" lon="11.9671067"><ele>527.0</ele><time>2026-04-03T06:23:17.131Z</time></trkpt><trkpt lat="43.3287667" lon="11.9670017"><ele>527.0</ele><time>2026-04-03T06:23:18.132Z</time></trkpt><trkpt lat="43.32876" lon="11.9668717"><ele>527.0</ele><time>2026-04-03T06:23:19.131Z</time></trkpt><trkpt lat="43.3287333" lon="11.966725"><ele>527.0</ele><time>2026-04-03T06:23:20.131Z</time></trkpt><trkpt lat="43.3287167" lon="11.966575"><ele>527.0</ele><time>2026-04-03T06:23:21.132Z</time></trkpt><trkpt lat="43.32873" lon="11.966435"><ele>527.0</ele><time>2026-04-03T06:23:22.131Z</time></trkpt><trkpt lat="43.3287717" lon="11.9663233"><ele>527.0</ele><time>2026-04-03T06:23:23.131Z</time></trkpt><trkpt lat="43.3288433" lon="11.9662383"><ele>530.5</ele><time>2026-04-03T06:23:24.131Z</time></trkpt><trkpt lat="43.3289333" lon="11.9661667"><ele>534.0</ele><time>2026-04-03T06:23:25.131Z</time></trkpt><trkpt lat="43.329045" lon="11.9661117"><ele>537.5</ele><time>2026-04-03T06:23:26.131Z</time></trkpt><trkpt lat="43.3291667" lon="11.9660583"><ele>541.0</ele><time>2026-04-03T06:23:27.131Z</time></trkpt><trkpt lat="43.3292833" lon="11.966025"><ele>541.0</ele><time>2026-04-03T06:23:28.131Z</time></trkpt><trkpt lat="43.3293683" lon="11.9660267"><ele>541.0</ele><time>2026-04-03T06:23:29.131Z</time></trkpt><trkpt lat="43.329435" lon="11.96605"><ele>541.0</ele><time>2026-04-03T06:23:30.131Z</time></trkpt><trkpt lat="43.329525" lon="11.966125"><ele>541.0</ele><time>2026-04-03T06:23:32.132Z</time></trkpt><trkpt lat="43.3295383" lon="11.9662683"><ele>541.0</ele><time>2026-04-03T06:23:34.132Z</time></trkpt><trkpt lat="43.3295033" lon="11.9664567"><ele>541.0</ele><time>2026-04-03T06:23:36.132Z</time></trkpt><trkpt lat="43.3294683" lon="11.9665767"><ele>541.0</ele><time>2026-04-03T06:23:37.131Z</time></trkpt><trkpt lat="43.3294283" lon="11.96671"><ele>541.0</ele><time>2026-04-03T06:23:38.131Z</time></trkpt><trkpt lat="43.32938" lon="11.9668533"><ele>541.0</ele><time>2026-04-03T06:23:39.132Z</time></trkpt><trkpt lat="43.3293317" lon="11.9670167"><ele>541.0</ele><time>2026-04-03T06:23:40.131Z</time></trkpt><trkpt lat="43.329285" lon="11.967195"><ele>542.5</ele><time>2026-04-03T06:23:41.131Z</time></trkpt><trkpt lat="43.32925" lon="11.9673767"><ele>544.0</ele><time>2026-04-03T06:23:42.131Z</time></trkpt><trkpt lat="43.3292233" lon="11.9675633"><ele>545.5</ele><time>2026-04-03T06:23:43.131Z</time></trkpt><trkpt lat="43.32923" lon="11.967725"><ele>547.0</ele><time>2026-04-03T06:23:44.131Z</time></trkpt><trkpt lat="43.3292517" lon="11.9679033"><ele>550.0</ele><time>2026-04-03T06:23:45.131Z</time></trkpt><trkpt lat="43.3292883" lon="11.968095"><ele>553.0</ele><time>2026-04-03T06:23:46.132Z</time></trkpt><trkpt lat="43.3293483" lon="11.9682983"><ele>556.0</ele><time>2026-04-03T06:23:47.131Z</time></trkpt><trkpt lat="43.329415" lon="11.968515"><ele>556.0</ele><time>2026-04-03T06:23:48.131Z</time></trkpt><trkpt lat="43.329485" lon="11.968745"><ele>556.0</ele><time>2026-04-03T06:23:49.132Z</time></trkpt><trkpt lat="43.3295567" lon="11.9689933"><ele>556.0</ele><time>2026-04-03T06:23:50.131Z</time></trkpt><trkpt lat="43.3296317" lon="11.9692283"><ele>556.3333333333334</ele><time>2026-04-03T06:23:51.131Z</time></trkpt><trkpt lat="43.3297067" lon="11.9694667"><ele>556.6666666666666</ele><time>2026-04-03T06:23:52.131Z</time></trkpt><trkpt lat="43.3297767" lon="11.9697017"><ele>557.0</ele><time>2026-04-03T06:23:53.132Z</time></trkpt><trkpt lat="43.3298233" lon="11.9699333"><ele>564.3333333333333</ele><time>2026-04-03T06:23:54.131Z</time></trkpt><trkpt lat="43.3298517" lon="11.97015"><ele>571.6666666666666</ele><time>2026-04-03T06:23:55.131Z</time></trkpt><trkpt lat="43.3298567" lon="11.9703933"><ele>579.0</ele><time>2026-04-03T06:23:56.131Z</time></trkpt><trkpt lat="43.3298617" lon="11.9706517"><ele>581.0</ele><time>2026-04-03T06:23:57.131Z</time></trkpt><trkpt lat="43.32985" lon="11.9709233"><ele>583.0</ele><time>2026-04-03T06:23:58.131Z</time></trkpt><trkpt lat="43.32984" lon="11.9711983"><ele>585.0</ele><time>2026-04-03T06:23:59.132Z</time></trkpt><trkpt lat="43.3298117" lon="11.971455"><ele>587.3333333333334</ele><time>2026-04-03T06:24:00.131Z</time></trkpt><trkpt lat="43.3297717" lon="11.9717017"><ele>589.6666666666667</ele><time>2026-04-03T06:24:01.132Z</time></trkpt><trkpt lat="43.3297167" lon="11.9719417"><ele>592.0</ele><time>2026-04-03T06:24:02.131Z</time></trkpt><trkpt lat="43.3296667" lon="11.9721983"><ele>592.0</ele><time>2026-04-03T06:24:03.131Z</time></trkpt><trkpt lat="43.3296067" lon="11.9724217"><ele>592.0</ele><time>2026-04-03T06:24:04.132Z</time></trkpt><trkpt lat="43.3295317" lon="11.9726233"><ele>592.0</ele><time>2026-04-03T06:24:05.131Z</time></trkpt><trkpt lat="43.3294433" lon="11.9728333"><ele>593.6666666666667</ele><time>2026-04-03T06:24:06.131Z</time></trkpt><trkpt lat="43.329345" lon="11.973045"><ele>595.3333333333334</ele><time>2026-04-03T06:24:07.131Z</time></trkpt><trkpt lat="43.3292517" lon="11.973265"><ele>597.0</ele><time>2026-04-03T06:24:08.131Z</time></trkpt><trkpt lat="43.3291583" lon="11.9734883"><ele>599.6666666666666</ele><time>2026-04-03T06:24:09.132Z</time></trkpt><trkpt lat="43.3290817" lon="11.9737283"><ele>602.3333333333333</ele><time>2026-04-03T06:24:10.131Z</time></trkpt><trkpt lat="43.329015" lon="11.97399"><ele>605.0</ele><time>2026-04-03T06:24:11.131Z</time></trkpt><trkpt lat="43.3289367" lon="11.97426"><ele>605.6666666666666</ele><time>2026-04-03T06:24:12.131Z</time></trkpt><trkpt lat="43.328855" lon="11.974535"><ele>606.3333333333334</ele><time>2026-04-03T06:24:13.131Z</time></trkpt><trkpt lat="43.32879" lon="11.9747917"><ele>607.0</ele><time>2026-04-03T06:24:14.131Z</time></trkpt><trkpt lat="43.32873" lon="11.9750533"><ele>607.0</ele><time>2026-04-03T06:24:15.131Z</time></trkpt><trkpt lat="43.3286733" lon="11.9753317"><ele>607.0</ele><time>2026-04-03T06:24:16.132Z</time></trkpt><trkpt lat="43.32861" lon="11.9756283"><ele>607.0</ele><time>2026-04-03T06:24:17.131Z</time></trkpt><trkpt lat="43.32855" lon="11.9759183"><ele>610.6666666666667</ele><time>2026-04-03T06:24:18.131Z</time></trkpt><trkpt lat="43.32851" lon="11.976205"><ele>614.3333333333334</ele><time>2026-04-03T06:24:19.131Z</time></trkpt><trkpt lat="43.3284817" lon="11.9764683"><ele>618.0</ele><time>2026-04-03T06:24:20.131Z</time></trkpt><trkpt lat="43.3284617" lon="11.9766983"><ele>621.0</ele><time>2026-04-03T06:24:21.132Z</time></trkpt><trkpt lat="43.3284517" lon="11.976895"><ele>624.0</ele><time>2026-04-03T06:24:22.131Z</time></trkpt><trkpt lat="43.32841" lon="11.97705"><ele>627.0</ele><time>2026-04-03T06:24:23.132Z</time></trkpt><trkpt lat="43.328355" lon="11.977165"><ele>630.0</ele><time>2026-04-03T06:24:24.132Z</time></trkpt><trkpt lat="43.3282717" lon="11.9772617"><ele>630.0</ele><time>2026-04-03T06:24:25.131Z</time></trkpt><trkpt lat="43.3281817" lon="11.9773233"><ele>630.0</ele><time>2026-04-03T06:24:26.131Z</time></trkpt><trkpt lat="43.3280783" lon="11.9773733"><ele>630.0</ele><time>2026-04-03T06:24:27.132Z</time></trkpt><trkpt lat="43.3279633" lon="11.9774283"><ele>630.0</ele><time>2026-04-03T06:24:28.131Z</time></trkpt><trkpt lat="43.3278467" lon="11.9774667"><ele>630.3333333333334</ele><time>2026-04-03T06:24:29.131Z</time></trkpt><trkpt lat="43.327755" lon="11.9775183"><ele>630.6666666666666</ele><time>2026-04-03T06:24:30.132Z</time></trkpt><trkpt lat="43.3277033" lon="11.9775933"><ele>631.0</ele><time>2026-04-03T06:24:31.132Z</time></trkpt><trkpt lat="43.3276683" lon="11.977685"><ele>631.3333333333333</ele><time>2026-04-03T06:24:32.132Z</time></trkpt><trkpt lat="43.3276517" lon="11.9778083"><ele>631.6666666666666</ele><time>2026-04-03T06:24:33.132Z</time></trkpt><trkpt lat="43.3276483" lon="11.9779467"><ele>632.0</ele><time>2026-04-03T06:24:34.131Z</time></trkpt><trkpt lat="43.3276483" lon="11.9781017"><ele>632.0</ele><time>2026-04-03T06:24:35.131Z</time></trkpt><trkpt lat="43.3276517" lon="11.9782633"><ele>632.0</ele><time>2026-04-03T06:24:36.132Z</time></trkpt><trkpt lat="43.3276583" lon="11.97843"><ele>632.0</ele><time>2026-04-03T06:24:37.131Z</time></trkpt><trkpt lat="43.3276633" lon="11.9785833"><ele>632.0</ele><time>2026-04-03T06:24:38.131Z</time></trkpt><trkpt lat="43.3276617" lon="11.9787117"><ele>632.0</ele><time>2026-04-03T06:24:39.131Z</time></trkpt><trkpt lat="43.3276633" lon="11.9788317"><ele>633.3333333333333</ele><time>2026-04-03T06:24:40.132Z</time></trkpt><trkpt lat="43.3276633" lon="11.978945"><ele>634.6666666666666</ele><time>2026-04-03T06:24:41.132Z</time></trkpt><trkpt lat="43.3276667" lon="11.9790567"><ele>636.0</ele><time>2026-04-03T06:24:42.131Z</time></trkpt><trkpt lat="43.3276617" lon="11.9791617"><ele>637.3333333333334</ele><time>2026-04-03T06:24:43.131Z</time></trkpt><trkpt lat="43.3276617" lon="11.9792767"><ele>638.6666666666667</ele><time>2026-04-03T06:24:44.132Z</time></trkpt><trkpt lat="43.327655" lon="11.9794033"><ele>640.0</ele><time>2026-04-03T06:24:45.131Z</time></trkpt><trkpt lat="43.3276483" lon="11.9795483"><ele>642.0</ele><time>2026-04-03T06:24:46.131Z</time></trkpt><trkpt lat="43.3276433" lon="11.9797033"><ele>644.0</ele><time>2026-04-03T06:24:47.132Z</time></trkpt><trkpt lat="43.3276417" lon="11.979855"><ele>646.0</ele><time>2026-04-03T06:24:48.132Z</time></trkpt><trkpt lat="43.3276417" lon="11.9799983"><ele>648.0</ele><time>2026-04-03T06:24:49.131Z</time></trkpt><trkpt lat="43.32764" lon="11.9801483"><ele>650.0</ele><time>2026-04-03T06:24:50.132Z</time></trkpt><trkpt lat="43.3276333" lon="11.980285"><ele>653.2</ele><time>2026-04-03T06:24:51.131Z</time></trkpt><trkpt lat="43.3276233" lon="11.9804283"><ele>656.4</ele><time>2026-04-03T06:24:52.132Z</time></trkpt><trkpt lat="43.3276183" lon="11.9805767"><ele>659.5999999999999</ele><time>2026-04-03T06:24:53.131Z</time></trkpt><trkpt lat="43.3276" lon="11.9807217"><ele>662.8</ele><time>2026-04-03T06:24:54.131Z</time></trkpt><trkpt lat="43.3275617" lon="11.9808617"><ele>666.0</ele><time>2026-04-03T06:24:55.131Z</time></trkpt><trkpt lat="43.3275067" lon="11.9809983"><ele>670.25</ele><time>2026-04-03T06:24:56.131Z</time></trkpt><trkpt lat="43.3274367" lon="11.9811317"><ele>674.5</ele><time>2026-04-03T06:24:57.131Z</time></trkpt><trkpt lat="43.3273517" lon="11.98125"><ele>678.75</ele><time>2026-04-03T06:24:58.131Z</time></trkpt><trkpt lat="43.3272583" lon="11.981355"><ele>683.0</ele><time>2026-04-03T06:24:59.131Z</time></trkpt><trkpt lat="43.327155" lon="11.9814333"><ele>683.5999999999999</ele><time>2026-04-03T06:25:00.131Z</time></trkpt><trkpt lat="43.3270583" lon="11.981495"><ele>684.1999999999999</ele><time>2026-04-03T06:25:01.131Z</time></trkpt><trkpt lat="43.3269517" lon="11.9815317"><ele>684.8</ele><time>2026-04-03T06:25:02.132Z</time></trkpt><trkpt lat="43.3268533" lon="11.9815483"><ele>685.4</ele><time>2026-04-03T06:25:03.131Z</time></trkpt><trkpt lat="43.32677" lon="11.9815367"><ele>686.0</ele><time>2026-04-03T06:25:04.132Z</time></trkpt><trkpt lat="43.3267" lon="11.9815033"><ele>686.0</ele><time>2026-04-03T06:25:05.131Z</time></trkpt><trkpt lat="43.3266417" lon="11.98145"><ele>686.0</ele><time>2026-04-03T06:25:06.132Z</time></trkpt><trkpt lat="43.326585" lon="11.9813867"><ele>686.0</ele><time>2026-04-03T06:25:07.131Z</time></trkpt><trkpt lat="43.32653" lon="11.9813217"><ele>686.0</ele><time>2026-04-03T06:25:08.131Z</time></trkpt><trkpt lat="43.3264783" lon="11.9812667"><ele>686.0</ele><time>2026-04-03T06:25:09.131Z</time></trkpt><trkpt lat="43.3264267" lon="11.9812067"><ele>686.0</ele><time>2026-04-03T06:25:10.131Z</time></trkpt><trkpt lat="43.326365" lon="11.9811517"><ele>686.0</ele><time>2026-04-03T06:25:11.131Z</time></trkpt><trkpt lat="43.3263083" lon="11.9811"><ele>686.5</ele><time>2026-04-03T06:25:12.131Z</time></trkpt><trkpt lat="43.326255" lon="11.98105"><ele>687.0</ele><time>2026-04-03T06:25:13.131Z</time></trkpt><trkpt lat="43.3261517" lon="11.98102"><ele>687.5</ele><time>2026-04-03T06:25:15.132Z</time></trkpt><trkpt lat="43.3261" lon="11.9811117"><ele>688.0</ele><time>2026-04-03T06:25:17.132Z</time></trkpt><trkpt lat="43.3261267" lon="11.981215"><ele>688.5</ele><time>2026-04-03T06:25:19.132Z</time></trkpt><trkpt lat="43.326215" lon="11.9812967"><ele>689.0</ele><time>2026-04-03T06:25:21.131Z</time></trkpt><trkpt lat="43.32629" lon="11.981395"><ele>689.0</ele><time>2026-04-03T06:25:23.132Z</time></trkpt><trkpt lat="43.32633" lon="11.9814683"><ele>689.0</ele><time>2026-04-03T06:25:24.131Z</time></trkpt><trkpt lat="43.326375" lon="11.9815667"><ele>689.0</ele><time>2026-04-03T06:25:25.132Z</time></trkpt><trkpt lat="43.3264233" lon="11.9816833"><ele>689.0</ele><time>2026-04-03T06:25:26.131Z</time></trkpt><trkpt lat="43.32648" lon="11.98184"><ele>689.0</ele><time>2026-04-03T06:25:27.131Z</time></trkpt><trkpt lat="43.3265417" lon="11.9820117"><ele>694.6666666666666</ele><time>2026-04-03T06:25:28.132Z</time></trkpt><trkpt lat="43.326615" lon="11.982205"><ele>700.3333333333334</ele><time>2026-04-03T06:25:29.132Z</time></trkpt><trkpt lat="43.326725" lon="11.982415"><ele>706.0</ele><time>2026-04-03T06:25:30.131Z</time></trkpt><trkpt lat="43.3268267" lon="11.9826167"><ele>711.6666666666667</ele><time>2026-04-03T06:25:31.132Z</time></trkpt><trkpt lat="43.326905" lon="11.9828067"><ele>717.3333333333334</ele><time>2026-04-03T06:25:32.131Z</time></trkpt><trkpt lat="43.3269717" lon="11.9829883"><ele>723.0</ele><time>2026-04-03T06:25:33.131Z</time></trkpt><trkpt lat="43.327045" lon="11.9831567"><ele>723.0</ele><time>2026-04-03T06:25:34.132Z</time></trkpt><trkpt lat="43.32712" lon="11.98333"><ele>723.0</ele><time>2026-04-03T06:25:35.131Z</time></trkpt><trkpt lat="43.3271967" lon="11.9834967"><ele>723.0</ele><time>2026-04-03T06:25:36.131Z</time></trkpt><trkpt lat="43.3272783" lon="11.9836767"><ele>723.0</ele><time>2026-04-03T06:25:37.132Z</time></trkpt><trkpt lat="43.32733" lon="11.9838633"><ele>722.4</ele><time>2026-04-03T06:25:38.131Z</time></trkpt><trkpt lat="43.3273683" lon="11.98402"><ele>721.8</ele><time>2026-04-03T06:25:39.131Z</time></trkpt><trkpt lat="43.3274033" lon="11.9841667"><ele>721.2</ele><time>2026-04-03T06:25:40.131Z</time></trkpt><trkpt lat="43.327435" lon="11.984305"><ele>720.6</ele><time>2026-04-03T06:25:41.131Z</time></trkpt><trkpt lat="43.3274533" lon="11.984455"><ele>720.0</ele><time>2026-04-03T06:25:42.131Z</time></trkpt><trkpt lat="43.3274767" lon="11.984615"><ele>720.0</ele><time>2026-04-03T06:25:43.132Z</time></trkpt><trkpt lat="43.327505" lon="11.9847817"><ele>720.0</ele><time>2026-04-03T06:25:44.131Z</time></trkpt><trkpt lat="43.3275217" lon="11.9849167"><ele>720.0</ele><time>2026-04-03T06:25:45.131Z</time></trkpt><trkpt lat="43.3275667" lon="11.985025"><ele>720.0</ele><time>2026-04-03T06:25:46.131Z</time></trkpt><trkpt lat="43.3276317" lon="11.9851333"><ele>720.0</ele><time>2026-04-03T06:25:47.131Z</time></trkpt><trkpt lat="43.327685" lon="11.98523"><ele>718.8571428571428</ele><time>2026-04-03T06:25:48.131Z</time></trkpt><trkpt lat="43.327725" lon="11.9853167"><ele>717.7142857142858</ele><time>2026-04-03T06:25:49.131Z</time></trkpt><trkpt lat="43.3277633" lon="11.985415"><ele>716.5714285714286</ele><time>2026-04-03T06:25:50.131Z</time></trkpt><trkpt lat="43.3278033" lon="11.9855067"><ele>715.4285714285713</ele><time>2026-04-03T06:25:51.132Z</time></trkpt><trkpt lat="43.3278533" lon="11.985585"><ele>714.2857142857142</ele><time>2026-04-03T06:25:52.131Z</time></trkpt><trkpt lat="43.3279017" lon="11.98565"><ele>713.1428571428571</ele><time>2026-04-03T06:25:53.132Z</time></trkpt><trkpt lat="43.327945" lon="11.9857183"><ele>712.0</ele><time>2026-04-03T06:25:54.131Z</time></trkpt><trkpt lat="43.3279717" lon="11.9858183"><ele>712.2</ele><time>2026-04-03T06:25:55.131Z</time></trkpt><trkpt lat="43.328" lon="11.985945"><ele>712.4000000000001</ele><time>2026-04-03T06:25:56.132Z</time></trkpt><trkpt lat="43.3280367" lon="11.98607"><ele>712.5999999999999</ele><time>2026-04-03T06:25:57.131Z</time></trkpt><trkpt lat="43.3280883" lon="11.9861867"><ele>712.8</ele><time>2026-04-03T06:25:58.132Z</time></trkpt><trkpt lat="43.32813" lon="11.986295"><ele>713.0</ele><time>2026-04-03T06:25:59.131Z</time></trkpt><trkpt lat="43.328155" lon="11.986395"><ele>713.0</ele><time>2026-04-03T06:26:00.131Z</time></trkpt><trkpt lat="43.3281633" lon="11.986515"><ele>713.0</ele><time>2026-04-03T06:26:01.131Z</time></trkpt><trkpt lat="43.3281633" lon="11.986635"><ele>713.0</ele><time>2026-04-03T06:26:02.131Z</time></trkpt><trkpt lat="43.3281667" lon="11.9867233"><ele>713.0</ele><time>2026-04-03T06:26:03.131Z</time></trkpt><trkpt lat="43.328195" lon="11.9868133"><ele>713.0</ele><time>2026-04-03T06:26:04.131Z</time></trkpt><trkpt lat="43.3282467" lon="11.9868883"><ele>713.0</ele><time>2026-04-03T06:26:05.131Z</time></trkpt><trkpt lat="43.3283117" lon="11.98696"><ele>711.5</ele><time>2026-04-03T06:26:06.131Z</time></trkpt><trkpt lat="43.3283767" lon="11.987045"><ele>710.0</ele><time>2026-04-03T06:26:07.132Z</time></trkpt><trkpt lat="43.328445" lon="11.9871217"><ele>708.5</ele><time>2026-04-03T06:26:08.132Z</time></trkpt><trkpt lat="43.3285233" lon="11.9871817"><ele>707.0</ele><time>2026-04-03T06:26:09.131Z</time></trkpt><trkpt lat="43.3286" lon="11.987205"><ele>705.5</ele><time>2026-04-03T06:26:10.131Z</time></trkpt><trkpt lat="43.328675" lon="11.987225"><ele>704.0</ele><time>2026-04-03T06:26:11.131Z</time></trkpt><trkpt lat="43.3287633" lon="11.9872333"><ele>704.0</ele><time>2026-04-03T06:26:12.131Z</time></trkpt><trkpt lat="43.328845" lon="11.98725"><ele>704.0</ele><time>2026-04-03T06:26:13.131Z</time></trkpt><trkpt lat="43.3289183" lon="11.9872933"><ele>704.0</ele><time>2026-04-03T06:26:14.131Z</time></trkpt><trkpt lat="43.3289633" lon="11.9873617"><ele>704.0</ele><time>2026-04-03T06:26:15.131Z</time></trkpt><trkpt lat="43.3290333" lon="11.9874517"><ele>704.0</ele><time>2026-04-03T06:26:16.132Z</time></trkpt><trkpt lat="43.3291083" lon="11.987575"><ele>704.0</ele><time>2026-04-03T06:26:17.131Z</time></trkpt><trkpt lat="43.32919" lon="11.9877067"><ele>701.6666666666666</ele><time>2026-04-03T06:26:18.131Z</time></trkpt><trkpt lat="43.3292517" lon="11.9878133"><ele>699.3333333333333</ele><time>2026-04-03T06:26:19.131Z</time></trkpt><trkpt lat="43.3293067" lon="11.9879083"><ele>697.0</ele><time>2026-04-03T06:26:20.131Z</time></trkpt><trkpt lat="43.3293367" lon="11.988015"><ele>694.6666666666666</ele><time>2026-04-03T06:26:21.132Z</time></trkpt><trkpt lat="43.329355" lon="11.9881267"><ele>692.3333333333334</ele><time>2026-04-03T06:26:22.132Z</time></trkpt><trkpt lat="43.3293733" lon="11.988235"><ele>690.0</ele><time>2026-04-03T06:26:23.131Z</time></trkpt><trkpt lat="43.3293817" lon="11.9883533"><ele>688.5714285714286</ele><time>2026-04-03T06:26:24.132Z</time></trkpt><trkpt lat="43.3293933" lon="11.9884633"><ele>687.1428571428571</ele><time>2026-04-03T06:26:25.132Z</time></trkpt><trkpt lat="43.3294033" lon="11.9885617"><ele>685.7142857142858</ele><time>2026-04-03T06:26:26.132Z</time></trkpt><trkpt lat="43.329435" lon="11.9886383"><ele>684.2857142857142</ele><time>2026-04-03T06:26:27.131Z</time></trkpt><trkpt lat="43.3294817" lon="11.988705"><ele>682.8571428571428</ele><time>2026-04-03T06:26:28.131Z</time></trkpt><trkpt lat="43.3295367" lon="11.9887567"><ele>681.4285714285714</ele><time>2026-04-03T06:26:29.131Z</time></trkpt><trkpt lat="43.329595" lon="11.9887983"><ele>680.0</ele><time>2026-04-03T06:26:30.131Z</time></trkpt><trkpt lat="43.3296917" lon="11.98889"><ele>680.6</ele><time>2026-04-03T06:26:32.131Z</time></trkpt><trkpt lat="43.3298033" lon="11.98897"><ele>681.2</ele><time>2026-04-03T06:26:34.131Z</time></trkpt><trkpt lat="43.3298633" lon="11.989015"><ele>681.8</ele><time>2026-04-03T06:26:35.131Z</time></trkpt><trkpt lat="43.3299717" lon="11.9891183"><ele>682.4</ele><time>2026-04-03T06:26:37.131Z</time></trkpt><trkpt lat="43.3300317" lon="11.98918"><ele>683.0</ele><time>2026-04-03T06:26:38.131Z</time></trkpt><trkpt lat="43.3301" lon="11.9892217"><ele>680.8571428571429</ele><time>2026-04-03T06:26:39.132Z</time></trkpt><trkpt lat="43.3301683" lon="11.98925"><ele>678.7142857142857</ele><time>2026-04-03T06:26:40.131Z</time></trkpt><trkpt lat="43.330245" lon="11.98925"><ele>676.5714285714286</ele><time>2026-04-03T06:26:41.131Z</time></trkpt><trkpt lat="43.3303267" lon="11.9892333"><ele>674.4285714285714</ele><time>2026-04-03T06:26:42.131Z</time></trkpt><trkpt lat="43.3304017" lon="11.98922"><ele>672.2857142857143</ele><time>2026-04-03T06:26:43.131Z</time></trkpt><trkpt lat="43.33047" lon="11.989215"><ele>670.1428571428571</ele><time>2026-04-03T06:26:44.132Z</time></trkpt><trkpt lat="43.330535" lon="11.9892183"><ele>668.0</ele><time>2026-04-03T06:26:45.131Z</time></trkpt><trkpt lat="43.3306067" lon="11.989235"><ele>668.0</ele><time>2026-04-03T06:26:46.132Z</time></trkpt><trkpt lat="43.330685" lon="11.98925"><ele>668.0</ele><time>2026-04-03T06:26:47.131Z</time></trkpt><trkpt lat="43.3307667" lon="11.9892567"><ele>668.0</ele><time>2026-04-03T06:26:48.131Z</time></trkpt><trkpt lat="43.3308583" lon="11.9892667"><ele>668.0</ele><time>2026-04-03T06:26:49.131Z</time></trkpt><trkpt lat="43.33094" lon="11.9892917"><ele>668.0</ele><time>2026-04-03T06:26:50.131Z</time></trkpt><trkpt lat="43.3310233" lon="11.9893333"><ele>668.0</ele><time>2026-04-03T06:26:51.132Z</time></trkpt><trkpt lat="43.3311" lon="11.9893933"><ele>668.0</ele><time>2026-04-03T06:26:52.132Z</time></trkpt><trkpt lat="43.331175" lon="11.9894717"><ele>668.0</ele><time>2026-04-03T06:26:53.131Z</time></trkpt><trkpt lat="43.3312433" lon="11.9895617"><ele>668.0</ele><time>2026-04-03T06:26:54.131Z</time></trkpt><trkpt lat="43.3313067" lon="11.9896417"><ele>668.0</ele><time>2026-04-03T06:26:55.131Z</time></trkpt><trkpt lat="43.3313567" lon="11.989715"><ele>668.0</ele><time>2026-04-03T06:26:56.131Z</time></trkpt><trkpt lat="43.3313933" lon="11.989795"><ele>668.0</ele><time>2026-04-03T06:26:57.131Z</time></trkpt><trkpt lat="43.3314217" lon="11.9898867"><ele>667.8571428571429</ele><time>2026-04-03T06:26:58.131Z</time></trkpt><trkpt lat="43.3314383" lon="11.9899817"><ele>667.7142857142858</ele><time>2026-04-03T06:26:59.132Z</time></trkpt><trkpt lat="43.3314517" lon="11.9900667"><ele>667.5714285714287</ele><time>2026-04-03T06:27:00.131Z</time></trkpt><trkpt lat="43.3314667" lon="11.990215"><ele>667.4285714285714</ele><time>2026-04-03T06:27:02.132Z</time></trkpt><trkpt lat="43.3314633" lon="11.9903083"><ele>667.2857142857143</ele><time>2026-04-03T06:27:03.131Z</time></trkpt><trkpt lat="43.3314483" lon="11.990395"><ele>667.1428571428572</ele><time>2026-04-03T06:27:04.131Z</time></trkpt><trkpt lat="43.3314383" lon="11.99049"><ele>667.0</ele><time>2026-04-03T06:27:05.131Z</time></trkpt><trkpt lat="43.3314233" lon="11.9905883"><ele>665.3333333333334</ele><time>2026-04-03T06:27:06.131Z</time></trkpt><trkpt lat="43.3314217" lon="11.9906767"><ele>663.6666666666667</ele><time>2026-04-03T06:27:07.131Z</time></trkpt><trkpt lat="43.3314783" lon="11.9907933"><ele>662.0</ele><time>2026-04-03T06:27:09.131Z</time></trkpt><trkpt lat="43.33157" lon="11.9907417"><ele>660.3333333333334</ele><time>2026-04-03T06:27:11.132Z</time></trkpt><trkpt lat="43.33162" lon="11.990675"><ele>658.6666666666666</ele><time>2026-04-03T06:27:12.131Z</time></trkpt><trkpt lat="43.3316733" lon="11.99061"><ele>657.0</ele><time>2026-04-03T06:27:13.132Z</time></trkpt><trkpt lat="43.3317333" lon="11.9905567"><ele>657.0</ele><time>2026-04-03T06:27:14.131Z</time></trkpt><trkpt lat="43.3317933" lon="11.9905133"><ele>657.0</ele><time>2026-04-03T06:27:15.131Z</time></trkpt><trkpt lat="43.3318483" lon="11.9904667"><ele>657.0</ele><time>2026-04-03T06:27:16.132Z</time></trkpt><trkpt lat="43.331915" lon="11.9904133"><ele>657.0</ele><time>2026-04-03T06:27:17.132Z</time></trkpt><trkpt lat="43.331985" lon="11.99037"><ele>657.0</ele><time>2026-04-03T06:27:18.131Z</time></trkpt><trkpt lat="43.3320683" lon="11.9903217"><ele>657.0</ele><time>2026-04-03T06:27:19.131Z</time></trkpt><trkpt lat="43.3321467" lon="11.9902883"><ele>657.0</ele><time>2026-04-03T06:27:20.131Z</time></trkpt><trkpt lat="43.3322167" lon="11.9902683"><ele>657.0</ele><time>2026-04-03T06:27:21.131Z</time></trkpt><trkpt lat="43.3322917" lon="11.9902683"><ele>657.0</ele><time>2026-04-03T06:27:22.131Z</time></trkpt><trkpt lat="43.3323767" lon="11.9902867"><ele>657.0</ele><time>2026-04-03T06:27:23.131Z</time></trkpt><trkpt lat="43.33246" lon="11.9903067"><ele>657.0</ele><time>2026-04-03T06:27:24.131Z</time></trkpt><trkpt lat="43.3325533" lon="11.9903167"><ele>657.0</ele><time>2026-04-03T06:27:25.131Z</time></trkpt><trkpt lat="43.3326367" lon="11.9903383"><ele>653.5</ele><time>2026-04-03T06:27:26.131Z</time></trkpt><trkpt lat="43.3327033" lon="11.99034"><ele>650.0</ele><time>2026-04-03T06:27:27.132Z</time></trkpt><trkpt lat="43.3328217" lon="11.9903817"><ele>646.5</ele><time>2026-04-03T06:27:29.131Z</time></trkpt><trkpt lat="43.3328883" lon="11.9904267"><ele>643.0</ele><time>2026-04-03T06:27:30.131Z</time></trkpt><trkpt lat="43.3329517" lon="11.9904633"><ele>639.5</ele><time>2026-04-03T06:27:31.131Z</time></trkpt><trkpt lat="43.33302" lon="11.990475"><ele>636.0</ele><time>2026-04-03T06:27:32.131Z</time></trkpt><trkpt lat="43.3330883" lon="11.99047"><ele>635.3333333333334</ele><time>2026-04-03T06:27:33.132Z</time></trkpt><trkpt lat="43.3331617" lon="11.990455"><ele>634.6666666666666</ele><time>2026-04-03T06:27:34.132Z</time></trkpt><trkpt lat="43.3332383" lon="11.9904533"><ele>634.0</ele><time>2026-04-03T06:27:35.131Z</time></trkpt><trkpt lat="43.33332" lon="11.9904617"><ele>633.3333333333333</ele><time>2026-04-03T06:27:36.131Z</time></trkpt><trkpt lat="43.3334017" lon="11.9905017"><ele>632.6666666666666</ele><time>2026-04-03T06:27:37.132Z</time></trkpt><trkpt lat="43.3334833" lon="11.990565"><ele>632.0</ele><time>2026-04-03T06:27:38.131Z</time></trkpt><trkpt lat="43.3335683" lon="11.9906467"><ele>632.0</ele><time>2026-04-03T06:27:39.13Z</time></trkpt><trkpt lat="43.3336567" lon="11.9907283"><ele>632.0</ele><time>2026-04-03T06:27:40.131Z</time></trkpt><trkpt lat="43.3337433" lon="11.9908033"><ele>632.0</ele><time>2026-04-03T06:27:41.131Z</time></trkpt><trkpt lat="43.333825" lon="11.9908717"><ele>632.0</ele><time>2026-04-03T06:27:42.13Z</time></trkpt><trkpt lat="43.3339017" lon="11.9909233"><ele>632.0</ele><time>2026-04-03T06:27:43.13Z</time></trkpt><trkpt lat="43.33398" lon="11.9909783"><ele>632.5</ele><time>2026-04-03T06:27:44.13Z</time></trkpt><trkpt lat="43.3340467" lon="11.9910467"><ele>633.0</ele><time>2026-04-03T06:27:45.13Z</time></trkpt><trkpt lat="43.334095" lon="11.9911083"><ele>633.5</ele><time>2026-04-03T06:27:46.13Z</time></trkpt><trkpt lat="43.3341483" lon="11.9912333"><ele>634.0</ele><time>2026-04-03T06:27:48.131Z</time></trkpt><trkpt lat="43.334165" lon="11.99132"><ele>634.5</ele><time>2026-04-03T06:27:49.13Z</time></trkpt><trkpt lat="43.3341783" lon="11.9914267"><ele>635.0</ele><time>2026-04-03T06:27:50.13Z</time></trkpt><trkpt lat="43.3341983" lon="11.9915517"><ele>635.0</ele><time>2026-04-03T06:27:51.13Z</time></trkpt><trkpt lat="43.3342283" lon="11.9916717"><ele>635.0</ele><time>2026-04-03T06:27:52.13Z</time></trkpt><trkpt lat="43.3342717" lon="11.9917717"><ele>635.0</ele><time>2026-04-03T06:27:53.13Z</time></trkpt><trkpt lat="43.3343083" lon="11.99186"><ele>635.0</ele><time>2026-04-03T06:27:54.13Z</time></trkpt><trkpt lat="43.334345" lon="11.99194"><ele>635.0</ele><time>2026-04-03T06:27:55.13Z</time></trkpt><trkpt lat="43.3343783" lon="11.99203"><ele>635.0</ele><time>2026-04-03T06:27:56.13Z</time></trkpt><trkpt lat="43.3344" lon="11.9921217"><ele>634.4</ele><time>2026-04-03T06:27:57.13Z</time></trkpt><trkpt lat="43.3344267" lon="11.9922067"><ele>633.8</ele><time>2026-04-03T06:27:58.13Z</time></trkpt><trkpt lat="43.3344483" lon="11.9922917"><ele>633.2</ele><time>2026-04-03T06:27:59.13Z</time></trkpt><trkpt lat="43.3345017" lon="11.9924333"><ele>632.6</ele><time>2026-04-03T06:28:01.13Z</time></trkpt><trkpt lat="43.3345817" lon="11.99256"><ele>632.0</ele><time>2026-04-03T06:28:03.13Z</time></trkpt><trkpt lat="43.3346483" lon="11.99267"><ele>628.6</ele><time>2026-04-03T06:28:05.131Z</time></trkpt><trkpt lat="43.3346783" lon="11.9927983"><ele>625.2</ele><time>2026-04-03T06:28:07.131Z</time></trkpt><trkpt lat="43.3346883" lon="11.9929467"><ele>621.8</ele><time>2026-04-03T06:28:09.13Z</time></trkpt><trkpt lat="43.3346983" lon="11.9931117"><ele>618.4</ele><time>2026-04-03T06:28:11.13Z</time></trkpt><trkpt lat="43.3347633" lon="11.9932067"><ele>615.0</ele><time>2026-04-03T06:28:13.13Z</time></trkpt><trkpt lat="43.3348817" lon="11.9932033"><ele>614.0</ele><time>2026-04-03T06:28:15.13Z</time></trkpt><trkpt lat="43.3349433" lon="11.9931783"><ele>613.0</ele><time>2026-04-03T06:28:17.13Z</time></trkpt><trkpt lat="43.3350433" lon="11.9931917"><ele>612.0</ele><time>2026-04-03T06:28:26.131Z</time></trkpt><trkpt lat="43.335165" lon="11.9932067"><ele>611.0</ele><time>2026-04-03T06:28:28.13Z</time></trkpt><trkpt lat="43.3352817" lon="11.9932367"><ele>610.0</ele><time>2026-04-03T06:28:30.13Z</time></trkpt><trkpt lat="43.3353583" lon="11.9933117"><ele>607.2</ele><time>2026-04-03T06:28:32.131Z</time></trkpt><trkpt lat="43.3354417" lon="11.99343"><ele>604.4</ele><time>2026-04-03T06:28:34.13Z</time></trkpt><trkpt lat="43.335555" lon="11.9935083"><ele>601.6</ele><time>2026-04-03T06:28:36.13Z</time></trkpt><trkpt lat="43.33561" lon="11.993555"><ele>598.8</ele><time>2026-04-03T06:28:37.13Z</time></trkpt><trkpt lat="43.3356633" lon="11.9936083"><ele>596.0</ele><time>2026-04-03T06:28:38.13Z</time></trkpt><trkpt lat="43.335725" lon="11.993675"><ele>596.0</ele><time>2026-04-03T06:28:39.13Z</time></trkpt><trkpt lat="43.3357833" lon="11.9937417"><ele>596.0</ele><time>2026-04-03T06:28:40.131Z</time></trkpt><trkpt lat="43.3358333" lon="11.993805"><ele>596.0</ele><time>2026-04-03T06:28:41.13Z</time></trkpt><trkpt lat="43.3359267" lon="11.9938983"><ele>596.0</ele><time>2026-04-03T06:28:43.131Z</time></trkpt><trkpt lat="43.336005" lon="11.99399"><ele>596.0</ele><time>2026-04-03T06:28:45.131Z</time></trkpt><trkpt lat="43.3360783" lon="11.9940667"><ele>596.0</ele><time>2026-04-03T06:28:47.13Z</time></trkpt><trkpt lat="43.33612" lon="11.99414"><ele>596.0</ele><time>2026-04-03T06:28:49.13Z</time></trkpt><trkpt lat="43.336195" lon="11.9941617"><ele>596.0</ele><time>2026-04-03T06:28:56.131Z</time></trkpt><trkpt lat="43.3362617" lon="11.9941717"><ele>596.0</ele><time>2026-04-03T06:28:58.13Z</time></trkpt><trkpt lat="43.336335" lon="11.9942017"><ele>596.0</ele><time>2026-04-03T06:29:01.13Z</time></trkpt><trkpt lat="43.3364367" lon="11.994325"><ele>596.0</ele><time>2026-04-03T06:29:03.13Z</time></trkpt><trkpt lat="43.336495" lon="11.9944"><ele>596.5</ele><time>2026-04-03T06:29:04.13Z</time></trkpt><trkpt lat="43.3365467" lon="11.9944817"><ele>597.0</ele><time>2026-04-03T06:29:05.13Z</time></trkpt><trkpt lat="43.33659" lon="11.9945667"><ele>597.5</ele><time>2026-04-03T06:29:06.13Z</time></trkpt><trkpt lat="43.33662" lon="11.9946767"><ele>598.0</ele><time>2026-04-03T06:29:07.13Z</time></trkpt><trkpt lat="43.3366617" lon="11.9947817"><ele>598.5</ele><time>2026-04-03T06:29:08.131Z</time></trkpt><trkpt lat="43.3367117" lon="11.9948733"><ele>599.0</ele><time>2026-04-03T06:29:09.13Z</time></trkpt><trkpt lat="43.3367583" lon="11.99495"><ele>597.0</ele><time>2026-04-03T06:29:10.13Z</time></trkpt><trkpt lat="43.3368" lon="11.99503"><ele>595.0</ele><time>2026-04-03T06:29:11.13Z</time></trkpt><trkpt lat="43.336855" lon="11.9951617"><ele>593.0</ele><time>2026-04-03T06:29:13.13Z</time></trkpt><trkpt lat="43.336875" lon="11.9952783"><ele>591.0</ele><time>2026-04-03T06:29:15.131Z</time></trkpt><trkpt lat="43.336895" lon="11.99541"><ele>589.0</ele><time>2026-04-03T06:29:17.13Z</time></trkpt><trkpt lat="43.336965" lon="11.9955183"><ele>589.0</ele><time>2026-04-03T06:29:19.13Z</time></trkpt><trkpt lat="43.33701" lon="11.9955817"><ele>589.0</ele><time>2026-04-03T06:29:20.13Z</time></trkpt><trkpt lat="43.3370783" lon="11.9957083"><ele>589.0</ele><time>2026-04-03T06:29:22.13Z</time></trkpt><trkpt lat="43.3371283" lon="11.99583"><ele>589.0</ele><time>2026-04-03T06:29:24.13Z</time></trkpt><trkpt lat="43.33722" lon="11.9958833"><ele>589.0</ele><time>2026-04-03T06:29:26.13Z</time></trkpt><trkpt lat="43.3372933" lon="11.9959367"><ele>586.8</ele><time>2026-04-03T06:29:28.13Z</time></trkpt><trkpt lat="43.337355" lon="11.9960267"><ele>584.5999999999999</ele><time>2026-04-03T06:29:30.129Z</time></trkpt><trkpt lat="43.337435" lon="11.9960967"><ele>582.4</ele><time>2026-04-03T06:29:32.13Z</time></trkpt><trkpt lat="43.33754" lon="11.9961317"><ele>580.1999999999999</ele><time>2026-04-03T06:29:34.13Z</time></trkpt><trkpt lat="43.3376617" lon="11.99615"><ele>578.0</ele><time>2026-04-03T06:29:36.13Z</time></trkpt><trkpt lat="43.3377233" lon="11.9961733"><ele>578.0</ele><time>2026-04-03T06:29:37.13Z</time></trkpt><trkpt lat="43.337815" lon="11.9962283"><ele>578.0</ele><time>2026-04-03T06:29:39.131Z</time></trkpt><trkpt lat="43.3378033" lon="11.9963217"><ele>578.0</ele><time>2026-04-03T06:29:42.13Z</time></trkpt><trkpt lat="43.3377383" lon="11.996365"><ele>578.0</ele><time>2026-04-03T06:29:44.13Z</time></trkpt><trkpt lat="43.3376767" lon="11.9963933"><ele>578.0</ele><time>2026-04-03T06:29:46.131Z</time></trkpt><trkpt lat="43.337585" lon="11.9964333"><ele>578.0</ele><time>2026-04-03T06:29:48.13Z</time></trkpt><trkpt lat="43.337515" lon="11.9964567"><ele>578.0</ele><time>2026-04-03T06:29:49.13Z</time></trkpt><trkpt lat="43.3374367" lon="11.9964817"><ele>578.0</ele><time>2026-04-03T06:29:50.13Z</time></trkpt><trkpt lat="43.3373467" lon="11.996505"><ele>578.0</ele><time>2026-04-03T06:29:51.131Z</time></trkpt><trkpt lat="43.3372433" lon="11.9965183"><ele>578.0</ele><time>2026-04-03T06:29:52.13Z</time></trkpt><trkpt lat="43.33713" lon="11.9965317"><ele>578.0</ele><time>2026-04-03T06:29:53.131Z</time></trkpt><trkpt lat="43.3370067" lon="11.996515"><ele>574.0</ele><time>2026-04-03T06:29:54.13Z</time></trkpt><trkpt lat="43.3368667" lon="11.9964933"><ele>570.0</ele><time>2026-04-03T06:29:55.13Z</time></trkpt><trkpt lat="43.336715" lon="11.996465"><ele>566.0</ele><time>2026-04-03T06:29:56.13Z</time></trkpt><trkpt lat="43.33656" lon="11.99644"><ele>566.0</ele><time>2026-04-03T06:29:57.13Z</time></trkpt><trkpt lat="43.336405" lon="11.9964067"><ele>566.0</ele><time>2026-04-03T06:29:58.131Z</time></trkpt><trkpt lat="43.3362583" lon="11.9963933"><ele>566.0</ele><time>2026-04-03T06:29:59.13Z</time></trkpt><trkpt lat="43.3361233" lon="11.9963767"><ele>566.0</ele><time>2026-04-03T06:30:00.13Z</time></trkpt><trkpt lat="43.3360183" lon="11.99636"><ele>566.3333333333333</ele><time>2026-04-03T06:30:01.13Z</time></trkpt><trkpt lat="43.3359417" lon="11.9963283"><ele>566.6666666666666</ele><time>2026-04-03T06:30:02.13Z</time></trkpt><trkpt lat="43.3358883" lon="11.9962733"><ele>567.0</ele><time>2026-04-03T06:30:03.13Z</time></trkpt><trkpt lat="43.335845" lon="11.9961617"><ele>567.3333333333334</ele><time>2026-04-03T06:30:04.13Z</time></trkpt><trkpt lat="43.3358167" lon="11.9960267"><ele>567.6666666666667</ele><time>2026-04-03T06:30:05.131Z</time></trkpt><trkpt lat="43.335785" lon="11.9959017"><ele>568.0</ele><time>2026-04-03T06:30:06.13Z</time></trkpt><trkpt lat="43.3357483" lon="11.9958117"><ele>568.0</ele><time>2026-04-03T06:30:07.13Z</time></trkpt><trkpt lat="43.33562" lon="11.9957833"><ele>568.0</ele><time>2026-04-03T06:30:09.13Z</time></trkpt><trkpt lat="43.335535" lon="11.9958083"><ele>568.0</ele><time>2026-04-03T06:30:10.13Z</time></trkpt><trkpt lat="43.3354483" lon="11.9958317"><ele>568.0</ele><time>2026-04-03T06:30:11.131Z</time></trkpt><trkpt lat="43.3353417" lon="11.9958433"><ele>568.0</ele><time>2026-04-03T06:30:12.13Z</time></trkpt><trkpt lat="43.3352483" lon="11.99581"><ele>564.4</ele><time>2026-04-03T06:30:13.13Z</time></trkpt><trkpt lat="43.33517" lon="11.9957583"><ele>560.8</ele><time>2026-04-03T06:30:14.13Z</time></trkpt><trkpt lat="43.335105" lon="11.9956467"><ele>557.2</ele><time>2026-04-03T06:30:15.13Z</time></trkpt><trkpt lat="43.3350567" lon="11.9955217"><ele>553.6</ele><time>2026-04-03T06:30:16.13Z</time></trkpt><trkpt lat="43.335" lon="11.9954317"><ele>550.0</ele><time>2026-04-03T06:30:17.13Z</time></trkpt><trkpt lat="43.3349417" lon="11.99537"><ele>550.0</ele><time>2026-04-03T06:30:18.13Z</time></trkpt><trkpt lat="43.3348633" lon="11.99542"><ele>550.0</ele><time>2026-04-03T06:30:19.131Z</time></trkpt><trkpt lat="43.33478" lon="11.9955"><ele>550.0</ele><time>2026-04-03T06:30:20.13Z</time></trkpt><trkpt lat="43.3347117" lon="11.9955933"><ele>550.0</ele><time>2026-04-03T06:30:21.13Z</time></trkpt><trkpt lat="43.3346417" lon="11.9956667"><ele>550.0</ele><time>2026-04-03T06:30:22.13Z</time></trkpt><trkpt lat="43.33455" lon="11.9956883"><ele>547.0</ele><time>2026-04-03T06:30:23.13Z</time></trkpt><trkpt lat="43.33443" lon="11.9956817"><ele>544.0</ele><time>2026-04-03T06:30:24.131Z</time></trkpt><trkpt lat="43.3342867" lon="11.9956583"><ele>541.0</ele><time>2026-04-03T06:30:25.13Z</time></trkpt><trkpt lat="43.3341417" lon="11.9956033"><ele>538.0</ele><time>2026-04-03T06:30:26.13Z</time></trkpt><trkpt lat="43.333985" lon="11.9955383"><ele>536.6666666666667</ele><time>2026-04-03T06:30:27.131Z</time></trkpt><trkpt lat="43.3338167" lon="11.99544"><ele>535.3333333333334</ele><time>2026-04-03T06:30:28.131Z</time></trkpt><trkpt lat="43.3336333" lon="11.9953517"><ele>534.0</ele><time>2026-04-03T06:30:29.13Z</time></trkpt><trkpt lat="43.333435" lon="11.9952867"><ele>534.0</ele><time>2026-04-03T06:30:30.131Z</time></trkpt><trkpt lat="43.333245" lon="11.9952417"><ele>534.0</ele><time>2026-04-03T06:30:31.131Z</time></trkpt><trkpt lat="43.3330783" lon="11.9952217"><ele>534.0</ele><time>2026-04-03T06:30:32.131Z</time></trkpt><trkpt lat="43.3329517" lon="11.9951517"><ele>535.2</ele><time>2026-04-03T06:30:33.13Z</time></trkpt><trkpt lat="43.3328517" lon="11.9950733"><ele>536.4</ele><time>2026-04-03T06:30:34.13Z</time></trkpt><trkpt lat="43.3327783" lon="11.9950083"><ele>537.6</ele><time>2026-04-03T06:30:35.13Z</time></trkpt><trkpt lat="43.3326833" lon="11.9949817"><ele>538.8</ele><time>2026-04-03T06:30:37.13Z</time></trkpt><trkpt lat="43.3325983" lon="11.9950967"><ele>540.0</ele><time>2026-04-03T06:30:39.131Z</time></trkpt><trkpt lat="43.33257" lon="11.9951917"><ele>543.5</ele><time>2026-04-03T06:30:40.131Z</time></trkpt><trkpt lat="43.3325617" lon="11.99532"><ele>547.0</ele><time>2026-04-03T06:30:41.13Z</time></trkpt><trkpt lat="43.33257" lon="11.9954567"><ele>550.5</ele><time>2026-04-03T06:30:42.13Z</time></trkpt><trkpt lat="43.3326183" lon="11.9956117"><ele>554.0</ele><time>2026-04-03T06:30:43.13Z</time></trkpt><trkpt lat="43.3327167" lon="11.99578"><ele>553.75</ele><time>2026-04-03T06:30:44.13Z</time></trkpt><trkpt lat="43.3328067" lon="11.9959283"><ele>553.5</ele><time>2026-04-03T06:30:45.13Z</time></trkpt><trkpt lat="43.332915" lon="11.99606"><ele>553.25</ele><time>2026-04-03T06:30:46.13Z</time></trkpt><trkpt lat="43.33301" lon="11.99619"><ele>553.0</ele><time>2026-04-03T06:30:47.13Z</time></trkpt><trkpt lat="43.3331" lon="11.9963083"><ele>553.0</ele><time>2026-04-03T06:30:48.13Z</time></trkpt><trkpt lat="43.3331983" lon="11.996415"><ele>553.0</ele><time>2026-04-03T06:30:49.13Z</time></trkpt><trkpt lat="43.3333017" lon="11.9965217"><ele>553.0</ele><time>2026-04-03T06:30:50.13Z</time></trkpt><trkpt lat="43.3334" lon="11.9966317"><ele>553.0</ele><time>2026-04-03T06:30:51.13Z</time></trkpt><trkpt lat="43.3335183" lon="11.99674"><ele>561.6666666666667</ele><time>2026-04-03T06:30:52.131Z</time></trkpt><trkpt lat="43.3336367" lon="11.996865"><ele>570.3333333333334</ele><time>2026-04-03T06:30:53.13Z</time></trkpt><trkpt lat="43.33375" lon="11.9970183"><ele>579.0</ele><time>2026-04-03T06:30:54.131Z</time></trkpt><trkpt lat="43.333845" lon="11.997165"><ele>579.0</ele><time>2026-04-03T06:30:55.131Z</time></trkpt><trkpt lat="43.333925" lon="11.99727"><ele>579.0</ele><time>2026-04-03T06:30:56.13Z</time></trkpt><trkpt lat="43.3339667" lon="11.9973467"><ele>579.0</ele><time>2026-04-03T06:30:57.13Z</time></trkpt><trkpt lat="43.3339567" lon="11.99746"><ele>579.0</ele><time>2026-04-03T06:30:59.13Z</time></trkpt><trkpt lat="43.3338517" lon="11.9975"><ele>579.0</ele><time>2026-04-03T06:31:01.13Z</time></trkpt><trkpt lat="43.3337267" lon="11.9974683"><ele>579.0</ele><time>2026-04-03T06:31:03.131Z</time></trkpt><trkpt lat="43.333655" lon="11.9973917"><ele>579.0</ele><time>2026-04-03T06:31:04.13Z</time></trkpt><trkpt lat="43.3335833" lon="11.9973017"><ele>579.0</ele><time>2026-04-03T06:31:05.13Z</time></trkpt><trkpt lat="43.33349" lon="11.9972067"><ele>579.0</ele><time>2026-04-03T06:31:06.131Z</time></trkpt><trkpt lat="43.3333783" lon="11.9971117"><ele>579.0</ele><time>2026-04-03T06:31:07.131Z</time></trkpt><trkpt lat="43.333255" lon="11.9970183"><ele>579.0</ele><time>2026-04-03T06:31:08.131Z</time></trkpt><trkpt lat="43.3331217" lon="11.9969233"><ele>579.0</ele><time>2026-04-03T06:31:09.13Z</time></trkpt><trkpt lat="43.33299" lon="11.9968267"><ele>579.0</ele><time>2026-04-03T06:31:10.13Z</time></trkpt><trkpt lat="43.33288" lon="11.99674"><ele>579.0</ele><time>2026-04-03T06:31:11.13Z</time></trkpt><trkpt lat="43.3327983" lon="11.9966983"><ele>581.6666666666666</ele><time>2026-04-03T06:31:12.131Z</time></trkpt><trkpt lat="43.3327267" lon="11.9966917"><ele>584.3333333333334</ele><time>2026-04-03T06:31:13.13Z</time></trkpt><trkpt lat="43.3327217" lon="11.9968133"><ele>587.0</ele><time>2026-04-03T06:31:15.13Z</time></trkpt><trkpt lat="43.332775" lon="11.9968833"><ele>589.6666666666667</ele><time>2026-04-03T06:31:16.13Z</time></trkpt><trkpt lat="43.3328483" lon="11.9969567"><ele>592.3333333333334</ele><time>2026-04-03T06:31:17.131Z</time></trkpt><trkpt lat="43.3329217" lon="11.9970483"><ele>595.0</ele><time>2026-04-03T06:31:18.13Z</time></trkpt><trkpt lat="43.333005" lon="11.9971517"><ele>596.6</ele><time>2026-04-03T06:31:19.13Z</time></trkpt><trkpt lat="43.3330833" lon="11.9972717"><ele>598.2</ele><time>2026-04-03T06:31:20.131Z</time></trkpt><trkpt lat="43.3331517" lon="11.997395"><ele>599.8</ele><time>2026-04-03T06:31:21.131Z</time></trkpt><trkpt lat="43.3332067" lon="11.9974933"><ele>601.4</ele><time>2026-04-03T06:31:22.13Z</time></trkpt><trkpt lat="43.3332067" lon="11.9976133"><ele>603.0</ele><time>2026-04-03T06:31:24.13Z</time></trkpt><trkpt lat="43.3331383" lon="11.997635"><ele>603.0</ele><time>2026-04-03T06:31:26.13Z</time></trkpt><trkpt lat="43.333075" lon="11.99757"><ele>603.0</ele><time>2026-04-03T06:31:27.13Z</time></trkpt><trkpt lat="43.3329983" lon="11.9974983"><ele>603.0</ele><time>2026-04-03T06:31:28.13Z</time></trkpt><trkpt lat="43.3329167" lon="11.9974517"><ele>603.0</ele><time>2026-04-03T06:31:29.131Z</time></trkpt><trkpt lat="43.3328383" lon="11.9974233"><ele>603.0</ele><time>2026-04-03T06:31:30.13Z</time></trkpt><trkpt lat="43.3327417" lon="11.9974617"><ele>603.0</ele><time>2026-04-03T06:31:32.13Z</time></trkpt><trkpt lat="43.3327483" lon="11.9975883"><ele>603.0</ele><time>2026-04-03T06:31:34.131Z</time></trkpt><trkpt lat="43.3327967" lon="11.99765"><ele>603.0</ele><time>2026-04-03T06:31:35.13Z</time></trkpt><trkpt lat="43.332865" lon="11.9977217"><ele>603.0</ele><time>2026-04-03T06:31:36.131Z</time></trkpt><trkpt lat="43.33294" lon="11.997805"><ele>603.0</ele><time>2026-04-03T06:31:37.13Z</time></trkpt><trkpt lat="43.333015" lon="11.9979217"><ele>603.0</ele><time>2026-04-03T06:31:38.131Z</time></trkpt><trkpt lat="43.3330917" lon="11.99805"><ele>603.0</ele><time>2026-04-03T06:31:39.13Z</time></trkpt><trkpt lat="43.33318" lon="11.9981933"><ele>603.0</ele><time>2026-04-03T06:31:40.13Z</time></trkpt><trkpt lat="43.3332717" lon="11.998335"><ele>603.0</ele><time>2026-04-03T06:31:41.13Z</time></trkpt><trkpt lat="43.3333583" lon="11.9984533"><ele>603.0</ele><time>2026-04-03T06:31:42.131Z</time></trkpt><trkpt lat="43.3334267" lon="11.9985433"><ele>606.3333333333334</ele><time>2026-04-03T06:31:43.13Z</time></trkpt><trkpt lat="43.3334683" lon="11.99862"><ele>609.6666666666666</ele><time>2026-04-03T06:31:44.13Z</time></trkpt><trkpt lat="43.3333933" lon="11.9986733"><ele>613.0</ele><time>2026-04-03T06:31:47.131Z</time></trkpt><trkpt lat="43.3333283" lon="11.9986233"><ele>616.3333333333333</ele><time>2026-04-03T06:31:48.131Z</time></trkpt><trkpt lat="43.3332417" lon="11.9985517"><ele>619.6666666666666</ele><time>2026-04-03T06:31:49.13Z</time></trkpt><trkpt lat="43.3331517" lon="11.998495"><ele>623.0</ele><time>2026-04-03T06:31:50.13Z</time></trkpt><trkpt lat="43.3330533" lon="11.9984867"><ele>623.6</ele><time>2026-04-03T06:31:51.13Z</time></trkpt><trkpt lat="43.3329667" lon="11.9985433"><ele>624.1999999999999</ele><time>2026-04-03T06:31:52.131Z</time></trkpt><trkpt lat="43.3328817" lon="11.9986517"><ele>624.8</ele><time>2026-04-03T06:31:53.131Z</time></trkpt><trkpt lat="43.3328067" lon="11.99878"><ele>625.4</ele><time>2026-04-03T06:31:54.131Z</time></trkpt><trkpt lat="43.33274" lon="11.998905"><ele>626.0</ele><time>2026-04-03T06:31:55.131Z</time></trkpt><trkpt lat="43.332675" lon="11.999015"><ele>626.0</ele><time>2026-04-03T06:31:56.131Z</time></trkpt><trkpt lat="43.3325983" lon="11.9990917"><ele>626.0</ele><time>2026-04-03T06:31:57.13Z</time></trkpt><trkpt lat="43.332505" lon="11.9991167"><ele>626.0</ele><time>2026-04-03T06:31:58.13Z</time></trkpt><trkpt lat="43.3324017" lon="11.9991133"><ele>626.0</ele><time>2026-04-03T06:31:59.131Z</time></trkpt><trkpt lat="43.3323033" lon="11.9991217"><ele>626.0</ele><time>2026-04-03T06:32:00.131Z</time></trkpt><trkpt lat="43.3322133" lon="11.9991517"><ele>626.6666666666666</ele><time>2026-04-03T06:32:01.13Z</time></trkpt><trkpt lat="43.3321333" lon="11.9991983"><ele>627.3333333333333</ele><time>2026-04-03T06:32:02.13Z</time></trkpt><trkpt lat="43.3320583" lon="11.99924"><ele>628.0</ele><time>2026-04-03T06:32:03.131Z</time></trkpt><trkpt lat="43.3319983" lon="11.999285"><ele>628.6666666666666</ele><time>2026-04-03T06:32:04.13Z</time></trkpt><trkpt lat="43.3319433" lon="11.9993333"><ele>629.3333333333334</ele><time>2026-04-03T06:32:05.13Z</time></trkpt><trkpt lat="43.3318683" lon="11.999445"><ele>630.0</ele><time>2026-04-03T06:32:07.13Z</time></trkpt><trkpt lat="43.33185" lon="11.9995333"><ele>630.0</ele><time>2026-04-03T06:32:08.13Z</time></trkpt><trkpt lat="43.33184" lon="11.9996417"><ele>630.0</ele><time>2026-04-03T06:32:09.13Z</time></trkpt><trkpt lat="43.3318233" lon="11.9997533"><ele>630.0</ele><time>2026-04-03T06:32:10.13Z</time></trkpt><trkpt lat="43.3317883" lon="11.99986"><ele>630.0</ele><time>2026-04-03T06:32:11.13Z</time></trkpt><trkpt lat="43.3317283" lon="11.9999667"><ele>630.0</ele><time>2026-04-03T06:32:12.131Z</time></trkpt><trkpt lat="43.3316417" lon="12.0000517"><ele>630.0</ele><time>2026-04-03T06:32:13.13Z</time></trkpt><trkpt lat="43.3315667" lon="12.00016"><ele>630.0</ele><time>2026-04-03T06:32:14.131Z</time></trkpt><trkpt lat="43.331485" lon="12.0002833"><ele>630.0</ele><time>2026-04-03T06:32:15.13Z</time></trkpt><trkpt lat="43.3314117" lon="12.0004"><ele>630.0</ele><time>2026-04-03T06:32:16.13Z</time></trkpt><trkpt lat="43.33134" lon="12.0005283"><ele>628.25</ele><time>2026-04-03T06:32:17.13Z</time></trkpt><trkpt lat="43.3312533" lon="12.0006433"><ele>626.5</ele><time>2026-04-03T06:32:18.13Z</time></trkpt><trkpt lat="43.3311533" lon="12.000735"><ele>624.75</ele><time>2026-04-03T06:32:19.131Z</time></trkpt><trkpt lat="43.33104" lon="12.0008167"><ele>623.0</ele><time>2026-04-03T06:32:20.13Z</time></trkpt><trkpt lat="43.33091" lon="12.0008817"><ele>627.25</ele><time>2026-04-03T06:32:21.13Z</time></trkpt><trkpt lat="43.330775" lon="12.00093"><ele>631.5</ele><time>2026-04-03T06:32:22.13Z</time></trkpt><trkpt lat="43.3306317" lon="12.0009583"><ele>635.75</ele><time>2026-04-03T06:32:23.131Z</time></trkpt><trkpt lat="43.3304867" lon="12.0009917"><ele>640.0</ele><time>2026-04-03T06:32:24.13Z</time></trkpt><trkpt lat="43.3303433" lon="12.0010367"><ele>640.2</ele><time>2026-04-03T06:32:25.131Z</time></trkpt><trkpt lat="43.3302183" lon="12.001095"><ele>640.4</ele><time>2026-04-03T06:32:26.131Z</time></trkpt><trkpt lat="43.3301167" lon="12.00115"><ele>640.5999999999999</ele><time>2026-04-03T06:32:27.13Z</time></trkpt><trkpt lat="43.33004" lon="12.001175"><ele>640.8</ele><time>2026-04-03T06:32:28.13Z</time></trkpt><trkpt lat="43.32992" lon="12.0011117"><ele>641.0</ele><time>2026-04-03T06:32:30.131Z</time></trkpt><trkpt lat="43.3298683" lon="12.0010217"><ele>641.0</ele><time>2026-04-03T06:32:31.13Z</time></trkpt><trkpt lat="43.3297983" lon="12.0009267"><ele>641.0</ele><time>2026-04-03T06:32:32.13Z</time></trkpt><trkpt lat="43.329715" lon="12.0008517"><ele>641.0</ele><time>2026-04-03T06:32:33.13Z</time></trkpt><trkpt lat="43.32961" lon="12.0008133"><ele>641.0</ele><time>2026-04-03T06:32:34.131Z</time></trkpt><trkpt lat="43.329485" lon="12.0007833"><ele>641.0</ele><time>2026-04-03T06:32:35.13Z</time></trkpt><trkpt lat="43.329355" lon="12.000745"><ele>639.4</ele><time>2026-04-03T06:32:36.13Z</time></trkpt><trkpt lat="43.3292433" lon="12.00071"><ele>637.8</ele><time>2026-04-03T06:32:37.13Z</time></trkpt><trkpt lat="43.3291417" lon="12.0007167"><ele>636.1999999999999</ele><time>2026-04-03T06:32:38.13Z</time></trkpt><trkpt lat="43.3290417" lon="12.00075"><ele>634.5999999999999</ele><time>2026-04-03T06:32:39.13Z</time></trkpt><trkpt lat="43.3289317" lon="12.0008167"><ele>633.0</ele><time>2026-04-03T06:32:40.131Z</time></trkpt><trkpt lat="43.3288267" lon="12.0009133"><ele>639.0</ele><time>2026-04-03T06:32:41.13Z</time></trkpt><trkpt lat="43.3287167" lon="12.0010367"><ele>645.0</ele><time>2026-04-03T06:32:42.13Z</time></trkpt><trkpt lat="43.32861" lon="12.0012"><ele>651.0</ele><time>2026-04-03T06:32:43.131Z</time></trkpt><trkpt lat="43.3284967" lon="12.001355"><ele>651.0</ele><time>2026-04-03T06:32:44.13Z</time></trkpt><trkpt lat="43.32838" lon="12.0015267"><ele>651.0</ele><time>2026-04-03T06:32:45.13Z</time></trkpt><trkpt lat="43.3282867" lon="12.0017"><ele>651.0</ele><time>2026-04-03T06:32:46.13Z</time></trkpt><trkpt lat="43.3282033" lon="12.00187"><ele>652.0</ele><time>2026-04-03T06:32:47.13Z</time></trkpt><trkpt lat="43.3281333" lon="12.00203"><ele>653.0</ele><time>2026-04-03T06:32:48.13Z</time></trkpt><trkpt lat="43.3280567" lon="12.0021433"><ele>654.0</ele><time>2026-04-03T06:32:49.13Z</time></trkpt><trkpt lat="43.3279783" lon="12.002225"><ele>655.0</ele><time>2026-04-03T06:32:50.131Z</time></trkpt><trkpt lat="43.3279067" lon="12.002275"><ele>656.0</ele><time>2026-04-03T06:32:51.13Z</time></trkpt><trkpt lat="43.32783" lon="12.0022917"><ele>656.0</ele><time>2026-04-03T06:32:52.131Z</time></trkpt><trkpt lat="43.32776" lon="12.0022617"><ele>656.0</ele><time>2026-04-03T06:32:53.13Z</time></trkpt><trkpt lat="43.3276933" lon="12.002195"><ele>656.0</ele><time>2026-04-03T06:32:54.131Z</time></trkpt><trkpt lat="43.3276467" lon="12.0020933"><ele>656.0</ele><time>2026-04-03T06:32:55.13Z</time></trkpt><trkpt lat="43.3275917" lon="12.00203"><ele>656.0</ele><time>2026-04-03T06:32:56.13Z</time></trkpt><trkpt lat="43.327475" lon="12.0020383"><ele>656.0</ele><time>2026-04-03T06:32:58.13Z</time></trkpt><trkpt lat="43.32741" lon="12.0021083"><ele>656.0</ele><time>2026-04-03T06:32:59.13Z</time></trkpt><trkpt lat="43.3273383" lon="12.00219"><ele>656.0</ele><time>2026-04-03T06:33:00.131Z</time></trkpt><trkpt lat="43.3272633" lon="12.0022617"><ele>656.0</ele><time>2026-04-03T06:33:01.131Z</time></trkpt><trkpt lat="43.3271933" lon="12.0023167"><ele>656.0</ele><time>2026-04-03T06:33:02.131Z</time></trkpt><trkpt lat="43.3271233" lon="12.0023433"><ele>656.0</ele><time>2026-04-03T06:33:03.13Z</time></trkpt><trkpt lat="43.3270567" lon="12.0023517"><ele>656.0</ele><time>2026-04-03T06:33:04.13Z</time></trkpt><trkpt lat="43.3269783" lon="12.0023633"><ele>657.3333333333333</ele><time>2026-04-03T06:33:05.131Z</time></trkpt><trkpt lat="43.326915" lon="12.00238"><ele>658.6666666666666</ele><time>2026-04-03T06:33:06.13Z</time></trkpt><trkpt lat="43.326825" lon="12.00245"><ele>660.0</ele><time>2026-04-03T06:33:08.131Z</time></trkpt><trkpt lat="43.3268883" lon="12.002535"><ele>661.3333333333334</ele><time>2026-04-03T06:33:11.13Z</time></trkpt><trkpt lat="43.3269583" lon="12.0025483"><ele>662.6666666666667</ele><time>2026-04-03T06:33:12.131Z</time></trkpt><trkpt lat="43.3270233" lon="12.002585"><ele>664.0</ele><time>2026-04-03T06:33:13.13Z</time></trkpt><trkpt lat="43.3270917" lon="12.0026483"><ele>664.0</ele><time>2026-04-03T06:33:14.13Z</time></trkpt><trkpt lat="43.327155" lon="12.0027217"><ele>664.0</ele><time>2026-04-03T06:33:15.13Z</time></trkpt><trkpt lat="43.3272017" lon="12.002785"><ele>664.0</ele><time>2026-04-03T06:33:16.13Z</time></trkpt><trkpt lat="43.327135" lon="12.0028417"><ele>664.0</ele><time>2026-04-03T06:33:20.13Z</time></trkpt><trkpt lat="43.3270083" lon="12.0027933"><ele>664.0</ele><time>2026-04-03T06:33:22.131Z</time></trkpt><trkpt lat="43.32693" lon="12.0027783"><ele>664.0</ele><time>2026-04-03T06:33:23.13Z</time></trkpt><trkpt lat="43.3268533" lon="12.002795"><ele>664.0</ele><time>2026-04-03T06:33:24.131Z</time></trkpt><trkpt lat="43.3268033" lon="12.0028883"><ele>664.0</ele><time>2026-04-03T06:33:25.13Z</time></trkpt><trkpt lat="43.3267567" lon="12.0029967"><ele>664.0</ele><time>2026-04-03T06:33:26.13Z</time></trkpt><trkpt lat="43.3267183" lon="12.00311"><ele>664.0</ele><time>2026-04-03T06:33:27.13Z</time></trkpt><trkpt lat="43.3266883" lon="12.0032333"><ele>664.0</ele><time>2026-04-03T06:33:28.13Z</time></trkpt><trkpt lat="43.326675" lon="12.0033717"><ele>670.0</ele><time>2026-04-03T06:33:29.13Z</time></trkpt><trkpt lat="43.3266667" lon="12.0035417"><ele>676.0</ele><time>2026-04-03T06:33:30.13Z</time></trkpt><trkpt lat="43.3266517" lon="12.0037"><ele>682.0</ele><time>2026-04-03T06:33:31.13Z</time></trkpt><trkpt lat="43.3266133" lon="12.0038383"><ele>688.0</ele><time>2026-04-03T06:33:32.131Z</time></trkpt><trkpt lat="43.326565" lon="12.0039783"><ele>688.0</ele><time>2026-04-03T06:33:33.13Z</time></trkpt><trkpt lat="43.32651" lon="12.00412"><ele>688.0</ele><time>2026-04-03T06:33:34.131Z</time></trkpt><trkpt lat="43.3264567" lon="12.0042617"><ele>688.0</ele><time>2026-04-03T06:33:35.13Z</time></trkpt><trkpt lat="43.32642" lon="12.0044267"><ele>688.0</ele><time>2026-04-03T06:33:36.13Z</time></trkpt><trkpt lat="43.3263933" lon="12.0045933"><ele>688.8</ele><time>2026-04-03T06:33:37.131Z</time></trkpt><trkpt lat="43.3263683" lon="12.00476"><ele>689.5999999999999</ele><time>2026-04-03T06:33:38.131Z</time></trkpt><trkpt lat="43.3263583" lon="12.0049317"><ele>690.4000000000001</ele><time>2026-04-03T06:33:39.13Z</time></trkpt><trkpt lat="43.3263467" lon="12.0050667"><ele>691.2</ele><time>2026-04-03T06:33:40.13Z</time></trkpt><trkpt lat="43.3263217" lon="12.0051567"><ele>692.0</ele><time>2026-04-03T06:33:41.13Z</time></trkpt><trkpt lat="43.3262233" lon="12.0052167"><ele>695.8333333333333</ele><time>2026-04-03T06:33:43.131Z</time></trkpt><trkpt lat="43.32616" lon="12.0052367"><ele>699.6666666666666</ele><time>2026-04-03T06:33:44.13Z</time></trkpt><trkpt lat="43.3260917" lon="12.0052433"><ele>703.5</ele><time>2026-04-03T06:33:45.13Z</time></trkpt><trkpt lat="43.3260167" lon="12.0052267"><ele>707.3333333333334</ele><time>2026-04-03T06:33:46.131Z</time></trkpt><trkpt lat="43.3259283" lon="12.0051867"><ele>711.1666666666667</ele><time>2026-04-03T06:33:47.13Z</time></trkpt><trkpt lat="43.325825" lon="12.0051433"><ele>715.0</ele><time>2026-04-03T06:33:48.13Z</time></trkpt><trkpt lat="43.3257033" lon="12.00512"><ele>715.0</ele><time>2026-04-03T06:33:49.13Z</time></trkpt><trkpt lat="43.3255967" lon="12.0050983"><ele>715.0</ele><time>2026-04-03T06:33:50.13Z</time></trkpt><trkpt lat="43.3255083" lon="12.0051233"><ele>715.0</ele><time>2026-04-03T06:33:51.13Z</time></trkpt><trkpt lat="43.3254233" lon="12.00518"><ele>715.0</ele><time>2026-04-03T06:33:52.13Z</time></trkpt><trkpt lat="43.32533" lon="12.0052617"><ele>715.0</ele><time>2026-04-03T06:33:53.13Z</time></trkpt><trkpt lat="43.325225" lon="12.00535"><ele>716.5</ele><time>2026-04-03T06:33:54.13Z</time></trkpt><trkpt lat="43.3251067" lon="12.0054333"><ele>718.0</ele><time>2026-04-03T06:33:55.131Z</time></trkpt><trkpt lat="43.32497" lon="12.0055033"><ele>719.5</ele><time>2026-04-03T06:33:56.131Z</time></trkpt><trkpt lat="43.324845" lon="12.0055667"><ele>721.0</ele><time>2026-04-03T06:33:57.13Z</time></trkpt><trkpt lat="43.3247433" lon="12.0056317"><ele>724.1666666666667</ele><time>2026-04-03T06:33:58.13Z</time></trkpt><trkpt lat="43.3246517" lon="12.005705"><ele>727.3333333333334</ele><time>2026-04-03T06:33:59.131Z</time></trkpt><trkpt lat="43.3245717" lon="12.005755"><ele>730.5</ele><time>2026-04-03T06:34:00.13Z</time></trkpt><trkpt lat="43.3244917" lon="12.0057667"><ele>733.6666666666666</ele><time>2026-04-03T06:34:01.13Z</time></trkpt><trkpt lat="43.324425" lon="12.0057483"><ele>736.8333333333333</ele><time>2026-04-03T06:34:02.131Z</time></trkpt><trkpt lat="43.3243533" lon="12.00569"><ele>740.0</ele><time>2026-04-03T06:34:03.13Z</time></trkpt><trkpt lat="43.3242733" lon="12.0056283"><ele>740.0</ele><time>2026-04-03T06:34:04.13Z</time></trkpt><trkpt lat="43.3241917" lon="12.005575"><ele>740.0</ele><time>2026-04-03T06:34:05.131Z</time></trkpt><trkpt lat="43.3241083" lon="12.00553"><ele>740.0</ele><time>2026-04-03T06:34:06.13Z</time></trkpt><trkpt lat="43.3240467" lon="12.005465"><ele>740.0</ele><time>2026-04-03T06:34:07.13Z</time></trkpt><trkpt lat="43.3239917" lon="12.00538"><ele>740.0</ele><time>2026-04-03T06:34:08.13Z</time></trkpt><trkpt lat="43.32393" lon="12.0052967"><ele>740.0</ele><time>2026-04-03T06:34:09.13Z</time></trkpt><trkpt lat="43.3238533" lon="12.005235"><ele>741.1666666666666</ele><time>2026-04-03T06:34:10.13Z</time></trkpt><trkpt lat="43.3237733" lon="12.0051967"><ele>742.3333333333333</ele><time>2026-04-03T06:34:11.13Z</time></trkpt><trkpt lat="43.3236967" lon="12.0051983"><ele>743.5</ele><time>2026-04-03T06:34:12.131Z</time></trkpt><trkpt lat="43.3236167" lon="12.0052417"><ele>744.6666666666666</ele><time>2026-04-03T06:34:13.13Z</time></trkpt><trkpt lat="43.3235317" lon="12.005295"><ele>745.8333333333334</ele><time>2026-04-03T06:34:14.13Z</time></trkpt><trkpt lat="43.3234433" lon="12.005365"><ele>747.0</ele><time>2026-04-03T06:34:15.13Z</time></trkpt><trkpt lat="43.3233417" lon="12.0054367"><ele>747.0</ele><time>2026-04-03T06:34:16.13Z</time></trkpt><trkpt lat="43.3232283" lon="12.0055183"><ele>747.0</ele><time>2026-04-03T06:34:17.13Z</time></trkpt><trkpt lat="43.3231117" lon="12.005595"><ele>747.0</ele><time>2026-04-03T06:34:18.131Z</time></trkpt><trkpt lat="43.3230133" lon="12.0056817"><ele>747.0</ele><time>2026-04-03T06:34:19.13Z</time></trkpt><trkpt lat="43.3229133" lon="12.005725"><ele>747.75</ele><time>2026-04-03T06:34:20.13Z</time></trkpt><trkpt lat="43.3227967" lon="12.0057383"><ele>748.5</ele><time>2026-04-03T06:34:21.13Z</time></trkpt><trkpt lat="43.3226817" lon="12.005755"><ele>749.25</ele><time>2026-04-03T06:34:22.13Z</time></trkpt><trkpt lat="43.3225583" lon="12.0057917"><ele>750.0</ele><time>2026-04-03T06:34:23.131Z</time></trkpt><trkpt lat="43.3224383" lon="12.0058567"><ele>755.5</ele><time>2026-04-03T06:34:24.13Z</time></trkpt><trkpt lat="43.3223267" lon="12.0059483"><ele>761.0</ele><time>2026-04-03T06:34:25.13Z</time></trkpt><trkpt lat="43.3222067" lon="12.0060533"><ele>766.5</ele><time>2026-04-03T06:34:26.13Z</time></trkpt><trkpt lat="43.322085" lon="12.0061683"><ele>772.0</ele><time>2026-04-03T06:34:27.131Z</time></trkpt><trkpt lat="43.3219517" lon="12.006275"><ele>773.8</ele><time>2026-04-03T06:34:28.13Z</time></trkpt><trkpt lat="43.32183" lon="12.0063817"><ele>775.6</ele><time>2026-04-03T06:34:29.13Z</time></trkpt><trkpt lat="43.3217383" lon="12.00647"><ele>777.4</ele><time>2026-04-03T06:34:30.13Z</time></trkpt><trkpt lat="43.3216767" lon="12.0065533"><ele>779.1999999999999</ele><time>2026-04-03T06:34:31.13Z</time></trkpt><trkpt lat="43.3215867" lon="12.0065967"><ele>781.0</ele><time>2026-04-03T06:34:32.13Z</time></trkpt><trkpt lat="43.3214817" lon="12.006645"><ele>786.0</ele><time>2026-04-03T06:34:33.13Z</time></trkpt><trkpt lat="43.3213583" lon="12.006715"><ele>791.0</ele><time>2026-04-03T06:34:34.13Z</time></trkpt><trkpt lat="43.32122" lon="12.006795"><ele>796.0</ele><time>2026-04-03T06:34:35.13Z</time></trkpt><trkpt lat="43.32107" lon="12.0068683"><ele>801.0</ele><time>2026-04-03T06:34:36.13Z</time></trkpt><trkpt lat="43.3209133" lon="12.0069283"><ele>801.0</ele><time>2026-04-03T06:34:37.131Z</time></trkpt><trkpt lat="43.3207633" lon="12.006985"><ele>801.0</ele><time>2026-04-03T06:34:38.131Z</time></trkpt><trkpt lat="43.3206367" lon="12.0070133"><ele>801.0</ele><time>2026-04-03T06:34:39.13Z</time></trkpt><trkpt lat="43.3205233" lon="12.0069967"><ele>801.0</ele><time>2026-04-03T06:34:40.131Z</time></trkpt><trkpt lat="43.3204167" lon="12.0069633"><ele>802.8</ele><time>2026-04-03T06:34:41.13Z</time></trkpt><trkpt lat="43.3203067" lon="12.006925"><ele>804.5999999999999</ele><time>2026-04-03T06:34:42.13Z</time></trkpt><trkpt lat="43.32019" lon="12.0069167"><ele>806.4</ele><time>2026-04-03T06:34:43.13Z</time></trkpt><trkpt lat="43.3200767" lon="12.0069267"><ele>808.2</ele><time>2026-04-03T06:34:44.13Z</time></trkpt><trkpt lat="43.3199783" lon="12.0069167"><ele>810.0</ele><time>2026-04-03T06:34:45.13Z</time></trkpt><trkpt lat="43.31988" lon="12.0068933"><ele>810.0</ele><time>2026-04-03T06:34:46.13Z</time></trkpt><trkpt lat="43.31979" lon="12.0068717"><ele>810.0</ele><time>2026-04-03T06:34:47.131Z</time></trkpt><trkpt lat="43.3197" lon="12.006855"><ele>810.0</ele><time>2026-04-03T06:34:48.131Z</time></trkpt><trkpt lat="43.319605" lon="12.0068583"><ele>810.0</ele><time>2026-04-03T06:34:49.131Z</time></trkpt><trkpt lat="43.3195117" lon="12.006865"><ele>810.0</ele><time>2026-04-03T06:34:50.131Z</time></trkpt><trkpt lat="43.31942" lon="12.0068767"><ele>809.9999999999999</ele><time>2026-04-03T06:34:51.131Z</time></trkpt><trkpt lat="43.3193383" lon="12.0068833"><ele>810.0</ele><time>2026-04-03T06:34:52.13Z</time></trkpt><trkpt lat="43.31927" lon="12.0069067"><ele>810.0</ele><time>2026-04-03T06:34:53.131Z</time></trkpt><trkpt lat="43.3192067" lon="12.00693"><ele>810.0</ele><time>2026-04-03T06:34:54.13Z</time></trkpt><trkpt lat="43.319145" lon="12.006965"><ele>810.0</ele><time>2026-04-03T06:34:55.13Z</time></trkpt><trkpt lat="43.3190817" lon="12.006995"><ele>809.9999999999999</ele><time>2026-04-03T06:34:56.13Z</time></trkpt><trkpt lat="43.3190083" lon="12.007005"><ele>810.0</ele><time>2026-04-03T06:34:57.13Z</time></trkpt><trkpt lat="43.3189133" lon="12.00702"><ele>811.5</ele><time>2026-04-03T06:34:58.13Z</time></trkpt><trkpt lat="43.3188067" lon="12.0070633"><ele>813.0</ele><time>2026-04-03T06:34:59.13Z</time></trkpt><trkpt lat="43.3187033" lon="12.0071083"><ele>814.5</ele><time>2026-04-03T06:35:00.13Z</time></trkpt><trkpt lat="43.318595" lon="12.007155"><ele>816.0</ele><time>2026-04-03T06:35:01.13Z</time></trkpt><trkpt lat="43.318475" lon="12.0072067"><ele>816.0</ele><time>2026-04-03T06:35:02.13Z</time></trkpt><trkpt lat="43.318355" lon="12.0072617"><ele>816.0</ele><time>2026-04-03T06:35:03.13Z</time></trkpt><trkpt lat="43.3182383" lon="12.0073133"><ele>816.0</ele><time>2026-04-03T06:35:04.131Z</time></trkpt><trkpt lat="43.318125" lon="12.0073833"><ele>816.0</ele><time>2026-04-03T06:35:05.131Z</time></trkpt><trkpt lat="43.318015" lon="12.00745"><ele>812.5</ele><time>2026-04-03T06:35:06.131Z</time></trkpt><trkpt lat="43.3179167" lon="12.0075183"><ele>809.0</ele><time>2026-04-03T06:35:07.13Z</time></trkpt><trkpt lat="43.3178083" lon="12.007575"><ele>805.5</ele><time>2026-04-03T06:35:08.131Z</time></trkpt><trkpt lat="43.3176933" lon="12.0076317"><ele>802.0</ele><time>2026-04-03T06:35:09.131Z</time></trkpt><trkpt lat="43.317565" lon="12.0076767"><ele>801.9999999999999</ele><time>2026-04-03T06:35:10.13Z</time></trkpt><trkpt lat="43.317455" lon="12.007685"><ele>802.0</ele><time>2026-04-03T06:35:11.131Z</time></trkpt><trkpt lat="43.317365" lon="12.00767"><ele>802.0</ele><time>2026-04-03T06:35:12.13Z</time></trkpt><trkpt lat="43.317285" lon="12.0076433"><ele>802.0</ele><time>2026-04-03T06:35:13.13Z</time></trkpt><trkpt lat="43.317215" lon="12.0075867"><ele>801.9999999999999</ele><time>2026-04-03T06:35:14.131Z</time></trkpt><trkpt lat="43.3171417" lon="12.0075333"><ele>802.0</ele><time>2026-04-03T06:35:15.131Z</time></trkpt><trkpt lat="43.31706" lon="12.0075083"><ele>804.6666666666666</ele><time>2026-04-03T06:35:16.13Z</time></trkpt><trkpt lat="43.3169817" lon="12.0075033"><ele>807.3333333333333</ele><time>2026-04-03T06:35:17.13Z</time></trkpt><trkpt lat="43.31691" lon="12.0075367"><ele>810.0</ele><time>2026-04-03T06:35:18.13Z</time></trkpt><trkpt lat="43.3168517" lon="12.0076183"><ele>812.6666666666667</ele><time>2026-04-03T06:35:19.13Z</time></trkpt><trkpt lat="43.3168383" lon="12.0077767"><ele>815.3333333333334</ele><time>2026-04-03T06:35:20.13Z</time></trkpt><trkpt lat="43.3168217" lon="12.007905"><ele>818.0</ele><time>2026-04-03T06:35:21.13Z</time></trkpt><trkpt lat="43.3167933" lon="12.0080383"><ele>818.0000000000001</ele><time>2026-04-03T06:35:22.13Z</time></trkpt><trkpt lat="43.3167517" lon="12.0081433"><ele>818.0</ele><time>2026-04-03T06:35:23.131Z</time></trkpt><trkpt lat="43.31669" lon="12.0082383"><ele>818.0</ele><time>2026-04-03T06:35:24.131Z</time></trkpt><trkpt lat="43.3166333" lon="12.0082967"><ele>818.0</ele><time>2026-04-03T06:35:25.131Z</time></trkpt><trkpt lat="43.3165567" lon="12.0082867"><ele>818.0000000000001</ele><time>2026-04-03T06:35:26.131Z</time></trkpt><trkpt lat="43.3164817" lon="12.0082867"><ele>818.0</ele><time>2026-04-03T06:35:27.13Z</time></trkpt><trkpt lat="43.3164183" lon="12.008295"><ele>817.2</ele><time>2026-04-03T06:35:28.131Z</time></trkpt><trkpt lat="43.3163417" lon="12.0083433"><ele>816.4</ele><time>2026-04-03T06:35:30.13Z</time></trkpt><trkpt lat="43.31634" lon="12.0084617"><ele>815.6</ele><time>2026-04-03T06:35:32.13Z</time></trkpt><trkpt lat="43.3163717" lon="12.0085717"><ele>814.8000000000001</ele><time>2026-04-03T06:35:33.13Z</time></trkpt><trkpt lat="43.3164683" lon="12.0087683"><ele>814.0</ele><time>2026-04-03T06:35:34.13Z</time></trkpt><trkpt lat="43.3165317" lon="12.0089417"><ele>814.0</ele><time>2026-04-03T06:35:35.13Z</time></trkpt><trkpt lat="43.31659" lon="12.0091483"><ele>814.0</ele><time>2026-04-03T06:35:36.131Z</time></trkpt><trkpt lat="43.316645" lon="12.0093517"><ele>814.0</ele><time>2026-04-03T06:35:37.13Z</time></trkpt><trkpt lat="43.316695" lon="12.0095333"><ele>815.0</ele><time>2026-04-03T06:35:38.13Z</time></trkpt><trkpt lat="43.316725" lon="12.009685"><ele>816.0</ele><time>2026-04-03T06:35:39.131Z</time></trkpt><trkpt lat="43.3167267" lon="12.0098167"><ele>817.0</ele><time>2026-04-03T06:35:40.131Z</time></trkpt><trkpt lat="43.316705" lon="12.0099333"><ele>818.0</ele><time>2026-04-03T06:35:41.13Z</time></trkpt><trkpt lat="43.3166683" lon="12.0100533"><ele>819.0</ele><time>2026-04-03T06:35:42.131Z</time></trkpt><trkpt lat="43.3165967" lon="12.010165"><ele>819.8000000000001</ele><time>2026-04-03T06:35:43.13Z</time></trkpt><trkpt lat="43.3164867" lon="12.01027"><ele>820.6</ele><time>2026-04-03T06:35:44.13Z</time></trkpt><trkpt lat="43.3164217" lon="12.01038"><ele>821.4</ele><time>2026-04-03T06:35:45.13Z</time></trkpt><trkpt lat="43.3163817" lon="12.010485"><ele>822.2</ele><time>2026-04-03T06:35:46.13Z</time></trkpt><trkpt lat="43.3163717" lon="12.010585"><ele>823.0</ele><time>2026-04-03T06:35:47.13Z</time></trkpt><trkpt lat="43.3163983" lon="12.010695"><ele>823.0</ele><time>2026-04-03T06:35:48.13Z</time></trkpt><trkpt lat="43.31644" lon="12.0108067"><ele>823.0</ele><time>2026-04-03T06:35:49.13Z</time></trkpt><trkpt lat="43.31649" lon="12.010925"><ele>823.0</ele><time>2026-04-03T06:35:50.13Z</time></trkpt><trkpt lat="43.3165267" lon="12.011045"><ele>823.0</ele><time>2026-04-03T06:35:51.13Z</time></trkpt><trkpt lat="43.3166017" lon="12.0111883"><ele>823.0</ele><time>2026-04-03T06:35:52.13Z</time></trkpt><trkpt lat="43.3167083" lon="12.0113467"><ele>825.25</ele><time>2026-04-03T06:35:53.13Z</time></trkpt><trkpt lat="43.3167983" lon="12.011475"><ele>827.5</ele><time>2026-04-03T06:35:54.131Z</time></trkpt><trkpt lat="43.31688" lon="12.0115783"><ele>829.75</ele><time>2026-04-03T06:35:55.13Z</time></trkpt><trkpt lat="43.3169783" lon="12.0116717"><ele>832.0</ele><time>2026-04-03T06:35:56.131Z</time></trkpt><trkpt lat="43.3170383" lon="12.0117833"><ele>833.8</ele><time>2026-04-03T06:35:57.13Z</time></trkpt><trkpt lat="43.317065" lon="12.011915"><ele>835.6</ele><time>2026-04-03T06:35:58.13Z</time></trkpt><trkpt lat="43.3170533" lon="12.0120583"><ele>837.4</ele><time>2026-04-03T06:35:59.13Z</time></trkpt><trkpt lat="43.3170183" lon="12.01221"><ele>839.1999999999999</ele><time>2026-04-03T06:36:00.131Z</time></trkpt><trkpt lat="43.3169633" lon="12.0123517"><ele>841.0</ele><time>2026-04-03T06:36:01.13Z</time></trkpt><trkpt lat="43.316895" lon="12.0124633"><ele>838.0</ele><time>2026-04-03T06:36:02.13Z</time></trkpt><trkpt lat="43.3168217" lon="12.0125433"><ele>835.0</ele><time>2026-04-03T06:36:03.131Z</time></trkpt><trkpt lat="43.316735" lon="12.0126033"><ele>832.0</ele><time>2026-04-03T06:36:04.13Z</time></trkpt><trkpt lat="43.3166183" lon="12.0126583"><ele>829.0</ele><time>2026-04-03T06:36:05.13Z</time></trkpt><trkpt lat="43.3164733" lon="12.0127367"><ele>834.0</ele><time>2026-04-03T06:36:06.131Z</time></trkpt><trkpt lat="43.3163633" lon="12.012825"><ele>839.0</ele><time>2026-04-03T06:36:07.13Z</time></trkpt><trkpt lat="43.31627" lon="12.012935"><ele>844.0000000000001</ele><time>2026-04-03T06:36:08.13Z</time></trkpt><trkpt lat="43.3162083" lon="12.0130517"><ele>849.0</ele><time>2026-04-03T06:36:09.13Z</time></trkpt><trkpt lat="43.3161667" lon="12.0131567"><ele>854.0</ele><time>2026-04-03T06:36:10.13Z</time></trkpt><trkpt lat="43.3161267" lon="12.0132267"><ele>854.0</ele><time>2026-04-03T06:36:11.13Z</time></trkpt><trkpt lat="43.3160717" lon="12.0132733"><ele>854.0000000000001</ele><time>2026-04-03T06:36:12.131Z</time></trkpt><trkpt lat="43.3159917" lon="12.0133033"><ele>854.0000000000001</ele><time>2026-04-03T06:36:13.13Z</time></trkpt><trkpt lat="43.3158533" lon="12.0132817"><ele>854.0</ele><time>2026-04-03T06:36:14.13Z</time></trkpt><trkpt lat="43.3157267" lon="12.0133"><ele>854.0</ele><time>2026-04-03T06:36:15.13Z</time></trkpt><trkpt lat="43.3155983" lon="12.0133433"><ele>850.6</ele><time>2026-04-03T06:36:16.13Z</time></trkpt><trkpt lat="43.3154917" lon="12.0134083"><ele>847.2</ele><time>2026-04-03T06:36:17.13Z</time></trkpt><trkpt lat="43.3154033" lon="12.01346"><ele>843.8000000000001</ele><time>2026-04-03T06:36:18.13Z</time></trkpt><trkpt lat="43.3153167" lon="12.013495"><ele>840.4000000000001</ele><time>2026-04-03T06:36:19.131Z</time></trkpt><trkpt lat="43.3152167" lon="12.0135033"><ele>837.0</ele><time>2026-04-03T06:36:20.131Z</time></trkpt><trkpt lat="43.3151083" lon="12.0134833"><ele>837.0</ele><time>2026-04-03T06:36:21.13Z</time></trkpt><trkpt lat="43.3149933" lon="12.0134533"><ele>837.0</ele><time>2026-04-03T06:36:22.13Z</time></trkpt><trkpt lat="43.3148817" lon="12.0134083"><ele>837.0</ele><time>2026-04-03T06:36:23.13Z</time></trkpt><trkpt lat="43.3147883" lon="12.0133533"><ele>837.0</ele><time>2026-04-03T06:36:24.13Z</time></trkpt><trkpt lat="43.3147067" lon="12.0132733"><ele>837.0</ele><time>2026-04-03T06:36:25.13Z</time></trkpt><trkpt lat="43.314635" lon="12.0131767"><ele>845.0</ele><time>2026-04-03T06:36:26.13Z</time></trkpt><trkpt lat="43.314575" lon="12.0130967"><ele>853.0</ele><time>2026-04-03T06:36:27.13Z</time></trkpt><trkpt lat="43.3145217" lon="12.0130317"><ele>861.0</ele><time>2026-04-03T06:36:28.13Z</time></trkpt><trkpt lat="43.31441" lon="12.0130217"><ele>869.0</ele><time>2026-04-03T06:36:30.13Z</time></trkpt><trkpt lat="43.31435" lon="12.0130817"><ele>877.0</ele><time>2026-04-03T06:36:31.131Z</time></trkpt><trkpt lat="43.3142717" lon="12.0131933"><ele>877.0</ele><time>2026-04-03T06:36:32.131Z</time></trkpt><trkpt lat="43.314175" lon="12.01332"><ele>877.0</ele><time>2026-04-03T06:36:33.13Z</time></trkpt><trkpt lat="43.314085" lon="12.013445"><ele>877.0</ele><time>2026-04-03T06:36:34.13Z</time></trkpt><trkpt lat="43.3139983" lon="12.0135417"><ele>877.0</ele><time>2026-04-03T06:36:35.129Z</time></trkpt><trkpt lat="43.3139033" lon="12.01362"><ele>878.4999999999999</ele><time>2026-04-03T06:36:36.129Z</time></trkpt><trkpt lat="43.3138133" lon="12.013675"><ele>880.0</ele><time>2026-04-03T06:36:37.129Z</time></trkpt><trkpt lat="43.3137533" lon="12.0137267"><ele>881.5</ele><time>2026-04-03T06:36:38.13Z</time></trkpt><trkpt lat="43.3136917" lon="12.0137867"><ele>883.0</ele><time>2026-04-03T06:36:39.13Z</time></trkpt><trkpt lat="43.31367" lon="12.0138867"><ele>884.4999999999999</ele><time>2026-04-03T06:36:40.129Z</time></trkpt><trkpt lat="43.3136733" lon="12.0139983"><ele>886.0</ele><time>2026-04-03T06:36:41.13Z</time></trkpt><trkpt lat="43.313715" lon="12.01414"><ele>881.4</ele><time>2026-04-03T06:36:42.129Z</time></trkpt><trkpt lat="43.3137567" lon="12.014245"><ele>876.8</ele><time>2026-04-03T06:36:43.129Z</time></trkpt><trkpt lat="43.3138067" lon="12.0143567"><ele>872.1999999999999</ele><time>2026-04-03T06:36:45.129Z</time></trkpt><trkpt lat="43.3138167" lon="12.0144483"><ele>867.5999999999999</ele><time>2026-04-03T06:36:46.13Z</time></trkpt><trkpt lat="43.3138217" lon="12.0146033"><ele>863.0</ele><time>2026-04-03T06:36:47.13Z</time></trkpt><trkpt lat="43.3138133" lon="12.0148083"><ele>860.0</ele><time>2026-04-03T06:36:48.129Z</time></trkpt><trkpt lat="43.3138117" lon="12.0150517"><ele>857.0</ele><time>2026-04-03T06:36:49.13Z</time></trkpt><trkpt lat="43.3137983" lon="12.0152933"><ele>854.0</ele><time>2026-04-03T06:36:50.129Z</time></trkpt><trkpt lat="43.3137817" lon="12.0155167"><ele>854.0</ele><time>2026-04-03T06:36:51.13Z</time></trkpt><trkpt lat="43.3137783" lon="12.0157167"><ele>854.0</ele><time>2026-04-03T06:36:52.129Z</time></trkpt><trkpt lat="43.3137967" lon="12.01586"><ele>854.0</ele><time>2026-04-03T06:36:53.129Z</time></trkpt><trkpt lat="43.3138083" lon="12.01597"><ele>854.0</ele><time>2026-04-03T06:36:54.129Z</time></trkpt><trkpt lat="43.31379" lon="12.01613"><ele>852.5000000000001</ele><time>2026-04-03T06:36:56.129Z</time></trkpt><trkpt lat="43.3137233" lon="12.01616"><ele>851.0</ele><time>2026-04-03T06:36:57.129Z</time></trkpt><trkpt lat="43.3136567" lon="12.01618"><ele>849.5</ele><time>2026-04-03T06:36:58.13Z</time></trkpt><trkpt lat="43.3135767" lon="12.0161833"><ele>848.0</ele><time>2026-04-03T06:36:59.13Z</time></trkpt><trkpt lat="43.313485" lon="12.0161733"><ele>846.5000000000001</ele><time>2026-04-03T06:37:00.129Z</time></trkpt><trkpt lat="43.313365" lon="12.0161367"><ele>845.0</ele><time>2026-04-03T06:37:01.129Z</time></trkpt><trkpt lat="43.31325" lon="12.016125"><ele>845.0</ele><time>2026-04-03T06:37:02.129Z</time></trkpt><trkpt lat="43.3131183" lon="12.0161117"><ele>845.0</ele><time>2026-04-03T06:37:03.13Z</time></trkpt><trkpt lat="43.3130033" lon="12.016125"><ele>845.0</ele><time>2026-04-03T06:37:04.13Z</time></trkpt><trkpt lat="43.31291" lon="12.0161183"><ele>845.0</ele><time>2026-04-03T06:37:05.13Z</time></trkpt><trkpt lat="43.3128233" lon="12.0161533"><ele>845.0</ele><time>2026-04-03T06:37:06.129Z</time></trkpt><trkpt lat="43.3127383" lon="12.0161667"><ele>846.4</ele><time>2026-04-03T06:37:07.13Z</time></trkpt><trkpt lat="43.3126483" lon="12.0161733"><ele>847.8</ele><time>2026-04-03T06:37:08.13Z</time></trkpt><trkpt lat="43.3125483" lon="12.0161617"><ele>849.2</ele><time>2026-04-03T06:37:09.13Z</time></trkpt><trkpt lat="43.31244" lon="12.016125"><ele>850.6</ele><time>2026-04-03T06:37:10.129Z</time></trkpt><trkpt lat="43.3123167" lon="12.016065"><ele>852.0</ele><time>2026-04-03T06:37:11.13Z</time></trkpt><trkpt lat="43.3121633" lon="12.0160117"><ele>852.0</ele><time>2026-04-03T06:37:12.129Z</time></trkpt><trkpt lat="43.3119767" lon="12.0159517"><ele>852.0</ele><time>2026-04-03T06:37:13.129Z</time></trkpt><trkpt lat="43.3118133" lon="12.0158883"><ele>852.0</ele><time>2026-04-03T06:37:14.129Z</time></trkpt><trkpt lat="43.3116617" lon="12.015845"><ele>859.4000000000001</ele><time>2026-04-03T06:37:15.129Z</time></trkpt><trkpt lat="43.3115217" lon="12.0157983"><ele>866.8000000000001</ele><time>2026-04-03T06:37:16.129Z</time></trkpt><trkpt lat="43.3114217" lon="12.0157867"><ele>874.2</ele><time>2026-04-03T06:37:17.129Z</time></trkpt><trkpt lat="43.3113333" lon="12.0157467"><ele>881.6</ele><time>2026-04-03T06:37:18.129Z</time></trkpt><trkpt lat="43.3112767" lon="12.0156767"><ele>889.0</ele><time>2026-04-03T06:37:19.129Z</time></trkpt><trkpt lat="43.31121" lon="12.0156017"><ele>889.0</ele><time>2026-04-03T06:37:20.13Z</time></trkpt><trkpt lat="43.311135" lon="12.015545"><ele>889.0000000000001</ele><time>2026-04-03T06:37:21.129Z</time></trkpt><trkpt lat="43.31105" lon="12.0155133"><ele>889.0000000000001</ele><time>2026-04-03T06:37:22.129Z</time></trkpt><trkpt lat="43.3109567" lon="12.01549"><ele>889.0</ele><time>2026-04-03T06:37:23.13Z</time></trkpt><trkpt lat="43.3108517" lon="12.0155233"><ele>889.0</ele><time>2026-04-03T06:37:24.13Z</time></trkpt><trkpt lat="43.3107567" lon="12.0155867"><ele>889.0</ele><time>2026-04-03T06:37:25.129Z</time></trkpt><trkpt lat="43.3106767" lon="12.0156567"><ele>889.0</ele><time>2026-04-03T06:37:26.129Z</time></trkpt><trkpt lat="43.3106" lon="12.0157633"><ele>889.0</ele><time>2026-04-03T06:37:27.129Z</time></trkpt><trkpt lat="43.3105283" lon="12.0159017"><ele>889.0</ele><time>2026-04-03T06:37:28.129Z</time></trkpt><trkpt lat="43.3104333" lon="12.0160467"><ele>886.5</ele><time>2026-04-03T06:37:29.129Z</time></trkpt><trkpt lat="43.3103017" lon="12.0161517"><ele>884.0</ele><time>2026-04-03T06:37:30.129Z</time></trkpt><trkpt lat="43.310175" lon="12.0162433"><ele>881.5</ele><time>2026-04-03T06:37:31.129Z</time></trkpt><trkpt lat="43.310045" lon="12.016325"><ele>879.0</ele><time>2026-04-03T06:37:32.129Z</time></trkpt><trkpt lat="43.30992" lon="12.0164083"><ele>879.0</ele><time>2026-04-03T06:37:33.129Z</time></trkpt><trkpt lat="43.3097867" lon="12.016505"><ele>879.0</ele><time>2026-04-03T06:37:34.13Z</time></trkpt><trkpt lat="43.3096483" lon="12.0166317"><ele>879.0</ele><time>2026-04-03T06:37:35.129Z</time></trkpt><trkpt lat="43.30951" lon="12.016735"><ele>879.4000000000001</ele><time>2026-04-03T06:37:36.13Z</time></trkpt><trkpt lat="43.30939" lon="12.016825"><ele>879.8000000000001</ele><time>2026-04-03T06:37:37.129Z</time></trkpt><trkpt lat="43.309305" lon="12.0168867"><ele>880.1999999999999</ele><time>2026-04-03T06:37:38.13Z</time></trkpt><trkpt lat="43.30921" lon="12.0168933"><ele>880.5999999999999</ele><time>2026-04-03T06:37:39.13Z</time></trkpt><trkpt lat="43.3091133" lon="12.01689"><ele>881.0</ele><time>2026-04-03T06:37:40.13Z</time></trkpt><trkpt lat="43.308975" lon="12.01688"><ele>883.0</ele><time>2026-04-03T06:37:41.13Z</time></trkpt><trkpt lat="43.30885" lon="12.0168683"><ele>885.0</ele><time>2026-04-03T06:37:42.129Z</time></trkpt><trkpt lat="43.3087233" lon="12.0168467"><ele>887.0</ele><time>2026-04-03T06:37:43.129Z</time></trkpt><trkpt lat="43.3086083" lon="12.0168083"><ele>889.0</ele><time>2026-04-03T06:37:44.13Z</time></trkpt><trkpt lat="43.3084933" lon="12.016745"><ele>889.0</ele><time>2026-04-03T06:37:45.13Z</time></trkpt><trkpt lat="43.3083767" lon="12.0166683"><ele>889.0</ele><time>2026-04-03T06:37:46.129Z</time></trkpt><trkpt lat="43.3082467" lon="12.0165933"><ele>889.0</ele><time>2026-04-03T06:37:47.129Z</time></trkpt><trkpt lat="43.3081217" lon="12.0165217"><ele>889.0</ele><time>2026-04-03T06:37:48.13Z</time></trkpt><trkpt lat="43.30801" lon="12.0164383"><ele>895.0</ele><time>2026-04-03T06:37:49.129Z</time></trkpt><trkpt lat="43.3079033" lon="12.0163333"><ele>901.0</ele><time>2026-04-03T06:37:50.129Z</time></trkpt><trkpt lat="43.3077917" lon="12.016215"><ele>907.0</ele><time>2026-04-03T06:37:51.129Z</time></trkpt><trkpt lat="43.3076783" lon="12.0160817"><ele>913.0</ele><time>2026-04-03T06:37:52.129Z</time></trkpt><trkpt lat="43.30756" lon="12.0159433"><ele>913.0</ele><time>2026-04-03T06:37:53.129Z</time></trkpt><trkpt lat="43.3074483" lon="12.0158267"><ele>913.0</ele><time>2026-04-03T06:37:54.129Z</time></trkpt><trkpt lat="43.3073217" lon="12.0157267"><ele>913.0</ele><time>2026-04-03T06:37:55.129Z</time></trkpt><trkpt lat="43.307205" lon="12.0156383"><ele>913.0</ele><time>2026-04-03T06:37:56.13Z</time></trkpt><trkpt lat="43.3071067" lon="12.0155667"><ele>914.4</ele><time>2026-04-03T06:37:57.129Z</time></trkpt><trkpt lat="43.3070083" lon="12.015495"><ele>915.8</ele><time>2026-04-03T06:37:58.129Z</time></trkpt><trkpt lat="43.3069167" lon="12.0154067"><ele>917.2</ele><time>2026-04-03T06:37:59.13Z</time></trkpt><trkpt lat="43.30683" lon="12.0153083"><ele>918.6</ele><time>2026-04-03T06:38:00.13Z</time></trkpt><trkpt lat="43.3067483" lon="12.01522"><ele>920.0</ele><time>2026-04-03T06:38:01.129Z</time></trkpt><trkpt lat="43.3066783" lon="12.0151633"><ele>920.0</ele><time>2026-04-03T06:38:02.129Z</time></trkpt><trkpt lat="43.306605" lon="12.0151183"><ele>920.0</ele><time>2026-04-03T06:38:03.13Z</time></trkpt><trkpt lat="43.3065367" lon="12.0150583"><ele>920.0</ele><time>2026-04-03T06:38:04.13Z</time></trkpt><trkpt lat="43.3064567" lon="12.0149883"><ele>920.0</ele><time>2026-04-03T06:38:05.129Z</time></trkpt><trkpt lat="43.3063733" lon="12.0149117"><ele>920.0</ele><time>2026-04-03T06:38:06.129Z</time></trkpt><trkpt lat="43.30629" lon="12.0148367"><ele>916.0</ele><time>2026-04-03T06:38:07.129Z</time></trkpt><trkpt lat="43.3062117" lon="12.014795"><ele>912.0</ele><time>2026-04-03T06:38:08.129Z</time></trkpt><trkpt lat="43.3061183" lon="12.0147867"><ele>908.0</ele><time>2026-04-03T06:38:09.129Z</time></trkpt><trkpt lat="43.3060183" lon="12.0148267"><ele>904.0</ele><time>2026-04-03T06:38:10.129Z</time></trkpt><trkpt lat="43.3059167" lon="12.014885"><ele>900.0</ele><time>2026-04-03T06:38:11.129Z</time></trkpt><trkpt lat="43.30581" lon="12.0149567"><ele>899.5</ele><time>2026-04-03T06:38:12.13Z</time></trkpt><trkpt lat="43.3057" lon="12.015025"><ele>899.0</ele><time>2026-04-03T06:38:13.13Z</time></trkpt><trkpt lat="43.3055967" lon="12.0150933"><ele>898.5</ele><time>2026-04-03T06:38:14.129Z</time></trkpt><trkpt lat="43.3054917" lon="12.01516"><ele>898.0</ele><time>2026-04-03T06:38:15.13Z</time></trkpt><trkpt lat="43.3053983" lon="12.015215"><ele>897.9999999999999</ele><time>2026-04-03T06:38:16.13Z</time></trkpt><trkpt lat="43.30532" lon="12.0152717"><ele>898.0</ele><time>2026-04-03T06:38:17.13Z</time></trkpt><trkpt lat="43.3052483" lon="12.0153133"><ele>898.0</ele><time>2026-04-03T06:38:18.129Z</time></trkpt><trkpt lat="43.30518" lon="12.0153367"><ele>898.0</ele><time>2026-04-03T06:38:19.129Z</time></trkpt><trkpt lat="43.3051117" lon="12.0153533"><ele>897.9999999999999</ele><time>2026-04-03T06:38:20.13Z</time></trkpt><trkpt lat="43.305045" lon="12.0153717"><ele>898.0</ele><time>2026-04-03T06:38:21.13Z</time></trkpt><trkpt lat="43.30493" lon="12.0154017"><ele>898.0</ele><time>2026-04-03T06:38:23.129Z</time></trkpt><trkpt lat="43.30485" lon="12.0154217"><ele>897.9999999999999</ele><time>2026-04-03T06:38:25.129Z</time></trkpt><trkpt lat="43.3047833" lon="12.0154417"><ele>898.0</ele><time>2026-04-03T06:38:28.129Z</time></trkpt><trkpt lat="43.3047017" lon="12.01548"><ele>898.0</ele><time>2026-04-03T06:38:31.129Z</time></trkpt><trkpt lat="43.3046367" lon="12.015515"><ele>897.9999999999999</ele><time>2026-04-03T06:38:33.13Z</time></trkpt><trkpt lat="43.304575" lon="12.0155533"><ele>898.0</ele><time>2026-04-03T06:38:35.129Z</time></trkpt><trkpt lat="43.3045017" lon="12.0155817"><ele>898.0</ele><time>2026-04-03T06:38:37.129Z</time></trkpt><trkpt lat="43.3044367" lon="12.015605"><ele>895.4</ele><time>2026-04-03T06:38:40.13Z</time></trkpt><trkpt lat="43.30435" lon="12.0156617"><ele>892.8</ele><time>2026-04-03T06:44:18.129Z</time></trkpt><trkpt lat="43.3042717" lon="12.0156733"><ele>890.2</ele><time>2026-04-03T06:44:19.13Z</time></trkpt><trkpt lat="43.3041817" lon="12.01569"><ele>887.6</ele><time>2026-04-03T06:44:20.129Z</time></trkpt><trkpt lat="43.30408" lon="12.0157"><ele>885.0</ele><time>2026-04-03T06:44:21.13Z</time></trkpt><trkpt lat="43.3039783" lon="12.0157067"><ele>886.5</ele><time>2026-04-03T06:44:22.129Z</time></trkpt><trkpt lat="43.303875" lon="12.0157"><ele>888.0</ele><time>2026-04-03T06:44:23.129Z</time></trkpt><trkpt lat="43.303765" lon="12.015685"><ele>889.5</ele><time>2026-04-03T06:44:24.13Z</time></trkpt><trkpt lat="43.3036517" lon="12.0156467"><ele>891.0</ele><time>2026-04-03T06:44:25.129Z</time></trkpt><trkpt lat="43.3035383" lon="12.01559"><ele>891.0</ele><time>2026-04-03T06:44:26.13Z</time></trkpt><trkpt lat="43.303425" lon="12.0155217"><ele>891.0</ele><time>2026-04-03T06:44:27.129Z</time></trkpt><trkpt lat="43.3033083" lon="12.0154267"><ele>891.0</ele><time>2026-04-03T06:44:28.129Z</time></trkpt><trkpt lat="43.3031867" lon="12.015325"><ele>891.0</ele><time>2026-04-03T06:44:29.13Z</time></trkpt><trkpt lat="43.3030717" lon="12.0152217"><ele>892.75</ele><time>2026-04-03T06:44:30.129Z</time></trkpt><trkpt lat="43.3029433" lon="12.0151417"><ele>894.5</ele><time>2026-04-03T06:44:31.13Z</time></trkpt><trkpt lat="43.3028" lon="12.015095"><ele>896.25</ele><time>2026-04-03T06:44:32.129Z</time></trkpt><trkpt lat="43.3026483" lon="12.015055"><ele>898.0</ele><time>2026-04-03T06:44:33.13Z</time></trkpt><trkpt lat="43.3025017" lon="12.015025"><ele>893.0</ele><time>2026-04-03T06:44:34.13Z</time></trkpt><trkpt lat="43.3023617" lon="12.0149783"><ele>888.0</ele><time>2026-04-03T06:44:35.13Z</time></trkpt><trkpt lat="43.3022317" lon="12.01493"><ele>883.0</ele><time>2026-04-03T06:44:36.129Z</time></trkpt><trkpt lat="43.302115" lon="12.014915"><ele>878.0</ele><time>2026-04-03T06:44:37.129Z</time></trkpt><trkpt lat="43.3020083" lon="12.0149183"><ele>877.8</ele><time>2026-04-03T06:44:38.129Z</time></trkpt><trkpt lat="43.30191" lon="12.0149533"><ele>877.5999999999999</ele><time>2026-04-03T06:44:39.13Z</time></trkpt><trkpt lat="43.301825" lon="12.0150133"><ele>877.4000000000001</ele><time>2026-04-03T06:44:40.129Z</time></trkpt><trkpt lat="43.3017383" lon="12.0150967"><ele>877.2</ele><time>2026-04-03T06:44:41.13Z</time></trkpt><trkpt lat="43.301655" lon="12.0152033"><ele>877.0</ele><time>2026-04-03T06:44:42.129Z</time></trkpt><trkpt lat="43.3015767" lon="12.0153217"><ele>877.5</ele><time>2026-04-03T06:44:43.129Z</time></trkpt><trkpt lat="43.3015017" lon="12.0154433"><ele>878.0</ele><time>2026-04-03T06:44:44.13Z</time></trkpt><trkpt lat="43.3014617" lon="12.015605"><ele>878.5</ele><time>2026-04-03T06:44:45.129Z</time></trkpt><trkpt lat="43.3014283" lon="12.015765"><ele>879.0</ele><time>2026-04-03T06:44:46.129Z</time></trkpt><trkpt lat="43.3013933" lon="12.0159117"><ele>879.0</ele><time>2026-04-03T06:44:47.129Z</time></trkpt><trkpt lat="43.301355" lon="12.016085"><ele>879.0</ele><time>2026-04-03T06:44:48.13Z</time></trkpt><trkpt lat="43.30131" lon="12.0162467"><ele>879.0</ele><time>2026-04-03T06:44:49.13Z</time></trkpt><trkpt lat="43.30127" lon="12.01641"><ele>879.0</ele><time>2026-04-03T06:44:50.129Z</time></trkpt><trkpt lat="43.301225" lon="12.01659"><ele>880.0</ele><time>2026-04-03T06:44:51.129Z</time></trkpt><trkpt lat="43.3011817" lon="12.0167733"><ele>881.0</ele><time>2026-04-03T06:44:52.129Z</time></trkpt><trkpt lat="43.3011417" lon="12.0169567"><ele>882.0</ele><time>2026-04-03T06:44:53.129Z</time></trkpt><trkpt lat="43.3010983" lon="12.01713"><ele>883.0</ele><time>2026-04-03T06:44:54.129Z</time></trkpt><trkpt lat="43.3010467" lon="12.01728"><ele>883.0</ele><time>2026-04-03T06:44:55.13Z</time></trkpt><trkpt lat="43.3009883" lon="12.017415"><ele>883.0</ele><time>2026-04-03T06:44:56.13Z</time></trkpt><trkpt lat="43.3009067" lon="12.017535"><ele>883.0</ele><time>2026-04-03T06:44:57.129Z</time></trkpt><trkpt lat="43.3008167" lon="12.01764"><ele>883.0</ele><time>2026-04-03T06:44:58.129Z</time></trkpt><trkpt lat="43.3007133" lon="12.017725"><ele>882.5</ele><time>2026-04-03T06:44:59.129Z</time></trkpt><trkpt lat="43.3005733" lon="12.0177883"><ele>882.0</ele><time>2026-04-03T06:45:00.13Z</time></trkpt><trkpt lat="43.3004333" lon="12.0178583"><ele>881.5</ele><time>2026-04-03T06:45:01.129Z</time></trkpt><trkpt lat="43.30031" lon="12.0179217"><ele>881.0</ele><time>2026-04-03T06:45:02.13Z</time></trkpt><trkpt lat="43.3001867" lon="12.0179817"><ele>881.0</ele><time>2026-04-03T06:45:03.13Z</time></trkpt><trkpt lat="43.300045" lon="12.0180317"><ele>881.0</ele><time>2026-04-03T06:45:04.13Z</time></trkpt><trkpt lat="43.2999117" lon="12.0180517"><ele>881.0</ele><time>2026-04-03T06:45:05.129Z</time></trkpt><trkpt lat="43.2997567" lon="12.0180867"><ele>881.0</ele><time>2026-04-03T06:45:06.13Z</time></trkpt><trkpt lat="43.2995967" lon="12.0180783"><ele>878.3333333333334</ele><time>2026-04-03T06:45:07.129Z</time></trkpt><trkpt lat="43.2994267" lon="12.0180717"><ele>875.6666666666667</ele><time>2026-04-03T06:45:08.129Z</time></trkpt><trkpt lat="43.2992467" lon="12.0180717"><ele>873.0</ele><time>2026-04-03T06:45:09.129Z</time></trkpt><trkpt lat="43.29908" lon="12.0180767"><ele>865.6666666666667</ele><time>2026-04-03T06:45:10.129Z</time></trkpt><trkpt lat="43.2989017" lon="12.0181"><ele>858.3333333333334</ele><time>2026-04-03T06:45:11.129Z</time></trkpt><trkpt lat="43.2987217" lon="12.0181267"><ele>851.0</ele><time>2026-04-03T06:45:12.129Z</time></trkpt><trkpt lat="43.298555" lon="12.0181533"><ele>851.0</ele><time>2026-04-03T06:45:13.129Z</time></trkpt><trkpt lat="43.2984033" lon="12.0181883"><ele>851.0</ele><time>2026-04-03T06:45:14.129Z</time></trkpt><trkpt lat="43.2982517" lon="12.0182483"><ele>851.0</ele><time>2026-04-03T06:45:15.129Z</time></trkpt><trkpt lat="43.298125" lon="12.0183283"><ele>856.5</ele><time>2026-04-03T06:45:16.129Z</time></trkpt><trkpt lat="43.298" lon="12.0184183"><ele>862.0</ele><time>2026-04-03T06:45:17.129Z</time></trkpt><trkpt lat="43.297875" lon="12.01851"><ele>867.5</ele><time>2026-04-03T06:45:18.129Z</time></trkpt><trkpt lat="43.2977367" lon="12.0185533"><ele>873.0</ele><time>2026-04-03T06:45:19.129Z</time></trkpt><trkpt lat="43.2975933" lon="12.0185833"><ele>873.0</ele><time>2026-04-03T06:45:20.129Z</time></trkpt><trkpt lat="43.2974483" lon="12.0185967"><ele>873.0</ele><time>2026-04-03T06:45:21.129Z</time></trkpt><trkpt lat="43.297275" lon="12.0186117"><ele>873.0</ele><time>2026-04-03T06:45:22.129Z</time></trkpt><trkpt lat="43.2970983" lon="12.018645"><ele>873.6666666666667</ele><time>2026-04-03T06:45:23.129Z</time></trkpt><trkpt lat="43.2969283" lon="12.0186783"><ele>874.3333333333334</ele><time>2026-04-03T06:45:24.129Z</time></trkpt><trkpt lat="43.2967667" lon="12.0187017"><ele>875.0</ele><time>2026-04-03T06:45:25.129Z</time></trkpt><trkpt lat="43.2966233" lon="12.0187333"><ele>875.0</ele><time>2026-04-03T06:45:26.129Z</time></trkpt><trkpt lat="43.2964917" lon="12.018715"><ele>875.0</ele><time>2026-04-03T06:45:27.129Z</time></trkpt><trkpt lat="43.2963733" lon="12.018665"><ele>875.0</ele><time>2026-04-03T06:45:28.129Z</time></trkpt><trkpt lat="43.296255" lon="12.0186067"><ele>875.0</ele><time>2026-04-03T06:45:29.13Z</time></trkpt><trkpt lat="43.2961483" lon="12.0185217"><ele>874.5</ele><time>2026-04-03T06:45:30.129Z</time></trkpt><trkpt lat="43.29605" lon="12.0184033"><ele>874.0</ele><time>2026-04-03T06:45:31.129Z</time></trkpt><trkpt lat="43.29597" lon="12.0182517"><ele>873.5</ele><time>2026-04-03T06:45:32.13Z</time></trkpt><trkpt lat="43.2959033" lon="12.0180783"><ele>873.0</ele><time>2026-04-03T06:45:33.129Z</time></trkpt><trkpt lat="43.2958317" lon="12.0179017"><ele>873.0</ele><time>2026-04-03T06:45:34.129Z</time></trkpt><trkpt lat="43.2957583" lon="12.017735"><ele>873.0</ele><time>2026-04-03T06:45:35.13Z</time></trkpt><trkpt lat="43.2956967" lon="12.0175967"><ele>873.0</ele><time>2026-04-03T06:45:36.129Z</time></trkpt><trkpt lat="43.295625" lon="12.0174817"><ele>873.0</ele><time>2026-04-03T06:45:37.129Z</time></trkpt><trkpt lat="43.29555" lon="12.0173933"><ele>874.2</ele><time>2026-04-03T06:45:38.129Z</time></trkpt><trkpt lat="43.2954617" lon="12.0173317"><ele>875.4</ele><time>2026-04-03T06:45:39.129Z</time></trkpt><trkpt lat="43.2953717" lon="12.0173067"><ele>876.6000000000001</ele><time>2026-04-03T06:45:40.129Z</time></trkpt><trkpt lat="43.2952783" lon="12.0173117"><ele>877.8000000000001</ele><time>2026-04-03T06:45:41.13Z</time></trkpt><trkpt lat="43.2951883" lon="12.0173267"><ele>879.0</ele><time>2026-04-03T06:45:42.129Z</time></trkpt><trkpt lat="43.2951033" lon="12.0173433"><ele>879.0</ele><time>2026-04-03T06:45:43.129Z</time></trkpt><trkpt lat="43.2950183" lon="12.0173717"><ele>879.0000000000001</ele><time>2026-04-03T06:45:44.129Z</time></trkpt><trkpt lat="43.2949217" lon="12.01742"><ele>879.0000000000001</ele><time>2026-04-03T06:45:45.13Z</time></trkpt><trkpt lat="43.2948167" lon="12.017475"><ele>879.0</ele><time>2026-04-03T06:45:46.129Z</time></trkpt><trkpt lat="43.294705" lon="12.0175517"><ele>879.0</ele><time>2026-04-03T06:45:47.129Z</time></trkpt><trkpt lat="43.2945933" lon="12.0176467"><ele>873.5</ele><time>2026-04-03T06:45:48.13Z</time></trkpt><trkpt lat="43.294505" lon="12.0177517"><ele>868.0</ele><time>2026-04-03T06:45:49.129Z</time></trkpt><trkpt lat="43.2944367" lon="12.017885"><ele>862.5</ele><time>2026-04-03T06:45:50.129Z</time></trkpt><trkpt lat="43.2943883" lon="12.0180383"><ele>857.0</ele><time>2026-04-03T06:45:51.13Z</time></trkpt><trkpt lat="43.2943517" lon="12.018205"><ele>856.25</ele><time>2026-04-03T06:45:52.129Z</time></trkpt><trkpt lat="43.2943067" lon="12.018385"><ele>855.5</ele><time>2026-04-03T06:45:53.129Z</time></trkpt><trkpt lat="43.2942483" lon="12.0185633"><ele>854.75</ele><time>2026-04-03T06:45:54.129Z</time></trkpt><trkpt lat="43.294175" lon="12.01875"><ele>854.0</ele><time>2026-04-03T06:45:55.129Z</time></trkpt><trkpt lat="43.2940883" lon="12.0189283"><ele>854.0</ele><time>2026-04-03T06:45:56.13Z</time></trkpt><trkpt lat="43.294" lon="12.0190967"><ele>854.0</ele><time>2026-04-03T06:45:57.13Z</time></trkpt><trkpt lat="43.2939433" lon="12.0192433"><ele>854.0</ele><time>2026-04-03T06:45:58.129Z</time></trkpt><trkpt lat="43.2939133" lon="12.019385"><ele>854.0</ele><time>2026-04-03T06:45:59.13Z</time></trkpt><trkpt lat="43.2939117" lon="12.0195217"><ele>855.4000000000001</ele><time>2026-04-03T06:46:00.129Z</time></trkpt><trkpt lat="43.2939317" lon="12.01967"><ele>856.8000000000001</ele><time>2026-04-03T06:46:01.13Z</time></trkpt><trkpt lat="43.29396" lon="12.0198083"><ele>858.1999999999999</ele><time>2026-04-03T06:46:02.129Z</time></trkpt><trkpt lat="43.2939817" lon="12.01993"><ele>859.5999999999999</ele><time>2026-04-03T06:46:03.129Z</time></trkpt><trkpt lat="43.2939967" lon="12.0200383"><ele>861.0</ele><time>2026-04-03T06:46:04.13Z</time></trkpt><trkpt lat="43.29399" lon="12.0201367"><ele>862.75</ele><time>2026-04-03T06:46:05.129Z</time></trkpt><trkpt lat="43.2939567" lon="12.0202217"><ele>864.5</ele><time>2026-04-03T06:46:06.129Z</time></trkpt><trkpt lat="43.2938483" lon="12.020285"><ele>866.25</ele><time>2026-04-03T06:46:07.129Z</time></trkpt><trkpt lat="43.293735" lon="12.02036"><ele>868.0</ele><time>2026-04-03T06:46:08.13Z</time></trkpt><trkpt lat="43.2936133" lon="12.02045"><ele>863.25</ele><time>2026-04-03T06:46:09.13Z</time></trkpt><trkpt lat="43.293495" lon="12.0205517"><ele>858.5</ele><time>2026-04-03T06:46:10.13Z</time></trkpt><trkpt lat="43.2934017" lon="12.02065"><ele>853.75</ele><time>2026-04-03T06:46:11.129Z</time></trkpt><trkpt lat="43.2933117" lon="12.020775"><ele>849.0</ele><time>2026-04-03T06:46:12.129Z</time></trkpt><trkpt lat="43.293225" lon="12.0209267"><ele>849.0</ele><time>2026-04-03T06:46:13.13Z</time></trkpt><trkpt lat="43.2931483" lon="12.021085"><ele>849.0</ele><time>2026-04-03T06:46:14.13Z</time></trkpt><trkpt lat="43.2930767" lon="12.0212567"><ele>849.0</ele><time>2026-04-03T06:46:15.129Z</time></trkpt><trkpt lat="43.2929967" lon="12.0214167"><ele>849.0</ele><time>2026-04-03T06:46:16.129Z</time></trkpt><trkpt lat="43.292935" lon="12.0215517"><ele>844.25</ele><time>2026-04-03T06:46:17.13Z</time></trkpt><trkpt lat="43.2928683" lon="12.0216767"><ele>839.5</ele><time>2026-04-03T06:46:18.129Z</time></trkpt><trkpt lat="43.29281" lon="12.0218167"><ele>834.75</ele><time>2026-04-03T06:46:19.13Z</time></trkpt><trkpt lat="43.292765" lon="12.0219583"><ele>830.0</ele><time>2026-04-03T06:46:20.13Z</time></trkpt><trkpt lat="43.2927317" lon="12.02212"><ele>830.0</ele><time>2026-04-03T06:46:21.129Z</time></trkpt><trkpt lat="43.2927083" lon="12.0222817"><ele>830.0</ele><time>2026-04-03T06:46:22.129Z</time></trkpt><trkpt lat="43.2926683" lon="12.0224317"><ele>830.0</ele><time>2026-04-03T06:46:23.129Z</time></trkpt><trkpt lat="43.2926283" lon="12.0225683"><ele>830.0</ele><time>2026-04-03T06:46:24.129Z</time></trkpt><trkpt lat="43.2925567" lon="12.0227083"><ele>831.5</ele><time>2026-04-03T06:46:25.13Z</time></trkpt><trkpt lat="43.2924633" lon="12.022835"><ele>833.0</ele><time>2026-04-03T06:46:26.129Z</time></trkpt><trkpt lat="43.2923617" lon="12.022975"><ele>834.5</ele><time>2026-04-03T06:46:27.129Z</time></trkpt><trkpt lat="43.29225" lon="12.023115"><ele>836.0</ele><time>2026-04-03T06:46:28.13Z</time></trkpt><trkpt lat="43.292125" lon="12.023245"><ele>832.75</ele><time>2026-04-03T06:46:29.13Z</time></trkpt><trkpt lat="43.292005" lon="12.0233833"><ele>829.5</ele><time>2026-04-03T06:46:30.129Z</time></trkpt><trkpt lat="43.2918883" lon="12.0234917"><ele>826.25</ele><time>2026-04-03T06:46:31.13Z</time></trkpt><trkpt lat="43.2917867" lon="12.0235917"><ele>823.0</ele><time>2026-04-03T06:46:32.129Z</time></trkpt><trkpt lat="43.2916983" lon="12.0236633"><ele>823.0</ele><time>2026-04-03T06:46:33.129Z</time></trkpt><trkpt lat="43.2916217" lon="12.0237033"><ele>823.0</ele><time>2026-04-03T06:46:34.129Z</time></trkpt><trkpt lat="43.2915483" lon="12.0236517"><ele>823.0</ele><time>2026-04-03T06:46:36.13Z</time></trkpt><trkpt lat="43.291635" lon="12.0235433"><ele>823.0</ele><time>2026-04-03T06:46:38.129Z</time></trkpt><trkpt lat="43.2917133" lon="12.0234833"><ele>823.0</ele><time>2026-04-03T06:46:39.13Z</time></trkpt><trkpt lat="43.291805" lon="12.0234117"><ele>823.0</ele><time>2026-04-03T06:46:40.129Z</time></trkpt><trkpt lat="43.2918967" lon="12.0233233"><ele>823.0</ele><time>2026-04-03T06:46:41.13Z</time></trkpt><trkpt lat="43.2919817" lon="12.0232267"><ele>823.0</ele><time>2026-04-03T06:46:42.129Z</time></trkpt><trkpt lat="43.2920467" lon="12.0231"><ele>823.0</ele><time>2026-04-03T06:46:43.129Z</time></trkpt><trkpt lat="43.2920917" lon="12.0229617"><ele>823.0</ele><time>2026-04-03T06:46:44.13Z</time></trkpt><trkpt lat="43.2921317" lon="12.02284"><ele>824.0</ele><time>2026-04-03T06:46:45.129Z</time></trkpt><trkpt lat="43.292165" lon="12.022735"><ele>825.0</ele><time>2026-04-03T06:46:46.129Z</time></trkpt><trkpt lat="43.292205" lon="12.0226467"><ele>826.0</ele><time>2026-04-03T06:46:47.129Z</time></trkpt><trkpt lat="43.2922383" lon="12.02256"><ele>827.0</ele><time>2026-04-03T06:46:48.129Z</time></trkpt><trkpt lat="43.2922683" lon="12.0224783"><ele>828.0</ele><time>2026-04-03T06:46:49.129Z</time></trkpt><trkpt lat="43.2922883" lon="12.0223883"><ele>829.0</ele><time>2026-04-03T06:46:50.13Z</time></trkpt><trkpt lat="43.2923033" lon="12.0222883"><ele>830.0</ele><time>2026-04-03T06:46:51.129Z</time></trkpt><trkpt lat="43.29231" lon="12.022175"><ele>830.0</ele><time>2026-04-03T06:46:52.129Z</time></trkpt><trkpt lat="43.2923033" lon="12.022045"><ele>830.0</ele><time>2026-04-03T06:46:53.13Z</time></trkpt><trkpt lat="43.2922983" lon="12.0219067"><ele>830.0</ele><time>2026-04-03T06:46:54.13Z</time></trkpt><trkpt lat="43.2923083" lon="12.0217583"><ele>830.0</ele><time>2026-04-03T06:46:55.129Z</time></trkpt><trkpt lat="43.2923217" lon="12.0216167"><ele>830.0</ele><time>2026-04-03T06:46:56.13Z</time></trkpt><trkpt lat="43.292335" lon="12.0214867"><ele>828.6</ele><time>2026-04-03T06:46:57.129Z</time></trkpt><trkpt lat="43.29234" lon="12.0213783"><ele>827.2</ele><time>2026-04-03T06:46:58.13Z</time></trkpt><trkpt lat="43.292265" lon="12.0212883"><ele>825.8</ele><time>2026-04-03T06:47:00.13Z</time></trkpt><trkpt lat="43.29218" lon="12.021355"><ele>824.4</ele><time>2026-04-03T06:47:02.13Z</time></trkpt><trkpt lat="43.29215" lon="12.0214483"><ele>823.0</ele><time>2026-04-03T06:47:03.129Z</time></trkpt><trkpt lat="43.292135" lon="12.021585"><ele>818.25</ele><time>2026-04-03T06:47:04.129Z</time></trkpt><trkpt lat="43.2921517" lon="12.02181"><ele>813.5</ele><time>2026-04-03T06:47:05.129Z</time></trkpt><trkpt lat="43.2921483" lon="12.0219867"><ele>808.75</ele><time>2026-04-03T06:47:06.129Z</time></trkpt><trkpt lat="43.292125" lon="12.0221417"><ele>804.0</ele><time>2026-04-03T06:47:07.129Z</time></trkpt><trkpt lat="43.2920783" lon="12.0222667"><ele>804.0</ele><time>2026-04-03T06:47:08.129Z</time></trkpt><trkpt lat="43.292005" lon="12.0223883"><ele>804.0</ele><time>2026-04-03T06:47:09.129Z</time></trkpt><trkpt lat="43.2919183" lon="12.0225167"><ele>804.0</ele><time>2026-04-03T06:47:10.13Z</time></trkpt><trkpt lat="43.291825" lon="12.0226483"><ele>804.0</ele><time>2026-04-03T06:47:11.129Z</time></trkpt><trkpt lat="43.29174" lon="12.0227983"><ele>805.2</ele><time>2026-04-03T06:47:12.129Z</time></trkpt><trkpt lat="43.2916567" lon="12.0229233"><ele>806.4000000000001</ele><time>2026-04-03T06:47:13.129Z</time></trkpt><trkpt lat="43.2915683" lon="12.0230017"><ele>807.6</ele><time>2026-04-03T06:47:14.129Z</time></trkpt><trkpt lat="43.29148" lon="12.0230267"><ele>808.8</ele><time>2026-04-03T06:47:15.13Z</time></trkpt><trkpt lat="43.2913883" lon="12.02304"><ele>810.0</ele><time>2026-04-03T06:47:16.13Z</time></trkpt><trkpt lat="43.29131" lon="12.0230717"><ele>807.6</ele><time>2026-04-03T06:47:17.13Z</time></trkpt><trkpt lat="43.2912433" lon="12.0231667"><ele>805.2</ele><time>2026-04-03T06:47:18.13Z</time></trkpt><trkpt lat="43.291185" lon="12.02328"><ele>802.8</ele><time>2026-04-03T06:47:19.13Z</time></trkpt><trkpt lat="43.2911267" lon="12.0234133"><ele>800.4</ele><time>2026-04-03T06:47:20.129Z</time></trkpt><trkpt lat="43.2910717" lon="12.02357"><ele>798.0</ele><time>2026-04-03T06:47:21.129Z</time></trkpt><trkpt lat="43.2910233" lon="12.02374"><ele>798.0</ele><time>2026-04-03T06:47:22.129Z</time></trkpt><trkpt lat="43.29097" lon="12.023895"><ele>798.0</ele><time>2026-04-03T06:47:23.129Z</time></trkpt><trkpt lat="43.2909" lon="12.0240417"><ele>798.0</ele><time>2026-04-03T06:47:24.13Z</time></trkpt><trkpt lat="43.290805" lon="12.02417"><ele>798.0</ele><time>2026-04-03T06:47:25.129Z</time></trkpt><trkpt lat="43.2906867" lon="12.0242633"><ele>797.0</ele><time>2026-04-03T06:47:26.129Z</time></trkpt><trkpt lat="43.2905617" lon="12.0243367"><ele>796.0</ele><time>2026-04-03T06:47:27.13Z</time></trkpt><trkpt lat="43.290425" lon="12.0243767"><ele>795.0</ele><time>2026-04-03T06:47:28.128Z</time></trkpt><trkpt lat="43.2902783" lon="12.024395"><ele>794.0</ele><time>2026-04-03T06:47:29.128Z</time></trkpt><trkpt lat="43.290135" lon="12.024425"><ele>794.0</ele><time>2026-04-03T06:47:30.128Z</time></trkpt><trkpt lat="43.2899967" lon="12.02448"><ele>794.0</ele><time>2026-04-03T06:47:31.128Z</time></trkpt><trkpt lat="43.28987" lon="12.024565"><ele>794.0</ele><time>2026-04-03T06:47:32.128Z</time></trkpt><trkpt lat="43.2897633" lon="12.024665"><ele>794.0</ele><time>2026-04-03T06:47:33.129Z</time></trkpt><trkpt lat="43.2896767" lon="12.0247933"><ele>792.25</ele><time>2026-04-03T06:47:34.128Z</time></trkpt><trkpt lat="43.2895883" lon="12.0249333"><ele>790.5</ele><time>2026-04-03T06:47:35.128Z</time></trkpt><trkpt lat="43.2894917" lon="12.0250617"><ele>788.75</ele><time>2026-04-03T06:47:36.129Z</time></trkpt><trkpt lat="43.28939" lon="12.0251817"><ele>787.0</ele><time>2026-04-03T06:47:37.128Z</time></trkpt><trkpt lat="43.2892867" lon="12.025315"><ele>787.0</ele><time>2026-04-03T06:47:38.128Z</time></trkpt><trkpt lat="43.2892183" lon="12.0254483"><ele>787.0</ele><time>2026-04-03T06:47:39.128Z</time></trkpt><trkpt lat="43.2891667" lon="12.025565"><ele>787.0</ele><time>2026-04-03T06:47:40.128Z</time></trkpt><trkpt lat="43.2891283" lon="12.0256883"><ele>787.0</ele><time>2026-04-03T06:47:41.129Z</time></trkpt><trkpt lat="43.2891117" lon="12.0258417"><ele>787.0</ele><time>2026-04-03T06:47:42.129Z</time></trkpt><trkpt lat="43.2890983" lon="12.02598"><ele>789.2</ele><time>2026-04-03T06:47:43.128Z</time></trkpt><trkpt lat="43.2890617" lon="12.0261033"><ele>791.4000000000001</ele><time>2026-04-03T06:47:44.128Z</time></trkpt><trkpt lat="43.2890033" lon="12.0261967"><ele>793.5999999999999</ele><time>2026-04-03T06:47:45.128Z</time></trkpt><trkpt lat="43.2889183" lon="12.026255"><ele>795.8</ele><time>2026-04-03T06:47:46.128Z</time></trkpt><trkpt lat="43.28882" lon="12.02632"><ele>798.0</ele><time>2026-04-03T06:47:47.128Z</time></trkpt><trkpt lat="43.28874" lon="12.026405"><ele>793.8</ele><time>2026-04-03T06:47:48.128Z</time></trkpt><trkpt lat="43.28867" lon="12.0265067"><ele>789.5999999999999</ele><time>2026-04-03T06:47:49.128Z</time></trkpt><trkpt lat="43.2886017" lon="12.0266233"><ele>785.4000000000001</ele><time>2026-04-03T06:47:50.128Z</time></trkpt><trkpt lat="43.288545" lon="12.0267417"><ele>781.2</ele><time>2026-04-03T06:47:51.128Z</time></trkpt><trkpt lat="43.2885167" lon="12.0268767"><ele>777.0</ele><time>2026-04-03T06:47:52.128Z</time></trkpt><trkpt lat="43.2885167" lon="12.027"><ele>777.0</ele><time>2026-04-03T06:47:53.129Z</time></trkpt><trkpt lat="43.2885633" lon="12.02713"><ele>777.0</ele><time>2026-04-03T06:47:54.129Z</time></trkpt><trkpt lat="43.288635" lon="12.0272683"><ele>777.0</ele><time>2026-04-03T06:47:55.129Z</time></trkpt><trkpt lat="43.288715" lon="12.027415"><ele>777.0</ele><time>2026-04-03T06:47:56.128Z</time></trkpt><trkpt lat="43.2887983" lon="12.0275833"><ele>775.25</ele><time>2026-04-03T06:47:57.129Z</time></trkpt><trkpt lat="43.2888833" lon="12.0277567"><ele>773.5</ele><time>2026-04-03T06:47:58.128Z</time></trkpt><trkpt lat="43.28896" lon="12.0279283"><ele>771.75</ele><time>2026-04-03T06:47:59.129Z</time></trkpt><trkpt lat="43.2890517" lon="12.0280583"><ele>770.0</ele><time>2026-04-03T06:48:00.128Z</time></trkpt><trkpt lat="43.2891517" lon="12.0281483"><ele>772.5000000000001</ele><time>2026-04-03T06:48:01.128Z</time></trkpt><trkpt lat="43.2892483" lon="12.02822"><ele>775.0</ele><time>2026-04-03T06:48:02.128Z</time></trkpt><trkpt lat="43.289335" lon="12.0282833"><ele>777.5</ele><time>2026-04-03T06:48:03.128Z</time></trkpt><trkpt lat="43.2894" lon="12.0283417"><ele>780.0</ele><time>2026-04-03T06:48:04.128Z</time></trkpt><trkpt lat="43.2894417" lon="12.028415"><ele>782.5000000000001</ele><time>2026-04-03T06:48:05.129Z</time></trkpt><trkpt lat="43.2893967" lon="12.028505"><ele>785.0</ele><time>2026-04-03T06:48:06.128Z</time></trkpt><trkpt lat="43.28934" lon="12.02858"><ele>785.0</ele><time>2026-04-03T06:48:07.129Z</time></trkpt><trkpt lat="43.2892633" lon="12.028645"><ele>785.0</ele><time>2026-04-03T06:48:08.128Z</time></trkpt><trkpt lat="43.2891533" lon="12.0287033"><ele>785.0</ele><time>2026-04-03T06:48:09.128Z</time></trkpt><trkpt lat="43.2890417" lon="12.0287833"><ele>785.0</ele><time>2026-04-03T06:48:10.128Z</time></trkpt><trkpt lat="43.2889417" lon="12.028885"><ele>782.0</ele><time>2026-04-03T06:48:11.128Z</time></trkpt><trkpt lat="43.288835" lon="12.0290033"><ele>779.0</ele><time>2026-04-03T06:48:12.128Z</time></trkpt><trkpt lat="43.2887267" lon="12.029115"><ele>776.0</ele><time>2026-04-03T06:48:13.128Z</time></trkpt><trkpt lat="43.2885933" lon="12.02919"><ele>773.0</ele><time>2026-04-03T06:48:14.128Z</time></trkpt><trkpt lat="43.2884767" lon="12.02926"><ele>773.0</ele><time>2026-04-03T06:48:15.128Z</time></trkpt><trkpt lat="43.2883717" lon="12.0292967"><ele>773.0</ele><time>2026-04-03T06:48:16.128Z</time></trkpt><trkpt lat="43.2882683" lon="12.02928"><ele>773.0</ele><time>2026-04-03T06:48:17.128Z</time></trkpt><trkpt lat="43.28817" lon="12.0292633"><ele>773.0</ele><time>2026-04-03T06:48:18.128Z</time></trkpt><trkpt lat="43.2880717" lon="12.0292783"><ele>773.0</ele><time>2026-04-03T06:48:19.129Z</time></trkpt><trkpt lat="43.2879983" lon="12.0293167"><ele>769.5999999999999</ele><time>2026-04-03T06:48:20.129Z</time></trkpt><trkpt lat="43.287945" lon="12.0293967"><ele>766.1999999999999</ele><time>2026-04-03T06:48:21.128Z</time></trkpt><trkpt lat="43.2879183" lon="12.0294883"><ele>762.8</ele><time>2026-04-03T06:48:22.129Z</time></trkpt><trkpt lat="43.2879167" lon="12.029615"><ele>759.4</ele><time>2026-04-03T06:48:23.128Z</time></trkpt><trkpt lat="43.2879467" lon="12.0297417"><ele>756.0</ele><time>2026-04-03T06:48:24.128Z</time></trkpt><trkpt lat="43.2880017" lon="12.0298883"><ele>756.5999999999999</ele><time>2026-04-03T06:48:25.128Z</time></trkpt><trkpt lat="43.28804" lon="12.030045"><ele>757.2</ele><time>2026-04-03T06:48:26.128Z</time></trkpt><trkpt lat="43.2880583" lon="12.0301717"><ele>757.8</ele><time>2026-04-03T06:48:27.128Z</time></trkpt><trkpt lat="43.2880667" lon="12.0302767"><ele>758.4000000000001</ele><time>2026-04-03T06:48:28.129Z</time></trkpt><trkpt lat="43.287955" lon="12.0303367"><ele>759.0</ele><time>2026-04-03T06:48:30.128Z</time></trkpt><trkpt lat="43.28786" lon="12.030345"><ele>759.0</ele><time>2026-04-03T06:48:31.129Z</time></trkpt><trkpt lat="43.28774" lon="12.030345"><ele>759.0</ele><time>2026-04-03T06:48:32.128Z</time></trkpt><trkpt lat="43.2876183" lon="12.0303717"><ele>759.0</ele><time>2026-04-03T06:48:33.129Z</time></trkpt><trkpt lat="43.2875067" lon="12.0304167"><ele>759.0</ele><time>2026-04-03T06:48:34.128Z</time></trkpt><trkpt lat="43.287395" lon="12.0305033"><ele>759.0</ele><time>2026-04-03T06:48:35.128Z</time></trkpt><trkpt lat="43.28728" lon="12.0306133"><ele>759.0</ele><time>2026-04-03T06:48:36.128Z</time></trkpt><trkpt lat="43.287165" lon="12.0307433"><ele>759.0</ele><time>2026-04-03T06:48:37.128Z</time></trkpt><trkpt lat="43.28705" lon="12.0308867"><ele>759.0</ele><time>2026-04-03T06:48:38.128Z</time></trkpt><trkpt lat="43.28695" lon="12.0310233"><ele>759.5</ele><time>2026-04-03T06:48:39.128Z</time></trkpt><trkpt lat="43.2868617" lon="12.031185"><ele>760.0</ele><time>2026-04-03T06:48:40.128Z</time></trkpt><trkpt lat="43.28679" lon="12.03136"><ele>760.5</ele><time>2026-04-03T06:48:41.128Z</time></trkpt><trkpt lat="43.2867183" lon="12.0315383"><ele>761.0</ele><time>2026-04-03T06:48:42.129Z</time></trkpt><trkpt lat="43.2866617" lon="12.0316933"><ele>761.0</ele><time>2026-04-03T06:48:43.128Z</time></trkpt><trkpt lat="43.2866233" lon="12.0318"><ele>761.0</ele><time>2026-04-03T06:48:44.128Z</time></trkpt><trkpt lat="43.28659" lon="12.031885"><ele>761.0</ele><time>2026-04-03T06:48:45.128Z</time></trkpt><trkpt lat="43.28653" lon="12.0319933"><ele>761.0</ele><time>2026-04-03T06:48:47.128Z</time></trkpt><trkpt lat="43.28645" lon="12.03214"><ele>761.0</ele><time>2026-04-03T06:48:49.128Z</time></trkpt><trkpt lat="43.2863983" lon="12.032245"><ele>756.75</ele><time>2026-04-03T06:48:50.128Z</time></trkpt><trkpt lat="43.2863417" lon="12.0323733"><ele>752.5</ele><time>2026-04-03T06:48:51.129Z</time></trkpt><trkpt lat="43.2862667" lon="12.0325"><ele>748.25</ele><time>2026-04-03T06:48:52.128Z</time></trkpt><trkpt lat="43.2861783" lon="12.0326317"><ele>744.0</ele><time>2026-04-03T06:48:53.128Z</time></trkpt><trkpt lat="43.2860783" lon="12.0327633"><ele>744.0</ele><time>2026-04-03T06:48:54.128Z</time></trkpt><trkpt lat="43.2859617" lon="12.032895"><ele>744.0</ele><time>2026-04-03T06:48:55.128Z</time></trkpt><trkpt lat="43.2858383" lon="12.0330217"><ele>744.0</ele><time>2026-04-03T06:48:56.128Z</time></trkpt><trkpt lat="43.2857133" lon="12.0331533"><ele>742.0</ele><time>2026-04-03T06:48:57.129Z</time></trkpt><trkpt lat="43.2855883" lon="12.0332867"><ele>740.0</ele><time>2026-04-03T06:48:58.128Z</time></trkpt><trkpt lat="43.2854967" lon="12.033425"><ele>738.0</ele><time>2026-04-03T06:48:59.128Z</time></trkpt><trkpt lat="43.2854317" lon="12.0335817"><ele>736.0</ele><time>2026-04-03T06:49:00.128Z</time></trkpt><trkpt lat="43.285385" lon="12.033745"><ele>736.0</ele><time>2026-04-03T06:49:01.128Z</time></trkpt><trkpt lat="43.2853583" lon="12.0339217"><ele>736.0</ele><time>2026-04-03T06:49:02.128Z</time></trkpt><trkpt lat="43.2853333" lon="12.03411"><ele>736.0</ele><time>2026-04-03T06:49:03.129Z</time></trkpt><trkpt lat="43.2852967" lon="12.0342883"><ele>736.0</ele><time>2026-04-03T06:49:04.128Z</time></trkpt><trkpt lat="43.2852467" lon="12.0344533"><ele>738.8</ele><time>2026-04-03T06:49:05.128Z</time></trkpt><trkpt lat="43.2852" lon="12.0346167"><ele>741.5999999999999</ele><time>2026-04-03T06:49:06.129Z</time></trkpt><trkpt lat="43.285175" lon="12.0347567"><ele>744.4</ele><time>2026-04-03T06:49:07.128Z</time></trkpt><trkpt lat="43.285185" lon="12.0348917"><ele>747.2</ele><time>2026-04-03T06:49:08.129Z</time></trkpt><trkpt lat="43.2852333" lon="12.0349933"><ele>750.0</ele><time>2026-04-03T06:49:09.129Z</time></trkpt><trkpt lat="43.2853267" lon="12.0350683"><ele>750.75</ele><time>2026-04-03T06:49:10.128Z</time></trkpt><trkpt lat="43.2854367" lon="12.0351133"><ele>751.5</ele><time>2026-04-03T06:49:11.128Z</time></trkpt><trkpt lat="43.2855617" lon="12.0351333"><ele>752.25</ele><time>2026-04-03T06:49:12.128Z</time></trkpt><trkpt lat="43.2856983" lon="12.0351483"><ele>753.0</ele><time>2026-04-03T06:49:13.128Z</time></trkpt><trkpt lat="43.2858417" lon="12.0351417"><ele>758.0</ele><time>2026-04-03T06:49:14.128Z</time></trkpt><trkpt lat="43.286" lon="12.0351033"><ele>763.0</ele><time>2026-04-03T06:49:15.128Z</time></trkpt><trkpt lat="43.2861617" lon="12.0350417"><ele>768.0</ele><time>2026-04-03T06:49:16.128Z</time></trkpt><trkpt lat="43.2863283" lon="12.0349467"><ele>777.3333333333333</ele><time>2026-04-03T06:49:17.128Z</time></trkpt><trkpt lat="43.2864933" lon="12.03485"><ele>786.6666666666666</ele><time>2026-04-03T06:49:18.128Z</time></trkpt><trkpt lat="43.2866483" lon="12.0347633"><ele>796.0</ele><time>2026-04-03T06:49:19.128Z</time></trkpt><trkpt lat="43.28682" lon="12.034665"><ele>796.0</ele><time>2026-04-03T06:49:20.128Z</time></trkpt><trkpt lat="43.2869883" lon="12.034615"><ele>796.0</ele><time>2026-04-03T06:49:21.128Z</time></trkpt><trkpt lat="43.2871583" lon="12.034605"><ele>796.0</ele><time>2026-04-03T06:49:22.128Z</time></trkpt><trkpt lat="43.2873283" lon="12.03465"><ele>800.6666666666666</ele><time>2026-04-03T06:49:23.128Z</time></trkpt><trkpt lat="43.2874867" lon="12.034735"><ele>805.3333333333333</ele><time>2026-04-03T06:49:24.128Z</time></trkpt><trkpt lat="43.287635" lon="12.0348417"><ele>810.0</ele><time>2026-04-03T06:49:25.129Z</time></trkpt><trkpt lat="43.2877783" lon="12.0349267"><ele>810.0</ele><time>2026-04-03T06:49:26.129Z</time></trkpt><trkpt lat="43.2879233" lon="12.0349233"><ele>810.0</ele><time>2026-04-03T06:49:27.128Z</time></trkpt><trkpt lat="43.2880617" lon="12.0348783"><ele>810.0</ele><time>2026-04-03T06:49:28.128Z</time></trkpt><trkpt lat="43.288195" lon="12.0348083"><ele>810.0</ele><time>2026-04-03T06:49:29.128Z</time></trkpt><trkpt lat="43.28833" lon="12.03473"><ele>811.0</ele><time>2026-04-03T06:49:30.128Z</time></trkpt><trkpt lat="43.2884567" lon="12.0347017"><ele>812.0</ele><time>2026-04-03T06:49:31.129Z</time></trkpt><trkpt lat="43.28857" lon="12.0347117"><ele>813.0</ele><time>2026-04-03T06:49:32.129Z</time></trkpt><trkpt lat="43.2886617" lon="12.034765"><ele>814.0</ele><time>2026-04-03T06:49:33.128Z</time></trkpt><trkpt lat="43.2887433" lon="12.0348533"><ele>815.0</ele><time>2026-04-03T06:49:34.128Z</time></trkpt><trkpt lat="43.2888117" lon="12.03499"><ele>810.5</ele><time>2026-04-03T06:49:35.128Z</time></trkpt><trkpt lat="43.2889017" lon="12.0351"><ele>806.0</ele><time>2026-04-03T06:49:36.129Z</time></trkpt><trkpt lat="43.2890233" lon="12.0351783"><ele>801.5</ele><time>2026-04-03T06:49:37.128Z</time></trkpt><trkpt lat="43.2891417" lon="12.03524"><ele>797.0</ele><time>2026-04-03T06:49:38.128Z</time></trkpt><trkpt lat="43.2892617" lon="12.0353233"><ele>797.0</ele><time>2026-04-03T06:49:39.128Z</time></trkpt><trkpt lat="43.2893467" lon="12.0354367"><ele>797.0</ele><time>2026-04-03T06:49:40.128Z</time></trkpt><trkpt lat="43.2894417" lon="12.0355683"><ele>797.0</ele><time>2026-04-03T06:49:41.129Z</time></trkpt><trkpt lat="43.2895417" lon="12.035675"><ele>797.0</ele><time>2026-04-03T06:49:42.128Z</time></trkpt><trkpt lat="43.28966" lon="12.0357667"><ele>796.25</ele><time>2026-04-03T06:49:43.128Z</time></trkpt><trkpt lat="43.2897917" lon="12.0358433"><ele>795.5</ele><time>2026-04-03T06:49:44.128Z</time></trkpt><trkpt lat="43.2899233" lon="12.03591"><ele>794.75</ele><time>2026-04-03T06:49:45.128Z</time></trkpt><trkpt lat="43.290075" lon="12.0359517"><ele>794.0</ele><time>2026-04-03T06:49:46.128Z</time></trkpt><trkpt lat="43.2902383" lon="12.0359867"><ele>794.0</ele><time>2026-04-03T06:49:47.128Z</time></trkpt><trkpt lat="43.2904033" lon="12.0360083"><ele>794.0</ele><time>2026-04-03T06:49:48.128Z</time></trkpt><trkpt lat="43.290575" lon="12.03602"><ele>794.0</ele><time>2026-04-03T06:49:49.129Z</time></trkpt><trkpt lat="43.2907467" lon="12.0360333"><ele>799.0</ele><time>2026-04-03T06:49:50.128Z</time></trkpt><trkpt lat="43.2909183" lon="12.03605"><ele>804.0</ele><time>2026-04-03T06:49:51.129Z</time></trkpt><trkpt lat="43.2910817" lon="12.036085"><ele>809.0</ele><time>2026-04-03T06:49:52.129Z</time></trkpt><trkpt lat="43.291225" lon="12.0361483"><ele>809.0</ele><time>2026-04-03T06:49:53.129Z</time></trkpt><trkpt lat="43.2913517" lon="12.0362533"><ele>809.0</ele><time>2026-04-03T06:49:54.129Z</time></trkpt><trkpt lat="43.2914717" lon="12.03637"><ele>809.0</ele><time>2026-04-03T06:49:55.129Z</time></trkpt><trkpt lat="43.2915967" lon="12.03646"><ele>809.0</ele><time>2026-04-03T06:49:56.128Z</time></trkpt><trkpt lat="43.2917433" lon="12.0365167"><ele>813.0</ele><time>2026-04-03T06:49:57.128Z</time></trkpt><trkpt lat="43.2919117" lon="12.03652"><ele>817.0</ele><time>2026-04-03T06:49:58.128Z</time></trkpt><trkpt lat="43.2920733" lon="12.0365133"><ele>821.0</ele><time>2026-04-03T06:49:59.129Z</time></trkpt><trkpt lat="43.2922267" lon="12.0365217"><ele>817.6666666666667</ele><time>2026-04-03T06:50:00.128Z</time></trkpt><trkpt lat="43.29239" lon="12.0365633"><ele>814.3333333333333</ele><time>2026-04-03T06:50:01.128Z</time></trkpt><trkpt lat="43.2925583" lon="12.0366283"><ele>811.0</ele><time>2026-04-03T06:50:02.128Z</time></trkpt><trkpt lat="43.2927217" lon="12.0367067"><ele>811.0</ele><time>2026-04-03T06:50:03.128Z</time></trkpt><trkpt lat="43.2928617" lon="12.036815"><ele>811.0</ele><time>2026-04-03T06:50:04.128Z</time></trkpt><trkpt lat="43.29298" lon="12.0369567"><ele>811.0</ele><time>2026-04-03T06:50:05.128Z</time></trkpt><trkpt lat="43.293075" lon="12.0371267"><ele>813.0</ele><time>2026-04-03T06:50:06.128Z</time></trkpt><trkpt lat="43.2931533" lon="12.037315"><ele>815.0</ele><time>2026-04-03T06:50:07.129Z</time></trkpt><trkpt lat="43.2932167" lon="12.0375217"><ele>817.0</ele><time>2026-04-03T06:50:08.129Z</time></trkpt><trkpt lat="43.2932667" lon="12.0377433"><ele>817.0</ele><time>2026-04-03T06:50:09.128Z</time></trkpt><trkpt lat="43.2932817" lon="12.0379783"><ele>817.0</ele><time>2026-04-03T06:50:10.128Z</time></trkpt><trkpt lat="43.2932833" lon="12.0382167"><ele>817.0</ele><time>2026-04-03T06:50:11.128Z</time></trkpt><trkpt lat="43.2932817" lon="12.03846"><ele>816.3333333333333</ele><time>2026-04-03T06:50:12.129Z</time></trkpt><trkpt lat="43.293295" lon="12.0386967"><ele>815.6666666666667</ele><time>2026-04-03T06:50:13.129Z</time></trkpt><trkpt lat="43.2933283" lon="12.038925"><ele>815.0</ele><time>2026-04-03T06:50:14.129Z</time></trkpt><trkpt lat="43.2933933" lon="12.0391333"><ele>813.5</ele><time>2026-04-03T06:50:15.128Z</time></trkpt><trkpt lat="43.2934583" lon="12.0393167"><ele>812.0</ele><time>2026-04-03T06:50:16.128Z</time></trkpt><trkpt lat="43.2935233" lon="12.039465"><ele>810.5</ele><time>2026-04-03T06:50:17.129Z</time></trkpt><trkpt lat="43.2935967" lon="12.0395717"><ele>809.0</ele><time>2026-04-03T06:50:18.128Z</time></trkpt><trkpt lat="43.2936767" lon="12.0396333"><ele>809.0</ele><time>2026-04-03T06:50:19.128Z</time></trkpt><trkpt lat="43.29378" lon="12.0396533"><ele>809.0</ele><time>2026-04-03T06:50:20.128Z</time></trkpt><trkpt lat="43.29391" lon="12.0396567"><ele>809.0</ele><time>2026-04-03T06:50:21.128Z</time></trkpt><trkpt lat="43.2940333" lon="12.039635"><ele>809.0</ele><time>2026-04-03T06:50:22.128Z</time></trkpt><trkpt lat="43.29414" lon="12.0395683"><ele>812.75</ele><time>2026-04-03T06:50:23.128Z</time></trkpt><trkpt lat="43.2942283" lon="12.0394533"><ele>816.5</ele><time>2026-04-03T06:50:24.129Z</time></trkpt><trkpt lat="43.294325" lon="12.0393317"><ele>820.25</ele><time>2026-04-03T06:50:25.128Z</time></trkpt><trkpt lat="43.2944417" lon="12.039215"><ele>824.0</ele><time>2026-04-03T06:50:26.129Z</time></trkpt><trkpt lat="43.2945717" lon="12.03914"><ele>831.0</ele><time>2026-04-03T06:50:27.128Z</time></trkpt><trkpt lat="43.2947267" lon="12.0390533"><ele>838.0</ele><time>2026-04-03T06:50:28.128Z</time></trkpt><trkpt lat="43.2948833" lon="12.0389567"><ele>845.0</ele><time>2026-04-03T06:50:29.128Z</time></trkpt><trkpt lat="43.2950267" lon="12.0388783"><ele>847.5</ele><time>2026-04-03T06:50:30.128Z</time></trkpt><trkpt lat="43.2951733" lon="12.0388217"><ele>850.0</ele><time>2026-04-03T06:50:31.128Z</time></trkpt><trkpt lat="43.2953033" lon="12.03883"><ele>852.5</ele><time>2026-04-03T06:50:32.129Z</time></trkpt><trkpt lat="43.2954467" lon="12.0388533"><ele>855.0</ele><time>2026-04-03T06:50:33.128Z</time></trkpt><trkpt lat="43.2955967" lon="12.0389033"><ele>857.6666666666667</ele><time>2026-04-03T06:50:34.129Z</time></trkpt><trkpt lat="43.295745" lon="12.0389817"><ele>860.3333333333334</ele><time>2026-04-03T06:50:35.128Z</time></trkpt><trkpt lat="43.2958917" lon="12.0391"><ele>863.0</ele><time>2026-04-03T06:50:36.128Z</time></trkpt><trkpt lat="43.2960467" lon="12.03922"><ele>855.6666666666667</ele><time>2026-04-03T06:50:37.128Z</time></trkpt><trkpt lat="43.2962033" lon="12.0393183"><ele>848.3333333333333</ele><time>2026-04-03T06:50:38.128Z</time></trkpt><trkpt lat="43.2963767" lon="12.0393883"><ele>841.0</ele><time>2026-04-03T06:50:39.128Z</time></trkpt><trkpt lat="43.296545" lon="12.03947"><ele>841.0</ele><time>2026-04-03T06:50:40.128Z</time></trkpt><trkpt lat="43.296705" lon="12.039535"><ele>841.0</ele><time>2026-04-03T06:50:41.128Z</time></trkpt><trkpt lat="43.296835" lon="12.0396333"><ele>841.0</ele><time>2026-04-03T06:50:42.128Z</time></trkpt><trkpt lat="43.296945" lon="12.039735"><ele>841.0</ele><time>2026-04-03T06:50:43.128Z</time></trkpt><trkpt lat="43.2970317" lon="12.0397883"><ele>841.0</ele><time>2026-04-03T06:50:44.128Z</time></trkpt><trkpt lat="43.2971117" lon="12.039755"><ele>841.0</ele><time>2026-04-03T06:50:45.128Z</time></trkpt><trkpt lat="43.2971933" lon="12.03968"><ele>841.0</ele><time>2026-04-03T06:50:46.129Z</time></trkpt><trkpt lat="43.2972633" lon="12.0396067"><ele>841.0</ele><time>2026-04-03T06:50:47.128Z</time></trkpt><trkpt lat="43.29732" lon="12.0394733"><ele>841.0</ele><time>2026-04-03T06:50:48.128Z</time></trkpt><trkpt lat="43.297355" lon="12.0392833"><ele>839.8</ele><time>2026-04-03T06:50:49.128Z</time></trkpt><trkpt lat="43.297405" lon="12.0391367"><ele>838.5999999999999</ele><time>2026-04-03T06:50:50.128Z</time></trkpt><trkpt lat="43.297475" lon="12.0390333"><ele>837.4</ele><time>2026-04-03T06:50:51.128Z</time></trkpt><trkpt lat="43.29756" lon="12.03898"><ele>836.2</ele><time>2026-04-03T06:50:52.129Z</time></trkpt><trkpt lat="43.2976567" lon="12.0389583"><ele>835.0</ele><time>2026-04-03T06:50:53.128Z</time></trkpt><trkpt lat="43.2977467" lon="12.0390583"><ele>835.0</ele><time>2026-04-03T06:50:54.128Z</time></trkpt><trkpt lat="43.2978483" lon="12.0391467"><ele>835.0</ele><time>2026-04-03T06:50:55.128Z</time></trkpt><trkpt lat="43.2979467" lon="12.0392433"><ele>835.0</ele><time>2026-04-03T06:50:56.128Z</time></trkpt><trkpt lat="43.2980583" lon="12.03935"><ele>835.0</ele><time>2026-04-03T06:50:57.129Z</time></trkpt><trkpt lat="43.298165" lon="12.0394867"><ele>837.0</ele><time>2026-04-03T06:50:58.128Z</time></trkpt><trkpt lat="43.2982783" lon="12.03963"><ele>839.0</ele><time>2026-04-03T06:50:59.128Z</time></trkpt><trkpt lat="43.2983917" lon="12.039765"><ele>841.0</ele><time>2026-04-03T06:51:00.128Z</time></trkpt><trkpt lat="43.2984933" lon="12.0399017"><ele>843.0</ele><time>2026-04-03T06:51:01.129Z</time></trkpt><trkpt lat="43.298575" lon="12.040035"><ele>838.8</ele><time>2026-04-03T06:51:02.129Z</time></trkpt><trkpt lat="43.2986533" lon="12.0401683"><ele>834.5999999999999</ele><time>2026-04-03T06:51:03.129Z</time></trkpt><trkpt lat="43.2987233" lon="12.0403217"><ele>830.4000000000001</ele><time>2026-04-03T06:51:04.129Z</time></trkpt><trkpt lat="43.29878" lon="12.0404367"><ele>826.2</ele><time>2026-04-03T06:51:05.128Z</time></trkpt><trkpt lat="43.2988267" lon="12.0405383"><ele>822.0</ele><time>2026-04-03T06:51:06.128Z</time></trkpt><trkpt lat="43.2988667" lon="12.0406283"><ele>822.0</ele><time>2026-04-03T06:51:07.128Z</time></trkpt><trkpt lat="43.2989033" lon="12.0407133"><ele>822.0</ele><time>2026-04-03T06:51:09.129Z</time></trkpt><trkpt lat="43.2989483" lon="12.0407917"><ele>822.0</ele><time>2026-04-03T06:51:13.129Z</time></trkpt><trkpt lat="43.2990333" lon="12.0408317"><ele>822.0</ele><time>2026-04-03T06:51:16.129Z</time></trkpt><trkpt lat="43.2991017" lon="12.040905"><ele>822.0</ele><time>2026-04-03T06:51:18.129Z</time></trkpt><trkpt lat="43.2991917" lon="12.04099"><ele>822.0</ele><time>2026-04-03T06:51:20.128Z</time></trkpt><trkpt lat="43.2992417" lon="12.0410433"><ele>823.4285714285714</ele><time>2026-04-03T06:51:21.129Z</time></trkpt><trkpt lat="43.2992967" lon="12.0411"><ele>824.8571428571429</ele><time>2026-04-03T06:51:22.128Z</time></trkpt><trkpt lat="43.29935" lon="12.0411467"><ele>826.2857142857142</ele><time>2026-04-03T06:51:23.128Z</time></trkpt><trkpt lat="43.2994083" lon="12.04119"><ele>827.7142857142858</ele><time>2026-04-03T06:51:24.129Z</time></trkpt><trkpt lat="43.2994667" lon="12.0412267"><ele>829.1428571428572</ele><time>2026-04-03T06:51:25.128Z</time></trkpt><trkpt lat="43.299525" lon="12.041285"><ele>830.5714285714286</ele><time>2026-04-03T06:51:26.128Z</time></trkpt><trkpt lat="43.2995783" lon="12.0413483"><ele>832.0</ele><time>2026-04-03T06:51:27.128Z</time></trkpt><trkpt lat="43.2996367" lon="12.041495"><ele>831.9999999999999</ele><time>2026-04-03T06:51:29.129Z</time></trkpt><trkpt lat="43.2996567" lon="12.0415883"><ele>832.0</ele><time>2026-04-03T06:51:30.128Z</time></trkpt><trkpt lat="43.2996833" lon="12.041695"><ele>832.0</ele><time>2026-04-03T06:51:31.128Z</time></trkpt><trkpt lat="43.29971" lon="12.0418117"><ele>832.0</ele><time>2026-04-03T06:51:32.128Z</time></trkpt><trkpt lat="43.2997433" lon="12.041935"><ele>831.9999999999999</ele><time>2026-04-03T06:51:33.128Z</time></trkpt><trkpt lat="43.2997767" lon="12.042055"><ele>832.0</ele><time>2026-04-03T06:51:34.129Z</time></trkpt><trkpt lat="43.299815" lon="12.0421567"><ele>832.8571428571428</ele><time>2026-04-03T06:51:35.128Z</time></trkpt><trkpt lat="43.2998567" lon="12.0422517"><ele>833.7142857142858</ele><time>2026-04-03T06:51:36.128Z</time></trkpt><trkpt lat="43.2998933" lon="12.0423483"><ele>834.5714285714286</ele><time>2026-04-03T06:51:37.128Z</time></trkpt><trkpt lat="43.2999317" lon="12.042435"><ele>835.4285714285713</ele><time>2026-04-03T06:51:38.128Z</time></trkpt><trkpt lat="43.2999567" lon="12.04252"><ele>836.2857142857142</ele><time>2026-04-03T06:51:39.129Z</time></trkpt><trkpt lat="43.29998" lon="12.042605"><ele>837.1428571428571</ele><time>2026-04-03T06:51:40.128Z</time></trkpt><trkpt lat="43.2999933" lon="12.0426983"><ele>838.0</ele><time>2026-04-03T06:51:41.128Z</time></trkpt><trkpt lat="43.3000017" lon="12.0428017"><ele>840.2</ele><time>2026-04-03T06:51:42.129Z</time></trkpt><trkpt lat="43.30001" lon="12.042915"><ele>842.4</ele><time>2026-04-03T06:51:43.129Z</time></trkpt><trkpt lat="43.30002" lon="12.0430583"><ele>844.6</ele><time>2026-04-03T06:51:44.128Z</time></trkpt><trkpt lat="43.3000333" lon="12.043195"><ele>846.8000000000001</ele><time>2026-04-03T06:51:45.129Z</time></trkpt><trkpt lat="43.3000617" lon="12.0433333"><ele>849.0</ele><time>2026-04-03T06:51:46.128Z</time></trkpt><trkpt lat="43.3000917" lon="12.04348"><ele>849.3333333333334</ele><time>2026-04-03T06:51:47.128Z</time></trkpt><trkpt lat="43.300105" lon="12.043615"><ele>849.6666666666667</ele><time>2026-04-03T06:51:48.128Z</time></trkpt><trkpt lat="43.3001133" lon="12.043735"><ele>850.0</ele><time>2026-04-03T06:51:49.128Z</time></trkpt><trkpt lat="43.30011" lon="12.0438383"><ele>850.3333333333334</ele><time>2026-04-03T06:51:50.128Z</time></trkpt><trkpt lat="43.3000967" lon="12.043945"><ele>850.6666666666667</ele><time>2026-04-03T06:51:51.129Z</time></trkpt><trkpt lat="43.300085" lon="12.0440483"><ele>851.0</ele><time>2026-04-03T06:51:52.129Z</time></trkpt><trkpt lat="43.30006" lon="12.044145"><ele>852.0000000000001</ele><time>2026-04-03T06:51:53.128Z</time></trkpt><trkpt lat="43.30004" lon="12.0442567"><ele>853.0</ele><time>2026-04-03T06:51:54.128Z</time></trkpt><trkpt lat="43.300025" lon="12.04437"><ele>854.0</ele><time>2026-04-03T06:51:55.129Z</time></trkpt><trkpt lat="43.3000217" lon="12.0444833"><ele>855.0</ele><time>2026-04-03T06:51:56.129Z</time></trkpt><trkpt lat="43.3000183" lon="12.0446133"><ele>856.0000000000001</ele><time>2026-04-03T06:51:57.129Z</time></trkpt><trkpt lat="43.3000333" lon="12.0447267"><ele>857.0</ele><time>2026-04-03T06:51:58.128Z</time></trkpt><trkpt lat="43.30007" lon="12.04485"><ele>857.4000000000001</ele><time>2026-04-03T06:51:59.128Z</time></trkpt><trkpt lat="43.3001083" lon="12.044975"><ele>857.8000000000001</ele><time>2026-04-03T06:52:00.129Z</time></trkpt><trkpt lat="43.3001667" lon="12.0450967"><ele>858.2</ele><time>2026-04-03T06:52:01.128Z</time></trkpt><trkpt lat="43.3002283" lon="12.04521"><ele>858.6</ele><time>2026-04-03T06:52:02.128Z</time></trkpt><trkpt lat="43.3002883" lon="12.0453217"><ele>859.0</ele><time>2026-04-03T06:52:03.129Z</time></trkpt><trkpt lat="43.3003467" lon="12.0454367"><ele>858.9999999999999</ele><time>2026-04-03T06:52:04.128Z</time></trkpt><trkpt lat="43.3004017" lon="12.0455383"><ele>859.0</ele><time>2026-04-03T06:52:05.128Z</time></trkpt><trkpt lat="43.30045" lon="12.04563"><ele>859.0</ele><time>2026-04-03T06:52:06.129Z</time></trkpt><trkpt lat="43.30049" lon="12.0457183"><ele>859.0</ele><time>2026-04-03T06:52:07.128Z</time></trkpt><trkpt lat="43.30051" lon="12.0458017"><ele>858.9999999999999</ele><time>2026-04-03T06:52:08.129Z</time></trkpt><trkpt lat="43.3004983" lon="12.0459533"><ele>859.0</ele><time>2026-04-03T06:52:10.128Z</time></trkpt><trkpt lat="43.300455" lon="12.046055"><ele>858.6666666666666</ele><time>2026-04-03T06:52:11.128Z</time></trkpt><trkpt lat="43.3004183" lon="12.0461467"><ele>858.3333333333333</ele><time>2026-04-03T06:52:12.128Z</time></trkpt><trkpt lat="43.3003917" lon="12.04626"><ele>858.0</ele><time>2026-04-03T06:52:13.128Z</time></trkpt><trkpt lat="43.30038" lon="12.04638"><ele>857.6666666666667</ele><time>2026-04-03T06:52:14.128Z</time></trkpt><trkpt lat="43.30036" lon="12.0464983"><ele>857.3333333333334</ele><time>2026-04-03T06:52:15.128Z</time></trkpt><trkpt lat="43.3003717" lon="12.0466033"><ele>857.0</ele><time>2026-04-03T06:52:16.129Z</time></trkpt><trkpt lat="43.3003917" lon="12.0467183"><ele>858.8</ele><time>2026-04-03T06:52:17.128Z</time></trkpt><trkpt lat="43.3004133" lon="12.046845"><ele>860.6</ele><time>2026-04-03T06:52:18.128Z</time></trkpt><trkpt lat="43.3004083" lon="12.0469883"><ele>862.3999999999999</ele><time>2026-04-03T06:52:19.128Z</time></trkpt><trkpt lat="43.3003833" lon="12.04712"><ele>864.1999999999999</ele><time>2026-04-03T06:52:20.128Z</time></trkpt><trkpt lat="43.300355" lon="12.0472467"><ele>866.0</ele><time>2026-04-03T06:52:21.128Z</time></trkpt><trkpt lat="43.3003167" lon="12.0473833"><ele>867.8333333333334</ele><time>2026-04-03T06:52:22.128Z</time></trkpt><trkpt lat="43.3002833" lon="12.0475067"><ele>869.6666666666667</ele><time>2026-04-03T06:52:23.128Z</time></trkpt><trkpt lat="43.3002583" lon="12.0476267"><ele>871.5</ele><time>2026-04-03T06:52:24.128Z</time></trkpt><trkpt lat="43.3002483" lon="12.0477383"><ele>873.3333333333333</ele><time>2026-04-03T06:52:25.128Z</time></trkpt><trkpt lat="43.3002483" lon="12.0478483"><ele>875.1666666666666</ele><time>2026-04-03T06:52:26.128Z</time></trkpt><trkpt lat="43.3002583" lon="12.047975"><ele>877.0</ele><time>2026-04-03T06:52:27.128Z</time></trkpt><trkpt lat="43.3002633" lon="12.0480917"><ele>877.0000000000001</ele><time>2026-04-03T06:52:28.128Z</time></trkpt><trkpt lat="43.300275" lon="12.0482"><ele>877.0</ele><time>2026-04-03T06:52:29.128Z</time></trkpt><trkpt lat="43.3002867" lon="12.0483"><ele>877.0</ele><time>2026-04-03T06:52:30.128Z</time></trkpt><trkpt lat="43.300285" lon="12.0483933"><ele>877.0</ele><time>2026-04-03T06:52:31.128Z</time></trkpt><trkpt lat="43.3003033" lon="12.0484967"><ele>877.0</ele><time>2026-04-03T06:52:32.129Z</time></trkpt><trkpt lat="43.30033" lon="12.0485883"><ele>877.0000000000001</ele><time>2026-04-03T06:52:33.129Z</time></trkpt><trkpt lat="43.300375" lon="12.0486633"><ele>877.0</ele><time>2026-04-03T06:52:34.128Z</time></trkpt><trkpt lat="43.3004333" lon="12.0487417"><ele>878.4999999999999</ele><time>2026-04-03T06:52:35.128Z</time></trkpt><trkpt lat="43.3005017" lon="12.0488117"><ele>880.0</ele><time>2026-04-03T06:52:36.128Z</time></trkpt><trkpt lat="43.3005567" lon="12.0488767"><ele>881.5</ele><time>2026-04-03T06:52:37.128Z</time></trkpt><trkpt lat="43.300605" lon="12.048935"><ele>883.0</ele><time>2026-04-03T06:52:38.128Z</time></trkpt><trkpt lat="43.300665" lon="12.0490117"><ele>884.4999999999999</ele><time>2026-04-03T06:52:39.128Z</time></trkpt><trkpt lat="43.300715" lon="12.04908"><ele>886.0</ele><time>2026-04-03T06:52:40.128Z</time></trkpt><trkpt lat="43.30077" lon="12.04918"><ele>889.4999999999999</ele><time>2026-04-03T06:52:42.128Z</time></trkpt><trkpt lat="43.300805" lon="12.0492617"><ele>893.0</ele><time>2026-04-03T06:52:44.129Z</time></trkpt><trkpt lat="43.300845" lon="12.049375"><ele>896.5</ele><time>2026-04-03T06:52:46.128Z</time></trkpt><trkpt lat="43.300885" lon="12.0494917"><ele>900.0</ele><time>2026-04-03T06:52:48.128Z</time></trkpt><trkpt lat="43.300885" lon="12.0495967"><ele>903.4999999999999</ele><time>2026-04-03T06:53:14.128Z</time></trkpt><trkpt lat="43.30078" lon="12.0496633"><ele>907.0</ele><time>2026-04-03T06:53:16.128Z</time></trkpt><trkpt lat="43.3007033" lon="12.04969"><ele>906.9999999999999</ele><time>2026-04-03T06:53:17.128Z</time></trkpt><trkpt lat="43.300625" lon="12.0497233"><ele>907.0</ele><time>2026-04-03T06:53:18.128Z</time></trkpt><trkpt lat="43.300545" lon="12.04976"><ele>907.0</ele><time>2026-04-03T06:53:19.128Z</time></trkpt><trkpt lat="43.3004583" lon="12.04981"><ele>907.0</ele><time>2026-04-03T06:53:20.128Z</time></trkpt><trkpt lat="43.3003817" lon="12.04986"><ele>906.9999999999999</ele><time>2026-04-03T06:53:21.128Z</time></trkpt><trkpt lat="43.3003117" lon="12.0499117"><ele>907.0</ele><time>2026-04-03T06:53:22.129Z</time></trkpt><trkpt lat="43.3002467" lon="12.04996"><ele>901.0</ele><time>2026-04-03T06:53:23.128Z</time></trkpt><trkpt lat="43.3001783" lon="12.050015"><ele>895.0</ele><time>2026-04-03T06:53:24.128Z</time></trkpt><trkpt lat="43.30011" lon="12.0500633"><ele>889.0</ele><time>2026-04-03T06:53:25.128Z</time></trkpt><trkpt lat="43.300035" lon="12.050085"><ele>883.0</ele><time>2026-04-03T06:53:26.128Z</time></trkpt><trkpt lat="43.2999333" lon="12.050135"><ele>877.0</ele><time>2026-04-03T06:53:28.128Z</time></trkpt><trkpt lat="43.299835" lon="12.0502033"><ele>874.8</ele><time>2026-04-03T06:53:30.128Z</time></trkpt><trkpt lat="43.2997283" lon="12.05023"><ele>872.6</ele><time>2026-04-03T06:53:32.128Z</time></trkpt><trkpt lat="43.299635" lon="12.05022"><ele>870.3999999999999</ele><time>2026-04-03T06:53:34.128Z</time></trkpt><trkpt lat="43.2995583" lon="12.050155"><ele>868.1999999999999</ele><time>2026-04-03T06:53:36.129Z</time></trkpt><trkpt lat="43.2995083" lon="12.0500383"><ele>866.0</ele><time>2026-04-03T06:53:38.128Z</time></trkpt><trkpt lat="43.29949" lon="12.0499283"><ele>866.0</ele><time>2026-04-03T06:53:40.128Z</time></trkpt><trkpt lat="43.29949" lon="12.0497967"><ele>865.9999999999999</ele><time>2026-04-03T06:53:42.129Z</time></trkpt><trkpt lat="43.299455" lon="12.0496583"><ele>865.9999999999999</ele><time>2026-04-03T06:53:44.128Z</time></trkpt><trkpt lat="43.2993717" lon="12.0495267"><ele>866.0</ele><time>2026-04-03T06:53:46.128Z</time></trkpt><trkpt lat="43.2993067" lon="12.0494767"><ele>866.0</ele><time>2026-04-03T06:53:47.128Z</time></trkpt><trkpt lat="43.2992383" lon="12.04941"><ele>866.0</ele><time>2026-04-03T06:53:48.128Z</time></trkpt><trkpt lat="43.2991733" lon="12.0493633"><ele>865.9999999999999</ele><time>2026-04-03T06:53:49.129Z</time></trkpt><trkpt lat="43.2991033" lon="12.0493367"><ele>865.9999999999999</ele><time>2026-04-03T06:53:50.129Z</time></trkpt><trkpt lat="43.2989867" lon="12.049325"><ele>866.0</ele><time>2026-04-03T06:53:52.128Z</time></trkpt><trkpt lat="43.2989433" lon="12.049445"><ele>866.0</ele><time>2026-04-03T06:53:54.128Z</time></trkpt><trkpt lat="43.2989383" lon="12.0496267"><ele>866.0</ele><time>2026-04-03T06:53:56.128Z</time></trkpt><trkpt lat="43.2989433" lon="12.0497233"><ele>865.9999999999999</ele><time>2026-04-03T06:53:57.129Z</time></trkpt><trkpt lat="43.2989167" lon="12.0498617"><ele>865.9999999999999</ele><time>2026-04-03T06:53:59.129Z</time></trkpt><trkpt lat="43.2988717" lon="12.049925"><ele>866.0</ele><time>2026-04-03T06:54:00.128Z</time></trkpt><trkpt lat="43.2987817" lon="12.0500183"><ele>866.0</ele><time>2026-04-03T06:54:01.128Z</time></trkpt><trkpt lat="43.29867" lon="12.0501517"><ele>861.75</ele><time>2026-04-03T06:54:02.128Z</time></trkpt><trkpt lat="43.2985533" lon="12.05029"><ele>857.5</ele><time>2026-04-03T06:54:03.129Z</time></trkpt><trkpt lat="43.2984667" lon="12.0503967"><ele>853.25</ele><time>2026-04-03T06:54:04.128Z</time></trkpt><trkpt lat="43.2983767" lon="12.0504917"><ele>849.0</ele><time>2026-04-03T06:54:05.129Z</time></trkpt><trkpt lat="43.298275" lon="12.0505367"><ele>849.0</ele><time>2026-04-03T06:54:06.128Z</time></trkpt><trkpt lat="43.298165" lon="12.050575"><ele>849.0</ele><time>2026-04-03T06:54:07.128Z</time></trkpt><trkpt lat="43.2980383" lon="12.0506283"><ele>849.0</ele><time>2026-04-03T06:54:08.129Z</time></trkpt><trkpt lat="43.29791" lon="12.0506667"><ele>849.0</ele><time>2026-04-03T06:54:09.128Z</time></trkpt><trkpt lat="43.2977883" lon="12.0507167"><ele>848.4000000000001</ele><time>2026-04-03T06:54:10.129Z</time></trkpt><trkpt lat="43.2976883" lon="12.0507567"><ele>847.8</ele><time>2026-04-03T06:54:11.129Z</time></trkpt><trkpt lat="43.2976033" lon="12.050795"><ele>847.2</ele><time>2026-04-03T06:54:12.128Z</time></trkpt><trkpt lat="43.2975433" lon="12.05085"><ele>846.5999999999999</ele><time>2026-04-03T06:54:13.128Z</time></trkpt><trkpt lat="43.2974383" lon="12.050915"><ele>846.0</ele><time>2026-04-03T06:54:15.128Z</time></trkpt><trkpt lat="43.297345" lon="12.05096"><ele>846.0</ele><time>2026-04-03T06:54:17.128Z</time></trkpt><trkpt lat="43.2972717" lon="12.0509933"><ele>846.0</ele><time>2026-04-03T06:54:19.128Z</time></trkpt><trkpt lat="43.2971967" lon="12.0510217"><ele>846.0</ele><time>2026-04-03T06:54:22.129Z</time></trkpt><trkpt lat="43.2971217" lon="12.051085"><ele>846.0</ele><time>2026-04-03T06:54:24.128Z</time></trkpt><trkpt lat="43.2970667" lon="12.0511417"><ele>846.0</ele><time>2026-04-03T06:54:25.129Z</time></trkpt><trkpt lat="43.2970017" lon="12.0512183"><ele>846.0</ele><time>2026-04-03T06:54:26.128Z</time></trkpt><trkpt lat="43.29693" lon="12.0512917"><ele>844.0</ele><time>2026-04-03T06:54:27.128Z</time></trkpt><trkpt lat="43.2968483" lon="12.05137"><ele>842.0</ele><time>2026-04-03T06:54:28.129Z</time></trkpt><trkpt lat="43.2967517" lon="12.0514567"><ele>840.0</ele><time>2026-04-03T06:54:29.129Z</time></trkpt><trkpt lat="43.2966517" lon="12.0515733"><ele>838.0</ele><time>2026-04-03T06:54:30.128Z</time></trkpt><trkpt lat="43.2965333" lon="12.051705"><ele>832.0</ele><time>2026-04-03T06:54:31.128Z</time></trkpt><trkpt lat="43.2964067" lon="12.05183"><ele>826.0</ele><time>2026-04-03T06:54:32.128Z</time></trkpt><trkpt lat="43.2962817" lon="12.05195"><ele>820.0</ele><time>2026-04-03T06:54:33.128Z</time></trkpt><trkpt lat="43.2961633" lon="12.05205"><ele>814.0</ele><time>2026-04-03T06:54:34.128Z</time></trkpt><trkpt lat="43.2960467" lon="12.0521433"><ele>814.0</ele><time>2026-04-03T06:54:35.128Z</time></trkpt><trkpt lat="43.2959517" lon="12.0522183"><ele>814.0</ele><time>2026-04-03T06:54:36.129Z</time></trkpt><trkpt lat="43.295855" lon="12.0523"><ele>814.0</ele><time>2026-04-03T06:54:37.128Z</time></trkpt><trkpt lat="43.29575" lon="12.0523983"><ele>814.0</ele><time>2026-04-03T06:54:38.128Z</time></trkpt><trkpt lat="43.29564" lon="12.0525167"><ele>812.75</ele><time>2026-04-03T06:54:39.128Z</time></trkpt><trkpt lat="43.2955283" lon="12.0526567"><ele>811.5</ele><time>2026-04-03T06:54:40.129Z</time></trkpt><trkpt lat="43.295415" lon="12.0527767"><ele>810.25</ele><time>2026-04-03T06:54:41.128Z</time></trkpt><trkpt lat="43.2952833" lon="12.0528683"><ele>809.0</ele><time>2026-04-03T06:54:42.128Z</time></trkpt><trkpt lat="43.2951383" lon="12.05298"><ele>809.0</ele><time>2026-04-03T06:54:43.128Z</time></trkpt><trkpt lat="43.2950017" lon="12.0530533"><ele>809.0</ele><time>2026-04-03T06:54:44.129Z</time></trkpt><trkpt lat="43.2948733" lon="12.05313"><ele>809.0</ele><time>2026-04-03T06:54:45.129Z</time></trkpt><trkpt lat="43.294755" lon="12.0532267"><ele>809.0</ele><time>2026-04-03T06:54:46.129Z</time></trkpt><trkpt lat="43.294635" lon="12.0533017"><ele>808.5</ele><time>2026-04-03T06:54:47.129Z</time></trkpt><trkpt lat="43.29452" lon="12.05336"><ele>808.0</ele><time>2026-04-03T06:54:48.128Z</time></trkpt><trkpt lat="43.2944133" lon="12.05341"><ele>807.5</ele><time>2026-04-03T06:54:49.129Z</time></trkpt><trkpt lat="43.294295" lon="12.0534783"><ele>807.0</ele><time>2026-04-03T06:54:50.128Z</time></trkpt><trkpt lat="43.2941633" lon="12.0535617"><ele>807.0</ele><time>2026-04-03T06:54:51.128Z</time></trkpt><trkpt lat="43.2940333" lon="12.05363"><ele>807.0</ele><time>2026-04-03T06:54:52.128Z</time></trkpt><trkpt lat="43.2939083" lon="12.0537067"><ele>807.0</ele><time>2026-04-03T06:54:53.128Z</time></trkpt><trkpt lat="43.2937933" lon="12.0537683"><ele>807.0</ele><time>2026-04-03T06:54:54.128Z</time></trkpt><trkpt lat="43.2936933" lon="12.0538267"><ele>804.6</ele><time>2026-04-03T06:54:55.128Z</time></trkpt><trkpt lat="43.29359" lon="12.0538583"><ele>802.2</ele><time>2026-04-03T06:54:56.129Z</time></trkpt><trkpt lat="43.2934933" lon="12.0538817"><ele>799.8</ele><time>2026-04-03T06:54:57.128Z</time></trkpt><trkpt lat="43.2933983" lon="12.053875"><ele>797.4</ele><time>2026-04-03T06:54:58.129Z</time></trkpt><trkpt lat="43.2933017" lon="12.0538783"><ele>795.0</ele><time>2026-04-03T06:54:59.128Z</time></trkpt><trkpt lat="43.2932217" lon="12.0538867"><ele>795.0</ele><time>2026-04-03T06:55:00.128Z</time></trkpt><trkpt lat="43.2931583" lon="12.053865"><ele>795.0</ele><time>2026-04-03T06:55:01.129Z</time></trkpt><trkpt lat="43.293045" lon="12.053775"><ele>795.0</ele><time>2026-04-03T06:55:03.129Z</time></trkpt><trkpt lat="43.2929717" lon="12.05368"><ele>795.0</ele><time>2026-04-03T06:55:04.128Z</time></trkpt><trkpt lat="43.2928833" lon="12.0535767"><ele>795.0</ele><time>2026-04-03T06:55:05.128Z</time></trkpt><trkpt lat="43.2927917" lon="12.0534833"><ele>792.6</ele><time>2026-04-03T06:55:06.129Z</time></trkpt><trkpt lat="43.2927083" lon="12.0533933"><ele>790.2</ele><time>2026-04-03T06:55:07.129Z</time></trkpt><trkpt lat="43.2926383" lon="12.0533283"><ele>787.8</ele><time>2026-04-03T06:55:08.128Z</time></trkpt><trkpt lat="43.2925767" lon="12.0532717"><ele>785.4</ele><time>2026-04-03T06:55:09.128Z</time></trkpt><trkpt lat="43.2925283" lon="12.0531667"><ele>783.0</ele><time>2026-04-03T06:55:11.128Z</time></trkpt><trkpt lat="43.292575" lon="12.053015"><ele>780.4</ele><time>2026-04-03T06:55:13.128Z</time></trkpt><trkpt lat="43.2926417" lon="12.05293"><ele>777.8</ele><time>2026-04-03T06:55:14.128Z</time></trkpt><trkpt lat="43.29272" lon="12.052845"><ele>775.2</ele><time>2026-04-03T06:55:15.128Z</time></trkpt><trkpt lat="43.2928033" lon="12.0527583"><ele>772.6</ele><time>2026-04-03T06:55:16.129Z</time></trkpt><trkpt lat="43.2929017" lon="12.0527233"><ele>770.0</ele><time>2026-04-03T06:55:17.129Z</time></trkpt><trkpt lat="43.2929917" lon="12.0527"><ele>770.0000000000001</ele><time>2026-04-03T06:55:18.129Z</time></trkpt><trkpt lat="43.2930867" lon="12.052695"><ele>770.0</ele><time>2026-04-03T06:55:19.128Z</time></trkpt><trkpt lat="43.29317" lon="12.052675"><ele>770.0</ele><time>2026-04-03T06:55:20.128Z</time></trkpt><trkpt lat="43.2932383" lon="12.0526417"><ele>770.0</ele><time>2026-04-03T06:55:21.129Z</time></trkpt><trkpt lat="43.293325" lon="12.052575"><ele>770.0000000000001</ele><time>2026-04-03T06:55:23.128Z</time></trkpt><trkpt lat="43.29328" lon="12.0524867"><ele>770.0</ele><time>2026-04-03T06:55:26.129Z</time></trkpt><trkpt lat="43.293195" lon="12.05247"><ele>771.5</ele><time>2026-04-03T06:55:27.128Z</time></trkpt><trkpt lat="43.293095" lon="12.0524567"><ele>773.0</ele><time>2026-04-03T06:55:28.128Z</time></trkpt><trkpt lat="43.2929683" lon="12.05245"><ele>774.5</ele><time>2026-04-03T06:55:29.129Z</time></trkpt><trkpt lat="43.29283" lon="12.052425"><ele>776.0</ele><time>2026-04-03T06:55:30.128Z</time></trkpt><trkpt lat="43.2926817" lon="12.0523933"><ele>768.6666666666667</ele><time>2026-04-03T06:55:31.128Z</time></trkpt><trkpt lat="43.2925283" lon="12.0523917"><ele>761.3333333333334</ele><time>2026-04-03T06:55:32.128Z</time></trkpt><trkpt lat="43.2923567" lon="12.0524217"><ele>754.0</ele><time>2026-04-03T06:55:33.129Z</time></trkpt><trkpt lat="43.29219" lon="12.0524883"><ele>754.0</ele><time>2026-04-03T06:55:34.128Z</time></trkpt><trkpt lat="43.2920433" lon="12.052585"><ele>754.0</ele><time>2026-04-03T06:55:35.128Z</time></trkpt><trkpt lat="43.2919183" lon="12.0527333"><ele>754.0</ele><time>2026-04-03T06:55:36.128Z</time></trkpt><trkpt lat="43.29181" lon="12.052895"><ele>754.0</ele><time>2026-04-03T06:55:37.128Z</time></trkpt><trkpt lat="43.29172" lon="12.053095"><ele>754.0</ele><time>2026-04-03T06:55:38.128Z</time></trkpt><trkpt lat="43.2916483" lon="12.0532983"><ele>754.0</ele><time>2026-04-03T06:55:39.128Z</time></trkpt><trkpt lat="43.2916033" lon="12.0535083"><ele>755.3333333333334</ele><time>2026-04-03T06:55:40.128Z</time></trkpt><trkpt lat="43.291585" lon="12.0537183"><ele>756.6666666666666</ele><time>2026-04-03T06:55:41.128Z</time></trkpt><trkpt lat="43.2916167" lon="12.0539283"><ele>758.0</ele><time>2026-04-03T06:55:42.129Z</time></trkpt><trkpt lat="43.2916767" lon="12.0541317"><ele>758.0</ele><time>2026-04-03T06:55:43.129Z</time></trkpt><trkpt lat="43.29173" lon="12.0543417"><ele>758.0</ele><time>2026-04-03T06:55:44.128Z</time></trkpt><trkpt lat="43.29177" lon="12.0545667"><ele>758.0</ele><time>2026-04-03T06:55:45.128Z</time></trkpt><trkpt lat="43.2917733" lon="12.0548233"><ele>756.6666666666666</ele><time>2026-04-03T06:55:46.129Z</time></trkpt><trkpt lat="43.2917583" lon="12.0550967"><ele>755.3333333333334</ele><time>2026-04-03T06:55:47.128Z</time></trkpt><trkpt lat="43.2917167" lon="12.0553567"><ele>754.0</ele><time>2026-04-03T06:55:48.128Z</time></trkpt><trkpt lat="43.2916617" lon="12.05559"><ele>754.25</ele><time>2026-04-03T06:55:49.128Z</time></trkpt><trkpt lat="43.2915983" lon="12.0558"><ele>754.5</ele><time>2026-04-03T06:55:50.128Z</time></trkpt><trkpt lat="43.2915383" lon="12.0559667"><ele>754.75</ele><time>2026-04-03T06:55:51.128Z</time></trkpt><trkpt lat="43.2914983" lon="12.0561133"><ele>755.0</ele><time>2026-04-03T06:55:52.129Z</time></trkpt><trkpt lat="43.2914667" lon="12.05624"><ele>755.0</ele><time>2026-04-03T06:55:53.128Z</time></trkpt><trkpt lat="43.2914383" lon="12.056355"><ele>755.0</ele><time>2026-04-03T06:55:54.128Z</time></trkpt><trkpt lat="43.2914183" lon="12.05646"><ele>755.0</ele><time>2026-04-03T06:55:55.129Z</time></trkpt><trkpt lat="43.2914" lon="12.056565"><ele>755.0</ele><time>2026-04-03T06:55:56.128Z</time></trkpt><trkpt lat="43.29136" lon="12.0566517"><ele>755.0</ele><time>2026-04-03T06:55:57.129Z</time></trkpt><trkpt lat="43.291295" lon="12.05671"><ele>755.0</ele><time>2026-04-03T06:55:58.128Z</time></trkpt><trkpt lat="43.291215" lon="12.0567433"><ele>753.5</ele><time>2026-04-03T06:55:59.129Z</time></trkpt><trkpt lat="43.2911033" lon="12.0567433"><ele>752.0</ele><time>2026-04-03T06:56:00.129Z</time></trkpt><trkpt lat="43.2909667" lon="12.0567483"><ele>750.5</ele><time>2026-04-03T06:56:01.128Z</time></trkpt><trkpt lat="43.290825" lon="12.0567483"><ele>749.0</ele><time>2026-04-03T06:56:02.128Z</time></trkpt><trkpt lat="43.2906733" lon="12.05677"><ele>749.6666666666666</ele><time>2026-04-03T06:56:03.129Z</time></trkpt><trkpt lat="43.290515" lon="12.0568167"><ele>750.3333333333334</ele><time>2026-04-03T06:56:04.128Z</time></trkpt><trkpt lat="43.2903567" lon="12.05688"><ele>751.0</ele><time>2026-04-03T06:56:05.128Z</time></trkpt><trkpt lat="43.2901883" lon="12.0569517"><ele>751.0</ele><time>2026-04-03T06:56:06.129Z</time></trkpt><trkpt lat="43.2900067" lon="12.0570517"><ele>751.0</ele><time>2026-04-03T06:56:07.129Z</time></trkpt><trkpt lat="43.28982" lon="12.0571333"><ele>751.0</ele><time>2026-04-03T06:56:08.128Z</time></trkpt><trkpt lat="43.2896267" lon="12.0572133"><ele>751.0</ele><time>2026-04-03T06:56:09.129Z</time></trkpt><trkpt lat="43.2894333" lon="12.0572983"><ele>751.0</ele><time>2026-04-03T06:56:10.128Z</time></trkpt><trkpt lat="43.289255" lon="12.0573733"><ele>751.0</ele><time>2026-04-03T06:56:11.128Z</time></trkpt><trkpt lat="43.2891067" lon="12.05744"><ele>753.5</ele><time>2026-04-03T06:56:12.128Z</time></trkpt><trkpt lat="43.2889617" lon="12.0575167"><ele>756.0</ele><time>2026-04-03T06:56:13.128Z</time></trkpt><trkpt lat="43.2888467" lon="12.0576167"><ele>758.5</ele><time>2026-04-03T06:56:14.128Z</time></trkpt><trkpt lat="43.2887383" lon="12.0577483"><ele>761.0</ele><time>2026-04-03T06:56:15.129Z</time></trkpt><trkpt lat="43.2886383" lon="12.0579117"><ele>761.0</ele><time>2026-04-03T06:56:16.128Z</time></trkpt><trkpt lat="43.28854" lon="12.058085"><ele>761.0</ele><time>2026-04-03T06:56:17.128Z</time></trkpt><trkpt lat="43.2884533" lon="12.058235"><ele>761.0</ele><time>2026-04-03T06:56:18.128Z</time></trkpt><trkpt lat="43.288395" lon="12.0583967"><ele>761.0</ele><time>2026-04-03T06:56:19.128Z</time></trkpt><trkpt lat="43.2883617" lon="12.05857"><ele>764.5</ele><time>2026-04-03T06:56:20.128Z</time></trkpt><trkpt lat="43.2883533" lon="12.0587517"><ele>768.0</ele><time>2026-04-03T06:56:21.128Z</time></trkpt><trkpt lat="43.288365" lon="12.0589417"><ele>771.5</ele><time>2026-04-03T06:56:22.128Z</time></trkpt><trkpt lat="43.2883883" lon="12.0591417"><ele>775.0</ele><time>2026-04-03T06:56:23.129Z</time></trkpt><trkpt lat="43.288435" lon="12.05935"><ele>777.0</ele><time>2026-04-03T06:56:24.128Z</time></trkpt><trkpt lat="43.2884733" lon="12.0595383"><ele>779.0</ele><time>2026-04-03T06:56:25.128Z</time></trkpt><trkpt lat="43.2884883" lon="12.0596817"><ele>781.0</ele><time>2026-04-03T06:56:26.129Z</time></trkpt><trkpt lat="43.2884683" lon="12.0598"><ele>783.0</ele><time>2026-04-03T06:56:27.128Z</time></trkpt><trkpt lat="43.2884283" lon="12.0598917"><ele>785.0</ele><time>2026-04-03T06:56:28.129Z</time></trkpt><trkpt lat="43.2883633" lon="12.059965"><ele>785.4</ele><time>2026-04-03T06:56:29.128Z</time></trkpt><trkpt lat="43.2882933" lon="12.060025"><ele>785.8</ele><time>2026-04-03T06:56:30.128Z</time></trkpt><trkpt lat="43.288205" lon="12.0600767"><ele>786.2</ele><time>2026-04-03T06:56:31.128Z</time></trkpt><trkpt lat="43.2880917" lon="12.06014"><ele>786.6</ele><time>2026-04-03T06:56:32.128Z</time></trkpt><trkpt lat="43.28797" lon="12.0602117"><ele>787.0</ele><time>2026-04-03T06:56:33.129Z</time></trkpt><trkpt lat="43.2878383" lon="12.0603033"><ele>787.0</ele><time>2026-04-03T06:56:34.128Z</time></trkpt><trkpt lat="43.2876933" lon="12.0603983"><ele>787.0</ele><time>2026-04-03T06:56:35.128Z</time></trkpt><trkpt lat="43.28754" lon="12.0605133"><ele>787.0</ele><time>2026-04-03T06:56:36.129Z</time></trkpt><trkpt lat="43.2873933" lon="12.0606233"><ele>789.25</ele><time>2026-04-03T06:56:37.129Z</time></trkpt><trkpt lat="43.28726" lon="12.0607283"><ele>791.5</ele><time>2026-04-03T06:56:38.128Z</time></trkpt><trkpt lat="43.287155" lon="12.0608383"><ele>793.75</ele><time>2026-04-03T06:56:39.129Z</time></trkpt><trkpt lat="43.2870583" lon="12.06098"><ele>796.0</ele><time>2026-04-03T06:56:40.128Z</time></trkpt><trkpt lat="43.28696" lon="12.0611417"><ele>796.0</ele><time>2026-04-03T06:56:41.128Z</time></trkpt><trkpt lat="43.2868717" lon="12.061325"><ele>796.0</ele><time>2026-04-03T06:56:42.128Z</time></trkpt><trkpt lat="43.2867867" lon="12.0615067"><ele>796.0</ele><time>2026-04-03T06:56:43.129Z</time></trkpt><trkpt lat="43.2866933" lon="12.0617017"><ele>796.0</ele><time>2026-04-03T06:56:44.128Z</time></trkpt><trkpt lat="43.2866017" lon="12.0618933"><ele>796.0</ele><time>2026-04-03T06:56:45.129Z</time></trkpt><trkpt lat="43.2865017" lon="12.0621067"><ele>796.0</ele><time>2026-04-03T06:56:46.128Z</time></trkpt><trkpt lat="43.2863917" lon="12.0623083"><ele>803.0</ele><time>2026-04-03T06:56:47.129Z</time></trkpt><trkpt lat="43.2862833" lon="12.0625183"><ele>810.0</ele><time>2026-04-03T06:56:48.129Z</time></trkpt><trkpt lat="43.28617" lon="12.0627367"><ele>817.0</ele><time>2026-04-03T06:56:49.128Z</time></trkpt><trkpt lat="43.2860533" lon="12.0629633"><ele>817.0</ele><time>2026-04-03T06:56:50.129Z</time></trkpt><trkpt lat="43.2859433" lon="12.0631867"><ele>817.0</ele><time>2026-04-03T06:56:51.129Z</time></trkpt><trkpt lat="43.285835" lon="12.0634267"><ele>817.0</ele><time>2026-04-03T06:56:52.128Z</time></trkpt><trkpt lat="43.2857267" lon="12.0636417"><ele>817.0</ele><time>2026-04-03T06:56:53.128Z</time></trkpt><trkpt lat="43.28562" lon="12.0638133"><ele>817.0</ele><time>2026-04-03T06:56:54.128Z</time></trkpt><trkpt lat="43.2855367" lon="12.06395"><ele>817.0</ele><time>2026-04-03T06:56:55.129Z</time></trkpt><trkpt lat="43.2854667" lon="12.0640983"><ele>817.0</ele><time>2026-04-03T06:56:56.129Z</time></trkpt><trkpt lat="43.2854167" lon="12.0642683"><ele>819.75</ele><time>2026-04-03T06:56:57.128Z</time></trkpt><trkpt lat="43.2853783" lon="12.06445"><ele>822.5</ele><time>2026-04-03T06:56:58.129Z</time></trkpt><trkpt lat="43.2853417" lon="12.0646533"><ele>825.25</ele><time>2026-04-03T06:56:59.129Z</time></trkpt><trkpt lat="43.2853183" lon="12.0648583"><ele>828.0</ele><time>2026-04-03T06:57:00.129Z</time></trkpt><trkpt lat="43.2853133" lon="12.0650483"><ele>828.3333333333333</ele><time>2026-04-03T06:57:01.128Z</time></trkpt><trkpt lat="43.28533" lon="12.0652383"><ele>828.6666666666666</ele><time>2026-04-03T06:57:02.128Z</time></trkpt><trkpt lat="43.2853717" lon="12.0654383"><ele>829.0</ele><time>2026-04-03T06:57:03.128Z</time></trkpt><trkpt lat="43.2854383" lon="12.0656533"><ele>828.0</ele><time>2026-04-03T06:57:04.129Z</time></trkpt><trkpt lat="43.2855067" lon="12.065865"><ele>827.0</ele><time>2026-04-03T06:57:05.128Z</time></trkpt><trkpt lat="43.2855483" lon="12.0660617"><ele>826.0</ele><time>2026-04-03T06:57:06.129Z</time></trkpt><trkpt lat="43.2855733" lon="12.0662483"><ele>826.0</ele><time>2026-04-03T06:57:07.129Z</time></trkpt><trkpt lat="43.2855667" lon="12.0664217"><ele>826.0</ele><time>2026-04-03T06:57:08.128Z</time></trkpt><trkpt lat="43.28554" lon="12.0665917"><ele>826.0</ele><time>2026-04-03T06:57:09.128Z</time></trkpt><trkpt lat="43.28549" lon="12.066755"><ele>826.0</ele><time>2026-04-03T06:57:10.128Z</time></trkpt><trkpt lat="43.2854117" lon="12.0669133"><ele>828.25</ele><time>2026-04-03T06:57:11.129Z</time></trkpt><trkpt lat="43.2853183" lon="12.0670683"><ele>830.5</ele><time>2026-04-03T06:57:12.128Z</time></trkpt><trkpt lat="43.2852183" lon="12.0671933"><ele>832.75</ele><time>2026-04-03T06:57:13.129Z</time></trkpt><trkpt lat="43.2851" lon="12.0672883"><ele>835.0</ele><time>2026-04-03T06:57:14.128Z</time></trkpt><trkpt lat="43.2849767" lon="12.06737"><ele>835.75</ele><time>2026-04-03T06:57:15.128Z</time></trkpt><trkpt lat="43.284855" lon="12.0674467"><ele>836.5</ele><time>2026-04-03T06:57:16.128Z</time></trkpt><trkpt lat="43.2847417" lon="12.0675217"><ele>837.25</ele><time>2026-04-03T06:57:17.128Z</time></trkpt><trkpt lat="43.284645" lon="12.0675933"><ele>838.0</ele><time>2026-04-03T06:57:18.129Z</time></trkpt><trkpt lat="43.2845533" lon="12.0676933"><ele>838.0</ele><time>2026-04-03T06:57:19.129Z</time></trkpt><trkpt lat="43.28446" lon="12.06782"><ele>838.0</ele><time>2026-04-03T06:57:20.128Z</time></trkpt><trkpt lat="43.28436" lon="12.0679633"><ele>838.0</ele><time>2026-04-03T06:57:21.128Z</time></trkpt><trkpt lat="43.2842617" lon="12.0681317"><ele>838.0</ele><time>2026-04-03T06:57:22.128Z</time></trkpt><trkpt lat="43.2841583" lon="12.0683117"><ele>836.25</ele><time>2026-04-03T06:57:23.128Z</time></trkpt><trkpt lat="43.2840583" lon="12.068475"><ele>834.5</ele><time>2026-04-03T06:57:24.128Z</time></trkpt><trkpt lat="43.2839683" lon="12.0686183"><ele>832.75</ele><time>2026-04-03T06:57:25.128Z</time></trkpt><trkpt lat="43.283895" lon="12.0687733"><ele>831.0</ele><time>2026-04-03T06:57:26.128Z</time></trkpt><trkpt lat="43.2838433" lon="12.0689417"><ele>833.0</ele><time>2026-04-03T06:57:27.128Z</time></trkpt><trkpt lat="43.2838017" lon="12.06915"><ele>835.0</ele><time>2026-04-03T06:57:28.128Z</time></trkpt><trkpt lat="43.2837717" lon="12.0693817"><ele>837.0</ele><time>2026-04-03T06:57:29.128Z</time></trkpt><trkpt lat="43.2837417" lon="12.0696217"><ele>837.0</ele><time>2026-04-03T06:57:30.129Z</time></trkpt><trkpt lat="43.283715" lon="12.0698817"><ele>837.0</ele><time>2026-04-03T06:57:31.129Z</time></trkpt><trkpt lat="43.283685" lon="12.0700933"><ele>837.0</ele><time>2026-04-03T06:57:32.128Z</time></trkpt><trkpt lat="43.2836567" lon="12.0702717"><ele>839.6</ele><time>2026-04-03T06:57:33.128Z</time></trkpt><trkpt lat="43.28361" lon="12.0703983"><ele>842.2</ele><time>2026-04-03T06:57:34.129Z</time></trkpt><trkpt lat="43.2835333" lon="12.0704967"><ele>844.8</ele><time>2026-04-03T06:57:35.128Z</time></trkpt><trkpt lat="43.2834467" lon="12.0705583"><ele>847.4</ele><time>2026-04-03T06:57:36.128Z</time></trkpt><trkpt lat="43.2833467" lon="12.07058"><ele>850.0</ele><time>2026-04-03T06:57:37.128Z</time></trkpt><trkpt lat="43.2832233" lon="12.0705883"><ele>847.5</ele><time>2026-04-03T06:57:38.128Z</time></trkpt><trkpt lat="43.2830683" lon="12.0705867"><ele>845.0</ele><time>2026-04-03T06:57:39.128Z</time></trkpt><trkpt lat="43.2829183" lon="12.070595"><ele>842.5</ele><time>2026-04-03T06:57:40.128Z</time></trkpt><trkpt lat="43.2827817" lon="12.0706217"><ele>840.0</ele><time>2026-04-03T06:57:41.128Z</time></trkpt><trkpt lat="43.2826533" lon="12.0706767"><ele>840.0</ele><time>2026-04-03T06:57:42.128Z</time></trkpt><trkpt lat="43.2825333" lon="12.07077"><ele>840.0</ele><time>2026-04-03T06:57:43.128Z</time></trkpt><trkpt lat="43.2824067" lon="12.070905"><ele>840.0</ele><time>2026-04-03T06:57:44.128Z</time></trkpt><trkpt lat="43.2822817" lon="12.0710783"><ele>841.5</ele><time>2026-04-03T06:57:45.128Z</time></trkpt><trkpt lat="43.2821633" lon="12.0712467"><ele>843.0</ele><time>2026-04-03T06:57:46.128Z</time></trkpt><trkpt lat="43.2820717" lon="12.0713883"><ele>844.5</ele><time>2026-04-03T06:57:47.129Z</time></trkpt><trkpt lat="43.282005" lon="12.0715367"><ele>846.0</ele><time>2026-04-03T06:57:48.128Z</time></trkpt><trkpt lat="43.2819483" lon="12.0717083"><ele>849.6666666666667</ele><time>2026-04-03T06:57:49.128Z</time></trkpt><trkpt lat="43.2819117" lon="12.07191"><ele>853.3333333333334</ele><time>2026-04-03T06:57:50.129Z</time></trkpt><trkpt lat="43.2818967" lon="12.0721267"><ele>857.0</ele><time>2026-04-03T06:57:51.128Z</time></trkpt><trkpt lat="43.2818833" lon="12.0723483"><ele>858.6666666666667</ele><time>2026-04-03T06:57:52.129Z</time></trkpt><trkpt lat="43.2818867" lon="12.07259"><ele>860.3333333333333</ele><time>2026-04-03T06:57:53.128Z</time></trkpt><trkpt lat="43.2819133" lon="12.0728217"><ele>862.0</ele><time>2026-04-03T06:57:54.128Z</time></trkpt><trkpt lat="43.281955" lon="12.07302"><ele>862.0</ele><time>2026-04-03T06:57:55.129Z</time></trkpt><trkpt lat="43.2820167" lon="12.0732367"><ele>862.0</ele><time>2026-04-03T06:57:56.128Z</time></trkpt><trkpt lat="43.2820767" lon="12.07343"><ele>862.0</ele><time>2026-04-03T06:57:57.128Z</time></trkpt><trkpt lat="43.282125" lon="12.073575"><ele>862.0</ele><time>2026-04-03T06:57:58.129Z</time></trkpt><trkpt lat="43.2821633" lon="12.0736833"><ele>861.4000000000001</ele><time>2026-04-03T06:57:59.128Z</time></trkpt><trkpt lat="43.2821833" lon="12.0737867"><ele>860.8000000000001</ele><time>2026-04-03T06:58:00.128Z</time></trkpt><trkpt lat="43.2821767" lon="12.073885"><ele>860.2</ele><time>2026-04-03T06:58:01.129Z</time></trkpt><trkpt lat="43.28214" lon="12.0739767"><ele>859.6</ele><time>2026-04-03T06:58:02.129Z</time></trkpt><trkpt lat="43.2820617" lon="12.0740717"><ele>859.0</ele><time>2026-04-03T06:58:03.128Z</time></trkpt><trkpt lat="43.2819617" lon="12.0741867"><ele>862.3333333333333</ele><time>2026-04-03T06:58:04.129Z</time></trkpt><trkpt lat="43.2818433" lon="12.0743017"><ele>865.6666666666667</ele><time>2026-04-03T06:58:05.128Z</time></trkpt><trkpt lat="43.281705" lon="12.0744333"><ele>869.0</ele><time>2026-04-03T06:58:06.129Z</time></trkpt><trkpt lat="43.2815633" lon="12.0745767"><ele>869.6666666666667</ele><time>2026-04-03T06:58:07.128Z</time></trkpt><trkpt lat="43.2814267" lon="12.0747383"><ele>870.3333333333333</ele><time>2026-04-03T06:58:08.128Z</time></trkpt><trkpt lat="43.2813083" lon="12.0748817"><ele>871.0</ele><time>2026-04-03T06:58:09.129Z</time></trkpt><trkpt lat="43.2812233" lon="12.0750117"><ele>871.0</ele><time>2026-04-03T06:58:10.128Z</time></trkpt><trkpt lat="43.2811633" lon="12.0751467"><ele>871.0</ele><time>2026-04-03T06:58:11.129Z</time></trkpt><trkpt lat="43.281115" lon="12.07531"><ele>871.0</ele><time>2026-04-03T06:58:12.128Z</time></trkpt><trkpt lat="43.2810633" lon="12.0754967"><ele>871.0</ele><time>2026-04-03T06:58:13.128Z</time></trkpt><trkpt lat="43.2810067" lon="12.075705"><ele>872.6666666666666</ele><time>2026-04-03T06:58:14.128Z</time></trkpt><trkpt lat="43.280965" lon="12.0759117"><ele>874.3333333333333</ele><time>2026-04-03T06:58:15.128Z</time></trkpt><trkpt lat="43.280935" lon="12.076135"><ele>876.0</ele><time>2026-04-03T06:58:16.128Z</time></trkpt><trkpt lat="43.2809367" lon="12.0763333"><ele>876.0</ele><time>2026-04-03T06:58:17.129Z</time></trkpt><trkpt lat="43.28095" lon="12.0765133"><ele>875.9999999999999</ele><time>2026-04-03T06:58:18.128Z</time></trkpt><trkpt lat="43.28095" lon="12.0766783"><ele>875.9999999999999</ele><time>2026-04-03T06:58:19.128Z</time></trkpt><trkpt lat="43.2809333" lon="12.0768133"><ele>876.0</ele><time>2026-04-03T06:58:20.128Z</time></trkpt><trkpt lat="43.2808967" lon="12.07693"><ele>876.0</ele><time>2026-04-03T06:58:21.128Z</time></trkpt><trkpt lat="43.2808417" lon="12.077035"><ele>877.8</ele><time>2026-04-03T06:58:22.128Z</time></trkpt><trkpt lat="43.2807633" lon="12.077105"><ele>879.5999999999999</ele><time>2026-04-03T06:58:23.128Z</time></trkpt><trkpt lat="43.2806817" lon="12.0771617"><ele>881.4</ele><time>2026-04-03T06:58:24.128Z</time></trkpt><trkpt lat="43.2805933" lon="12.0772033"><ele>883.2</ele><time>2026-04-03T06:58:25.128Z</time></trkpt><trkpt lat="43.2805133" lon="12.0772433"><ele>885.0</ele><time>2026-04-03T06:58:26.129Z</time></trkpt><trkpt lat="43.2804317" lon="12.077305"><ele>884.4</ele><time>2026-04-03T06:58:27.129Z</time></trkpt><trkpt lat="43.2803517" lon="12.077395"><ele>883.8</ele><time>2026-04-03T06:58:28.128Z</time></trkpt><trkpt lat="43.2802767" lon="12.0775083"><ele>883.2</ele><time>2026-04-03T06:58:29.128Z</time></trkpt><trkpt lat="43.280215" lon="12.07764"><ele>882.6</ele><time>2026-04-03T06:58:30.128Z</time></trkpt><trkpt lat="43.28017" lon="12.0777717"><ele>882.0</ele><time>2026-04-03T06:58:31.128Z</time></trkpt><trkpt lat="43.2801417" lon="12.077925"><ele>882.0</ele><time>2026-04-03T06:58:32.128Z</time></trkpt><trkpt lat="43.28013" lon="12.0780667"><ele>882.0</ele><time>2026-04-03T06:58:33.129Z</time></trkpt><trkpt lat="43.2801183" lon="12.0782167"><ele>882.0</ele><time>2026-04-03T06:58:34.128Z</time></trkpt><trkpt lat="43.2801233" lon="12.0783883"><ele>882.0</ele><time>2026-04-03T06:58:35.128Z</time></trkpt><trkpt lat="43.2801283" lon="12.07858"><ele>883.3333333333333</ele><time>2026-04-03T06:58:36.129Z</time></trkpt><trkpt lat="43.2801433" lon="12.078785"><ele>884.6666666666666</ele><time>2026-04-03T06:58:37.128Z</time></trkpt><trkpt lat="43.280155" lon="12.0790017"><ele>886.0</ele><time>2026-04-03T06:58:38.129Z</time></trkpt><trkpt lat="43.280155" lon="12.0792017"><ele>886.8</ele><time>2026-04-03T06:58:39.128Z</time></trkpt><trkpt lat="43.2801583" lon="12.0793917"><ele>887.5999999999999</ele><time>2026-04-03T06:58:40.128Z</time></trkpt><trkpt lat="43.280155" lon="12.0795467"><ele>888.4</ele><time>2026-04-03T06:58:41.129Z</time></trkpt><trkpt lat="43.2801433" lon="12.0796483"><ele>889.2</ele><time>2026-04-03T06:58:42.128Z</time></trkpt><trkpt lat="43.2801183" lon="12.0797767"><ele>890.0</ele><time>2026-04-03T06:58:44.128Z</time></trkpt><trkpt lat="43.2800683" lon="12.0798583"><ele>890.2</ele><time>2026-04-03T06:58:46.128Z</time></trkpt><trkpt lat="43.2799633" lon="12.07995"><ele>890.4</ele><time>2026-04-03T06:58:48.128Z</time></trkpt><trkpt lat="43.2798983" lon="12.0800083"><ele>890.5999999999999</ele><time>2026-04-03T06:58:49.128Z</time></trkpt><trkpt lat="43.2798233" lon="12.080075"><ele>890.8</ele><time>2026-04-03T06:58:50.128Z</time></trkpt><trkpt lat="43.27975" lon="12.0801667"><ele>891.0</ele><time>2026-04-03T06:58:51.129Z</time></trkpt><trkpt lat="43.2796717" lon="12.0802817"><ele>891.5</ele><time>2026-04-03T06:58:52.128Z</time></trkpt><trkpt lat="43.2795783" lon="12.0804"><ele>892.0</ele><time>2026-04-03T06:58:53.128Z</time></trkpt><trkpt lat="43.27947" lon="12.0805317"><ele>892.5</ele><time>2026-04-03T06:58:54.128Z</time></trkpt><trkpt lat="43.2793483" lon="12.0806483"><ele>893.0</ele><time>2026-04-03T06:58:55.128Z</time></trkpt><trkpt lat="43.2792383" lon="12.0807267"><ele>893.0</ele><time>2026-04-03T06:58:56.129Z</time></trkpt><trkpt lat="43.2791333" lon="12.080765"><ele>893.0</ele><time>2026-04-03T06:58:57.128Z</time></trkpt><trkpt lat="43.2790267" lon="12.0807817"><ele>893.0</ele><time>2026-04-03T06:58:58.128Z</time></trkpt><trkpt lat="43.2789283" lon="12.0807983"><ele>893.0</ele><time>2026-04-03T06:58:59.128Z</time></trkpt><trkpt lat="43.2788467" lon="12.0808333"><ele>893.0</ele><time>2026-04-03T06:59:00.128Z</time></trkpt><trkpt lat="43.2787817" lon="12.08089"><ele>894.4</ele><time>2026-04-03T06:59:01.128Z</time></trkpt><trkpt lat="43.2787283" lon="12.0809667"><ele>895.8</ele><time>2026-04-03T06:59:02.129Z</time></trkpt><trkpt lat="43.2786717" lon="12.08103"><ele>897.2</ele><time>2026-04-03T06:59:03.128Z</time></trkpt><trkpt lat="43.2785833" lon="12.08111"><ele>898.6</ele><time>2026-04-03T06:59:05.128Z</time></trkpt><trkpt lat="43.2784967" lon="12.0811683"><ele>900.0</ele><time>2026-04-03T06:59:07.128Z</time></trkpt><trkpt lat="43.2783983" lon="12.0812517"><ele>900.0</ele><time>2026-04-03T06:59:09.128Z</time></trkpt><trkpt lat="43.2783033" lon="12.08132"><ele>900.0</ele><time>2026-04-03T06:59:11.128Z</time></trkpt><trkpt lat="43.278235" lon="12.081345"><ele>900.0</ele><time>2026-04-03T06:59:12.128Z</time></trkpt><trkpt lat="43.2781633" lon="12.081365"><ele>900.0</ele><time>2026-04-03T06:59:13.128Z</time></trkpt><trkpt lat="43.27809" lon="12.0813883"><ele>900.0</ele><time>2026-04-03T06:59:14.128Z</time></trkpt><trkpt lat="43.2780217" lon="12.0814133"><ele>900.0</ele><time>2026-04-03T06:59:15.128Z</time></trkpt><trkpt lat="43.27795" lon="12.0814533"><ele>899.6666666666666</ele><time>2026-04-03T06:59:16.128Z</time></trkpt><trkpt lat="43.2778767" lon="12.0815117"><ele>899.3333333333333</ele><time>2026-04-03T06:59:17.128Z</time></trkpt><trkpt lat="43.2778033" lon="12.0815833"><ele>899.0</ele><time>2026-04-03T06:59:18.128Z</time></trkpt><trkpt lat="43.277735" lon="12.081655"><ele>898.6666666666666</ele><time>2026-04-03T06:59:19.129Z</time></trkpt><trkpt lat="43.277675" lon="12.0817317"><ele>898.3333333333333</ele><time>2026-04-03T06:59:20.128Z</time></trkpt><trkpt lat="43.277615" lon="12.0818217"><ele>898.0</ele><time>2026-04-03T06:59:21.128Z</time></trkpt><trkpt lat="43.2775433" lon="12.081925"><ele>898.0</ele><time>2026-04-03T06:59:22.128Z</time></trkpt><trkpt lat="43.27747" lon="12.08205"><ele>898.0</ele><time>2026-04-03T06:59:23.128Z</time></trkpt><trkpt lat="43.2773933" lon="12.0821933"><ele>898.0</ele><time>2026-04-03T06:59:24.128Z</time></trkpt><trkpt lat="43.2773133" lon="12.0823533"><ele>898.0</ele><time>2026-04-03T06:59:25.128Z</time></trkpt><trkpt lat="43.27723" lon="12.0825067"><ele>899.0</ele><time>2026-04-03T06:59:26.128Z</time></trkpt><trkpt lat="43.2771533" lon="12.082655"><ele>900.0</ele><time>2026-04-03T06:59:27.128Z</time></trkpt><trkpt lat="43.2770767" lon="12.08279"><ele>901.0</ele><time>2026-04-03T06:59:28.128Z</time></trkpt><trkpt lat="43.27701" lon="12.08291"><ele>902.0</ele><time>2026-04-03T06:59:29.128Z</time></trkpt><trkpt lat="43.27695" lon="12.0830283"><ele>902.0000000000001</ele><time>2026-04-03T06:59:30.128Z</time></trkpt><trkpt lat="43.2768967" lon="12.0831283"><ele>902.0</ele><time>2026-04-03T06:59:31.129Z</time></trkpt><trkpt lat="43.2768567" lon="12.0832167"><ele>902.0</ele><time>2026-04-03T06:59:32.128Z</time></trkpt><trkpt lat="43.2768233" lon="12.08332"><ele>902.0</ele><time>2026-04-03T06:59:33.128Z</time></trkpt><trkpt lat="43.2767933" lon="12.0834317"><ele>902.0000000000001</ele><time>2026-04-03T06:59:34.128Z</time></trkpt><trkpt lat="43.2767567" lon="12.0835717"><ele>902.0</ele><time>2026-04-03T06:59:35.128Z</time></trkpt><trkpt lat="43.2767167" lon="12.0837017"><ele>903.4000000000001</ele><time>2026-04-03T06:59:36.128Z</time></trkpt><trkpt lat="43.2766633" lon="12.083825"><ele>904.8000000000001</ele><time>2026-04-03T06:59:37.128Z</time></trkpt><trkpt lat="43.2765967" lon="12.0839417"><ele>906.2</ele><time>2026-04-03T06:59:38.129Z</time></trkpt><trkpt lat="43.2765317" lon="12.0840517"><ele>907.6</ele><time>2026-04-03T06:59:39.128Z</time></trkpt><trkpt lat="43.2764767" lon="12.0841583"><ele>909.0</ele><time>2026-04-03T06:59:40.129Z</time></trkpt><trkpt lat="43.276425" lon="12.0842433"><ele>909.0</ele><time>2026-04-03T06:59:41.128Z</time></trkpt><trkpt lat="43.276375" lon="12.0843117"><ele>909.0</ele><time>2026-04-03T06:59:42.128Z</time></trkpt><trkpt lat="43.2763067" lon="12.0843667"><ele>909.0</ele><time>2026-04-03T06:59:44.128Z</time></trkpt><trkpt lat="43.27628" lon="12.0842883"><ele>909.0</ele><time>2026-04-03T07:00:05.128Z</time></trkpt><trkpt lat="43.2763583" lon="12.084295"><ele>909.0</ele><time>2026-04-03T07:00:12.129Z</time></trkpt><trkpt lat="43.2763883" lon="12.08438"><ele>909.0</ele><time>2026-04-03T07:00:14.128Z</time></trkpt><trkpt lat="43.2764" lon="12.0845583"><ele>909.0</ele><time>2026-04-03T07:00:16.128Z</time></trkpt><trkpt lat="43.2763867" lon="12.0846567"><ele>909.0</ele><time>2026-04-03T07:00:17.128Z</time></trkpt><trkpt lat="43.27636" lon="12.084755"><ele>909.0</ele><time>2026-04-03T07:00:18.127Z</time></trkpt><trkpt lat="43.2763217" lon="12.0848417"><ele>909.0</ele><time>2026-04-03T07:00:19.127Z</time></trkpt><trkpt lat="43.2762667" lon="12.0849367"><ele>909.0</ele><time>2026-04-03T07:00:20.127Z</time></trkpt><trkpt lat="43.276205" lon="12.0850283"><ele>909.0</ele><time>2026-04-03T07:00:21.128Z</time></trkpt><trkpt lat="43.2761567" lon="12.085135"><ele>910.0</ele><time>2026-04-03T07:00:22.127Z</time></trkpt><trkpt lat="43.2761283" lon="12.0852633"><ele>911.0000000000001</ele><time>2026-04-03T07:00:23.128Z</time></trkpt><trkpt lat="43.2761233" lon="12.08541"><ele>912.0000000000001</ele><time>2026-04-03T07:00:24.128Z</time></trkpt><trkpt lat="43.276125" lon="12.085535"><ele>913.0</ele><time>2026-04-03T07:00:25.127Z</time></trkpt><trkpt lat="43.2761067" lon="12.08565"><ele>914.0</ele><time>2026-04-03T07:00:26.128Z</time></trkpt><trkpt lat="43.2760633" lon="12.0857533"><ele>915.4000000000001</ele><time>2026-04-03T07:00:27.128Z</time></trkpt><trkpt lat="43.2760083" lon="12.085855"><ele>916.8000000000001</ele><time>2026-04-03T07:00:28.127Z</time></trkpt><trkpt lat="43.2759433" lon="12.0859667"><ele>918.1999999999999</ele><time>2026-04-03T07:00:29.127Z</time></trkpt><trkpt lat="43.2758767" lon="12.0860833"><ele>919.5999999999999</ele><time>2026-04-03T07:00:30.127Z</time></trkpt><trkpt lat="43.27581" lon="12.0862017"><ele>921.0</ele><time>2026-04-03T07:00:31.127Z</time></trkpt><trkpt lat="43.2757417" lon="12.0863233"><ele>921.0</ele><time>2026-04-03T07:00:32.127Z</time></trkpt><trkpt lat="43.27567" lon="12.086415"><ele>920.9999999999999</ele><time>2026-04-03T07:00:33.127Z</time></trkpt><trkpt lat="43.2755917" lon="12.0865133"><ele>920.9999999999999</ele><time>2026-04-03T07:00:34.128Z</time></trkpt><trkpt lat="43.2755183" lon="12.0866083"><ele>921.0</ele><time>2026-04-03T07:00:35.128Z</time></trkpt><trkpt lat="43.2754567" lon="12.0867267"><ele>921.0</ele><time>2026-04-03T07:00:36.127Z</time></trkpt><trkpt lat="43.27541" lon="12.0868533"><ele>919.1999999999999</ele><time>2026-04-03T07:00:37.128Z</time></trkpt><trkpt lat="43.2753817" lon="12.086965"><ele>917.3999999999999</ele><time>2026-04-03T07:00:38.127Z</time></trkpt><trkpt lat="43.275325" lon="12.0870883"><ele>915.6</ele><time>2026-04-03T07:00:40.127Z</time></trkpt><trkpt lat="43.2752533" lon="12.0871733"><ele>913.8</ele><time>2026-04-03T07:00:43.127Z</time></trkpt><trkpt lat="43.2751283" lon="12.0872517"><ele>912.0</ele><time>2026-04-03T07:00:45.128Z</time></trkpt><trkpt lat="43.27503" lon="12.087315"><ele>912.0</ele><time>2026-04-03T07:00:46.127Z</time></trkpt><trkpt lat="43.2749233" lon="12.0873867"><ele>912.0</ele><time>2026-04-03T07:00:47.127Z</time></trkpt><trkpt lat="43.2748333" lon="12.087465"><ele>912.0</ele><time>2026-04-03T07:00:48.128Z</time></trkpt><trkpt lat="43.27477" lon="12.0875233"><ele>912.0</ele><time>2026-04-03T07:00:49.127Z</time></trkpt><trkpt lat="43.274705" lon="12.0876233"><ele>912.0</ele><time>2026-04-03T07:00:51.127Z</time></trkpt><trkpt lat="43.27467" lon="12.0877083"><ele>911.0</ele><time>2026-04-03T07:01:06.127Z</time></trkpt><trkpt lat="43.2746017" lon="12.0877917"><ele>910.0</ele><time>2026-04-03T07:01:09.128Z</time></trkpt><trkpt lat="43.274535" lon="12.087845"><ele>909.0</ele><time>2026-04-03T07:01:11.128Z</time></trkpt><trkpt lat="43.2744683" lon="12.0878933"><ele>908.0</ele><time>2026-04-03T07:01:13.127Z</time></trkpt><trkpt lat="43.2743917" lon="12.0879483"><ele>907.0</ele><time>2026-04-03T07:01:15.127Z</time></trkpt><trkpt lat="43.2743333" lon="12.0879933"><ele>906.0</ele><time>2026-04-03T07:01:17.128Z</time></trkpt><trkpt lat="43.2742883" lon="12.08806"><ele>906.0</ele><time>2026-04-03T07:01:19.127Z</time></trkpt><trkpt lat="43.274205" lon="12.0881083"><ele>906.0</ele><time>2026-04-03T07:01:21.127Z</time></trkpt><trkpt lat="43.2741133" lon="12.0881567"><ele>906.0</ele><time>2026-04-03T07:01:23.127Z</time></trkpt><trkpt lat="43.2740583" lon="12.0882217"><ele>906.0</ele><time>2026-04-03T07:01:25.127Z</time></trkpt><trkpt lat="43.27401" lon="12.088305"><ele>906.0</ele><time>2026-04-03T07:01:28.127Z</time></trkpt><trkpt lat="43.273965" lon="12.0884033"><ele>906.0</ele><time>2026-04-03T07:01:31.127Z</time></trkpt><trkpt lat="43.273905" lon="12.088485"><ele>903.6666666666666</ele><time>2026-04-03T07:01:33.127Z</time></trkpt><trkpt lat="43.2738017" lon="12.0885733"><ele>901.3333333333333</ele><time>2026-04-03T07:01:35.127Z</time></trkpt><trkpt lat="43.27374" lon="12.0886217"><ele>899.0</ele><time>2026-04-03T07:01:36.127Z</time></trkpt><trkpt lat="43.2736783" lon="12.0886767"><ele>896.6666666666666</ele><time>2026-04-03T07:01:37.127Z</time></trkpt><trkpt lat="43.2736133" lon="12.08874"><ele>894.3333333333333</ele><time>2026-04-03T07:01:38.127Z</time></trkpt><trkpt lat="43.2735417" lon="12.0888017"><ele>892.0</ele><time>2026-04-03T07:01:39.128Z</time></trkpt><trkpt lat="43.2734633" lon="12.088855"><ele>891.9999999999999</ele><time>2026-04-03T07:01:40.128Z</time></trkpt><trkpt lat="43.2733817" lon="12.0889183"><ele>892.0</ele><time>2026-04-03T07:01:41.127Z</time></trkpt><trkpt lat="43.273315" lon="12.0889783"><ele>892.0</ele><time>2026-04-03T07:01:42.127Z</time></trkpt><trkpt lat="43.2732467" lon="12.0890233"><ele>892.0</ele><time>2026-04-03T07:01:43.127Z</time></trkpt><trkpt lat="43.2731767" lon="12.0890683"><ele>891.9999999999999</ele><time>2026-04-03T07:01:44.127Z</time></trkpt><trkpt lat="43.2731083" lon="12.0891033"><ele>892.0</ele><time>2026-04-03T07:01:45.127Z</time></trkpt><trkpt lat="43.2730383" lon="12.0891433"><ele>890.3333333333333</ele><time>2026-04-03T07:01:46.127Z</time></trkpt><trkpt lat="43.2729733" lon="12.089175"><ele>888.6666666666666</ele><time>2026-04-03T07:01:47.127Z</time></trkpt><trkpt lat="43.27288" lon="12.0892383"><ele>887.0</ele><time>2026-04-03T07:01:49.127Z</time></trkpt><trkpt lat="43.2728133" lon="12.089285"><ele>885.3333333333333</ele><time>2026-04-03T07:01:51.128Z</time></trkpt><trkpt lat="43.272735" lon="12.0893383"><ele>883.6666666666666</ele><time>2026-04-03T07:01:53.127Z</time></trkpt><trkpt lat="43.272675" lon="12.0893833"><ele>882.0</ele><time>2026-04-03T07:01:55.127Z</time></trkpt><trkpt lat="43.27262" lon="12.089455"><ele>882.0</ele><time>2026-04-03T07:02:03.127Z</time></trkpt><trkpt lat="43.2725283" lon="12.0895483"><ele>882.0</ele><time>2026-04-03T07:02:05.127Z</time></trkpt><trkpt lat="43.27246" lon="12.0896067"><ele>882.0</ele><time>2026-04-03T07:02:07.127Z</time></trkpt><trkpt lat="43.2723917" lon="12.089685"><ele>882.0</ele><time>2026-04-03T07:02:09.127Z</time></trkpt><trkpt lat="43.2723067" lon="12.0897567"><ele>882.0</ele><time>2026-04-03T07:02:11.128Z</time></trkpt><trkpt lat="43.2722233" lon="12.08979"><ele>879.3333333333334</ele><time>2026-04-03T07:02:13.127Z</time></trkpt><trkpt lat="43.27215" lon="12.0898417"><ele>876.6666666666667</ele><time>2026-04-03T07:02:15.127Z</time></trkpt><trkpt lat="43.2720783" lon="12.0898917"><ele>874.0</ele><time>2026-04-03T07:02:17.127Z</time></trkpt><trkpt lat="43.27201" lon="12.089935"><ele>871.3333333333334</ele><time>2026-04-03T07:02:19.128Z</time></trkpt><trkpt lat="43.2719383" lon="12.0899733"><ele>868.6666666666667</ele><time>2026-04-03T07:02:21.127Z</time></trkpt><trkpt lat="43.2718533" lon="12.0900367"><ele>866.0</ele><time>2026-04-03T07:02:23.127Z</time></trkpt><trkpt lat="43.27178" lon="12.0900867"><ele>866.0000000000001</ele><time>2026-04-03T07:02:25.127Z</time></trkpt><trkpt lat="43.2717083" lon="12.0901333"><ele>866.0</ele><time>2026-04-03T07:02:27.128Z</time></trkpt><trkpt lat="43.2716383" lon="12.090175"><ele>866.0</ele><time>2026-04-03T07:02:29.127Z</time></trkpt><trkpt lat="43.27156" lon="12.0902333"><ele>866.0</ele><time>2026-04-03T07:02:31.127Z</time></trkpt><trkpt lat="43.27149" lon="12.0902833"><ele>866.0000000000001</ele><time>2026-04-03T07:02:33.127Z</time></trkpt><trkpt lat="43.2714467" lon="12.090355"><ele>866.0</ele><time>2026-04-03T07:02:35.127Z</time></trkpt><trkpt lat="43.2714083" lon="12.0904483"><ele>862.5999999999999</ele><time>2026-04-03T07:02:37.127Z</time></trkpt><trkpt lat="43.2713567" lon="12.0905517"><ele>859.1999999999999</ele><time>2026-04-03T07:02:40.127Z</time></trkpt><trkpt lat="43.27129" lon="12.09062"><ele>855.8</ele><time>2026-04-03T07:02:42.127Z</time></trkpt><trkpt lat="43.2712083" lon="12.09069"><ele>852.4000000000001</ele><time>2026-04-03T07:02:44.127Z</time></trkpt><trkpt lat="43.2711283" lon="12.0907583"><ele>849.0</ele><time>2026-04-03T07:02:46.127Z</time></trkpt><trkpt lat="43.2710517" lon="12.0908317"><ele>849.0</ele><time>2026-04-03T07:02:48.127Z</time></trkpt><trkpt lat="43.27099" lon="12.0908833"><ele>849.0</ele><time>2026-04-03T07:02:50.127Z</time></trkpt><trkpt lat="43.270905" lon="12.0909733"><ele>849.0</ele><time>2026-04-03T07:02:53.127Z</time></trkpt><trkpt lat="43.2708383" lon="12.0910667"><ele>849.0</ele><time>2026-04-03T07:02:55.127Z</time></trkpt><trkpt lat="43.27074" lon="12.09118"><ele>849.0</ele><time>2026-04-03T07:02:57.128Z</time></trkpt><trkpt lat="43.270685" lon="12.091245"><ele>849.0000000000001</ele><time>2026-04-03T07:02:58.127Z</time></trkpt><trkpt lat="43.27064" lon="12.0913183"><ele>849.0</ele><time>2026-04-03T07:02:59.128Z</time></trkpt><trkpt lat="43.27059" lon="12.0913767"><ele>849.0</ele><time>2026-04-03T07:03:00.127Z</time></trkpt><trkpt lat="43.27053" lon="12.09142"><ele>849.0</ele><time>2026-04-03T07:03:01.128Z</time></trkpt><trkpt lat="43.2704583" lon="12.0914467"><ele>849.0</ele><time>2026-04-03T07:03:02.127Z</time></trkpt><trkpt lat="43.27038" lon="12.091465"><ele>849.0000000000001</ele><time>2026-04-03T07:03:03.128Z</time></trkpt><trkpt lat="43.2703017" lon="12.0914817"><ele>849.0</ele><time>2026-04-03T07:03:04.128Z</time></trkpt><trkpt lat="43.2702217" lon="12.0914933"><ele>848.4000000000001</ele><time>2026-04-03T07:03:05.127Z</time></trkpt><trkpt lat="43.2701483" lon="12.0915017"><ele>847.8</ele><time>2026-04-03T07:03:06.128Z</time></trkpt><trkpt lat="43.2700317" lon="12.0915267"><ele>847.2</ele><time>2026-04-03T07:03:08.127Z</time></trkpt><trkpt lat="43.2699317" lon="12.0915967"><ele>846.5999999999999</ele><time>2026-04-03T07:03:10.128Z</time></trkpt><trkpt lat="43.2698133" lon="12.0916683"><ele>846.0</ele><time>2026-04-03T07:03:12.127Z</time></trkpt><trkpt lat="43.26974" lon="12.0917067"><ele>844.5</ele><time>2026-04-03T07:03:13.127Z</time></trkpt><trkpt lat="43.26966" lon="12.0917433"><ele>843.0</ele><time>2026-04-03T07:03:14.128Z</time></trkpt><trkpt lat="43.2695767" lon="12.0917783"><ele>841.5</ele><time>2026-04-03T07:03:15.128Z</time></trkpt><trkpt lat="43.2694933" lon="12.0917933"><ele>840.0</ele><time>2026-04-03T07:03:16.127Z</time></trkpt><trkpt lat="43.2694117" lon="12.091805"><ele>838.5</ele><time>2026-04-03T07:03:17.127Z</time></trkpt><trkpt lat="43.26934" lon="12.09181"><ele>837.0</ele><time>2026-04-03T07:03:18.128Z</time></trkpt><trkpt lat="43.2692367" lon="12.0918367"><ele>837.0</ele><time>2026-04-03T07:03:20.127Z</time></trkpt><trkpt lat="43.2691633" lon="12.091905"><ele>837.0</ele><time>2026-04-03T07:03:22.128Z</time></trkpt><trkpt lat="43.26909" lon="12.0919917"><ele>837.0</ele><time>2026-04-03T07:03:24.128Z</time></trkpt><trkpt lat="43.2690117" lon="12.0920967"><ele>837.0</ele><time>2026-04-03T07:03:26.127Z</time></trkpt><trkpt lat="43.2689417" lon="12.0921983"><ele>837.0</ele><time>2026-04-03T07:03:28.128Z</time></trkpt><trkpt lat="43.2688917" lon="12.0923067"><ele>835.0</ele><time>2026-04-03T07:03:30.127Z</time></trkpt><trkpt lat="43.268855" lon="12.0924383"><ele>833.0</ele><time>2026-04-03T07:03:32.127Z</time></trkpt><trkpt lat="43.268835" lon="12.0925233"><ele>831.0</ele><time>2026-04-03T07:03:33.127Z</time></trkpt><trkpt lat="43.2688117" lon="12.09262"><ele>829.0</ele><time>2026-04-03T07:03:34.127Z</time></trkpt><trkpt lat="43.2687683" lon="12.0927167"><ele>827.0</ele><time>2026-04-03T07:03:35.127Z</time></trkpt><trkpt lat="43.2687283" lon="12.0928233"><ele>825.0</ele><time>2026-04-03T07:03:36.127Z</time></trkpt><trkpt lat="43.268695" lon="12.0929217"><ele>825.0</ele><time>2026-04-03T07:03:37.128Z</time></trkpt><trkpt lat="43.26864" lon="12.0930433"><ele>825.0</ele><time>2026-04-03T07:03:38.127Z</time></trkpt><trkpt lat="43.26859" lon="12.0931583"><ele>825.0</ele><time>2026-04-03T07:03:39.128Z</time></trkpt><trkpt lat="43.2685433" lon="12.0932667"><ele>825.0</ele><time>2026-04-03T07:03:40.128Z</time></trkpt><trkpt lat="43.2685183" lon="12.0933467"><ele>825.0</ele><time>2026-04-03T07:03:41.127Z</time></trkpt><trkpt lat="43.26847" lon="12.0934533"><ele>825.0</ele><time>2026-04-03T07:03:43.128Z</time></trkpt><trkpt lat="43.2684033" lon="12.0934767"><ele>824.8333333333334</ele><time>2026-04-03T07:03:45.127Z</time></trkpt><trkpt lat="43.2683117" lon="12.093515"><ele>824.6666666666667</ele><time>2026-04-03T07:03:47.127Z</time></trkpt><trkpt lat="43.2682333" lon="12.0935933"><ele>824.5</ele><time>2026-04-03T07:03:49.127Z</time></trkpt><trkpt lat="43.2682017" lon="12.0936717"><ele>824.3333333333334</ele><time>2026-04-03T07:03:50.127Z</time></trkpt><trkpt lat="43.2681667" lon="12.093775"><ele>824.1666666666667</ele><time>2026-04-03T07:03:51.127Z</time></trkpt><trkpt lat="43.2681267" lon="12.0938767"><ele>824.0</ele><time>2026-04-03T07:03:52.128Z</time></trkpt><trkpt lat="43.26809" lon="12.0939633"><ele>823.6666666666667</ele><time>2026-04-03T07:03:53.127Z</time></trkpt><trkpt lat="43.268045" lon="12.0940383"><ele>823.3333333333334</ele><time>2026-04-03T07:03:54.127Z</time></trkpt><trkpt lat="43.26798" lon="12.094085"><ele>823.0</ele><time>2026-04-03T07:03:55.128Z</time></trkpt><trkpt lat="43.267905" lon="12.09411"><ele>822.6666666666667</ele><time>2026-04-03T07:03:56.127Z</time></trkpt><trkpt lat="43.2678317" lon="12.0941"><ele>822.3333333333334</ele><time>2026-04-03T07:03:57.127Z</time></trkpt><trkpt lat="43.2677533" lon="12.0940717"><ele>822.0</ele><time>2026-04-03T07:03:58.127Z</time></trkpt><trkpt lat="43.267675" lon="12.0940133"><ele>820.3333333333334</ele><time>2026-04-03T07:03:59.127Z</time></trkpt><trkpt lat="43.2676017" lon="12.093955"><ele>818.6666666666667</ele><time>2026-04-03T07:04:00.127Z</time></trkpt><trkpt lat="43.2675367" lon="12.0939017"><ele>817.0</ele><time>2026-04-03T07:04:01.128Z</time></trkpt><trkpt lat="43.26747" lon="12.093875"><ele>815.3333333333334</ele><time>2026-04-03T07:04:02.127Z</time></trkpt><trkpt lat="43.2673467" lon="12.093845"><ele>813.6666666666667</ele><time>2026-04-03T07:04:04.127Z</time></trkpt><trkpt lat="43.2672817" lon="12.0938517"><ele>812.0</ele><time>2026-04-03T07:04:05.127Z</time></trkpt><trkpt lat="43.267205" lon="12.093865"><ele>809.6</ele><time>2026-04-03T07:04:06.127Z</time></trkpt><trkpt lat="43.2671333" lon="12.0938717"><ele>807.2</ele><time>2026-04-03T07:04:07.128Z</time></trkpt><trkpt lat="43.2670167" lon="12.0938883"><ele>804.8</ele><time>2026-04-03T07:04:09.128Z</time></trkpt><trkpt lat="43.2669117" lon="12.0938933"><ele>802.4</ele><time>2026-04-03T07:04:11.127Z</time></trkpt><trkpt lat="43.266805" lon="12.0939083"><ele>800.0</ele><time>2026-04-03T07:04:13.128Z</time></trkpt><trkpt lat="43.2666983" lon="12.09393"><ele>800.0000000000001</ele><time>2026-04-03T07:04:15.127Z</time></trkpt><trkpt lat="43.2666317" lon="12.094015"><ele>800.0</ele><time>2026-04-03T07:04:17.128Z</time></trkpt><trkpt lat="43.2665783" lon="12.0940917"><ele>800.0</ele><time>2026-04-03T07:04:20.127Z</time></trkpt><trkpt lat="43.2664933" lon="12.0941633"><ele>800.0</ele><time>2026-04-03T07:04:28.127Z</time></trkpt><trkpt lat="43.266425" lon="12.0941917"><ele>800.0000000000001</ele><time>2026-04-03T07:04:30.127Z</time></trkpt><trkpt lat="43.2663383" lon="12.094235"><ele>800.0</ele><time>2026-04-03T07:04:32.128Z</time></trkpt><trkpt lat="43.266245" lon="12.094285"><ele>798.4</ele><time>2026-04-03T07:04:34.128Z</time></trkpt><trkpt lat="43.2661633" lon="12.094355"><ele>796.8</ele><time>2026-04-03T07:04:36.127Z</time></trkpt><trkpt lat="43.2660767" lon="12.0944633"><ele>795.2</ele><time>2026-04-03T07:04:38.127Z</time></trkpt><trkpt lat="43.2660217" lon="12.094535"><ele>793.6</ele><time>2026-04-03T07:04:39.127Z</time></trkpt><trkpt lat="43.2659717" lon="12.0946183"><ele>792.0</ele><time>2026-04-03T07:04:40.127Z</time></trkpt><trkpt lat="43.26592" lon="12.0947167"><ele>792.0</ele><time>2026-04-03T07:04:41.127Z</time></trkpt><trkpt lat="43.2658833" lon="12.09482"><ele>792.0</ele><time>2026-04-03T07:04:42.127Z</time></trkpt><trkpt lat="43.265865" lon="12.0949033"><ele>792.0</ele><time>2026-04-03T07:04:43.127Z</time></trkpt><trkpt lat="43.2658267" lon="12.0949967"><ele>792.0</ele><time>2026-04-03T07:04:45.127Z</time></trkpt><trkpt lat="43.2657583" lon="12.0950467"><ele>792.0</ele><time>2026-04-03T07:04:48.127Z</time></trkpt><trkpt lat="43.2656517" lon="12.0950817"><ele>792.0</ele><time>2026-04-03T07:04:50.128Z</time></trkpt><trkpt lat="43.2655767" lon="12.0950883"><ele>792.0</ele><time>2026-04-03T07:04:51.128Z</time></trkpt><trkpt lat="43.2654917" lon="12.0950917"><ele>792.0</ele><time>2026-04-03T07:04:52.128Z</time></trkpt><trkpt lat="43.2653967" lon="12.0950917"><ele>792.0</ele><time>2026-04-03T07:04:53.127Z</time></trkpt><trkpt lat="43.2653083" lon="12.0950933"><ele>792.0</ele><time>2026-04-03T07:04:54.127Z</time></trkpt><trkpt lat="43.2652283" lon="12.0950783"><ele>792.0</ele><time>2026-04-03T07:04:55.127Z</time></trkpt><trkpt lat="43.2651333" lon="12.0950683"><ele>792.0</ele><time>2026-04-03T07:04:56.128Z</time></trkpt><trkpt lat="43.26504" lon="12.0950333"><ele>792.0</ele><time>2026-04-03T07:04:57.128Z</time></trkpt><trkpt lat="43.2649567" lon="12.09502"><ele>792.0</ele><time>2026-04-03T07:04:58.127Z</time></trkpt><trkpt lat="43.264875" lon="12.0950117"><ele>792.0</ele><time>2026-04-03T07:04:59.127Z</time></trkpt><trkpt lat="43.2647983" lon="12.0949983"><ele>792.0</ele><time>2026-04-03T07:05:00.128Z</time></trkpt><trkpt lat="43.26471" lon="12.0949833"><ele>792.0</ele><time>2026-04-03T07:05:01.127Z</time></trkpt><trkpt lat="43.2646233" lon="12.094965"><ele>792.0</ele><time>2026-04-03T07:05:02.127Z</time></trkpt><trkpt lat="43.2645417" lon="12.0949583"><ele>791.5</ele><time>2026-04-03T07:05:03.128Z</time></trkpt><trkpt lat="43.2644633" lon="12.09496"><ele>791.0</ele><time>2026-04-03T07:05:04.127Z</time></trkpt><trkpt lat="43.2643917" lon="12.0949883"><ele>790.5</ele><time>2026-04-03T07:05:05.127Z</time></trkpt><trkpt lat="43.2643233" lon="12.0950383"><ele>790.0</ele><time>2026-04-03T07:05:06.128Z</time></trkpt><trkpt lat="43.264255" lon="12.095095"><ele>789.5</ele><time>2026-04-03T07:05:07.127Z</time></trkpt><trkpt lat="43.264195" lon="12.09517"><ele>789.0</ele><time>2026-04-03T07:05:08.127Z</time></trkpt><trkpt lat="43.26415" lon="12.0952467"><ele>789.0</ele><time>2026-04-03T07:05:09.127Z</time></trkpt><trkpt lat="43.2641083" lon="12.09533"><ele>789.0</ele><time>2026-04-03T07:05:10.128Z</time></trkpt><trkpt lat="43.2640617" lon="12.0954233"><ele>789.0</ele><time>2026-04-03T07:05:11.127Z</time></trkpt><trkpt lat="43.2640117" lon="12.0955233"><ele>789.0</ele><time>2026-04-03T07:05:12.127Z</time></trkpt><trkpt lat="43.2639633" lon="12.0956167"><ele>789.0</ele><time>2026-04-03T07:05:13.127Z</time></trkpt><trkpt lat="43.26392" lon="12.0956983"><ele>789.0</ele><time>2026-04-03T07:05:14.127Z</time></trkpt><trkpt lat="43.26388" lon="12.09578"><ele>787.6666666666666</ele><time>2026-04-03T07:05:15.127Z</time></trkpt><trkpt lat="43.263845" lon="12.0958717"><ele>786.3333333333333</ele><time>2026-04-03T07:05:16.127Z</time></trkpt><trkpt lat="43.2638233" lon="12.0959667"><ele>785.0</ele><time>2026-04-03T07:05:17.127Z</time></trkpt><trkpt lat="43.2638267" lon="12.0960683"><ele>783.6666666666666</ele><time>2026-04-03T07:05:18.127Z</time></trkpt><trkpt lat="43.26384" lon="12.09617"><ele>782.3333333333333</ele><time>2026-04-03T07:05:19.127Z</time></trkpt><trkpt lat="43.2638467" lon="12.0962867"><ele>781.0</ele><time>2026-04-03T07:05:21.127Z</time></trkpt><trkpt lat="43.2638067" lon="12.0963783"><ele>780.9999999999999</ele><time>2026-04-03T07:05:23.127Z</time></trkpt><trkpt lat="43.2637767" lon="12.0965067"><ele>781.0</ele><time>2026-04-03T07:05:25.128Z</time></trkpt><trkpt lat="43.2637667" lon="12.0965933"><ele>781.0</ele><time>2026-04-03T07:05:26.127Z</time></trkpt><trkpt lat="43.2637583" lon="12.0966867"><ele>781.0</ele><time>2026-04-03T07:05:27.127Z</time></trkpt><trkpt lat="43.263745" lon="12.0967733"><ele>780.9999999999999</ele><time>2026-04-03T07:05:28.128Z</time></trkpt><trkpt lat="43.263665" lon="12.0968767"><ele>781.0</ele><time>2026-04-03T07:05:30.127Z</time></trkpt><trkpt lat="43.2636" lon="12.0969067"><ele>781.4999999999999</ele><time>2026-04-03T07:05:31.128Z</time></trkpt><trkpt lat="43.263535" lon="12.096925"><ele>782.0</ele><time>2026-04-03T07:05:32.127Z</time></trkpt><trkpt lat="43.263405" lon="12.096935"><ele>782.5</ele><time>2026-04-03T07:05:34.127Z</time></trkpt><trkpt lat="43.2633317" lon="12.0969467"><ele>783.0</ele><time>2026-04-03T07:05:35.128Z</time></trkpt><trkpt lat="43.263265" lon="12.0969517"><ele>783.4999999999999</ele><time>2026-04-03T07:05:36.128Z</time></trkpt><trkpt lat="43.2631917" lon="12.0969333"><ele>784.0</ele><time>2026-04-03T07:05:37.127Z</time></trkpt><trkpt lat="43.2631133" lon="12.096895"><ele>785.1666666666666</ele><time>2026-04-03T07:05:38.128Z</time></trkpt><trkpt lat="43.263015" lon="12.096845"><ele>786.3333333333333</ele><time>2026-04-03T07:05:40.127Z</time></trkpt><trkpt lat="43.2629383" lon="12.096775"><ele>787.5</ele><time>2026-04-03T07:05:42.128Z</time></trkpt><trkpt lat="43.2628783" lon="12.09672"><ele>788.6666666666667</ele><time>2026-04-03T07:05:43.127Z</time></trkpt><trkpt lat="43.2628133" lon="12.09667"><ele>789.8333333333334</ele><time>2026-04-03T07:05:44.127Z</time></trkpt><trkpt lat="43.2627517" lon="12.0966267"><ele>791.0</ele><time>2026-04-03T07:05:45.127Z</time></trkpt><trkpt lat="43.2626833" lon="12.096595"><ele>789.0</ele><time>2026-04-03T07:05:47.128Z</time></trkpt><trkpt lat="43.2626067" lon="12.096525"><ele>787.0</ele><time>2026-04-03T07:05:50.127Z</time></trkpt><trkpt lat="43.26252" lon="12.0964433"><ele>785.0</ele><time>2026-04-03T07:05:52.127Z</time></trkpt><trkpt lat="43.2624033" lon="12.0963933"><ele>783.0</ele><time>2026-04-03T07:05:54.127Z</time></trkpt><trkpt lat="43.2623383" lon="12.096375"><ele>781.0</ele><time>2026-04-03T07:05:55.127Z</time></trkpt><trkpt lat="43.2622233" lon="12.096355"><ele>780.8333333333333</ele><time>2026-04-03T07:05:57.127Z</time></trkpt><trkpt lat="43.2621183" lon="12.096325"><ele>780.6666666666666</ele><time>2026-04-03T07:05:59.127Z</time></trkpt><trkpt lat="43.2620567" lon="12.0963067"><ele>780.5</ele><time>2026-04-03T07:06:00.127Z</time></trkpt><trkpt lat="43.2619933" lon="12.0962933"><ele>780.3333333333333</ele><time>2026-04-03T07:06:01.127Z</time></trkpt><trkpt lat="43.26193" lon="12.0962867"><ele>780.1666666666666</ele><time>2026-04-03T07:06:02.127Z</time></trkpt><trkpt lat="43.2618317" lon="12.0962767"><ele>780.0</ele><time>2026-04-03T07:06:04.127Z</time></trkpt><trkpt lat="43.2617433" lon="12.096235"><ele>780.0</ele><time>2026-04-03T07:06:06.128Z</time></trkpt><trkpt lat="43.2616467" lon="12.0961717"><ele>780.0</ele><time>2026-04-03T07:06:08.127Z</time></trkpt><trkpt lat="43.26154" lon="12.096105"><ele>780.0</ele><time>2026-04-03T07:06:10.127Z</time></trkpt><trkpt lat="43.26148" lon="12.0960533"><ele>780.0</ele><time>2026-04-03T07:06:11.128Z</time></trkpt><trkpt lat="43.261425" lon="12.0959967"><ele>780.0</ele><time>2026-04-03T07:06:12.127Z</time></trkpt><trkpt lat="43.2613067" lon="12.095945"><ele>779.3333333333334</ele><time>2026-04-03T07:06:14.127Z</time></trkpt><trkpt lat="43.2612233" lon="12.0959433"><ele>778.6666666666667</ele><time>2026-04-03T07:06:15.127Z</time></trkpt><trkpt lat="43.261135" lon="12.0959383"><ele>778.0</ele><time>2026-04-03T07:06:16.127Z</time></trkpt><trkpt lat="43.26106" lon="12.0959133"><ele>777.3333333333334</ele><time>2026-04-03T07:06:17.128Z</time></trkpt><trkpt lat="43.260975" lon="12.095895"><ele>776.6666666666667</ele><time>2026-04-03T07:06:18.127Z</time></trkpt><trkpt lat="43.2609" lon="12.0958633"><ele>776.0</ele><time>2026-04-03T07:06:19.128Z</time></trkpt><trkpt lat="43.2608283" lon="12.0958333"><ele>776.0000000000001</ele><time>2026-04-03T07:06:20.127Z</time></trkpt><trkpt lat="43.2607567" lon="12.095805"><ele>776.0</ele><time>2026-04-03T07:06:21.127Z</time></trkpt><trkpt lat="43.2606783" lon="12.0958067"><ele>776.0</ele><time>2026-04-03T07:06:22.128Z</time></trkpt><trkpt lat="43.2605917" lon="12.0958183"><ele>776.0</ele><time>2026-04-03T07:06:23.127Z</time></trkpt><trkpt lat="43.2605067" lon="12.0958367"><ele>776.0000000000001</ele><time>2026-04-03T07:06:24.127Z</time></trkpt><trkpt lat="43.2604417" lon="12.0958683"><ele>776.0</ele><time>2026-04-03T07:06:25.128Z</time></trkpt><trkpt lat="43.26038" lon="12.09591"><ele>774.8333333333334</ele><time>2026-04-03T07:06:26.127Z</time></trkpt><trkpt lat="43.260315" lon="12.0959633"><ele>773.6666666666667</ele><time>2026-04-03T07:06:27.128Z</time></trkpt><trkpt lat="43.2602533" lon="12.0960167"><ele>772.5</ele><time>2026-04-03T07:06:28.127Z</time></trkpt><trkpt lat="43.2601867" lon="12.0960533"><ele>771.3333333333333</ele><time>2026-04-03T07:06:29.128Z</time></trkpt><trkpt lat="43.2601217" lon="12.0960867"><ele>770.1666666666666</ele><time>2026-04-03T07:06:30.127Z</time></trkpt><trkpt lat="43.2600583" lon="12.0961083"><ele>769.0</ele><time>2026-04-03T07:06:31.127Z</time></trkpt><trkpt lat="43.2599367" lon="12.0961067"><ele>768.9999999999999</ele><time>2026-04-03T07:06:33.127Z</time></trkpt><trkpt lat="43.25987" lon="12.0960667"><ele>769.0</ele><time>2026-04-03T07:06:34.127Z</time></trkpt><trkpt lat="43.2597967" lon="12.0960117"><ele>769.0</ele><time>2026-04-03T07:06:35.128Z</time></trkpt><trkpt lat="43.2597133" lon="12.0959483"><ele>769.0</ele><time>2026-04-03T07:06:36.128Z</time></trkpt><trkpt lat="43.2596367" lon="12.0959117"><ele>768.9999999999999</ele><time>2026-04-03T07:06:37.128Z</time></trkpt><trkpt lat="43.2595567" lon="12.09588"><ele>769.0</ele><time>2026-04-03T07:06:38.127Z</time></trkpt><trkpt lat="43.2594817" lon="12.0958367"><ele>768.9999999999999</ele><time>2026-04-03T07:06:39.127Z</time></trkpt><trkpt lat="43.2593983" lon="12.0958067"><ele>769.0</ele><time>2026-04-03T07:06:40.127Z</time></trkpt><trkpt lat="43.259305" lon="12.0957783"><ele>769.0</ele><time>2026-04-03T07:06:41.128Z</time></trkpt><trkpt lat="43.2592233" lon="12.0957483"><ele>769.0</ele><time>2026-04-03T07:06:42.128Z</time></trkpt><trkpt lat="43.2591483" lon="12.09572"><ele>768.9999999999999</ele><time>2026-04-03T07:06:43.127Z</time></trkpt><trkpt lat="43.259065" lon="12.0956717"><ele>769.0</ele><time>2026-04-03T07:06:44.127Z</time></trkpt><trkpt lat="43.258985" lon="12.0956333"><ele>765.1666666666666</ele><time>2026-04-03T07:06:45.127Z</time></trkpt><trkpt lat="43.2589067" lon="12.0956167"><ele>761.3333333333333</ele><time>2026-04-03T07:06:46.127Z</time></trkpt><trkpt lat="43.2588367" lon="12.0956233"><ele>757.5</ele><time>2026-04-03T07:06:47.127Z</time></trkpt><trkpt lat="43.258765" lon="12.0956383"><ele>753.6666666666666</ele><time>2026-04-03T07:06:48.127Z</time></trkpt><trkpt lat="43.2586867" lon="12.0956683"><ele>749.8333333333333</ele><time>2026-04-03T07:06:49.128Z</time></trkpt><trkpt lat="43.2585917" lon="12.095705"><ele>746.0</ele><time>2026-04-03T07:06:50.127Z</time></trkpt><trkpt lat="43.2584983" lon="12.0957383"><ele>747.4</ele><time>2026-04-03T07:06:51.128Z</time></trkpt><trkpt lat="43.2584033" lon="12.09577"><ele>748.8</ele><time>2026-04-03T07:06:52.127Z</time></trkpt><trkpt lat="43.25831" lon="12.0958033"><ele>750.1999999999999</ele><time>2026-04-03T07:06:53.128Z</time></trkpt><trkpt lat="43.25822" lon="12.095845"><ele>751.5999999999999</ele><time>2026-04-03T07:06:54.127Z</time></trkpt><trkpt lat="43.2581317" lon="12.0958717"><ele>753.0</ele><time>2026-04-03T07:06:55.127Z</time></trkpt><trkpt lat="43.258035" lon="12.09587"><ele>753.0</ele><time>2026-04-03T07:06:56.127Z</time></trkpt><trkpt lat="43.2579417" lon="12.0958733"><ele>753.0</ele><time>2026-04-03T07:06:57.127Z</time></trkpt><trkpt lat="43.2578583" lon="12.0958767"><ele>753.0</ele><time>2026-04-03T07:06:58.127Z</time></trkpt><trkpt lat="43.2577667" lon="12.09591"><ele>753.0</ele><time>2026-04-03T07:07:00.127Z</time></trkpt><trkpt lat="43.2577083" lon="12.0959617"><ele>753.0</ele><time>2026-04-03T07:07:03.127Z</time></trkpt><trkpt lat="43.257625" lon="12.0959533"><ele>753.0</ele><time>2026-04-03T07:07:06.127Z</time></trkpt><trkpt lat="43.2575733" lon="12.0959"><ele>753.0</ele><time>2026-04-03T07:07:08.127Z</time></trkpt><trkpt lat="43.257515" lon="12.0958283"><ele>753.0</ele><time>2026-04-03T07:07:10.127Z</time></trkpt><trkpt lat="43.25741" lon="12.095815"><ele>753.0</ele><time>2026-04-03T07:07:12.127Z</time></trkpt><trkpt lat="43.2573433" lon="12.095835"><ele>753.0</ele><time>2026-04-03T07:07:13.127Z</time></trkpt><trkpt lat="43.2572633" lon="12.0958767"><ele>753.0</ele><time>2026-04-03T07:07:14.127Z</time></trkpt><trkpt lat="43.2571767" lon="12.09591"><ele>753.0</ele><time>2026-04-03T07:07:15.128Z</time></trkpt><trkpt lat="43.2570833" lon="12.0959467"><ele>752.5</ele><time>2026-04-03T07:07:16.128Z</time></trkpt><trkpt lat="43.2570033" lon="12.0959783"><ele>752.0</ele><time>2026-04-03T07:07:17.127Z</time></trkpt><trkpt lat="43.256925" lon="12.0960183"><ele>751.5</ele><time>2026-04-03T07:07:18.127Z</time></trkpt><trkpt lat="43.2568533" lon="12.0960433"><ele>751.0</ele><time>2026-04-03T07:07:19.127Z</time></trkpt><trkpt lat="43.2567817" lon="12.0960583"><ele>750.5</ele><time>2026-04-03T07:07:20.127Z</time></trkpt><trkpt lat="43.25669" lon="12.0960567"><ele>750.0</ele><time>2026-04-03T07:07:21.127Z</time></trkpt><trkpt lat="43.2565817" lon="12.096055"><ele>750.0</ele><time>2026-04-03T07:07:22.127Z</time></trkpt><trkpt lat="43.2564733" lon="12.0960383"><ele>750.0</ele><time>2026-04-03T07:07:23.127Z</time></trkpt><trkpt lat="43.2563717" lon="12.0960167"><ele>750.0</ele><time>2026-04-03T07:07:24.127Z</time></trkpt><trkpt lat="43.2562633" lon="12.0959833"><ele>750.0</ele><time>2026-04-03T07:07:25.127Z</time></trkpt><trkpt lat="43.2561567" lon="12.095945"><ele>750.0</ele><time>2026-04-03T07:07:26.127Z</time></trkpt><trkpt lat="43.2560467" lon="12.0959"><ele>747.5</ele><time>2026-04-03T07:07:27.127Z</time></trkpt><trkpt lat="43.2559383" lon="12.0958517"><ele>745.0</ele><time>2026-04-03T07:07:28.127Z</time></trkpt><trkpt lat="43.255825" lon="12.0958117"><ele>742.5</ele><time>2026-04-03T07:07:29.127Z</time></trkpt><trkpt lat="43.2557067" lon="12.09576"><ele>740.0</ele><time>2026-04-03T07:07:30.127Z</time></trkpt><trkpt lat="43.2555883" lon="12.0957033"><ele>739.0</ele><time>2026-04-03T07:07:31.127Z</time></trkpt><trkpt lat="43.2554617" lon="12.0956067"><ele>738.0</ele><time>2026-04-03T07:07:32.127Z</time></trkpt><trkpt lat="43.2553633" lon="12.0955183"><ele>737.0</ele><time>2026-04-03T07:07:33.128Z</time></trkpt><trkpt lat="43.2552633" lon="12.095435"><ele>736.0</ele><time>2026-04-03T07:07:34.127Z</time></trkpt><trkpt lat="43.2551733" lon="12.0953567"><ele>736.0</ele><time>2026-04-03T07:07:35.128Z</time></trkpt><trkpt lat="43.2550967" lon="12.09526"><ele>736.0</ele><time>2026-04-03T07:07:36.127Z</time></trkpt><trkpt lat="43.2550267" lon="12.0951517"><ele>736.0</ele><time>2026-04-03T07:07:37.128Z</time></trkpt><trkpt lat="43.2549567" lon="12.095075"><ele>736.0</ele><time>2026-04-03T07:07:38.128Z</time></trkpt><trkpt lat="43.2548617" lon="12.0950083"><ele>736.0</ele><time>2026-04-03T07:07:39.128Z</time></trkpt><trkpt lat="43.2547567" lon="12.0949333"><ele>735.0</ele><time>2026-04-03T07:07:40.127Z</time></trkpt><trkpt lat="43.2546517" lon="12.0948633"><ele>734.0</ele><time>2026-04-03T07:07:41.127Z</time></trkpt><trkpt lat="43.2545633" lon="12.0947783"><ele>733.0</ele><time>2026-04-03T07:07:42.127Z</time></trkpt><trkpt lat="43.254485" lon="12.0946633"><ele>732.0</ele><time>2026-04-03T07:07:43.127Z</time></trkpt><trkpt lat="43.25439" lon="12.0945567"><ele>732.0</ele><time>2026-04-03T07:07:44.128Z</time></trkpt><trkpt lat="43.2542817" lon="12.094475"><ele>732.0</ele><time>2026-04-03T07:07:45.127Z</time></trkpt><trkpt lat="43.25417" lon="12.0944117"><ele>732.0</ele><time>2026-04-03T07:07:46.127Z</time></trkpt><trkpt lat="43.2540583" lon="12.0943417"><ele>732.0</ele><time>2026-04-03T07:07:47.128Z</time></trkpt><trkpt lat="43.25396" lon="12.09429"><ele>731.6666666666666</ele><time>2026-04-03T07:07:48.127Z</time></trkpt><trkpt lat="43.25389" lon="12.0942617"><ele>731.3333333333334</ele><time>2026-04-03T07:07:49.127Z</time></trkpt><trkpt lat="43.2538283" lon="12.09424"><ele>731.0</ele><time>2026-04-03T07:07:50.127Z</time></trkpt><trkpt lat="43.2537217" lon="12.0941683"><ele>730.6666666666667</ele><time>2026-04-03T07:07:52.127Z</time></trkpt><trkpt lat="43.2536733" lon="12.0941117"><ele>730.3333333333334</ele><time>2026-04-03T07:07:53.127Z</time></trkpt><trkpt lat="43.2536367" lon="12.0940283"><ele>730.0</ele><time>2026-04-03T07:07:54.127Z</time></trkpt><trkpt lat="43.253605" lon="12.0939467"><ele>728.0000000000001</ele><time>2026-04-03T07:07:55.127Z</time></trkpt><trkpt lat="43.2535717" lon="12.093855"><ele>726.0</ele><time>2026-04-03T07:07:56.128Z</time></trkpt><trkpt lat="43.25353" lon="12.09377"><ele>724.0</ele><time>2026-04-03T07:07:57.128Z</time></trkpt><trkpt lat="43.2534883" lon="12.0936817"><ele>722.0</ele><time>2026-04-03T07:07:58.127Z</time></trkpt><trkpt lat="43.2534433" lon="12.0936017"><ele>720.0</ele><time>2026-04-03T07:07:59.127Z</time></trkpt><trkpt lat="43.2533867" lon="12.0935433"><ele>718.0000000000001</ele><time>2026-04-03T07:08:00.128Z</time></trkpt><trkpt lat="43.2533233" lon="12.093485"><ele>716.0</ele><time>2026-04-03T07:08:01.127Z</time></trkpt><trkpt lat="43.253265" lon="12.09342"><ele>716.0</ele><time>2026-04-03T07:08:02.127Z</time></trkpt><trkpt lat="43.25322" lon="12.0933433"><ele>716.0</ele><time>2026-04-03T07:08:03.128Z</time></trkpt><trkpt lat="43.2531717" lon="12.0932817"><ele>716.0</ele><time>2026-04-03T07:08:04.127Z</time></trkpt><trkpt lat="43.2530683" lon="12.0932033"><ele>716.0</ele><time>2026-04-03T07:08:06.128Z</time></trkpt><trkpt lat="43.2529483" lon="12.093175"><ele>716.0</ele><time>2026-04-03T07:08:08.127Z</time></trkpt><trkpt lat="43.2528433" lon="12.093165"><ele>710.6666666666666</ele><time>2026-04-03T07:08:10.128Z</time></trkpt><trkpt lat="43.2527267" lon="12.0931283"><ele>705.3333333333333</ele><time>2026-04-03T07:08:12.127Z</time></trkpt><trkpt lat="43.2526633" lon="12.093105"><ele>700.0</ele><time>2026-04-03T07:08:13.128Z</time></trkpt><trkpt lat="43.2525967" lon="12.093085"><ele>694.6666666666666</ele><time>2026-04-03T07:08:14.128Z</time></trkpt><trkpt lat="43.252525" lon="12.093055"><ele>689.3333333333334</ele><time>2026-04-03T07:08:15.127Z</time></trkpt><trkpt lat="43.2524517" lon="12.09302"><ele>684.0</ele><time>2026-04-03T07:08:16.127Z</time></trkpt><trkpt lat="43.25239" lon="12.0929717"><ele>683.9999999999999</ele><time>2026-04-03T07:08:17.127Z</time></trkpt><trkpt lat="43.252325" lon="12.0929283"><ele>684.0</ele><time>2026-04-03T07:08:18.127Z</time></trkpt><trkpt lat="43.2522633" lon="12.09289"><ele>684.0</ele><time>2026-04-03T07:08:19.127Z</time></trkpt><trkpt lat="43.2522" lon="12.09285"><ele>684.0</ele><time>2026-04-03T07:08:20.127Z</time></trkpt><trkpt lat="43.25213" lon="12.0928183"><ele>684.0</ele><time>2026-04-03T07:08:21.128Z</time></trkpt><trkpt lat="43.2520567" lon="12.0928"><ele>683.9999999999999</ele><time>2026-04-03T07:08:22.128Z</time></trkpt><trkpt lat="43.25197" lon="12.0927917"><ele>684.0</ele><time>2026-04-03T07:08:23.127Z</time></trkpt><trkpt lat="43.2518783" lon="12.0927867"><ele>683.6666666666666</ele><time>2026-04-03T07:08:24.128Z</time></trkpt><trkpt lat="43.2517867" lon="12.09278"><ele>683.3333333333334</ele><time>2026-04-03T07:08:25.127Z</time></trkpt><trkpt lat="43.2517017" lon="12.0927467"><ele>683.0</ele><time>2026-04-03T07:08:26.128Z</time></trkpt><trkpt lat="43.251625" lon="12.0927117"><ele>682.6666666666667</ele><time>2026-04-03T07:08:27.127Z</time></trkpt><trkpt lat="43.25155" lon="12.0926583"><ele>682.3333333333334</ele><time>2026-04-03T07:08:28.127Z</time></trkpt><trkpt lat="43.2514867" lon="12.092615"><ele>682.0</ele><time>2026-04-03T07:08:29.127Z</time></trkpt><trkpt lat="43.2514067" lon="12.092535"><ele>678.6666666666667</ele><time>2026-04-03T07:08:31.128Z</time></trkpt><trkpt lat="43.25141" lon="12.0924167"><ele>675.3333333333334</ele><time>2026-04-03T07:08:33.127Z</time></trkpt><trkpt lat="43.25143" lon="12.0923033"><ele>672.0</ele><time>2026-04-03T07:08:35.128Z</time></trkpt><trkpt lat="43.251385" lon="12.0922267"><ele>668.6666666666666</ele><time>2026-04-03T07:08:37.127Z</time></trkpt><trkpt lat="43.25127" lon="12.0922083"><ele>665.3333333333333</ele><time>2026-04-03T07:08:39.127Z</time></trkpt><trkpt lat="43.251205" lon="12.0921883"><ele>662.0</ele><time>2026-04-03T07:08:40.128Z</time></trkpt><trkpt lat="43.2511417" lon="12.0921667"><ele>662.0</ele><time>2026-04-03T07:08:41.128Z</time></trkpt><trkpt lat="43.2510367" lon="12.0921017"><ele>662.0</ele><time>2026-04-03T07:08:43.128Z</time></trkpt><trkpt lat="43.2509833" lon="12.0920183"><ele>662.0</ele><time>2026-04-03T07:08:45.127Z</time></trkpt><trkpt lat="43.2509417" lon="12.0919417"><ele>662.0</ele><time>2026-04-03T07:08:47.128Z</time></trkpt><trkpt lat="43.250885" lon="12.0918633"><ele>662.0</ele><time>2026-04-03T07:08:49.127Z</time></trkpt><trkpt lat="43.2507833" lon="12.0917867"><ele>662.0</ele><time>2026-04-03T07:08:51.127Z</time></trkpt><trkpt lat="43.2506633" lon="12.0917433"><ele>662.0</ele><time>2026-04-03T07:08:53.128Z</time></trkpt><trkpt lat="43.25053" lon="12.091725"><ele>662.0</ele><time>2026-04-03T07:08:55.127Z</time></trkpt><trkpt lat="43.2504617" lon="12.0917083"><ele>662.0</ele><time>2026-04-03T07:08:56.128Z</time></trkpt><trkpt lat="43.250395" lon="12.0916917"><ele>662.0</ele><time>2026-04-03T07:08:57.127Z</time></trkpt><trkpt lat="43.25033" lon="12.0916733"><ele>660.4285714285714</ele><time>2026-04-03T07:08:58.127Z</time></trkpt><trkpt lat="43.2502517" lon="12.0916533"><ele>658.8571428571429</ele><time>2026-04-03T07:08:59.128Z</time></trkpt><trkpt lat="43.250165" lon="12.09164"><ele>657.2857142857142</ele><time>2026-04-03T07:09:00.127Z</time></trkpt><trkpt lat="43.2500917" lon="12.091625"><ele>655.7142857142858</ele><time>2026-04-03T07:09:01.127Z</time></trkpt><trkpt lat="43.25003" lon="12.0915883"><ele>654.1428571428571</ele><time>2026-04-03T07:09:02.127Z</time></trkpt><trkpt lat="43.24997" lon="12.0915483"><ele>652.5714285714286</ele><time>2026-04-03T07:09:03.127Z</time></trkpt><trkpt lat="43.2499067" lon="12.0915167"><ele>651.0</ele><time>2026-04-03T07:09:04.127Z</time></trkpt><trkpt lat="43.24982" lon="12.0914633"><ele>648.1999999999999</ele><time>2026-04-03T07:09:06.127Z</time></trkpt><trkpt lat="43.2497483" lon="12.09147"><ele>645.4</ele><time>2026-04-03T07:09:09.127Z</time></trkpt><trkpt lat="43.249665" lon="12.091565"><ele>642.6</ele><time>2026-04-03T07:09:12.127Z</time></trkpt><trkpt lat="43.2495917" lon="12.0916683"><ele>639.8</ele><time>2026-04-03T07:09:14.127Z</time></trkpt><trkpt lat="43.2495267" lon="12.0917683"><ele>637.0</ele><time>2026-04-03T07:09:16.127Z</time></trkpt><trkpt lat="43.2494617" lon="12.0918117"><ele>637.0</ele><time>2026-04-03T07:09:18.128Z</time></trkpt><trkpt lat="43.2493667" lon="12.091825"><ele>637.0</ele><time>2026-04-03T07:09:24.127Z</time></trkpt><trkpt lat="43.2492467" lon="12.09187"><ele>637.0</ele><time>2026-04-03T07:09:26.127Z</time></trkpt><trkpt lat="43.2491817" lon="12.09191"><ele>637.0</ele><time>2026-04-03T07:09:27.127Z</time></trkpt><trkpt lat="43.2491183" lon="12.0919483"><ele>637.0</ele><time>2026-04-03T07:09:28.127Z</time></trkpt><trkpt lat="43.24905" lon="12.0919883"><ele>637.0</ele><time>2026-04-03T07:09:29.127Z</time></trkpt><trkpt lat="43.2489817" lon="12.0920167"><ele>636.0</ele><time>2026-04-03T07:09:30.128Z</time></trkpt><trkpt lat="43.2489083" lon="12.0920317"><ele>635.0</ele><time>2026-04-03T07:09:31.127Z</time></trkpt><trkpt lat="43.2488283" lon="12.0920467"><ele>634.0</ele><time>2026-04-03T07:09:32.127Z</time></trkpt><trkpt lat="43.24875" lon="12.092055"><ele>633.0</ele><time>2026-04-03T07:09:33.127Z</time></trkpt><trkpt lat="43.2486683" lon="12.09207"><ele>632.0</ele><time>2026-04-03T07:09:34.127Z</time></trkpt><trkpt lat="43.24859" lon="12.092075"><ele>631.0</ele><time>2026-04-03T07:09:35.128Z</time></trkpt><trkpt lat="43.2485183" lon="12.0920767"><ele>631.0</ele><time>2026-04-03T07:09:36.127Z</time></trkpt><trkpt lat="43.2484483" lon="12.0920683"><ele>631.0</ele><time>2026-04-03T07:09:37.128Z</time></trkpt><trkpt lat="43.2483433" lon="12.0920117"><ele>631.0</ele><time>2026-04-03T07:09:39.128Z</time></trkpt><trkpt lat="43.2482467" lon="12.0919283"><ele>631.0</ele><time>2026-04-03T07:09:41.127Z</time></trkpt><trkpt lat="43.2481883" lon="12.0918817"><ele>631.0</ele><time>2026-04-03T07:09:42.127Z</time></trkpt><trkpt lat="43.2481183" lon="12.0918283"><ele>631.0</ele><time>2026-04-03T07:09:43.127Z</time></trkpt><trkpt lat="43.24804" lon="12.091765"><ele>630.1666666666667</ele><time>2026-04-03T07:09:44.127Z</time></trkpt><trkpt lat="43.2479567" lon="12.091735"><ele>629.3333333333334</ele><time>2026-04-03T07:09:45.127Z</time></trkpt><trkpt lat="43.2478767" lon="12.0917417"><ele>628.5</ele><time>2026-04-03T07:09:46.127Z</time></trkpt><trkpt lat="43.2477983" lon="12.0917683"><ele>627.6666666666666</ele><time>2026-04-03T07:09:47.128Z</time></trkpt><trkpt lat="43.2477217" lon="12.0918217"><ele>626.8333333333333</ele><time>2026-04-03T07:09:48.128Z</time></trkpt><trkpt lat="43.2476533" lon="12.091895"><ele>626.0</ele><time>2026-04-03T07:09:49.127Z</time></trkpt><trkpt lat="43.247595" lon="12.0919433"><ele>626.0</ele><time>2026-04-03T07:09:50.128Z</time></trkpt><trkpt lat="43.247525" lon="12.092005"><ele>626.0</ele><time>2026-04-03T07:09:51.127Z</time></trkpt><trkpt lat="43.24744" lon="12.0920533"><ele>626.0</ele><time>2026-04-03T07:09:53.127Z</time></trkpt><trkpt lat="43.247365" lon="12.0921083"><ele>626.0</ele><time>2026-04-03T07:10:01.128Z</time></trkpt><trkpt lat="43.2472417" lon="12.0921667"><ele>626.0</ele><time>2026-04-03T07:10:03.128Z</time></trkpt><trkpt lat="43.247165" lon="12.0922"><ele>625.5</ele><time>2026-04-03T07:10:04.127Z</time></trkpt><trkpt lat="43.2470667" lon="12.09227"><ele>625.0</ele><time>2026-04-03T07:10:05.128Z</time></trkpt><trkpt lat="43.246965" lon="12.092355"><ele>624.5</ele><time>2026-04-03T07:10:06.127Z</time></trkpt><trkpt lat="43.2468633" lon="12.0924267"><ele>624.0</ele><time>2026-04-03T07:10:07.128Z</time></trkpt><trkpt lat="43.24675" lon="12.0925183"><ele>626.0</ele><time>2026-04-03T07:10:08.127Z</time></trkpt><trkpt lat="43.246625" lon="12.0926567"><ele>628.0</ele><time>2026-04-03T07:10:09.128Z</time></trkpt><trkpt lat="43.2465033" lon="12.092805"><ele>630.0</ele><time>2026-04-03T07:10:10.127Z</time></trkpt><trkpt lat="43.24639" lon="12.0929217"><ele>630.0</ele><time>2026-04-03T07:10:11.127Z</time></trkpt><trkpt lat="43.24627" lon="12.0930217"><ele>630.0</ele><time>2026-04-03T07:10:12.127Z</time></trkpt><trkpt lat="43.2461433" lon="12.0930733"><ele>630.0</ele><time>2026-04-03T07:10:13.128Z</time></trkpt><trkpt lat="43.2460033" lon="12.0930967"><ele>630.0</ele><time>2026-04-03T07:10:14.128Z</time></trkpt><trkpt lat="43.245875" lon="12.0930817"><ele>630.0</ele><time>2026-04-03T07:10:15.127Z</time></trkpt><trkpt lat="43.2457567" lon="12.0930567"><ele>630.0</ele><time>2026-04-03T07:10:16.128Z</time></trkpt><trkpt lat="43.2456417" lon="12.0930167"><ele>630.0</ele><time>2026-04-03T07:10:17.127Z</time></trkpt><trkpt lat="43.2455333" lon="12.0929717"><ele>630.0</ele><time>2026-04-03T07:10:18.128Z</time></trkpt><trkpt lat="43.24543" lon="12.092925"><ele>631.0</ele><time>2026-04-03T07:10:19.128Z</time></trkpt><trkpt lat="43.2453383" lon="12.09286"><ele>632.0</ele><time>2026-04-03T07:10:20.127Z</time></trkpt><trkpt lat="43.24525" lon="12.09283"><ele>633.0</ele><time>2026-04-03T07:10:21.127Z</time></trkpt><trkpt lat="43.24518" lon="12.0928383"><ele>634.0</ele><time>2026-04-03T07:10:22.128Z</time></trkpt><trkpt lat="43.24511" lon="12.0928733"><ele>635.0</ele><time>2026-04-03T07:10:23.127Z</time></trkpt><trkpt lat="43.2450367" lon="12.0929333"><ele>636.0</ele><time>2026-04-03T07:10:24.127Z</time></trkpt><trkpt lat="43.2449417" lon="12.0930117"><ele>636.0</ele><time>2026-04-03T07:10:25.127Z</time></trkpt><trkpt lat="43.2448383" lon="12.0930917"><ele>636.0</ele><time>2026-04-03T07:10:26.128Z</time></trkpt><trkpt lat="43.2447283" lon="12.0931667"><ele>636.0</ele><time>2026-04-03T07:10:27.127Z</time></trkpt><trkpt lat="43.2446167" lon="12.0932283"><ele>636.0</ele><time>2026-04-03T07:10:28.127Z</time></trkpt><trkpt lat="43.2445067" lon="12.0932767"><ele>638.5</ele><time>2026-04-03T07:10:29.127Z</time></trkpt><trkpt lat="43.2444017" lon="12.0933133"><ele>641.0</ele><time>2026-04-03T07:10:30.128Z</time></trkpt><trkpt lat="43.2442917" lon="12.0933567"><ele>643.5</ele><time>2026-04-03T07:10:31.128Z</time></trkpt><trkpt lat="43.24417" lon="12.0933917"><ele>646.0</ele><time>2026-04-03T07:10:32.128Z</time></trkpt><trkpt lat="43.2440533" lon="12.0934017"><ele>645.0</ele><time>2026-04-03T07:10:33.128Z</time></trkpt><trkpt lat="43.24396" lon="12.0934183"><ele>644.0</ele><time>2026-04-03T07:10:34.127Z</time></trkpt><trkpt lat="43.2438783" lon="12.0934383"><ele>643.0</ele><time>2026-04-03T07:10:35.127Z</time></trkpt><trkpt lat="43.2437917" lon="12.0934817"><ele>642.0</ele><time>2026-04-03T07:10:36.128Z</time></trkpt><trkpt lat="43.24369" lon="12.0935317"><ele>641.0</ele><time>2026-04-03T07:10:37.127Z</time></trkpt><trkpt lat="43.24358" lon="12.093585"><ele>641.0</ele><time>2026-04-03T07:10:38.127Z</time></trkpt><trkpt lat="43.2434617" lon="12.093635"><ele>641.0</ele><time>2026-04-03T07:10:39.127Z</time></trkpt><trkpt lat="43.2433367" lon="12.0936917"><ele>641.0</ele><time>2026-04-03T07:10:40.127Z</time></trkpt><trkpt lat="43.2432117" lon="12.09374"><ele>641.0</ele><time>2026-04-03T07:10:41.127Z</time></trkpt><trkpt lat="43.2430867" lon="12.093775"><ele>640.5999999999999</ele><time>2026-04-03T07:10:42.128Z</time></trkpt><trkpt lat="43.2429883" lon="12.0938017"><ele>640.1999999999999</ele><time>2026-04-03T07:10:43.127Z</time></trkpt><trkpt lat="43.242885" lon="12.0938117"><ele>639.8</ele><time>2026-04-03T07:10:44.128Z</time></trkpt><trkpt lat="43.24277" lon="12.0938133"><ele>639.4</ele><time>2026-04-03T07:10:45.128Z</time></trkpt><trkpt lat="43.24266" lon="12.0937883"><ele>639.0</ele><time>2026-04-03T07:10:46.127Z</time></trkpt><trkpt lat="43.2425583" lon="12.0937633"><ele>639.0</ele><time>2026-04-03T07:10:47.127Z</time></trkpt><trkpt lat="43.2424667" lon="12.0937483"><ele>639.0</ele><time>2026-04-03T07:10:48.128Z</time></trkpt><trkpt lat="43.2423767" lon="12.0937367"><ele>639.0</ele><time>2026-04-03T07:10:49.127Z</time></trkpt><trkpt lat="43.242285" lon="12.0937333"><ele>639.0</ele><time>2026-04-03T07:10:50.128Z</time></trkpt><trkpt lat="43.242185" lon="12.0937217"><ele>639.0</ele><time>2026-04-03T07:10:51.128Z</time></trkpt><trkpt lat="43.24208" lon="12.0937183"><ele>639.2</ele><time>2026-04-03T07:10:52.127Z</time></trkpt><trkpt lat="43.24198" lon="12.0937067"><ele>639.4</ele><time>2026-04-03T07:10:53.128Z</time></trkpt><trkpt lat="43.2418883" lon="12.0936833"><ele>639.6</ele><time>2026-04-03T07:10:54.127Z</time></trkpt><trkpt lat="43.2417817" lon="12.093665"><ele>639.8</ele><time>2026-04-03T07:10:55.127Z</time></trkpt><trkpt lat="43.241675" lon="12.093655"><ele>640.0</ele><time>2026-04-03T07:10:56.128Z</time></trkpt><trkpt lat="43.24156" lon="12.0936467"><ele>640.2</ele><time>2026-04-03T07:10:57.128Z</time></trkpt><trkpt lat="43.24146" lon="12.0936533"><ele>640.4</ele><time>2026-04-03T07:10:58.128Z</time></trkpt><trkpt lat="43.241365" lon="12.0936483"><ele>640.5999999999999</ele><time>2026-04-03T07:10:59.127Z</time></trkpt><trkpt lat="43.2412767" lon="12.0936483"><ele>640.8</ele><time>2026-04-03T07:11:00.127Z</time></trkpt><trkpt lat="43.2411933" lon="12.0936267"><ele>641.0</ele><time>2026-04-03T07:11:01.127Z</time></trkpt><trkpt lat="43.2411083" lon="12.0936117"><ele>641.0</ele><time>2026-04-03T07:11:02.127Z</time></trkpt><trkpt lat="43.241025" lon="12.0936233"><ele>641.0</ele><time>2026-04-03T07:11:03.127Z</time></trkpt><trkpt lat="43.2409317" lon="12.093635"><ele>641.0</ele><time>2026-04-03T07:11:04.128Z</time></trkpt><trkpt lat="43.24083" lon="12.0936467"><ele>641.0</ele><time>2026-04-03T07:11:05.127Z</time></trkpt><trkpt lat="43.240725" lon="12.093655"><ele>641.0</ele><time>2026-04-03T07:11:06.127Z</time></trkpt><trkpt lat="43.2406267" lon="12.093645"><ele>639.8333333333333</ele><time>2026-04-03T07:11:07.127Z</time></trkpt><trkpt lat="43.2405283" lon="12.093645"><ele>638.6666666666666</ele><time>2026-04-03T07:11:08.127Z</time></trkpt><trkpt lat="43.2404383" lon="12.093635"><ele>637.5</ele><time>2026-04-03T07:11:09.127Z</time></trkpt><trkpt lat="43.2403517" lon="12.0936217"><ele>636.3333333333334</ele><time>2026-04-03T07:11:10.128Z</time></trkpt><trkpt lat="43.24027" lon="12.0935867"><ele>635.1666666666667</ele><time>2026-04-03T07:11:11.128Z</time></trkpt><trkpt lat="43.2401933" lon="12.0935583"><ele>634.0</ele><time>2026-04-03T07:11:12.128Z</time></trkpt><trkpt lat="43.2401167" lon="12.093515"><ele>634.0</ele><time>2026-04-03T07:11:13.127Z</time></trkpt><trkpt lat="43.2400483" lon="12.093495"><ele>634.0</ele><time>2026-04-03T07:11:14.127Z</time></trkpt><trkpt lat="43.239985" lon="12.0934917"><ele>634.0</ele><time>2026-04-03T07:11:15.127Z</time></trkpt><trkpt lat="43.239855" lon="12.093535"><ele>634.0</ele><time>2026-04-03T07:11:17.127Z</time></trkpt><trkpt lat="43.2397833" lon="12.0935783"><ele>634.0</ele><time>2026-04-03T07:11:18.127Z</time></trkpt><trkpt lat="43.2397083" lon="12.0936333"><ele>634.0</ele><time>2026-04-03T07:11:19.127Z</time></trkpt><trkpt lat="43.2396267" lon="12.0937"><ele>631.6</ele><time>2026-04-03T07:11:20.127Z</time></trkpt><trkpt lat="43.2395433" lon="12.0937767"><ele>629.2</ele><time>2026-04-03T07:11:21.128Z</time></trkpt><trkpt lat="43.23944" lon="12.0938517"><ele>626.8000000000001</ele><time>2026-04-03T07:11:22.127Z</time></trkpt><trkpt lat="43.239355" lon="12.0939117"><ele>624.4</ele><time>2026-04-03T07:11:23.128Z</time></trkpt><trkpt lat="43.239275" lon="12.09399"><ele>622.0</ele><time>2026-04-03T07:11:24.127Z</time></trkpt><trkpt lat="43.2391967" lon="12.0940667"><ele>623.8000000000001</ele><time>2026-04-03T07:11:25.127Z</time></trkpt><trkpt lat="43.2391" lon="12.09413"><ele>625.6</ele><time>2026-04-03T07:11:26.128Z</time></trkpt><trkpt lat="43.2390117" lon="12.0941783"><ele>627.4000000000001</ele><time>2026-04-03T07:11:27.128Z</time></trkpt><trkpt lat="43.2389133" lon="12.0942"><ele>629.2</ele><time>2026-04-03T07:11:28.127Z</time></trkpt><trkpt lat="43.2388117" lon="12.0942117"><ele>631.0</ele><time>2026-04-03T07:11:29.127Z</time></trkpt><trkpt lat="43.2387233" lon="12.0942267"><ele>631.8</ele><time>2026-04-03T07:11:30.127Z</time></trkpt><trkpt lat="43.2386533" lon="12.0942483"><ele>632.6</ele><time>2026-04-03T07:11:31.127Z</time></trkpt><trkpt lat="43.2385783" lon="12.0942967"><ele>633.4</ele><time>2026-04-03T07:11:33.127Z</time></trkpt><trkpt lat="43.2385117" lon="12.0943933"><ele>634.2</ele><time>2026-04-03T07:11:36.127Z</time></trkpt><trkpt lat="43.2384283" lon="12.0945433"><ele>635.0</ele><time>2026-04-03T07:11:38.127Z</time></trkpt><trkpt lat="43.2383783" lon="12.0946267"><ele>635.0</ele><time>2026-04-03T07:11:39.127Z</time></trkpt><trkpt lat="43.23834" lon="12.0947033"><ele>635.0</ele><time>2026-04-03T07:11:40.127Z</time></trkpt><trkpt lat="43.2383083" lon="12.09483"><ele>635.0</ele><time>2026-04-03T07:11:42.127Z</time></trkpt><trkpt lat="43.2382933" lon="12.094975"><ele>635.0</ele><time>2026-04-03T07:11:44.127Z</time></trkpt><trkpt lat="43.2383033" lon="12.095065"><ele>635.0</ele><time>2026-04-03T07:11:45.128Z</time></trkpt><trkpt lat="43.238325" lon="12.0951633"><ele>635.0</ele><time>2026-04-03T07:11:46.128Z</time></trkpt><trkpt lat="43.2383617" lon="12.0952567"><ele>635.5</ele><time>2026-04-03T07:11:47.127Z</time></trkpt><trkpt lat="43.2384267" lon="12.0953383"><ele>636.0</ele><time>2026-04-03T07:11:48.127Z</time></trkpt><trkpt lat="43.2385033" lon="12.09541"><ele>636.5</ele><time>2026-04-03T07:11:49.127Z</time></trkpt><trkpt lat="43.2385667" lon="12.0954733"><ele>637.0</ele><time>2026-04-03T07:11:50.127Z</time></trkpt><trkpt lat="43.23861" lon="12.0955683"><ele>637.5</ele><time>2026-04-03T07:11:52.128Z</time></trkpt><trkpt lat="43.2386133" lon="12.0956683"><ele>638.0</ele><time>2026-04-03T07:11:54.128Z</time></trkpt><trkpt lat="43.238555" lon="12.0958267"><ele>639.6666666666666</ele><time>2026-04-03T07:11:56.127Z</time></trkpt><trkpt lat="43.2385283" lon="12.0959217"><ele>641.3333333333333</ele><time>2026-04-03T07:11:57.128Z</time></trkpt><trkpt lat="43.2385033" lon="12.0960267"><ele>643.0</ele><time>2026-04-03T07:11:58.127Z</time></trkpt><trkpt lat="43.2384817" lon="12.0961383"><ele>644.6666666666666</ele><time>2026-04-03T07:11:59.127Z</time></trkpt><trkpt lat="43.2384667" lon="12.096245"><ele>646.3333333333334</ele><time>2026-04-03T07:12:00.127Z</time></trkpt><trkpt lat="43.23846" lon="12.0964"><ele>648.0</ele><time>2026-04-03T07:12:02.128Z</time></trkpt><trkpt lat="43.2384767" lon="12.0965133"><ele>648.5</ele><time>2026-04-03T07:12:04.127Z</time></trkpt><trkpt lat="43.23852" lon="12.096655"><ele>649.0</ele><time>2026-04-03T07:12:06.127Z</time></trkpt><trkpt lat="43.2385467" lon="12.09674"><ele>649.5</ele><time>2026-04-03T07:12:07.127Z</time></trkpt><trkpt lat="43.2385583" lon="12.0968317"><ele>650.0</ele><time>2026-04-03T07:12:08.128Z</time></trkpt><trkpt lat="43.23856" lon="12.0969233"><ele>650.5</ele><time>2026-04-03T07:12:09.128Z</time></trkpt><trkpt lat="43.23851" lon="12.0970467"><ele>651.0</ele><time>2026-04-03T07:12:11.127Z</time></trkpt><trkpt lat="43.2383817" lon="12.0970983"><ele>651.0</ele><time>2026-04-03T07:12:13.128Z</time></trkpt><trkpt lat="43.23829" lon="12.0971"><ele>651.0</ele><time>2026-04-03T07:12:14.128Z</time></trkpt><trkpt lat="43.2381883" lon="12.0970933"><ele>651.0</ele><time>2026-04-03T07:12:15.128Z</time></trkpt><trkpt lat="43.238095" lon="12.0970917"><ele>651.0</ele><time>2026-04-03T07:12:16.127Z</time></trkpt><trkpt lat="43.2380067" lon="12.0971"><ele>651.0</ele><time>2026-04-03T07:12:17.128Z</time></trkpt><trkpt lat="43.237925" lon="12.09713"><ele>652.0</ele><time>2026-04-03T07:12:19.128Z</time></trkpt><trkpt lat="43.2378433" lon="12.0971667"><ele>653.0</ele><time>2026-04-03T07:12:21.128Z</time></trkpt><trkpt lat="43.2377817" lon="12.09719"><ele>654.0</ele><time>2026-04-03T07:12:22.128Z</time></trkpt><trkpt lat="43.237725" lon="12.0972317"><ele>655.0</ele><time>2026-04-03T07:12:23.128Z</time></trkpt><trkpt lat="43.2376717" lon="12.0972883"><ele>656.0</ele><time>2026-04-03T07:12:24.127Z</time></trkpt><trkpt lat="43.2375983" lon="12.097435"><ele>657.0</ele><time>2026-04-03T07:12:26.127Z</time></trkpt><trkpt lat="43.2375617" lon="12.0975283"><ele>657.0</ele><time>2026-04-03T07:12:27.127Z</time></trkpt><trkpt lat="43.23753" lon="12.0976183"><ele>657.0</ele><time>2026-04-03T07:12:28.127Z</time></trkpt><trkpt lat="43.2375067" lon="12.0977183"><ele>657.0</ele><time>2026-04-03T07:12:29.127Z</time></trkpt><trkpt lat="43.2374917" lon="12.0978117"><ele>657.0</ele><time>2026-04-03T07:12:30.127Z</time></trkpt><trkpt lat="43.2374717" lon="12.0979733"><ele>657.0</ele><time>2026-04-03T07:12:32.127Z</time></trkpt><trkpt lat="43.2374433" lon="12.09807"><ele>657.0</ele><time>2026-04-03T07:12:33.127Z</time></trkpt><trkpt lat="43.2373767" lon="12.098195"><ele>656.8333333333334</ele><time>2026-04-03T07:12:35.127Z</time></trkpt><trkpt lat="43.2372967" lon="12.0982333"><ele>656.6666666666666</ele><time>2026-04-03T07:12:37.126Z</time></trkpt><trkpt lat="43.2372333" lon="12.0982267"><ele>656.5</ele><time>2026-04-03T07:12:39.126Z</time></trkpt><trkpt lat="43.2371717" lon="12.0982083"><ele>656.3333333333333</ele><time>2026-04-03T07:12:41.126Z</time></trkpt><trkpt lat="43.2370933" lon="12.0981783"><ele>656.1666666666666</ele><time>2026-04-03T07:12:44.126Z</time></trkpt><trkpt lat="43.2369967" lon="12.0981633"><ele>656.0</ele><time>2026-04-03T07:12:47.127Z</time></trkpt><trkpt lat="43.2369" lon="12.098125"><ele>656.0</ele><time>2026-04-03T07:12:49.126Z</time></trkpt><trkpt lat="43.2367933" lon="12.098095"><ele>656.0</ele><time>2026-04-03T07:12:58.126Z</time></trkpt><trkpt lat="43.2367067" lon="12.098075"><ele>656.0</ele><time>2026-04-03T07:13:00.126Z</time></trkpt><trkpt lat="43.2366083" lon="12.09808"><ele>656.0</ele><time>2026-04-03T07:13:02.126Z</time></trkpt><trkpt lat="43.2365267" lon="12.09811"><ele>656.0</ele><time>2026-04-03T07:13:04.126Z</time></trkpt><trkpt lat="43.2364533" lon="12.0981567"><ele>654.4285714285713</ele><time>2026-04-03T07:13:06.126Z</time></trkpt><trkpt lat="43.2363817" lon="12.0982033"><ele>652.8571428571429</ele><time>2026-04-03T07:13:08.126Z</time></trkpt><trkpt lat="43.2363117" lon="12.0982483"><ele>651.2857142857142</ele><time>2026-04-03T07:13:10.126Z</time></trkpt><trkpt lat="43.2362467" lon="12.0982617"><ele>649.7142857142857</ele><time>2026-04-03T07:13:12.126Z</time></trkpt><trkpt lat="43.23618" lon="12.0982783"><ele>648.1428571428571</ele><time>2026-04-03T07:13:14.126Z</time></trkpt><trkpt lat="43.2360967" lon="12.0982867"><ele>646.5714285714286</ele><time>2026-04-03T07:13:17.126Z</time></trkpt><trkpt lat="43.2360317" lon="12.0982833"><ele>645.0</ele><time>2026-04-03T07:13:19.127Z</time></trkpt><trkpt lat="43.235955" lon="12.0983083"><ele>645.0</ele><time>2026-04-03T07:13:21.126Z</time></trkpt><trkpt lat="43.235895" lon="12.0983733"><ele>645.0</ele><time>2026-04-03T07:13:24.127Z</time></trkpt><trkpt lat="43.2358683" lon="12.0984783"><ele>645.0</ele><time>2026-04-03T07:20:26.126Z</time></trkpt><trkpt lat="43.2358217" lon="12.0986133"><ele>645.0</ele><time>2026-04-03T07:20:28.127Z</time></trkpt><trkpt lat="43.23579" lon="12.0987017"><ele>645.0</ele><time>2026-04-03T07:20:29.127Z</time></trkpt><trkpt lat="43.23576" lon="12.0988033"><ele>645.0</ele><time>2026-04-03T07:20:30.126Z</time></trkpt><trkpt lat="43.2357317" lon="12.0988983"><ele>645.0</ele><time>2026-04-03T07:20:31.127Z</time></trkpt><trkpt lat="43.2357017" lon="12.0989817"><ele>645.0</ele><time>2026-04-03T07:20:32.126Z</time></trkpt><trkpt lat="43.23565" lon="12.099125"><ele>645.0</ele><time>2026-04-03T07:20:34.127Z</time></trkpt><trkpt lat="43.2356267" lon="12.0992133"><ele>645.0</ele><time>2026-04-03T07:20:36.127Z</time></trkpt><trkpt lat="43.235595" lon="12.0993233"><ele>645.0</ele><time>2026-04-03T07:20:39.127Z</time></trkpt><trkpt lat="43.23554" lon="12.0994733"><ele>643.6</ele><time>2026-04-03T07:20:41.126Z</time></trkpt><trkpt lat="43.2355" lon="12.0995783"><ele>642.2</ele><time>2026-04-03T07:20:42.126Z</time></trkpt><trkpt lat="43.2354667" lon="12.0996867"><ele>640.8</ele><time>2026-04-03T07:20:43.127Z</time></trkpt><trkpt lat="43.2354367" lon="12.099805"><ele>639.4</ele><time>2026-04-03T07:20:44.127Z</time></trkpt><trkpt lat="43.2354067" lon="12.0999"><ele>638.0</ele><time>2026-04-03T07:20:45.126Z</time></trkpt><trkpt lat="43.23538" lon="12.100065"><ele>638.0</ele><time>2026-04-03T07:20:47.126Z</time></trkpt><trkpt lat="43.235365" lon="12.1002167"><ele>638.0</ele><time>2026-04-03T07:20:49.126Z</time></trkpt><trkpt lat="43.2353483" lon="12.1003883"><ele>638.0</ele><time>2026-04-03T07:20:51.126Z</time></trkpt><trkpt lat="43.235335" lon="12.1004833"><ele>638.0</ele><time>2026-04-03T07:20:52.126Z</time></trkpt><trkpt lat="43.23532" lon="12.1005783"><ele>638.0</ele><time>2026-04-03T07:20:53.126Z</time></trkpt><trkpt lat="43.2353033" lon="12.1007367"><ele>637.8333333333333</ele><time>2026-04-03T07:20:55.127Z</time></trkpt><trkpt lat="43.2353117" lon="12.1008233"><ele>637.6666666666666</ele><time>2026-04-03T07:20:56.127Z</time></trkpt><trkpt lat="43.235305" lon="12.1009267"><ele>637.5</ele><time>2026-04-03T07:20:57.126Z</time></trkpt><trkpt lat="43.2353033" lon="12.1010683"><ele>637.3333333333334</ele><time>2026-04-03T07:20:59.126Z</time></trkpt><trkpt lat="43.2353217" lon="12.1011783"><ele>637.1666666666667</ele><time>2026-04-03T07:21:01.126Z</time></trkpt><trkpt lat="43.2353167" lon="12.1012933"><ele>637.0</ele><time>2026-04-03T07:21:03.126Z</time></trkpt><trkpt lat="43.2352867" lon="12.1014417"><ele>637.0</ele><time>2026-04-03T07:21:05.126Z</time></trkpt><trkpt lat="43.2352517" lon="12.1015367"><ele>637.0</ele><time>2026-04-03T07:21:06.126Z</time></trkpt><trkpt lat="43.2352183" lon="12.1016467"><ele>637.0</ele><time>2026-04-03T07:21:07.126Z</time></trkpt><trkpt lat="43.2351883" lon="12.1017533"><ele>637.0</ele><time>2026-04-03T07:21:08.127Z</time></trkpt><trkpt lat="43.2351667" lon="12.1018617"><ele>637.0</ele><time>2026-04-03T07:21:09.127Z</time></trkpt><trkpt lat="43.2351433" lon="12.1019667"><ele>637.0</ele><time>2026-04-03T07:21:10.126Z</time></trkpt><trkpt lat="43.2351183" lon="12.1020633"><ele>636.6</ele><time>2026-04-03T07:21:11.126Z</time></trkpt><trkpt lat="43.23509" lon="12.10215"><ele>636.2</ele><time>2026-04-03T07:21:12.126Z</time></trkpt><trkpt lat="43.23506" lon="12.1022433"><ele>635.8</ele><time>2026-04-03T07:21:13.126Z</time></trkpt><trkpt lat="43.2350267" lon="12.102405"><ele>635.4</ele><time>2026-04-03T07:21:15.126Z</time></trkpt><trkpt lat="43.2349867" lon="12.1025633"><ele>635.0</ele><time>2026-04-03T07:21:17.126Z</time></trkpt><trkpt lat="43.2349683" lon="12.1026883"><ele>634.8333333333333</ele><time>2026-04-03T07:21:19.126Z</time></trkpt><trkpt lat="43.2349617" lon="12.1028067"><ele>634.6666666666666</ele><time>2026-04-03T07:21:21.127Z</time></trkpt><trkpt lat="43.23493" lon="12.1028967"><ele>634.5</ele><time>2026-04-03T07:21:23.127Z</time></trkpt><trkpt lat="43.2348933" lon="12.10299"><ele>634.3333333333334</ele><time>2026-04-03T07:21:25.126Z</time></trkpt><trkpt lat="43.2348983" lon="12.1030767"><ele>634.1666666666667</ele><time>2026-04-03T07:21:27.126Z</time></trkpt><trkpt lat="43.234925" lon="12.1031933"><ele>634.0</ele><time>2026-04-03T07:21:30.127Z</time></trkpt><trkpt lat="43.2349617" lon="12.103305"><ele>633.3333333333334</ele><time>2026-04-03T07:21:32.126Z</time></trkpt><trkpt lat="43.2349767" lon="12.10339"><ele>632.6666666666667</ele><time>2026-04-03T07:21:33.127Z</time></trkpt><trkpt lat="43.234995" lon="12.103485"><ele>632.0</ele><time>2026-04-03T07:21:34.126Z</time></trkpt><trkpt lat="43.2350117" lon="12.10359"><ele>631.3333333333334</ele><time>2026-04-03T07:21:35.126Z</time></trkpt><trkpt lat="43.2350317" lon="12.103695"><ele>630.6666666666666</ele><time>2026-04-03T07:21:36.126Z</time></trkpt><trkpt lat="43.235045" lon="12.1037867"><ele>630.0</ele><time>2026-04-03T07:21:37.126Z</time></trkpt><trkpt lat="43.23504" lon="12.103945"><ele>630.0</ele><time>2026-04-03T07:21:39.127Z</time></trkpt><trkpt lat="43.2350167" lon="12.1040783"><ele>630.0</ele><time>2026-04-03T07:21:41.126Z</time></trkpt><trkpt lat="43.235005" lon="12.1042"><ele>630.0</ele><time>2026-04-03T07:21:43.126Z</time></trkpt><trkpt lat="43.2350333" lon="12.1042883"><ele>630.0</ele><time>2026-04-03T07:21:45.126Z</time></trkpt><trkpt lat="43.2350767" lon="12.1043683"><ele>630.0</ele><time>2026-04-03T07:21:47.126Z</time></trkpt><trkpt lat="43.2351383" lon="12.1044583"><ele>630.0</ele><time>2026-04-03T07:21:49.126Z</time></trkpt><trkpt lat="43.23522" lon="12.1045017"><ele>628.6</ele><time>2026-04-03T07:21:51.127Z</time></trkpt><trkpt lat="43.2353067" lon="12.10454"><ele>627.2</ele><time>2026-04-03T07:21:53.126Z</time></trkpt><trkpt lat="43.2353933" lon="12.1046017"><ele>625.8</ele><time>2026-04-03T07:21:55.126Z</time></trkpt><trkpt lat="43.2354667" lon="12.1046633"><ele>624.4</ele><time>2026-04-03T07:21:57.127Z</time></trkpt><trkpt lat="43.2355033" lon="12.104765"><ele>623.0</ele><time>2026-04-03T07:21:59.127Z</time></trkpt><trkpt lat="43.235485" lon="12.1049233"><ele>621.4</ele><time>2026-04-03T07:22:01.126Z</time></trkpt><trkpt lat="43.2354733" lon="12.10508"><ele>619.8</ele><time>2026-04-03T07:22:03.125Z</time></trkpt><trkpt lat="43.2355" lon="12.1052133"><ele>618.2</ele><time>2026-04-03T07:22:05.126Z</time></trkpt><trkpt lat="43.23549" lon="12.105305"><ele>616.6</ele><time>2026-04-03T07:22:07.126Z</time></trkpt><trkpt lat="43.2354117" lon="12.1054267"><ele>615.0</ele><time>2026-04-03T07:22:09.126Z</time></trkpt><trkpt lat="43.2353417" lon="12.1055633"><ele>615.0</ele><time>2026-04-03T07:22:11.125Z</time></trkpt><trkpt lat="43.235315" lon="12.1056417"><ele>615.0</ele><time>2026-04-03T07:22:12.125Z</time></trkpt><trkpt lat="43.2353083" lon="12.1057317"><ele>615.0</ele><time>2026-04-03T07:22:13.126Z</time></trkpt><trkpt lat="43.2352667" lon="12.1058733"><ele>615.0</ele><time>2026-04-03T07:22:15.125Z</time></trkpt><trkpt lat="43.2352167" lon="12.105985"><ele>615.0</ele><time>2026-04-03T07:22:18.125Z</time></trkpt><trkpt lat="43.2351767" lon="12.1060733"><ele>615.0</ele><time>2026-04-03T07:22:21.126Z</time></trkpt><trkpt lat="43.23516" lon="12.1061683"><ele>614.1666666666666</ele><time>2026-04-03T07:22:29.125Z</time></trkpt><trkpt lat="43.2351017" lon="12.1062917"><ele>613.3333333333334</ele><time>2026-04-03T07:22:31.125Z</time></trkpt><trkpt lat="43.235065" lon="12.1063633"><ele>612.5</ele><time>2026-04-03T07:22:32.125Z</time></trkpt><trkpt lat="43.2350167" lon="12.1064333"><ele>611.6666666666667</ele><time>2026-04-03T07:22:33.125Z</time></trkpt><trkpt lat="43.2349917" lon="12.1065133"><ele>610.8333333333334</ele><time>2026-04-03T07:22:34.125Z</time></trkpt><trkpt lat="43.2349617" lon="12.10659"><ele>610.0</ele><time>2026-04-03T07:22:35.125Z</time></trkpt><trkpt lat="43.234905" lon="12.1067067"><ele>609.1666666666667</ele><time>2026-04-03T07:22:37.126Z</time></trkpt><trkpt lat="43.2348317" lon="12.1067567"><ele>608.3333333333334</ele><time>2026-04-03T07:22:39.125Z</time></trkpt><trkpt lat="43.234755" lon="12.1067683"><ele>607.5</ele><time>2026-04-03T07:22:42.125Z</time></trkpt><trkpt lat="43.234675" lon="12.1067433"><ele>606.6666666666666</ele><time>2026-04-03T07:22:45.126Z</time></trkpt><trkpt lat="43.234595" lon="12.1067367"><ele>605.8333333333333</ele><time>2026-04-03T07:22:48.125Z</time></trkpt><trkpt lat="43.2346133" lon="12.1068217"><ele>605.0</ele><time>2026-04-03T07:22:52.125Z</time></trkpt><trkpt lat="43.2346933" lon="12.1067983"><ele>605.0</ele><time>2026-04-03T07:22:54.125Z</time></trkpt><trkpt lat="43.234815" lon="12.106795"><ele>605.0</ele><time>2026-04-03T07:22:56.125Z</time></trkpt><trkpt lat="43.2349033" lon="12.1067617"><ele>605.0</ele><time>2026-04-03T07:22:58.125Z</time></trkpt><trkpt lat="43.2349583" lon="12.1066683"><ele>605.0</ele><time>2026-04-03T07:23:00.125Z</time></trkpt><trkpt lat="43.2350083" lon="12.1065217"><ele>605.0</ele><time>2026-04-03T07:23:02.126Z</time></trkpt><trkpt lat="43.235075" lon="12.1063867"><ele>605.8333333333333</ele><time>2026-04-03T07:23:04.125Z</time></trkpt><trkpt lat="43.2351317" lon="12.1062867"><ele>606.6666666666666</ele><time>2026-04-03T07:23:06.125Z</time></trkpt><trkpt lat="43.235185" lon="12.1061933"><ele>607.5</ele><time>2026-04-03T07:23:09.125Z</time></trkpt><trkpt lat="43.2351217" lon="12.1062217"><ele>608.3333333333334</ele><time>2026-04-03T07:23:23.125Z</time></trkpt><trkpt lat="43.2350883" lon="12.10631"><ele>609.1666666666667</ele><time>2026-04-03T07:23:24.125Z</time></trkpt><trkpt lat="43.23504" lon="12.1064167"><ele>610.0</ele><time>2026-04-03T07:23:25.125Z</time></trkpt><trkpt lat="43.2349933" lon="12.10653"><ele>609.0</ele><time>2026-04-03T07:23:26.125Z</time></trkpt><trkpt lat="43.23495" lon="12.1066317"><ele>608.0</ele><time>2026-04-03T07:23:27.125Z</time></trkpt><trkpt lat="43.2349033" lon="12.1067133"><ele>607.0</ele><time>2026-04-03T07:23:28.125Z</time></trkpt><trkpt lat="43.2348067" lon="12.1068"><ele>606.0</ele><time>2026-04-03T07:23:30.125Z</time></trkpt><trkpt lat="43.2346983" lon="12.1068017"><ele>605.0</ele><time>2026-04-03T07:23:32.125Z</time></trkpt><trkpt lat="43.2346217" lon="12.1068017"><ele>603.6666666666666</ele><time>2026-04-03T07:23:34.126Z</time></trkpt><trkpt lat="43.234515" lon="12.1067683"><ele>602.3333333333333</ele><time>2026-04-03T07:23:36.125Z</time></trkpt><trkpt lat="43.2344233" lon="12.1067533"><ele>601.0</ele><time>2026-04-03T07:23:37.125Z</time></trkpt><trkpt lat="43.2343583" lon="12.1067183"><ele>599.6666666666666</ele><time>2026-04-03T07:23:38.125Z</time></trkpt><trkpt lat="43.2342717" lon="12.1066817"><ele>598.3333333333334</ele><time>2026-04-03T07:23:40.126Z</time></trkpt><trkpt lat="43.23433" lon="12.1066067"><ele>597.0</ele><time>2026-04-03T07:23:58.125Z</time></trkpt><trkpt lat="43.2344183" lon="12.1067183"><ele>597.0</ele><time>2026-04-03T07:24:01.126Z</time></trkpt><trkpt lat="43.234485" lon="12.1068267"><ele>597.0</ele><time>2026-04-03T07:24:03.126Z</time></trkpt><trkpt lat="43.2345617" lon="12.1068667"><ele>597.0</ele><time>2026-04-03T07:24:05.125Z</time></trkpt><trkpt lat="43.23459" lon="12.1069517"><ele>597.0</ele><time>2026-04-03T07:24:20.125Z</time></trkpt><trkpt lat="43.2345317" lon="12.10706"><ele>597.0</ele><time>2026-04-03T07:24:22.125Z</time></trkpt><trkpt lat="43.23449" lon="12.10713"><ele>597.0</ele><time>2026-04-03T07:24:23.126Z</time></trkpt><trkpt lat="43.234435" lon="12.1072017"><ele>597.0</ele><time>2026-04-03T07:24:24.125Z</time></trkpt><trkpt lat="43.2343933" lon="12.1072667"><ele>597.0</ele><time>2026-04-03T07:24:25.126Z</time></trkpt><trkpt lat="43.234355" lon="12.1073583"><ele>597.0</ele><time>2026-04-03T07:24:26.126Z</time></trkpt><trkpt lat="43.2343233" lon="12.1074583"><ele>597.0</ele><time>2026-04-03T07:24:27.125Z</time></trkpt><trkpt lat="43.2343067" lon="12.1075717"><ele>597.0</ele><time>2026-04-03T07:24:28.125Z</time></trkpt><trkpt lat="43.2342933" lon="12.10769"><ele>597.0</ele><time>2026-04-03T07:24:29.125Z</time></trkpt><trkpt lat="43.2342833" lon="12.1078"><ele>598.0</ele><time>2026-04-03T07:24:30.126Z</time></trkpt><trkpt lat="43.2342733" lon="12.1079183"><ele>599.0</ele><time>2026-04-03T07:24:31.125Z</time></trkpt><trkpt lat="43.2342633" lon="12.10804"><ele>600.0</ele><time>2026-04-03T07:24:32.125Z</time></trkpt><trkpt lat="43.2342667" lon="12.1081733"><ele>601.0</ele><time>2026-04-03T07:24:33.125Z</time></trkpt><trkpt lat="43.2342733" lon="12.1083167"><ele>602.0</ele><time>2026-04-03T07:24:34.125Z</time></trkpt><trkpt lat="43.23427" lon="12.1084567"><ele>602.75</ele><time>2026-04-03T07:24:35.126Z</time></trkpt><trkpt lat="43.2342433" lon="12.1086033"><ele>603.5</ele><time>2026-04-03T07:24:36.125Z</time></trkpt><trkpt lat="43.2342133" lon="12.1087517"><ele>604.25</ele><time>2026-04-03T07:24:37.125Z</time></trkpt><trkpt lat="43.23417" lon="12.1089017"><ele>605.0</ele><time>2026-04-03T07:24:38.125Z</time></trkpt><trkpt lat="43.23412" lon="12.109055"><ele>607.0</ele><time>2026-04-03T07:24:39.125Z</time></trkpt><trkpt lat="43.2340833" lon="12.1092183"><ele>609.0</ele><time>2026-04-03T07:24:40.125Z</time></trkpt><trkpt lat="43.2340467" lon="12.10937"><ele>611.0</ele><time>2026-04-03T07:24:41.125Z</time></trkpt><trkpt lat="43.2340183" lon="12.1095267"><ele>613.0</ele><time>2026-04-03T07:24:42.126Z</time></trkpt><trkpt lat="43.2339967" lon="12.10969"><ele>613.0</ele><time>2026-04-03T07:24:43.125Z</time></trkpt><trkpt lat="43.2339767" lon="12.1098467"><ele>613.0</ele><time>2026-04-03T07:24:44.126Z</time></trkpt><trkpt lat="43.2339617" lon="12.110015"><ele>613.0</ele><time>2026-04-03T07:24:45.125Z</time></trkpt><trkpt lat="43.2339617" lon="12.110175"><ele>613.0</ele><time>2026-04-03T07:24:46.126Z</time></trkpt><trkpt lat="43.2339883" lon="12.1103317"><ele>614.0</ele><time>2026-04-03T07:24:47.126Z</time></trkpt><trkpt lat="43.2340383" lon="12.1104567"><ele>615.0</ele><time>2026-04-03T07:24:48.125Z</time></trkpt><trkpt lat="43.2340983" lon="12.1105467"><ele>616.0</ele><time>2026-04-03T07:24:49.125Z</time></trkpt><trkpt lat="43.2341683" lon="12.1106017"><ele>617.0</ele><time>2026-04-03T07:24:50.126Z</time></trkpt><trkpt lat="43.2342533" lon="12.1106283"><ele>618.0</ele><time>2026-04-03T07:24:51.125Z</time></trkpt><trkpt lat="43.23435" lon="12.1106483"><ele>618.0</ele><time>2026-04-03T07:24:52.125Z</time></trkpt><trkpt lat="43.2344567" lon="12.1106567"><ele>618.0</ele><time>2026-04-03T07:24:53.125Z</time></trkpt><trkpt lat="43.2345783" lon="12.110675"><ele>618.0</ele><time>2026-04-03T07:24:54.125Z</time></trkpt><trkpt lat="43.2347033" lon="12.1107017"><ele>618.0</ele><time>2026-04-03T07:24:55.125Z</time></trkpt><trkpt lat="43.23483" lon="12.1107133"><ele>621.75</ele><time>2026-04-03T07:24:56.126Z</time></trkpt><trkpt lat="43.23496" lon="12.1107417"><ele>625.5</ele><time>2026-04-03T07:24:57.126Z</time></trkpt><trkpt lat="43.235085" lon="12.1107817"><ele>629.25</ele><time>2026-04-03T07:24:58.125Z</time></trkpt><trkpt lat="43.2352033" lon="12.1108567"><ele>633.0</ele><time>2026-04-03T07:24:59.125Z</time></trkpt><trkpt lat="43.2353183" lon="12.1109383"><ele>633.0</ele><time>2026-04-03T07:25:00.125Z</time></trkpt><trkpt lat="43.2354183" lon="12.1110633"><ele>633.0</ele><time>2026-04-03T07:25:01.125Z</time></trkpt><trkpt lat="43.2355133" lon="12.1111933"><ele>633.0</ele><time>2026-04-03T07:25:02.126Z</time></trkpt><trkpt lat="43.2356083" lon="12.1113017"><ele>633.0</ele><time>2026-04-03T07:25:03.125Z</time></trkpt><trkpt lat="43.2356683" lon="12.1113767"><ele>633.0</ele><time>2026-04-03T07:25:04.125Z</time></trkpt><trkpt lat="43.235715" lon="12.1115"><ele>633.0</ele><time>2026-04-03T07:25:06.126Z</time></trkpt><trkpt lat="43.2356117" lon="12.111505"><ele>633.0</ele><time>2026-04-03T07:25:08.126Z</time></trkpt><trkpt lat="43.2355367" lon="12.1114817"><ele>633.0</ele><time>2026-04-03T07:25:09.125Z</time></trkpt><trkpt lat="43.23545" lon="12.1114533"><ele>633.0</ele><time>2026-04-03T07:25:10.125Z</time></trkpt><trkpt lat="43.2353583" lon="12.1114433"><ele>633.0</ele><time>2026-04-03T07:25:11.125Z</time></trkpt><trkpt lat="43.2352717" lon="12.1114833"><ele>633.0</ele><time>2026-04-03T07:25:12.125Z</time></trkpt><trkpt lat="43.2351967" lon="12.1115933"><ele>633.0</ele><time>2026-04-03T07:25:13.126Z</time></trkpt><trkpt lat="43.2351317" lon="12.1117317"><ele>633.0</ele><time>2026-04-03T07:25:14.126Z</time></trkpt><trkpt lat="43.235085" lon="12.1118933"><ele>633.0</ele><time>2026-04-03T07:25:15.125Z</time></trkpt><trkpt lat="43.2350567" lon="12.1120533"><ele>635.5</ele><time>2026-04-03T07:25:16.125Z</time></trkpt><trkpt lat="43.235065" lon="12.1122217"><ele>638.0</ele><time>2026-04-03T07:25:17.125Z</time></trkpt><trkpt lat="43.235105" lon="12.112385"><ele>640.5</ele><time>2026-04-03T07:25:18.125Z</time></trkpt><trkpt lat="43.2351633" lon="12.112535"><ele>643.0</ele><time>2026-04-03T07:25:19.126Z</time></trkpt><trkpt lat="43.2352467" lon="12.1126933"><ele>643.0</ele><time>2026-04-03T07:25:20.126Z</time></trkpt><trkpt lat="43.2353367" lon="12.1128567"><ele>643.0</ele><time>2026-04-03T07:25:21.125Z</time></trkpt><trkpt lat="43.235425" lon="12.1130267"><ele>643.0</ele><time>2026-04-03T07:25:22.126Z</time></trkpt><trkpt lat="43.235525" lon="12.1131933"><ele>643.25</ele><time>2026-04-03T07:25:23.126Z</time></trkpt><trkpt lat="43.2356217" lon="12.1133733"><ele>643.5</ele><time>2026-04-03T07:25:24.126Z</time></trkpt><trkpt lat="43.23572" lon="12.1135367"><ele>643.75</ele><time>2026-04-03T07:25:25.126Z</time></trkpt><trkpt lat="43.2357933" lon="12.1136833"><ele>644.0</ele><time>2026-04-03T07:25:26.125Z</time></trkpt><trkpt lat="43.2358383" lon="12.113825"><ele>651.25</ele><time>2026-04-03T07:25:27.126Z</time></trkpt><trkpt lat="43.235825" lon="12.11398"><ele>658.5</ele><time>2026-04-03T07:25:28.125Z</time></trkpt><trkpt lat="43.235805" lon="12.114125"><ele>665.75</ele><time>2026-04-03T07:25:29.125Z</time></trkpt><trkpt lat="43.2357767" lon="12.11428"><ele>673.0</ele><time>2026-04-03T07:25:30.126Z</time></trkpt><trkpt lat="43.2357433" lon="12.1144483"><ele>673.5</ele><time>2026-04-03T07:25:31.125Z</time></trkpt><trkpt lat="43.2357267" lon="12.1145917"><ele>674.0</ele><time>2026-04-03T07:25:32.125Z</time></trkpt><trkpt lat="43.2356967" lon="12.114745"><ele>674.5</ele><time>2026-04-03T07:25:33.126Z</time></trkpt><trkpt lat="43.2356517" lon="12.1148967"><ele>675.0</ele><time>2026-04-03T07:25:34.125Z</time></trkpt><trkpt lat="43.2356083" lon="12.1150467"><ele>672.25</ele><time>2026-04-03T07:25:35.126Z</time></trkpt><trkpt lat="43.2355383" lon="12.115205"><ele>669.5</ele><time>2026-04-03T07:25:36.126Z</time></trkpt><trkpt lat="43.2354733" lon="12.115345"><ele>666.75</ele><time>2026-04-03T07:25:37.126Z</time></trkpt><trkpt lat="43.2353967" lon="12.115455"><ele>664.0</ele><time>2026-04-03T07:25:38.125Z</time></trkpt><trkpt lat="43.2353083" lon="12.115535"><ele>664.0</ele><time>2026-04-03T07:25:39.126Z</time></trkpt><trkpt lat="43.23521" lon="12.115575"><ele>664.0</ele><time>2026-04-03T07:25:40.126Z</time></trkpt><trkpt lat="43.2350917" lon="12.11559"><ele>664.0</ele><time>2026-04-03T07:25:41.125Z</time></trkpt><trkpt lat="43.234965" lon="12.1155983"><ele>664.0</ele><time>2026-04-03T07:25:42.126Z</time></trkpt><trkpt lat="43.234825" lon="12.115605"><ele>663.75</ele><time>2026-04-03T07:25:43.125Z</time></trkpt><trkpt lat="43.2346833" lon="12.1156"><ele>663.5</ele><time>2026-04-03T07:25:44.126Z</time></trkpt><trkpt lat="43.2345517" lon="12.11559"><ele>663.25</ele><time>2026-04-03T07:25:45.125Z</time></trkpt><trkpt lat="43.234435" lon="12.1156033"><ele>663.0</ele><time>2026-04-03T07:25:46.126Z</time></trkpt><trkpt lat="43.2343333" lon="12.1156483"><ele>663.0</ele><time>2026-04-03T07:25:47.125Z</time></trkpt><trkpt lat="43.23426" lon="12.115715"><ele>663.0</ele><time>2026-04-03T07:25:48.125Z</time></trkpt><trkpt lat="43.2341783" lon="12.1158233"><ele>663.0</ele><time>2026-04-03T07:25:49.126Z</time></trkpt><trkpt lat="43.2341217" lon="12.115945"><ele>663.0</ele><time>2026-04-03T07:25:50.125Z</time></trkpt><trkpt lat="43.2340583" lon="12.1161467"><ele>665.0</ele><time>2026-04-03T07:25:51.125Z</time></trkpt><trkpt lat="43.233985" lon="12.1163683"><ele>667.0</ele><time>2026-04-03T07:25:52.126Z</time></trkpt><trkpt lat="43.23391" lon="12.1165683"><ele>669.0</ele><time>2026-04-03T07:25:53.125Z</time></trkpt><trkpt lat="43.2338533" lon="12.1167567"><ele>669.0</ele><time>2026-04-03T07:25:54.125Z</time></trkpt><trkpt lat="43.2337833" lon="12.1168817"><ele>669.0</ele><time>2026-04-03T07:25:55.125Z</time></trkpt><trkpt lat="43.233715" lon="12.116955"><ele>669.0</ele><time>2026-04-03T07:25:56.125Z</time></trkpt><trkpt lat="43.233625" lon="12.116995"><ele>669.0</ele><time>2026-04-03T07:25:57.125Z</time></trkpt><trkpt lat="43.2335117" lon="12.1170133"><ele>669.0</ele><time>2026-04-03T07:25:58.125Z</time></trkpt><trkpt lat="43.23339" lon="12.11706"><ele>669.0</ele><time>2026-04-03T07:25:59.125Z</time></trkpt><trkpt lat="43.2332683" lon="12.1171533"><ele>669.0</ele><time>2026-04-03T07:26:00.125Z</time></trkpt><trkpt lat="43.233145" lon="12.1172767"><ele>669.0</ele><time>2026-04-03T07:26:01.125Z</time></trkpt><trkpt lat="43.2330083" lon="12.117375"><ele>669.0</ele><time>2026-04-03T07:26:02.125Z</time></trkpt><trkpt lat="43.2328683" lon="12.11746"><ele>671.6666666666666</ele><time>2026-04-03T07:26:03.125Z</time></trkpt><trkpt lat="43.2327233" lon="12.11753"><ele>674.3333333333333</ele><time>2026-04-03T07:26:04.125Z</time></trkpt><trkpt lat="43.2325733" lon="12.1176033"><ele>677.0</ele><time>2026-04-03T07:26:05.125Z</time></trkpt><trkpt lat="43.232455" lon="12.1177233"><ele>677.0</ele><time>2026-04-03T07:26:06.126Z</time></trkpt><trkpt lat="43.2323383" lon="12.1178767"><ele>677.0</ele><time>2026-04-03T07:26:07.125Z</time></trkpt><trkpt lat="43.2322333" lon="12.1180333"><ele>677.0</ele><time>2026-04-03T07:26:08.125Z</time></trkpt><trkpt lat="43.23214" lon="12.1182017"><ele>677.8</ele><time>2026-04-03T07:26:09.125Z</time></trkpt><trkpt lat="43.2320567" lon="12.1183267"><ele>678.6</ele><time>2026-04-03T07:26:10.125Z</time></trkpt><trkpt lat="43.2320217" lon="12.1184417"><ele>679.4</ele><time>2026-04-03T07:26:11.125Z</time></trkpt><trkpt lat="43.2320167" lon="12.1185383"><ele>680.1999999999999</ele><time>2026-04-03T07:26:12.126Z</time></trkpt><trkpt lat="43.2320383" lon="12.118675"><ele>681.0</ele><time>2026-04-03T07:26:13.125Z</time></trkpt><trkpt lat="43.2320717" lon="12.118835"><ele>681.0</ele><time>2026-04-03T07:26:14.125Z</time></trkpt><trkpt lat="43.2320833" lon="12.119025"><ele>681.0</ele><time>2026-04-03T07:26:15.125Z</time></trkpt><trkpt lat="43.2320817" lon="12.1192167"><ele>681.0</ele><time>2026-04-03T07:26:16.125Z</time></trkpt><trkpt lat="43.232085" lon="12.11942"><ele>681.0</ele><time>2026-04-03T07:26:17.125Z</time></trkpt><trkpt lat="43.232095" lon="12.1196017"><ele>683.1999999999999</ele><time>2026-04-03T07:26:18.125Z</time></trkpt><trkpt lat="43.2321117" lon="12.119755"><ele>685.4</ele><time>2026-04-03T07:26:19.125Z</time></trkpt><trkpt lat="43.2320983" lon="12.1198567"><ele>687.6</ele><time>2026-04-03T07:26:20.125Z</time></trkpt><trkpt lat="43.2320283" lon="12.11998"><ele>689.8</ele><time>2026-04-03T07:26:22.125Z</time></trkpt><trkpt lat="43.2319367" lon="12.1199217"><ele>692.0</ele><time>2026-04-03T07:26:24.126Z</time></trkpt><trkpt lat="43.2318733" lon="12.1198267"><ele>692.0</ele><time>2026-04-03T07:26:26.126Z</time></trkpt><trkpt lat="43.2318217" lon="12.1197733"><ele>692.0</ele><time>2026-04-03T07:26:29.125Z</time></trkpt><trkpt lat="43.2319033" lon="12.119845"><ele>692.0</ele><time>2026-04-03T07:26:42.125Z</time></trkpt><trkpt lat="43.23182" lon="12.1198917"><ele>692.0</ele><time>2026-04-03T07:26:46.125Z</time></trkpt><trkpt lat="43.2317067" lon="12.1198983"><ele>692.0</ele><time>2026-04-03T07:26:47.125Z</time></trkpt><trkpt lat="43.2315683" lon="12.1199283"><ele>691.5</ele><time>2026-04-03T07:26:48.125Z</time></trkpt><trkpt lat="43.2314433" lon="12.1199883"><ele>691.0</ele><time>2026-04-03T07:26:49.125Z</time></trkpt><trkpt lat="43.2313267" lon="12.12011"><ele>690.5</ele><time>2026-04-03T07:26:50.126Z</time></trkpt><trkpt lat="43.2312417" lon="12.12026"><ele>690.0</ele><time>2026-04-03T07:26:51.125Z</time></trkpt><trkpt lat="43.2311817" lon="12.1204283"><ele>690.0</ele><time>2026-04-03T07:26:52.125Z</time></trkpt><trkpt lat="43.23114" lon="12.1206167"><ele>690.0</ele><time>2026-04-03T07:26:53.125Z</time></trkpt><trkpt lat="43.23112" lon="12.1208083"><ele>690.0</ele><time>2026-04-03T07:26:54.125Z</time></trkpt><trkpt lat="43.2311133" lon="12.1210167"><ele>690.0</ele><time>2026-04-03T07:26:55.125Z</time></trkpt><trkpt lat="43.2311183" lon="12.1212217"><ele>692.3333333333334</ele><time>2026-04-03T07:26:56.125Z</time></trkpt><trkpt lat="43.2311267" lon="12.1214583"><ele>694.6666666666667</ele><time>2026-04-03T07:26:57.125Z</time></trkpt><trkpt lat="43.231135" lon="12.1217217"><ele>697.0</ele><time>2026-04-03T07:26:58.126Z</time></trkpt><trkpt lat="43.23113" lon="12.12197"><ele>697.0</ele><time>2026-04-03T07:26:59.125Z</time></trkpt><trkpt lat="43.2311383" lon="12.1222183"><ele>697.0</ele><time>2026-04-03T07:27:00.126Z</time></trkpt><trkpt lat="43.2311533" lon="12.1224417"><ele>697.0</ele><time>2026-04-03T07:27:01.125Z</time></trkpt><trkpt lat="43.23119" lon="12.1226533"><ele>696.4000000000001</ele><time>2026-04-03T07:27:02.125Z</time></trkpt><trkpt lat="43.2312233" lon="12.1228217"><ele>695.8000000000001</ele><time>2026-04-03T07:27:03.126Z</time></trkpt><trkpt lat="43.23126" lon="12.122955"><ele>695.2</ele><time>2026-04-03T07:27:04.126Z</time></trkpt><trkpt lat="43.2312983" lon="12.1230717"><ele>694.6</ele><time>2026-04-03T07:27:05.125Z</time></trkpt><trkpt lat="43.231335" lon="12.1231617"><ele>694.0</ele><time>2026-04-03T07:27:06.125Z</time></trkpt><trkpt lat="43.2313783" lon="12.123245"><ele>692.8333333333334</ele><time>2026-04-03T07:27:07.125Z</time></trkpt><trkpt lat="43.2314417" lon="12.1233217"><ele>691.6666666666667</ele><time>2026-04-03T07:27:08.125Z</time></trkpt><trkpt lat="43.2315233" lon="12.1233717"><ele>690.5</ele><time>2026-04-03T07:27:09.125Z</time></trkpt><trkpt lat="43.23161" lon="12.12342"><ele>689.3333333333334</ele><time>2026-04-03T07:27:10.125Z</time></trkpt><trkpt lat="43.23169" lon="12.12345"><ele>688.1666666666666</ele><time>2026-04-03T07:27:11.125Z</time></trkpt><trkpt lat="43.2317583" lon="12.123495"><ele>687.0</ele><time>2026-04-03T07:27:12.125Z</time></trkpt><trkpt lat="43.23181" lon="12.123625"><ele>689.4000000000001</ele><time>2026-04-03T07:27:14.125Z</time></trkpt><trkpt lat="43.2318133" lon="12.1237283"><ele>691.8000000000001</ele><time>2026-04-03T07:27:15.125Z</time></trkpt><trkpt lat="43.23181" lon="12.1238583"><ele>694.2</ele><time>2026-04-03T07:27:16.126Z</time></trkpt><trkpt lat="43.2318067" lon="12.124015"><ele>696.6</ele><time>2026-04-03T07:27:17.125Z</time></trkpt><trkpt lat="43.2317983" lon="12.1242067"><ele>699.0</ele><time>2026-04-03T07:27:18.126Z</time></trkpt><trkpt lat="43.2317783" lon="12.1244"><ele>699.0</ele><time>2026-04-03T07:27:19.125Z</time></trkpt><trkpt lat="43.2317583" lon="12.1245817"><ele>699.0</ele><time>2026-04-03T07:27:20.125Z</time></trkpt><trkpt lat="43.2317533" lon="12.1247"><ele>699.0</ele><time>2026-04-03T07:27:21.126Z</time></trkpt><trkpt lat="43.2317183" lon="12.1248233"><ele>699.0</ele><time>2026-04-03T07:27:22.125Z</time></trkpt><trkpt lat="43.2316617" lon="12.1249567"><ele>699.0</ele><time>2026-04-03T07:27:23.126Z</time></trkpt><trkpt lat="43.2316033" lon="12.125105"><ele>700.25</ele><time>2026-04-03T07:27:24.125Z</time></trkpt><trkpt lat="43.2315417" lon="12.1252717"><ele>701.5</ele><time>2026-04-03T07:27:25.125Z</time></trkpt><trkpt lat="43.2314933" lon="12.1254383"><ele>702.75</ele><time>2026-04-03T07:27:26.125Z</time></trkpt><trkpt lat="43.2314483" lon="12.1255833"><ele>704.0</ele><time>2026-04-03T07:27:27.125Z</time></trkpt><trkpt lat="43.2314167" lon="12.1257"><ele>698.8333333333333</ele><time>2026-04-03T07:27:28.125Z</time></trkpt><trkpt lat="43.2314083" lon="12.1257967"><ele>693.6666666666666</ele><time>2026-04-03T07:27:29.125Z</time></trkpt><trkpt lat="43.231405" lon="12.1259267"><ele>688.5</ele><time>2026-04-03T07:27:30.125Z</time></trkpt><trkpt lat="43.23142" lon="12.1260583"><ele>683.3333333333334</ele><time>2026-04-03T07:27:31.126Z</time></trkpt><trkpt lat="43.2314383" lon="12.12618"><ele>678.1666666666667</ele><time>2026-04-03T07:27:32.126Z</time></trkpt><trkpt lat="43.2314533" lon="12.1262917"><ele>673.0</ele><time>2026-04-03T07:27:33.125Z</time></trkpt><trkpt lat="43.2314517" lon="12.1263917"><ele>673.0</ele><time>2026-04-03T07:27:34.126Z</time></trkpt><trkpt lat="43.2313983" lon="12.126475"><ele>673.0</ele><time>2026-04-03T07:27:35.125Z</time></trkpt><trkpt lat="43.2313383" lon="12.126565"><ele>673.0</ele><time>2026-04-03T07:27:36.125Z</time></trkpt><trkpt lat="43.2312767" lon="12.1266667"><ele>673.0</ele><time>2026-04-03T07:27:37.125Z</time></trkpt><trkpt lat="43.2312383" lon="12.1267633"><ele>673.0</ele><time>2026-04-03T07:27:38.125Z</time></trkpt><trkpt lat="43.2312117" lon="12.1268883"><ele>673.0</ele><time>2026-04-03T07:27:39.125Z</time></trkpt><trkpt lat="43.2312083" lon="12.1270367"><ele>675.75</ele><time>2026-04-03T07:27:40.125Z</time></trkpt><trkpt lat="43.23122" lon="12.1272033"><ele>678.5</ele><time>2026-04-03T07:27:41.125Z</time></trkpt><trkpt lat="43.2312383" lon="12.127375"><ele>681.25</ele><time>2026-04-03T07:27:42.125Z</time></trkpt><trkpt lat="43.23127" lon="12.127555"><ele>684.0</ele><time>2026-04-03T07:27:43.126Z</time></trkpt><trkpt lat="43.2313383" lon="12.1277383"><ele>686.25</ele><time>2026-04-03T07:27:44.126Z</time></trkpt><trkpt lat="43.231425" lon="12.1279217"><ele>688.5</ele><time>2026-04-03T07:27:45.126Z</time></trkpt><trkpt lat="43.2315" lon="12.1280917"><ele>690.75</ele><time>2026-04-03T07:27:46.125Z</time></trkpt><trkpt lat="43.23157" lon="12.1282267"><ele>693.0</ele><time>2026-04-03T07:27:47.126Z</time></trkpt><trkpt lat="43.23162" lon="12.12833"><ele>693.3333333333334</ele><time>2026-04-03T07:27:48.125Z</time></trkpt><trkpt lat="43.23165" lon="12.12842"><ele>693.6666666666666</ele><time>2026-04-03T07:27:49.125Z</time></trkpt><trkpt lat="43.23166" lon="12.1285233"><ele>694.0</ele><time>2026-04-03T07:27:50.125Z</time></trkpt><trkpt lat="43.2316067" lon="12.12868"><ele>694.3333333333333</ele><time>2026-04-03T07:27:52.126Z</time></trkpt><trkpt lat="43.2315467" lon="12.1287267"><ele>694.6666666666666</ele><time>2026-04-03T07:27:53.126Z</time></trkpt><trkpt lat="43.2314633" lon="12.1288"><ele>695.0</ele><time>2026-04-03T07:27:55.125Z</time></trkpt><trkpt lat="43.2314883" lon="12.1287033"><ele>695.0</ele><time>2026-04-03T07:28:13.125Z</time></trkpt><trkpt lat="43.2314217" lon="12.12865"><ele>695.0</ele><time>2026-04-03T07:28:17.126Z</time></trkpt><trkpt lat="43.2313467" lon="12.1287133"><ele>695.0</ele><time>2026-04-03T07:28:18.126Z</time></trkpt><trkpt lat="43.2312617" lon="12.128785"><ele>695.0</ele><time>2026-04-03T07:28:19.125Z</time></trkpt><trkpt lat="43.231165" lon="12.1288483"><ele>695.0</ele><time>2026-04-03T07:28:20.125Z</time></trkpt><trkpt lat="43.23107" lon="12.1289017"><ele>695.0</ele><time>2026-04-03T07:28:21.126Z</time></trkpt><trkpt lat="43.23097" lon="12.1289317"><ele>695.0</ele><time>2026-04-03T07:28:22.125Z</time></trkpt><trkpt lat="43.23087" lon="12.12895"><ele>695.0</ele><time>2026-04-03T07:28:23.125Z</time></trkpt><trkpt lat="43.2307717" lon="12.1289533"><ele>695.0</ele><time>2026-04-03T07:28:24.125Z</time></trkpt><trkpt lat="43.230675" lon="12.1289733"><ele>695.0</ele><time>2026-04-03T07:28:25.125Z</time></trkpt><trkpt lat="43.2305883" lon="12.129015"><ele>694.3333333333333</ele><time>2026-04-03T07:28:26.126Z</time></trkpt><trkpt lat="43.2305183" lon="12.1290767"><ele>693.6666666666666</ele><time>2026-04-03T07:28:27.126Z</time></trkpt><trkpt lat="43.23045" lon="12.1291467"><ele>693.0</ele><time>2026-04-03T07:28:28.125Z</time></trkpt><trkpt lat="43.23038" lon="12.129215"><ele>692.3333333333334</ele><time>2026-04-03T07:28:29.125Z</time></trkpt><trkpt lat="43.2303033" lon="12.12923"><ele>691.6666666666667</ele><time>2026-04-03T07:28:30.125Z</time></trkpt><trkpt lat="43.2302267" lon="12.1292217"><ele>691.0</ele><time>2026-04-03T07:28:31.125Z</time></trkpt><trkpt lat="43.2301467" lon="12.1292083"><ele>691.0</ele><time>2026-04-03T07:28:32.125Z</time></trkpt><trkpt lat="43.2300567" lon="12.12918"><ele>691.0</ele><time>2026-04-03T07:28:33.125Z</time></trkpt><trkpt lat="43.229965" lon="12.1291667"><ele>691.0</ele><time>2026-04-03T07:28:34.126Z</time></trkpt><trkpt lat="43.2298617" lon="12.129175"><ele>691.0</ele><time>2026-04-03T07:28:35.126Z</time></trkpt><trkpt lat="43.2297733" lon="12.1291933"><ele>691.0</ele><time>2026-04-03T07:28:36.126Z</time></trkpt><trkpt lat="43.2297" lon="12.12923"><ele>686.1999999999999</ele><time>2026-04-03T07:28:37.125Z</time></trkpt><trkpt lat="43.2296317" lon="12.129295"><ele>681.4</ele><time>2026-04-03T07:28:38.125Z</time></trkpt><trkpt lat="43.229595" lon="12.1294083"><ele>676.6</ele><time>2026-04-03T07:28:39.125Z</time></trkpt><trkpt lat="43.22956" lon="12.1295383"><ele>671.8</ele><time>2026-04-03T07:28:40.125Z</time></trkpt><trkpt lat="43.2295433" lon="12.129675"><ele>667.0</ele><time>2026-04-03T07:28:41.125Z</time></trkpt><trkpt lat="43.22954" lon="12.1298267"><ele>667.4000000000001</ele><time>2026-04-03T07:28:42.126Z</time></trkpt><trkpt lat="43.2295533" lon="12.1299783"><ele>667.8000000000001</ele><time>2026-04-03T07:28:43.125Z</time></trkpt><trkpt lat="43.2295817" lon="12.1301217"><ele>668.2</ele><time>2026-04-03T07:28:44.125Z</time></trkpt><trkpt lat="43.22961" lon="12.1302717"><ele>668.6</ele><time>2026-04-03T07:28:45.126Z</time></trkpt><trkpt lat="43.22962" lon="12.13042"><ele>669.0</ele><time>2026-04-03T07:28:46.126Z</time></trkpt><trkpt lat="43.2296233" lon="12.13056"><ele>669.0</ele><time>2026-04-03T07:28:47.125Z</time></trkpt><trkpt lat="43.2296233" lon="12.1306967"><ele>669.0</ele><time>2026-04-03T07:28:48.125Z</time></trkpt><trkpt lat="43.2296183" lon="12.1308133"><ele>669.0</ele><time>2026-04-03T07:28:49.125Z</time></trkpt><trkpt lat="43.2295917" lon="12.1309083"><ele>669.0</ele><time>2026-04-03T07:28:50.126Z</time></trkpt><trkpt lat="43.2295517" lon="12.1309967"><ele>669.0</ele><time>2026-04-03T07:28:51.126Z</time></trkpt><trkpt lat="43.229495" lon="12.1310783"><ele>669.0</ele><time>2026-04-03T07:28:52.125Z</time></trkpt><trkpt lat="43.229405" lon="12.131155"><ele>669.6</ele><time>2026-04-03T07:28:53.126Z</time></trkpt><trkpt lat="43.229305" lon="12.131235"><ele>670.2</ele><time>2026-04-03T07:28:54.125Z</time></trkpt><trkpt lat="43.2292233" lon="12.131295"><ele>670.8000000000001</ele><time>2026-04-03T07:28:55.125Z</time></trkpt><trkpt lat="43.2291517" lon="12.1313567"><ele>671.4000000000001</ele><time>2026-04-03T07:28:56.126Z</time></trkpt><trkpt lat="43.22909" lon="12.1314033"><ele>672.0</ele><time>2026-04-03T07:28:57.125Z</time></trkpt><trkpt lat="43.2290117" lon="12.1314633"><ele>671.6</ele><time>2026-04-03T07:28:59.125Z</time></trkpt><trkpt lat="43.2289583" lon="12.1315417"><ele>671.2</ele><time>2026-04-03T07:29:01.125Z</time></trkpt><trkpt lat="43.2288917" lon="12.13169"><ele>670.8</ele><time>2026-04-03T07:29:03.126Z</time></trkpt><trkpt lat="43.2288317" lon="12.131785"><ele>670.4</ele><time>2026-04-03T07:29:04.125Z</time></trkpt><trkpt lat="43.2287517" lon="12.1318633"><ele>670.0</ele><time>2026-04-03T07:29:05.125Z</time></trkpt><trkpt lat="43.2286717" lon="12.1319067"><ele>670.0</ele><time>2026-04-03T07:29:06.125Z</time></trkpt><trkpt lat="43.2285783" lon="12.1319317"><ele>670.0</ele><time>2026-04-03T07:29:07.125Z</time></trkpt><trkpt lat="43.228465" lon="12.1319617"><ele>670.0</ele><time>2026-04-03T07:29:08.125Z</time></trkpt><trkpt lat="43.2283383" lon="12.1319967"><ele>670.0</ele><time>2026-04-03T07:29:09.126Z</time></trkpt><trkpt lat="43.2282183" lon="12.1320367"><ele>667.2</ele><time>2026-04-03T07:29:10.125Z</time></trkpt><trkpt lat="43.2281083" lon="12.132085"><ele>664.4</ele><time>2026-04-03T07:29:11.125Z</time></trkpt><trkpt lat="43.2280117" lon="12.132125"><ele>661.5999999999999</ele><time>2026-04-03T07:29:12.125Z</time></trkpt><trkpt lat="43.2279217" lon="12.132175"><ele>658.8</ele><time>2026-04-03T07:29:13.125Z</time></trkpt><trkpt lat="43.2278417" lon="12.1322117"><ele>656.0</ele><time>2026-04-03T07:29:14.125Z</time></trkpt><trkpt lat="43.2277617" lon="12.132225"><ele>656.0</ele><time>2026-04-03T07:29:15.125Z</time></trkpt><trkpt lat="43.22767" lon="12.1322583"><ele>656.0</ele><time>2026-04-03T07:29:17.125Z</time></trkpt><trkpt lat="43.2275883" lon="12.1322867"><ele>656.0</ele><time>2026-04-03T07:29:22.126Z</time></trkpt><trkpt lat="43.2275417" lon="12.13236"><ele>656.0</ele><time>2026-04-03T07:29:24.126Z</time></trkpt><trkpt lat="43.227485" lon="12.1325067"><ele>656.0</ele><time>2026-04-03T07:29:26.125Z</time></trkpt><trkpt lat="43.2274617" lon="12.13259"><ele>656.0</ele><time>2026-04-03T07:29:27.126Z</time></trkpt><trkpt lat="43.2274283" lon="12.132735"><ele>658.3333333333333</ele><time>2026-04-03T07:29:29.125Z</time></trkpt><trkpt lat="43.22742" lon="12.1328317"><ele>660.6666666666666</ele><time>2026-04-03T07:29:31.126Z</time></trkpt><trkpt lat="43.2274333" lon="12.132935"><ele>663.0</ele><time>2026-04-03T07:29:34.125Z</time></trkpt><trkpt lat="43.22744" lon="12.133055"><ele>665.3333333333334</ele><time>2026-04-03T07:29:37.125Z</time></trkpt><trkpt lat="43.227435" lon="12.13317"><ele>667.6666666666667</ele><time>2026-04-03T07:29:39.125Z</time></trkpt><trkpt lat="43.2274233" lon="12.1333017"><ele>670.0</ele><time>2026-04-03T07:29:41.126Z</time></trkpt><trkpt lat="43.227415" lon="12.1334417"><ele>671.3333333333334</ele><time>2026-04-03T07:29:43.125Z</time></trkpt><trkpt lat="43.227405" lon="12.1335933"><ele>672.6666666666667</ele><time>2026-04-03T07:29:45.126Z</time></trkpt><trkpt lat="43.2273933" lon="12.1336783"><ele>674.0</ele><time>2026-04-03T07:29:46.126Z</time></trkpt><trkpt lat="43.2273783" lon="12.1337783"><ele>675.3333333333334</ele><time>2026-04-03T07:29:47.125Z</time></trkpt><trkpt lat="43.22736" lon="12.13389"><ele>676.6666666666666</ele><time>2026-04-03T07:29:48.125Z</time></trkpt><trkpt lat="43.2273483" lon="12.134005"><ele>678.0</ele><time>2026-04-03T07:29:49.125Z</time></trkpt><trkpt lat="43.2273583" lon="12.134135"><ele>679.6666666666666</ele><time>2026-04-03T07:29:50.126Z</time></trkpt><trkpt lat="43.2273767" lon="12.1342583"><ele>681.3333333333334</ele><time>2026-04-03T07:29:51.126Z</time></trkpt><trkpt lat="43.2273967" lon="12.1343717"><ele>683.0</ele><time>2026-04-03T07:29:52.125Z</time></trkpt><trkpt lat="43.2274067" lon="12.134465"><ele>684.6666666666667</ele><time>2026-04-03T07:29:53.126Z</time></trkpt><trkpt lat="43.2274067" lon="12.134555"><ele>686.3333333333334</ele><time>2026-04-03T07:29:54.125Z</time></trkpt><trkpt lat="43.2273833" lon="12.1346433"><ele>688.0</ele><time>2026-04-03T07:29:55.125Z</time></trkpt><trkpt lat="43.227345" lon="12.1347283"><ele>685.8333333333334</ele><time>2026-04-03T07:29:56.125Z</time></trkpt><trkpt lat="43.22731" lon="12.1348133"><ele>683.6666666666667</ele><time>2026-04-03T07:29:57.125Z</time></trkpt><trkpt lat="43.227275" lon="12.1348867"><ele>681.5</ele><time>2026-04-03T07:29:58.125Z</time></trkpt><trkpt lat="43.2272" lon="12.1349917"><ele>679.3333333333334</ele><time>2026-04-03T07:30:00.125Z</time></trkpt><trkpt lat="43.227135" lon="12.13503"><ele>677.1666666666666</ele><time>2026-04-03T07:30:01.126Z</time></trkpt><trkpt lat="43.2270717" lon="12.1350983"><ele>675.0</ele><time>2026-04-03T07:30:02.126Z</time></trkpt><trkpt lat="43.2269967" lon="12.1351717"><ele>675.0</ele><time>2026-04-03T07:30:03.125Z</time></trkpt><trkpt lat="43.226905" lon="12.1352183"><ele>675.0</ele><time>2026-04-03T07:30:04.125Z</time></trkpt><trkpt lat="43.2268133" lon="12.1352567"><ele>675.0</ele><time>2026-04-03T07:30:05.125Z</time></trkpt><trkpt lat="43.226735" lon="12.1352583"><ele>675.0</ele><time>2026-04-03T07:30:06.126Z</time></trkpt><trkpt lat="43.22665" lon="12.1352483"><ele>675.0</ele><time>2026-04-03T07:30:07.126Z</time></trkpt><trkpt lat="43.2265633" lon="12.135245"><ele>675.0</ele><time>2026-04-03T07:30:08.125Z</time></trkpt><trkpt lat="43.2264933" lon="12.1352317"><ele>673.1666666666666</ele><time>2026-04-03T07:30:09.125Z</time></trkpt><trkpt lat="43.2264183" lon="12.13523"><ele>671.3333333333334</ele><time>2026-04-03T07:30:10.126Z</time></trkpt><trkpt lat="43.2263333" lon="12.135235"><ele>669.5</ele><time>2026-04-03T07:30:11.125Z</time></trkpt><trkpt lat="43.2262533" lon="12.1352433"><ele>667.6666666666667</ele><time>2026-04-03T07:30:12.125Z</time></trkpt><trkpt lat="43.2261867" lon="12.1352517"><ele>665.8333333333334</ele><time>2026-04-03T07:30:13.125Z</time></trkpt><trkpt lat="43.2260883" lon="12.1352617"><ele>664.0</ele><time>2026-04-03T07:30:15.125Z</time></trkpt><trkpt lat="43.2259833" lon="12.135305"><ele>664.0</ele><time>2026-04-03T07:30:17.126Z</time></trkpt><trkpt lat="43.2258933" lon="12.1353533"><ele>664.0</ele><time>2026-04-03T07:30:19.125Z</time></trkpt><trkpt lat="43.2258283" lon="12.135435"><ele>664.0</ele><time>2026-04-03T07:30:21.125Z</time></trkpt><trkpt lat="43.2257733" lon="12.1355133"><ele>664.0</ele><time>2026-04-03T07:30:23.125Z</time></trkpt><trkpt lat="43.225695" lon="12.1356067"><ele>664.0</ele><time>2026-04-03T07:30:25.126Z</time></trkpt><trkpt lat="43.2256167" lon="12.135735"><ele>663.8571428571428</ele><time>2026-04-03T07:30:27.125Z</time></trkpt><trkpt lat="43.2255833" lon="12.1358083"><ele>663.7142857142858</ele><time>2026-04-03T07:30:28.125Z</time></trkpt><trkpt lat="43.2255583" lon="12.1359017"><ele>663.5714285714286</ele><time>2026-04-03T07:30:29.126Z</time></trkpt><trkpt lat="43.2255317" lon="12.1359917"><ele>663.4285714285713</ele><time>2026-04-03T07:30:30.125Z</time></trkpt><trkpt lat="43.22548" lon="12.1360683"><ele>663.2857142857142</ele><time>2026-04-03T07:30:31.125Z</time></trkpt><trkpt lat="43.22542" lon="12.136115"><ele>663.1428571428571</ele><time>2026-04-03T07:30:32.126Z</time></trkpt><trkpt lat="43.225355" lon="12.1361733"><ele>663.0</ele><time>2026-04-03T07:30:33.126Z</time></trkpt><trkpt lat="43.22529" lon="12.1362483"><ele>663.0</ele><time>2026-04-03T07:30:34.125Z</time></trkpt><trkpt lat="43.2252317" lon="12.1363333"><ele>663.0</ele><time>2026-04-03T07:30:35.126Z</time></trkpt><trkpt lat="43.2251817" lon="12.1364267"><ele>663.0</ele><time>2026-04-03T07:30:36.126Z</time></trkpt><trkpt lat="43.225115" lon="12.1365233"><ele>663.0</ele><time>2026-04-03T07:30:37.125Z</time></trkpt><trkpt lat="43.2250483" lon="12.1365967"><ele>663.0</ele><time>2026-04-03T07:30:38.125Z</time></trkpt><trkpt lat="43.22498" lon="12.1366683"><ele>663.0</ele><time>2026-04-03T07:30:39.125Z</time></trkpt><trkpt lat="43.224925" lon="12.136745"><ele>663.5</ele><time>2026-04-03T07:30:40.126Z</time></trkpt><trkpt lat="43.2248917" lon="12.1368367"><ele>664.0</ele><time>2026-04-03T07:30:41.125Z</time></trkpt><trkpt lat="43.22487" lon="12.1369267"><ele>664.5</ele><time>2026-04-03T07:30:42.125Z</time></trkpt><trkpt lat="43.2248367" lon="12.1370183"><ele>665.0</ele><time>2026-04-03T07:30:43.126Z</time></trkpt><trkpt lat="43.2247917" lon="12.1371"><ele>665.5</ele><time>2026-04-03T07:30:44.126Z</time></trkpt><trkpt lat="43.2247417" lon="12.1371733"><ele>666.0</ele><time>2026-04-03T07:30:45.126Z</time></trkpt><trkpt lat="43.224665" lon="12.13723"><ele>663.8</ele><time>2026-04-03T07:30:46.126Z</time></trkpt><trkpt lat="43.224585" lon="12.137265"><ele>661.5999999999999</ele><time>2026-04-03T07:30:47.125Z</time></trkpt><trkpt lat="43.2244933" lon="12.1372867"><ele>659.4</ele><time>2026-04-03T07:30:48.125Z</time></trkpt><trkpt lat="43.2243967" lon="12.1373017"><ele>657.2</ele><time>2026-04-03T07:30:49.125Z</time></trkpt><trkpt lat="43.2242967" lon="12.1372933"><ele>655.0</ele><time>2026-04-03T07:30:50.125Z</time></trkpt><trkpt lat="43.2242067" lon="12.1372817"><ele>655.0</ele><time>2026-04-03T07:30:51.125Z</time></trkpt><trkpt lat="43.2241217" lon="12.1372733"><ele>655.0</ele><time>2026-04-03T07:30:52.126Z</time></trkpt><trkpt lat="43.2240417" lon="12.1372617"><ele>655.0</ele><time>2026-04-03T07:30:53.126Z</time></trkpt><trkpt lat="43.2239667" lon="12.137265"><ele>655.0</ele><time>2026-04-03T07:30:54.125Z</time></trkpt><trkpt lat="43.2239033" lon="12.1372483"><ele>655.0</ele><time>2026-04-03T07:30:55.125Z</time></trkpt><trkpt lat="43.22379" lon="12.1371633"><ele>655.0</ele><time>2026-04-03T07:30:57.125Z</time></trkpt><trkpt lat="43.2237233" lon="12.13712"><ele>653.1666666666667</ele><time>2026-04-03T07:30:58.125Z</time></trkpt><trkpt lat="43.2236533" lon="12.1370783"><ele>651.3333333333334</ele><time>2026-04-03T07:30:59.126Z</time></trkpt><trkpt lat="43.2235833" lon="12.1370467"><ele>649.5</ele><time>2026-04-03T07:31:00.125Z</time></trkpt><trkpt lat="43.2234683" lon="12.1370367"><ele>647.6666666666666</ele><time>2026-04-03T07:31:02.125Z</time></trkpt><trkpt lat="43.2234117" lon="12.1371483"><ele>645.8333333333333</ele><time>2026-04-03T07:31:04.125Z</time></trkpt><trkpt lat="43.2234033" lon="12.137235"><ele>644.0</ele><time>2026-04-03T07:31:05.125Z</time></trkpt><trkpt lat="43.223395" lon="12.1373333"><ele>644.1666666666666</ele><time>2026-04-03T07:31:06.125Z</time></trkpt><trkpt lat="43.223395" lon="12.137435"><ele>644.3333333333333</ele><time>2026-04-03T07:31:07.124Z</time></trkpt><trkpt lat="43.223405" lon="12.1375433"><ele>644.5</ele><time>2026-04-03T07:31:08.124Z</time></trkpt><trkpt lat="43.22341" lon="12.137645"><ele>644.6666666666666</ele><time>2026-04-03T07:31:09.124Z</time></trkpt><trkpt lat="43.2234017" lon="12.1377333"><ele>644.8333333333334</ele><time>2026-04-03T07:31:10.124Z</time></trkpt><trkpt lat="43.2233667" lon="12.1378217"><ele>645.0</ele><time>2026-04-03T07:31:11.124Z</time></trkpt><trkpt lat="43.2233317" lon="12.1379317"><ele>645.0</ele><time>2026-04-03T07:31:12.124Z</time></trkpt><trkpt lat="43.223305" lon="12.1380583"><ele>645.0</ele><time>2026-04-03T07:31:13.124Z</time></trkpt><trkpt lat="43.2232717" lon="12.138195"><ele>645.0</ele><time>2026-04-03T07:31:14.124Z</time></trkpt><trkpt lat="43.2232467" lon="12.1383367"><ele>645.0</ele><time>2026-04-03T07:31:15.124Z</time></trkpt><trkpt lat="43.2232217" lon="12.1384717"><ele>645.0</ele><time>2026-04-03T07:31:16.124Z</time></trkpt><trkpt lat="43.2231983" lon="12.138615"><ele>644.0</ele><time>2026-04-03T07:31:17.124Z</time></trkpt><trkpt lat="43.223165" lon="12.1387583"><ele>643.0</ele><time>2026-04-03T07:31:18.124Z</time></trkpt><trkpt lat="43.223125" lon="12.1389033"><ele>642.0</ele><time>2026-04-03T07:31:19.124Z</time></trkpt><trkpt lat="43.2230667" lon="12.139035"><ele>641.0</ele><time>2026-04-03T07:31:20.124Z</time></trkpt><trkpt lat="43.223005" lon="12.1391367"><ele>640.0</ele><time>2026-04-03T07:31:21.125Z</time></trkpt><trkpt lat="43.2229383" lon="12.1392333"><ele>638.4</ele><time>2026-04-03T07:31:22.124Z</time></trkpt><trkpt lat="43.222865" lon="12.139335"><ele>636.8</ele><time>2026-04-03T07:31:23.124Z</time></trkpt><trkpt lat="43.2227983" lon="12.1394267"><ele>635.2</ele><time>2026-04-03T07:31:24.124Z</time></trkpt><trkpt lat="43.2227317" lon="12.139525"><ele>633.6</ele><time>2026-04-03T07:31:25.124Z</time></trkpt><trkpt lat="43.2226783" lon="12.1396033"><ele>632.0</ele><time>2026-04-03T07:31:26.124Z</time></trkpt><trkpt lat="43.2226167" lon="12.1396767"><ele>632.0</ele><time>2026-04-03T07:31:27.124Z</time></trkpt><trkpt lat="43.222555" lon="12.13974"><ele>632.0</ele><time>2026-04-03T07:31:28.124Z</time></trkpt><trkpt lat="43.2224917" lon="12.1397967"><ele>632.0</ele><time>2026-04-03T07:31:29.124Z</time></trkpt><trkpt lat="43.2224417" lon="12.1398583"><ele>632.0</ele><time>2026-04-03T07:31:30.125Z</time></trkpt><trkpt lat="43.2224033" lon="12.1399383"><ele>632.0</ele><time>2026-04-03T07:31:31.124Z</time></trkpt><trkpt lat="43.22237" lon="12.1400617"><ele>632.0</ele><time>2026-04-03T07:31:33.124Z</time></trkpt><trkpt lat="43.222375" lon="12.140225"><ele>632.0</ele><time>2026-04-03T07:31:35.124Z</time></trkpt><trkpt lat="43.2223817" lon="12.1403967"><ele>632.0</ele><time>2026-04-03T07:31:37.125Z</time></trkpt><trkpt lat="43.2223783" lon="12.1405417"><ele>632.0</ele><time>2026-04-03T07:31:39.125Z</time></trkpt><trkpt lat="43.2223567" lon="12.14063"><ele>632.0</ele><time>2026-04-03T07:31:40.124Z</time></trkpt><trkpt lat="43.2223333" lon="12.140725"><ele>632.0</ele><time>2026-04-03T07:31:41.124Z</time></trkpt><trkpt lat="43.22232" lon="12.14083"><ele>630.8000000000001</ele><time>2026-04-03T07:31:42.124Z</time></trkpt><trkpt lat="43.2222833" lon="12.1409933"><ele>629.6</ele><time>2026-04-03T07:31:44.124Z</time></trkpt><trkpt lat="43.2222133" lon="12.1411033"><ele>628.4000000000001</ele><time>2026-04-03T07:31:46.125Z</time></trkpt><trkpt lat="43.2221567" lon="12.1411633"><ele>627.2</ele><time>2026-04-03T07:31:47.124Z</time></trkpt><trkpt lat="43.2220983" lon="12.1412433"><ele>626.0</ele><time>2026-04-03T07:31:48.124Z</time></trkpt><trkpt lat="43.2220467" lon="12.1413233"><ele>626.0</ele><time>2026-04-03T07:31:49.124Z</time></trkpt><trkpt lat="43.222005" lon="12.1413917"><ele>626.0</ele><time>2026-04-03T07:31:50.124Z</time></trkpt><trkpt lat="43.2219483" lon="12.1414317"><ele>626.0</ele><time>2026-04-03T07:31:51.125Z</time></trkpt><trkpt lat="43.2218833" lon="12.1414367"><ele>626.0</ele><time>2026-04-03T07:31:53.124Z</time></trkpt><trkpt lat="43.2218067" lon="12.14151"><ele>626.0</ele><time>2026-04-03T07:31:56.124Z</time></trkpt><trkpt lat="43.2217183" lon="12.1416267"><ele>626.0</ele><time>2026-04-03T07:31:58.124Z</time></trkpt><trkpt lat="43.2216233" lon="12.14173"><ele>626.4</ele><time>2026-04-03T07:32:00.124Z</time></trkpt><trkpt lat="43.2215583" lon="12.1417767"><ele>626.8</ele><time>2026-04-03T07:32:01.124Z</time></trkpt><trkpt lat="43.2214967" lon="12.14183"><ele>627.1999999999999</ele><time>2026-04-03T07:32:02.124Z</time></trkpt><trkpt lat="43.2213917" lon="12.1419083"><ele>627.6</ele><time>2026-04-03T07:32:04.125Z</time></trkpt><trkpt lat="43.2212983" lon="12.1419933"><ele>628.0</ele><time>2026-04-03T07:32:06.124Z</time></trkpt><trkpt lat="43.221205" lon="12.1420717"><ele>627.3333333333334</ele><time>2026-04-03T07:32:08.125Z</time></trkpt><trkpt lat="43.2211383" lon="12.14212"><ele>626.6666666666667</ele><time>2026-04-03T07:32:09.125Z</time></trkpt><trkpt lat="43.2210633" lon="12.1421683"><ele>626.0</ele><time>2026-04-03T07:32:10.124Z</time></trkpt><trkpt lat="43.2209767" lon="12.1422033"><ele>625.3333333333334</ele><time>2026-04-03T07:32:11.124Z</time></trkpt><trkpt lat="43.22088" lon="12.142225"><ele>624.6666666666666</ele><time>2026-04-03T07:32:12.125Z</time></trkpt><trkpt lat="43.2207833" lon="12.14226"><ele>624.0</ele><time>2026-04-03T07:32:13.124Z</time></trkpt><trkpt lat="43.2207017" lon="12.1423083"><ele>621.4</ele><time>2026-04-03T07:32:14.124Z</time></trkpt><trkpt lat="43.220625" lon="12.1423683"><ele>618.8</ele><time>2026-04-03T07:32:15.124Z</time></trkpt><trkpt lat="43.2205433" lon="12.1424583"><ele>616.2</ele><time>2026-04-03T07:32:16.124Z</time></trkpt><trkpt lat="43.220465" lon="12.14254"><ele>613.6</ele><time>2026-04-03T07:32:17.124Z</time></trkpt><trkpt lat="43.2203717" lon="12.142615"><ele>611.0</ele><time>2026-04-03T07:32:18.124Z</time></trkpt><trkpt lat="43.2202583" lon="12.1426883"><ele>611.0</ele><time>2026-04-03T07:32:19.124Z</time></trkpt><trkpt lat="43.22015" lon="12.1427183"><ele>611.0</ele><time>2026-04-03T07:32:20.124Z</time></trkpt><trkpt lat="43.2200467" lon="12.14273"><ele>611.0</ele><time>2026-04-03T07:32:21.124Z</time></trkpt><trkpt lat="43.2199283" lon="12.1427133"><ele>611.0</ele><time>2026-04-03T07:32:22.125Z</time></trkpt><trkpt lat="43.219795" lon="12.1426733"><ele>611.6666666666666</ele><time>2026-04-03T07:32:23.124Z</time></trkpt><trkpt lat="43.219645" lon="12.14262"><ele>612.3333333333334</ele><time>2026-04-03T07:32:24.124Z</time></trkpt><trkpt lat="43.21948" lon="12.1425517"><ele>613.0</ele><time>2026-04-03T07:32:25.124Z</time></trkpt><trkpt lat="43.219315" lon="12.142485"><ele>613.0</ele><time>2026-04-03T07:32:26.124Z</time></trkpt><trkpt lat="43.21913" lon="12.1424367"><ele>613.0</ele><time>2026-04-03T07:32:27.124Z</time></trkpt><trkpt lat="43.2189483" lon="12.1423883"><ele>613.0</ele><time>2026-04-03T07:32:28.125Z</time></trkpt><trkpt lat="43.2187517" lon="12.1423583"><ele>609.0</ele><time>2026-04-03T07:32:29.125Z</time></trkpt><trkpt lat="43.218545" lon="12.1423333"><ele>605.0</ele><time>2026-04-03T07:32:30.124Z</time></trkpt><trkpt lat="43.2183433" lon="12.1423067"><ele>601.0</ele><time>2026-04-03T07:32:31.124Z</time></trkpt><trkpt lat="43.218165" lon="12.1422783"><ele>601.3333333333334</ele><time>2026-04-03T07:32:32.125Z</time></trkpt><trkpt lat="43.218005" lon="12.1422483"><ele>601.6666666666666</ele><time>2026-04-03T07:32:33.125Z</time></trkpt><trkpt lat="43.21785" lon="12.1422133"><ele>602.0</ele><time>2026-04-03T07:32:34.125Z</time></trkpt><trkpt lat="43.2176983" lon="12.1421933"><ele>602.0</ele><time>2026-04-03T07:32:35.125Z</time></trkpt><trkpt lat="43.217545" lon="12.1421717"><ele>602.0</ele><time>2026-04-03T07:32:36.124Z</time></trkpt><trkpt lat="43.2173983" lon="12.1421417"><ele>602.0</ele><time>2026-04-03T07:32:37.124Z</time></trkpt><trkpt lat="43.2172483" lon="12.14213"><ele>602.0</ele><time>2026-04-03T07:32:38.124Z</time></trkpt><trkpt lat="43.21709" lon="12.1421317"><ele>602.0</ele><time>2026-04-03T07:32:39.124Z</time></trkpt><trkpt lat="43.2169433" lon="12.1421267"><ele>602.0</ele><time>2026-04-03T07:32:40.124Z</time></trkpt><trkpt lat="43.2168067" lon="12.142135"><ele>602.0</ele><time>2026-04-03T07:32:41.125Z</time></trkpt><trkpt lat="43.2166817" lon="12.1421467"><ele>602.0</ele><time>2026-04-03T07:32:42.124Z</time></trkpt><trkpt lat="43.216555" lon="12.1421767"><ele>602.0</ele><time>2026-04-03T07:32:43.124Z</time></trkpt><trkpt lat="43.21643" lon="12.1422233"><ele>602.0</ele><time>2026-04-03T07:32:44.124Z</time></trkpt><trkpt lat="43.21632" lon="12.14228"><ele>602.0</ele><time>2026-04-03T07:32:45.125Z</time></trkpt><trkpt lat="43.2162167" lon="12.142355"><ele>603.25</ele><time>2026-04-03T07:32:46.124Z</time></trkpt><trkpt lat="43.2161167" lon="12.1424517"><ele>604.5</ele><time>2026-04-03T07:32:47.124Z</time></trkpt><trkpt lat="43.216035" lon="12.1425517"><ele>605.75</ele><time>2026-04-03T07:32:48.124Z</time></trkpt><trkpt lat="43.2159433" lon="12.1426967"><ele>607.0</ele><time>2026-04-03T07:32:49.124Z</time></trkpt><trkpt lat="43.2158617" lon="12.14287"><ele>607.0</ele><time>2026-04-03T07:32:50.124Z</time></trkpt><trkpt lat="43.2157633" lon="12.1430533"><ele>607.0</ele><time>2026-04-03T07:32:51.125Z</time></trkpt><trkpt lat="43.2156433" lon="12.143265"><ele>607.0</ele><time>2026-04-03T07:32:52.124Z</time></trkpt><trkpt lat="43.2155367" lon="12.1434817"><ele>605.0</ele><time>2026-04-03T07:32:53.124Z</time></trkpt><trkpt lat="43.2154417" lon="12.1437017"><ele>603.0</ele><time>2026-04-03T07:32:54.124Z</time></trkpt><trkpt lat="43.2153417" lon="12.14391"><ele>601.0</ele><time>2026-04-03T07:32:55.124Z</time></trkpt><trkpt lat="43.21526" lon="12.1441033"><ele>601.0</ele><time>2026-04-03T07:32:56.124Z</time></trkpt><trkpt lat="43.2151883" lon="12.144295"><ele>601.0</ele><time>2026-04-03T07:32:57.124Z</time></trkpt><trkpt lat="43.215115" lon="12.1445183"><ele>601.0</ele><time>2026-04-03T07:32:58.124Z</time></trkpt><trkpt lat="43.2150383" lon="12.1447283"><ele>601.5</ele><time>2026-04-03T07:32:59.124Z</time></trkpt><trkpt lat="43.2149617" lon="12.1449283"><ele>602.0</ele><time>2026-04-03T07:33:00.124Z</time></trkpt><trkpt lat="43.214895" lon="12.145085"><ele>602.5</ele><time>2026-04-03T07:33:01.125Z</time></trkpt><trkpt lat="43.2148383" lon="12.1452517"><ele>603.0</ele><time>2026-04-03T07:33:02.124Z</time></trkpt><trkpt lat="43.2147783" lon="12.145395"><ele>602.4</ele><time>2026-04-03T07:33:03.124Z</time></trkpt><trkpt lat="43.2147167" lon="12.145505"><ele>601.8</ele><time>2026-04-03T07:33:04.125Z</time></trkpt><trkpt lat="43.2146417" lon="12.1455867"><ele>601.2</ele><time>2026-04-03T07:33:05.124Z</time></trkpt><trkpt lat="43.21456" lon="12.1456483"><ele>600.6</ele><time>2026-04-03T07:33:06.124Z</time></trkpt><trkpt lat="43.2144767" lon="12.1456967"><ele>600.0</ele><time>2026-04-03T07:33:07.124Z</time></trkpt><trkpt lat="43.2143917" lon="12.1457183"><ele>600.0</ele><time>2026-04-03T07:33:08.124Z</time></trkpt><trkpt lat="43.2143083" lon="12.145745"><ele>600.0</ele><time>2026-04-03T07:33:09.125Z</time></trkpt><trkpt lat="43.2142267" lon="12.14576"><ele>600.0</ele><time>2026-04-03T07:33:10.125Z</time></trkpt><trkpt lat="43.2141417" lon="12.1457767"><ele>600.0</ele><time>2026-04-03T07:33:11.124Z</time></trkpt><trkpt lat="43.2140417" lon="12.1457917"><ele>600.0</ele><time>2026-04-03T07:33:12.125Z</time></trkpt><trkpt lat="43.21394" lon="12.1458083"><ele>599.75</ele><time>2026-04-03T07:33:13.124Z</time></trkpt><trkpt lat="43.2138333" lon="12.1458367"><ele>599.5</ele><time>2026-04-03T07:33:14.124Z</time></trkpt><trkpt lat="43.2137117" lon="12.1458733"><ele>599.25</ele><time>2026-04-03T07:33:15.124Z</time></trkpt><trkpt lat="43.2135883" lon="12.1458983"><ele>599.0</ele><time>2026-04-03T07:33:16.124Z</time></trkpt><trkpt lat="43.2134467" lon="12.1459217"><ele>599.0</ele><time>2026-04-03T07:33:17.125Z</time></trkpt><trkpt lat="43.2133117" lon="12.1459517"><ele>599.0</ele><time>2026-04-03T07:33:18.123Z</time></trkpt><trkpt lat="43.2131683" lon="12.1459833"><ele>599.0</ele><time>2026-04-03T07:33:19.124Z</time></trkpt><trkpt lat="43.213035" lon="12.146025"><ele>599.0</ele><time>2026-04-03T07:33:20.125Z</time></trkpt><trkpt lat="43.2128917" lon="12.1460667"><ele>598.25</ele><time>2026-04-03T07:33:21.124Z</time></trkpt><trkpt lat="43.212755" lon="12.1460983"><ele>597.5</ele><time>2026-04-03T07:33:22.124Z</time></trkpt><trkpt lat="43.2126233" lon="12.146135"><ele>596.75</ele><time>2026-04-03T07:33:23.124Z</time></trkpt><trkpt lat="43.2125067" lon="12.1461583"><ele>596.0</ele><time>2026-04-03T07:33:24.125Z</time></trkpt><trkpt lat="43.2124017" lon="12.1461717"><ele>594.4</ele><time>2026-04-03T07:33:25.124Z</time></trkpt><trkpt lat="43.2122933" lon="12.1461883"><ele>592.8</ele><time>2026-04-03T07:33:26.125Z</time></trkpt><trkpt lat="43.2121983" lon="12.146235"><ele>591.1999999999999</ele><time>2026-04-03T07:33:27.124Z</time></trkpt><trkpt lat="43.2121133" lon="12.1463017"><ele>589.6</ele><time>2026-04-03T07:33:28.125Z</time></trkpt><trkpt lat="43.21201" lon="12.1463767"><ele>588.0</ele><time>2026-04-03T07:33:29.124Z</time></trkpt><trkpt lat="43.2119083" lon="12.1464267"><ele>588.0</ele><time>2026-04-03T07:33:30.124Z</time></trkpt><trkpt lat="43.2117817" lon="12.14646"><ele>588.0</ele><time>2026-04-03T07:33:31.124Z</time></trkpt><trkpt lat="43.211635" lon="12.1464633"><ele>588.0</ele><time>2026-04-03T07:33:32.124Z</time></trkpt><trkpt lat="43.2114567" lon="12.1464817"><ele>586.3333333333334</ele><time>2026-04-03T07:33:33.125Z</time></trkpt><trkpt lat="43.2112817" lon="12.1465017"><ele>584.6666666666667</ele><time>2026-04-03T07:33:34.125Z</time></trkpt><trkpt lat="43.2111017" lon="12.1465367"><ele>583.0</ele><time>2026-04-03T07:33:35.124Z</time></trkpt><trkpt lat="43.2109233" lon="12.1465483"><ele>582.6666666666667</ele><time>2026-04-03T07:33:36.124Z</time></trkpt><trkpt lat="43.210735" lon="12.1465367"><ele>582.3333333333334</ele><time>2026-04-03T07:33:37.124Z</time></trkpt><trkpt lat="43.2105417" lon="12.1465017"><ele>582.0</ele><time>2026-04-03T07:33:38.124Z</time></trkpt><trkpt lat="43.21033" lon="12.1464717"><ele>580.6666666666666</ele><time>2026-04-03T07:33:39.125Z</time></trkpt><trkpt lat="43.2101133" lon="12.146455"><ele>579.3333333333333</ele><time>2026-04-03T07:33:40.124Z</time></trkpt><trkpt lat="43.209905" lon="12.1464383"><ele>578.0</ele><time>2026-04-03T07:33:41.124Z</time></trkpt><trkpt lat="43.2097083" lon="12.1464317"><ele>576.0</ele><time>2026-04-03T07:33:42.124Z</time></trkpt><trkpt lat="43.2095217" lon="12.146445"><ele>574.0</ele><time>2026-04-03T07:33:43.124Z</time></trkpt><trkpt lat="43.2093533" lon="12.1464733"><ele>572.0</ele><time>2026-04-03T07:33:44.124Z</time></trkpt><trkpt lat="43.2091767" lon="12.146525"><ele>572.3333333333333</ele><time>2026-04-03T07:33:45.124Z</time></trkpt><trkpt lat="43.2089983" lon="12.1465733"><ele>572.6666666666666</ele><time>2026-04-03T07:33:46.124Z</time></trkpt><trkpt lat="43.2087967" lon="12.1466433"><ele>573.0</ele><time>2026-04-03T07:33:47.124Z</time></trkpt><trkpt lat="43.20862" lon="12.1467117"><ele>569.0</ele><time>2026-04-03T07:33:48.125Z</time></trkpt><trkpt lat="43.2084467" lon="12.146775"><ele>565.0</ele><time>2026-04-03T07:33:49.125Z</time></trkpt><trkpt lat="43.2082967" lon="12.1468167"><ele>561.0</ele><time>2026-04-03T07:33:50.124Z</time></trkpt><trkpt lat="43.20815" lon="12.1468267"><ele>555.6666666666666</ele><time>2026-04-03T07:33:51.124Z</time></trkpt><trkpt lat="43.208005" lon="12.146795"><ele>550.3333333333333</ele><time>2026-04-03T07:33:52.125Z</time></trkpt><trkpt lat="43.20786" lon="12.1467333"><ele>545.0</ele><time>2026-04-03T07:33:53.124Z</time></trkpt><trkpt lat="43.207695" lon="12.1466483"><ele>545.0</ele><time>2026-04-03T07:33:54.125Z</time></trkpt><trkpt lat="43.2075133" lon="12.14655"><ele>545.0</ele><time>2026-04-03T07:33:55.124Z</time></trkpt><trkpt lat="43.2073367" lon="12.1464567"><ele>545.0</ele><time>2026-04-03T07:33:56.124Z</time></trkpt><trkpt lat="43.20715" lon="12.146355"><ele>541.0</ele><time>2026-04-03T07:33:57.124Z</time></trkpt><trkpt lat="43.2069883" lon="12.1462317"><ele>537.0</ele><time>2026-04-03T07:33:58.124Z</time></trkpt><trkpt lat="43.2068183" lon="12.1461133"><ele>533.0</ele><time>2026-04-03T07:33:59.124Z</time></trkpt><trkpt lat="43.2066483" lon="12.1459917"><ele>533.0</ele><time>2026-04-03T07:34:00.124Z</time></trkpt><trkpt lat="43.206495" lon="12.1458567"><ele>533.0</ele><time>2026-04-03T07:34:01.124Z</time></trkpt><trkpt lat="43.2063617" lon="12.1457367"><ele>533.0</ele><time>2026-04-03T07:34:02.125Z</time></trkpt><trkpt lat="43.20622" lon="12.14564"><ele>526.3333333333333</ele><time>2026-04-03T07:34:03.124Z</time></trkpt><trkpt lat="43.2060533" lon="12.1455783"><ele>519.6666666666666</ele><time>2026-04-03T07:34:04.124Z</time></trkpt><trkpt lat="43.2058783" lon="12.1455517"><ele>513.0</ele><time>2026-04-03T07:34:05.124Z</time></trkpt><trkpt lat="43.2056883" lon="12.1455467"><ele>511.0</ele><time>2026-04-03T07:34:06.125Z</time></trkpt><trkpt lat="43.2054767" lon="12.1455433"><ele>509.0</ele><time>2026-04-03T07:34:07.125Z</time></trkpt><trkpt lat="43.2052633" lon="12.14556"><ele>507.0</ele><time>2026-04-03T07:34:08.124Z</time></trkpt><trkpt lat="43.20507" lon="12.145595"><ele>507.0</ele><time>2026-04-03T07:34:09.124Z</time></trkpt><trkpt lat="43.20489" lon="12.1456233"><ele>507.0</ele><time>2026-04-03T07:34:10.124Z</time></trkpt><trkpt lat="43.204725" lon="12.14565"><ele>507.0</ele><time>2026-04-03T07:34:11.124Z</time></trkpt><trkpt lat="43.2045817" lon="12.145655"><ele>507.0</ele><time>2026-04-03T07:34:12.125Z</time></trkpt><trkpt lat="43.2044617" lon="12.14566"><ele>507.00000000000006</ele><time>2026-04-03T07:34:13.124Z</time></trkpt><trkpt lat="43.20436" lon="12.145655"><ele>507.00000000000006</ele><time>2026-04-03T07:34:14.124Z</time></trkpt><trkpt lat="43.204265" lon="12.1456467"><ele>507.0</ele><time>2026-04-03T07:34:15.124Z</time></trkpt><trkpt lat="43.2041733" lon="12.1456567"><ele>507.0</ele><time>2026-04-03T07:34:16.124Z</time></trkpt><trkpt lat="43.2040867" lon="12.1457083"><ele>508.75</ele><time>2026-04-03T07:34:17.124Z</time></trkpt><trkpt lat="43.2040033" lon="12.1457733"><ele>510.5</ele><time>2026-04-03T07:34:18.124Z</time></trkpt><trkpt lat="43.20393" lon="12.14588"><ele>512.25</ele><time>2026-04-03T07:34:19.124Z</time></trkpt><trkpt lat="43.2038583" lon="12.146035"><ele>514.0</ele><time>2026-04-03T07:34:20.124Z</time></trkpt><trkpt lat="43.2037783" lon="12.1461717"><ele>516.0</ele><time>2026-04-03T07:34:21.124Z</time></trkpt><trkpt lat="43.2037217" lon="12.1463033"><ele>518.0</ele><time>2026-04-03T07:34:22.125Z</time></trkpt><trkpt lat="43.2036833" lon="12.1464217"><ele>520.0</ele><time>2026-04-03T07:34:23.125Z</time></trkpt><trkpt lat="43.2036467" lon="12.146565"><ele>522.0</ele><time>2026-04-03T07:34:24.125Z</time></trkpt><trkpt lat="43.203605" lon="12.1467267"><ele>524.0</ele><time>2026-04-03T07:34:25.125Z</time></trkpt><trkpt lat="43.2035567" lon="12.1468883"><ele>524.0</ele><time>2026-04-03T07:34:26.124Z</time></trkpt><trkpt lat="43.2035" lon="12.14703"><ele>524.0</ele><time>2026-04-03T07:34:27.124Z</time></trkpt><trkpt lat="43.2034383" lon="12.1471183"><ele>524.0</ele><time>2026-04-03T07:34:28.124Z</time></trkpt><trkpt lat="43.20335" lon="12.147185"><ele>524.0</ele><time>2026-04-03T07:34:29.125Z</time></trkpt><trkpt lat="43.20325" lon="12.1472183"><ele>524.0</ele><time>2026-04-03T07:34:30.124Z</time></trkpt><trkpt lat="43.2031417" lon="12.1472683"><ele>524.0</ele><time>2026-04-03T07:34:31.124Z</time></trkpt><trkpt lat="43.2030267" lon="12.147335"><ele>524.0</ele><time>2026-04-03T07:34:32.124Z</time></trkpt><trkpt lat="43.2029017" lon="12.1474333"><ele>524.0</ele><time>2026-04-03T07:34:33.124Z</time></trkpt><trkpt lat="43.202785" lon="12.1475483"><ele>524.0</ele><time>2026-04-03T07:34:34.124Z</time></trkpt><trkpt lat="43.20268" lon="12.1476867"><ele>525.0</ele><time>2026-04-03T07:34:35.125Z</time></trkpt><trkpt lat="43.2025683" lon="12.1478667"><ele>526.0</ele><time>2026-04-03T07:34:36.124Z</time></trkpt><trkpt lat="43.20247" lon="12.14805"><ele>527.0</ele><time>2026-04-03T07:34:37.124Z</time></trkpt><trkpt lat="43.2023583" lon="12.1482333"><ele>528.0</ele><time>2026-04-03T07:34:38.124Z</time></trkpt><trkpt lat="43.2022533" lon="12.1484333"><ele>529.0</ele><time>2026-04-03T07:34:39.125Z</time></trkpt><trkpt lat="43.2021267" lon="12.148635"><ele>530.0</ele><time>2026-04-03T07:34:40.125Z</time></trkpt><trkpt lat="43.20199" lon="12.14883"><ele>530.0</ele><time>2026-04-03T07:34:41.125Z</time></trkpt><trkpt lat="43.2018733" lon="12.1490117"><ele>530.0</ele><time>2026-04-03T07:34:42.124Z</time></trkpt><trkpt lat="43.2017767" lon="12.14916"><ele>530.0</ele><time>2026-04-03T07:34:43.124Z</time></trkpt><trkpt lat="43.2017033" lon="12.1493017"><ele>530.0</ele><time>2026-04-03T07:34:44.124Z</time></trkpt><trkpt lat="43.2016483" lon="12.149455"><ele>533.0</ele><time>2026-04-03T07:34:45.125Z</time></trkpt><trkpt lat="43.2016133" lon="12.1496167"><ele>536.0</ele><time>2026-04-03T07:34:46.125Z</time></trkpt><trkpt lat="43.20158" lon="12.1497983"><ele>539.0</ele><time>2026-04-03T07:34:47.124Z</time></trkpt><trkpt lat="43.2015483" lon="12.15"><ele>542.0</ele><time>2026-04-03T07:34:48.125Z</time></trkpt><trkpt lat="43.2015233" lon="12.15022"><ele>539.0</ele><time>2026-04-03T07:34:49.124Z</time></trkpt><trkpt lat="43.2014933" lon="12.1504667"><ele>536.0</ele><time>2026-04-03T07:34:50.124Z</time></trkpt><trkpt lat="43.2014533" lon="12.1507283"><ele>533.0</ele><time>2026-04-03T07:34:51.125Z</time></trkpt><trkpt lat="43.2013917" lon="12.1509767"><ele>533.0</ele><time>2026-04-03T07:34:52.125Z</time></trkpt><trkpt lat="43.2013217" lon="12.1512133"><ele>533.0</ele><time>2026-04-03T07:34:53.124Z</time></trkpt><trkpt lat="43.2012333" lon="12.15144"><ele>533.0</ele><time>2026-04-03T07:34:54.125Z</time></trkpt><trkpt lat="43.2011433" lon="12.1516583"><ele>536.75</ele><time>2026-04-03T07:34:55.124Z</time></trkpt><trkpt lat="43.2010483" lon="12.15187"><ele>540.5</ele><time>2026-04-03T07:34:56.124Z</time></trkpt><trkpt lat="43.2009617" lon="12.1520333"><ele>544.25</ele><time>2026-04-03T07:34:57.124Z</time></trkpt><trkpt lat="43.2009033" lon="12.1521767"><ele>548.0</ele><time>2026-04-03T07:34:58.124Z</time></trkpt><trkpt lat="43.200865" lon="12.1523233"><ele>550.6</ele><time>2026-04-03T07:34:59.125Z</time></trkpt><trkpt lat="43.20085" lon="12.1524617"><ele>553.1999999999999</ele><time>2026-04-03T07:35:00.124Z</time></trkpt><trkpt lat="43.2008467" lon="12.1525983"><ele>555.8</ele><time>2026-04-03T07:35:01.124Z</time></trkpt><trkpt lat="43.2008617" lon="12.1527333"><ele>558.4</ele><time>2026-04-03T07:35:02.124Z</time></trkpt><trkpt lat="43.2008983" lon="12.15288"><ele>561.0</ele><time>2026-04-03T07:35:03.125Z</time></trkpt><trkpt lat="43.2009483" lon="12.1530317"><ele>562.5</ele><time>2026-04-03T07:35:04.124Z</time></trkpt><trkpt lat="43.2009967" lon="12.1532183"><ele>564.0</ele><time>2026-04-03T07:35:05.124Z</time></trkpt><trkpt lat="43.20103" lon="12.153415"><ele>565.5</ele><time>2026-04-03T07:35:06.125Z</time></trkpt><trkpt lat="43.2010433" lon="12.1536"><ele>567.0</ele><time>2026-04-03T07:35:07.124Z</time></trkpt><trkpt lat="43.20105" lon="12.153805"><ele>567.0</ele><time>2026-04-03T07:35:08.124Z</time></trkpt><trkpt lat="43.2010583" lon="12.154015"><ele>567.0</ele><time>2026-04-03T07:35:09.124Z</time></trkpt><trkpt lat="43.2010767" lon="12.15421"><ele>567.0</ele><time>2026-04-03T07:35:10.124Z</time></trkpt><trkpt lat="43.2010917" lon="12.1543783"><ele>567.0</ele><time>2026-04-03T07:35:11.124Z</time></trkpt><trkpt lat="43.2011183" lon="12.1545217"><ele>567.0</ele><time>2026-04-03T07:35:12.124Z</time></trkpt><trkpt lat="43.2011533" lon="12.1546567"><ele>567.0</ele><time>2026-04-03T07:35:13.125Z</time></trkpt><trkpt lat="43.2012083" lon="12.1547567"><ele>567.0</ele><time>2026-04-03T07:35:14.124Z</time></trkpt><trkpt lat="43.20129" lon="12.1548433"><ele>567.0</ele><time>2026-04-03T07:35:15.124Z</time></trkpt><trkpt lat="43.20139" lon="12.1549367"><ele>567.0</ele><time>2026-04-03T07:35:16.125Z</time></trkpt><trkpt lat="43.2014933" lon="12.15505"><ele>566.0</ele><time>2026-04-03T07:35:17.125Z</time></trkpt><trkpt lat="43.201595" lon="12.1551867"><ele>565.0</ele><time>2026-04-03T07:35:18.124Z</time></trkpt><trkpt lat="43.2016833" lon="12.1553417"><ele>564.0</ele><time>2026-04-03T07:35:19.124Z</time></trkpt><trkpt lat="43.20176" lon="12.155515"><ele>563.0</ele><time>2026-04-03T07:35:20.124Z</time></trkpt><trkpt lat="43.201825" lon="12.15568"><ele>563.0</ele><time>2026-04-03T07:35:21.125Z</time></trkpt><trkpt lat="43.2018767" lon="12.155805"><ele>563.0</ele><time>2026-04-03T07:35:22.125Z</time></trkpt><trkpt lat="43.2019267" lon="12.155905"><ele>563.0</ele><time>2026-04-03T07:35:23.124Z</time></trkpt><trkpt lat="43.2019867" lon="12.1559917"><ele>563.0</ele><time>2026-04-03T07:35:24.124Z</time></trkpt><trkpt lat="43.2020617" lon="12.1560783"><ele>563.0</ele><time>2026-04-03T07:35:25.125Z</time></trkpt><trkpt lat="43.2021617" lon="12.1561533"><ele>563.0</ele><time>2026-04-03T07:35:26.124Z</time></trkpt><trkpt lat="43.2022667" lon="12.1562333"><ele>563.0</ele><time>2026-04-03T07:35:27.124Z</time></trkpt><trkpt lat="43.202365" lon="12.1563083"><ele>563.0</ele><time>2026-04-03T07:35:28.124Z</time></trkpt><trkpt lat="43.2024533" lon="12.1563667"><ele>563.0</ele><time>2026-04-03T07:35:29.124Z</time></trkpt><trkpt lat="43.2025317" lon="12.1564183"><ele>563.0</ele><time>2026-04-03T07:35:30.124Z</time></trkpt><trkpt lat="43.202595" lon="12.1564583"><ele>562.0</ele><time>2026-04-03T07:35:31.124Z</time></trkpt><trkpt lat="43.2026783" lon="12.1565317"><ele>561.0</ele><time>2026-04-03T07:35:33.124Z</time></trkpt><trkpt lat="43.2027217" lon="12.15664"><ele>560.0</ele><time>2026-04-03T07:35:35.124Z</time></trkpt><trkpt lat="43.20269" lon="12.1567733"><ele>559.0</ele><time>2026-04-03T07:35:37.124Z</time></trkpt><trkpt lat="43.2026433" lon="12.1568417"><ele>558.0</ele><time>2026-04-03T07:35:38.125Z</time></trkpt><trkpt lat="43.2025483" lon="12.156895"><ele>556.6</ele><time>2026-04-03T07:35:39.124Z</time></trkpt><trkpt lat="43.2024517" lon="12.1569567"><ele>555.1999999999999</ele><time>2026-04-03T07:35:40.124Z</time></trkpt><trkpt lat="43.20237" lon="12.157015"><ele>553.8</ele><time>2026-04-03T07:35:41.124Z</time></trkpt><trkpt lat="43.2023067" lon="12.1570867"><ele>552.4</ele><time>2026-04-03T07:35:42.125Z</time></trkpt><trkpt lat="43.2022717" lon="12.1571633"><ele>551.0</ele><time>2026-04-03T07:35:43.124Z</time></trkpt><trkpt lat="43.202255" lon="12.1573217"><ele>548.5</ele><time>2026-04-03T07:35:45.124Z</time></trkpt><trkpt lat="43.2022883" lon="12.1574217"><ele>546.0</ele><time>2026-04-03T07:35:46.125Z</time></trkpt><trkpt lat="43.2023383" lon="12.15755"><ele>543.5</ele><time>2026-04-03T07:35:47.125Z</time></trkpt><trkpt lat="43.2024033" lon="12.15771"><ele>541.0</ele><time>2026-04-03T07:35:48.124Z</time></trkpt><trkpt lat="43.2024833" lon="12.1579067"><ele>541.0</ele><time>2026-04-03T07:35:49.124Z</time></trkpt><trkpt lat="43.2025617" lon="12.1581183"><ele>541.0</ele><time>2026-04-03T07:35:50.124Z</time></trkpt><trkpt lat="43.2026367" lon="12.1583283"><ele>541.0</ele><time>2026-04-03T07:35:51.125Z</time></trkpt><trkpt lat="43.202705" lon="12.1585183"><ele>539.75</ele><time>2026-04-03T07:35:52.125Z</time></trkpt><trkpt lat="43.2027733" lon="12.1586817"><ele>538.5</ele><time>2026-04-03T07:35:53.125Z</time></trkpt><trkpt lat="43.2028183" lon="12.1588317"><ele>537.25</ele><time>2026-04-03T07:35:54.124Z</time></trkpt><trkpt lat="43.2028417" lon="12.1589967"><ele>536.0</ele><time>2026-04-03T07:35:55.124Z</time></trkpt><trkpt lat="43.20285" lon="12.15914"><ele>534.25</ele><time>2026-04-03T07:35:56.124Z</time></trkpt><trkpt lat="43.202825" lon="12.1593"><ele>532.5</ele><time>2026-04-03T07:35:57.125Z</time></trkpt><trkpt lat="43.20279" lon="12.1594767"><ele>530.75</ele><time>2026-04-03T07:35:58.124Z</time></trkpt><trkpt lat="43.202745" lon="12.159665"><ele>529.0</ele><time>2026-04-03T07:35:59.125Z</time></trkpt><trkpt lat="43.20269" lon="12.1598617"><ele>528.6666666666667</ele><time>2026-04-03T07:36:00.124Z</time></trkpt><trkpt lat="43.2026333" lon="12.1600467"><ele>528.3333333333334</ele><time>2026-04-03T07:36:01.124Z</time></trkpt><trkpt lat="43.2025583" lon="12.1602383"><ele>528.0</ele><time>2026-04-03T07:36:02.125Z</time></trkpt><trkpt lat="43.2024533" lon="12.16044"><ele>528.0</ele><time>2026-04-03T07:36:03.125Z</time></trkpt><trkpt lat="43.2023367" lon="12.160635"><ele>528.0</ele><time>2026-04-03T07:36:04.125Z</time></trkpt><trkpt lat="43.2022083" lon="12.1608167"><ele>528.0</ele><time>2026-04-03T07:36:05.125Z</time></trkpt><trkpt lat="43.20207" lon="12.1609917"><ele>529.0</ele><time>2026-04-03T07:36:06.125Z</time></trkpt><trkpt lat="43.2019183" lon="12.161155"><ele>530.0</ele><time>2026-04-03T07:36:07.125Z</time></trkpt><trkpt lat="43.2017533" lon="12.1612867"><ele>531.0</ele><time>2026-04-03T07:36:08.124Z</time></trkpt><trkpt lat="43.2015867" lon="12.1614283"><ele>531.3333333333334</ele><time>2026-04-03T07:36:09.124Z</time></trkpt><trkpt lat="43.2014417" lon="12.1615583"><ele>531.6666666666667</ele><time>2026-04-03T07:36:10.124Z</time></trkpt><trkpt lat="43.2013217" lon="12.1616917"><ele>532.0</ele><time>2026-04-03T07:36:11.124Z</time></trkpt><trkpt lat="43.2012233" lon="12.161795"><ele>532.0</ele><time>2026-04-03T07:36:12.124Z</time></trkpt><trkpt lat="43.20115" lon="12.1618883"><ele>532.0</ele><time>2026-04-03T07:36:13.124Z</time></trkpt><trkpt lat="43.2010967" lon="12.16196"><ele>532.0</ele><time>2026-04-03T07:36:14.125Z</time></trkpt><trkpt lat="43.2010483" lon="12.1620233"><ele>532.0</ele><time>2026-04-03T07:36:15.124Z</time></trkpt><trkpt lat="43.2010017" lon="12.16209"><ele>532.0</ele><time>2026-04-03T07:36:16.124Z</time></trkpt><trkpt lat="43.2009533" lon="12.162155"><ele>532.0</ele><time>2026-04-03T07:36:17.124Z</time></trkpt><trkpt lat="43.2009133" lon="12.1622283"><ele>532.0</ele><time>2026-04-03T07:36:18.124Z</time></trkpt><trkpt lat="43.200865" lon="12.1622983"><ele>532.0</ele><time>2026-04-03T07:36:19.124Z</time></trkpt><trkpt lat="43.2008033" lon="12.1623783"><ele>532.0</ele><time>2026-04-03T07:36:20.124Z</time></trkpt><trkpt lat="43.2007333" lon="12.1624717"><ele>532.0</ele><time>2026-04-03T07:36:21.124Z</time></trkpt><trkpt lat="43.20065" lon="12.1625767"><ele>532.0</ele><time>2026-04-03T07:36:22.124Z</time></trkpt><trkpt lat="43.2005483" lon="12.1626933"><ele>532.0</ele><time>2026-04-03T07:36:23.124Z</time></trkpt><trkpt lat="43.2004533" lon="12.1628233"><ele>532.0</ele><time>2026-04-03T07:36:24.124Z</time></trkpt><trkpt lat="43.2003617" lon="12.162945"><ele>532.0</ele><time>2026-04-03T07:36:25.124Z</time></trkpt><trkpt lat="43.2002933" lon="12.1630517"><ele>532.0</ele><time>2026-04-03T07:36:26.124Z</time></trkpt><trkpt lat="43.2002517" lon="12.1631517"><ele>532.0</ele><time>2026-04-03T07:36:27.124Z</time></trkpt><trkpt lat="43.2002333" lon="12.1632583"><ele>532.0</ele><time>2026-04-03T07:36:28.124Z</time></trkpt><trkpt lat="43.200225" lon="12.16338"><ele>534.6</ele><time>2026-04-03T07:36:29.124Z</time></trkpt><trkpt lat="43.20022" lon="12.1635117"><ele>537.2</ele><time>2026-04-03T07:36:30.124Z</time></trkpt><trkpt lat="43.2002283" lon="12.1636583"><ele>539.8</ele><time>2026-04-03T07:36:31.125Z</time></trkpt><trkpt lat="43.200245" lon="12.1638167"><ele>542.4</ele><time>2026-04-03T07:36:32.125Z</time></trkpt><trkpt lat="43.20027" lon="12.16399"><ele>545.0</ele><time>2026-04-03T07:36:33.124Z</time></trkpt><trkpt lat="43.2003017" lon="12.1641717"><ele>545.6666666666666</ele><time>2026-04-03T07:36:34.124Z</time></trkpt><trkpt lat="43.2003367" lon="12.1643833"><ele>546.3333333333334</ele><time>2026-04-03T07:36:35.124Z</time></trkpt><trkpt lat="43.2003867" lon="12.164605"><ele>547.0</ele><time>2026-04-03T07:36:36.124Z</time></trkpt><trkpt lat="43.2004417" lon="12.1648167"><ele>548.5</ele><time>2026-04-03T07:36:37.124Z</time></trkpt><trkpt lat="43.20047" lon="12.1650217"><ele>550.0</ele><time>2026-04-03T07:36:38.124Z</time></trkpt><trkpt lat="43.20048" lon="12.1652033"><ele>551.5</ele><time>2026-04-03T07:36:39.124Z</time></trkpt><trkpt lat="43.2004617" lon="12.1653667"><ele>553.0</ele><time>2026-04-03T07:36:40.124Z</time></trkpt><trkpt lat="43.2004317" lon="12.1655483"><ele>554.75</ele><time>2026-04-03T07:36:41.124Z</time></trkpt><trkpt lat="43.2003817" lon="12.16574"><ele>556.5</ele><time>2026-04-03T07:36:42.124Z</time></trkpt><trkpt lat="43.20032" lon="12.165925"><ele>558.25</ele><time>2026-04-03T07:36:43.124Z</time></trkpt><trkpt lat="43.2002733" lon="12.16611"><ele>560.0</ele><time>2026-04-03T07:36:44.124Z</time></trkpt><trkpt lat="43.2002517" lon="12.1662983"><ele>560.0</ele><time>2026-04-03T07:36:45.125Z</time></trkpt><trkpt lat="43.2002567" lon="12.1664583"><ele>560.0</ele><time>2026-04-03T07:36:46.124Z</time></trkpt><trkpt lat="43.20028" lon="12.16662"><ele>560.0</ele><time>2026-04-03T07:36:47.125Z</time></trkpt><trkpt lat="43.2003117" lon="12.1667867"><ele>560.0</ele><time>2026-04-03T07:36:48.124Z</time></trkpt><trkpt lat="43.2003467" lon="12.1669917"><ele>562.3333333333333</ele><time>2026-04-03T07:36:49.124Z</time></trkpt><trkpt lat="43.20039" lon="12.1672183"><ele>564.6666666666666</ele><time>2026-04-03T07:36:50.124Z</time></trkpt><trkpt lat="43.2004333" lon="12.1674517"><ele>567.0</ele><time>2026-04-03T07:36:51.125Z</time></trkpt><trkpt lat="43.2005" lon="12.1676783"><ele>566.3333333333334</ele><time>2026-04-03T07:36:52.124Z</time></trkpt><trkpt lat="43.2005683" lon="12.16791"><ele>565.6666666666667</ele><time>2026-04-03T07:36:53.124Z</time></trkpt><trkpt lat="43.2006483" lon="12.168125"><ele>565.0</ele><time>2026-04-03T07:36:54.125Z</time></trkpt><trkpt lat="43.2007467" lon="12.1683467"><ele>565.0</ele><time>2026-04-03T07:36:55.124Z</time></trkpt><trkpt lat="43.2008433" lon="12.1685667"><ele>565.0</ele><time>2026-04-03T07:36:56.124Z</time></trkpt><trkpt lat="43.2009233" lon="12.1687817"><ele>565.0</ele><time>2026-04-03T07:36:57.125Z</time></trkpt><trkpt lat="43.2009917" lon="12.1689733"><ele>566.0</ele><time>2026-04-03T07:36:58.124Z</time></trkpt><trkpt lat="43.201045" lon="12.1691667"><ele>567.0</ele><time>2026-04-03T07:36:59.125Z</time></trkpt><trkpt lat="43.2010883" lon="12.1693317"><ele>568.0</ele><time>2026-04-03T07:37:00.125Z</time></trkpt><trkpt lat="43.201115" lon="12.169465"><ele>569.0</ele><time>2026-04-03T07:37:01.125Z</time></trkpt><trkpt lat="43.201115" lon="12.169595"><ele>569.0</ele><time>2026-04-03T07:37:02.124Z</time></trkpt><trkpt lat="43.2011033" lon="12.16974"><ele>569.0</ele><time>2026-04-03T07:37:03.124Z</time></trkpt><trkpt lat="43.20108" lon="12.169905"><ele>569.0</ele><time>2026-04-03T07:37:04.124Z</time></trkpt><trkpt lat="43.2010683" lon="12.17005"><ele>569.0</ele><time>2026-04-03T07:37:05.124Z</time></trkpt><trkpt lat="43.201075" lon="12.1701667"><ele>569.0</ele><time>2026-04-03T07:37:06.124Z</time></trkpt><trkpt lat="43.2010983" lon="12.1702767"><ele>570.0</ele><time>2026-04-03T07:37:07.124Z</time></trkpt><trkpt lat="43.2011533" lon="12.1703883"><ele>571.0</ele><time>2026-04-03T07:37:08.124Z</time></trkpt><trkpt lat="43.2012383" lon="12.1705017"><ele>572.0</ele><time>2026-04-03T07:37:09.125Z</time></trkpt><trkpt lat="43.2013367" lon="12.170635"><ele>573.0</ele><time>2026-04-03T07:37:10.124Z</time></trkpt><trkpt lat="43.20146" lon="12.1707633"><ele>570.3333333333334</ele><time>2026-04-03T07:37:11.124Z</time></trkpt><trkpt lat="43.2015917" lon="12.1709117"><ele>567.6666666666667</ele><time>2026-04-03T07:37:12.125Z</time></trkpt><trkpt lat="43.2017517" lon="12.1710567"><ele>565.0</ele><time>2026-04-03T07:37:13.124Z</time></trkpt><trkpt lat="43.2019183" lon="12.171205"><ele>565.0</ele><time>2026-04-03T07:37:14.124Z</time></trkpt><trkpt lat="43.2020767" lon="12.1713883"><ele>565.0</ele><time>2026-04-03T07:37:15.124Z</time></trkpt><trkpt lat="43.2022333" lon="12.1715533"><ele>565.0</ele><time>2026-04-03T07:37:16.124Z</time></trkpt><trkpt lat="43.202375" lon="12.17169"><ele>565.75</ele><time>2026-04-03T07:37:17.125Z</time></trkpt><trkpt lat="43.2024933" lon="12.1718083"><ele>566.5</ele><time>2026-04-03T07:37:18.125Z</time></trkpt><trkpt lat="43.2025833" lon="12.1719167"><ele>567.25</ele><time>2026-04-03T07:37:19.125Z</time></trkpt><trkpt lat="43.2026517" lon="12.17202"><ele>568.0</ele><time>2026-04-03T07:37:20.124Z</time></trkpt><trkpt lat="43.2026917" lon="12.17214"><ele>568.0</ele><time>2026-04-03T07:37:21.124Z</time></trkpt><trkpt lat="43.20272" lon="12.1722717"><ele>568.0</ele><time>2026-04-03T07:37:22.124Z</time></trkpt><trkpt lat="43.2027533" lon="12.1723967"><ele>568.0</ele><time>2026-04-03T07:37:23.124Z</time></trkpt><trkpt lat="43.2027767" lon="12.1724983"><ele>568.0</ele><time>2026-04-03T07:37:24.124Z</time></trkpt><trkpt lat="43.2027783" lon="12.17259"><ele>568.0</ele><time>2026-04-03T07:37:25.125Z</time></trkpt><trkpt lat="43.20266" lon="12.1727117"><ele>569.5</ele><time>2026-04-03T07:37:27.124Z</time></trkpt><trkpt lat="43.20256" lon="12.1727617"><ele>571.0</ele><time>2026-04-03T07:37:28.124Z</time></trkpt><trkpt lat="43.2024433" lon="12.17279"><ele>572.5</ele><time>2026-04-03T07:37:29.125Z</time></trkpt><trkpt lat="43.2023083" lon="12.17282"><ele>574.0</ele><time>2026-04-03T07:37:30.125Z</time></trkpt><trkpt lat="43.20215" lon="12.1728717"><ele>576.6666666666667</ele><time>2026-04-03T07:37:31.125Z</time></trkpt><trkpt lat="43.201985" lon="12.1729133"><ele>579.3333333333334</ele><time>2026-04-03T07:37:32.124Z</time></trkpt><trkpt lat="43.2018067" lon="12.1729717"><ele>582.0</ele><time>2026-04-03T07:37:33.124Z</time></trkpt><trkpt lat="43.2016183" lon="12.17303"><ele>580.3333333333334</ele><time>2026-04-03T07:37:34.124Z</time></trkpt><trkpt lat="43.2014217" lon="12.173105"><ele>578.6666666666667</ele><time>2026-04-03T07:37:35.125Z</time></trkpt><trkpt lat="43.2012217" lon="12.1732033"><ele>577.0</ele><time>2026-04-03T07:37:36.125Z</time></trkpt><trkpt lat="43.2010133" lon="12.1732933"><ele>577.0</ele><time>2026-04-03T07:37:37.124Z</time></trkpt><trkpt lat="43.2008267" lon="12.1733983"><ele>577.0</ele><time>2026-04-03T07:37:38.124Z</time></trkpt><trkpt lat="43.20067" lon="12.1734917"><ele>577.0</ele><time>2026-04-03T07:37:39.124Z</time></trkpt><trkpt lat="43.2005417" lon="12.1735917"><ele>577.5</ele><time>2026-04-03T07:37:40.124Z</time></trkpt><trkpt lat="43.2004567" lon="12.1736867"><ele>578.0</ele><time>2026-04-03T07:37:41.124Z</time></trkpt><trkpt lat="43.20039" lon="12.1738133"><ele>578.5</ele><time>2026-04-03T07:37:42.124Z</time></trkpt><trkpt lat="43.20034" lon="12.1739583"><ele>579.0</ele><time>2026-04-03T07:37:43.124Z</time></trkpt><trkpt lat="43.2002767" lon="12.1740983"><ele>576.0</ele><time>2026-04-03T07:37:44.125Z</time></trkpt><trkpt lat="43.2002017" lon="12.1742383"><ele>573.0</ele><time>2026-04-03T07:37:45.124Z</time></trkpt><trkpt lat="43.2001067" lon="12.17436"><ele>570.0</ele><time>2026-04-03T07:37:46.124Z</time></trkpt><trkpt lat="43.200005" lon="12.1744617"><ele>567.0</ele><time>2026-04-03T07:37:47.124Z</time></trkpt><trkpt lat="43.1998983" lon="12.1745683"><ele>564.25</ele><time>2026-04-03T07:37:48.124Z</time></trkpt><trkpt lat="43.1997917" lon="12.1746883"><ele>561.5</ele><time>2026-04-03T07:37:49.124Z</time></trkpt><trkpt lat="43.199695" lon="12.1748083"><ele>558.75</ele><time>2026-04-03T07:37:50.124Z</time></trkpt><trkpt lat="43.1995967" lon="12.1749267"><ele>556.0</ele><time>2026-04-03T07:37:51.124Z</time></trkpt><trkpt lat="43.1995117" lon="12.1750333"><ele>555.4</ele><time>2026-04-03T07:37:52.124Z</time></trkpt><trkpt lat="43.1994317" lon="12.1751233"><ele>554.8</ele><time>2026-04-03T07:37:53.124Z</time></trkpt><trkpt lat="43.1993733" lon="12.1752033"><ele>554.1999999999999</ele><time>2026-04-03T07:37:54.124Z</time></trkpt><trkpt lat="43.199315" lon="12.1753033"><ele>553.6</ele><time>2026-04-03T07:37:55.124Z</time></trkpt><trkpt lat="43.19928" lon="12.1754217"><ele>553.0</ele><time>2026-04-03T07:37:56.125Z</time></trkpt><trkpt lat="43.19926" lon="12.1755483"><ele>550.5</ele><time>2026-04-03T07:37:57.124Z</time></trkpt><trkpt lat="43.1992517" lon="12.1757233"><ele>548.0</ele><time>2026-04-03T07:37:58.124Z</time></trkpt><trkpt lat="43.1992467" lon="12.17593"><ele>545.5</ele><time>2026-04-03T07:37:59.124Z</time></trkpt><trkpt lat="43.1992433" lon="12.1761433"><ele>543.0</ele><time>2026-04-03T07:38:00.124Z</time></trkpt><trkpt lat="43.19923" lon="12.1763733"><ele>541.0</ele><time>2026-04-03T07:38:01.124Z</time></trkpt><trkpt lat="43.1991967" lon="12.176605"><ele>539.0</ele><time>2026-04-03T07:38:02.125Z</time></trkpt><trkpt lat="43.1991583" lon="12.1768567"><ele>537.0</ele><time>2026-04-03T07:38:03.124Z</time></trkpt><trkpt lat="43.1990733" lon="12.1771483"><ele>530.0</ele><time>2026-04-03T07:38:04.124Z</time></trkpt><trkpt lat="43.1989867" lon="12.1774433"><ele>523.0</ele><time>2026-04-03T07:38:05.125Z</time></trkpt><trkpt lat="43.1988917" lon="12.1777417"><ele>523.0</ele><time>2026-04-03T07:38:06.125Z</time></trkpt><trkpt lat="43.1988167" lon="12.1780267"><ele>523.0</ele><time>2026-04-03T07:38:07.125Z</time></trkpt><trkpt lat="43.1987517" lon="12.1782883"><ele>523.0</ele><time>2026-04-03T07:38:08.124Z</time></trkpt><trkpt lat="43.1986817" lon="12.1785233"><ele>522.6666666666667</ele><time>2026-04-03T07:38:09.124Z</time></trkpt><trkpt lat="43.198595" lon="12.1787667"><ele>522.3333333333334</ele><time>2026-04-03T07:38:10.124Z</time></trkpt><trkpt lat="43.1985033" lon="12.1790167"><ele>522.0</ele><time>2026-04-03T07:38:11.124Z</time></trkpt><trkpt lat="43.198415" lon="12.1792433"><ele>521.5</ele><time>2026-04-03T07:38:12.124Z</time></trkpt><trkpt lat="43.1983367" lon="12.17943"><ele>521.0</ele><time>2026-04-03T07:38:13.125Z</time></trkpt><trkpt lat="43.1982433" lon="12.179595"><ele>520.5</ele><time>2026-04-03T07:38:14.124Z</time></trkpt><trkpt lat="43.1981633" lon="12.1797267"><ele>520.0</ele><time>2026-04-03T07:38:15.125Z</time></trkpt><trkpt lat="43.1980933" lon="12.1798133"><ele>518.6</ele><time>2026-04-03T07:38:16.124Z</time></trkpt><trkpt lat="43.1980383" lon="12.1798583"><ele>517.2</ele><time>2026-04-03T07:38:17.124Z</time></trkpt><trkpt lat="43.1979517" lon="12.1798783"><ele>515.8</ele><time>2026-04-03T07:40:48.124Z</time></trkpt><trkpt lat="43.1978533" lon="12.1799483"><ele>514.4</ele><time>2026-04-03T07:40:50.125Z</time></trkpt><trkpt lat="43.1977833" lon="12.1800167"><ele>513.0</ele><time>2026-04-03T07:40:51.124Z</time></trkpt><trkpt lat="43.197705" lon="12.180105"><ele>513.0</ele><time>2026-04-03T07:40:52.124Z</time></trkpt><trkpt lat="43.1976467" lon="12.1801967"><ele>513.0</ele><time>2026-04-03T07:40:53.125Z</time></trkpt><trkpt lat="43.1976" lon="12.1802867"><ele>513.0</ele><time>2026-04-03T07:40:54.125Z</time></trkpt><trkpt lat="43.19757" lon="12.1803717"><ele>513.0</ele><time>2026-04-03T07:40:55.124Z</time></trkpt><trkpt lat="43.1975583" lon="12.1804617"><ele>513.0</ele><time>2026-04-03T07:40:56.124Z</time></trkpt><trkpt lat="43.197565" lon="12.1806133"><ele>513.0</ele><time>2026-04-03T07:40:58.124Z</time></trkpt><trkpt lat="43.19762" lon="12.18078"><ele>512.4</ele><time>2026-04-03T07:41:00.125Z</time></trkpt><trkpt lat="43.1976633" lon="12.1808883"><ele>511.79999999999995</ele><time>2026-04-03T07:41:01.124Z</time></trkpt><trkpt lat="43.1977217" lon="12.181005"><ele>511.2</ele><time>2026-04-03T07:41:02.124Z</time></trkpt><trkpt lat="43.1977867" lon="12.1811317"><ele>510.6</ele><time>2026-04-03T07:41:03.124Z</time></trkpt><trkpt lat="43.1978483" lon="12.1812867"><ele>510.0</ele><time>2026-04-03T07:41:04.124Z</time></trkpt><trkpt lat="43.1978883" lon="12.1814533"><ele>508.75</ele><time>2026-04-03T07:41:05.124Z</time></trkpt><trkpt lat="43.197895" lon="12.1816283"><ele>507.5</ele><time>2026-04-03T07:41:06.124Z</time></trkpt><trkpt lat="43.1978717" lon="12.1818033"><ele>506.25</ele><time>2026-04-03T07:41:07.125Z</time></trkpt><trkpt lat="43.1978233" lon="12.1819983"><ele>505.0</ele><time>2026-04-03T07:41:08.124Z</time></trkpt><trkpt lat="43.1977583" lon="12.1822167"><ele>505.6666666666667</ele><time>2026-04-03T07:41:09.125Z</time></trkpt><trkpt lat="43.1976883" lon="12.18244"><ele>506.33333333333337</ele><time>2026-04-03T07:41:10.124Z</time></trkpt><trkpt lat="43.1975983" lon="12.1826633"><ele>507.0</ele><time>2026-04-03T07:41:11.124Z</time></trkpt><trkpt lat="43.1975133" lon="12.1828867"><ele>507.0</ele><time>2026-04-03T07:41:12.124Z</time></trkpt><trkpt lat="43.197415" lon="12.1830967"><ele>507.0</ele><time>2026-04-03T07:41:13.125Z</time></trkpt><trkpt lat="43.1973167" lon="12.183265"><ele>507.0</ele><time>2026-04-03T07:41:14.124Z</time></trkpt><trkpt lat="43.19723" lon="12.1833783"><ele>508.40000000000003</ele><time>2026-04-03T07:41:15.124Z</time></trkpt><trkpt lat="43.197145" lon="12.18344"><ele>509.80000000000007</ele><time>2026-04-03T07:41:16.124Z</time></trkpt><trkpt lat="43.1970617" lon="12.18347"><ele>511.2</ele><time>2026-04-03T07:41:17.124Z</time></trkpt><trkpt lat="43.1969617" lon="12.1834833"><ele>512.6</ele><time>2026-04-03T07:41:18.124Z</time></trkpt><trkpt lat="43.19685" lon="12.1834433"><ele>514.0</ele><time>2026-04-03T07:41:19.124Z</time></trkpt><trkpt lat="43.19675" lon="12.1834167"><ele>514.0</ele><time>2026-04-03T07:41:20.125Z</time></trkpt><trkpt lat="43.19665" lon="12.183425"><ele>514.0</ele><time>2026-04-03T07:41:21.124Z</time></trkpt><trkpt lat="43.1965567" lon="12.1834667"><ele>514.0</ele><time>2026-04-03T07:41:22.124Z</time></trkpt><trkpt lat="43.1964767" lon="12.1835333"><ele>514.0</ele><time>2026-04-03T07:41:23.124Z</time></trkpt><trkpt lat="43.1963917" lon="12.1836267"><ele>514.0</ele><time>2026-04-03T07:41:24.125Z</time></trkpt><trkpt lat="43.196305" lon="12.183745"><ele>514.75</ele><time>2026-04-03T07:41:25.124Z</time></trkpt><trkpt lat="43.196195" lon="12.183865"><ele>515.5</ele><time>2026-04-03T07:41:26.125Z</time></trkpt><trkpt lat="43.196085" lon="12.18398"><ele>516.25</ele><time>2026-04-03T07:41:27.125Z</time></trkpt><trkpt lat="43.1959983" lon="12.1840933"><ele>517.0</ele><time>2026-04-03T07:41:28.124Z</time></trkpt><trkpt lat="43.19595" lon="12.1842067"><ele>518.2</ele><time>2026-04-03T07:41:29.124Z</time></trkpt><trkpt lat="43.1959267" lon="12.184315"><ele>519.4000000000001</ele><time>2026-04-03T07:41:30.124Z</time></trkpt><trkpt lat="43.1959217" lon="12.1844533"><ele>520.5999999999999</ele><time>2026-04-03T07:41:31.124Z</time></trkpt><trkpt lat="43.1959333" lon="12.184605"><ele>521.8</ele><time>2026-04-03T07:41:32.125Z</time></trkpt><trkpt lat="43.195955" lon="12.184765"><ele>523.0</ele><time>2026-04-03T07:41:33.125Z</time></trkpt><trkpt lat="43.1959767" lon="12.1849617"><ele>524.3333333333334</ele><time>2026-04-03T07:41:34.124Z</time></trkpt><trkpt lat="43.1960133" lon="12.1851767"><ele>525.6666666666666</ele><time>2026-04-03T07:41:35.124Z</time></trkpt><trkpt lat="43.1960467" lon="12.1853983"><ele>527.0</ele><time>2026-04-03T07:41:36.124Z</time></trkpt><trkpt lat="43.1960967" lon="12.1856433"><ele>529.3333333333333</ele><time>2026-04-03T07:41:37.124Z</time></trkpt><trkpt lat="43.1961467" lon="12.1858917"><ele>531.6666666666666</ele><time>2026-04-03T07:41:38.124Z</time></trkpt><trkpt lat="43.1962017" lon="12.1861567"><ele>534.0</ele><time>2026-04-03T07:41:39.124Z</time></trkpt><trkpt lat="43.196235" lon="12.186395"><ele>536.25</ele><time>2026-04-03T07:41:40.125Z</time></trkpt><trkpt lat="43.196255" lon="12.186595"><ele>538.5</ele><time>2026-04-03T07:41:41.124Z</time></trkpt><trkpt lat="43.1962567" lon="12.1867733"><ele>540.75</ele><time>2026-04-03T07:41:42.124Z</time></trkpt><trkpt lat="43.1962383" lon="12.18691"><ele>543.0</ele><time>2026-04-03T07:41:43.124Z</time></trkpt><trkpt lat="43.1961883" lon="12.187045"><ele>543.0</ele><time>2026-04-03T07:41:44.124Z</time></trkpt><trkpt lat="43.1961217" lon="12.1871717"><ele>543.0</ele><time>2026-04-03T07:41:45.124Z</time></trkpt><trkpt lat="43.1960333" lon="12.1873167"><ele>543.0</ele><time>2026-04-03T07:41:46.125Z</time></trkpt><trkpt lat="43.1959333" lon="12.187465"><ele>543.0</ele><time>2026-04-03T07:41:47.124Z</time></trkpt><trkpt lat="43.1958283" lon="12.187635"><ele>545.0</ele><time>2026-04-03T07:41:48.125Z</time></trkpt><trkpt lat="43.1957217" lon="12.187805"><ele>547.0</ele><time>2026-04-03T07:41:49.124Z</time></trkpt><trkpt lat="43.1956183" lon="12.1879517"><ele>549.0</ele><time>2026-04-03T07:41:50.125Z</time></trkpt><trkpt lat="43.1955217" lon="12.1880983"><ele>550.25</ele><time>2026-04-03T07:41:51.125Z</time></trkpt><trkpt lat="43.1954433" lon="12.18823"><ele>551.5</ele><time>2026-04-03T07:41:52.124Z</time></trkpt><trkpt lat="43.1953733" lon="12.1883917"><ele>552.75</ele><time>2026-04-03T07:41:53.124Z</time></trkpt><trkpt lat="43.195315" lon="12.1885867"><ele>554.0</ele><time>2026-04-03T07:41:54.124Z</time></trkpt><trkpt lat="43.1952383" lon="12.18877"><ele>554.0</ele><time>2026-04-03T07:41:55.124Z</time></trkpt><trkpt lat="43.1951383" lon="12.1889617"><ele>554.0</ele><time>2026-04-03T07:41:56.125Z</time></trkpt><trkpt lat="43.1950117" lon="12.189135"><ele>554.0</ele><time>2026-04-03T07:41:57.124Z</time></trkpt><trkpt lat="43.1948733" lon="12.1892983"><ele>553.25</ele><time>2026-04-03T07:41:58.124Z</time></trkpt><trkpt lat="43.19474" lon="12.1894433"><ele>552.5</ele><time>2026-04-03T07:41:59.125Z</time></trkpt><trkpt lat="43.1946383" lon="12.1895767"><ele>551.75</ele><time>2026-04-03T07:42:00.125Z</time></trkpt><trkpt lat="43.1945517" lon="12.1897117"><ele>551.0</ele><time>2026-04-03T07:42:01.124Z</time></trkpt><trkpt lat="43.1944917" lon="12.1898283"><ele>550.5</ele><time>2026-04-03T07:42:02.124Z</time></trkpt><trkpt lat="43.194445" lon="12.1899567"><ele>550.0</ele><time>2026-04-03T07:42:03.124Z</time></trkpt><trkpt lat="43.1944033" lon="12.1901167"><ele>549.5</ele><time>2026-04-03T07:42:04.124Z</time></trkpt><trkpt lat="43.1943633" lon="12.1903"><ele>549.0</ele><time>2026-04-03T07:42:05.124Z</time></trkpt><trkpt lat="43.194315" lon="12.190485"><ele>549.0</ele><time>2026-04-03T07:42:06.124Z</time></trkpt><trkpt lat="43.1942583" lon="12.1906367"><ele>549.0</ele><time>2026-04-03T07:42:07.125Z</time></trkpt><trkpt lat="43.194185" lon="12.19076"><ele>549.0</ele><time>2026-04-03T07:42:08.124Z</time></trkpt><trkpt lat="43.1940983" lon="12.1908467"><ele>549.0</ele><time>2026-04-03T07:42:09.125Z</time></trkpt><trkpt lat="43.1939933" lon="12.1909083"><ele>548.75</ele><time>2026-04-03T07:42:10.124Z</time></trkpt><trkpt lat="43.193865" lon="12.19096"><ele>548.5</ele><time>2026-04-03T07:42:11.124Z</time></trkpt><trkpt lat="43.19372" lon="12.1910117"><ele>548.25</ele><time>2026-04-03T07:42:12.125Z</time></trkpt><trkpt lat="43.19358" lon="12.1910583"><ele>548.0</ele><time>2026-04-03T07:42:13.124Z</time></trkpt><trkpt lat="43.19343" lon="12.1911183"><ele>548.0</ele><time>2026-04-03T07:42:14.124Z</time></trkpt><trkpt lat="43.1932833" lon="12.1911833"><ele>548.0</ele><time>2026-04-03T07:42:15.124Z</time></trkpt><trkpt lat="43.1931383" lon="12.19125"><ele>548.0</ele><time>2026-04-03T07:42:16.124Z</time></trkpt><trkpt lat="43.19301" lon="12.19131"><ele>548.0</ele><time>2026-04-03T07:42:17.125Z</time></trkpt><trkpt lat="43.1928917" lon="12.1913567"><ele>548.0</ele><time>2026-04-03T07:42:18.124Z</time></trkpt><trkpt lat="43.1927817" lon="12.1913917"><ele>548.0</ele><time>2026-04-03T07:42:19.124Z</time></trkpt><trkpt lat="43.1926917" lon="12.1914217"><ele>548.0</ele><time>2026-04-03T07:42:20.124Z</time></trkpt><trkpt lat="43.1926083" lon="12.1914717"><ele>548.0</ele><time>2026-04-03T07:42:21.124Z</time></trkpt><trkpt lat="43.19254" lon="12.1915267"><ele>548.0</ele><time>2026-04-03T07:42:22.124Z</time></trkpt><trkpt lat="43.1924717" lon="12.1916033"><ele>547.75</ele><time>2026-04-03T07:42:23.124Z</time></trkpt><trkpt lat="43.192395" lon="12.1916983"><ele>547.5</ele><time>2026-04-03T07:42:24.124Z</time></trkpt><trkpt lat="43.1923067" lon="12.1918167"><ele>547.25</ele><time>2026-04-03T07:42:25.124Z</time></trkpt><trkpt lat="43.192205" lon="12.1919433"><ele>547.0</ele><time>2026-04-03T07:42:26.125Z</time></trkpt><trkpt lat="43.19211" lon="12.1920667"><ele>547.0</ele><time>2026-04-03T07:42:27.125Z</time></trkpt><trkpt lat="43.1920017" lon="12.1922017"><ele>547.0</ele><time>2026-04-03T07:42:28.125Z</time></trkpt><trkpt lat="43.1919067" lon="12.1923233"><ele>547.0</ele><time>2026-04-03T07:42:29.124Z</time></trkpt><trkpt lat="43.1918417" lon="12.192445"><ele>547.0</ele><time>2026-04-03T07:42:30.124Z</time></trkpt><trkpt lat="43.1917817" lon="12.1925867"><ele>547.2</ele><time>2026-04-03T07:42:31.124Z</time></trkpt><trkpt lat="43.19177" lon="12.19274"><ele>547.4000000000001</ele><time>2026-04-03T07:42:32.124Z</time></trkpt><trkpt lat="43.19176" lon="12.192885"><ele>547.5999999999999</ele><time>2026-04-03T07:42:33.124Z</time></trkpt><trkpt lat="43.1917733" lon="12.1930383"><ele>547.8</ele><time>2026-04-03T07:42:34.124Z</time></trkpt><trkpt lat="43.191815" lon="12.19318"><ele>548.0</ele><time>2026-04-03T07:42:35.124Z</time></trkpt><trkpt lat="43.1918683" lon="12.1933167"><ele>548.0</ele><time>2026-04-03T07:42:36.124Z</time></trkpt><trkpt lat="43.1919433" lon="12.1934567"><ele>548.0</ele><time>2026-04-03T07:42:37.125Z</time></trkpt><trkpt lat="43.1920333" lon="12.1936083"><ele>548.0</ele><time>2026-04-03T07:42:38.124Z</time></trkpt><trkpt lat="43.1921383" lon="12.1937567"><ele>548.0</ele><time>2026-04-03T07:42:39.124Z</time></trkpt><trkpt lat="43.19225" lon="12.19392"><ele>550.0</ele><time>2026-04-03T07:42:40.125Z</time></trkpt><trkpt lat="43.1923483" lon="12.1940967"><ele>552.0</ele><time>2026-04-03T07:42:41.125Z</time></trkpt><trkpt lat="43.1924317" lon="12.19428"><ele>554.0</ele><time>2026-04-03T07:42:42.124Z</time></trkpt><trkpt lat="43.192505" lon="12.19445"><ele>554.0</ele><time>2026-04-03T07:42:43.125Z</time></trkpt><trkpt lat="43.1925617" lon="12.19462"><ele>554.0</ele><time>2026-04-03T07:42:44.124Z</time></trkpt><trkpt lat="43.19261" lon="12.1947717"><ele>554.0</ele><time>2026-04-03T07:42:45.124Z</time></trkpt><trkpt lat="43.1926633" lon="12.19489"><ele>554.0</ele><time>2026-04-03T07:42:46.125Z</time></trkpt><trkpt lat="43.1927317" lon="12.1950117"><ele>556.25</ele><time>2026-04-03T07:42:47.125Z</time></trkpt><trkpt lat="43.19282" lon="12.1951217"><ele>558.5</ele><time>2026-04-03T07:42:48.125Z</time></trkpt><trkpt lat="43.1929133" lon="12.1952317"><ele>560.75</ele><time>2026-04-03T07:42:49.124Z</time></trkpt><trkpt lat="43.1929967" lon="12.19535"><ele>563.0</ele><time>2026-04-03T07:42:50.125Z</time></trkpt><trkpt lat="43.19307" lon="12.1954633"><ele>563.0</ele><time>2026-04-03T07:42:51.124Z</time></trkpt><trkpt lat="43.193125" lon="12.1955967"><ele>563.0</ele><time>2026-04-03T07:42:52.124Z</time></trkpt><trkpt lat="43.1931783" lon="12.195745"><ele>563.0</ele><time>2026-04-03T07:42:53.125Z</time></trkpt><trkpt lat="43.1932433" lon="12.19591"><ele>563.0</ele><time>2026-04-03T07:42:54.124Z</time></trkpt><trkpt lat="43.1933167" lon="12.1960817"><ele>562.0</ele><time>2026-04-03T07:42:55.125Z</time></trkpt><trkpt lat="43.1933967" lon="12.1962367"><ele>561.0</ele><time>2026-04-03T07:42:56.124Z</time></trkpt><trkpt lat="43.19348" lon="12.1963933"><ele>560.0</ele><time>2026-04-03T07:42:57.124Z</time></trkpt><trkpt lat="43.1935583" lon="12.1965283"><ele>559.0</ele><time>2026-04-03T07:42:58.125Z</time></trkpt><trkpt lat="43.1936217" lon="12.1966417"><ele>559.0</ele><time>2026-04-03T07:42:59.124Z</time></trkpt><trkpt lat="43.1936717" lon="12.19676"><ele>559.0</ele><time>2026-04-03T07:43:00.124Z</time></trkpt><trkpt lat="43.1937083" lon="12.1968833"><ele>559.0</ele><time>2026-04-03T07:43:01.124Z</time></trkpt><trkpt lat="43.1937317" lon="12.19704"><ele>559.0</ele><time>2026-04-03T07:43:02.124Z</time></trkpt><trkpt lat="43.1937317" lon="12.1972117"><ele>559.0</ele><time>2026-04-03T07:43:03.124Z</time></trkpt><trkpt lat="43.193715" lon="12.197355"><ele>557.4</ele><time>2026-04-03T07:43:04.125Z</time></trkpt><trkpt lat="43.1936783" lon="12.1974767"><ele>555.8</ele><time>2026-04-03T07:43:05.125Z</time></trkpt><trkpt lat="43.1936133" lon="12.1975833"><ele>554.2</ele><time>2026-04-03T07:43:06.124Z</time></trkpt><trkpt lat="43.1935433" lon="12.1976817"><ele>552.6</ele><time>2026-04-03T07:43:07.124Z</time></trkpt><trkpt lat="43.1935067" lon="12.1977933"><ele>551.0</ele><time>2026-04-03T07:43:08.125Z</time></trkpt><trkpt lat="43.19349" lon="12.197885"><ele>551.0</ele><time>2026-04-03T07:43:09.124Z</time></trkpt><trkpt lat="43.1935183" lon="12.1980317"><ele>551.0</ele><time>2026-04-03T07:43:10.125Z</time></trkpt><trkpt lat="43.19358" lon="12.1981883"><ele>551.0</ele><time>2026-04-03T07:43:11.125Z</time></trkpt><trkpt lat="43.1936567" lon="12.1983683"><ele>551.0</ele><time>2026-04-03T07:43:12.124Z</time></trkpt><trkpt lat="43.1937183" lon="12.1985683"><ele>547.3333333333333</ele><time>2026-04-03T07:43:13.124Z</time></trkpt><trkpt lat="43.19378" lon="12.198775"><ele>543.6666666666666</ele><time>2026-04-03T07:43:14.124Z</time></trkpt><trkpt lat="43.193835" lon="12.1989683"><ele>540.0</ele><time>2026-04-03T07:43:15.124Z</time></trkpt><trkpt lat="43.1938867" lon="12.199145"><ele>540.5</ele><time>2026-04-03T07:43:16.124Z</time></trkpt><trkpt lat="43.1939583" lon="12.1993133"><ele>541.0</ele><time>2026-04-03T07:43:17.124Z</time></trkpt><trkpt lat="43.19403" lon="12.1994867"><ele>541.5</ele><time>2026-04-03T07:43:18.125Z</time></trkpt><trkpt lat="43.1941067" lon="12.1996567"><ele>542.0</ele><time>2026-04-03T07:43:19.125Z</time></trkpt><trkpt lat="43.1941817" lon="12.1997917"><ele>540.0</ele><time>2026-04-03T07:43:20.125Z</time></trkpt><trkpt lat="43.1942383" lon="12.1999167"><ele>538.0</ele><time>2026-04-03T07:43:21.125Z</time></trkpt><trkpt lat="43.1942917" lon="12.20002"><ele>536.0</ele><time>2026-04-03T07:43:22.123Z</time></trkpt><trkpt lat="43.1943167" lon="12.2001233"><ele>534.0</ele><time>2026-04-03T07:43:23.123Z</time></trkpt><trkpt lat="43.19433" lon="12.20025"><ele>532.0</ele><time>2026-04-03T07:43:24.123Z</time></trkpt><trkpt lat="43.1943233" lon="12.2003967"><ele>532.0</ele><time>2026-04-03T07:43:25.124Z</time></trkpt><trkpt lat="43.1942917" lon="12.2005467"><ele>532.0</ele><time>2026-04-03T07:43:26.123Z</time></trkpt><trkpt lat="43.1942217" lon="12.2007233"><ele>532.0</ele><time>2026-04-03T07:43:27.123Z</time></trkpt><trkpt lat="43.1941267" lon="12.2009233"><ele>532.0</ele><time>2026-04-03T07:43:28.123Z</time></trkpt><trkpt lat="43.1940467" lon="12.2011367"><ele>526.25</ele><time>2026-04-03T07:43:29.123Z</time></trkpt><trkpt lat="43.193985" lon="12.2013533"><ele>520.5</ele><time>2026-04-03T07:43:30.123Z</time></trkpt><trkpt lat="43.19394" lon="12.20154"><ele>514.75</ele><time>2026-04-03T07:43:31.123Z</time></trkpt><trkpt lat="43.1938983" lon="12.2017183"><ele>509.0</ele><time>2026-04-03T07:43:32.123Z</time></trkpt><trkpt lat="43.1938517" lon="12.20188"><ele>508.5</ele><time>2026-04-03T07:43:33.124Z</time></trkpt><trkpt lat="43.1938067" lon="12.20207"><ele>508.0</ele><time>2026-04-03T07:43:34.123Z</time></trkpt><trkpt lat="43.1937767" lon="12.2022367"><ele>507.5</ele><time>2026-04-03T07:43:35.124Z</time></trkpt><trkpt lat="43.1937467" lon="12.2023717"><ele>507.0</ele><time>2026-04-03T07:43:36.123Z</time></trkpt><trkpt lat="43.1937233" lon="12.2024983"><ele>507.0</ele><time>2026-04-03T07:43:37.123Z</time></trkpt><trkpt lat="43.19368" lon="12.20264"><ele>507.00000000000006</ele><time>2026-04-03T07:43:38.123Z</time></trkpt><trkpt lat="43.19364" lon="12.2027717"><ele>507.00000000000006</ele><time>2026-04-03T07:43:39.123Z</time></trkpt><trkpt lat="43.1936017" lon="12.202895"><ele>507.0</ele><time>2026-04-03T07:43:40.123Z</time></trkpt><trkpt lat="43.19357" lon="12.20302"><ele>507.0</ele><time>2026-04-03T07:43:41.124Z</time></trkpt><trkpt lat="43.19356" lon="12.2031383"><ele>507.0</ele><time>2026-04-03T07:43:42.123Z</time></trkpt><trkpt lat="43.1935683" lon="12.2032733"><ele>507.00000000000006</ele><time>2026-04-03T07:43:44.123Z</time></trkpt><trkpt lat="43.19351" lon="12.2033067"><ele>507.00000000000006</ele><time>2026-04-03T07:43:46.124Z</time></trkpt><trkpt lat="43.1933867" lon="12.2032733"><ele>507.0</ele><time>2026-04-03T07:43:48.124Z</time></trkpt><trkpt lat="43.1933017" lon="12.2032433"><ele>507.0</ele><time>2026-04-03T07:43:49.123Z</time></trkpt><trkpt lat="43.1932117" lon="12.2031917"><ele>503.8</ele><time>2026-04-03T07:43:50.123Z</time></trkpt><trkpt lat="43.1931383" lon="12.2031417"><ele>500.6</ele><time>2026-04-03T07:43:51.124Z</time></trkpt><trkpt lat="43.1930533" lon="12.2030883"><ele>497.40000000000003</ele><time>2026-04-03T07:43:52.123Z</time></trkpt><trkpt lat="43.1929817" lon="12.2030217"><ele>494.20000000000005</ele><time>2026-04-03T07:43:53.123Z</time></trkpt><trkpt lat="43.1929133" lon="12.2029"><ele>491.0</ele><time>2026-04-03T07:43:54.124Z</time></trkpt><trkpt lat="43.1928567" lon="12.2027333"><ele>491.0</ele><time>2026-04-03T07:43:55.123Z</time></trkpt><trkpt lat="43.1928117" lon="12.202525"><ele>491.0</ele><time>2026-04-03T07:43:56.123Z</time></trkpt><trkpt lat="43.1927567" lon="12.2022933"><ele>491.0</ele><time>2026-04-03T07:43:57.123Z</time></trkpt><trkpt lat="43.1927083" lon="12.202045"><ele>490.5</ele><time>2026-04-03T07:43:58.124Z</time></trkpt><trkpt lat="43.1926567" lon="12.20174"><ele>490.0</ele><time>2026-04-03T07:43:59.123Z</time></trkpt><trkpt lat="43.1925817" lon="12.2014483"><ele>490.0</ele><time>2026-04-03T07:44:00.123Z</time></trkpt><trkpt lat="43.1924933" lon="12.20115"><ele>490.0</ele><time>2026-04-03T07:44:01.124Z</time></trkpt><trkpt lat="43.1923833" lon="12.200855"><ele>487.5</ele><time>2026-04-03T07:44:02.124Z</time></trkpt><trkpt lat="43.1922367" lon="12.200575"><ele>485.0</ele><time>2026-04-03T07:44:03.123Z</time></trkpt><trkpt lat="43.1920567" lon="12.200305"><ele>485.0</ele><time>2026-04-03T07:44:04.123Z</time></trkpt><trkpt lat="43.1918717" lon="12.200055"><ele>485.0</ele><time>2026-04-03T07:44:05.124Z</time></trkpt><trkpt lat="43.1916817" lon="12.1998467"><ele>486.5</ele><time>2026-04-03T07:44:06.123Z</time></trkpt><trkpt lat="43.1914817" lon="12.19967"><ele>488.0</ele><time>2026-04-03T07:44:07.123Z</time></trkpt><trkpt lat="43.1912633" lon="12.1995283"><ele>488.0</ele><time>2026-04-03T07:44:08.123Z</time></trkpt><trkpt lat="43.1910317" lon="12.199405"><ele>488.0</ele><time>2026-04-03T07:44:09.123Z</time></trkpt><trkpt lat="43.1908083" lon="12.1993033"><ele>484.3333333333333</ele><time>2026-04-03T07:44:10.123Z</time></trkpt><trkpt lat="43.1905883" lon="12.19923"><ele>480.66666666666663</ele><time>2026-04-03T07:44:11.124Z</time></trkpt><trkpt lat="43.1903767" lon="12.1991583"><ele>477.0</ele><time>2026-04-03T07:44:12.124Z</time></trkpt><trkpt lat="43.1901733" lon="12.1990733"><ele>478.0</ele><time>2026-04-03T07:44:13.123Z</time></trkpt><trkpt lat="43.189985" lon="12.1989933"><ele>479.0</ele><time>2026-04-03T07:44:14.124Z</time></trkpt><trkpt lat="43.18981" lon="12.1988767"><ele>480.0</ele><time>2026-04-03T07:44:15.124Z</time></trkpt><trkpt lat="43.1896433" lon="12.1987117"><ele>480.0</ele><time>2026-04-03T07:44:16.123Z</time></trkpt><trkpt lat="43.1894667" lon="12.1985617"><ele>480.0</ele><time>2026-04-03T07:44:17.123Z</time></trkpt><trkpt lat="43.1892867" lon="12.1984083"><ele>480.0</ele><time>2026-04-03T07:44:18.123Z</time></trkpt><trkpt lat="43.1890983" lon="12.1982667"><ele>479.5</ele><time>2026-04-03T07:44:19.123Z</time></trkpt><trkpt lat="43.1888983" lon="12.1981367"><ele>479.0</ele><time>2026-04-03T07:44:20.123Z</time></trkpt><trkpt lat="43.1886817" lon="12.1980017"><ele>479.0</ele><time>2026-04-03T07:44:21.123Z</time></trkpt><trkpt lat="43.188465" lon="12.197865"><ele>479.0</ele><time>2026-04-03T07:44:22.123Z</time></trkpt><trkpt lat="43.1882533" lon="12.1977083"><ele>473.66666666666663</ele><time>2026-04-03T07:44:23.123Z</time></trkpt><trkpt lat="43.188045" lon="12.1975833"><ele>468.33333333333337</ele><time>2026-04-03T07:44:24.123Z</time></trkpt><trkpt lat="43.1878683" lon="12.19747"><ele>463.0</ele><time>2026-04-03T07:44:25.124Z</time></trkpt><trkpt lat="43.1876983" lon="12.1973767"><ele>464.0</ele><time>2026-04-03T07:44:26.123Z</time></trkpt><trkpt lat="43.187555" lon="12.1973083"><ele>465.0</ele><time>2026-04-03T07:44:27.123Z</time></trkpt><trkpt lat="43.1874283" lon="12.1972083"><ele>466.0</ele><time>2026-04-03T07:44:28.124Z</time></trkpt><trkpt lat="43.18734" lon="12.1970933"><ele>467.0</ele><time>2026-04-03T07:44:29.124Z</time></trkpt><trkpt lat="43.1872817" lon="12.19694"><ele>464.75</ele><time>2026-04-03T07:44:30.123Z</time></trkpt><trkpt lat="43.187265" lon="12.1967667"><ele>462.5</ele><time>2026-04-03T07:44:31.124Z</time></trkpt><trkpt lat="43.18728" lon="12.1965833"><ele>460.25</ele><time>2026-04-03T07:44:32.123Z</time></trkpt><trkpt lat="43.1873517" lon="12.1963783"><ele>458.0</ele><time>2026-04-03T07:44:33.123Z</time></trkpt><trkpt lat="43.1874317" lon="12.1961683"><ele>458.0</ele><time>2026-04-03T07:44:34.123Z</time></trkpt><trkpt lat="43.1875217" lon="12.1959417"><ele>458.0</ele><time>2026-04-03T07:44:35.124Z</time></trkpt><trkpt lat="43.1876067" lon="12.195725"><ele>458.0</ele><time>2026-04-03T07:44:36.124Z</time></trkpt><trkpt lat="43.1876783" lon="12.1955033"><ele>457.0</ele><time>2026-04-03T07:44:37.124Z</time></trkpt><trkpt lat="43.18772" lon="12.1952733"><ele>456.0</ele><time>2026-04-03T07:44:38.124Z</time></trkpt><trkpt lat="43.1877317" lon="12.195045"><ele>455.0</ele><time>2026-04-03T07:44:39.123Z</time></trkpt><trkpt lat="43.187695" lon="12.1948033"><ele>455.0</ele><time>2026-04-03T07:44:40.124Z</time></trkpt><trkpt lat="43.1876283" lon="12.1945583"><ele>455.0</ele><time>2026-04-03T07:44:41.123Z</time></trkpt><trkpt lat="43.18754" lon="12.1943233"><ele>455.0</ele><time>2026-04-03T07:44:42.123Z</time></trkpt><trkpt lat="43.187455" lon="12.194125"><ele>455.0</ele><time>2026-04-03T07:44:43.123Z</time></trkpt><trkpt lat="43.1873633" lon="12.193995"><ele>455.0</ele><time>2026-04-03T07:44:44.124Z</time></trkpt><trkpt lat="43.1872583" lon="12.1939017"><ele>455.0</ele><time>2026-04-03T07:44:45.123Z</time></trkpt><trkpt lat="43.187125" lon="12.1938683"><ele>455.0</ele><time>2026-04-03T07:44:46.123Z</time></trkpt><trkpt lat="43.18697" lon="12.1939"><ele>455.0</ele><time>2026-04-03T07:44:47.124Z</time></trkpt><trkpt lat="43.1868117" lon="12.1939333"><ele>455.0</ele><time>2026-04-03T07:44:48.123Z</time></trkpt><trkpt lat="43.18664" lon="12.1939517"><ele>455.0</ele><time>2026-04-03T07:44:49.123Z</time></trkpt><trkpt lat="43.18646" lon="12.1939417"><ele>450.66666666666663</ele><time>2026-04-03T07:44:50.123Z</time></trkpt><trkpt lat="43.1862717" lon="12.1938983"><ele>446.33333333333337</ele><time>2026-04-03T07:44:51.123Z</time></trkpt><trkpt lat="43.186065" lon="12.19384"><ele>442.0</ele><time>2026-04-03T07:44:52.123Z</time></trkpt><trkpt lat="43.1858533" lon="12.1937483"><ele>436.0</ele><time>2026-04-03T07:44:53.123Z</time></trkpt><trkpt lat="43.1856517" lon="12.1936383"><ele>430.0</ele><time>2026-04-03T07:44:54.123Z</time></trkpt><trkpt lat="43.185455" lon="12.1935433"><ele>424.0</ele><time>2026-04-03T07:44:55.123Z</time></trkpt><trkpt lat="43.1852867" lon="12.193465"><ele>424.0</ele><time>2026-04-03T07:44:56.123Z</time></trkpt><trkpt lat="43.1851333" lon="12.1934083"><ele>424.0</ele><time>2026-04-03T07:44:57.123Z</time></trkpt><trkpt lat="43.18499" lon="12.1933617"><ele>424.0</ele><time>2026-04-03T07:44:58.124Z</time></trkpt><trkpt lat="43.1848783" lon="12.1932817"><ele>424.0</ele><time>2026-04-03T07:44:59.123Z</time></trkpt><trkpt lat="43.1847917" lon="12.1931417"><ele>419.0</ele><time>2026-04-03T07:45:00.123Z</time></trkpt><trkpt lat="43.184705" lon="12.1929667"><ele>414.0</ele><time>2026-04-03T07:45:01.123Z</time></trkpt><trkpt lat="43.1846217" lon="12.19277"><ele>409.0</ele><time>2026-04-03T07:45:02.123Z</time></trkpt><trkpt lat="43.1845567" lon="12.1925567"><ele>409.0</ele><time>2026-04-03T07:45:03.124Z</time></trkpt><trkpt lat="43.1845117" lon="12.1923667"><ele>409.0</ele><time>2026-04-03T07:45:04.123Z</time></trkpt><trkpt lat="43.184495" lon="12.1921533"><ele>409.0</ele><time>2026-04-03T07:45:05.124Z</time></trkpt><trkpt lat="43.184545" lon="12.191935"><ele>409.33333333333337</ele><time>2026-04-03T07:45:06.123Z</time></trkpt><trkpt lat="43.1846283" lon="12.19172"><ele>409.66666666666663</ele><time>2026-04-03T07:45:07.123Z</time></trkpt><trkpt lat="43.1846867" lon="12.1915233"><ele>410.0</ele><time>2026-04-03T07:45:08.124Z</time></trkpt><trkpt lat="43.1847267" lon="12.1913517"><ele>410.8</ele><time>2026-04-03T07:45:09.124Z</time></trkpt><trkpt lat="43.1847233" lon="12.1912133"><ele>411.6</ele><time>2026-04-03T07:45:10.123Z</time></trkpt><trkpt lat="43.18467" lon="12.1910933"><ele>412.4</ele><time>2026-04-03T07:45:11.123Z</time></trkpt><trkpt lat="43.1845867" lon="12.19103"><ele>413.2</ele><time>2026-04-03T07:45:12.124Z</time></trkpt><trkpt lat="43.184495" lon="12.1910017"><ele>414.0</ele><time>2026-04-03T07:45:13.123Z</time></trkpt><trkpt lat="43.1843967" lon="12.1910117"><ele>414.0</ele><time>2026-04-03T07:45:14.123Z</time></trkpt><trkpt lat="43.18427" lon="12.1911117"><ele>414.0</ele><time>2026-04-03T07:45:15.124Z</time></trkpt><trkpt lat="43.1841383" lon="12.1912417"><ele>414.0</ele><time>2026-04-03T07:45:16.123Z</time></trkpt><trkpt lat="43.184005" lon="12.1913833"><ele>410.0</ele><time>2026-04-03T07:45:17.124Z</time></trkpt><trkpt lat="43.1838867" lon="12.1915683"><ele>406.0</ele><time>2026-04-03T07:45:18.123Z</time></trkpt><trkpt lat="43.183785" lon="12.1917733"><ele>402.0</ele><time>2026-04-03T07:45:19.124Z</time></trkpt><trkpt lat="43.1837067" lon="12.192015"><ele>402.0</ele><time>2026-04-03T07:45:20.124Z</time></trkpt><trkpt lat="43.1836483" lon="12.1922517"><ele>402.0</ele><time>2026-04-03T07:45:21.123Z</time></trkpt><trkpt lat="43.1836033" lon="12.19246"><ele>402.0</ele><time>2026-04-03T07:45:22.123Z</time></trkpt><trkpt lat="43.18353" lon="12.1926317"><ele>401.5</ele><time>2026-04-03T07:45:23.123Z</time></trkpt><trkpt lat="43.1834417" lon="12.1927733"><ele>401.0</ele><time>2026-04-03T07:45:24.123Z</time></trkpt><trkpt lat="43.183335" lon="12.1928633"><ele>400.5</ele><time>2026-04-03T07:45:25.124Z</time></trkpt><trkpt lat="43.1832167" lon="12.1929133"><ele>400.0</ele><time>2026-04-03T07:45:26.123Z</time></trkpt><trkpt lat="43.183125" lon="12.192915"><ele>398.33333333333337</ele><time>2026-04-03T07:45:27.123Z</time></trkpt><trkpt lat="43.1830483" lon="12.192895"><ele>396.6666666666667</ele><time>2026-04-03T07:45:28.123Z</time></trkpt><trkpt lat="43.1829783" lon="12.19282"><ele>395.0</ele><time>2026-04-03T07:45:29.123Z</time></trkpt><trkpt lat="43.18292" lon="12.192735"><ele>393.33333333333337</ele><time>2026-04-03T07:45:30.123Z</time></trkpt><trkpt lat="43.1828767" lon="12.1926217"><ele>391.6666666666667</ele><time>2026-04-03T07:45:31.124Z</time></trkpt><trkpt lat="43.1828333" lon="12.1924933"><ele>390.0</ele><time>2026-04-03T07:45:32.123Z</time></trkpt><trkpt lat="43.182795" lon="12.192345"><ele>389.0</ele><time>2026-04-03T07:45:33.124Z</time></trkpt><trkpt lat="43.1827483" lon="12.1921867"><ele>388.0</ele><time>2026-04-03T07:45:34.123Z</time></trkpt><trkpt lat="43.18271" lon="12.1920017"><ele>387.0</ele><time>2026-04-03T07:45:35.123Z</time></trkpt><trkpt lat="43.1826683" lon="12.1918233"><ele>386.0</ele><time>2026-04-03T07:45:36.123Z</time></trkpt><trkpt lat="43.1826483" lon="12.1916533"><ele>386.0</ele><time>2026-04-03T07:45:37.124Z</time></trkpt><trkpt lat="43.1826517" lon="12.191525"><ele>386.0</ele><time>2026-04-03T07:45:38.123Z</time></trkpt><trkpt lat="43.1826883" lon="12.1913867"><ele>386.0</ele><time>2026-04-03T07:45:40.123Z</time></trkpt><trkpt lat="43.18273" lon="12.1912933"><ele>386.0</ele><time>2026-04-03T07:45:42.123Z</time></trkpt><trkpt lat="43.1826567" lon="12.1914517"><ele>386.0</ele><time>2026-04-03T07:45:48.124Z</time></trkpt><trkpt lat="43.182645" lon="12.19163"><ele>386.0</ele><time>2026-04-03T07:45:49.124Z</time></trkpt><trkpt lat="43.182655" lon="12.1918317"><ele>386.0</ele><time>2026-04-03T07:45:50.124Z</time></trkpt><trkpt lat="43.1826883" lon="12.1920283"><ele>386.0</ele><time>2026-04-03T07:45:51.124Z</time></trkpt><trkpt lat="43.1827483" lon="12.1922417"><ele>387.3333333333333</ele><time>2026-04-03T07:45:52.123Z</time></trkpt><trkpt lat="43.182825" lon="12.1924533"><ele>388.66666666666663</ele><time>2026-04-03T07:45:53.123Z</time></trkpt><trkpt lat="43.1829033" lon="12.1926617"><ele>390.0</ele><time>2026-04-03T07:45:54.123Z</time></trkpt><trkpt lat="43.182985" lon="12.1928233"><ele>390.0</ele><time>2026-04-03T07:45:55.123Z</time></trkpt><trkpt lat="43.1830467" lon="12.1929233"><ele>390.0</ele><time>2026-04-03T07:45:56.124Z</time></trkpt><trkpt lat="43.1831" lon="12.1929733"><ele>390.0</ele><time>2026-04-03T07:45:57.124Z</time></trkpt><trkpt lat="43.1831333" lon="12.1930483"><ele>390.0</ele><time>2026-04-03T07:45:59.123Z</time></trkpt><trkpt lat="43.1831633" lon="12.19313"><ele>390.0</ele><time>2026-04-03T07:46:03.123Z</time></trkpt><trkpt lat="43.18314" lon="12.193045"><ele>390.0</ele><time>2026-04-03T07:46:07.124Z</time></trkpt><trkpt lat="43.1830367" lon="12.1929683"><ele>390.0</ele><time>2026-04-03T07:46:15.123Z</time></trkpt><trkpt lat="43.1829667" lon="12.1929017"><ele>390.0</ele><time>2026-04-03T07:46:16.123Z</time></trkpt><trkpt lat="43.182885" lon="12.1927967"><ele>390.0</ele><time>2026-04-03T07:46:17.124Z</time></trkpt><trkpt lat="43.1827833" lon="12.1926933"><ele>390.0</ele><time>2026-04-03T07:46:18.123Z</time></trkpt><trkpt lat="43.1826617" lon="12.19258"><ele>390.0</ele><time>2026-04-03T07:46:19.123Z</time></trkpt><trkpt lat="43.1825083" lon="12.1924917"><ele>390.0</ele><time>2026-04-03T07:46:20.123Z</time></trkpt><trkpt lat="43.1823333" lon="12.1924"><ele>390.0</ele><time>2026-04-03T07:46:21.123Z</time></trkpt><trkpt lat="43.182155" lon="12.1923233"><ele>381.6666666666667</ele><time>2026-04-03T07:46:22.124Z</time></trkpt><trkpt lat="43.1819767" lon="12.1922867"><ele>373.33333333333337</ele><time>2026-04-03T07:46:23.124Z</time></trkpt><trkpt lat="43.1818117" lon="12.1922733"><ele>365.0</ele><time>2026-04-03T07:46:24.123Z</time></trkpt><trkpt lat="43.1816567" lon="12.1922283"><ele>362.33333333333337</ele><time>2026-04-03T07:46:25.123Z</time></trkpt><trkpt lat="43.1815033" lon="12.1921283"><ele>359.6666666666667</ele><time>2026-04-03T07:46:26.123Z</time></trkpt><trkpt lat="43.1813433" lon="12.1920217"><ele>357.0</ele><time>2026-04-03T07:46:27.123Z</time></trkpt><trkpt lat="43.181165" lon="12.1919217"><ele>357.0</ele><time>2026-04-03T07:46:28.123Z</time></trkpt><trkpt lat="43.1809983" lon="12.1918433"><ele>357.0</ele><time>2026-04-03T07:46:29.123Z</time></trkpt><trkpt lat="43.1808367" lon="12.1917683"><ele>357.0</ele><time>2026-04-03T07:46:30.124Z</time></trkpt><trkpt lat="43.180675" lon="12.191715"><ele>356.0</ele><time>2026-04-03T07:46:31.123Z</time></trkpt><trkpt lat="43.1805233" lon="12.191675"><ele>355.0</ele><time>2026-04-03T07:46:32.123Z</time></trkpt><trkpt lat="43.1803833" lon="12.1916083"><ele>354.0</ele><time>2026-04-03T07:46:33.124Z</time></trkpt><trkpt lat="43.1802517" lon="12.191515"><ele>351.2</ele><time>2026-04-03T07:46:34.123Z</time></trkpt><trkpt lat="43.1801333" lon="12.1914417"><ele>348.4</ele><time>2026-04-03T07:46:35.123Z</time></trkpt><trkpt lat="43.180055" lon="12.191345"><ele>345.6</ele><time>2026-04-03T07:46:36.123Z</time></trkpt><trkpt lat="43.18" lon="12.1912333"><ele>342.8</ele><time>2026-04-03T07:46:37.123Z</time></trkpt><trkpt lat="43.17997" lon="12.1910983"><ele>340.0</ele><time>2026-04-03T07:46:38.123Z</time></trkpt><trkpt lat="43.179965" lon="12.19092"><ele>340.0</ele><time>2026-04-03T07:46:39.124Z</time></trkpt><trkpt lat="43.1799567" lon="12.1907167"><ele>340.0</ele><time>2026-04-03T07:46:40.123Z</time></trkpt><trkpt lat="43.1799333" lon="12.1905167"><ele>340.0</ele><time>2026-04-03T07:46:41.123Z</time></trkpt><trkpt lat="43.17988" lon="12.1903283"><ele>340.0</ele><time>2026-04-03T07:46:42.124Z</time></trkpt><trkpt lat="43.1797917" lon="12.1901517"><ele>335.0</ele><time>2026-04-03T07:46:43.123Z</time></trkpt><trkpt lat="43.17968" lon="12.1899867"><ele>330.0</ele><time>2026-04-03T07:46:44.124Z</time></trkpt><trkpt lat="43.1795633" lon="12.18983"><ele>325.0</ele><time>2026-04-03T07:46:45.123Z</time></trkpt><trkpt lat="43.1794483" lon="12.189705"><ele>323.6</ele><time>2026-04-03T07:46:46.123Z</time></trkpt><trkpt lat="43.179365" lon="12.189595"><ele>322.2</ele><time>2026-04-03T07:46:47.123Z</time></trkpt><trkpt lat="43.1792933" lon="12.189485"><ele>320.8</ele><time>2026-04-03T07:46:48.124Z</time></trkpt><trkpt lat="43.1792083" lon="12.1894"><ele>319.4</ele><time>2026-04-03T07:46:49.123Z</time></trkpt><trkpt lat="43.1791117" lon="12.1893033"><ele>318.0</ele><time>2026-04-03T07:46:50.123Z</time></trkpt><trkpt lat="43.1790217" lon="12.1891917"><ele>314.25</ele><time>2026-04-03T07:46:51.123Z</time></trkpt><trkpt lat="43.178925" lon="12.189065"><ele>310.5</ele><time>2026-04-03T07:46:52.124Z</time></trkpt><trkpt lat="43.178845" lon="12.18892"><ele>306.75</ele><time>2026-04-03T07:46:53.123Z</time></trkpt><trkpt lat="43.1787733" lon="12.1887633"><ele>303.0</ele><time>2026-04-03T07:46:54.124Z</time></trkpt><trkpt lat="43.1787133" lon="12.1885933"><ele>302.5</ele><time>2026-04-03T07:46:55.123Z</time></trkpt><trkpt lat="43.1786417" lon="12.1884283"><ele>302.0</ele><time>2026-04-03T07:46:56.123Z</time></trkpt><trkpt lat="43.178575" lon="12.1882767"><ele>301.5</ele><time>2026-04-03T07:46:57.123Z</time></trkpt><trkpt lat="43.1785033" lon="12.1880983"><ele>301.0</ele><time>2026-04-03T07:46:58.123Z</time></trkpt><trkpt lat="43.1784383" lon="12.187925"><ele>300.6</ele><time>2026-04-03T07:46:59.124Z</time></trkpt><trkpt lat="43.1783767" lon="12.1877767"><ele>300.20000000000005</ele><time>2026-04-03T07:47:00.124Z</time></trkpt><trkpt lat="43.178325" lon="12.1876533"><ele>299.79999999999995</ele><time>2026-04-03T07:47:01.124Z</time></trkpt><trkpt lat="43.1782817" lon="12.1875533"><ele>299.4</ele><time>2026-04-03T07:47:02.124Z</time></trkpt><trkpt lat="43.1782483" lon="12.1874733"><ele>299.0</ele><time>2026-04-03T07:47:03.124Z</time></trkpt><trkpt lat="43.178215" lon="12.1873833"><ele>298.0</ele><time>2026-04-03T07:47:04.123Z</time></trkpt><trkpt lat="43.1781883" lon="12.1873"><ele>297.0</ele><time>2026-04-03T07:47:05.123Z</time></trkpt><trkpt lat="43.1781733" lon="12.1871933"><ele>296.0</ele><time>2026-04-03T07:47:06.124Z</time></trkpt><trkpt lat="43.1781733" lon="12.1870717"><ele>295.0</ele><time>2026-04-03T07:47:07.123Z</time></trkpt><trkpt lat="43.1781583" lon="12.186955"><ele>294.0</ele><time>2026-04-03T07:47:08.123Z</time></trkpt><trkpt lat="43.1781383" lon="12.1868233"><ele>293.0</ele><time>2026-04-03T07:47:09.123Z</time></trkpt><trkpt lat="43.1780717" lon="12.1866667"><ele>290.25</ele><time>2026-04-03T07:47:10.123Z</time></trkpt><trkpt lat="43.17799" lon="12.1865083"><ele>287.5</ele><time>2026-04-03T07:47:11.123Z</time></trkpt><trkpt lat="43.1779" lon="12.18634"><ele>284.75</ele><time>2026-04-03T07:47:12.123Z</time></trkpt><trkpt lat="43.1778217" lon="12.1861883"><ele>282.0</ele><time>2026-04-03T07:47:13.124Z</time></trkpt><trkpt lat="43.17775" lon="12.1860483"><ele>282.0</ele><time>2026-04-03T07:47:14.123Z</time></trkpt><trkpt lat="43.1776917" lon="12.1859333"><ele>282.0</ele><time>2026-04-03T07:47:15.123Z</time></trkpt><trkpt lat="43.177645" lon="12.18584"><ele>282.0</ele><time>2026-04-03T07:47:16.123Z</time></trkpt><trkpt lat="43.1776133" lon="12.1857417"><ele>282.0</ele><time>2026-04-03T07:47:17.123Z</time></trkpt><trkpt lat="43.177595" lon="12.1856433"><ele>282.0</ele><time>2026-04-03T07:47:18.123Z</time></trkpt><trkpt lat="43.1776083" lon="12.185515"><ele>282.0</ele><time>2026-04-03T07:47:19.124Z</time></trkpt><trkpt lat="43.1776283" lon="12.1853717"><ele>279.5</ele><time>2026-04-03T07:47:20.123Z</time></trkpt><trkpt lat="43.17764" lon="12.1852017"><ele>277.0</ele><time>2026-04-03T07:47:21.124Z</time></trkpt><trkpt lat="43.1776383" lon="12.1850133"><ele>274.5</ele><time>2026-04-03T07:47:22.124Z</time></trkpt><trkpt lat="43.1776417" lon="12.1848433"><ele>272.0</ele><time>2026-04-03T07:47:23.124Z</time></trkpt><trkpt lat="43.1776283" lon="12.184705"><ele>270.83333333333337</ele><time>2026-04-03T07:47:24.123Z</time></trkpt><trkpt lat="43.1776017" lon="12.184605"><ele>269.6666666666667</ele><time>2026-04-03T07:47:25.123Z</time></trkpt><trkpt lat="43.1775517" lon="12.184545"><ele>268.5</ele><time>2026-04-03T07:47:26.124Z</time></trkpt><trkpt lat="43.1774917" lon="12.1844967"><ele>267.3333333333333</ele><time>2026-04-03T07:47:27.123Z</time></trkpt><trkpt lat="43.177425" lon="12.184415"><ele>266.16666666666663</ele><time>2026-04-03T07:47:29.123Z</time></trkpt><trkpt lat="43.17742" lon="12.1842817"><ele>265.0</ele><time>2026-04-03T07:47:31.123Z</time></trkpt><trkpt lat="43.1774467" lon="12.184185"><ele>265.0</ele><time>2026-04-03T07:47:32.123Z</time></trkpt><trkpt lat="43.1775" lon="12.1840533"><ele>265.0</ele><time>2026-04-03T07:47:33.123Z</time></trkpt><trkpt lat="43.1775567" lon="12.1839067"><ele>265.0</ele><time>2026-04-03T07:47:34.123Z</time></trkpt><trkpt lat="43.17761" lon="12.183755"><ele>265.0</ele><time>2026-04-03T07:47:35.124Z</time></trkpt><trkpt lat="43.1776583" lon="12.1836"><ele>264.8</ele><time>2026-04-03T07:47:36.123Z</time></trkpt><trkpt lat="43.1776917" lon="12.183475"><ele>264.6</ele><time>2026-04-03T07:47:37.124Z</time></trkpt><trkpt lat="43.1777067" lon="12.18338"><ele>264.4</ele><time>2026-04-03T07:47:38.123Z</time></trkpt><trkpt lat="43.1777133" lon="12.1832667"><ele>264.2</ele><time>2026-04-03T07:47:40.123Z</time></trkpt><trkpt lat="43.17765" lon="12.1832217"><ele>264.0</ele><time>2026-04-03T07:47:43.124Z</time></trkpt><trkpt lat="43.1775317" lon="12.18331"><ele>264.0</ele><time>2026-04-03T07:47:45.123Z</time></trkpt><trkpt lat="43.1774417" lon="12.183385"><ele>264.0</ele><time>2026-04-03T07:47:46.124Z</time></trkpt><trkpt lat="43.177335" lon="12.18348"><ele>264.0</ele><time>2026-04-03T07:47:47.123Z</time></trkpt><trkpt lat="43.1772183" lon="12.1835733"><ele>264.0</ele><time>2026-04-03T07:47:48.123Z</time></trkpt><trkpt lat="43.1771033" lon="12.1836717"><ele>263.2</ele><time>2026-04-03T07:47:49.123Z</time></trkpt><trkpt lat="43.1769967" lon="12.18377"><ele>262.4</ele><time>2026-04-03T07:47:50.123Z</time></trkpt><trkpt lat="43.1768967" lon="12.1838533"><ele>261.6</ele><time>2026-04-03T07:47:51.123Z</time></trkpt><trkpt lat="43.1768133" lon="12.1839217"><ele>260.8</ele><time>2026-04-03T07:47:52.123Z</time></trkpt><trkpt lat="43.1767467" lon="12.1839767"><ele>260.0</ele><time>2026-04-03T07:47:53.123Z</time></trkpt><trkpt lat="43.1766517" lon="12.1840033"><ele>260.0</ele><time>2026-04-03T07:47:55.123Z</time></trkpt><trkpt lat="43.1765783" lon="12.1839483"><ele>260.0</ele><time>2026-04-03T07:47:57.124Z</time></trkpt><trkpt lat="43.1765117" lon="12.1838667"><ele>260.0</ele><time>2026-04-03T07:47:59.124Z</time></trkpt><trkpt lat="43.1764667" lon="12.18378"><ele>260.0</ele><time>2026-04-03T07:48:00.123Z</time></trkpt><trkpt lat="43.176425" lon="12.183705"><ele>260.0</ele><time>2026-04-03T07:48:01.123Z</time></trkpt><trkpt lat="43.1763133" lon="12.1836733"><ele>260.0</ele><time>2026-04-03T07:48:03.123Z</time></trkpt><trkpt lat="43.1762533" lon="12.1837067"><ele>260.0</ele><time>2026-04-03T07:48:04.124Z</time></trkpt><trkpt lat="43.1761783" lon="12.18377"><ele>260.0</ele><time>2026-04-03T07:48:05.123Z</time></trkpt><trkpt lat="43.176095" lon="12.1838467"><ele>260.0</ele><time>2026-04-03T07:48:06.123Z</time></trkpt><trkpt lat="43.1759983" lon="12.1839517"><ele>260.0</ele><time>2026-04-03T07:48:07.123Z</time></trkpt><trkpt lat="43.175895" lon="12.1840483"><ele>260.0</ele><time>2026-04-03T07:48:08.123Z</time></trkpt><trkpt lat="43.17579" lon="12.1841483"><ele>260.0</ele><time>2026-04-03T07:48:09.123Z</time></trkpt><trkpt lat="43.175695" lon="12.184245"><ele>260.0</ele><time>2026-04-03T07:48:10.123Z</time></trkpt><trkpt lat="43.175615" lon="12.1843383"><ele>260.0</ele><time>2026-04-03T07:48:11.123Z</time></trkpt><trkpt lat="43.1755333" lon="12.184405"><ele>260.0</ele><time>2026-04-03T07:48:12.123Z</time></trkpt><trkpt lat="43.17546" lon="12.1844567"><ele>260.0</ele><time>2026-04-03T07:48:13.123Z</time></trkpt><trkpt lat="43.1753917" lon="12.184495"><ele>260.00000000000006</ele><time>2026-04-03T07:48:14.123Z</time></trkpt><trkpt lat="43.17533" lon="12.1844767"><ele>260.0</ele><time>2026-04-03T07:48:15.124Z</time></trkpt><trkpt lat="43.1752683" lon="12.1844533"><ele>260.0</ele><time>2026-04-03T07:48:16.123Z</time></trkpt><trkpt lat="43.17521" lon="12.1844067"><ele>260.0</ele><time>2026-04-03T07:48:17.123Z</time></trkpt><trkpt lat="43.17517" lon="12.1842983"><ele>260.0</ele><time>2026-04-03T07:48:18.123Z</time></trkpt><trkpt lat="43.1751133" lon="12.1842283"><ele>260.00000000000006</ele><time>2026-04-03T07:48:20.123Z</time></trkpt><trkpt lat="43.1750283" lon="12.1842283"><ele>260.0</ele><time>2026-04-03T07:48:22.124Z</time></trkpt><trkpt lat="43.1749683" lon="12.184285"><ele>260.0</ele><time>2026-04-03T07:48:23.124Z</time></trkpt><trkpt lat="43.1749" lon="12.1843667"><ele>260.0</ele><time>2026-04-03T07:48:24.123Z</time></trkpt><trkpt lat="43.1748167" lon="12.184475"><ele>260.0</ele><time>2026-04-03T07:48:25.123Z</time></trkpt><trkpt lat="43.174715" lon="12.1846017"><ele>260.0</ele><time>2026-04-03T07:48:26.123Z</time></trkpt><trkpt lat="43.1745967" lon="12.18473"><ele>260.0</ele><time>2026-04-03T07:48:27.123Z</time></trkpt><trkpt lat="43.1744733" lon="12.1848617"><ele>260.0</ele><time>2026-04-03T07:48:28.123Z</time></trkpt><trkpt lat="43.1743333" lon="12.1850117"><ele>260.0</ele><time>2026-04-03T07:48:29.123Z</time></trkpt><trkpt lat="43.1741733" lon="12.1851567"><ele>259.33333333333337</ele><time>2026-04-03T07:48:30.123Z</time></trkpt><trkpt lat="43.1740033" lon="12.1852817"><ele>258.6666666666667</ele><time>2026-04-03T07:48:31.124Z</time></trkpt><trkpt lat="43.17384" lon="12.1854533"><ele>258.0</ele><time>2026-04-03T07:48:32.123Z</time></trkpt><trkpt lat="43.173655" lon="12.1856117"><ele>258.0</ele><time>2026-04-03T07:48:33.123Z</time></trkpt><trkpt lat="43.1734683" lon="12.185785"><ele>258.0</ele><time>2026-04-03T07:48:34.123Z</time></trkpt><trkpt lat="43.1732883" lon="12.1859417"><ele>258.0</ele><time>2026-04-03T07:48:35.123Z</time></trkpt><trkpt lat="43.1730983" lon="12.1860917"><ele>258.0</ele><time>2026-04-03T07:48:36.123Z</time></trkpt><trkpt lat="43.172905" lon="12.1862383"><ele>258.0</ele><time>2026-04-03T07:48:37.123Z</time></trkpt><trkpt lat="43.17271" lon="12.186375"><ele>258.0</ele><time>2026-04-03T07:48:38.123Z</time></trkpt><trkpt lat="43.1725217" lon="12.18651"><ele>258.0</ele><time>2026-04-03T07:48:39.123Z</time></trkpt><trkpt lat="43.172325" lon="12.1866383"><ele>258.0</ele><time>2026-04-03T07:48:40.124Z</time></trkpt><trkpt lat="43.172125" lon="12.1867617"><ele>258.0</ele><time>2026-04-03T07:48:41.124Z</time></trkpt><trkpt lat="43.17191" lon="12.1868967"><ele>258.0</ele><time>2026-04-03T07:48:42.123Z</time></trkpt><trkpt lat="43.1716967" lon="12.18702"><ele>258.0</ele><time>2026-04-03T07:48:43.124Z</time></trkpt><trkpt lat="43.17148" lon="12.1871567"><ele>258.0</ele><time>2026-04-03T07:48:44.123Z</time></trkpt><trkpt lat="43.1712633" lon="12.1872783"><ele>258.0</ele><time>2026-04-03T07:48:45.123Z</time></trkpt><trkpt lat="43.1710683" lon="12.1873917"><ele>258.0</ele><time>2026-04-03T07:48:46.123Z</time></trkpt><trkpt lat="43.1708867" lon="12.1874883"><ele>258.6666666666667</ele><time>2026-04-03T07:48:47.124Z</time></trkpt><trkpt lat="43.1707133" lon="12.18757"><ele>259.33333333333337</ele><time>2026-04-03T07:48:48.123Z</time></trkpt><trkpt lat="43.1705467" lon="12.1876283"><ele>260.0</ele><time>2026-04-03T07:48:49.124Z</time></trkpt><trkpt lat="43.1703833" lon="12.1876867"><ele>260.0</ele><time>2026-04-03T07:48:50.123Z</time></trkpt><trkpt lat="43.1702117" lon="12.1877583"><ele>260.0</ele><time>2026-04-03T07:48:51.123Z</time></trkpt><trkpt lat="43.1700317" lon="12.187815"><ele>260.0</ele><time>2026-04-03T07:48:52.123Z</time></trkpt><trkpt lat="43.169845" lon="12.1878867"><ele>259.6666666666667</ele><time>2026-04-03T07:48:53.124Z</time></trkpt><trkpt lat="43.1696417" lon="12.1879533"><ele>259.3333333333333</ele><time>2026-04-03T07:48:54.123Z</time></trkpt><trkpt lat="43.1694383" lon="12.1880183"><ele>259.0</ele><time>2026-04-03T07:48:55.124Z</time></trkpt><trkpt lat="43.169225" lon="12.188085"><ele>259.5</ele><time>2026-04-03T07:48:56.124Z</time></trkpt><trkpt lat="43.169005" lon="12.1881333"><ele>260.0</ele><time>2026-04-03T07:48:57.123Z</time></trkpt><trkpt lat="43.168775" lon="12.1881717"><ele>261.0</ele><time>2026-04-03T07:48:58.124Z</time></trkpt><trkpt lat="43.16854" lon="12.188205"><ele>262.0</ele><time>2026-04-03T07:48:59.123Z</time></trkpt><trkpt lat="43.1682933" lon="12.1882433"><ele>262.0</ele><time>2026-04-03T07:49:00.123Z</time></trkpt><trkpt lat="43.16805" lon="12.188265"><ele>262.0</ele><time>2026-04-03T07:49:01.123Z</time></trkpt><trkpt lat="43.1678017" lon="12.1882867"><ele>262.0</ele><time>2026-04-03T07:49:02.123Z</time></trkpt><trkpt lat="43.1675517" lon="12.1883"><ele>262.0</ele><time>2026-04-03T07:49:03.123Z</time></trkpt><trkpt lat="43.1672967" lon="12.1883217"><ele>261.5</ele><time>2026-04-03T07:49:04.124Z</time></trkpt><trkpt lat="43.16704" lon="12.188355"><ele>261.0</ele><time>2026-04-03T07:49:05.124Z</time></trkpt><trkpt lat="43.1667783" lon="12.1883817"><ele>260.0</ele><time>2026-04-03T07:49:06.123Z</time></trkpt><trkpt lat="43.1664967" lon="12.1884017"><ele>259.0</ele><time>2026-04-03T07:49:07.124Z</time></trkpt><trkpt lat="43.166225" lon="12.1884183"><ele>259.0</ele><time>2026-04-03T07:49:08.124Z</time></trkpt><trkpt lat="43.1659583" lon="12.1884367"><ele>259.0</ele><time>2026-04-03T07:49:09.124Z</time></trkpt><trkpt lat="43.1656983" lon="12.1884583"><ele>258.66666666666663</ele><time>2026-04-03T07:49:10.123Z</time></trkpt><trkpt lat="43.165465" lon="12.188475"><ele>258.3333333333333</ele><time>2026-04-03T07:49:11.124Z</time></trkpt><trkpt lat="43.1652567" lon="12.18851"><ele>258.0</ele><time>2026-04-03T07:49:12.124Z</time></trkpt><trkpt lat="43.1650767" lon="12.18853"><ele>258.0</ele><time>2026-04-03T07:49:13.124Z</time></trkpt><trkpt lat="43.164915" lon="12.1885617"><ele>258.0</ele><time>2026-04-03T07:49:14.123Z</time></trkpt><trkpt lat="43.1647767" lon="12.1885767"><ele>258.0</ele><time>2026-04-03T07:49:15.123Z</time></trkpt><trkpt lat="43.1646617" lon="12.1885833"><ele>258.0</ele><time>2026-04-03T07:49:16.123Z</time></trkpt><trkpt lat="43.1645533" lon="12.1885967"><ele>258.0</ele><time>2026-04-03T07:49:17.123Z</time></trkpt><trkpt lat="43.1644583" lon="12.1886"><ele>258.0</ele><time>2026-04-03T07:49:18.123Z</time></trkpt><trkpt lat="43.1643667" lon="12.1886117"><ele>258.0</ele><time>2026-04-03T07:49:19.123Z</time></trkpt><trkpt lat="43.16427" lon="12.1886233"><ele>258.0</ele><time>2026-04-03T07:49:20.124Z</time></trkpt><trkpt lat="43.164165" lon="12.1886217"><ele>258.0</ele><time>2026-04-03T07:49:21.123Z</time></trkpt><trkpt lat="43.164055" lon="12.1886133"><ele>258.0</ele><time>2026-04-03T07:49:22.123Z</time></trkpt><trkpt lat="43.1639417" lon="12.1886067"><ele>258.0</ele><time>2026-04-03T07:49:23.123Z</time></trkpt><trkpt lat="43.1638267" lon="12.18862"><ele>258.0</ele><time>2026-04-03T07:49:24.123Z</time></trkpt><trkpt lat="43.163705" lon="12.1886317"><ele>258.0</ele><time>2026-04-03T07:49:25.124Z</time></trkpt><trkpt lat="43.1635733" lon="12.1886383"><ele>258.0</ele><time>2026-04-03T07:49:26.123Z</time></trkpt><trkpt lat="43.163435" lon="12.1886433"><ele>258.0</ele><time>2026-04-03T07:49:27.123Z</time></trkpt><trkpt lat="43.1632867" lon="12.1886483"><ele>258.0</ele><time>2026-04-03T07:49:28.123Z</time></trkpt><trkpt lat="43.1631333" lon="12.188655"><ele>258.0</ele><time>2026-04-03T07:49:29.123Z</time></trkpt><trkpt lat="43.16298" lon="12.1886667"><ele>258.0</ele><time>2026-04-03T07:49:30.123Z</time></trkpt><trkpt lat="43.1628217" lon="12.18867"><ele>258.0</ele><time>2026-04-03T07:49:31.123Z</time></trkpt><trkpt lat="43.1626633" lon="12.1886867"><ele>258.0</ele><time>2026-04-03T07:49:32.123Z</time></trkpt><trkpt lat="43.1625217" lon="12.188685"><ele>258.0</ele><time>2026-04-03T07:49:33.123Z</time></trkpt><trkpt lat="43.1623883" lon="12.1886867"><ele>258.0</ele><time>2026-04-03T07:49:34.123Z</time></trkpt><trkpt lat="43.1622617" lon="12.1887017"><ele>258.0</ele><time>2026-04-03T07:49:35.123Z</time></trkpt><trkpt lat="43.1621417" lon="12.18871"><ele>258.0</ele><time>2026-04-03T07:49:36.123Z</time></trkpt><trkpt lat="43.1620083" lon="12.188735"><ele>258.25</ele><time>2026-04-03T07:49:37.123Z</time></trkpt><trkpt lat="43.161875" lon="12.1887383"><ele>258.5</ele><time>2026-04-03T07:49:38.124Z</time></trkpt><trkpt lat="43.1617467" lon="12.1887433"><ele>258.75</ele><time>2026-04-03T07:49:39.124Z</time></trkpt><trkpt lat="43.1616033" lon="12.18874"><ele>259.0</ele><time>2026-04-03T07:49:40.124Z</time></trkpt><trkpt lat="43.1614567" lon="12.1887383"><ele>259.4</ele><time>2026-04-03T07:49:41.123Z</time></trkpt><trkpt lat="43.161325" lon="12.1887183"><ele>259.79999999999995</ele><time>2026-04-03T07:49:42.123Z</time></trkpt><trkpt lat="43.161205" lon="12.1887017"><ele>260.20000000000005</ele><time>2026-04-03T07:49:43.123Z</time></trkpt><trkpt lat="43.1611033" lon="12.1886883"><ele>260.6</ele><time>2026-04-03T07:49:44.123Z</time></trkpt><trkpt lat="43.1610167" lon="12.18866"><ele>261.0</ele><time>2026-04-03T07:49:45.123Z</time></trkpt><trkpt lat="43.1609217" lon="12.188625"><ele>261.0</ele><time>2026-04-03T07:49:47.123Z</time></trkpt><trkpt lat="43.1608517" lon="12.1885633"><ele>261.0</ele><time>2026-04-03T07:49:49.124Z</time></trkpt><trkpt lat="43.1607517" lon="12.1884367"><ele>261.0</ele><time>2026-04-03T07:49:51.123Z</time></trkpt><trkpt lat="43.160685" lon="12.188335"><ele>261.0</ele><time>2026-04-03T07:49:52.124Z</time></trkpt><trkpt lat="43.1606117" lon="12.1882317"><ele>261.0</ele><time>2026-04-03T07:49:53.123Z</time></trkpt><trkpt lat="43.160535" lon="12.188125"><ele>261.75</ele><time>2026-04-03T07:49:54.124Z</time></trkpt><trkpt lat="43.1604517" lon="12.1880183"><ele>262.5</ele><time>2026-04-03T07:49:55.124Z</time></trkpt><trkpt lat="43.1603667" lon="12.1879033"><ele>263.25</ele><time>2026-04-03T07:49:56.124Z</time></trkpt><trkpt lat="43.16029" lon="12.1877733"><ele>264.0</ele><time>2026-04-03T07:49:57.124Z</time></trkpt><trkpt lat="43.1602067" lon="12.1876667"><ele>264.0</ele><time>2026-04-03T07:49:58.124Z</time></trkpt><trkpt lat="43.16012" lon="12.18756"><ele>264.0</ele><time>2026-04-03T07:49:59.123Z</time></trkpt><trkpt lat="43.1600383" lon="12.1874533"><ele>264.0</ele><time>2026-04-03T07:50:00.123Z</time></trkpt><trkpt lat="43.15995" lon="12.187375"><ele>264.0</ele><time>2026-04-03T07:50:01.124Z</time></trkpt><trkpt lat="43.1598633" lon="12.18731"><ele>264.0</ele><time>2026-04-03T07:50:02.123Z</time></trkpt><trkpt lat="43.1597833" lon="12.1872417"><ele>263.59999999999997</ele><time>2026-04-03T07:50:03.123Z</time></trkpt><trkpt lat="43.159705" lon="12.1871783"><ele>263.2</ele><time>2026-04-03T07:50:04.123Z</time></trkpt><trkpt lat="43.15962" lon="12.1871333"><ele>262.79999999999995</ele><time>2026-04-03T07:50:05.124Z</time></trkpt><trkpt lat="43.1595367" lon="12.1870917"><ele>262.4</ele><time>2026-04-03T07:50:06.124Z</time></trkpt><trkpt lat="43.15945" lon="12.1870533"><ele>262.0</ele><time>2026-04-03T07:50:07.124Z</time></trkpt><trkpt lat="43.1593583" lon="12.1870117"><ele>262.0</ele><time>2026-04-03T07:50:08.123Z</time></trkpt><trkpt lat="43.15927" lon="12.186965"><ele>262.0</ele><time>2026-04-03T07:50:09.123Z</time></trkpt><trkpt lat="43.15918" lon="12.1869267"><ele>262.0</ele><time>2026-04-03T07:50:10.123Z</time></trkpt><trkpt lat="43.1590817" lon="12.1868833"><ele>262.0</ele><time>2026-04-03T07:50:11.123Z</time></trkpt><trkpt lat="43.1589833" lon="12.1868333"><ele>262.0</ele><time>2026-04-03T07:50:12.124Z</time></trkpt><trkpt lat="43.1588917" lon="12.1867933"><ele>262.0</ele><time>2026-04-03T07:50:13.123Z</time></trkpt><trkpt lat="43.1588" lon="12.1867383"><ele>262.0</ele><time>2026-04-03T07:50:14.123Z</time></trkpt><trkpt lat="43.1587283" lon="12.186695"><ele>262.0</ele><time>2026-04-03T07:50:15.123Z</time></trkpt><trkpt lat="43.1586483" lon="12.1866383"><ele>262.0</ele><time>2026-04-03T07:50:16.123Z</time></trkpt><trkpt lat="43.1585733" lon="12.1865883"><ele>262.0</ele><time>2026-04-03T07:50:17.123Z</time></trkpt><trkpt lat="43.15848" lon="12.18654"><ele>262.25</ele><time>2026-04-03T07:50:18.124Z</time></trkpt><trkpt lat="43.158365" lon="12.186495"><ele>262.5</ele><time>2026-04-03T07:50:19.123Z</time></trkpt><trkpt lat="43.1582483" lon="12.1864383"><ele>262.75</ele><time>2026-04-03T07:50:20.123Z</time></trkpt><trkpt lat="43.1581117" lon="12.1863917"><ele>263.0</ele><time>2026-04-03T07:50:21.123Z</time></trkpt><trkpt lat="43.15799" lon="12.1863233"><ele>262.5</ele><time>2026-04-03T07:50:22.123Z</time></trkpt><trkpt lat="43.1578667" lon="12.18625"><ele>262.0</ele><time>2026-04-03T07:50:23.123Z</time></trkpt><trkpt lat="43.157735" lon="12.18619"><ele>261.5</ele><time>2026-04-03T07:50:24.123Z</time></trkpt><trkpt lat="43.1575983" lon="12.1861317"><ele>261.0</ele><time>2026-04-03T07:50:25.124Z</time></trkpt><trkpt lat="43.15745" lon="12.186035"><ele>260.6666666666667</ele><time>2026-04-03T07:50:26.123Z</time></trkpt><trkpt lat="43.1572917" lon="12.18594"><ele>260.33333333333337</ele><time>2026-04-03T07:50:27.123Z</time></trkpt><trkpt lat="43.1571267" lon="12.1858433"><ele>260.0</ele><time>2026-04-03T07:50:28.123Z</time></trkpt><trkpt lat="43.156945" lon="12.1857617"><ele>260.0</ele><time>2026-04-03T07:50:29.123Z</time></trkpt><trkpt lat="43.1567567" lon="12.1856683"><ele>260.0</ele><time>2026-04-03T07:50:30.123Z</time></trkpt><trkpt lat="43.1565583" lon="12.1855583"><ele>260.0</ele><time>2026-04-03T07:50:31.123Z</time></trkpt><trkpt lat="43.1563667" lon="12.1854483"><ele>259.6666666666667</ele><time>2026-04-03T07:50:32.124Z</time></trkpt><trkpt lat="43.1561817" lon="12.18535"><ele>259.3333333333333</ele><time>2026-04-03T07:50:33.124Z</time></trkpt><trkpt lat="43.1559883" lon="12.1852533"><ele>259.0</ele><time>2026-04-03T07:50:34.124Z</time></trkpt><trkpt lat="43.1557867" lon="12.1851483"><ele>258.66666666666663</ele><time>2026-04-03T07:50:35.123Z</time></trkpt><trkpt lat="43.1555833" lon="12.1850433"><ele>258.3333333333333</ele><time>2026-04-03T07:50:36.123Z</time></trkpt><trkpt lat="43.1553867" lon="12.18493"><ele>258.0</ele><time>2026-04-03T07:50:37.124Z</time></trkpt><trkpt lat="43.1552033" lon="12.18484"><ele>258.0</ele><time>2026-04-03T07:50:38.124Z</time></trkpt><trkpt lat="43.1550317" lon="12.184765"><ele>258.0</ele><time>2026-04-03T07:50:39.124Z</time></trkpt><trkpt lat="43.1548833" lon="12.1846717"><ele>258.0</ele><time>2026-04-03T07:50:40.124Z</time></trkpt><trkpt lat="43.15474" lon="12.18457"><ele>258.6666666666667</ele><time>2026-04-03T07:50:41.123Z</time></trkpt><trkpt lat="43.1546033" lon="12.1844567"><ele>259.33333333333337</ele><time>2026-04-03T07:50:42.124Z</time></trkpt><trkpt lat="43.1544667" lon="12.184335"><ele>260.0</ele><time>2026-04-03T07:50:43.123Z</time></trkpt><trkpt lat="43.1543433" lon="12.1841867"><ele>260.0</ele><time>2026-04-03T07:50:44.123Z</time></trkpt><trkpt lat="43.1542117" lon="12.1840167"><ele>260.0</ele><time>2026-04-03T07:50:45.123Z</time></trkpt><trkpt lat="43.15408" lon="12.1838217"><ele>260.0</ele><time>2026-04-03T07:50:46.123Z</time></trkpt><trkpt lat="43.1539417" lon="12.18361"><ele>260.0</ele><time>2026-04-03T07:50:47.124Z</time></trkpt><trkpt lat="43.1537917" lon="12.1834167"><ele>260.0</ele><time>2026-04-03T07:50:48.123Z</time></trkpt><trkpt lat="43.1536333" lon="12.18323"><ele>260.0</ele><time>2026-04-03T07:50:49.124Z</time></trkpt><trkpt lat="43.15348" lon="12.183045"><ele>260.0</ele><time>2026-04-03T07:50:50.123Z</time></trkpt><trkpt lat="43.1533167" lon="12.18285"><ele>260.0</ele><time>2026-04-03T07:50:51.123Z</time></trkpt><trkpt lat="43.15315" lon="12.1826517"><ele>260.0</ele><time>2026-04-03T07:50:52.123Z</time></trkpt><trkpt lat="43.15299" lon="12.1824467"><ele>261.0</ele><time>2026-04-03T07:50:53.124Z</time></trkpt><trkpt lat="43.15283" lon="12.182225"><ele>262.0</ele><time>2026-04-03T07:50:54.123Z</time></trkpt><trkpt lat="43.152675" lon="12.1820117"><ele>263.0</ele><time>2026-04-03T07:50:55.124Z</time></trkpt><trkpt lat="43.15254" lon="12.1818"><ele>263.0</ele><time>2026-04-03T07:50:56.124Z</time></trkpt><trkpt lat="43.1524217" lon="12.181575"><ele>263.0</ele><time>2026-04-03T07:50:57.123Z</time></trkpt><trkpt lat="43.152325" lon="12.1813317"><ele>263.0</ele><time>2026-04-03T07:50:58.123Z</time></trkpt><trkpt lat="43.152235" lon="12.1810683"><ele>272.5</ele><time>2026-04-03T07:50:59.124Z</time></trkpt><trkpt lat="43.152165" lon="12.1807783"><ele>282.0</ele><time>2026-04-03T07:51:00.123Z</time></trkpt><trkpt lat="43.1520933" lon="12.18048"><ele>282.0</ele><time>2026-04-03T07:51:01.123Z</time></trkpt><trkpt lat="43.1520133" lon="12.1801817"><ele>282.0</ele><time>2026-04-03T07:51:02.124Z</time></trkpt><trkpt lat="43.151935" lon="12.1798883"><ele>276.0</ele><time>2026-04-03T07:51:03.123Z</time></trkpt><trkpt lat="43.15185" lon="12.17959"><ele>270.0</ele><time>2026-04-03T07:51:04.124Z</time></trkpt><trkpt lat="43.1517167" lon="12.17929"><ele>272.5</ele><time>2026-04-03T07:51:05.123Z</time></trkpt><trkpt lat="43.151575" lon="12.1790083"><ele>275.0</ele><time>2026-04-03T07:51:06.123Z</time></trkpt><trkpt lat="43.1514283" lon="12.1787317"><ele>275.0</ele><time>2026-04-03T07:51:07.124Z</time></trkpt><trkpt lat="43.1512733" lon="12.1784533"><ele>275.0</ele><time>2026-04-03T07:51:08.124Z</time></trkpt><trkpt lat="43.15112" lon="12.178205"><ele>269.5</ele><time>2026-04-03T07:51:09.124Z</time></trkpt><trkpt lat="43.1509883" lon="12.1779433"><ele>264.0</ele><time>2026-04-03T07:51:10.123Z</time></trkpt><trkpt lat="43.1508517" lon="12.1776883"><ele>264.6666666666667</ele><time>2026-04-03T07:51:11.123Z</time></trkpt><trkpt lat="43.1507067" lon="12.1774717"><ele>265.33333333333337</ele><time>2026-04-03T07:51:12.123Z</time></trkpt><trkpt lat="43.15058" lon="12.1772517"><ele>266.0</ele><time>2026-04-03T07:51:13.124Z</time></trkpt><trkpt lat="43.1504333" lon="12.1770367"><ele>266.0</ele><time>2026-04-03T07:51:14.123Z</time></trkpt><trkpt lat="43.1502833" lon="12.1768283"><ele>266.0</ele><time>2026-04-03T07:51:15.123Z</time></trkpt><trkpt lat="43.1501333" lon="12.1766217"><ele>266.0</ele><time>2026-04-03T07:51:16.124Z</time></trkpt><trkpt lat="43.150015" lon="12.1763733"><ele>265.6666666666667</ele><time>2026-04-03T07:51:17.123Z</time></trkpt><trkpt lat="43.1499233" lon="12.1760917"><ele>265.3333333333333</ele><time>2026-04-03T07:51:18.124Z</time></trkpt><trkpt lat="43.1498533" lon="12.1758017"><ele>265.0</ele><time>2026-04-03T07:51:19.124Z</time></trkpt><trkpt lat="43.1497967" lon="12.175505"><ele>267.3333333333333</ele><time>2026-04-03T07:51:20.123Z</time></trkpt><trkpt lat="43.149765" lon="12.1752"><ele>269.6666666666667</ele><time>2026-04-03T07:51:21.123Z</time></trkpt><trkpt lat="43.1497417" lon="12.1749"><ele>272.0</ele><time>2026-04-03T07:51:22.124Z</time></trkpt><trkpt lat="43.1497433" lon="12.1745967"><ele>272.0</ele><time>2026-04-03T07:51:23.123Z</time></trkpt><trkpt lat="43.14974" lon="12.1743"><ele>272.0</ele><time>2026-04-03T07:51:24.124Z</time></trkpt><trkpt lat="43.1497467" lon="12.1739967"><ele>272.0</ele><time>2026-04-03T07:51:25.123Z</time></trkpt><trkpt lat="43.149755" lon="12.173705"><ele>271.33333333333337</ele><time>2026-04-03T07:51:26.124Z</time></trkpt><trkpt lat="43.1497617" lon="12.1734217"><ele>270.6666666666667</ele><time>2026-04-03T07:51:27.123Z</time></trkpt><trkpt lat="43.1497683" lon="12.1731483"><ele>270.0</ele><time>2026-04-03T07:51:28.123Z</time></trkpt><trkpt lat="43.14977" lon="12.17288"><ele>270.0</ele><time>2026-04-03T07:51:29.123Z</time></trkpt><trkpt lat="43.1497767" lon="12.1726283"><ele>270.0</ele><time>2026-04-03T07:51:30.123Z</time></trkpt><trkpt lat="43.1497817" lon="12.1723833"><ele>270.0</ele><time>2026-04-03T07:51:31.123Z</time></trkpt><trkpt lat="43.1497883" lon="12.1721317"><ele>270.3333333333333</ele><time>2026-04-03T07:51:32.123Z</time></trkpt><trkpt lat="43.149795" lon="12.1718733"><ele>270.66666666666663</ele><time>2026-04-03T07:51:33.123Z</time></trkpt><trkpt lat="43.1497867" lon="12.1716267"><ele>271.0</ele><time>2026-04-03T07:51:34.123Z</time></trkpt><trkpt lat="43.14976" lon="12.1713983"><ele>271.0</ele><time>2026-04-03T07:51:35.123Z</time></trkpt><trkpt lat="43.1497283" lon="12.17117"><ele>271.0</ele><time>2026-04-03T07:51:36.124Z</time></trkpt><trkpt lat="43.1496783" lon="12.1709533"><ele>271.0</ele><time>2026-04-03T07:51:37.123Z</time></trkpt><trkpt lat="43.1496217" lon="12.170745"><ele>269.0</ele><time>2026-04-03T07:51:38.123Z</time></trkpt><trkpt lat="43.1495133" lon="12.17056"><ele>267.0</ele><time>2026-04-03T07:51:39.123Z</time></trkpt><trkpt lat="43.149395" lon="12.1703817"><ele>265.0</ele><time>2026-04-03T07:51:40.123Z</time></trkpt><trkpt lat="43.149265" lon="12.1702283"><ele>265.0</ele><time>2026-04-03T07:51:41.123Z</time></trkpt><trkpt lat="43.149145" lon="12.1700817"><ele>265.0</ele><time>2026-04-03T07:51:42.123Z</time></trkpt><trkpt lat="43.1490133" lon="12.1699367"><ele>265.0</ele><time>2026-04-03T07:51:43.123Z</time></trkpt><trkpt lat="43.148875" lon="12.1698117"><ele>267.0</ele><time>2026-04-03T07:51:44.123Z</time></trkpt><trkpt lat="43.1487333" lon="12.1696933"><ele>269.0</ele><time>2026-04-03T07:51:45.123Z</time></trkpt><trkpt lat="43.1485833" lon="12.169575"><ele>271.0</ele><time>2026-04-03T07:51:46.123Z</time></trkpt><trkpt lat="43.1484367" lon="12.169445"><ele>271.0</ele><time>2026-04-03T07:51:47.124Z</time></trkpt><trkpt lat="43.1482933" lon="12.16931"><ele>271.0</ele><time>2026-04-03T07:51:48.123Z</time></trkpt><trkpt lat="43.1481533" lon="12.1691783"><ele>271.0</ele><time>2026-04-03T07:51:49.123Z</time></trkpt><trkpt lat="43.1480017" lon="12.1690467"><ele>274.3333333333333</ele><time>2026-04-03T07:51:50.123Z</time></trkpt><trkpt lat="43.1478583" lon="12.1689183"><ele>277.6666666666667</ele><time>2026-04-03T07:51:51.123Z</time></trkpt><trkpt lat="43.1477233" lon="12.1687633"><ele>281.0</ele><time>2026-04-03T07:51:52.123Z</time></trkpt><trkpt lat="43.1475983" lon="12.168615"><ele>281.0</ele><time>2026-04-03T07:51:53.123Z</time></trkpt><trkpt lat="43.1474817" lon="12.16847"><ele>281.0</ele><time>2026-04-03T07:51:54.124Z</time></trkpt><trkpt lat="43.147365" lon="12.16834"><ele>281.0</ele><time>2026-04-03T07:51:55.123Z</time></trkpt><trkpt lat="43.1472333" lon="12.1681883"><ele>282.33333333333337</ele><time>2026-04-03T07:51:56.123Z</time></trkpt><trkpt lat="43.1470933" lon="12.168065"><ele>283.6666666666667</ele><time>2026-04-03T07:51:57.123Z</time></trkpt><trkpt lat="43.1469583" lon="12.1679167"><ele>285.0</ele><time>2026-04-03T07:51:58.124Z</time></trkpt><trkpt lat="43.1468317" lon="12.1677483"><ele>285.0</ele><time>2026-04-03T07:51:59.123Z</time></trkpt><trkpt lat="43.1467067" lon="12.16757"><ele>285.0</ele><time>2026-04-03T07:52:00.123Z</time></trkpt><trkpt lat="43.1465833" lon="12.167365"><ele>285.0</ele><time>2026-04-03T07:52:01.123Z</time></trkpt><trkpt lat="43.1464783" lon="12.1671267"><ele>284.6666666666667</ele><time>2026-04-03T07:52:02.124Z</time></trkpt><trkpt lat="43.1463767" lon="12.1668883"><ele>284.33333333333337</ele><time>2026-04-03T07:52:03.123Z</time></trkpt><trkpt lat="43.146265" lon="12.1666383"><ele>284.0</ele><time>2026-04-03T07:52:04.123Z</time></trkpt><trkpt lat="43.1461483" lon="12.1664033"><ele>284.0</ele><time>2026-04-03T07:52:05.124Z</time></trkpt><trkpt lat="43.1460483" lon="12.1661417"><ele>284.0</ele><time>2026-04-03T07:52:06.123Z</time></trkpt><trkpt lat="43.1459567" lon="12.1658733"><ele>284.0</ele><time>2026-04-03T07:52:07.123Z</time></trkpt><trkpt lat="43.1458817" lon="12.1656033"><ele>283.33333333333337</ele><time>2026-04-03T07:52:08.123Z</time></trkpt><trkpt lat="43.1458217" lon="12.1653617"><ele>282.6666666666667</ele><time>2026-04-03T07:52:09.123Z</time></trkpt><trkpt lat="43.1457767" lon="12.165125"><ele>282.0</ele><time>2026-04-03T07:52:10.123Z</time></trkpt><trkpt lat="43.1457183" lon="12.1649017"><ele>283.6666666666667</ele><time>2026-04-03T07:52:11.124Z</time></trkpt><trkpt lat="43.145655" lon="12.164705"><ele>285.33333333333337</ele><time>2026-04-03T07:52:12.124Z</time></trkpt><trkpt lat="43.1455833" lon="12.1645267"><ele>287.0</ele><time>2026-04-03T07:52:13.123Z</time></trkpt><trkpt lat="43.1455017" lon="12.1643583"><ele>287.0</ele><time>2026-04-03T07:52:14.123Z</time></trkpt><trkpt lat="43.14541" lon="12.1641867"><ele>287.0</ele><time>2026-04-03T07:52:15.123Z</time></trkpt><trkpt lat="43.1453217" lon="12.1640217"><ele>287.0</ele><time>2026-04-03T07:52:16.123Z</time></trkpt><trkpt lat="43.1452317" lon="12.1638867"><ele>287.0</ele><time>2026-04-03T07:52:17.123Z</time></trkpt><trkpt lat="43.145165" lon="12.16379"><ele>287.0</ele><time>2026-04-03T07:52:18.123Z</time></trkpt><trkpt lat="43.1450967" lon="12.1637367"><ele>287.0</ele><time>2026-04-03T07:52:19.123Z</time></trkpt><trkpt lat="43.1450233" lon="12.1637183"><ele>287.0</ele><time>2026-04-03T07:52:20.123Z</time></trkpt><trkpt lat="43.1449117" lon="12.1637867"><ele>287.0</ele><time>2026-04-03T07:52:22.123Z</time></trkpt><trkpt lat="43.144885" lon="12.163875"><ele>287.0</ele><time>2026-04-03T07:52:23.123Z</time></trkpt><trkpt lat="43.144885" lon="12.163985"><ele>287.0</ele><time>2026-04-03T07:52:24.123Z</time></trkpt><trkpt lat="43.144905" lon="12.1641117"><ele>287.0</ele><time>2026-04-03T07:52:25.123Z</time></trkpt><trkpt lat="43.1449567" lon="12.16424"><ele>287.0</ele><time>2026-04-03T07:52:26.123Z</time></trkpt><trkpt lat="43.1450317" lon="12.16436"><ele>287.0</ele><time>2026-04-03T07:52:27.123Z</time></trkpt><trkpt lat="43.14513" lon="12.1644683"><ele>287.0</ele><time>2026-04-03T07:52:28.123Z</time></trkpt><trkpt lat="43.1452367" lon="12.1646"><ele>287.0</ele><time>2026-04-03T07:52:29.124Z</time></trkpt><trkpt lat="43.14533" lon="12.1647433"><ele>287.0</ele><time>2026-04-03T07:52:30.123Z</time></trkpt><trkpt lat="43.145385" lon="12.1648867"><ele>287.0</ele><time>2026-04-03T07:52:31.123Z</time></trkpt><trkpt lat="43.1453983" lon="12.16504"><ele>287.0</ele><time>2026-04-03T07:52:32.124Z</time></trkpt><trkpt lat="43.1453617" lon="12.16518"><ele>288.0</ele><time>2026-04-03T07:52:33.123Z</time></trkpt><trkpt lat="43.145275" lon="12.165285"><ele>289.0</ele><time>2026-04-03T07:52:34.123Z</time></trkpt><trkpt lat="43.1451667" lon="12.1653567"><ele>290.0</ele><time>2026-04-03T07:52:35.123Z</time></trkpt><trkpt lat="43.1450267" lon="12.1654217"><ele>291.0</ele><time>2026-04-03T07:52:36.123Z</time></trkpt><trkpt lat="43.144875" lon="12.16546"><ele>291.0</ele><time>2026-04-03T07:52:37.123Z</time></trkpt><trkpt lat="43.1447217" lon="12.1654883"><ele>291.0</ele><time>2026-04-03T07:52:38.123Z</time></trkpt><trkpt lat="43.144565" lon="12.1655217"><ele>291.0</ele><time>2026-04-03T07:52:39.123Z</time></trkpt><trkpt lat="43.1443983" lon="12.165565"><ele>291.0</ele><time>2026-04-03T07:52:40.124Z</time></trkpt><trkpt lat="43.1442283" lon="12.1655983"><ele>291.0</ele><time>2026-04-03T07:52:41.123Z</time></trkpt><trkpt lat="43.144065" lon="12.1656917"><ele>291.0</ele><time>2026-04-03T07:52:42.123Z</time></trkpt><trkpt lat="43.14391" lon="12.1658217"><ele>293.0</ele><time>2026-04-03T07:52:43.123Z</time></trkpt><trkpt lat="43.1438117" lon="12.1659817"><ele>295.0</ele><time>2026-04-03T07:52:44.124Z</time></trkpt><trkpt lat="43.1437583" lon="12.16618"><ele>297.0</ele><time>2026-04-03T07:52:45.123Z</time></trkpt><trkpt lat="43.143745" lon="12.16639"><ele>298.6666666666667</ele><time>2026-04-03T07:52:46.123Z</time></trkpt><trkpt lat="43.1437533" lon="12.1666217"><ele>300.33333333333337</ele><time>2026-04-03T07:52:47.124Z</time></trkpt><trkpt lat="43.1437733" lon="12.1668633"><ele>302.0</ele><time>2026-04-03T07:52:48.123Z</time></trkpt><trkpt lat="43.14382" lon="12.16711"><ele>303.0</ele><time>2026-04-03T07:52:49.124Z</time></trkpt><trkpt lat="43.143885" lon="12.16738"><ele>304.0</ele><time>2026-04-03T07:52:50.123Z</time></trkpt><trkpt lat="43.14397" lon="12.1676283"><ele>305.0</ele><time>2026-04-03T07:52:51.123Z</time></trkpt><trkpt lat="43.144065" lon="12.16788"><ele>310.0</ele><time>2026-04-03T07:52:52.123Z</time></trkpt><trkpt lat="43.1441583" lon="12.1681317"><ele>315.0</ele><time>2026-04-03T07:52:53.123Z</time></trkpt><trkpt lat="43.14425" lon="12.1683683"><ele>320.0</ele><time>2026-04-03T07:52:54.124Z</time></trkpt><trkpt lat="43.1443017" lon="12.168595"><ele>321.6666666666667</ele><time>2026-04-03T07:52:55.123Z</time></trkpt><trkpt lat="43.1443283" lon="12.168825"><ele>323.3333333333333</ele><time>2026-04-03T07:52:56.122Z</time></trkpt><trkpt lat="43.1443217" lon="12.169035"><ele>325.0</ele><time>2026-04-03T07:52:57.122Z</time></trkpt><trkpt lat="43.1443083" lon="12.169245"><ele>325.66666666666663</ele><time>2026-04-03T07:52:58.122Z</time></trkpt><trkpt lat="43.1442983" lon="12.16946"><ele>326.3333333333333</ele><time>2026-04-03T07:52:59.122Z</time></trkpt><trkpt lat="43.1443033" lon="12.16968"><ele>327.0</ele><time>2026-04-03T07:53:00.122Z</time></trkpt><trkpt lat="43.1443183" lon="12.1699183"><ele>328.0</ele><time>2026-04-03T07:53:01.122Z</time></trkpt><trkpt lat="43.1443483" lon="12.17014"><ele>329.0</ele><time>2026-04-03T07:53:02.122Z</time></trkpt><trkpt lat="43.1443933" lon="12.1703617"><ele>330.0</ele><time>2026-04-03T07:53:03.122Z</time></trkpt><trkpt lat="43.1444533" lon="12.1705883"><ele>328.6666666666667</ele><time>2026-04-03T07:53:04.123Z</time></trkpt><trkpt lat="43.14453" lon="12.1708117"><ele>327.33333333333337</ele><time>2026-04-03T07:53:05.122Z</time></trkpt><trkpt lat="43.1446217" lon="12.17105"><ele>326.0</ele><time>2026-04-03T07:53:06.122Z</time></trkpt><trkpt lat="43.1447217" lon="12.17129"><ele>328.0</ele><time>2026-04-03T07:53:07.122Z</time></trkpt><trkpt lat="43.1448133" lon="12.1715367"><ele>330.0</ele><time>2026-04-03T07:53:08.122Z</time></trkpt><trkpt lat="43.1448867" lon="12.17174"><ele>332.0</ele><time>2026-04-03T07:53:09.122Z</time></trkpt><trkpt lat="43.1449333" lon="12.17192"><ele>333.75</ele><time>2026-04-03T07:53:10.122Z</time></trkpt><trkpt lat="43.1449567" lon="12.1720967"><ele>335.5</ele><time>2026-04-03T07:53:11.122Z</time></trkpt><trkpt lat="43.1449467" lon="12.172265"><ele>337.25</ele><time>2026-04-03T07:53:12.123Z</time></trkpt><trkpt lat="43.144885" lon="12.1724067"><ele>339.0</ele><time>2026-04-03T07:53:13.123Z</time></trkpt><trkpt lat="43.1447733" lon="12.1725283"><ele>341.25</ele><time>2026-04-03T07:53:14.122Z</time></trkpt><trkpt lat="43.14465" lon="12.1726483"><ele>343.5</ele><time>2026-04-03T07:53:15.123Z</time></trkpt><trkpt lat="43.1445367" lon="12.1727717"><ele>345.75</ele><time>2026-04-03T07:53:16.122Z</time></trkpt><trkpt lat="43.1444267" lon="12.1729033"><ele>348.0</ele><time>2026-04-03T07:53:17.122Z</time></trkpt><trkpt lat="43.1443233" lon="12.1730267"><ele>348.0</ele><time>2026-04-03T07:53:18.123Z</time></trkpt><trkpt lat="43.144215" lon="12.1731417"><ele>348.0</ele><time>2026-04-03T07:53:19.122Z</time></trkpt><trkpt lat="43.14411" lon="12.1732533"><ele>348.0</ele><time>2026-04-03T07:53:20.123Z</time></trkpt><trkpt lat="43.1440317" lon="12.1733917"><ele>348.0</ele><time>2026-04-03T07:53:21.122Z</time></trkpt><trkpt lat="43.1439933" lon="12.1735567"><ele>350.75</ele><time>2026-04-03T07:53:22.122Z</time></trkpt><trkpt lat="43.1439883" lon="12.1737483"><ele>353.5</ele><time>2026-04-03T07:53:23.123Z</time></trkpt><trkpt lat="43.143975" lon="12.1739533"><ele>356.25</ele><time>2026-04-03T07:53:24.122Z</time></trkpt><trkpt lat="43.1439783" lon="12.174155"><ele>359.0</ele><time>2026-04-03T07:53:25.122Z</time></trkpt><trkpt lat="43.1439917" lon="12.1743533"><ele>359.6666666666667</ele><time>2026-04-03T07:53:26.122Z</time></trkpt><trkpt lat="43.1440033" lon="12.1745617"><ele>360.3333333333333</ele><time>2026-04-03T07:53:27.122Z</time></trkpt><trkpt lat="43.14401" lon="12.174775"><ele>361.0</ele><time>2026-04-03T07:53:28.122Z</time></trkpt><trkpt lat="43.1440267" lon="12.1749833"><ele>362.3333333333333</ele><time>2026-04-03T07:53:29.123Z</time></trkpt><trkpt lat="43.1440433" lon="12.175205"><ele>363.6666666666667</ele><time>2026-04-03T07:53:30.122Z</time></trkpt><trkpt lat="43.1440533" lon="12.175425"><ele>365.0</ele><time>2026-04-03T07:53:31.122Z</time></trkpt><trkpt lat="43.1440483" lon="12.175645"><ele>366.5</ele><time>2026-04-03T07:53:32.122Z</time></trkpt><trkpt lat="43.14403" lon="12.1758683"><ele>368.0</ele><time>2026-04-03T07:53:33.123Z</time></trkpt><trkpt lat="43.14401" lon="12.1760817"><ele>369.5</ele><time>2026-04-03T07:53:34.123Z</time></trkpt><trkpt lat="43.14399" lon="12.1762517"><ele>371.0</ele><time>2026-04-03T07:53:35.122Z</time></trkpt><trkpt lat="43.14397" lon="12.1763533"><ele>371.0</ele><time>2026-04-03T07:53:36.122Z</time></trkpt><trkpt lat="43.14393" lon="12.17645"><ele>371.0</ele><time>2026-04-03T07:53:38.122Z</time></trkpt><trkpt lat="43.1438633" lon="12.1764267"><ele>371.0</ele><time>2026-04-03T07:53:40.122Z</time></trkpt><trkpt lat="43.143805" lon="12.176385"><ele>371.0</ele><time>2026-04-03T07:53:42.122Z</time></trkpt><trkpt lat="43.1437583" lon="12.1765017"><ele>371.0</ele><time>2026-04-03T07:53:44.122Z</time></trkpt><trkpt lat="43.1437417" lon="12.1766083"><ele>371.0</ele><time>2026-04-03T07:53:45.123Z</time></trkpt><trkpt lat="43.1437333" lon="12.1767333"><ele>372.5</ele><time>2026-04-03T07:53:46.122Z</time></trkpt><trkpt lat="43.1437317" lon="12.1768817"><ele>374.0</ele><time>2026-04-03T07:53:47.122Z</time></trkpt><trkpt lat="43.1437333" lon="12.1770533"><ele>375.5</ele><time>2026-04-03T07:53:48.122Z</time></trkpt><trkpt lat="43.1437233" lon="12.1772317"><ele>377.0</ele><time>2026-04-03T07:53:49.123Z</time></trkpt><trkpt lat="43.1437283" lon="12.1773983"><ele>378.33333333333337</ele><time>2026-04-03T07:53:50.122Z</time></trkpt><trkpt lat="43.14372" lon="12.1775333"><ele>379.6666666666667</ele><time>2026-04-03T07:53:51.123Z</time></trkpt><trkpt lat="43.1436933" lon="12.1776267"><ele>381.0</ele><time>2026-04-03T07:53:52.122Z</time></trkpt><trkpt lat="43.143645" lon="12.177705"><ele>382.33333333333337</ele><time>2026-04-03T07:53:53.122Z</time></trkpt><trkpt lat="43.143585" lon="12.177755"><ele>383.6666666666667</ele><time>2026-04-03T07:53:54.123Z</time></trkpt><trkpt lat="43.1435133" lon="12.1777883"><ele>385.0</ele><time>2026-04-03T07:53:55.122Z</time></trkpt><trkpt lat="43.143435" lon="12.177805"><ele>385.0</ele><time>2026-04-03T07:53:56.122Z</time></trkpt><trkpt lat="43.1433417" lon="12.1777917"><ele>385.0</ele><time>2026-04-03T07:53:57.123Z</time></trkpt><trkpt lat="43.1432383" lon="12.1777683"><ele>385.0</ele><time>2026-04-03T07:53:58.122Z</time></trkpt><trkpt lat="43.1431267" lon="12.1777383"><ele>385.0</ele><time>2026-04-03T07:53:59.122Z</time></trkpt><trkpt lat="43.1430067" lon="12.1777167"><ele>385.0</ele><time>2026-04-03T07:54:00.122Z</time></trkpt><trkpt lat="43.1428767" lon="12.1776883"><ele>385.2</ele><time>2026-04-03T07:54:01.122Z</time></trkpt><trkpt lat="43.142765" lon="12.1776783"><ele>385.4</ele><time>2026-04-03T07:54:02.123Z</time></trkpt><trkpt lat="43.142665" lon="12.1776483"><ele>385.6</ele><time>2026-04-03T07:54:03.122Z</time></trkpt><trkpt lat="43.1425667" lon="12.1776183"><ele>385.8</ele><time>2026-04-03T07:54:04.123Z</time></trkpt><trkpt lat="43.1424667" lon="12.1775817"><ele>386.0</ele><time>2026-04-03T07:54:05.122Z</time></trkpt><trkpt lat="43.1423733" lon="12.1775583"><ele>384.8</ele><time>2026-04-03T07:54:06.122Z</time></trkpt><trkpt lat="43.142295" lon="12.1775483"><ele>383.6</ele><time>2026-04-03T07:54:07.122Z</time></trkpt><trkpt lat="43.1422033" lon="12.177555"><ele>382.4</ele><time>2026-04-03T07:54:09.122Z</time></trkpt><trkpt lat="43.1421283" lon="12.17764"><ele>381.2</ele><time>2026-04-03T07:54:11.122Z</time></trkpt><trkpt lat="43.142075" lon="12.1777367"><ele>380.0</ele><time>2026-04-03T07:54:12.122Z</time></trkpt><trkpt lat="43.1420033" lon="12.1778417"><ele>380.0</ele><time>2026-04-03T07:54:13.122Z</time></trkpt><trkpt lat="43.1419417" lon="12.177955"><ele>380.0</ele><time>2026-04-03T07:54:14.122Z</time></trkpt><trkpt lat="43.1418867" lon="12.17807"><ele>380.0</ele><time>2026-04-03T07:54:15.122Z</time></trkpt><trkpt lat="43.1418233" lon="12.178175"><ele>380.0</ele><time>2026-04-03T07:54:16.122Z</time></trkpt><trkpt lat="43.14176" lon="12.1782367"><ele>380.0</ele><time>2026-04-03T07:54:17.122Z</time></trkpt><trkpt lat="43.1416917" lon="12.17828"><ele>381.1666666666667</ele><time>2026-04-03T07:54:18.122Z</time></trkpt><trkpt lat="43.1416233" lon="12.1783133"><ele>382.33333333333337</ele><time>2026-04-03T07:54:19.122Z</time></trkpt><trkpt lat="43.1415483" lon="12.1783533"><ele>383.5</ele><time>2026-04-03T07:54:20.122Z</time></trkpt><trkpt lat="43.1414783" lon="12.178405"><ele>384.6666666666667</ele><time>2026-04-03T07:54:21.122Z</time></trkpt><trkpt lat="43.1414067" lon="12.1784717"><ele>385.8333333333333</ele><time>2026-04-03T07:54:22.123Z</time></trkpt><trkpt lat="43.14133" lon="12.1785583"><ele>387.0</ele><time>2026-04-03T07:54:23.122Z</time></trkpt><trkpt lat="43.1412533" lon="12.17866"><ele>387.0</ele><time>2026-04-03T07:54:24.122Z</time></trkpt><trkpt lat="43.141155" lon="12.178765"><ele>387.0</ele><time>2026-04-03T07:54:25.122Z</time></trkpt><trkpt lat="43.1410517" lon="12.1788667"><ele>387.0</ele><time>2026-04-03T07:54:26.123Z</time></trkpt><trkpt lat="43.14094" lon="12.178955"><ele>387.0</ele><time>2026-04-03T07:54:27.122Z</time></trkpt><trkpt lat="43.1408483" lon="12.179025"><ele>386.40000000000003</ele><time>2026-04-03T07:54:28.123Z</time></trkpt><trkpt lat="43.1407683" lon="12.1790717"><ele>385.8</ele><time>2026-04-03T07:54:29.122Z</time></trkpt><trkpt lat="43.1406717" lon="12.17915"><ele>385.2</ele><time>2026-04-03T07:54:31.123Z</time></trkpt><trkpt lat="43.1406083" lon="12.1792117"><ele>384.6</ele><time>2026-04-03T07:54:33.122Z</time></trkpt><trkpt lat="43.140555" lon="12.179315"><ele>384.0</ele><time>2026-04-03T07:54:35.122Z</time></trkpt><trkpt lat="43.1405017" lon="12.1794733"><ele>384.0</ele><time>2026-04-03T07:54:37.122Z</time></trkpt><trkpt lat="43.140475" lon="12.179565"><ele>384.0</ele><time>2026-04-03T07:54:38.122Z</time></trkpt><trkpt lat="43.1404467" lon="12.17967"><ele>384.0</ele><time>2026-04-03T07:54:39.122Z</time></trkpt><trkpt lat="43.1404217" lon="12.1797917"><ele>384.0</ele><time>2026-04-03T07:54:40.123Z</time></trkpt><trkpt lat="43.1403867" lon="12.1799083"><ele>384.0</ele><time>2026-04-03T07:54:41.122Z</time></trkpt><trkpt lat="43.1403733" lon="12.1800483"><ele>384.0</ele><time>2026-04-03T07:54:42.122Z</time></trkpt><trkpt lat="43.1403617" lon="12.18017"><ele>385.2</ele><time>2026-04-03T07:54:43.123Z</time></trkpt><trkpt lat="43.14037" lon="12.1802767"><ele>386.4</ele><time>2026-04-03T07:54:44.122Z</time></trkpt><trkpt lat="43.1403783" lon="12.1803683"><ele>387.6</ele><time>2026-04-03T07:54:45.122Z</time></trkpt><trkpt lat="43.1403983" lon="12.1805333"><ele>388.8</ele><time>2026-04-03T07:54:47.123Z</time></trkpt><trkpt lat="43.1404" lon="12.18067"><ele>390.0</ele><time>2026-04-03T07:54:49.122Z</time></trkpt><trkpt lat="43.1404067" lon="12.1808017"><ele>391.6</ele><time>2026-04-03T07:54:51.122Z</time></trkpt><trkpt lat="43.14041" lon="12.1809483"><ele>393.2</ele><time>2026-04-03T07:54:53.123Z</time></trkpt><trkpt lat="43.1404117" lon="12.18112"><ele>394.79999999999995</ele><time>2026-04-03T07:54:55.122Z</time></trkpt><trkpt lat="43.14041" lon="12.1812117"><ele>396.4</ele><time>2026-04-03T07:54:56.122Z</time></trkpt><trkpt lat="43.1404167" lon="12.181355"><ele>398.0</ele><time>2026-04-03T07:54:58.122Z</time></trkpt><trkpt lat="43.1404283" lon="12.1814433"><ele>399.3333333333333</ele><time>2026-04-03T07:55:00.123Z</time></trkpt><trkpt lat="43.1404433" lon="12.1815383"><ele>400.66666666666663</ele><time>2026-04-03T07:55:02.122Z</time></trkpt><trkpt lat="43.14047" lon="12.1816433"><ele>402.0</ele><time>2026-04-03T07:55:04.122Z</time></trkpt><trkpt lat="43.1405" lon="12.1817633"><ele>403.33333333333337</ele><time>2026-04-03T07:55:06.122Z</time></trkpt><trkpt lat="43.140515" lon="12.1818483"><ele>404.6666666666667</ele><time>2026-04-03T07:55:07.122Z</time></trkpt><trkpt lat="43.1405267" lon="12.1819967"><ele>406.0</ele><time>2026-04-03T07:55:09.122Z</time></trkpt><trkpt lat="43.14054" lon="12.1820883"><ele>406.0</ele><time>2026-04-03T07:55:11.123Z</time></trkpt><trkpt lat="43.140545" lon="12.1819767"><ele>406.0</ele><time>2026-04-03T07:55:25.122Z</time></trkpt><trkpt lat="43.140535" lon="12.181825"><ele>406.0</ele><time>2026-04-03T07:55:27.122Z</time></trkpt><trkpt lat="43.1405167" lon="12.1816867"><ele>406.0</ele><time>2026-04-03T07:55:29.122Z</time></trkpt><trkpt lat="43.1405" lon="12.1815817"><ele>406.0</ele><time>2026-04-03T07:55:31.123Z</time></trkpt><trkpt lat="43.140475" lon="12.18147"><ele>404.4</ele><time>2026-04-03T07:55:33.122Z</time></trkpt><trkpt lat="43.1404367" lon="12.181375"><ele>402.8</ele><time>2026-04-03T07:55:35.122Z</time></trkpt><trkpt lat="43.140415" lon="12.181215"><ele>401.2</ele><time>2026-04-03T07:55:37.122Z</time></trkpt><trkpt lat="43.1404067" lon="12.1811033"><ele>399.59999999999997</ele><time>2026-04-03T07:55:38.122Z</time></trkpt><trkpt lat="43.140395" lon="12.180975"><ele>398.0</ele><time>2026-04-03T07:55:39.122Z</time></trkpt><trkpt lat="43.140395" lon="12.1808267"><ele>396.4</ele><time>2026-04-03T07:55:40.122Z</time></trkpt><trkpt lat="43.1403983" lon="12.1806767"><ele>394.79999999999995</ele><time>2026-04-03T07:55:41.123Z</time></trkpt><trkpt lat="43.1403917" lon="12.1805483"><ele>393.2</ele><time>2026-04-03T07:55:42.122Z</time></trkpt><trkpt lat="43.1403783" lon="12.18043"><ele>391.6</ele><time>2026-04-03T07:55:43.122Z</time></trkpt><trkpt lat="43.1403767" lon="12.1803033"><ele>390.0</ele><time>2026-04-03T07:55:44.123Z</time></trkpt><trkpt lat="43.1403817" lon="12.18017"><ele>390.0</ele><time>2026-04-03T07:55:45.122Z</time></trkpt><trkpt lat="43.1403983" lon="12.180035"><ele>390.0</ele><time>2026-04-03T07:55:46.122Z</time></trkpt><trkpt lat="43.1404167" lon="12.179915"><ele>390.0</ele><time>2026-04-03T07:55:47.122Z</time></trkpt><trkpt lat="43.1404383" lon="12.1798017"><ele>390.0</ele><time>2026-04-03T07:55:48.122Z</time></trkpt><trkpt lat="43.1404517" lon="12.1797083"><ele>390.0</ele><time>2026-04-03T07:55:49.122Z</time></trkpt><trkpt lat="43.14048" lon="12.1795717"><ele>390.0</ele><time>2026-04-03T07:55:51.122Z</time></trkpt><trkpt lat="43.1404867" lon="12.1794567"><ele>390.0</ele><time>2026-04-03T07:56:38.123Z</time></trkpt><trkpt lat="43.1404617" lon="12.1795433"><ele>390.0</ele><time>2026-04-03T07:56:42.122Z</time></trkpt><trkpt lat="43.1404433" lon="12.1796833"><ele>390.0</ele><time>2026-04-03T07:56:44.122Z</time></trkpt><trkpt lat="43.1404233" lon="12.179785"><ele>390.0</ele><time>2026-04-03T07:56:45.123Z</time></trkpt><trkpt lat="43.140405" lon="12.1799"><ele>390.0</ele><time>2026-04-03T07:56:46.122Z</time></trkpt><trkpt lat="43.1403833" lon="12.1800167"><ele>390.0</ele><time>2026-04-03T07:56:47.122Z</time></trkpt><trkpt lat="43.1403717" lon="12.180145"><ele>390.0</ele><time>2026-04-03T07:56:48.122Z</time></trkpt><trkpt lat="43.1403733" lon="12.1802467"><ele>390.0</ele><time>2026-04-03T07:56:49.122Z</time></trkpt><trkpt lat="43.140385" lon="12.1803417"><ele>390.0</ele><time>2026-04-03T07:56:50.122Z</time></trkpt><trkpt lat="43.1403933" lon="12.18044"><ele>390.0</ele><time>2026-04-03T07:56:51.123Z</time></trkpt><trkpt lat="43.1404067" lon="12.1805433"><ele>390.0</ele><time>2026-04-03T07:56:52.123Z</time></trkpt><trkpt lat="43.14041" lon="12.1806417"><ele>390.0</ele><time>2026-04-03T07:56:53.122Z</time></trkpt><trkpt lat="43.140415" lon="12.1807533"><ele>390.0</ele><time>2026-04-03T07:56:54.123Z</time></trkpt><trkpt lat="43.1404183" lon="12.180855"><ele>391.6</ele><time>2026-04-03T07:56:55.122Z</time></trkpt><trkpt lat="43.140425" lon="12.18097"><ele>393.2</ele><time>2026-04-03T07:56:56.122Z</time></trkpt><trkpt lat="43.1404333" lon="12.18108"><ele>394.79999999999995</ele><time>2026-04-03T07:56:57.122Z</time></trkpt><trkpt lat="43.1404367" lon="12.18119"><ele>396.4</ele><time>2026-04-03T07:56:58.122Z</time></trkpt><trkpt lat="43.14044" lon="12.1814033"><ele>398.0</ele><time>2026-04-03T07:57:00.122Z</time></trkpt><trkpt lat="43.1404567" lon="12.181505"><ele>399.3333333333333</ele><time>2026-04-03T07:57:01.123Z</time></trkpt><trkpt lat="43.140475" lon="12.1815933"><ele>400.66666666666663</ele><time>2026-04-03T07:57:02.122Z</time></trkpt><trkpt lat="43.1404967" lon="12.18168"><ele>402.0</ele><time>2026-04-03T07:57:03.122Z</time></trkpt><trkpt lat="43.14052" lon="12.181775"><ele>403.33333333333337</ele><time>2026-04-03T07:57:04.123Z</time></trkpt><trkpt lat="43.1405367" lon="12.1818733"><ele>404.6666666666667</ele><time>2026-04-03T07:57:05.123Z</time></trkpt><trkpt lat="43.1405617" lon="12.1820733"><ele>406.0</ele><time>2026-04-03T07:57:07.122Z</time></trkpt><trkpt lat="43.1405783" lon="12.1821717"><ele>406.0</ele><time>2026-04-03T07:57:08.123Z</time></trkpt><trkpt lat="43.14064" lon="12.18232"><ele>406.0</ele><time>2026-04-03T07:57:10.122Z</time></trkpt><trkpt lat="43.1407217" lon="12.1824317"><ele>406.0</ele><time>2026-04-03T07:57:12.122Z</time></trkpt><trkpt lat="43.1408133" lon="12.1825217"><ele>406.0</ele><time>2026-04-03T07:57:14.122Z</time></trkpt><trkpt lat="43.1408617" lon="12.1825783"><ele>406.0</ele><time>2026-04-03T07:57:15.122Z</time></trkpt><trkpt lat="43.1409083" lon="12.1826717"><ele>407.00000000000006</ele><time>2026-04-03T07:57:17.122Z</time></trkpt><trkpt lat="43.1408867" lon="12.1827633"><ele>408.0</ele><time>2026-04-03T07:57:19.122Z</time></trkpt><trkpt lat="43.14083" lon="12.1828233"><ele>409.0</ele><time>2026-04-03T07:57:21.122Z</time></trkpt><trkpt lat="43.1407517" lon="12.1828433"><ele>410.0</ele><time>2026-04-03T07:57:24.123Z</time></trkpt><trkpt lat="43.1406817" lon="12.18287"><ele>411.00000000000006</ele><time>2026-04-03T07:57:41.123Z</time></trkpt><trkpt lat="43.140555" lon="12.1829133"><ele>412.0</ele><time>2026-04-03T07:57:43.122Z</time></trkpt><trkpt lat="43.14046" lon="12.18294"><ele>412.5</ele><time>2026-04-03T07:57:44.122Z</time></trkpt><trkpt lat="43.1403567" lon="12.18298"><ele>413.0</ele><time>2026-04-03T07:57:45.122Z</time></trkpt><trkpt lat="43.140245" lon="12.1830183"><ele>413.5</ele><time>2026-04-03T07:57:46.123Z</time></trkpt><trkpt lat="43.1401267" lon="12.1830367"><ele>414.0</ele><time>2026-04-03T07:57:47.123Z</time></trkpt><trkpt lat="43.1399983" lon="12.1830367"><ele>414.5</ele><time>2026-04-03T07:57:48.122Z</time></trkpt><trkpt lat="43.1398617" lon="12.18303"><ele>415.0</ele><time>2026-04-03T07:57:49.122Z</time></trkpt><trkpt lat="43.1397233" lon="12.1830467"><ele>415.5</ele><time>2026-04-03T07:57:50.123Z</time></trkpt><trkpt lat="43.139595" lon="12.183065"><ele>416.0</ele><time>2026-04-03T07:57:51.122Z</time></trkpt><trkpt lat="43.1394767" lon="12.1830733"><ele>416.0</ele><time>2026-04-03T07:57:52.123Z</time></trkpt><trkpt lat="43.1393667" lon="12.1830717"><ele>416.0</ele><time>2026-04-03T07:57:53.122Z</time></trkpt><trkpt lat="43.13925" lon="12.1830933"><ele>416.0</ele><time>2026-04-03T07:57:54.122Z</time></trkpt><trkpt lat="43.1391333" lon="12.1831233"><ele>416.0</ele><time>2026-04-03T07:57:55.122Z</time></trkpt><trkpt lat="43.1390067" lon="12.183155"><ele>415.5</ele><time>2026-04-03T07:57:56.122Z</time></trkpt><trkpt lat="43.138885" lon="12.1831767"><ele>415.0</ele><time>2026-04-03T07:57:57.122Z</time></trkpt><trkpt lat="43.138765" lon="12.1831817"><ele>414.5</ele><time>2026-04-03T07:57:58.122Z</time></trkpt><trkpt lat="43.1386417" lon="12.1831733"><ele>414.0</ele><time>2026-04-03T07:57:59.122Z</time></trkpt><trkpt lat="43.138515" lon="12.1831467"><ele>414.0</ele><time>2026-04-03T07:58:00.122Z</time></trkpt><trkpt lat="43.138265" lon="12.183075"><ele>414.0</ele><time>2026-04-03T07:58:02.122Z</time></trkpt><trkpt lat="43.1381467" lon="12.1830433"><ele>414.0</ele><time>2026-04-03T07:58:03.122Z</time></trkpt><trkpt lat="43.1380367" lon="12.1830317"><ele>412.6</ele><time>2026-04-03T07:58:04.122Z</time></trkpt><trkpt lat="43.1379383" lon="12.1830333"><ele>411.2</ele><time>2026-04-03T07:58:05.122Z</time></trkpt><trkpt lat="43.13785" lon="12.1830283"><ele>409.8</ele><time>2026-04-03T07:58:06.122Z</time></trkpt><trkpt lat="43.1377667" lon="12.18301"><ele>408.40000000000003</ele><time>2026-04-03T07:58:07.122Z</time></trkpt><trkpt lat="43.13769" lon="12.1829633"><ele>407.0</ele><time>2026-04-03T07:58:08.122Z</time></trkpt><trkpt lat="43.1376017" lon="12.1829067"><ele>407.0</ele><time>2026-04-03T07:58:09.123Z</time></trkpt><trkpt lat="43.1375" lon="12.1828533"><ele>407.0</ele><time>2026-04-03T07:58:10.122Z</time></trkpt><trkpt lat="43.1374017" lon="12.1827933"><ele>407.0</ele><time>2026-04-03T07:58:11.122Z</time></trkpt><trkpt lat="43.1373017" lon="12.182745"><ele>407.0</ele><time>2026-04-03T07:58:12.122Z</time></trkpt><trkpt lat="43.1371917" lon="12.1827317"><ele>407.0</ele><time>2026-04-03T07:58:13.123Z</time></trkpt><trkpt lat="43.13707" lon="12.182725"><ele>404.75</ele><time>2026-04-03T07:58:14.123Z</time></trkpt><trkpt lat="43.1369433" lon="12.1827183"><ele>402.5</ele><time>2026-04-03T07:58:15.122Z</time></trkpt><trkpt lat="43.1368217" lon="12.1827233"><ele>400.25</ele><time>2026-04-03T07:58:16.122Z</time></trkpt><trkpt lat="43.1367033" lon="12.1827183"><ele>398.0</ele><time>2026-04-03T07:58:17.123Z</time></trkpt><trkpt lat="43.1365867" lon="12.1827083"><ele>396.75</ele><time>2026-04-03T07:58:18.123Z</time></trkpt><trkpt lat="43.136475" lon="12.18266"><ele>395.5</ele><time>2026-04-03T07:58:19.122Z</time></trkpt><trkpt lat="43.1363567" lon="12.1826017"><ele>394.25</ele><time>2026-04-03T07:58:20.123Z</time></trkpt><trkpt lat="43.1362283" lon="12.1825433"><ele>393.0</ele><time>2026-04-03T07:58:21.122Z</time></trkpt><trkpt lat="43.1361083" lon="12.182485"><ele>393.0</ele><time>2026-04-03T07:58:22.123Z</time></trkpt><trkpt lat="43.1360033" lon="12.1824317"><ele>393.0</ele><time>2026-04-03T07:58:23.122Z</time></trkpt><trkpt lat="43.1359033" lon="12.18238"><ele>393.0</ele><time>2026-04-03T07:58:24.122Z</time></trkpt><trkpt lat="43.135825" lon="12.1823367"><ele>393.0</ele><time>2026-04-03T07:58:25.123Z</time></trkpt><trkpt lat="43.1357583" lon="12.1822667"><ele>393.0</ele><time>2026-04-03T07:58:26.122Z</time></trkpt><trkpt lat="43.135695" lon="12.182235"><ele>392.4</ele><time>2026-04-03T07:58:27.123Z</time></trkpt><trkpt lat="43.13563" lon="12.1821817"><ele>391.79999999999995</ele><time>2026-04-03T07:58:28.122Z</time></trkpt><trkpt lat="43.1355483" lon="12.1821417"><ele>391.2</ele><time>2026-04-03T07:58:29.122Z</time></trkpt><trkpt lat="43.1354617" lon="12.1820817"><ele>390.6</ele><time>2026-04-03T07:58:30.122Z</time></trkpt><trkpt lat="43.1353567" lon="12.1819983"><ele>390.0</ele><time>2026-04-03T07:58:31.122Z</time></trkpt><trkpt lat="43.135255" lon="12.1818767"><ele>390.0</ele><time>2026-04-03T07:58:32.122Z</time></trkpt><trkpt lat="43.13513" lon="12.1817567"><ele>390.0</ele><time>2026-04-03T07:58:33.122Z</time></trkpt><trkpt lat="43.1350017" lon="12.181625"><ele>390.0</ele><time>2026-04-03T07:58:34.123Z</time></trkpt><trkpt lat="43.1348833" lon="12.1815067"><ele>391.0</ele><time>2026-04-03T07:58:35.122Z</time></trkpt><trkpt lat="43.134755" lon="12.1814067"><ele>392.0</ele><time>2026-04-03T07:58:36.122Z</time></trkpt><trkpt lat="43.1346217" lon="12.1813117"><ele>393.0</ele><time>2026-04-03T07:58:37.122Z</time></trkpt><trkpt lat="43.1344683" lon="12.18123"><ele>393.0</ele><time>2026-04-03T07:58:38.122Z</time></trkpt><trkpt lat="43.1343067" lon="12.1811617"><ele>393.0</ele><time>2026-04-03T07:58:39.122Z</time></trkpt><trkpt lat="43.13416" lon="12.1810867"><ele>393.0</ele><time>2026-04-03T07:58:40.122Z</time></trkpt><trkpt lat="43.134025" lon="12.1810233"><ele>390.66666666666663</ele><time>2026-04-03T07:58:41.122Z</time></trkpt><trkpt lat="43.1338933" lon="12.1809617"><ele>388.3333333333333</ele><time>2026-04-03T07:58:42.122Z</time></trkpt><trkpt lat="43.1337433" lon="12.1808983"><ele>386.0</ele><time>2026-04-03T07:58:43.122Z</time></trkpt><trkpt lat="43.133595" lon="12.18083"><ele>386.0</ele><time>2026-04-03T07:58:44.122Z</time></trkpt><trkpt lat="43.1334467" lon="12.18075"><ele>386.0</ele><time>2026-04-03T07:58:45.123Z</time></trkpt><trkpt lat="43.13328" lon="12.180675"><ele>386.0</ele><time>2026-04-03T07:58:46.122Z</time></trkpt><trkpt lat="43.1331133" lon="12.1806117"><ele>386.0</ele><time>2026-04-03T07:58:47.122Z</time></trkpt><trkpt lat="43.1329433" lon="12.1805317"><ele>386.0</ele><time>2026-04-03T07:58:48.122Z</time></trkpt><trkpt lat="43.1327833" lon="12.18046"><ele>386.0</ele><time>2026-04-03T07:58:49.122Z</time></trkpt><trkpt lat="43.1326317" lon="12.1803933"><ele>386.0</ele><time>2026-04-03T07:58:50.123Z</time></trkpt><trkpt lat="43.1324833" lon="12.1803267"><ele>386.0</ele><time>2026-04-03T07:58:51.122Z</time></trkpt><trkpt lat="43.1323467" lon="12.1802683"><ele>386.0</ele><time>2026-04-03T07:58:52.122Z</time></trkpt><trkpt lat="43.1322267" lon="12.1801883"><ele>386.0</ele><time>2026-04-03T07:58:53.122Z</time></trkpt><trkpt lat="43.13211" lon="12.1801333"><ele>385.25</ele><time>2026-04-03T07:58:54.122Z</time></trkpt><trkpt lat="43.13198" lon="12.1800617"><ele>384.5</ele><time>2026-04-03T07:58:55.122Z</time></trkpt><trkpt lat="43.1318583" lon="12.1800117"><ele>383.75</ele><time>2026-04-03T07:58:56.123Z</time></trkpt><trkpt lat="43.1317517" lon="12.17998"><ele>383.0</ele><time>2026-04-03T07:58:57.123Z</time></trkpt><trkpt lat="43.1316433" lon="12.1799617"><ele>381.5</ele><time>2026-04-03T07:58:58.122Z</time></trkpt><trkpt lat="43.1315567" lon="12.1799083"><ele>380.0</ele><time>2026-04-03T07:58:59.122Z</time></trkpt><trkpt lat="43.1314483" lon="12.1798317"><ele>378.5</ele><time>2026-04-03T07:59:00.122Z</time></trkpt><trkpt lat="43.131325" lon="12.17975"><ele>377.0</ele><time>2026-04-03T07:59:01.122Z</time></trkpt><trkpt lat="43.13119" lon="12.1796767"><ele>377.0</ele><time>2026-04-03T07:59:02.123Z</time></trkpt><trkpt lat="43.1310417" lon="12.1796183"><ele>377.0</ele><time>2026-04-03T07:59:03.122Z</time></trkpt><trkpt lat="43.1308767" lon="12.179545"><ele>377.0</ele><time>2026-04-03T07:59:04.122Z</time></trkpt><trkpt lat="43.130695" lon="12.1794667"><ele>377.6666666666667</ele><time>2026-04-03T07:59:05.122Z</time></trkpt><trkpt lat="43.13051" lon="12.1793933"><ele>378.3333333333333</ele><time>2026-04-03T07:59:06.122Z</time></trkpt><trkpt lat="43.130325" lon="12.1793133"><ele>379.0</ele><time>2026-04-03T07:59:07.122Z</time></trkpt><trkpt lat="43.1301383" lon="12.1792383"><ele>379.0</ele><time>2026-04-03T07:59:08.122Z</time></trkpt><trkpt lat="43.1299517" lon="12.1791533"><ele>379.0</ele><time>2026-04-03T07:59:09.122Z</time></trkpt><trkpt lat="43.12977" lon="12.1790833"><ele>379.0</ele><time>2026-04-03T07:59:10.122Z</time></trkpt><trkpt lat="43.1295967" lon="12.17902"><ele>377.0</ele><time>2026-04-03T07:59:11.122Z</time></trkpt><trkpt lat="43.1294233" lon="12.1789433"><ele>375.0</ele><time>2026-04-03T07:59:12.122Z</time></trkpt><trkpt lat="43.12925" lon="12.1788483"><ele>373.0</ele><time>2026-04-03T07:59:13.123Z</time></trkpt><trkpt lat="43.1290683" lon="12.178755"><ele>374.0</ele><time>2026-04-03T07:59:14.122Z</time></trkpt><trkpt lat="43.128905" lon="12.1786717"><ele>375.0</ele><time>2026-04-03T07:59:15.122Z</time></trkpt><trkpt lat="43.12877" lon="12.178585"><ele>376.0</ele><time>2026-04-03T07:59:16.122Z</time></trkpt><trkpt lat="43.12865" lon="12.178515"><ele>376.0</ele><time>2026-04-03T07:59:17.122Z</time></trkpt><trkpt lat="43.128555" lon="12.1784533"><ele>376.0</ele><time>2026-04-03T07:59:18.123Z</time></trkpt><trkpt lat="43.1284667" lon="12.178385"><ele>376.0</ele><time>2026-04-03T07:59:19.122Z</time></trkpt><trkpt lat="43.1283767" lon="12.17836"><ele>376.0</ele><time>2026-04-03T07:59:20.122Z</time></trkpt><trkpt lat="43.128295" lon="12.1783367"><ele>376.0</ele><time>2026-04-03T07:59:21.123Z</time></trkpt><trkpt lat="43.12823" lon="12.1783017"><ele>375.4</ele><time>2026-04-03T07:59:22.122Z</time></trkpt><trkpt lat="43.1281733" lon="12.1782417"><ele>374.8</ele><time>2026-04-03T07:59:23.122Z</time></trkpt><trkpt lat="43.1281033" lon="12.17818"><ele>374.2</ele><time>2026-04-03T07:59:24.122Z</time></trkpt><trkpt lat="43.1280317" lon="12.1781117"><ele>373.59999999999997</ele><time>2026-04-03T07:59:25.122Z</time></trkpt><trkpt lat="43.1279517" lon="12.178025"><ele>373.0</ele><time>2026-04-03T07:59:26.122Z</time></trkpt><trkpt lat="43.1278733" lon="12.1779233"><ele>373.0</ele><time>2026-04-03T07:59:27.122Z</time></trkpt><trkpt lat="43.1277917" lon="12.1778067"><ele>373.0</ele><time>2026-04-03T07:59:28.123Z</time></trkpt><trkpt lat="43.127725" lon="12.1776767"><ele>373.0</ele><time>2026-04-03T07:59:29.122Z</time></trkpt><trkpt lat="43.1276533" lon="12.177555"><ele>373.0</ele><time>2026-04-03T07:59:30.122Z</time></trkpt><trkpt lat="43.1275833" lon="12.1774367"><ele>372.0</ele><time>2026-04-03T07:59:31.122Z</time></trkpt><trkpt lat="43.1275217" lon="12.17734"><ele>371.0</ele><time>2026-04-03T07:59:32.122Z</time></trkpt><trkpt lat="43.1274533" lon="12.17728"><ele>370.0</ele><time>2026-04-03T07:59:33.123Z</time></trkpt><trkpt lat="43.1273917" lon="12.177245"><ele>369.0</ele><time>2026-04-03T07:59:34.123Z</time></trkpt><trkpt lat="43.1273167" lon="12.17722"><ele>368.0</ele><time>2026-04-03T07:59:35.123Z</time></trkpt><trkpt lat="43.1272467" lon="12.1772283"><ele>367.0</ele><time>2026-04-03T07:59:36.122Z</time></trkpt><trkpt lat="43.1271883" lon="12.1772783"><ele>368.6</ele><time>2026-04-03T07:59:37.122Z</time></trkpt><trkpt lat="43.1271317" lon="12.177355"><ele>370.20000000000005</ele><time>2026-04-03T07:59:38.123Z</time></trkpt><trkpt lat="43.1270767" lon="12.177435"><ele>371.8</ele><time>2026-04-03T07:59:39.122Z</time></trkpt><trkpt lat="43.1270033" lon="12.177545"><ele>373.4</ele><time>2026-04-03T07:59:40.122Z</time></trkpt><trkpt lat="43.1269" lon="12.177665"><ele>375.0</ele><time>2026-04-03T07:59:41.122Z</time></trkpt><trkpt lat="43.1268017" lon="12.17777"><ele>375.0</ele><time>2026-04-03T07:59:42.122Z</time></trkpt><trkpt lat="43.1267117" lon="12.1778333"><ele>375.0</ele><time>2026-04-03T07:59:43.123Z</time></trkpt><trkpt lat="43.1266267" lon="12.1778733"><ele>375.0</ele><time>2026-04-03T07:59:44.122Z</time></trkpt><trkpt lat="43.1265167" lon="12.1778917"><ele>375.0</ele><time>2026-04-03T07:59:45.122Z</time></trkpt><trkpt lat="43.1264033" lon="12.1778983"><ele>375.0</ele><time>2026-04-03T07:59:46.122Z</time></trkpt><trkpt lat="43.1262667" lon="12.1779067"><ele>378.33333333333337</ele><time>2026-04-03T07:59:47.123Z</time></trkpt><trkpt lat="43.1261017" lon="12.1779167"><ele>381.6666666666667</ele><time>2026-04-03T07:59:48.122Z</time></trkpt><trkpt lat="43.125935" lon="12.1779133"><ele>385.0</ele><time>2026-04-03T07:59:49.122Z</time></trkpt><trkpt lat="43.1257767" lon="12.17791"><ele>387.75</ele><time>2026-04-03T07:59:50.122Z</time></trkpt><trkpt lat="43.1256283" lon="12.17793"><ele>390.5</ele><time>2026-04-03T07:59:51.123Z</time></trkpt><trkpt lat="43.1254967" lon="12.1779783"><ele>393.25</ele><time>2026-04-03T07:59:52.123Z</time></trkpt><trkpt lat="43.1253717" lon="12.17807"><ele>396.0</ele><time>2026-04-03T07:59:53.122Z</time></trkpt><trkpt lat="43.125285" lon="12.17816"><ele>392.5</ele><time>2026-04-03T07:59:54.122Z</time></trkpt><trkpt lat="43.1251983" lon="12.1782933"><ele>389.0</ele><time>2026-04-03T07:59:55.122Z</time></trkpt><trkpt lat="43.1251217" lon="12.1784217"><ele>385.5</ele><time>2026-04-03T07:59:56.122Z</time></trkpt><trkpt lat="43.1250317" lon="12.1785583"><ele>382.0</ele><time>2026-04-03T07:59:57.122Z</time></trkpt><trkpt lat="43.1249567" lon="12.178665"><ele>381.40000000000003</ele><time>2026-04-03T07:59:58.122Z</time></trkpt><trkpt lat="43.124895" lon="12.178735"><ele>380.8</ele><time>2026-04-03T07:59:59.122Z</time></trkpt><trkpt lat="43.1247783" lon="12.1787533"><ele>380.2</ele><time>2026-04-03T08:00:01.122Z</time></trkpt><trkpt lat="43.124705" lon="12.17871"><ele>379.6</ele><time>2026-04-03T08:00:02.123Z</time></trkpt><trkpt lat="43.1246117" lon="12.178655"><ele>379.0</ele><time>2026-04-03T08:00:03.122Z</time></trkpt><trkpt lat="43.1244783" lon="12.1785967"><ele>379.0</ele><time>2026-04-03T08:00:04.123Z</time></trkpt><trkpt lat="43.1243283" lon="12.1785467"><ele>379.0</ele><time>2026-04-03T08:00:05.123Z</time></trkpt><trkpt lat="43.1241383" lon="12.17849"><ele>379.0</ele><time>2026-04-03T08:00:06.122Z</time></trkpt><trkpt lat="43.1239383" lon="12.1784267"><ele>373.0</ele><time>2026-04-03T08:00:07.123Z</time></trkpt><trkpt lat="43.12371" lon="12.1783583"><ele>367.0</ele><time>2026-04-03T08:00:08.123Z</time></trkpt><trkpt lat="43.1234933" lon="12.178275"><ele>367.0</ele><time>2026-04-03T08:00:09.122Z</time></trkpt><trkpt lat="43.1232833" lon="12.1782017"><ele>367.0</ele><time>2026-04-03T08:00:10.122Z</time></trkpt><trkpt lat="43.1230983" lon="12.1781267"><ele>367.0</ele><time>2026-04-03T08:00:11.123Z</time></trkpt><trkpt lat="43.1229133" lon="12.1780467"><ele>369.0</ele><time>2026-04-03T08:00:12.122Z</time></trkpt><trkpt lat="43.1227333" lon="12.177925"><ele>371.0</ele><time>2026-04-03T08:00:13.122Z</time></trkpt><trkpt lat="43.1225417" lon="12.17779"><ele>373.0</ele><time>2026-04-03T08:00:14.122Z</time></trkpt><trkpt lat="43.122345" lon="12.1776217"><ele>374.0</ele><time>2026-04-03T08:00:15.122Z</time></trkpt><trkpt lat="43.1221417" lon="12.177455"><ele>375.0</ele><time>2026-04-03T08:00:16.122Z</time></trkpt><trkpt lat="43.1219267" lon="12.177285"><ele>375.0</ele><time>2026-04-03T08:00:17.123Z</time></trkpt><trkpt lat="43.1216983" lon="12.1771317"><ele>375.0</ele><time>2026-04-03T08:00:18.122Z</time></trkpt><trkpt lat="43.1214733" lon="12.17697"><ele>365.0</ele><time>2026-04-03T08:00:19.122Z</time></trkpt><trkpt lat="43.12125" lon="12.1768017"><ele>355.0</ele><time>2026-04-03T08:00:20.123Z</time></trkpt><trkpt lat="43.1210483" lon="12.17665"><ele>354.0</ele><time>2026-04-03T08:00:21.122Z</time></trkpt><trkpt lat="43.1208517" lon="12.1765167"><ele>353.0</ele><time>2026-04-03T08:00:22.123Z</time></trkpt><trkpt lat="43.1206617" lon="12.1763967"><ele>352.0</ele><time>2026-04-03T08:00:23.122Z</time></trkpt><trkpt lat="43.1204617" lon="12.17629"><ele>352.0</ele><time>2026-04-03T08:00:24.122Z</time></trkpt><trkpt lat="43.12025" lon="12.1762167"><ele>352.0</ele><time>2026-04-03T08:00:25.122Z</time></trkpt><trkpt lat="43.120025" lon="12.1761467"><ele>352.0</ele><time>2026-04-03T08:00:26.123Z</time></trkpt><trkpt lat="43.11982" lon="12.176045"><ele>346.66666666666663</ele><time>2026-04-03T08:00:27.123Z</time></trkpt><trkpt lat="43.11962" lon="12.1759467"><ele>341.3333333333333</ele><time>2026-04-03T08:00:28.122Z</time></trkpt><trkpt lat="43.1194383" lon="12.175835"><ele>336.0</ele><time>2026-04-03T08:00:29.123Z</time></trkpt><trkpt lat="43.11926" lon="12.1757117"><ele>336.3333333333333</ele><time>2026-04-03T08:00:30.122Z</time></trkpt><trkpt lat="43.1190867" lon="12.1755983"><ele>336.66666666666663</ele><time>2026-04-03T08:00:31.123Z</time></trkpt><trkpt lat="43.11891" lon="12.1754683"><ele>337.0</ele><time>2026-04-03T08:00:32.122Z</time></trkpt><trkpt lat="43.1187267" lon="12.1753267"><ele>332.66666666666663</ele><time>2026-04-03T08:00:33.123Z</time></trkpt><trkpt lat="43.118555" lon="12.1751733"><ele>328.3333333333333</ele><time>2026-04-03T08:00:34.122Z</time></trkpt><trkpt lat="43.1184" lon="12.1750333"><ele>324.0</ele><time>2026-04-03T08:00:35.122Z</time></trkpt><trkpt lat="43.1182867" lon="12.174935"><ele>322.3333333333333</ele><time>2026-04-03T08:00:36.122Z</time></trkpt><trkpt lat="43.1182083" lon="12.174875"><ele>320.6666666666667</ele><time>2026-04-03T08:00:37.122Z</time></trkpt><trkpt lat="43.1181333" lon="12.1747967"><ele>319.0</ele><time>2026-04-03T08:00:38.123Z</time></trkpt><trkpt lat="43.1180633" lon="12.174715"><ele>317.33333333333337</ele><time>2026-04-03T08:00:39.122Z</time></trkpt><trkpt lat="43.1179983" lon="12.1746383"><ele>315.6666666666667</ele><time>2026-04-03T08:00:40.122Z</time></trkpt><trkpt lat="43.1179217" lon="12.1746"><ele>314.0</ele><time>2026-04-03T08:00:41.121Z</time></trkpt><trkpt lat="43.1178383" lon="12.174615"><ele>313.5</ele><time>2026-04-03T08:00:42.121Z</time></trkpt><trkpt lat="43.11777" lon="12.1746483"><ele>313.0</ele><time>2026-04-03T08:00:43.121Z</time></trkpt><trkpt lat="43.117695" lon="12.1747067"><ele>312.5</ele><time>2026-04-03T08:00:44.121Z</time></trkpt><trkpt lat="43.1176117" lon="12.1747333"><ele>312.0</ele><time>2026-04-03T08:00:45.122Z</time></trkpt><trkpt lat="43.1175283" lon="12.1747217"><ele>311.5</ele><time>2026-04-03T08:00:46.121Z</time></trkpt><trkpt lat="43.1174533" lon="12.174675"><ele>311.0</ele><time>2026-04-03T08:00:47.122Z</time></trkpt><trkpt lat="43.11737" lon="12.1745983"><ele>309.6</ele><time>2026-04-03T08:00:48.121Z</time></trkpt><trkpt lat="43.1172883" lon="12.1745283"><ele>308.20000000000005</ele><time>2026-04-03T08:00:49.122Z</time></trkpt><trkpt lat="43.117215" lon="12.174455"><ele>306.79999999999995</ele><time>2026-04-03T08:00:50.121Z</time></trkpt><trkpt lat="43.11715" lon="12.174375"><ele>305.4</ele><time>2026-04-03T08:00:51.121Z</time></trkpt><trkpt lat="43.11707" lon="12.1742867"><ele>304.0</ele><time>2026-04-03T08:00:52.121Z</time></trkpt><trkpt lat="43.11699" lon="12.17421"><ele>304.0</ele><time>2026-04-03T08:00:53.122Z</time></trkpt><trkpt lat="43.1168967" lon="12.1741417"><ele>304.0</ele><time>2026-04-03T08:00:54.121Z</time></trkpt><trkpt lat="43.116805" lon="12.1740883"><ele>304.0</ele><time>2026-04-03T08:00:55.121Z</time></trkpt><trkpt lat="43.1167217" lon="12.1740467"><ele>304.0</ele><time>2026-04-03T08:00:56.122Z</time></trkpt><trkpt lat="43.11665" lon="12.1740117"><ele>304.0</ele><time>2026-04-03T08:00:57.122Z</time></trkpt><trkpt lat="43.1165683" lon="12.1739867"><ele>301.16666666666663</ele><time>2026-04-03T08:00:58.122Z</time></trkpt><trkpt lat="43.11648" lon="12.17397"><ele>298.3333333333333</ele><time>2026-04-03T08:00:59.122Z</time></trkpt><trkpt lat="43.1163833" lon="12.173955"><ele>295.5</ele><time>2026-04-03T08:01:00.121Z</time></trkpt><trkpt lat="43.1162867" lon="12.1739433"><ele>292.6666666666667</ele><time>2026-04-03T08:01:01.121Z</time></trkpt><trkpt lat="43.116215" lon="12.1739217"><ele>289.83333333333337</ele><time>2026-04-03T08:01:02.122Z</time></trkpt><trkpt lat="43.1161533" lon="12.1739417"><ele>287.0</ele><time>2026-04-03T08:01:03.121Z</time></trkpt><trkpt lat="43.1160933" lon="12.174"><ele>288.0</ele><time>2026-04-03T08:01:04.121Z</time></trkpt><trkpt lat="43.1160683" lon="12.174175"><ele>289.0</ele><time>2026-04-03T08:01:06.121Z</time></trkpt><trkpt lat="43.1160917" lon="12.17429"><ele>290.0</ele><time>2026-04-03T08:01:07.122Z</time></trkpt><trkpt lat="43.1161433" lon="12.1744233"><ele>291.0</ele><time>2026-04-03T08:01:08.121Z</time></trkpt><trkpt lat="43.1162017" lon="12.1745833"><ele>291.0</ele><time>2026-04-03T08:01:09.121Z</time></trkpt><trkpt lat="43.1162783" lon="12.1747567"><ele>291.0</ele><time>2026-04-03T08:01:10.122Z</time></trkpt><trkpt lat="43.11636" lon="12.17494"><ele>291.0</ele><time>2026-04-03T08:01:11.121Z</time></trkpt><trkpt lat="43.1164317" lon="12.1751117"><ele>291.0</ele><time>2026-04-03T08:01:12.121Z</time></trkpt><trkpt lat="43.1165067" lon="12.1752817"><ele>291.0</ele><time>2026-04-03T08:01:13.121Z</time></trkpt><trkpt lat="43.116585" lon="12.1754583"><ele>291.0</ele><time>2026-04-03T08:01:14.122Z</time></trkpt><trkpt lat="43.11667" lon="12.1756283"><ele>291.0</ele><time>2026-04-03T08:01:15.121Z</time></trkpt><trkpt lat="43.116745" lon="12.175765"><ele>291.0</ele><time>2026-04-03T08:01:16.121Z</time></trkpt><trkpt lat="43.116825" lon="12.1758933"><ele>291.0</ele><time>2026-04-03T08:01:17.121Z</time></trkpt><trkpt lat="43.11691" lon="12.1760133"><ele>291.0</ele><time>2026-04-03T08:01:18.121Z</time></trkpt><trkpt lat="43.116985" lon="12.1761333"><ele>291.0</ele><time>2026-04-03T08:01:19.121Z</time></trkpt><trkpt lat="43.11705" lon="12.1762467"><ele>291.0</ele><time>2026-04-03T08:01:20.121Z</time></trkpt><trkpt lat="43.1171033" lon="12.176355"><ele>291.0</ele><time>2026-04-03T08:01:21.122Z</time></trkpt><trkpt lat="43.1171517" lon="12.1764417"><ele>291.0</ele><time>2026-04-03T08:01:22.121Z</time></trkpt><trkpt lat="43.1171917" lon="12.1765167"><ele>291.0</ele><time>2026-04-03T08:01:23.121Z</time></trkpt><trkpt lat="43.117225" lon="12.1766433"><ele>291.0</ele><time>2026-04-03T08:01:25.121Z</time></trkpt><trkpt lat="43.117175" lon="12.1767067"><ele>291.0</ele><time>2026-04-03T08:01:27.121Z</time></trkpt><trkpt lat="43.1170733" lon="12.176715"><ele>291.0</ele><time>2026-04-03T08:01:29.121Z</time></trkpt><trkpt lat="43.1169933" lon="12.1766833"><ele>291.0</ele><time>2026-04-03T08:01:30.122Z</time></trkpt><trkpt lat="43.116895" lon="12.176645"><ele>288.25</ele><time>2026-04-03T08:01:31.121Z</time></trkpt><trkpt lat="43.1167633" lon="12.176595"><ele>285.5</ele><time>2026-04-03T08:01:32.121Z</time></trkpt><trkpt lat="43.11663" lon="12.1765517"><ele>282.75</ele><time>2026-04-03T08:01:33.121Z</time></trkpt><trkpt lat="43.1165017" lon="12.1765133"><ele>280.0</ele><time>2026-04-03T08:01:34.121Z</time></trkpt><trkpt lat="43.116385" lon="12.176485"><ele>279.8333333333333</ele><time>2026-04-03T08:01:35.121Z</time></trkpt><trkpt lat="43.1162783" lon="12.1764783"><ele>279.66666666666663</ele><time>2026-04-03T08:01:36.122Z</time></trkpt><trkpt lat="43.1161883" lon="12.1764933"><ele>279.5</ele><time>2026-04-03T08:01:37.121Z</time></trkpt><trkpt lat="43.11611" lon="12.17648"><ele>279.3333333333333</ele><time>2026-04-03T08:01:38.121Z</time></trkpt><trkpt lat="43.1160417" lon="12.1764333"><ele>279.1666666666667</ele><time>2026-04-03T08:01:39.121Z</time></trkpt><trkpt lat="43.11599" lon="12.1763433"><ele>279.0</ele><time>2026-04-03T08:01:40.122Z</time></trkpt><trkpt lat="43.11592" lon="12.17623"><ele>279.0</ele><time>2026-04-03T08:01:41.121Z</time></trkpt><trkpt lat="43.11583" lon="12.176095"><ele>279.0</ele><time>2026-04-03T08:01:42.121Z</time></trkpt><trkpt lat="43.11574" lon="12.17596"><ele>279.0</ele><time>2026-04-03T08:01:43.121Z</time></trkpt><trkpt lat="43.1156467" lon="12.1758233"><ele>279.0</ele><time>2026-04-03T08:01:44.121Z</time></trkpt><trkpt lat="43.1155533" lon="12.1757117"><ele>277.8</ele><time>2026-04-03T08:01:45.121Z</time></trkpt><trkpt lat="43.1154567" lon="12.1756267"><ele>276.59999999999997</ele><time>2026-04-03T08:01:46.121Z</time></trkpt><trkpt lat="43.1153667" lon="12.1755167"><ele>275.4</ele><time>2026-04-03T08:01:47.122Z</time></trkpt><trkpt lat="43.115285" lon="12.175425"><ele>274.2</ele><time>2026-04-03T08:01:48.121Z</time></trkpt><trkpt lat="43.1152183" lon="12.1753317"><ele>273.0</ele><time>2026-04-03T08:01:49.121Z</time></trkpt><trkpt lat="43.1151433" lon="12.1752333"><ele>273.0</ele><time>2026-04-03T08:01:50.122Z</time></trkpt><trkpt lat="43.1150717" lon="12.17513"><ele>273.0</ele><time>2026-04-03T08:01:51.121Z</time></trkpt><trkpt lat="43.1149917" lon="12.1750333"><ele>273.0</ele><time>2026-04-03T08:01:52.121Z</time></trkpt><trkpt lat="43.114925" lon="12.17494"><ele>273.0</ele><time>2026-04-03T08:01:53.121Z</time></trkpt><trkpt lat="43.1148483" lon="12.17485"><ele>273.0</ele><time>2026-04-03T08:01:54.121Z</time></trkpt><trkpt lat="43.1147683" lon="12.17477"><ele>270.75</ele><time>2026-04-03T08:01:55.121Z</time></trkpt><trkpt lat="43.1146733" lon="12.17472"><ele>268.5</ele><time>2026-04-03T08:01:56.121Z</time></trkpt><trkpt lat="43.1145483" lon="12.1746667"><ele>266.25</ele><time>2026-04-03T08:01:57.121Z</time></trkpt><trkpt lat="43.1144267" lon="12.1745833"><ele>264.0</ele><time>2026-04-03T08:01:58.121Z</time></trkpt><trkpt lat="43.1143267" lon="12.1744817"><ele>264.0</ele><time>2026-04-03T08:01:59.122Z</time></trkpt><trkpt lat="43.1142467" lon="12.1743733"><ele>264.0</ele><time>2026-04-03T08:02:00.122Z</time></trkpt><trkpt lat="43.114195" lon="12.17429"><ele>264.0</ele><time>2026-04-03T08:02:01.122Z</time></trkpt><trkpt lat="43.1141533" lon="12.1742183"><ele>264.0</ele><time>2026-04-03T08:02:02.121Z</time></trkpt><trkpt lat="43.1140983" lon="12.17411"><ele>264.0</ele><time>2026-04-03T08:02:04.121Z</time></trkpt><trkpt lat="43.1140233" lon="12.1741617"><ele>264.0</ele><time>2026-04-03T08:02:11.121Z</time></trkpt><trkpt lat="43.113995" lon="12.1742667"><ele>262.3333333333333</ele><time>2026-04-03T08:02:12.121Z</time></trkpt><trkpt lat="43.1139617" lon="12.174395"><ele>260.66666666666663</ele><time>2026-04-03T08:02:13.121Z</time></trkpt><trkpt lat="43.11385" lon="12.1746933"><ele>259.0</ele><time>2026-04-03T08:02:15.121Z</time></trkpt><trkpt lat="43.1137733" lon="12.174875"><ele>259.0</ele><time>2026-04-03T08:02:16.121Z</time></trkpt><trkpt lat="43.11369" lon="12.17506"><ele>259.0</ele><time>2026-04-03T08:02:17.122Z</time></trkpt><trkpt lat="43.1136033" lon="12.1752633"><ele>259.0</ele><time>2026-04-03T08:02:18.121Z</time></trkpt><trkpt lat="43.113495" lon="12.1754933"><ele>259.3333333333333</ele><time>2026-04-03T08:02:19.121Z</time></trkpt><trkpt lat="43.113385" lon="12.1757183"><ele>259.6666666666667</ele><time>2026-04-03T08:02:20.121Z</time></trkpt><trkpt lat="43.1132867" lon="12.1759633"><ele>260.0</ele><time>2026-04-03T08:02:21.121Z</time></trkpt><trkpt lat="43.1131983" lon="12.1762367"><ele>259.0</ele><time>2026-04-03T08:02:22.121Z</time></trkpt><trkpt lat="43.11313" lon="12.17653"><ele>258.0</ele><time>2026-04-03T08:02:23.121Z</time></trkpt><trkpt lat="43.113075" lon="12.1768367"><ele>258.0</ele><time>2026-04-03T08:02:24.122Z</time></trkpt><trkpt lat="43.1130133" lon="12.1771567"><ele>258.0</ele><time>2026-04-03T08:02:25.121Z</time></trkpt><trkpt lat="43.11295" lon="12.177485"><ele>258.0</ele><time>2026-04-03T08:02:26.121Z</time></trkpt><trkpt lat="43.1128767" lon="12.177805"><ele>258.0</ele><time>2026-04-03T08:02:27.122Z</time></trkpt><trkpt lat="43.1128" lon="12.1781433"><ele>259.0</ele><time>2026-04-03T08:02:28.121Z</time></trkpt><trkpt lat="43.11274" lon="12.1784683"><ele>260.0</ele><time>2026-04-03T08:02:29.121Z</time></trkpt><trkpt lat="43.1126783" lon="12.1787783"><ele>260.33333333333337</ele><time>2026-04-03T08:02:30.122Z</time></trkpt><trkpt lat="43.1126233" lon="12.1790567"><ele>260.6666666666667</ele><time>2026-04-03T08:02:31.122Z</time></trkpt><trkpt lat="43.1125683" lon="12.1793233"><ele>261.0</ele><time>2026-04-03T08:02:32.121Z</time></trkpt><trkpt lat="43.1125033" lon="12.1795767"><ele>261.0</ele><time>2026-04-03T08:02:33.121Z</time></trkpt><trkpt lat="43.112415" lon="12.1798233"><ele>261.0</ele><time>2026-04-03T08:02:34.121Z</time></trkpt><trkpt lat="43.1122967" lon="12.1800583"><ele>261.0</ele><time>2026-04-03T08:02:35.121Z</time></trkpt><trkpt lat="43.1121767" lon="12.1802917"><ele>261.0</ele><time>2026-04-03T08:02:36.121Z</time></trkpt><trkpt lat="43.112055" lon="12.180535"><ele>261.0</ele><time>2026-04-03T08:02:37.121Z</time></trkpt><trkpt lat="43.1119283" lon="12.180795"><ele>261.0</ele><time>2026-04-03T08:02:38.121Z</time></trkpt><trkpt lat="43.111805" lon="12.1810533"><ele>261.0</ele><time>2026-04-03T08:02:39.121Z</time></trkpt><trkpt lat="43.11168" lon="12.18131"><ele>261.0</ele><time>2026-04-03T08:02:40.121Z</time></trkpt><trkpt lat="43.11155" lon="12.181555"><ele>261.0</ele><time>2026-04-03T08:02:41.121Z</time></trkpt><trkpt lat="43.11141" lon="12.1818017"><ele>260.5</ele><time>2026-04-03T08:02:42.121Z</time></trkpt><trkpt lat="43.1112667" lon="12.18204"><ele>260.0</ele><time>2026-04-03T08:02:43.122Z</time></trkpt><trkpt lat="43.11112" lon="12.1822783"><ele>260.5</ele><time>2026-04-03T08:02:44.121Z</time></trkpt><trkpt lat="43.1109667" lon="12.18252"><ele>261.0</ele><time>2026-04-03T08:02:45.121Z</time></trkpt><trkpt lat="43.1108033" lon="12.18275"><ele>260.0</ele><time>2026-04-03T08:02:46.122Z</time></trkpt><trkpt lat="43.1106517" lon="12.1829783"><ele>259.0</ele><time>2026-04-03T08:02:47.121Z</time></trkpt><trkpt lat="43.1104933" lon="12.183205"><ele>259.0</ele><time>2026-04-03T08:02:48.121Z</time></trkpt><trkpt lat="43.11034" lon="12.18344"><ele>259.0</ele><time>2026-04-03T08:02:49.121Z</time></trkpt><trkpt lat="43.1102033" lon="12.183695"><ele>259.0</ele><time>2026-04-03T08:02:50.121Z</time></trkpt><trkpt lat="43.1100717" lon="12.1839633"><ele>259.0</ele><time>2026-04-03T08:02:51.121Z</time></trkpt><trkpt lat="43.10995" lon="12.1842433"><ele>258.5</ele><time>2026-04-03T08:02:52.121Z</time></trkpt><trkpt lat="43.10984" lon="12.1845417"><ele>258.0</ele><time>2026-04-03T08:02:53.121Z</time></trkpt><trkpt lat="43.1097317" lon="12.1848417"><ele>258.0</ele><time>2026-04-03T08:02:54.121Z</time></trkpt><trkpt lat="43.1096233" lon="12.185125"><ele>258.0</ele><time>2026-04-03T08:02:55.122Z</time></trkpt><trkpt lat="43.1095117" lon="12.1854033"><ele>258.0</ele><time>2026-04-03T08:02:56.121Z</time></trkpt><trkpt lat="43.1093967" lon="12.185665"><ele>258.0</ele><time>2026-04-03T08:02:57.121Z</time></trkpt><trkpt lat="43.1092717" lon="12.1859117"><ele>258.0</ele><time>2026-04-03T08:02:58.121Z</time></trkpt><trkpt lat="43.109145" lon="12.186125"><ele>258.0</ele><time>2026-04-03T08:02:59.121Z</time></trkpt><trkpt lat="43.1090083" lon="12.1863067"><ele>258.0</ele><time>2026-04-03T08:03:00.121Z</time></trkpt><trkpt lat="43.10885" lon="12.1864733"><ele>258.0</ele><time>2026-04-03T08:03:01.121Z</time></trkpt><trkpt lat="43.1086717" lon="12.186645"><ele>257.6666666666667</ele><time>2026-04-03T08:03:02.121Z</time></trkpt><trkpt lat="43.1084917" lon="12.1868"><ele>257.33333333333337</ele><time>2026-04-03T08:03:03.121Z</time></trkpt><trkpt lat="43.108305" lon="12.1869517"><ele>257.0</ele><time>2026-04-03T08:03:04.121Z</time></trkpt><trkpt lat="43.1081317" lon="12.1871033"><ele>257.0</ele><time>2026-04-03T08:03:05.121Z</time></trkpt><trkpt lat="43.10797" lon="12.187255"><ele>257.0</ele><time>2026-04-03T08:03:06.121Z</time></trkpt><trkpt lat="43.1078" lon="12.187385"><ele>257.0</ele><time>2026-04-03T08:03:07.121Z</time></trkpt><trkpt lat="43.10763" lon="12.187505"><ele>257.33333333333337</ele><time>2026-04-03T08:03:08.122Z</time></trkpt><trkpt lat="43.1074467" lon="12.1875967"><ele>257.6666666666667</ele><time>2026-04-03T08:03:09.121Z</time></trkpt><trkpt lat="43.1072567" lon="12.18768"><ele>258.0</ele><time>2026-04-03T08:03:10.121Z</time></trkpt><trkpt lat="43.10707" lon="12.1877867"><ele>258.0</ele><time>2026-04-03T08:03:11.122Z</time></trkpt><trkpt lat="43.106895" lon="12.1879117"><ele>258.0</ele><time>2026-04-03T08:03:12.122Z</time></trkpt><trkpt lat="43.1067333" lon="12.1880367"><ele>258.0</ele><time>2026-04-03T08:03:13.121Z</time></trkpt><trkpt lat="43.1065817" lon="12.1881617"><ele>259.5</ele><time>2026-04-03T08:03:14.121Z</time></trkpt><trkpt lat="43.1064517" lon="12.1882767"><ele>261.0</ele><time>2026-04-03T08:03:15.122Z</time></trkpt><trkpt lat="43.1063067" lon="12.188365"><ele>262.5</ele><time>2026-04-03T08:03:16.121Z</time></trkpt><trkpt lat="43.1062317" lon="12.1884133"><ele>264.0</ele><time>2026-04-03T08:03:17.122Z</time></trkpt><trkpt lat="43.1061583" lon="12.188425"><ele>264.0</ele><time>2026-04-03T08:03:18.122Z</time></trkpt><trkpt lat="43.106075" lon="12.18838"><ele>264.0</ele><time>2026-04-03T08:03:19.122Z</time></trkpt><trkpt lat="43.10597" lon="12.1883333"><ele>264.0</ele><time>2026-04-03T08:03:20.121Z</time></trkpt><trkpt lat="43.1058583" lon="12.18828"><ele>264.0</ele><time>2026-04-03T08:03:21.122Z</time></trkpt><trkpt lat="43.105735" lon="12.18821"><ele>261.6666666666667</ele><time>2026-04-03T08:03:22.121Z</time></trkpt><trkpt lat="43.1055883" lon="12.18817"><ele>259.33333333333337</ele><time>2026-04-03T08:03:23.121Z</time></trkpt><trkpt lat="43.1054233" lon="12.1881667"><ele>257.0</ele><time>2026-04-03T08:03:24.121Z</time></trkpt><trkpt lat="43.1052583" lon="12.1881733"><ele>257.0</ele><time>2026-04-03T08:03:25.121Z</time></trkpt><trkpt lat="43.105095" lon="12.1881883"><ele>257.0</ele><time>2026-04-03T08:03:26.121Z</time></trkpt><trkpt lat="43.1049283" lon="12.18815"><ele>257.0</ele><time>2026-04-03T08:03:27.122Z</time></trkpt><trkpt lat="43.1047667" lon="12.1880683"><ele>256.33333333333337</ele><time>2026-04-03T08:03:28.121Z</time></trkpt><trkpt lat="43.1045917" lon="12.187985"><ele>255.66666666666669</ele><time>2026-04-03T08:03:29.121Z</time></trkpt><trkpt lat="43.10442" lon="12.1879667"><ele>255.0</ele><time>2026-04-03T08:03:30.122Z</time></trkpt><trkpt lat="43.1042433" lon="12.18801"><ele>254.66666666666669</ele><time>2026-04-03T08:03:31.121Z</time></trkpt><trkpt lat="43.1040633" lon="12.1881133"><ele>254.33333333333334</ele><time>2026-04-03T08:03:32.122Z</time></trkpt><trkpt lat="43.1038817" lon="12.1882667"><ele>254.0</ele><time>2026-04-03T08:03:33.121Z</time></trkpt><trkpt lat="43.1036983" lon="12.1884233"><ele>256.5</ele><time>2026-04-03T08:03:34.121Z</time></trkpt><trkpt lat="43.103505" lon="12.1885867"><ele>259.0</ele><time>2026-04-03T08:03:35.121Z</time></trkpt><trkpt lat="43.1033167" lon="12.1887567"><ele>259.5</ele><time>2026-04-03T08:03:36.121Z</time></trkpt><trkpt lat="43.1031133" lon="12.18892"><ele>260.0</ele><time>2026-04-03T08:03:37.121Z</time></trkpt><trkpt lat="43.1029267" lon="12.1891"><ele>260.0</ele><time>2026-04-03T08:03:38.121Z</time></trkpt><trkpt lat="43.1027583" lon="12.1892717"><ele>260.0</ele><time>2026-04-03T08:03:39.121Z</time></trkpt><trkpt lat="43.1026167" lon="12.1894567"><ele>260.0</ele><time>2026-04-03T08:03:40.121Z</time></trkpt><trkpt lat="43.10249" lon="12.18966"><ele>259.33333333333337</ele><time>2026-04-03T08:03:41.122Z</time></trkpt><trkpt lat="43.1023683" lon="12.1899033"><ele>258.6666666666667</ele><time>2026-04-03T08:03:42.122Z</time></trkpt><trkpt lat="43.1022583" lon="12.1901767"><ele>258.0</ele><time>2026-04-03T08:03:43.122Z</time></trkpt><trkpt lat="43.1021533" lon="12.19045"><ele>258.3333333333333</ele><time>2026-04-03T08:03:44.121Z</time></trkpt><trkpt lat="43.1020417" lon="12.1907033"><ele>258.66666666666663</ele><time>2026-04-03T08:03:45.121Z</time></trkpt><trkpt lat="43.10193" lon="12.1909717"><ele>259.0</ele><time>2026-04-03T08:03:46.122Z</time></trkpt><trkpt lat="43.101815" lon="12.1912433"><ele>259.0</ele><time>2026-04-03T08:03:47.121Z</time></trkpt><trkpt lat="43.1017033" lon="12.1915067"><ele>259.0</ele><time>2026-04-03T08:03:48.122Z</time></trkpt><trkpt lat="43.1015917" lon="12.1917367"><ele>259.0</ele><time>2026-04-03T08:03:49.121Z</time></trkpt><trkpt lat="43.10149" lon="12.1919333"><ele>259.0</ele><time>2026-04-03T08:03:50.121Z</time></trkpt><trkpt lat="43.1013917" lon="12.192125"><ele>259.0</ele><time>2026-04-03T08:03:51.122Z</time></trkpt><trkpt lat="43.1013267" lon="12.1923267"><ele>259.0</ele><time>2026-04-03T08:03:52.121Z</time></trkpt><trkpt lat="43.1012817" lon="12.19254"><ele>259.0</ele><time>2026-04-03T08:03:53.122Z</time></trkpt><trkpt lat="43.1012867" lon="12.1927517"><ele>259.0</ele><time>2026-04-03T08:03:54.121Z</time></trkpt><trkpt lat="43.101315" lon="12.1929683"><ele>259.0</ele><time>2026-04-03T08:03:55.121Z</time></trkpt><trkpt lat="43.1013867" lon="12.19319"><ele>259.3333333333333</ele><time>2026-04-03T08:03:56.121Z</time></trkpt><trkpt lat="43.1014767" lon="12.193425"><ele>259.6666666666667</ele><time>2026-04-03T08:03:57.121Z</time></trkpt><trkpt lat="43.1015717" lon="12.193665"><ele>260.0</ele><time>2026-04-03T08:03:58.121Z</time></trkpt><trkpt lat="43.1016567" lon="12.1939133"><ele>260.33333333333337</ele><time>2026-04-03T08:03:59.122Z</time></trkpt><trkpt lat="43.10175" lon="12.1941617"><ele>260.6666666666667</ele><time>2026-04-03T08:04:00.121Z</time></trkpt><trkpt lat="43.1018367" lon="12.1944017"><ele>261.0</ele><time>2026-04-03T08:04:01.121Z</time></trkpt><trkpt lat="43.1019283" lon="12.194635"><ele>261.3333333333333</ele><time>2026-04-03T08:04:02.121Z</time></trkpt><trkpt lat="43.101995" lon="12.1948567"><ele>261.66666666666663</ele><time>2026-04-03T08:04:03.121Z</time></trkpt><trkpt lat="43.102055" lon="12.19507"><ele>262.0</ele><time>2026-04-03T08:04:04.121Z</time></trkpt><trkpt lat="43.10208" lon="12.19528"><ele>262.0</ele><time>2026-04-03T08:04:05.122Z</time></trkpt><trkpt lat="43.1020783" lon="12.1955083"><ele>262.0</ele><time>2026-04-03T08:04:06.121Z</time></trkpt><trkpt lat="43.1020533" lon="12.1957267"><ele>262.0</ele><time>2026-04-03T08:04:07.121Z</time></trkpt><trkpt lat="43.102" lon="12.1959533"><ele>262.66666666666663</ele><time>2026-04-03T08:04:08.121Z</time></trkpt><trkpt lat="43.1019217" lon="12.196185"><ele>263.3333333333333</ele><time>2026-04-03T08:04:09.121Z</time></trkpt><trkpt lat="43.1018417" lon="12.196415"><ele>264.0</ele><time>2026-04-03T08:04:10.121Z</time></trkpt><trkpt lat="43.101765" lon="12.1966617"><ele>265.3333333333333</ele><time>2026-04-03T08:04:11.121Z</time></trkpt><trkpt lat="43.1016917" lon="12.19692"><ele>266.66666666666663</ele><time>2026-04-03T08:04:12.121Z</time></trkpt><trkpt lat="43.101615" lon="12.1971783"><ele>268.0</ele><time>2026-04-03T08:04:13.122Z</time></trkpt><trkpt lat="43.1015267" lon="12.1974417"><ele>268.3333333333333</ele><time>2026-04-03T08:04:14.122Z</time></trkpt><trkpt lat="43.10144" lon="12.1976917"><ele>268.6666666666667</ele><time>2026-04-03T08:04:15.121Z</time></trkpt><trkpt lat="43.1013383" lon="12.1979617"><ele>269.0</ele><time>2026-04-03T08:04:16.121Z</time></trkpt><trkpt lat="43.101255" lon="12.1982233"><ele>270.33333333333337</ele><time>2026-04-03T08:04:17.121Z</time></trkpt><trkpt lat="43.1011517" lon="12.1984533"><ele>271.6666666666667</ele><time>2026-04-03T08:04:18.121Z</time></trkpt><trkpt lat="43.1010517" lon="12.1986433"><ele>273.0</ele><time>2026-04-03T08:04:19.121Z</time></trkpt><trkpt lat="43.1009433" lon="12.1987983"><ele>273.0</ele><time>2026-04-03T08:04:20.121Z</time></trkpt><trkpt lat="43.1007933" lon="12.1989367"><ele>273.0</ele><time>2026-04-03T08:04:21.122Z</time></trkpt><trkpt lat="43.1006383" lon="12.199075"><ele>273.0</ele><time>2026-04-03T08:04:22.122Z</time></trkpt><trkpt lat="43.100505" lon="12.19919"><ele>274.5</ele><time>2026-04-03T08:04:23.121Z</time></trkpt><trkpt lat="43.1003883" lon="12.1992883"><ele>276.0</ele><time>2026-04-03T08:04:24.122Z</time></trkpt><trkpt lat="43.1002933" lon="12.1993983"><ele>277.5</ele><time>2026-04-03T08:04:25.122Z</time></trkpt><trkpt lat="43.1002167" lon="12.1994617"><ele>279.0</ele><time>2026-04-03T08:04:26.121Z</time></trkpt><trkpt lat="43.1001233" lon="12.1995367"><ele>279.0</ele><time>2026-04-03T08:04:27.122Z</time></trkpt><trkpt lat="43.100015" lon="12.19959"><ele>279.0</ele><time>2026-04-03T08:04:28.121Z</time></trkpt><trkpt lat="43.099895" lon="12.1996317"><ele>279.0</ele><time>2026-04-03T08:04:29.121Z</time></trkpt><trkpt lat="43.0997633" lon="12.1996917"><ele>279.0</ele><time>2026-04-03T08:04:30.122Z</time></trkpt><trkpt lat="43.0996167" lon="12.1997467"><ele>279.3333333333333</ele><time>2026-04-03T08:04:31.121Z</time></trkpt><trkpt lat="43.0994583" lon="12.19981"><ele>279.66666666666663</ele><time>2026-04-03T08:04:32.121Z</time></trkpt><trkpt lat="43.0992933" lon="12.1998467"><ele>280.0</ele><time>2026-04-03T08:04:33.121Z</time></trkpt><trkpt lat="43.0991067" lon="12.1998833"><ele>281.0</ele><time>2026-04-03T08:04:34.121Z</time></trkpt><trkpt lat="43.0989183" lon="12.1998933"><ele>282.0</ele><time>2026-04-03T08:04:35.122Z</time></trkpt><trkpt lat="43.0987267" lon="12.1998617"><ele>283.0</ele><time>2026-04-03T08:04:36.122Z</time></trkpt><trkpt lat="43.0985217" lon="12.1998417"><ele>281.0</ele><time>2026-04-03T08:04:37.121Z</time></trkpt><trkpt lat="43.0983183" lon="12.1997967"><ele>279.0</ele><time>2026-04-03T08:04:38.121Z</time></trkpt><trkpt lat="43.0981317" lon="12.199725"><ele>277.0</ele><time>2026-04-03T08:04:39.121Z</time></trkpt><trkpt lat="43.097945" lon="12.1997"><ele>277.0</ele><time>2026-04-03T08:04:40.121Z</time></trkpt><trkpt lat="43.0977733" lon="12.1997133"><ele>277.0</ele><time>2026-04-03T08:04:41.121Z</time></trkpt><trkpt lat="43.0975983" lon="12.199825"><ele>277.0</ele><time>2026-04-03T08:04:42.122Z</time></trkpt><trkpt lat="43.0974317" lon="12.1999633"><ele>279.0</ele><time>2026-04-03T08:04:43.121Z</time></trkpt><trkpt lat="43.0972817" lon="12.2001283"><ele>281.0</ele><time>2026-04-03T08:04:44.122Z</time></trkpt><trkpt lat="43.09713" lon="12.2002867"><ele>283.0</ele><time>2026-04-03T08:04:45.121Z</time></trkpt><trkpt lat="43.0969717" lon="12.2004317"><ele>283.0</ele><time>2026-04-03T08:04:46.121Z</time></trkpt><trkpt lat="43.0968067" lon="12.200525"><ele>283.0</ele><time>2026-04-03T08:04:47.121Z</time></trkpt><trkpt lat="43.0966467" lon="12.2005767"><ele>283.0</ele><time>2026-04-03T08:04:48.121Z</time></trkpt><trkpt lat="43.096475" lon="12.2005533"><ele>284.3333333333333</ele><time>2026-04-03T08:04:49.121Z</time></trkpt><trkpt lat="43.0963033" lon="12.2004683"><ele>285.6666666666667</ele><time>2026-04-03T08:04:50.122Z</time></trkpt><trkpt lat="43.096145" lon="12.2003467"><ele>287.0</ele><time>2026-04-03T08:04:51.121Z</time></trkpt><trkpt lat="43.0959767" lon="12.2002083"><ele>287.0</ele><time>2026-04-03T08:04:52.122Z</time></trkpt><trkpt lat="43.0958183" lon="12.2000683"><ele>287.0</ele><time>2026-04-03T08:04:53.121Z</time></trkpt><trkpt lat="43.09565" lon="12.199935"><ele>287.0</ele><time>2026-04-03T08:04:54.122Z</time></trkpt><trkpt lat="43.09546" lon="12.1998167"><ele>288.0</ele><time>2026-04-03T08:04:55.121Z</time></trkpt><trkpt lat="43.0952617" lon="12.19973"><ele>289.0</ele><time>2026-04-03T08:04:56.121Z</time></trkpt><trkpt lat="43.0950567" lon="12.19968"><ele>290.0</ele><time>2026-04-03T08:04:57.121Z</time></trkpt><trkpt lat="43.0948383" lon="12.1996333"><ele>290.0</ele><time>2026-04-03T08:04:58.121Z</time></trkpt><trkpt lat="43.0946183" lon="12.1995817"><ele>290.0</ele><time>2026-04-03T08:04:59.121Z</time></trkpt><trkpt lat="43.094415" lon="12.1994983"><ele>290.0</ele><time>2026-04-03T08:05:00.122Z</time></trkpt><trkpt lat="43.0942133" lon="12.1993767"><ele>292.0</ele><time>2026-04-03T08:05:01.122Z</time></trkpt><trkpt lat="43.0940067" lon="12.1992317"><ele>294.0</ele><time>2026-04-03T08:05:02.121Z</time></trkpt><trkpt lat="43.0938017" lon="12.19908"><ele>289.5</ele><time>2026-04-03T08:05:03.121Z</time></trkpt><trkpt lat="43.0935867" lon="12.1989183"><ele>285.0</ele><time>2026-04-03T08:05:04.121Z</time></trkpt><trkpt lat="43.0933683" lon="12.1987567"><ele>284.5</ele><time>2026-04-03T08:05:05.121Z</time></trkpt><trkpt lat="43.0931533" lon="12.1986133"><ele>284.0</ele><time>2026-04-03T08:05:06.121Z</time></trkpt><trkpt lat="43.0929367" lon="12.1985167"><ele>284.0</ele><time>2026-04-03T08:05:07.121Z</time></trkpt><trkpt lat="43.0927283" lon="12.1984733"><ele>284.0</ele><time>2026-04-03T08:05:08.121Z</time></trkpt><trkpt lat="43.092515" lon="12.1984783"><ele>284.0</ele><time>2026-04-03T08:05:09.121Z</time></trkpt><trkpt lat="43.0923367" lon="12.1984283"><ele>284.33333333333337</ele><time>2026-04-03T08:05:10.121Z</time></trkpt><trkpt lat="43.0921867" lon="12.198335"><ele>284.6666666666667</ele><time>2026-04-03T08:05:11.122Z</time></trkpt><trkpt lat="43.09206" lon="12.1981833"><ele>285.0</ele><time>2026-04-03T08:05:12.121Z</time></trkpt><trkpt lat="43.0919567" lon="12.19799"><ele>285.0</ele><time>2026-04-03T08:05:13.121Z</time></trkpt><trkpt lat="43.0918767" lon="12.197785"><ele>285.0</ele><time>2026-04-03T08:05:14.121Z</time></trkpt><trkpt lat="43.0917767" lon="12.19759"><ele>285.0</ele><time>2026-04-03T08:05:15.122Z</time></trkpt><trkpt lat="43.0916517" lon="12.1974383"><ele>285.6666666666667</ele><time>2026-04-03T08:05:16.121Z</time></trkpt><trkpt lat="43.0914983" lon="12.1973433"><ele>286.33333333333337</ele><time>2026-04-03T08:05:17.121Z</time></trkpt><trkpt lat="43.0913417" lon="12.1973"><ele>287.0</ele><time>2026-04-03T08:05:18.121Z</time></trkpt><trkpt lat="43.09117" lon="12.1973067"><ele>287.0</ele><time>2026-04-03T08:05:19.121Z</time></trkpt><trkpt lat="43.0909833" lon="12.197345"><ele>287.0</ele><time>2026-04-03T08:05:20.121Z</time></trkpt><trkpt lat="43.0907883" lon="12.1974167"><ele>287.0</ele><time>2026-04-03T08:05:21.121Z</time></trkpt><trkpt lat="43.0906067" lon="12.1974767"><ele>287.33333333333337</ele><time>2026-04-03T08:05:22.121Z</time></trkpt><trkpt lat="43.0904383" lon="12.1975233"><ele>287.6666666666667</ele><time>2026-04-03T08:05:23.122Z</time></trkpt><trkpt lat="43.0902733" lon="12.197565"><ele>288.0</ele><time>2026-04-03T08:05:24.121Z</time></trkpt><trkpt lat="43.0901333" lon="12.1976017"><ele>288.0</ele><time>2026-04-03T08:05:25.121Z</time></trkpt><trkpt lat="43.089995" lon="12.1976267"><ele>288.0</ele><time>2026-04-03T08:05:26.121Z</time></trkpt><trkpt lat="43.089875" lon="12.19763"><ele>288.0</ele><time>2026-04-03T08:05:27.121Z</time></trkpt><trkpt lat="43.08977" lon="12.19758"><ele>288.0</ele><time>2026-04-03T08:05:28.122Z</time></trkpt><trkpt lat="43.089675" lon="12.1974833"><ele>290.0</ele><time>2026-04-03T08:05:29.121Z</time></trkpt><trkpt lat="43.0896" lon="12.1973717"><ele>292.0</ele><time>2026-04-03T08:05:30.121Z</time></trkpt><trkpt lat="43.0895383" lon="12.1972333"><ele>294.0</ele><time>2026-04-03T08:05:31.122Z</time></trkpt><trkpt lat="43.089495" lon="12.1970783"><ele>296.0</ele><time>2026-04-03T08:05:32.122Z</time></trkpt><trkpt lat="43.089455" lon="12.1969317"><ele>296.0</ele><time>2026-04-03T08:05:33.122Z</time></trkpt><trkpt lat="43.0894133" lon="12.196795"><ele>296.0</ele><time>2026-04-03T08:05:34.121Z</time></trkpt><trkpt lat="43.0893617" lon="12.196665"><ele>296.0</ele><time>2026-04-03T08:05:35.121Z</time></trkpt><trkpt lat="43.0892917" lon="12.1965383"><ele>296.0</ele><time>2026-04-03T08:05:36.121Z</time></trkpt><trkpt lat="43.089215" lon="12.19642"><ele>296.0</ele><time>2026-04-03T08:05:37.122Z</time></trkpt><trkpt lat="43.0891183" lon="12.1963183"><ele>295.2</ele><time>2026-04-03T08:05:38.121Z</time></trkpt><trkpt lat="43.0890267" lon="12.1962483"><ele>294.40000000000003</ele><time>2026-04-03T08:05:39.121Z</time></trkpt><trkpt lat="43.08893" lon="12.19618"><ele>293.6</ele><time>2026-04-03T08:05:40.121Z</time></trkpt><trkpt lat="43.0888283" lon="12.1961233"><ele>292.8</ele><time>2026-04-03T08:05:41.122Z</time></trkpt><trkpt lat="43.0887233" lon="12.1960683"><ele>292.0</ele><time>2026-04-03T08:05:42.121Z</time></trkpt><trkpt lat="43.088625" lon="12.196"><ele>292.0</ele><time>2026-04-03T08:05:43.121Z</time></trkpt><trkpt lat="43.0885183" lon="12.1959367"><ele>292.0</ele><time>2026-04-03T08:05:44.121Z</time></trkpt><trkpt lat="43.0884167" lon="12.1958717"><ele>292.0</ele><time>2026-04-03T08:05:45.122Z</time></trkpt><trkpt lat="43.08832" lon="12.195815"><ele>292.0</ele><time>2026-04-03T08:05:46.121Z</time></trkpt><trkpt lat="43.08823" lon="12.195775"><ele>292.0</ele><time>2026-04-03T08:05:47.121Z</time></trkpt><trkpt lat="43.0881417" lon="12.1957333"><ele>292.8</ele><time>2026-04-03T08:05:48.121Z</time></trkpt><trkpt lat="43.0880517" lon="12.1956983"><ele>293.6</ele><time>2026-04-03T08:05:49.121Z</time></trkpt><trkpt lat="43.087965" lon="12.19566"><ele>294.40000000000003</ele><time>2026-04-03T08:05:50.122Z</time></trkpt><trkpt lat="43.0878733" lon="12.1956083"><ele>295.2</ele><time>2026-04-03T08:05:51.121Z</time></trkpt><trkpt lat="43.08778" lon="12.1955483"><ele>296.0</ele><time>2026-04-03T08:05:52.121Z</time></trkpt><trkpt lat="43.0876917" lon="12.195475"><ele>294.40000000000003</ele><time>2026-04-03T08:05:53.121Z</time></trkpt><trkpt lat="43.0876317" lon="12.1953833"><ele>292.8</ele><time>2026-04-03T08:05:54.122Z</time></trkpt><trkpt lat="43.08758" lon="12.19527"><ele>291.20000000000005</ele><time>2026-04-03T08:05:55.121Z</time></trkpt><trkpt lat="43.0875167" lon="12.1951367"><ele>289.6</ele><time>2026-04-03T08:05:56.122Z</time></trkpt><trkpt lat="43.087475" lon="12.1950033"><ele>288.0</ele><time>2026-04-03T08:05:57.121Z</time></trkpt><trkpt lat="43.087455" lon="12.1948817"><ele>287.5</ele><time>2026-04-03T08:05:58.121Z</time></trkpt><trkpt lat="43.0874583" lon="12.1947633"><ele>287.0</ele><time>2026-04-03T08:05:59.122Z</time></trkpt><trkpt lat="43.08748" lon="12.1946583"><ele>286.5</ele><time>2026-04-03T08:06:00.121Z</time></trkpt><trkpt lat="43.087505" lon="12.19457"><ele>286.0</ele><time>2026-04-03T08:06:01.121Z</time></trkpt><trkpt lat="43.08752" lon="12.1944517"><ele>285.5</ele><time>2026-04-03T08:06:03.121Z</time></trkpt><trkpt lat="43.0875483" lon="12.1943267"><ele>285.0</ele><time>2026-04-03T08:06:06.121Z</time></trkpt><trkpt lat="43.0875767" lon="12.19413"><ele>284.75</ele><time>2026-04-03T08:06:08.121Z</time></trkpt><trkpt lat="43.0875867" lon="12.1939967"><ele>284.5</ele><time>2026-04-03T08:06:09.121Z</time></trkpt><trkpt lat="43.0876017" lon="12.1938383"><ele>284.25</ele><time>2026-04-03T08:06:10.121Z</time></trkpt><trkpt lat="43.08762" lon="12.1936367"><ele>284.0</ele><time>2026-04-03T08:06:11.121Z</time></trkpt><trkpt lat="43.0876283" lon="12.1934283"><ele>284.0</ele><time>2026-04-03T08:06:12.121Z</time></trkpt><trkpt lat="43.0876333" lon="12.1932067"><ele>284.0</ele><time>2026-04-03T08:06:13.121Z</time></trkpt><trkpt lat="43.087655" lon="12.1929683"><ele>284.0</ele><time>2026-04-03T08:06:14.121Z</time></trkpt><trkpt lat="43.0876783" lon="12.1927083"><ele>283.33333333333337</ele><time>2026-04-03T08:06:15.121Z</time></trkpt><trkpt lat="43.0877133" lon="12.19245"><ele>282.6666666666667</ele><time>2026-04-03T08:06:16.122Z</time></trkpt><trkpt lat="43.0877183" lon="12.1921833"><ele>282.0</ele><time>2026-04-03T08:06:17.121Z</time></trkpt><trkpt lat="43.0876783" lon="12.191935"><ele>282.0</ele><time>2026-04-03T08:06:18.122Z</time></trkpt><trkpt lat="43.0876083" lon="12.191695"><ele>282.0</ele><time>2026-04-03T08:06:19.121Z</time></trkpt><trkpt lat="43.087495" lon="12.1914617"><ele>282.0</ele><time>2026-04-03T08:06:20.122Z</time></trkpt><trkpt lat="43.0873783" lon="12.1912383"><ele>284.6666666666667</ele><time>2026-04-03T08:06:21.121Z</time></trkpt><trkpt lat="43.0872617" lon="12.1910217"><ele>287.33333333333337</ele><time>2026-04-03T08:06:22.121Z</time></trkpt><trkpt lat="43.0871633" lon="12.190785"><ele>290.0</ele><time>2026-04-03T08:06:23.121Z</time></trkpt><trkpt lat="43.0871033" lon="12.190545"><ele>290.0</ele><time>2026-04-03T08:06:24.121Z</time></trkpt><trkpt lat="43.087085" lon="12.1902917"><ele>290.0</ele><time>2026-04-03T08:06:25.121Z</time></trkpt><trkpt lat="43.08711" lon="12.190045"><ele>290.0</ele><time>2026-04-03T08:06:26.121Z</time></trkpt><trkpt lat="43.087155" lon="12.189795"><ele>291.6666666666667</ele><time>2026-04-03T08:06:27.121Z</time></trkpt><trkpt lat="43.0872133" lon="12.1895417"><ele>293.3333333333333</ele><time>2026-04-03T08:06:28.122Z</time></trkpt><trkpt lat="43.0872833" lon="12.1892667"><ele>295.0</ele><time>2026-04-03T08:06:29.122Z</time></trkpt><trkpt lat="43.0873583" lon="12.1889883"><ele>288.66666666666663</ele><time>2026-04-03T08:06:30.121Z</time></trkpt><trkpt lat="43.0874417" lon="12.188695"><ele>282.3333333333333</ele><time>2026-04-03T08:06:31.121Z</time></trkpt><trkpt lat="43.0875167" lon="12.1884183"><ele>276.0</ele><time>2026-04-03T08:06:32.122Z</time></trkpt><trkpt lat="43.0875867" lon="12.18816"><ele>275.6666666666667</ele><time>2026-04-03T08:06:33.121Z</time></trkpt><trkpt lat="43.0876383" lon="12.1879"><ele>275.33333333333337</ele><time>2026-04-03T08:06:34.122Z</time></trkpt><trkpt lat="43.0876933" lon="12.1876517"><ele>275.0</ele><time>2026-04-03T08:06:35.122Z</time></trkpt><trkpt lat="43.0877117" lon="12.1874067"><ele>273.33333333333337</ele><time>2026-04-03T08:06:36.121Z</time></trkpt><trkpt lat="43.0876867" lon="12.1871733"><ele>271.6666666666667</ele><time>2026-04-03T08:06:37.121Z</time></trkpt><trkpt lat="43.0876567" lon="12.1869667"><ele>270.0</ele><time>2026-04-03T08:06:38.121Z</time></trkpt><trkpt lat="43.0876017" lon="12.1867817"><ele>270.0</ele><time>2026-04-03T08:06:39.121Z</time></trkpt><trkpt lat="43.0875467" lon="12.1866133"><ele>270.0</ele><time>2026-04-03T08:06:40.121Z</time></trkpt><trkpt lat="43.0874933" lon="12.1864383"><ele>270.0</ele><time>2026-04-03T08:06:41.121Z</time></trkpt><trkpt lat="43.087435" lon="12.1862567"><ele>270.0</ele><time>2026-04-03T08:06:42.121Z</time></trkpt><trkpt lat="43.0873767" lon="12.18607"><ele>270.75</ele><time>2026-04-03T08:06:43.121Z</time></trkpt><trkpt lat="43.08733" lon="12.18588"><ele>271.5</ele><time>2026-04-03T08:06:44.122Z</time></trkpt><trkpt lat="43.08729" lon="12.18569"><ele>272.25</ele><time>2026-04-03T08:06:45.121Z</time></trkpt><trkpt lat="43.0872617" lon="12.1854933"><ele>273.0</ele><time>2026-04-03T08:06:46.121Z</time></trkpt><trkpt lat="43.0872533" lon="12.1852883"><ele>271.3333333333333</ele><time>2026-04-03T08:06:47.122Z</time></trkpt><trkpt lat="43.0872583" lon="12.18507"><ele>269.66666666666663</ele><time>2026-04-03T08:06:48.121Z</time></trkpt><trkpt lat="43.087275" lon="12.18483"><ele>268.0</ele><time>2026-04-03T08:06:49.122Z</time></trkpt><trkpt lat="43.0872933" lon="12.1845667"><ele>268.0</ele><time>2026-04-03T08:06:50.121Z</time></trkpt><trkpt lat="43.0873267" lon="12.184315"><ele>268.0</ele><time>2026-04-03T08:06:51.121Z</time></trkpt><trkpt lat="43.087345" lon="12.18403"><ele>268.0</ele><time>2026-04-03T08:06:52.122Z</time></trkpt><trkpt lat="43.08737" lon="12.1837283"><ele>268.5</ele><time>2026-04-03T08:06:53.121Z</time></trkpt><trkpt lat="43.0874033" lon="12.18342"><ele>269.0</ele><time>2026-04-03T08:06:54.122Z</time></trkpt><trkpt lat="43.08744" lon="12.1831033"><ele>264.5</ele><time>2026-04-03T08:06:55.121Z</time></trkpt><trkpt lat="43.08747" lon="12.1827783"><ele>260.0</ele><time>2026-04-03T08:06:56.121Z</time></trkpt><trkpt lat="43.0874983" lon="12.1824333"><ele>260.0</ele><time>2026-04-03T08:06:57.121Z</time></trkpt><trkpt lat="43.08753" lon="12.1820817"><ele>260.0</ele><time>2026-04-03T08:06:58.121Z</time></trkpt><trkpt lat="43.0875567" lon="12.1817333"><ele>262.0</ele><time>2026-04-03T08:06:59.122Z</time></trkpt><trkpt lat="43.0875883" lon="12.181385"><ele>264.0</ele><time>2026-04-03T08:07:00.121Z</time></trkpt><trkpt lat="43.0876283" lon="12.1810267"><ele>264.0</ele><time>2026-04-03T08:07:01.121Z</time></trkpt><trkpt lat="43.0876683" lon="12.1806783"><ele>264.0</ele><time>2026-04-03T08:07:02.121Z</time></trkpt><trkpt lat="43.0877" lon="12.1803133"><ele>264.0</ele><time>2026-04-03T08:07:03.122Z</time></trkpt><trkpt lat="43.0877217" lon="12.1799533"><ele>264.0</ele><time>2026-04-03T08:07:04.121Z</time></trkpt><trkpt lat="43.0877483" lon="12.1796017"><ele>266.0</ele><time>2026-04-03T08:07:05.121Z</time></trkpt><trkpt lat="43.08778" lon="12.179245"><ele>268.0</ele><time>2026-04-03T08:07:06.121Z</time></trkpt><trkpt lat="43.0878183" lon="12.1788833"><ele>268.0</ele><time>2026-04-03T08:07:07.121Z</time></trkpt><trkpt lat="43.087855" lon="12.1785217"><ele>268.0</ele><time>2026-04-03T08:07:08.121Z</time></trkpt><trkpt lat="43.08788" lon="12.1781533"><ele>268.0</ele><time>2026-04-03T08:07:09.121Z</time></trkpt><trkpt lat="43.0879133" lon="12.177775"><ele>268.0</ele><time>2026-04-03T08:07:10.121Z</time></trkpt><trkpt lat="43.0879433" lon="12.177405"><ele>267.5</ele><time>2026-04-03T08:07:11.122Z</time></trkpt><trkpt lat="43.0879633" lon="12.177025"><ele>267.0</ele><time>2026-04-03T08:07:12.121Z</time></trkpt><trkpt lat="43.0879883" lon="12.1766467"><ele>267.5</ele><time>2026-04-03T08:07:13.121Z</time></trkpt><trkpt lat="43.0880117" lon="12.1762767"><ele>268.0</ele><time>2026-04-03T08:07:14.121Z</time></trkpt><trkpt lat="43.0880483" lon="12.1759117"><ele>267.5</ele><time>2026-04-03T08:07:15.122Z</time></trkpt><trkpt lat="43.088085" lon="12.1755417"><ele>267.0</ele><time>2026-04-03T08:07:16.121Z</time></trkpt><trkpt lat="43.08812" lon="12.1751767"><ele>267.0</ele><time>2026-04-03T08:07:17.121Z</time></trkpt><trkpt lat="43.0881533" lon="12.1748217"><ele>267.0</ele><time>2026-04-03T08:07:18.122Z</time></trkpt><trkpt lat="43.0881767" lon="12.1744633"><ele>267.0</ele><time>2026-04-03T08:07:19.121Z</time></trkpt><trkpt lat="43.0881983" lon="12.1741217"><ele>267.0</ele><time>2026-04-03T08:07:20.121Z</time></trkpt><trkpt lat="43.088225" lon="12.1738067"><ele>267.6666666666667</ele><time>2026-04-03T08:07:21.12Z</time></trkpt><trkpt lat="43.08825" lon="12.1735167"><ele>268.33333333333337</ele><time>2026-04-03T08:07:22.12Z</time></trkpt><trkpt lat="43.088265" lon="12.1732383"><ele>269.0</ele><time>2026-04-03T08:07:23.121Z</time></trkpt><trkpt lat="43.088295" lon="12.172985"><ele>269.6666666666667</ele><time>2026-04-03T08:07:24.121Z</time></trkpt><trkpt lat="43.088325" lon="12.1727367"><ele>270.3333333333333</ele><time>2026-04-03T08:07:25.121Z</time></trkpt><trkpt lat="43.0883817" lon="12.17251"><ele>271.0</ele><time>2026-04-03T08:07:26.121Z</time></trkpt><trkpt lat="43.0884517" lon="12.1722933"><ele>271.0</ele><time>2026-04-03T08:07:27.12Z</time></trkpt><trkpt lat="43.0885467" lon="12.17208"><ele>271.0</ele><time>2026-04-03T08:07:28.12Z</time></trkpt><trkpt lat="43.0886533" lon="12.1718783"><ele>271.0</ele><time>2026-04-03T08:07:29.12Z</time></trkpt><trkpt lat="43.0887617" lon="12.1716883"><ele>276.3333333333333</ele><time>2026-04-03T08:07:30.121Z</time></trkpt><trkpt lat="43.0888633" lon="12.1714867"><ele>281.6666666666667</ele><time>2026-04-03T08:07:31.12Z</time></trkpt><trkpt lat="43.0889733" lon="12.1712867"><ele>287.0</ele><time>2026-04-03T08:07:32.12Z</time></trkpt><trkpt lat="43.089075" lon="12.1710933"><ele>281.6666666666667</ele><time>2026-04-03T08:07:33.12Z</time></trkpt><trkpt lat="43.0891783" lon="12.1709033"><ele>276.3333333333333</ele><time>2026-04-03T08:07:34.121Z</time></trkpt><trkpt lat="43.089285" lon="12.1707083"><ele>271.0</ele><time>2026-04-03T08:07:35.12Z</time></trkpt><trkpt lat="43.08939" lon="12.170505"><ele>271.0</ele><time>2026-04-03T08:07:36.121Z</time></trkpt><trkpt lat="43.0894983" lon="12.1703017"><ele>271.0</ele><time>2026-04-03T08:07:37.121Z</time></trkpt><trkpt lat="43.0896167" lon="12.1700983"><ele>271.0</ele><time>2026-04-03T08:07:38.12Z</time></trkpt><trkpt lat="43.0897283" lon="12.16989"><ele>270.3333333333333</ele><time>2026-04-03T08:07:39.12Z</time></trkpt><trkpt lat="43.089845" lon="12.16969"><ele>269.6666666666667</ele><time>2026-04-03T08:07:40.12Z</time></trkpt><trkpt lat="43.0899567" lon="12.1694967"><ele>269.0</ele><time>2026-04-03T08:07:41.121Z</time></trkpt><trkpt lat="43.0900617" lon="12.1692783"><ele>269.0</ele><time>2026-04-03T08:07:42.12Z</time></trkpt><trkpt lat="43.0901683" lon="12.1690583"><ele>269.0</ele><time>2026-04-03T08:07:43.12Z</time></trkpt><trkpt lat="43.0902683" lon="12.1688183"><ele>269.0</ele><time>2026-04-03T08:07:44.121Z</time></trkpt><trkpt lat="43.0903517" lon="12.1685733"><ele>270.6666666666667</ele><time>2026-04-03T08:07:45.12Z</time></trkpt><trkpt lat="43.0904333" lon="12.1683267"><ele>272.3333333333333</ele><time>2026-04-03T08:07:46.12Z</time></trkpt><trkpt lat="43.0904933" lon="12.1680633"><ele>274.0</ele><time>2026-04-03T08:07:47.121Z</time></trkpt><trkpt lat="43.0905417" lon="12.1677967"><ele>274.0</ele><time>2026-04-03T08:07:48.12Z</time></trkpt><trkpt lat="43.0905833" lon="12.1675133"><ele>274.0</ele><time>2026-04-03T08:07:49.121Z</time></trkpt><trkpt lat="43.0906267" lon="12.1672133"><ele>274.0</ele><time>2026-04-03T08:07:50.12Z</time></trkpt><trkpt lat="43.090665" lon="12.1669083"><ele>276.66666666666663</ele><time>2026-04-03T08:07:51.12Z</time></trkpt><trkpt lat="43.0907067" lon="12.1666167"><ele>279.3333333333333</ele><time>2026-04-03T08:07:52.121Z</time></trkpt><trkpt lat="43.0907683" lon="12.1663483"><ele>282.0</ele><time>2026-04-03T08:07:53.12Z</time></trkpt><trkpt lat="43.09081" lon="12.166075"><ele>275.6666666666667</ele><time>2026-04-03T08:07:54.12Z</time></trkpt><trkpt lat="43.0908267" lon="12.1658133"><ele>269.33333333333337</ele><time>2026-04-03T08:07:55.12Z</time></trkpt><trkpt lat="43.0908033" lon="12.16557"><ele>263.0</ele><time>2026-04-03T08:07:56.12Z</time></trkpt><trkpt lat="43.0907667" lon="12.1653533"><ele>267.2</ele><time>2026-04-03T08:07:57.121Z</time></trkpt><trkpt lat="43.0907233" lon="12.1651567"><ele>271.4</ele><time>2026-04-03T08:07:58.121Z</time></trkpt><trkpt lat="43.0906767" lon="12.1650133"><ele>275.59999999999997</ele><time>2026-04-03T08:07:59.12Z</time></trkpt><trkpt lat="43.090635" lon="12.1649033"><ele>279.8</ele><time>2026-04-03T08:08:00.121Z</time></trkpt><trkpt lat="43.0905917" lon="12.1647933"><ele>284.0</ele><time>2026-04-03T08:08:02.12Z</time></trkpt><trkpt lat="43.0905683" lon="12.1646917"><ele>284.0</ele><time>2026-04-03T08:08:17.12Z</time></trkpt><trkpt lat="43.0905267" lon="12.16459"><ele>284.0</ele><time>2026-04-03T08:08:18.12Z</time></trkpt><trkpt lat="43.0904817" lon="12.16446"><ele>284.0</ele><time>2026-04-03T08:08:19.12Z</time></trkpt><trkpt lat="43.09042" lon="12.164305"><ele>284.0</ele><time>2026-04-03T08:08:20.12Z</time></trkpt><trkpt lat="43.0903333" lon="12.1641333"><ele>279.0</ele><time>2026-04-03T08:08:21.12Z</time></trkpt><trkpt lat="43.0902667" lon="12.163935"><ele>274.0</ele><time>2026-04-03T08:08:22.121Z</time></trkpt><trkpt lat="43.0902017" lon="12.1637333"><ele>269.0</ele><time>2026-04-03T08:08:23.121Z</time></trkpt><trkpt lat="43.0901167" lon="12.16353"><ele>269.0</ele><time>2026-04-03T08:08:24.12Z</time></trkpt><trkpt lat="43.0899967" lon="12.1633567"><ele>269.0</ele><time>2026-04-03T08:08:25.12Z</time></trkpt><trkpt lat="43.0898467" lon="12.1632033"><ele>269.0</ele><time>2026-04-03T08:08:26.12Z</time></trkpt><trkpt lat="43.08969" lon="12.16305"><ele>268.6666666666667</ele><time>2026-04-03T08:08:27.12Z</time></trkpt><trkpt lat="43.0895267" lon="12.162885"><ele>268.3333333333333</ele><time>2026-04-03T08:08:28.12Z</time></trkpt><trkpt lat="43.0893517" lon="12.16272"><ele>268.0</ele><time>2026-04-03T08:08:29.121Z</time></trkpt><trkpt lat="43.0891683" lon="12.16254"><ele>269.5</ele><time>2026-04-03T08:08:30.12Z</time></trkpt><trkpt lat="43.0889767" lon="12.1623617"><ele>271.0</ele><time>2026-04-03T08:08:31.119Z</time></trkpt><trkpt lat="43.0887817" lon="12.1621767"><ele>271.0</ele><time>2026-04-03T08:08:32.12Z</time></trkpt><trkpt lat="43.0885733" lon="12.1619917"><ele>271.0</ele><time>2026-04-03T08:08:33.12Z</time></trkpt><trkpt lat="43.0883733" lon="12.1617967"><ele>269.0</ele><time>2026-04-03T08:08:34.12Z</time></trkpt><trkpt lat="43.0881633" lon="12.1616"><ele>267.0</ele><time>2026-04-03T08:08:35.12Z</time></trkpt><trkpt lat="43.087945" lon="12.1614167"><ele>267.0</ele><time>2026-04-03T08:08:36.121Z</time></trkpt><trkpt lat="43.0877333" lon="12.16122"><ele>267.0</ele><time>2026-04-03T08:08:37.12Z</time></trkpt><trkpt lat="43.0875183" lon="12.16103"><ele>266.5</ele><time>2026-04-03T08:08:38.12Z</time></trkpt><trkpt lat="43.0873117" lon="12.1608417"><ele>266.0</ele><time>2026-04-03T08:08:39.12Z</time></trkpt><trkpt lat="43.08713" lon="12.1606583"><ele>266.0</ele><time>2026-04-03T08:08:40.12Z</time></trkpt><trkpt lat="43.0869783" lon="12.160495"><ele>266.0</ele><time>2026-04-03T08:08:41.12Z</time></trkpt><trkpt lat="43.086825" lon="12.16035"><ele>266.0</ele><time>2026-04-03T08:08:42.12Z</time></trkpt><trkpt lat="43.0866783" lon="12.1602183"><ele>266.6666666666667</ele><time>2026-04-03T08:08:43.121Z</time></trkpt><trkpt lat="43.0865267" lon="12.1601133"><ele>267.3333333333333</ele><time>2026-04-03T08:08:44.12Z</time></trkpt><trkpt lat="43.0863817" lon="12.16006"><ele>268.0</ele><time>2026-04-03T08:08:45.12Z</time></trkpt><trkpt lat="43.0862233" lon="12.1600417"><ele>268.0</ele><time>2026-04-03T08:08:46.12Z</time></trkpt><trkpt lat="43.0860633" lon="12.160105"><ele>268.0</ele><time>2026-04-03T08:08:47.121Z</time></trkpt><trkpt lat="43.0858817" lon="12.1601867"><ele>268.0</ele><time>2026-04-03T08:08:48.12Z</time></trkpt><trkpt lat="43.085715" lon="12.1602733"><ele>268.3333333333333</ele><time>2026-04-03T08:08:49.12Z</time></trkpt><trkpt lat="43.0855383" lon="12.1603267"><ele>268.6666666666667</ele><time>2026-04-03T08:08:50.12Z</time></trkpt><trkpt lat="43.0853617" lon="12.1603683"><ele>269.0</ele><time>2026-04-03T08:08:51.12Z</time></trkpt><trkpt lat="43.0851867" lon="12.16041"><ele>269.0</ele><time>2026-04-03T08:08:52.121Z</time></trkpt><trkpt lat="43.0850267" lon="12.1604267"><ele>269.0</ele><time>2026-04-03T08:08:53.12Z</time></trkpt><trkpt lat="43.08487" lon="12.1603833"><ele>269.0</ele><time>2026-04-03T08:08:54.12Z</time></trkpt><trkpt lat="43.0847217" lon="12.1602567"><ele>270.0</ele><time>2026-04-03T08:08:55.12Z</time></trkpt><trkpt lat="43.0845883" lon="12.1601017"><ele>271.0</ele><time>2026-04-03T08:08:56.12Z</time></trkpt><trkpt lat="43.08445" lon="12.1599367"><ele>272.0</ele><time>2026-04-03T08:08:57.121Z</time></trkpt><trkpt lat="43.0843067" lon="12.15977"><ele>272.0</ele><time>2026-04-03T08:08:58.121Z</time></trkpt><trkpt lat="43.0841617" lon="12.1595867"><ele>272.0</ele><time>2026-04-03T08:08:59.12Z</time></trkpt><trkpt lat="43.0840133" lon="12.1593967"><ele>272.0</ele><time>2026-04-03T08:09:00.12Z</time></trkpt><trkpt lat="43.0838567" lon="12.1592133"><ele>272.33333333333337</ele><time>2026-04-03T08:09:01.12Z</time></trkpt><trkpt lat="43.0837" lon="12.1590417"><ele>272.6666666666667</ele><time>2026-04-03T08:09:02.12Z</time></trkpt><trkpt lat="43.083555" lon="12.1588533"><ele>273.0</ele><time>2026-04-03T08:09:03.12Z</time></trkpt><trkpt lat="43.0834217" lon="12.1586683"><ele>272.6666666666667</ele><time>2026-04-03T08:09:04.12Z</time></trkpt><trkpt lat="43.08331" lon="12.1584417"><ele>272.33333333333337</ele><time>2026-04-03T08:09:05.12Z</time></trkpt><trkpt lat="43.0832117" lon="12.1582133"><ele>272.0</ele><time>2026-04-03T08:09:06.121Z</time></trkpt><trkpt lat="43.0831567" lon="12.15797"><ele>272.0</ele><time>2026-04-03T08:09:07.12Z</time></trkpt><trkpt lat="43.0831133" lon="12.1577417"><ele>272.0</ele><time>2026-04-03T08:09:08.12Z</time></trkpt><trkpt lat="43.0830667" lon="12.1575533"><ele>272.0</ele><time>2026-04-03T08:09:09.121Z</time></trkpt><trkpt lat="43.08301" lon="12.157385"><ele>271.4</ele><time>2026-04-03T08:09:10.121Z</time></trkpt><trkpt lat="43.0829617" lon="12.15723"><ele>270.79999999999995</ele><time>2026-04-03T08:09:11.12Z</time></trkpt><trkpt lat="43.0829167" lon="12.1570917"><ele>270.2</ele><time>2026-04-03T08:09:12.12Z</time></trkpt><trkpt lat="43.0828717" lon="12.1569517"><ele>269.59999999999997</ele><time>2026-04-03T08:09:13.121Z</time></trkpt><trkpt lat="43.0828267" lon="12.15683"><ele>269.0</ele><time>2026-04-03T08:09:14.12Z</time></trkpt><trkpt lat="43.0827767" lon="12.156675"><ele>268.75</ele><time>2026-04-03T08:09:15.12Z</time></trkpt><trkpt lat="43.08273" lon="12.1565117"><ele>268.5</ele><time>2026-04-03T08:09:16.12Z</time></trkpt><trkpt lat="43.082685" lon="12.1563367"><ele>268.25</ele><time>2026-04-03T08:09:17.12Z</time></trkpt><trkpt lat="43.0826367" lon="12.1561433"><ele>268.0</ele><time>2026-04-03T08:09:18.12Z</time></trkpt><trkpt lat="43.0825767" lon="12.1559483"><ele>268.0</ele><time>2026-04-03T08:09:19.12Z</time></trkpt><trkpt lat="43.0825317" lon="12.1557367"><ele>268.0</ele><time>2026-04-03T08:09:20.121Z</time></trkpt><trkpt lat="43.0824833" lon="12.1555217"><ele>268.0</ele><time>2026-04-03T08:09:21.121Z</time></trkpt><trkpt lat="43.0824217" lon="12.155295"><ele>268.66666666666663</ele><time>2026-04-03T08:09:22.121Z</time></trkpt><trkpt lat="43.08235" lon="12.1550717"><ele>269.3333333333333</ele><time>2026-04-03T08:09:23.121Z</time></trkpt><trkpt lat="43.0822817" lon="12.1548467"><ele>270.0</ele><time>2026-04-03T08:09:24.12Z</time></trkpt><trkpt lat="43.0822067" lon="12.1546233"><ele>270.0</ele><time>2026-04-03T08:09:25.12Z</time></trkpt><trkpt lat="43.0821367" lon="12.1543867"><ele>270.0</ele><time>2026-04-03T08:09:26.12Z</time></trkpt><trkpt lat="43.0820717" lon="12.1541683"><ele>270.0</ele><time>2026-04-03T08:09:27.12Z</time></trkpt><trkpt lat="43.082005" lon="12.1539583"><ele>269.3333333333333</ele><time>2026-04-03T08:09:28.12Z</time></trkpt><trkpt lat="43.0819417" lon="12.153745"><ele>268.66666666666663</ele><time>2026-04-03T08:09:29.12Z</time></trkpt><trkpt lat="43.0818883" lon="12.153545"><ele>268.0</ele><time>2026-04-03T08:09:30.12Z</time></trkpt><trkpt lat="43.0818433" lon="12.15335"><ele>267.66666666666663</ele><time>2026-04-03T08:09:31.12Z</time></trkpt><trkpt lat="43.081805" lon="12.1531433"><ele>267.3333333333333</ele><time>2026-04-03T08:09:32.121Z</time></trkpt><trkpt lat="43.08177" lon="12.15293"><ele>267.0</ele><time>2026-04-03T08:09:33.12Z</time></trkpt><trkpt lat="43.0817483" lon="12.1527083"><ele>267.0</ele><time>2026-04-03T08:09:34.12Z</time></trkpt><trkpt lat="43.0817333" lon="12.1524783"><ele>267.0</ele><time>2026-04-03T08:09:35.12Z</time></trkpt><trkpt lat="43.08174" lon="12.1522283"><ele>267.0</ele><time>2026-04-03T08:09:36.121Z</time></trkpt><trkpt lat="43.0817467" lon="12.15199"><ele>266.6666666666667</ele><time>2026-04-03T08:09:37.121Z</time></trkpt><trkpt lat="43.081765" lon="12.1517483"><ele>266.33333333333337</ele><time>2026-04-03T08:09:38.12Z</time></trkpt><trkpt lat="43.081785" lon="12.1515033"><ele>266.0</ele><time>2026-04-03T08:09:39.12Z</time></trkpt><trkpt lat="43.0818033" lon="12.15126"><ele>266.0</ele><time>2026-04-03T08:09:40.12Z</time></trkpt><trkpt lat="43.0818267" lon="12.1510217"><ele>266.0</ele><time>2026-04-03T08:09:41.12Z</time></trkpt><trkpt lat="43.0818517" lon="12.1507683"><ele>266.0</ele><time>2026-04-03T08:09:42.121Z</time></trkpt><trkpt lat="43.081875" lon="12.1504983"><ele>265.6666666666667</ele><time>2026-04-03T08:09:43.12Z</time></trkpt><trkpt lat="43.0818917" lon="12.1502383"><ele>265.3333333333333</ele><time>2026-04-03T08:09:44.12Z</time></trkpt><trkpt lat="43.0819033" lon="12.1499817"><ele>265.0</ele><time>2026-04-03T08:09:45.12Z</time></trkpt><trkpt lat="43.081915" lon="12.14973"><ele>265.0</ele><time>2026-04-03T08:09:46.121Z</time></trkpt><trkpt lat="43.081925" lon="12.14949"><ele>265.0</ele><time>2026-04-03T08:09:47.121Z</time></trkpt><trkpt lat="43.0819333" lon="12.1492567"><ele>265.0</ele><time>2026-04-03T08:09:48.12Z</time></trkpt><trkpt lat="43.0819483" lon="12.149035"><ele>265.0</ele><time>2026-04-03T08:09:49.12Z</time></trkpt><trkpt lat="43.0819683" lon="12.1488183"><ele>265.0</ele><time>2026-04-03T08:09:50.121Z</time></trkpt><trkpt lat="43.0819883" lon="12.14862"><ele>265.0</ele><time>2026-04-03T08:09:51.121Z</time></trkpt><trkpt lat="43.082005" lon="12.1484783"><ele>265.0</ele><time>2026-04-03T08:09:52.12Z</time></trkpt><trkpt lat="43.0820217" lon="12.14836"><ele>265.0</ele><time>2026-04-03T08:09:53.12Z</time></trkpt><trkpt lat="43.08203" lon="12.1482683"><ele>265.0</ele><time>2026-04-03T08:09:54.121Z</time></trkpt><trkpt lat="43.082035" lon="12.1481183"><ele>265.0</ele><time>2026-04-03T08:09:56.12Z</time></trkpt><trkpt lat="43.0819867" lon="12.1482783"><ele>265.0</ele><time>2026-04-03T08:10:01.121Z</time></trkpt><trkpt lat="43.0819817" lon="12.1484267"><ele>265.0</ele><time>2026-04-03T08:10:02.121Z</time></trkpt><trkpt lat="43.0819783" lon="12.1485833"><ele>265.0</ele><time>2026-04-03T08:10:03.12Z</time></trkpt><trkpt lat="43.0819733" lon="12.1487133"><ele>265.0</ele><time>2026-04-03T08:10:04.121Z</time></trkpt><trkpt lat="43.0819633" lon="12.1488067"><ele>265.0</ele><time>2026-04-03T08:10:05.12Z</time></trkpt><trkpt lat="43.0818883" lon="12.1489267"><ele>265.0</ele><time>2026-04-03T08:10:07.12Z</time></trkpt><trkpt lat="43.08182" lon="12.1489633"><ele>265.0</ele><time>2026-04-03T08:10:08.12Z</time></trkpt><trkpt lat="43.0817233" lon="12.1490033"><ele>265.0</ele><time>2026-04-03T08:10:09.12Z</time></trkpt><trkpt lat="43.08162" lon="12.1490417"><ele>265.0</ele><time>2026-04-03T08:10:10.121Z</time></trkpt><trkpt lat="43.081505" lon="12.1490633"><ele>265.0</ele><time>2026-04-03T08:10:11.12Z</time></trkpt><trkpt lat="43.081385" lon="12.1490933"><ele>265.0</ele><time>2026-04-03T08:10:12.12Z</time></trkpt><trkpt lat="43.0812583" lon="12.1490983"><ele>265.25</ele><time>2026-04-03T08:10:13.12Z</time></trkpt><trkpt lat="43.081135" lon="12.149085"><ele>265.5</ele><time>2026-04-03T08:10:14.12Z</time></trkpt><trkpt lat="43.0810283" lon="12.1490467"><ele>265.75</ele><time>2026-04-03T08:10:15.12Z</time></trkpt><trkpt lat="43.0809283" lon="12.1489867"><ele>266.0</ele><time>2026-04-03T08:10:16.121Z</time></trkpt><trkpt lat="43.080835" lon="12.148915"><ele>267.0</ele><time>2026-04-03T08:10:17.12Z</time></trkpt><trkpt lat="43.08074" lon="12.14882"><ele>268.0</ele><time>2026-04-03T08:10:18.121Z</time></trkpt><trkpt lat="43.08066" lon="12.1487483"><ele>269.0</ele><time>2026-04-03T08:10:19.12Z</time></trkpt><trkpt lat="43.0805883" lon="12.1486933"><ele>270.0</ele><time>2026-04-03T08:10:20.12Z</time></trkpt><trkpt lat="43.0804883" lon="12.1486417"><ele>271.0</ele><time>2026-04-03T08:10:22.12Z</time></trkpt><trkpt lat="43.0803967" lon="12.14865"><ele>271.0</ele><time>2026-04-03T08:10:24.12Z</time></trkpt><trkpt lat="43.0803283" lon="12.1486583"><ele>271.0</ele><time>2026-04-03T08:10:26.121Z</time></trkpt><trkpt lat="43.0802767" lon="12.148565"><ele>271.0</ele><time>2026-04-03T08:10:33.12Z</time></trkpt><trkpt lat="43.0802183" lon="12.1484717"><ele>271.0</ele><time>2026-04-03T08:10:35.121Z</time></trkpt><trkpt lat="43.0801433" lon="12.1484767"><ele>271.0</ele><time>2026-04-03T08:10:36.121Z</time></trkpt><trkpt lat="43.08007" lon="12.1484767"><ele>271.0</ele><time>2026-04-03T08:10:37.121Z</time></trkpt><trkpt lat="43.0798933" lon="12.148525"><ele>271.40000000000003</ele><time>2026-04-03T08:10:39.12Z</time></trkpt><trkpt lat="43.0797917" lon="12.148545"><ele>271.8</ele><time>2026-04-03T08:10:40.12Z</time></trkpt><trkpt lat="43.0797" lon="12.1485583"><ele>272.20000000000005</ele><time>2026-04-03T08:10:41.12Z</time></trkpt><trkpt lat="43.0795967" lon="12.14856"><ele>272.6</ele><time>2026-04-03T08:10:42.12Z</time></trkpt><trkpt lat="43.0794867" lon="12.1485683"><ele>273.0</ele><time>2026-04-03T08:10:43.12Z</time></trkpt><trkpt lat="43.079375" lon="12.1485883"><ele>273.0</ele><time>2026-04-03T08:10:44.12Z</time></trkpt><trkpt lat="43.0792617" lon="12.1486133"><ele>273.0</ele><time>2026-04-03T08:10:45.12Z</time></trkpt><trkpt lat="43.0791533" lon="12.1486417"><ele>273.0</ele><time>2026-04-03T08:10:46.12Z</time></trkpt><trkpt lat="43.0790417" lon="12.1486733"><ele>273.0</ele><time>2026-04-03T08:10:47.12Z</time></trkpt><trkpt lat="43.07893" lon="12.1487033"><ele>273.5</ele><time>2026-04-03T08:10:48.12Z</time></trkpt><trkpt lat="43.078815" lon="12.1487267"><ele>274.0</ele><time>2026-04-03T08:10:49.12Z</time></trkpt><trkpt lat="43.0786933" lon="12.14875"><ele>274.5</ele><time>2026-04-03T08:10:50.12Z</time></trkpt><trkpt lat="43.0785733" lon="12.1487717"><ele>275.0</ele><time>2026-04-03T08:10:51.12Z</time></trkpt><trkpt lat="43.0784433" lon="12.14879"><ele>275.0</ele><time>2026-04-03T08:10:52.121Z</time></trkpt><trkpt lat="43.0782917" lon="12.14883"><ele>275.0</ele><time>2026-04-03T08:10:53.12Z</time></trkpt><trkpt lat="43.07814" lon="12.14887"><ele>275.0</ele><time>2026-04-03T08:10:54.121Z</time></trkpt><trkpt lat="43.0779833" lon="12.1489283"><ele>275.0</ele><time>2026-04-03T08:10:55.12Z</time></trkpt><trkpt lat="43.0778217" lon="12.14899"><ele>275.0</ele><time>2026-04-03T08:10:56.12Z</time></trkpt><trkpt lat="43.0776567" lon="12.1490367"><ele>275.0</ele><time>2026-04-03T08:10:57.12Z</time></trkpt><trkpt lat="43.077495" lon="12.1490733"><ele>275.6666666666667</ele><time>2026-04-03T08:10:58.12Z</time></trkpt><trkpt lat="43.07733" lon="12.149095"><ele>276.3333333333333</ele><time>2026-04-03T08:10:59.12Z</time></trkpt><trkpt lat="43.0771683" lon="12.1491267"><ele>277.0</ele><time>2026-04-03T08:11:00.12Z</time></trkpt><trkpt lat="43.07699" lon="12.1491567"><ele>277.0</ele><time>2026-04-03T08:11:01.121Z</time></trkpt><trkpt lat="43.07682" lon="12.1491717"><ele>277.0</ele><time>2026-04-03T08:11:02.12Z</time></trkpt><trkpt lat="43.0766533" lon="12.149215"><ele>277.0</ele><time>2026-04-03T08:11:03.12Z</time></trkpt><trkpt lat="43.076475" lon="12.1492817"><ele>277.66666666666663</ele><time>2026-04-03T08:11:04.12Z</time></trkpt><trkpt lat="43.0762967" lon="12.1493783"><ele>278.3333333333333</ele><time>2026-04-03T08:11:05.12Z</time></trkpt><trkpt lat="43.0761117" lon="12.149475"><ele>279.0</ele><time>2026-04-03T08:11:06.12Z</time></trkpt><trkpt lat="43.07592" lon="12.1495833"><ele>279.3333333333333</ele><time>2026-04-03T08:11:07.121Z</time></trkpt><trkpt lat="43.0757233" lon="12.14968"><ele>279.66666666666663</ele><time>2026-04-03T08:11:08.121Z</time></trkpt><trkpt lat="43.07552" lon="12.149785"><ele>280.0</ele><time>2026-04-03T08:11:09.12Z</time></trkpt><trkpt lat="43.07532" lon="12.1498817"><ele>280.0</ele><time>2026-04-03T08:11:10.12Z</time></trkpt><trkpt lat="43.0751217" lon="12.1499733"><ele>280.0</ele><time>2026-04-03T08:11:11.12Z</time></trkpt><trkpt lat="43.0749517" lon="12.1500567"><ele>280.0</ele><time>2026-04-03T08:11:12.12Z</time></trkpt><trkpt lat="43.074775" lon="12.1501367"><ele>284.0</ele><time>2026-04-03T08:11:13.12Z</time></trkpt><trkpt lat="43.0746267" lon="12.15023"><ele>288.0</ele><time>2026-04-03T08:11:14.12Z</time></trkpt><trkpt lat="43.0744933" lon="12.150335"><ele>292.0</ele><time>2026-04-03T08:11:15.12Z</time></trkpt><trkpt lat="43.0743833" lon="12.150455"><ele>292.0</ele><time>2026-04-03T08:11:16.121Z</time></trkpt><trkpt lat="43.074275" lon="12.1505633"><ele>292.0</ele><time>2026-04-03T08:11:17.12Z</time></trkpt><trkpt lat="43.074165" lon="12.15067"><ele>292.0</ele><time>2026-04-03T08:11:18.12Z</time></trkpt><trkpt lat="43.07404" lon="12.1507567"><ele>292.0</ele><time>2026-04-03T08:11:19.12Z</time></trkpt><trkpt lat="43.0738933" lon="12.1508367"><ele>292.75</ele><time>2026-04-03T08:11:20.12Z</time></trkpt><trkpt lat="43.073735" lon="12.15091"><ele>293.5</ele><time>2026-04-03T08:11:21.12Z</time></trkpt><trkpt lat="43.07359" lon="12.15097"><ele>294.25</ele><time>2026-04-03T08:11:22.121Z</time></trkpt><trkpt lat="43.07347" lon="12.1510217"><ele>295.0</ele><time>2026-04-03T08:11:23.121Z</time></trkpt><trkpt lat="43.073375" lon="12.1510917"><ele>295.0</ele><time>2026-04-03T08:11:24.121Z</time></trkpt><trkpt lat="43.0732983" lon="12.1512017"><ele>295.0</ele><time>2026-04-03T08:11:25.12Z</time></trkpt><trkpt lat="43.0732433" lon="12.15133"><ele>295.0</ele><time>2026-04-03T08:11:26.12Z</time></trkpt><trkpt lat="43.0732" lon="12.1514767"><ele>295.0</ele><time>2026-04-03T08:11:27.12Z</time></trkpt><trkpt lat="43.07314" lon="12.151625"><ele>296.16666666666663</ele><time>2026-04-03T08:11:28.12Z</time></trkpt><trkpt lat="43.0730717" lon="12.1517583"><ele>297.3333333333333</ele><time>2026-04-03T08:11:29.12Z</time></trkpt><trkpt lat="43.0729967" lon="12.1518267"><ele>298.5</ele><time>2026-04-03T08:11:30.12Z</time></trkpt><trkpt lat="43.072915" lon="12.1518667"><ele>299.6666666666667</ele><time>2026-04-03T08:11:31.12Z</time></trkpt><trkpt lat="43.0728367" lon="12.151885"><ele>300.83333333333337</ele><time>2026-04-03T08:11:32.12Z</time></trkpt><trkpt lat="43.0727683" lon="12.1518817"><ele>302.0</ele><time>2026-04-03T08:11:33.12Z</time></trkpt><trkpt lat="43.0727083" lon="12.151775"><ele>302.0</ele><time>2026-04-03T08:11:35.12Z</time></trkpt><trkpt lat="43.0727" lon="12.151665"><ele>302.0</ele><time>2026-04-03T08:11:36.12Z</time></trkpt><trkpt lat="43.0727" lon="12.1515417"><ele>302.0</ele><time>2026-04-03T08:11:37.121Z</time></trkpt><trkpt lat="43.0726883" lon="12.1514267"><ele>302.0</ele><time>2026-04-03T08:11:38.12Z</time></trkpt><trkpt lat="43.07265" lon="12.1513367"><ele>302.0</ele><time>2026-04-03T08:11:39.12Z</time></trkpt><trkpt lat="43.07259" lon="12.15128"><ele>302.0</ele><time>2026-04-03T08:11:40.12Z</time></trkpt><trkpt lat="43.072525" lon="12.151255"><ele>302.33333333333337</ele><time>2026-04-03T08:11:41.12Z</time></trkpt><trkpt lat="43.072455" lon="12.1512733"><ele>302.6666666666667</ele><time>2026-04-03T08:11:42.121Z</time></trkpt><trkpt lat="43.0723917" lon="12.1513233"><ele>303.0</ele><time>2026-04-03T08:11:43.12Z</time></trkpt><trkpt lat="43.0723383" lon="12.1514033"><ele>303.3333333333333</ele><time>2026-04-03T08:11:44.12Z</time></trkpt><trkpt lat="43.0723067" lon="12.1515167"><ele>303.66666666666663</ele><time>2026-04-03T08:11:45.121Z</time></trkpt><trkpt lat="43.0722817" lon="12.1516317"><ele>304.0</ele><time>2026-04-03T08:11:46.12Z</time></trkpt><trkpt lat="43.0722217" lon="12.1517433"><ele>305.8</ele><time>2026-04-03T08:11:48.121Z</time></trkpt><trkpt lat="43.072145" lon="12.1516567"><ele>307.59999999999997</ele><time>2026-04-03T08:11:50.121Z</time></trkpt><trkpt lat="43.0721317" lon="12.1515683"><ele>309.4</ele><time>2026-04-03T08:11:51.12Z</time></trkpt><trkpt lat="43.0721217" lon="12.1514667"><ele>311.2</ele><time>2026-04-03T08:11:52.121Z</time></trkpt><trkpt lat="43.072065" lon="12.1513333"><ele>313.0</ele><time>2026-04-03T08:11:54.12Z</time></trkpt><trkpt lat="43.07195" lon="12.1513117"><ele>313.0</ele><time>2026-04-03T08:11:56.121Z</time></trkpt><trkpt lat="43.071885" lon="12.1513617"><ele>313.0</ele><time>2026-04-03T08:11:57.121Z</time></trkpt><trkpt lat="43.071835" lon="12.1514483"><ele>313.0</ele><time>2026-04-03T08:11:58.12Z</time></trkpt><trkpt lat="43.0717867" lon="12.1515517"><ele>313.0</ele><time>2026-04-03T08:11:59.12Z</time></trkpt><trkpt lat="43.0717167" lon="12.151655"><ele>313.0</ele><time>2026-04-03T08:12:00.12Z</time></trkpt><trkpt lat="43.0716217" lon="12.15175"><ele>317.0</ele><time>2026-04-03T08:12:01.12Z</time></trkpt><trkpt lat="43.0715017" lon="12.1518233"><ele>321.0</ele><time>2026-04-03T08:12:02.121Z</time></trkpt><trkpt lat="43.071355" lon="12.1518883"><ele>325.0</ele><time>2026-04-03T08:12:03.121Z</time></trkpt><trkpt lat="43.071205" lon="12.1519567"><ele>329.0</ele><time>2026-04-03T08:12:04.12Z</time></trkpt><trkpt lat="43.0710567" lon="12.1520117"><ele>329.0</ele><time>2026-04-03T08:12:05.12Z</time></trkpt><trkpt lat="43.070905" lon="12.152055"><ele>329.0</ele><time>2026-04-03T08:12:06.12Z</time></trkpt><trkpt lat="43.0707467" lon="12.1520833"><ele>329.0</ele><time>2026-04-03T08:12:07.121Z</time></trkpt><trkpt lat="43.07058" lon="12.15209"><ele>333.0</ele><time>2026-04-03T08:12:08.121Z</time></trkpt><trkpt lat="43.0704033" lon="12.152095"><ele>337.0</ele><time>2026-04-03T08:12:09.121Z</time></trkpt><trkpt lat="43.0702167" lon="12.1521117"><ele>341.0</ele><time>2026-04-03T08:12:10.12Z</time></trkpt><trkpt lat="43.070045" lon="12.1521117"><ele>342.25</ele><time>2026-04-03T08:12:11.12Z</time></trkpt><trkpt lat="43.06989" lon="12.15211"><ele>343.5</ele><time>2026-04-03T08:12:12.12Z</time></trkpt><trkpt lat="43.0697517" lon="12.1521067"><ele>344.75</ele><time>2026-04-03T08:12:13.12Z</time></trkpt><trkpt lat="43.069625" lon="12.1520833"><ele>346.0</ele><time>2026-04-03T08:12:14.12Z</time></trkpt><trkpt lat="43.069505" lon="12.1520283"><ele>346.0</ele><time>2026-04-03T08:12:15.121Z</time></trkpt><trkpt lat="43.069375" lon="12.15194"><ele>346.0</ele><time>2026-04-03T08:12:16.12Z</time></trkpt><trkpt lat="43.0692533" lon="12.1518267"><ele>346.0</ele><time>2026-04-03T08:12:17.12Z</time></trkpt><trkpt lat="43.0691617" lon="12.1517183"><ele>346.0</ele><time>2026-04-03T08:12:18.12Z</time></trkpt><trkpt lat="43.0691017" lon="12.1516283"><ele>346.0</ele><time>2026-04-03T08:12:19.12Z</time></trkpt><trkpt lat="43.0690717" lon="12.1514917"><ele>346.0</ele><time>2026-04-03T08:12:21.12Z</time></trkpt><trkpt lat="43.069165" lon="12.1514283"><ele>346.0</ele><time>2026-04-03T08:12:23.12Z</time></trkpt><trkpt lat="43.069255" lon="12.151455"><ele>346.0</ele><time>2026-04-03T08:12:24.12Z</time></trkpt><trkpt lat="43.0693733" lon="12.1515"><ele>346.0</ele><time>2026-04-03T08:12:25.121Z</time></trkpt><trkpt lat="43.0694917" lon="12.1515583"><ele>346.0</ele><time>2026-04-03T08:12:26.12Z</time></trkpt><trkpt lat="43.0695933" lon="12.151605"><ele>346.0</ele><time>2026-04-03T08:12:27.12Z</time></trkpt><trkpt lat="43.0696833" lon="12.1516067"><ele>346.0</ele><time>2026-04-03T08:12:28.12Z</time></trkpt><trkpt lat="43.0697533" lon="12.1515817"><ele>346.0</ele><time>2026-04-03T08:12:29.12Z</time></trkpt><trkpt lat="43.0697917" lon="12.1514267"><ele>346.0</ele><time>2026-04-03T08:12:31.121Z</time></trkpt><trkpt lat="43.0697283" lon="12.1513017"><ele>347.6</ele><time>2026-04-03T08:12:33.12Z</time></trkpt><trkpt lat="43.06966" lon="12.1512683"><ele>349.20000000000005</ele><time>2026-04-03T08:12:34.12Z</time></trkpt><trkpt lat="43.0695817" lon="12.1512433"><ele>350.79999999999995</ele><time>2026-04-03T08:12:35.12Z</time></trkpt><trkpt lat="43.0694767" lon="12.1512067"><ele>352.4</ele><time>2026-04-03T08:12:36.121Z</time></trkpt><trkpt lat="43.0693733" lon="12.151135"><ele>354.0</ele><time>2026-04-03T08:12:37.12Z</time></trkpt><trkpt lat="43.0692617" lon="12.1510733"><ele>354.0</ele><time>2026-04-03T08:12:38.12Z</time></trkpt><trkpt lat="43.06913" lon="12.1510267"><ele>354.0</ele><time>2026-04-03T08:12:39.12Z</time></trkpt><trkpt lat="43.069" lon="12.151015"><ele>354.0</ele><time>2026-04-03T08:12:40.12Z</time></trkpt><trkpt lat="43.0688333" lon="12.151015"><ele>354.0</ele><time>2026-04-03T08:12:41.12Z</time></trkpt><trkpt lat="43.0686617" lon="12.1510633"><ele>358.3333333333333</ele><time>2026-04-03T08:12:42.12Z</time></trkpt><trkpt lat="43.06849" lon="12.1511067"><ele>362.66666666666663</ele><time>2026-04-03T08:12:43.12Z</time></trkpt><trkpt lat="43.0683133" lon="12.151145"><ele>367.0</ele><time>2026-04-03T08:12:44.121Z</time></trkpt><trkpt lat="43.068125" lon="12.1511883"><ele>370.66666666666663</ele><time>2026-04-03T08:12:45.12Z</time></trkpt><trkpt lat="43.0679483" lon="12.1512217"><ele>374.3333333333333</ele><time>2026-04-03T08:12:46.12Z</time></trkpt><trkpt lat="43.0677883" lon="12.1512467"><ele>378.0</ele><time>2026-04-03T08:12:47.12Z</time></trkpt><trkpt lat="43.0676383" lon="12.1512667"><ele>378.0</ele><time>2026-04-03T08:12:48.12Z</time></trkpt><trkpt lat="43.0675" lon="12.1512767"><ele>378.0</ele><time>2026-04-03T08:12:49.12Z</time></trkpt><trkpt lat="43.0673733" lon="12.1512883"><ele>378.0</ele><time>2026-04-03T08:12:50.12Z</time></trkpt><trkpt lat="43.067255" lon="12.1513"><ele>378.0</ele><time>2026-04-03T08:12:51.12Z</time></trkpt><trkpt lat="43.0671517" lon="12.1513083"><ele>376.59999999999997</ele><time>2026-04-03T08:12:52.12Z</time></trkpt><trkpt lat="43.0670567" lon="12.1513117"><ele>375.2</ele><time>2026-04-03T08:12:53.12Z</time></trkpt><trkpt lat="43.0669617" lon="12.1512833"><ele>373.8</ele><time>2026-04-03T08:12:54.121Z</time></trkpt><trkpt lat="43.06687" lon="12.15123"><ele>372.4</ele><time>2026-04-03T08:12:55.12Z</time></trkpt><trkpt lat="43.066775" lon="12.151165"><ele>371.0</ele><time>2026-04-03T08:12:56.12Z</time></trkpt><trkpt lat="43.0666883" lon="12.1510683"><ele>371.25</ele><time>2026-04-03T08:12:57.12Z</time></trkpt><trkpt lat="43.0666067" lon="12.1509367"><ele>371.5</ele><time>2026-04-03T08:12:58.12Z</time></trkpt><trkpt lat="43.066545" lon="12.1507633"><ele>371.75</ele><time>2026-04-03T08:12:59.12Z</time></trkpt><trkpt lat="43.06649" lon="12.1505783"><ele>372.0</ele><time>2026-04-03T08:13:00.121Z</time></trkpt><trkpt lat="43.06642" lon="12.1504267"><ele>372.0</ele><time>2026-04-03T08:13:01.12Z</time></trkpt><trkpt lat="43.0663367" lon="12.1503033"><ele>372.0</ele><time>2026-04-03T08:13:02.12Z</time></trkpt><trkpt lat="43.0662167" lon="12.15026"><ele>372.0</ele><time>2026-04-03T08:13:03.12Z</time></trkpt><trkpt lat="43.0660783" lon="12.1502367"><ele>372.0</ele><time>2026-04-03T08:13:04.121Z</time></trkpt><trkpt lat="43.06592" lon="12.1501667"><ele>372.0</ele><time>2026-04-03T08:13:05.12Z</time></trkpt><trkpt lat="43.0657717" lon="12.1500817"><ele>372.0</ele><time>2026-04-03T08:13:06.12Z</time></trkpt><trkpt lat="43.0656267" lon="12.15006"><ele>372.0</ele><time>2026-04-03T08:13:07.12Z</time></trkpt><trkpt lat="43.0654767" lon="12.1501083"><ele>372.0</ele><time>2026-04-03T08:13:08.121Z</time></trkpt><trkpt lat="43.065325" lon="12.150175"><ele>372.0</ele><time>2026-04-03T08:13:09.12Z</time></trkpt><trkpt lat="43.065175" lon="12.1502133"><ele>372.0</ele><time>2026-04-03T08:13:10.12Z</time></trkpt><trkpt lat="43.0650333" lon="12.1502417"><ele>370.25</ele><time>2026-04-03T08:13:11.12Z</time></trkpt><trkpt lat="43.064905" lon="12.1502367"><ele>368.5</ele><time>2026-04-03T08:13:12.12Z</time></trkpt><trkpt lat="43.064755" lon="12.1502083"><ele>366.75</ele><time>2026-04-03T08:13:13.12Z</time></trkpt><trkpt lat="43.0645983" lon="12.150145"><ele>365.0</ele><time>2026-04-03T08:13:14.12Z</time></trkpt><trkpt lat="43.0644533" lon="12.15009"><ele>365.0</ele><time>2026-04-03T08:13:15.12Z</time></trkpt><trkpt lat="43.06431" lon="12.1500767"><ele>365.0</ele><time>2026-04-03T08:13:16.121Z</time></trkpt><trkpt lat="43.064155" lon="12.1500583"><ele>365.0</ele><time>2026-04-03T08:13:17.12Z</time></trkpt><trkpt lat="43.0640117" lon="12.1499983"><ele>365.0</ele><time>2026-04-03T08:13:18.12Z</time></trkpt><trkpt lat="43.0638617" lon="12.1499267"><ele>368.6666666666667</ele><time>2026-04-03T08:13:19.12Z</time></trkpt><trkpt lat="43.0637" lon="12.14986"><ele>372.3333333333333</ele><time>2026-04-03T08:13:20.121Z</time></trkpt><trkpt lat="43.06354" lon="12.1498383"><ele>376.0</ele><time>2026-04-03T08:13:21.12Z</time></trkpt><trkpt lat="43.063375" lon="12.1498083"><ele>372.66666666666663</ele><time>2026-04-03T08:13:22.121Z</time></trkpt><trkpt lat="43.063195" lon="12.149765"><ele>369.3333333333333</ele><time>2026-04-03T08:13:23.12Z</time></trkpt><trkpt lat="43.0630083" lon="12.1496633"><ele>366.0</ele><time>2026-04-03T08:13:24.121Z</time></trkpt><trkpt lat="43.0628183" lon="12.1495633"><ele>366.0</ele><time>2026-04-03T08:13:25.12Z</time></trkpt><trkpt lat="43.0626267" lon="12.149475"><ele>366.0</ele><time>2026-04-03T08:13:26.12Z</time></trkpt><trkpt lat="43.06244" lon="12.1494233"><ele>366.0</ele><time>2026-04-03T08:13:27.121Z</time></trkpt><trkpt lat="43.0622483" lon="12.1494183"><ele>365.3333333333333</ele><time>2026-04-03T08:13:28.12Z</time></trkpt><trkpt lat="43.0620583" lon="12.1494083"><ele>364.66666666666663</ele><time>2026-04-03T08:13:29.12Z</time></trkpt><trkpt lat="43.0618567" lon="12.149405"><ele>364.0</ele><time>2026-04-03T08:13:30.12Z</time></trkpt><trkpt lat="43.0616433" lon="12.1494183"><ele>362.3333333333333</ele><time>2026-04-03T08:13:31.119Z</time></trkpt><trkpt lat="43.061425" lon="12.149405"><ele>360.6666666666667</ele><time>2026-04-03T08:13:32.119Z</time></trkpt><trkpt lat="43.0612267" lon="12.1493883"><ele>359.0</ele><time>2026-04-03T08:13:33.119Z</time></trkpt><trkpt lat="43.0610467" lon="12.1493783"><ele>359.0</ele><time>2026-04-03T08:13:34.119Z</time></trkpt><trkpt lat="43.06088" lon="12.149355"><ele>359.0</ele><time>2026-04-03T08:13:35.119Z</time></trkpt><trkpt lat="43.0606883" lon="12.1493333"><ele>359.0</ele><time>2026-04-03T08:13:36.12Z</time></trkpt><trkpt lat="43.0604983" lon="12.1493167"><ele>355.0</ele><time>2026-04-03T08:13:37.12Z</time></trkpt><trkpt lat="43.0603183" lon="12.1492667"><ele>351.0</ele><time>2026-04-03T08:13:38.119Z</time></trkpt><trkpt lat="43.06016" lon="12.1492317"><ele>347.0</ele><time>2026-04-03T08:13:39.12Z</time></trkpt><trkpt lat="43.0600333" lon="12.1491683"><ele>344.0</ele><time>2026-04-03T08:13:40.12Z</time></trkpt><trkpt lat="43.05991" lon="12.1490833"><ele>341.0</ele><time>2026-04-03T08:13:41.119Z</time></trkpt><trkpt lat="43.059805" lon="12.1489667"><ele>338.0</ele><time>2026-04-03T08:13:42.119Z</time></trkpt><trkpt lat="43.0597267" lon="12.1488283"><ele>335.0</ele><time>2026-04-03T08:13:43.119Z</time></trkpt><trkpt lat="43.0596567" lon="12.1486683"><ele>335.0</ele><time>2026-04-03T08:13:44.119Z</time></trkpt><trkpt lat="43.0595883" lon="12.1484933"><ele>335.0</ele><time>2026-04-03T08:13:45.119Z</time></trkpt><trkpt lat="43.0595267" lon="12.1483"><ele>335.0</ele><time>2026-04-03T08:13:46.119Z</time></trkpt><trkpt lat="43.059485" lon="12.148125"><ele>335.0</ele><time>2026-04-03T08:13:47.12Z</time></trkpt><trkpt lat="43.0594617" lon="12.1479367"><ele>335.75</ele><time>2026-04-03T08:13:48.12Z</time></trkpt><trkpt lat="43.0594433" lon="12.1477467"><ele>336.5</ele><time>2026-04-03T08:13:49.119Z</time></trkpt><trkpt lat="43.0594117" lon="12.147555"><ele>337.25</ele><time>2026-04-03T08:13:50.119Z</time></trkpt><trkpt lat="43.0593567" lon="12.1473767"><ele>338.0</ele><time>2026-04-03T08:13:51.119Z</time></trkpt><trkpt lat="43.0592917" lon="12.1471867"><ele>338.33333333333337</ele><time>2026-04-03T08:13:52.119Z</time></trkpt><trkpt lat="43.0592533" lon="12.147"><ele>338.6666666666667</ele><time>2026-04-03T08:13:53.12Z</time></trkpt><trkpt lat="43.0592283" lon="12.14679"><ele>339.0</ele><time>2026-04-03T08:13:54.119Z</time></trkpt><trkpt lat="43.0592133" lon="12.1465733"><ele>339.0</ele><time>2026-04-03T08:13:55.119Z</time></trkpt><trkpt lat="43.0592133" lon="12.1463633"><ele>339.0</ele><time>2026-04-03T08:13:56.119Z</time></trkpt><trkpt lat="43.0592417" lon="12.1461733"><ele>339.0</ele><time>2026-04-03T08:13:57.119Z</time></trkpt><trkpt lat="43.059305" lon="12.14604"><ele>339.0</ele><time>2026-04-03T08:13:58.12Z</time></trkpt><trkpt lat="43.0593833" lon="12.1459417"><ele>339.0</ele><time>2026-04-03T08:13:59.119Z</time></trkpt><trkpt lat="43.0594783" lon="12.1458417"><ele>339.0</ele><time>2026-04-03T08:14:00.119Z</time></trkpt><trkpt lat="43.05958" lon="12.1457317"><ele>339.0</ele><time>2026-04-03T08:14:01.119Z</time></trkpt><trkpt lat="43.05969" lon="12.1456233"><ele>339.0</ele><time>2026-04-03T08:14:02.119Z</time></trkpt><trkpt lat="43.0598017" lon="12.1455117"><ele>340.3333333333333</ele><time>2026-04-03T08:14:03.119Z</time></trkpt><trkpt lat="43.05991" lon="12.14539"><ele>341.66666666666663</ele><time>2026-04-03T08:14:04.119Z</time></trkpt><trkpt lat="43.0600367" lon="12.14527"><ele>343.0</ele><time>2026-04-03T08:14:05.119Z</time></trkpt><trkpt lat="43.0601733" lon="12.1451517"><ele>343.0</ele><time>2026-04-03T08:14:06.119Z</time></trkpt><trkpt lat="43.060315" lon="12.1450433"><ele>343.0</ele><time>2026-04-03T08:14:07.119Z</time></trkpt><trkpt lat="43.0604667" lon="12.1449467"><ele>343.0</ele><time>2026-04-03T08:14:08.12Z</time></trkpt><trkpt lat="43.0606033" lon="12.144875"><ele>342.5</ele><time>2026-04-03T08:14:09.119Z</time></trkpt><trkpt lat="43.0607333" lon="12.1448083"><ele>342.0</ele><time>2026-04-03T08:14:10.119Z</time></trkpt><trkpt lat="43.060865" lon="12.14474"><ele>341.5</ele><time>2026-04-03T08:14:11.12Z</time></trkpt><trkpt lat="43.060975" lon="12.1446917"><ele>341.0</ele><time>2026-04-03T08:14:12.119Z</time></trkpt><trkpt lat="43.06109" lon="12.1446167"><ele>341.0</ele><time>2026-04-03T08:14:13.119Z</time></trkpt><trkpt lat="43.0612067" lon="12.1445333"><ele>341.0</ele><time>2026-04-03T08:14:14.119Z</time></trkpt><trkpt lat="43.06133" lon="12.144465"><ele>341.0</ele><time>2026-04-03T08:14:15.119Z</time></trkpt><trkpt lat="43.0614433" lon="12.144405"><ele>341.0</ele><time>2026-04-03T08:14:16.119Z</time></trkpt><trkpt lat="43.0615667" lon="12.1443483"><ele>342.0</ele><time>2026-04-03T08:14:17.119Z</time></trkpt><trkpt lat="43.0616933" lon="12.144315"><ele>343.0</ele><time>2026-04-03T08:14:18.119Z</time></trkpt><trkpt lat="43.06182" lon="12.1443033"><ele>344.0</ele><time>2026-04-03T08:14:19.119Z</time></trkpt><trkpt lat="43.0619483" lon="12.1443067"><ele>345.0</ele><time>2026-04-03T08:14:20.119Z</time></trkpt><trkpt lat="43.0620717" lon="12.1443233"><ele>345.0</ele><time>2026-04-03T08:14:21.12Z</time></trkpt><trkpt lat="43.0622133" lon="12.14435"><ele>345.0</ele><time>2026-04-03T08:14:22.119Z</time></trkpt><trkpt lat="43.06235" lon="12.1443583"><ele>345.0</ele><time>2026-04-03T08:14:23.12Z</time></trkpt><trkpt lat="43.06246" lon="12.14434"><ele>345.0</ele><time>2026-04-03T08:14:24.119Z</time></trkpt><trkpt lat="43.062575" lon="12.1442767"><ele>345.25</ele><time>2026-04-03T08:14:25.119Z</time></trkpt><trkpt lat="43.062665" lon="12.1441783"><ele>345.5</ele><time>2026-04-03T08:14:26.119Z</time></trkpt><trkpt lat="43.0627267" lon="12.14406"><ele>345.75</ele><time>2026-04-03T08:14:27.119Z</time></trkpt><trkpt lat="43.0628033" lon="12.14392"><ele>346.0</ele><time>2026-04-03T08:14:28.119Z</time></trkpt><trkpt lat="43.0628883" lon="12.14376"><ele>344.5</ele><time>2026-04-03T08:14:29.119Z</time></trkpt><trkpt lat="43.0629483" lon="12.1436067"><ele>343.0</ele><time>2026-04-03T08:14:30.119Z</time></trkpt><trkpt lat="43.0630067" lon="12.14344"><ele>341.5</ele><time>2026-04-03T08:14:31.119Z</time></trkpt><trkpt lat="43.0630617" lon="12.1432783"><ele>340.0</ele><time>2026-04-03T08:14:32.119Z</time></trkpt><trkpt lat="43.0631183" lon="12.1431317"><ele>339.4</ele><time>2026-04-03T08:14:33.12Z</time></trkpt><trkpt lat="43.0631733" lon="12.142985"><ele>338.8</ele><time>2026-04-03T08:14:34.119Z</time></trkpt><trkpt lat="43.063235" lon="12.1428383"><ele>338.20000000000005</ele><time>2026-04-03T08:14:35.119Z</time></trkpt><trkpt lat="43.0633067" lon="12.1427333"><ele>337.6</ele><time>2026-04-03T08:14:36.12Z</time></trkpt><trkpt lat="43.0633783" lon="12.14264"><ele>337.0</ele><time>2026-04-03T08:14:37.119Z</time></trkpt><trkpt lat="43.06345" lon="12.1425717"><ele>338.3333333333333</ele><time>2026-04-03T08:14:38.119Z</time></trkpt><trkpt lat="43.0635217" lon="12.1424967"><ele>339.66666666666663</ele><time>2026-04-03T08:14:39.119Z</time></trkpt><trkpt lat="43.0635533" lon="12.142405"><ele>341.0</ele><time>2026-04-03T08:14:40.119Z</time></trkpt><trkpt lat="43.0635583" lon="12.1423117"><ele>342.3333333333333</ele><time>2026-04-03T08:14:41.119Z</time></trkpt><trkpt lat="43.06352" lon="12.1422"><ele>343.6666666666667</ele><time>2026-04-03T08:14:42.12Z</time></trkpt><trkpt lat="43.06348" lon="12.1421167"><ele>345.0</ele><time>2026-04-03T08:14:43.119Z</time></trkpt><trkpt lat="43.0634167" lon="12.1420117"><ele>345.2</ele><time>2026-04-03T08:14:45.119Z</time></trkpt><trkpt lat="43.06336" lon="12.141965"><ele>345.4</ele><time>2026-04-03T08:14:46.12Z</time></trkpt><trkpt lat="43.0632767" lon="12.1419133"><ele>345.6</ele><time>2026-04-03T08:14:47.12Z</time></trkpt><trkpt lat="43.06316" lon="12.1418467"><ele>345.8</ele><time>2026-04-03T08:14:48.12Z</time></trkpt><trkpt lat="43.0630117" lon="12.1417617"><ele>346.0</ele><time>2026-04-03T08:14:49.12Z</time></trkpt><trkpt lat="43.062865" lon="12.1416583"><ele>342.0</ele><time>2026-04-03T08:14:50.119Z</time></trkpt><trkpt lat="43.0626867" lon="12.1415783"><ele>338.0</ele><time>2026-04-03T08:14:51.119Z</time></trkpt><trkpt lat="43.0624967" lon="12.1414767"><ele>334.0</ele><time>2026-04-03T08:14:52.119Z</time></trkpt><trkpt lat="43.0623017" lon="12.1413583"><ele>331.66666666666663</ele><time>2026-04-03T08:14:53.119Z</time></trkpt><trkpt lat="43.0621017" lon="12.1412367"><ele>329.3333333333333</ele><time>2026-04-03T08:14:54.12Z</time></trkpt><trkpt lat="43.0619183" lon="12.1411133"><ele>327.0</ele><time>2026-04-03T08:14:55.119Z</time></trkpt><trkpt lat="43.0617483" lon="12.14099"><ele>325.6666666666667</ele><time>2026-04-03T08:14:56.12Z</time></trkpt><trkpt lat="43.0615967" lon="12.1408517"><ele>324.33333333333337</ele><time>2026-04-03T08:14:57.119Z</time></trkpt><trkpt lat="43.06147" lon="12.1407"><ele>323.0</ele><time>2026-04-03T08:14:58.119Z</time></trkpt><trkpt lat="43.0613767" lon="12.1405233"><ele>323.0</ele><time>2026-04-03T08:14:59.119Z</time></trkpt><trkpt lat="43.0612667" lon="12.1403367"><ele>323.0</ele><time>2026-04-03T08:15:00.12Z</time></trkpt><trkpt lat="43.0611617" lon="12.1401533"><ele>323.0</ele><time>2026-04-03T08:15:01.119Z</time></trkpt><trkpt lat="43.06104" lon="12.139985"><ele>322.0</ele><time>2026-04-03T08:15:02.119Z</time></trkpt><trkpt lat="43.0608917" lon="12.1398333"><ele>321.0</ele><time>2026-04-03T08:15:03.12Z</time></trkpt><trkpt lat="43.060715" lon="12.1397017"><ele>320.0</ele><time>2026-04-03T08:15:04.12Z</time></trkpt><trkpt lat="43.0605283" lon="12.1395717"><ele>318.0</ele><time>2026-04-03T08:15:05.119Z</time></trkpt><trkpt lat="43.06034" lon="12.1394283"><ele>316.0</ele><time>2026-04-03T08:15:06.12Z</time></trkpt><trkpt lat="43.060135" lon="12.1392667"><ele>314.0</ele><time>2026-04-03T08:15:07.119Z</time></trkpt><trkpt lat="43.0599233" lon="12.139105"><ele>312.0</ele><time>2026-04-03T08:15:08.119Z</time></trkpt><trkpt lat="43.0597017" lon="12.1389367"><ele>312.0</ele><time>2026-04-03T08:15:09.119Z</time></trkpt><trkpt lat="43.059475" lon="12.1387667"><ele>312.0</ele><time>2026-04-03T08:15:10.12Z</time></trkpt><trkpt lat="43.0592317" lon="12.1385817"><ele>310.5</ele><time>2026-04-03T08:15:11.119Z</time></trkpt><trkpt lat="43.059" lon="12.13839"><ele>309.0</ele><time>2026-04-03T08:15:12.12Z</time></trkpt><trkpt lat="43.0587717" lon="12.1382133"><ele>309.0</ele><time>2026-04-03T08:15:13.119Z</time></trkpt><trkpt lat="43.0585533" lon="12.138035"><ele>309.0</ele><time>2026-04-03T08:15:14.12Z</time></trkpt><trkpt lat="43.0583383" lon="12.1378683"><ele>306.5</ele><time>2026-04-03T08:15:15.119Z</time></trkpt><trkpt lat="43.0581333" lon="12.1376817"><ele>304.0</ele><time>2026-04-03T08:15:16.119Z</time></trkpt><trkpt lat="43.05792" lon="12.1374717"><ele>304.0</ele><time>2026-04-03T08:15:17.119Z</time></trkpt><trkpt lat="43.0577117" lon="12.1372483"><ele>304.0</ele><time>2026-04-03T08:15:18.119Z</time></trkpt><trkpt lat="43.0575067" lon="12.1370017"><ele>302.5</ele><time>2026-04-03T08:15:19.119Z</time></trkpt><trkpt lat="43.057305" lon="12.1367433"><ele>301.0</ele><time>2026-04-03T08:15:20.12Z</time></trkpt><trkpt lat="43.0570917" lon="12.1364783"><ele>301.0</ele><time>2026-04-03T08:15:21.12Z</time></trkpt><trkpt lat="43.0568767" lon="12.1362117"><ele>301.0</ele><time>2026-04-03T08:15:22.119Z</time></trkpt><trkpt lat="43.0566583" lon="12.13596"><ele>300.5</ele><time>2026-04-03T08:15:23.12Z</time></trkpt><trkpt lat="43.05643" lon="12.1356983"><ele>300.0</ele><time>2026-04-03T08:15:24.12Z</time></trkpt><trkpt lat="43.0562" lon="12.135425"><ele>300.0</ele><time>2026-04-03T08:15:25.119Z</time></trkpt><trkpt lat="43.0559667" lon="12.1351433"><ele>300.0</ele><time>2026-04-03T08:15:26.119Z</time></trkpt><trkpt lat="43.0557333" lon="12.1348633"><ele>299.0</ele><time>2026-04-03T08:15:27.119Z</time></trkpt><trkpt lat="43.05552" lon="12.1346033"><ele>298.0</ele><time>2026-04-03T08:15:28.119Z</time></trkpt><trkpt lat="43.0553183" lon="12.13436"><ele>298.0</ele><time>2026-04-03T08:15:29.119Z</time></trkpt><trkpt lat="43.0551083" lon="12.1341167"><ele>298.0</ele><time>2026-04-03T08:15:30.119Z</time></trkpt><trkpt lat="43.0549067" lon="12.133865"><ele>297.0</ele><time>2026-04-03T08:15:31.119Z</time></trkpt><trkpt lat="43.0547067" lon="12.1335917"><ele>296.0</ele><time>2026-04-03T08:15:32.119Z</time></trkpt><trkpt lat="43.0545133" lon="12.133305"><ele>295.5</ele><time>2026-04-03T08:15:33.12Z</time></trkpt><trkpt lat="43.0543217" lon="12.1330333"><ele>295.0</ele><time>2026-04-03T08:15:34.119Z</time></trkpt><trkpt lat="43.0541383" lon="12.1327833"><ele>294.3333333333333</ele><time>2026-04-03T08:15:35.12Z</time></trkpt><trkpt lat="43.0539817" lon="12.1325583"><ele>293.6666666666667</ele><time>2026-04-03T08:15:36.119Z</time></trkpt><trkpt lat="43.0538533" lon="12.13236"><ele>293.0</ele><time>2026-04-03T08:15:37.12Z</time></trkpt><trkpt lat="43.0537383" lon="12.1321933"><ele>292.5</ele><time>2026-04-03T08:15:38.12Z</time></trkpt><trkpt lat="43.0536367" lon="12.1320533"><ele>292.0</ele><time>2026-04-03T08:15:39.119Z</time></trkpt><trkpt lat="43.05355" lon="12.1319383"><ele>291.5</ele><time>2026-04-03T08:15:40.119Z</time></trkpt><trkpt lat="43.0534433" lon="12.131885"><ele>291.0</ele><time>2026-04-03T08:15:41.119Z</time></trkpt><trkpt lat="43.0533317" lon="12.1319"><ele>289.0</ele><time>2026-04-03T08:15:42.12Z</time></trkpt><trkpt lat="43.0532" lon="12.1319533"><ele>287.0</ele><time>2026-04-03T08:15:43.12Z</time></trkpt><trkpt lat="43.0530583" lon="12.13204"><ele>285.0</ele><time>2026-04-03T08:15:44.119Z</time></trkpt><trkpt lat="43.0529217" lon="12.132175"><ele>285.0</ele><time>2026-04-03T08:15:45.119Z</time></trkpt><trkpt lat="43.052765" lon="12.1323133"><ele>285.0</ele><time>2026-04-03T08:15:46.12Z</time></trkpt><trkpt lat="43.0525983" lon="12.1324383"><ele>285.0</ele><time>2026-04-03T08:15:47.12Z</time></trkpt><trkpt lat="43.0524117" lon="12.13255"><ele>286.3333333333333</ele><time>2026-04-03T08:15:48.12Z</time></trkpt><trkpt lat="43.0522183" lon="12.1326517"><ele>287.66666666666663</ele><time>2026-04-03T08:15:49.119Z</time></trkpt><trkpt lat="43.0520117" lon="12.1327283"><ele>289.0</ele><time>2026-04-03T08:15:50.119Z</time></trkpt><trkpt lat="43.05179" lon="12.13283"><ele>289.0</ele><time>2026-04-03T08:15:51.119Z</time></trkpt><trkpt lat="43.05155" lon="12.132925"><ele>289.0</ele><time>2026-04-03T08:15:52.119Z</time></trkpt><trkpt lat="43.051315" lon="12.1330067"><ele>289.0</ele><time>2026-04-03T08:15:53.12Z</time></trkpt><trkpt lat="43.0510867" lon="12.1330683"><ele>289.0</ele><time>2026-04-03T08:15:54.119Z</time></trkpt><trkpt lat="43.050885" lon="12.1331"><ele>289.0</ele><time>2026-04-03T08:15:55.119Z</time></trkpt><trkpt lat="43.0507017" lon="12.133115"><ele>289.25</ele><time>2026-04-03T08:15:56.12Z</time></trkpt><trkpt lat="43.0505383" lon="12.1331133"><ele>289.5</ele><time>2026-04-03T08:15:57.119Z</time></trkpt><trkpt lat="43.0504167" lon="12.13311"><ele>289.75</ele><time>2026-04-03T08:15:58.12Z</time></trkpt><trkpt lat="43.050325" lon="12.1330633"><ele>290.0</ele><time>2026-04-03T08:15:59.119Z</time></trkpt><trkpt lat="43.05025" lon="12.1329767"><ele>290.0</ele><time>2026-04-03T08:16:00.119Z</time></trkpt><trkpt lat="43.050195" lon="12.1328383"><ele>290.0</ele><time>2026-04-03T08:16:01.119Z</time></trkpt><trkpt lat="43.05016" lon="12.1326667"><ele>290.0</ele><time>2026-04-03T08:16:02.119Z</time></trkpt><trkpt lat="43.0501317" lon="12.1324633"><ele>290.0</ele><time>2026-04-03T08:16:03.119Z</time></trkpt><trkpt lat="43.0501017" lon="12.1322283"><ele>289.6666666666667</ele><time>2026-04-03T08:16:04.12Z</time></trkpt><trkpt lat="43.0500733" lon="12.1319767"><ele>289.3333333333333</ele><time>2026-04-03T08:16:05.119Z</time></trkpt><trkpt lat="43.05004" lon="12.1316933"><ele>289.0</ele><time>2026-04-03T08:16:06.119Z</time></trkpt><trkpt lat="43.0499917" lon="12.1314033"><ele>288.5</ele><time>2026-04-03T08:16:07.12Z</time></trkpt><trkpt lat="43.049945" lon="12.131095"><ele>288.0</ele><time>2026-04-03T08:16:08.119Z</time></trkpt><trkpt lat="43.0498833" lon="12.1307733"><ele>287.0</ele><time>2026-04-03T08:16:09.12Z</time></trkpt><trkpt lat="43.0498167" lon="12.1304433"><ele>286.0</ele><time>2026-04-03T08:16:10.119Z</time></trkpt><trkpt lat="43.04976" lon="12.130105"><ele>285.5</ele><time>2026-04-03T08:16:11.119Z</time></trkpt><trkpt lat="43.0496767" lon="12.12978"><ele>285.0</ele><time>2026-04-03T08:16:12.12Z</time></trkpt><trkpt lat="43.0495917" lon="12.1294867"><ele>285.0</ele><time>2026-04-03T08:16:13.119Z</time></trkpt><trkpt lat="43.0495" lon="12.1292217"><ele>285.0</ele><time>2026-04-03T08:16:14.119Z</time></trkpt><trkpt lat="43.0494083" lon="12.12895"><ele>285.0</ele><time>2026-04-03T08:16:15.119Z</time></trkpt><trkpt lat="43.0493083" lon="12.1286833"><ele>285.0</ele><time>2026-04-03T08:16:16.119Z</time></trkpt><trkpt lat="43.0491883" lon="12.1283983"><ele>285.0</ele><time>2026-04-03T08:16:17.119Z</time></trkpt><trkpt lat="43.049095" lon="12.128085"><ele>287.0</ele><time>2026-04-03T08:16:18.12Z</time></trkpt><trkpt lat="43.0490183" lon="12.12777"><ele>289.0</ele><time>2026-04-03T08:16:19.119Z</time></trkpt><trkpt lat="43.04895" lon="12.1274333"><ele>289.0</ele><time>2026-04-03T08:16:20.12Z</time></trkpt><trkpt lat="43.0488617" lon="12.127095"><ele>289.0</ele><time>2026-04-03T08:16:21.119Z</time></trkpt><trkpt lat="43.04879" lon="12.1267483"><ele>289.0</ele><time>2026-04-03T08:16:22.119Z</time></trkpt><trkpt lat="43.0487183" lon="12.12639"><ele>289.0</ele><time>2026-04-03T08:16:23.119Z</time></trkpt><trkpt lat="43.0486533" lon="12.12603"><ele>288.0</ele><time>2026-04-03T08:16:24.119Z</time></trkpt><trkpt lat="43.048575" lon="12.1256867"><ele>287.0</ele><time>2026-04-03T08:16:25.119Z</time></trkpt><trkpt lat="43.0485117" lon="12.1253267"><ele>287.0</ele><time>2026-04-03T08:16:26.12Z</time></trkpt><trkpt lat="43.04844" lon="12.124955"><ele>287.0</ele><time>2026-04-03T08:16:27.119Z</time></trkpt><trkpt lat="43.0483617" lon="12.1245783"><ele>288.5</ele><time>2026-04-03T08:16:28.12Z</time></trkpt><trkpt lat="43.04829" lon="12.124215"><ele>290.0</ele><time>2026-04-03T08:16:29.119Z</time></trkpt><trkpt lat="43.0482233" lon="12.123885"><ele>290.0</ele><time>2026-04-03T08:16:30.119Z</time></trkpt><trkpt lat="43.0481683" lon="12.12358"><ele>290.0</ele><time>2026-04-03T08:16:31.12Z</time></trkpt><trkpt lat="43.0481067" lon="12.1232917"><ele>290.0</ele><time>2026-04-03T08:16:32.119Z</time></trkpt><trkpt lat="43.04804" lon="12.1230317"><ele>289.0</ele><time>2026-04-03T08:16:33.119Z</time></trkpt><trkpt lat="43.04793" lon="12.1227967"><ele>288.0</ele><time>2026-04-03T08:16:34.119Z</time></trkpt><trkpt lat="43.0478" lon="12.12258"><ele>287.0</ele><time>2026-04-03T08:16:35.119Z</time></trkpt><trkpt lat="43.0476517" lon="12.1223517"><ele>285.0</ele><time>2026-04-03T08:16:36.119Z</time></trkpt><trkpt lat="43.047505" lon="12.122125"><ele>283.0</ele><time>2026-04-03T08:16:37.119Z</time></trkpt><trkpt lat="43.04734" lon="12.121885"><ele>283.0</ele><time>2026-04-03T08:16:38.12Z</time></trkpt><trkpt lat="43.0471733" lon="12.1216367"><ele>283.0</ele><time>2026-04-03T08:16:39.119Z</time></trkpt><trkpt lat="43.047015" lon="12.1213917"><ele>281.5</ele><time>2026-04-03T08:16:40.119Z</time></trkpt><trkpt lat="43.046855" lon="12.1211467"><ele>280.0</ele><time>2026-04-03T08:16:41.119Z</time></trkpt><trkpt lat="43.046675" lon="12.1208833"><ele>280.5</ele><time>2026-04-03T08:16:42.119Z</time></trkpt><trkpt lat="43.0465033" lon="12.120605"><ele>281.0</ele><time>2026-04-03T08:16:43.119Z</time></trkpt><trkpt lat="43.0463367" lon="12.1203117"><ele>281.0</ele><time>2026-04-03T08:16:44.119Z</time></trkpt><trkpt lat="43.0461683" lon="12.1200183"><ele>281.0</ele><time>2026-04-03T08:16:45.119Z</time></trkpt><trkpt lat="43.0459967" lon="12.11972"><ele>281.5</ele><time>2026-04-03T08:16:46.119Z</time></trkpt><trkpt lat="43.0458333" lon="12.11941"><ele>282.0</ele><time>2026-04-03T08:16:47.12Z</time></trkpt><trkpt lat="43.0456667" lon="12.1190767"><ele>281.0</ele><time>2026-04-03T08:16:48.119Z</time></trkpt><trkpt lat="43.0455083" lon="12.1187383"><ele>280.0</ele><time>2026-04-03T08:16:49.12Z</time></trkpt><trkpt lat="43.045345" lon="12.1184033"><ele>279.5</ele><time>2026-04-03T08:16:50.119Z</time></trkpt><trkpt lat="43.0451867" lon="12.1180683"><ele>279.0</ele><time>2026-04-03T08:16:51.12Z</time></trkpt><trkpt lat="43.0450283" lon="12.1177233"><ele>280.0</ele><time>2026-04-03T08:16:52.119Z</time></trkpt><trkpt lat="43.0448817" lon="12.1173933"><ele>281.0</ele><time>2026-04-03T08:16:53.12Z</time></trkpt><trkpt lat="43.0447517" lon="12.117085"><ele>281.0</ele><time>2026-04-03T08:16:54.12Z</time></trkpt><trkpt lat="43.04463" lon="12.1168033"><ele>281.0</ele><time>2026-04-03T08:16:55.12Z</time></trkpt><trkpt lat="43.0445083" lon="12.1165317"><ele>280.5</ele><time>2026-04-03T08:16:56.119Z</time></trkpt><trkpt lat="43.04439" lon="12.11627"><ele>280.0</ele><time>2026-04-03T08:16:57.119Z</time></trkpt><trkpt lat="43.0442783" lon="12.116"><ele>280.0</ele><time>2026-04-03T08:16:58.119Z</time></trkpt><trkpt lat="43.0441567" lon="12.1157417"><ele>280.0</ele><time>2026-04-03T08:16:59.119Z</time></trkpt><trkpt lat="43.0440383" lon="12.1154667"><ele>280.0</ele><time>2026-04-03T08:17:00.119Z</time></trkpt><trkpt lat="43.0439167" lon="12.1151883"><ele>280.0</ele><time>2026-04-03T08:17:01.12Z</time></trkpt><trkpt lat="43.0437917" lon="12.11491"><ele>278.5</ele><time>2026-04-03T08:17:02.119Z</time></trkpt><trkpt lat="43.0436717" lon="12.1146167"><ele>277.0</ele><time>2026-04-03T08:17:03.119Z</time></trkpt><trkpt lat="43.043555" lon="12.1143267"><ele>277.0</ele><time>2026-04-03T08:17:04.12Z</time></trkpt><trkpt lat="43.0434333" lon="12.1140333"><ele>277.0</ele><time>2026-04-03T08:17:05.119Z</time></trkpt><trkpt lat="43.0432883" lon="12.1137367"><ele>278.0</ele><time>2026-04-03T08:17:06.12Z</time></trkpt><trkpt lat="43.0431317" lon="12.1134433"><ele>279.0</ele><time>2026-04-03T08:17:07.119Z</time></trkpt><trkpt lat="43.0429683" lon="12.1131467"><ele>279.0</ele><time>2026-04-03T08:17:08.119Z</time></trkpt><trkpt lat="43.0428083" lon="12.1128367"><ele>279.0</ele><time>2026-04-03T08:17:09.119Z</time></trkpt><trkpt lat="43.04267" lon="12.1125117"><ele>279.0</ele><time>2026-04-03T08:17:10.119Z</time></trkpt><trkpt lat="43.0425417" lon="12.1121967"><ele>279.0</ele><time>2026-04-03T08:17:11.119Z</time></trkpt><trkpt lat="43.0424" lon="12.1118983"><ele>279.0</ele><time>2026-04-03T08:17:12.119Z</time></trkpt><trkpt lat="43.0422383" lon="12.111605"><ele>279.0</ele><time>2026-04-03T08:17:13.12Z</time></trkpt><trkpt lat="43.0420633" lon="12.1113167"><ele>279.0</ele><time>2026-04-03T08:17:14.119Z</time></trkpt><trkpt lat="43.04186" lon="12.1110433"><ele>279.0</ele><time>2026-04-03T08:17:15.12Z</time></trkpt><trkpt lat="43.0416517" lon="12.1107683"><ele>280.5</ele><time>2026-04-03T08:17:16.119Z</time></trkpt><trkpt lat="43.0414517" lon="12.1104867"><ele>282.0</ele><time>2026-04-03T08:17:17.119Z</time></trkpt><trkpt lat="43.04125" lon="12.110205"><ele>282.0</ele><time>2026-04-03T08:17:18.12Z</time></trkpt><trkpt lat="43.0410467" lon="12.109925"><ele>282.0</ele><time>2026-04-03T08:17:19.12Z</time></trkpt><trkpt lat="43.0408417" lon="12.1096567"><ele>282.5</ele><time>2026-04-03T08:17:20.119Z</time></trkpt><trkpt lat="43.0406433" lon="12.1093733"><ele>283.0</ele><time>2026-04-03T08:17:21.119Z</time></trkpt><trkpt lat="43.040435" lon="12.1090933"><ele>282.5</ele><time>2026-04-03T08:17:22.119Z</time></trkpt><trkpt lat="43.0402283" lon="12.10881"><ele>282.0</ele><time>2026-04-03T08:17:23.119Z</time></trkpt><trkpt lat="43.04004" lon="12.1085167"><ele>284.0</ele><time>2026-04-03T08:17:24.119Z</time></trkpt><trkpt lat="43.039865" lon="12.10824"><ele>286.0</ele><time>2026-04-03T08:17:25.119Z</time></trkpt><trkpt lat="43.0396917" lon="12.1079783"><ele>286.0</ele><time>2026-04-03T08:17:26.119Z</time></trkpt><trkpt lat="43.0395317" lon="12.107745"><ele>286.0</ele><time>2026-04-03T08:17:27.119Z</time></trkpt><trkpt lat="43.0393933" lon="12.107535"><ele>286.0</ele><time>2026-04-03T08:17:28.119Z</time></trkpt><trkpt lat="43.0392567" lon="12.10732"><ele>289.3333333333333</ele><time>2026-04-03T08:17:29.119Z</time></trkpt><trkpt lat="43.0391283" lon="12.10711"><ele>292.6666666666667</ele><time>2026-04-03T08:17:30.12Z</time></trkpt><trkpt lat="43.0390067" lon="12.106905"><ele>296.0</ele><time>2026-04-03T08:17:31.119Z</time></trkpt><trkpt lat="43.0388933" lon="12.1067233"><ele>295.6666666666667</ele><time>2026-04-03T08:17:32.12Z</time></trkpt><trkpt lat="43.0387733" lon="12.1065483"><ele>295.3333333333333</ele><time>2026-04-03T08:17:33.119Z</time></trkpt><trkpt lat="43.03864" lon="12.1063633"><ele>295.0</ele><time>2026-04-03T08:17:34.119Z</time></trkpt><trkpt lat="43.038505" lon="12.1062183"><ele>295.0</ele><time>2026-04-03T08:17:35.119Z</time></trkpt><trkpt lat="43.0383533" lon="12.1061383"><ele>295.0</ele><time>2026-04-03T08:17:36.12Z</time></trkpt><trkpt lat="43.038195" lon="12.10609"><ele>295.0</ele><time>2026-04-03T08:17:37.119Z</time></trkpt><trkpt lat="43.038035" lon="12.1060383"><ele>298.0</ele><time>2026-04-03T08:17:38.119Z</time></trkpt><trkpt lat="43.0378867" lon="12.1059417"><ele>301.0</ele><time>2026-04-03T08:17:39.12Z</time></trkpt><trkpt lat="43.0377483" lon="12.10583"><ele>304.0</ele><time>2026-04-03T08:17:40.119Z</time></trkpt><trkpt lat="43.0376467" lon="12.1056783"><ele>304.0</ele><time>2026-04-03T08:17:41.119Z</time></trkpt><trkpt lat="43.0375667" lon="12.1055233"><ele>304.0</ele><time>2026-04-03T08:17:42.119Z</time></trkpt><trkpt lat="43.037495" lon="12.10537"><ele>304.0</ele><time>2026-04-03T08:17:43.119Z</time></trkpt><trkpt lat="43.0374217" lon="12.10524"><ele>304.0</ele><time>2026-04-03T08:17:44.12Z</time></trkpt><trkpt lat="43.03734" lon="12.1051583"><ele>305.8333333333333</ele><time>2026-04-03T08:17:45.12Z</time></trkpt><trkpt lat="43.0372533" lon="12.1051383"><ele>307.66666666666663</ele><time>2026-04-03T08:17:46.12Z</time></trkpt><trkpt lat="43.0371617" lon="12.1051533"><ele>309.5</ele><time>2026-04-03T08:17:47.12Z</time></trkpt><trkpt lat="43.0370733" lon="12.1051683"><ele>311.3333333333333</ele><time>2026-04-03T08:17:48.12Z</time></trkpt><trkpt lat="43.0369933" lon="12.105165"><ele>313.1666666666667</ele><time>2026-04-03T08:17:49.12Z</time></trkpt><trkpt lat="43.0369267" lon="12.1051317"><ele>315.0</ele><time>2026-04-03T08:17:50.119Z</time></trkpt><trkpt lat="43.036855" lon="12.1050733"><ele>315.0</ele><time>2026-04-03T08:17:51.119Z</time></trkpt><trkpt lat="43.03678" lon="12.1049883"><ele>315.0</ele><time>2026-04-03T08:17:52.119Z</time></trkpt><trkpt lat="43.0367067" lon="12.10489"><ele>315.0</ele><time>2026-04-03T08:17:53.119Z</time></trkpt><trkpt lat="43.03661" lon="12.1047867"><ele>315.0</ele><time>2026-04-03T08:17:54.12Z</time></trkpt><trkpt lat="43.0364967" lon="12.1047017"><ele>318.25</ele><time>2026-04-03T08:17:55.119Z</time></trkpt><trkpt lat="43.036365" lon="12.104645"><ele>321.5</ele><time>2026-04-03T08:17:56.119Z</time></trkpt><trkpt lat="43.0362317" lon="12.1045867"><ele>324.75</ele><time>2026-04-03T08:17:57.119Z</time></trkpt><trkpt lat="43.0361183" lon="12.1045283"><ele>328.0</ele><time>2026-04-03T08:17:58.119Z</time></trkpt><trkpt lat="43.0360083" lon="12.10447"><ele>328.0</ele><time>2026-04-03T08:17:59.12Z</time></trkpt><trkpt lat="43.0358883" lon="12.10441"><ele>328.0</ele><time>2026-04-03T08:18:00.12Z</time></trkpt><trkpt lat="43.035785" lon="12.104335"><ele>328.0</ele><time>2026-04-03T08:18:01.119Z</time></trkpt><trkpt lat="43.0356833" lon="12.104275"><ele>328.0</ele><time>2026-04-03T08:18:02.119Z</time></trkpt><trkpt lat="43.0355733" lon="12.1042367"><ele>329.2</ele><time>2026-04-03T08:18:03.12Z</time></trkpt><trkpt lat="43.0354717" lon="12.1042083"><ele>330.4</ele><time>2026-04-03T08:18:04.119Z</time></trkpt><trkpt lat="43.0353617" lon="12.104195"><ele>331.59999999999997</ele><time>2026-04-03T08:18:05.12Z</time></trkpt><trkpt lat="43.0352633" lon="12.1041767"><ele>332.79999999999995</ele><time>2026-04-03T08:18:06.12Z</time></trkpt><trkpt lat="43.0351533" lon="12.10416"><ele>334.0</ele><time>2026-04-03T08:18:07.119Z</time></trkpt><trkpt lat="43.0350383" lon="12.1041233"><ele>330.0</ele><time>2026-04-03T08:18:08.12Z</time></trkpt><trkpt lat="43.0349167" lon="12.1040633"><ele>326.0</ele><time>2026-04-03T08:18:09.119Z</time></trkpt><trkpt lat="43.0347983" lon="12.1039733"><ele>322.0</ele><time>2026-04-03T08:18:10.119Z</time></trkpt><trkpt lat="43.0346733" lon="12.10389"><ele>318.0</ele><time>2026-04-03T08:18:11.119Z</time></trkpt><trkpt lat="43.0345383" lon="12.10381"><ele>318.0</ele><time>2026-04-03T08:18:12.119Z</time></trkpt><trkpt lat="43.0344083" lon="12.10373"><ele>318.0</ele><time>2026-04-03T08:18:13.119Z</time></trkpt><trkpt lat="43.034285" lon="12.10364"><ele>318.0</ele><time>2026-04-03T08:18:14.119Z</time></trkpt><trkpt lat="43.0341683" lon="12.1035467"><ele>318.0</ele><time>2026-04-03T08:18:15.119Z</time></trkpt><trkpt lat="43.0340583" lon="12.1034483"><ele>319.0</ele><time>2026-04-03T08:18:16.119Z</time></trkpt><trkpt lat="43.0339617" lon="12.1033317"><ele>320.0</ele><time>2026-04-03T08:18:17.119Z</time></trkpt><trkpt lat="43.0338933" lon="12.1032183"><ele>321.0</ele><time>2026-04-03T08:18:18.12Z</time></trkpt><trkpt lat="43.033845" lon="12.10312"><ele>322.0</ele><time>2026-04-03T08:18:19.119Z</time></trkpt><trkpt lat="43.0338183" lon="12.1030267"><ele>323.0</ele><time>2026-04-03T08:18:20.119Z</time></trkpt><trkpt lat="43.0337983" lon="12.1029083"><ele>324.33333333333337</ele><time>2026-04-03T08:18:21.119Z</time></trkpt><trkpt lat="43.03384" lon="12.1028"><ele>325.6666666666667</ele><time>2026-04-03T08:18:22.12Z</time></trkpt><trkpt lat="43.0338883" lon="12.102695"><ele>327.0</ele><time>2026-04-03T08:18:23.119Z</time></trkpt><trkpt lat="43.033945" lon="12.1025867"><ele>328.3333333333333</ele><time>2026-04-03T08:18:24.119Z</time></trkpt><trkpt lat="43.03399" lon="12.1025067"><ele>329.66666666666663</ele><time>2026-04-03T08:18:25.12Z</time></trkpt><trkpt lat="43.0340383" lon="12.1024033"><ele>331.0</ele><time>2026-04-03T08:18:27.119Z</time></trkpt><trkpt lat="43.0339733" lon="12.1023683"><ele>331.0</ele><time>2026-04-03T08:18:30.119Z</time></trkpt><trkpt lat="43.03387" lon="12.1024683"><ele>331.0</ele><time>2026-04-03T08:18:32.119Z</time></trkpt><trkpt lat="43.0338017" lon="12.1025617"><ele>331.0</ele><time>2026-04-03T08:18:33.12Z</time></trkpt><trkpt lat="43.0337233" lon="12.1026667"><ele>331.0</ele><time>2026-04-03T08:18:34.119Z</time></trkpt><trkpt lat="43.0336367" lon="12.1027767"><ele>331.0</ele><time>2026-04-03T08:18:35.119Z</time></trkpt><trkpt lat="43.0335333" lon="12.1029"><ele>331.0</ele><time>2026-04-03T08:18:36.119Z</time></trkpt><trkpt lat="43.0334217" lon="12.103035"><ele>331.0</ele><time>2026-04-03T08:18:37.119Z</time></trkpt><trkpt lat="43.0332983" lon="12.1031817"><ele>334.3333333333333</ele><time>2026-04-03T08:18:38.119Z</time></trkpt><trkpt lat="43.0331617" lon="12.1033317"><ele>337.6666666666667</ele><time>2026-04-03T08:18:39.119Z</time></trkpt><trkpt lat="43.0330267" lon="12.1034917"><ele>341.0</ele><time>2026-04-03T08:18:40.12Z</time></trkpt><trkpt lat="43.032885" lon="12.1036633"><ele>341.0</ele><time>2026-04-03T08:18:41.12Z</time></trkpt><trkpt lat="43.032735" lon="12.1038383"><ele>341.0</ele><time>2026-04-03T08:18:42.119Z</time></trkpt><trkpt lat="43.0325783" lon="12.1040183"><ele>341.0</ele><time>2026-04-03T08:18:43.119Z</time></trkpt><trkpt lat="43.0324167" lon="12.1042117"><ele>344.6666666666667</ele><time>2026-04-03T08:18:44.119Z</time></trkpt><trkpt lat="43.0322617" lon="12.1044017"><ele>348.3333333333333</ele><time>2026-04-03T08:18:45.119Z</time></trkpt><trkpt lat="43.032105" lon="12.1045933"><ele>352.0</ele><time>2026-04-03T08:18:46.119Z</time></trkpt><trkpt lat="43.0319517" lon="12.1047983"><ele>349.0</ele><time>2026-04-03T08:18:47.119Z</time></trkpt><trkpt lat="43.0318267" lon="12.1050417"><ele>346.0</ele><time>2026-04-03T08:18:48.119Z</time></trkpt><trkpt lat="43.0316933" lon="12.1052817"><ele>343.0</ele><time>2026-04-03T08:18:49.119Z</time></trkpt><trkpt lat="43.0315417" lon="12.10552"><ele>349.0</ele><time>2026-04-03T08:18:50.12Z</time></trkpt><trkpt lat="43.031375" lon="12.1057433"><ele>355.0</ele><time>2026-04-03T08:18:51.119Z</time></trkpt><trkpt lat="43.0312083" lon="12.1059583"><ele>355.0</ele><time>2026-04-03T08:18:52.119Z</time></trkpt><trkpt lat="43.0310617" lon="12.1061667"><ele>355.0</ele><time>2026-04-03T08:18:53.119Z</time></trkpt><trkpt lat="43.03091" lon="12.1063533"><ele>355.0</ele><time>2026-04-03T08:18:54.12Z</time></trkpt><trkpt lat="43.0307717" lon="12.10654"><ele>357.66666666666663</ele><time>2026-04-03T08:18:55.119Z</time></trkpt><trkpt lat="43.0306417" lon="12.106715"><ele>360.3333333333333</ele><time>2026-04-03T08:18:56.119Z</time></trkpt><trkpt lat="43.0305" lon="12.106885"><ele>363.0</ele><time>2026-04-03T08:18:57.12Z</time></trkpt><trkpt lat="43.0303733" lon="12.1070483"><ele>363.0</ele><time>2026-04-03T08:18:58.12Z</time></trkpt><trkpt lat="43.0302767" lon="12.1071867"><ele>363.0</ele><time>2026-04-03T08:18:59.119Z</time></trkpt><trkpt lat="43.0301933" lon="12.1073217"><ele>363.0</ele><time>2026-04-03T08:19:00.119Z</time></trkpt><trkpt lat="43.03011" lon="12.107425"><ele>363.0</ele><time>2026-04-03T08:19:01.119Z</time></trkpt><trkpt lat="43.0300367" lon="12.1074833"><ele>363.3333333333333</ele><time>2026-04-03T08:19:02.119Z</time></trkpt><trkpt lat="43.0299567" lon="12.1075083"><ele>363.6666666666667</ele><time>2026-04-03T08:19:03.119Z</time></trkpt><trkpt lat="43.02988" lon="12.1074983"><ele>364.0</ele><time>2026-04-03T08:19:04.119Z</time></trkpt><trkpt lat="43.029825" lon="12.1074133"><ele>364.33333333333337</ele><time>2026-04-03T08:19:05.12Z</time></trkpt><trkpt lat="43.0297833" lon="12.1072883"><ele>364.6666666666667</ele><time>2026-04-03T08:19:06.119Z</time></trkpt><trkpt lat="43.0297567" lon="12.1071567"><ele>365.0</ele><time>2026-04-03T08:19:07.119Z</time></trkpt><trkpt lat="43.029725" lon="12.107"><ele>365.0</ele><time>2026-04-03T08:19:08.119Z</time></trkpt><trkpt lat="43.0296883" lon="12.1068517"><ele>365.0</ele><time>2026-04-03T08:19:09.12Z</time></trkpt><trkpt lat="43.0296667" lon="12.106695"><ele>365.0</ele><time>2026-04-03T08:19:10.119Z</time></trkpt><trkpt lat="43.0296633" lon="12.1065233"><ele>365.0</ele><time>2026-04-03T08:19:11.12Z</time></trkpt><trkpt lat="43.02969" lon="12.1063467"><ele>367.75</ele><time>2026-04-03T08:19:12.119Z</time></trkpt><trkpt lat="43.02973" lon="12.1061667"><ele>370.5</ele><time>2026-04-03T08:19:13.12Z</time></trkpt><trkpt lat="43.0297867" lon="12.10599"><ele>373.25</ele><time>2026-04-03T08:19:14.12Z</time></trkpt><trkpt lat="43.0298333" lon="12.1057967"><ele>376.0</ele><time>2026-04-03T08:19:15.119Z</time></trkpt><trkpt lat="43.0298683" lon="12.1055883"><ele>378.25</ele><time>2026-04-03T08:19:16.12Z</time></trkpt><trkpt lat="43.02991" lon="12.10539"><ele>380.5</ele><time>2026-04-03T08:19:17.118Z</time></trkpt><trkpt lat="43.0299667" lon="12.1052067"><ele>382.75</ele><time>2026-04-03T08:19:18.119Z</time></trkpt><trkpt lat="43.0300467" lon="12.1050383"><ele>385.0</ele><time>2026-04-03T08:19:19.118Z</time></trkpt><trkpt lat="43.0301317" lon="12.1048767"><ele>387.75</ele><time>2026-04-03T08:19:20.118Z</time></trkpt><trkpt lat="43.0302033" lon="12.1047033"><ele>390.5</ele><time>2026-04-03T08:19:21.118Z</time></trkpt><trkpt lat="43.030255" lon="12.1045183"><ele>393.25</ele><time>2026-04-03T08:19:22.118Z</time></trkpt><trkpt lat="43.0302917" lon="12.1043383"><ele>396.0</ele><time>2026-04-03T08:19:23.118Z</time></trkpt><trkpt lat="43.03032" lon="12.10415"><ele>401.0</ele><time>2026-04-03T08:19:24.119Z</time></trkpt><trkpt lat="43.0303433" lon="12.1039733"><ele>406.0</ele><time>2026-04-03T08:19:25.118Z</time></trkpt><trkpt lat="43.0303767" lon="12.1038083"><ele>411.0</ele><time>2026-04-03T08:19:26.119Z</time></trkpt><trkpt lat="43.0304283" lon="12.10368"><ele>416.0</ele><time>2026-04-03T08:19:27.118Z</time></trkpt><trkpt lat="43.0304917" lon="12.10356"><ele>416.0</ele><time>2026-04-03T08:19:28.118Z</time></trkpt><trkpt lat="43.0305617" lon="12.10345"><ele>416.0</ele><time>2026-04-03T08:19:29.118Z</time></trkpt><trkpt lat="43.030615" lon="12.10334"><ele>416.0</ele><time>2026-04-03T08:19:30.119Z</time></trkpt><trkpt lat="43.03064" lon="12.103215"><ele>416.0</ele><time>2026-04-03T08:19:31.118Z</time></trkpt><trkpt lat="43.030625" lon="12.1030983"><ele>416.0</ele><time>2026-04-03T08:19:32.119Z</time></trkpt><trkpt lat="43.0305917" lon="12.1029817"><ele>416.6</ele><time>2026-04-03T08:19:33.119Z</time></trkpt><trkpt lat="43.0305383" lon="12.1028633"><ele>417.20000000000005</ele><time>2026-04-03T08:19:34.119Z</time></trkpt><trkpt lat="43.03047" lon="12.10275"><ele>417.79999999999995</ele><time>2026-04-03T08:19:35.118Z</time></trkpt><trkpt lat="43.03039" lon="12.102635"><ele>418.4</ele><time>2026-04-03T08:19:36.118Z</time></trkpt><trkpt lat="43.030315" lon="12.1025183"><ele>419.0</ele><time>2026-04-03T08:19:37.118Z</time></trkpt><trkpt lat="43.0302333" lon="12.1024067"><ele>419.0</ele><time>2026-04-03T08:19:38.118Z</time></trkpt><trkpt lat="43.0301433" lon="12.1023167"><ele>419.0</ele><time>2026-04-03T08:19:39.118Z</time></trkpt><trkpt lat="43.030055" lon="12.1022367"><ele>419.0</ele><time>2026-04-03T08:19:40.119Z</time></trkpt><trkpt lat="43.029975" lon="12.1021667"><ele>419.0</ele><time>2026-04-03T08:19:41.118Z</time></trkpt><trkpt lat="43.0298983" lon="12.1021067"><ele>419.0</ele><time>2026-04-03T08:19:42.118Z</time></trkpt><trkpt lat="43.0298183" lon="12.102045"><ele>418.99999999999994</ele><time>2026-04-03T08:19:43.118Z</time></trkpt><trkpt lat="43.02974" lon="12.1019833"><ele>419.0</ele><time>2026-04-03T08:19:44.118Z</time></trkpt><trkpt lat="43.0296683" lon="12.1019217"><ele>419.0</ele><time>2026-04-03T08:19:45.118Z</time></trkpt><trkpt lat="43.0296067" lon="12.101855"><ele>419.0</ele><time>2026-04-03T08:19:46.118Z</time></trkpt><trkpt lat="43.0295583" lon="12.1017833"><ele>418.99999999999994</ele><time>2026-04-03T08:19:47.118Z</time></trkpt><trkpt lat="43.0295083" lon="12.1016967"><ele>419.0</ele><time>2026-04-03T08:19:48.118Z</time></trkpt><trkpt lat="43.0294717" lon="12.1015833"><ele>419.4</ele><time>2026-04-03T08:19:49.118Z</time></trkpt><trkpt lat="43.0294383" lon="12.1014567"><ele>419.79999999999995</ele><time>2026-04-03T08:19:50.119Z</time></trkpt><trkpt lat="43.029415" lon="12.1013133"><ele>420.20000000000005</ele><time>2026-04-03T08:19:51.119Z</time></trkpt><trkpt lat="43.0294017" lon="12.1011833"><ele>420.6</ele><time>2026-04-03T08:19:52.118Z</time></trkpt><trkpt lat="43.0294" lon="12.1010533"><ele>421.0</ele><time>2026-04-03T08:19:53.118Z</time></trkpt><trkpt lat="43.0294067" lon="12.1009283"><ele>421.0</ele><time>2026-04-03T08:19:54.118Z</time></trkpt><trkpt lat="43.0294233" lon="12.1008017"><ele>421.0</ele><time>2026-04-03T08:19:55.118Z</time></trkpt><trkpt lat="43.029455" lon="12.1006717"><ele>421.0</ele><time>2026-04-03T08:19:56.118Z</time></trkpt><trkpt lat="43.0294883" lon="12.1005483"><ele>421.0</ele><time>2026-04-03T08:19:57.118Z</time></trkpt><trkpt lat="43.0295067" lon="12.1004217"><ele>421.0</ele><time>2026-04-03T08:19:58.118Z</time></trkpt><trkpt lat="43.02952" lon="12.1003"><ele>421.50000000000006</ele><time>2026-04-03T08:19:59.118Z</time></trkpt><trkpt lat="43.0295183" lon="12.1001817"><ele>422.0</ele><time>2026-04-03T08:20:00.118Z</time></trkpt><trkpt lat="43.0294983" lon="12.1000617"><ele>422.5</ele><time>2026-04-03T08:20:01.118Z</time></trkpt><trkpt lat="43.0294817" lon="12.09995"><ele>423.0</ele><time>2026-04-03T08:20:02.118Z</time></trkpt><trkpt lat="43.0294717" lon="12.0998533"><ele>423.50000000000006</ele><time>2026-04-03T08:20:03.118Z</time></trkpt><trkpt lat="43.0294583" lon="12.0997633"><ele>424.0</ele><time>2026-04-03T08:20:04.119Z</time></trkpt><trkpt lat="43.0294383" lon="12.0996667"><ele>424.83333333333337</ele><time>2026-04-03T08:20:05.118Z</time></trkpt><trkpt lat="43.0294133" lon="12.0995667"><ele>425.6666666666667</ele><time>2026-04-03T08:20:06.118Z</time></trkpt><trkpt lat="43.0293817" lon="12.0994667"><ele>426.5</ele><time>2026-04-03T08:20:07.119Z</time></trkpt><trkpt lat="43.0293717" lon="12.099365"><ele>427.33333333333337</ele><time>2026-04-03T08:20:08.118Z</time></trkpt><trkpt lat="43.0293783" lon="12.0992517"><ele>428.1666666666667</ele><time>2026-04-03T08:20:09.119Z</time></trkpt><trkpt lat="43.02941" lon="12.099135"><ele>429.0</ele><time>2026-04-03T08:20:10.118Z</time></trkpt><trkpt lat="43.029435" lon="12.0989983"><ele>429.6</ele><time>2026-04-03T08:20:11.119Z</time></trkpt><trkpt lat="43.029455" lon="12.0988767"><ele>430.2</ele><time>2026-04-03T08:20:12.119Z</time></trkpt><trkpt lat="43.0294783" lon="12.098735"><ele>430.80000000000007</ele><time>2026-04-03T08:20:13.118Z</time></trkpt><trkpt lat="43.0294967" lon="12.0985767"><ele>431.40000000000003</ele><time>2026-04-03T08:20:14.118Z</time></trkpt><trkpt lat="43.02953" lon="12.09845"><ele>432.0</ele><time>2026-04-03T08:20:15.118Z</time></trkpt><trkpt lat="43.0295467" lon="12.0983183"><ele>430.3333333333333</ele><time>2026-04-03T08:20:16.118Z</time></trkpt><trkpt lat="43.02955" lon="12.0981833"><ele>428.66666666666663</ele><time>2026-04-03T08:20:17.118Z</time></trkpt><trkpt lat="43.0295217" lon="12.0980567"><ele>427.0</ele><time>2026-04-03T08:20:18.118Z</time></trkpt><trkpt lat="43.029505" lon="12.09795"><ele>425.3333333333333</ele><time>2026-04-03T08:20:19.119Z</time></trkpt><trkpt lat="43.0294817" lon="12.09786"><ele>423.66666666666663</ele><time>2026-04-03T08:20:20.118Z</time></trkpt><trkpt lat="43.0294317" lon="12.0977717"><ele>422.0</ele><time>2026-04-03T08:20:21.118Z</time></trkpt><trkpt lat="43.0293717" lon="12.09769"><ele>421.99999999999994</ele><time>2026-04-03T08:20:22.118Z</time></trkpt><trkpt lat="43.0293067" lon="12.0976183"><ele>422.0</ele><time>2026-04-03T08:20:23.118Z</time></trkpt><trkpt lat="43.02924" lon="12.097535"><ele>422.0</ele><time>2026-04-03T08:20:24.118Z</time></trkpt><trkpt lat="43.0291633" lon="12.097445"><ele>422.0</ele><time>2026-04-03T08:20:25.118Z</time></trkpt><trkpt lat="43.0290883" lon="12.0973817"><ele>421.99999999999994</ele><time>2026-04-03T08:20:26.118Z</time></trkpt><trkpt lat="43.0290217" lon="12.0973067"><ele>422.0</ele><time>2026-04-03T08:20:27.118Z</time></trkpt><trkpt lat="43.0289667" lon="12.097255"><ele>422.49999999999994</ele><time>2026-04-03T08:20:28.118Z</time></trkpt><trkpt lat="43.0289067" lon="12.0972033"><ele>423.0</ele><time>2026-04-03T08:20:30.118Z</time></trkpt><trkpt lat="43.0288817" lon="12.097285"><ele>423.5</ele><time>2026-04-03T08:20:35.118Z</time></trkpt><trkpt lat="43.0287783" lon="12.09738"><ele>424.0</ele><time>2026-04-03T08:20:37.118Z</time></trkpt><trkpt lat="43.0287017" lon="12.0974233"><ele>424.49999999999994</ele><time>2026-04-03T08:20:38.118Z</time></trkpt><trkpt lat="43.0286283" lon="12.0974483"><ele>425.0</ele><time>2026-04-03T08:20:39.118Z</time></trkpt><trkpt lat="43.02855" lon="12.097455"><ele>424.99999999999994</ele><time>2026-04-03T08:20:40.118Z</time></trkpt><trkpt lat="43.02847" lon="12.0974583"><ele>425.0</ele><time>2026-04-03T08:20:41.118Z</time></trkpt><trkpt lat="43.0283867" lon="12.09745"><ele>425.0</ele><time>2026-04-03T08:20:42.118Z</time></trkpt><trkpt lat="43.028295" lon="12.0974383"><ele>425.0</ele><time>2026-04-03T08:20:43.118Z</time></trkpt><trkpt lat="43.0282" lon="12.09743"><ele>424.99999999999994</ele><time>2026-04-03T08:20:44.119Z</time></trkpt><trkpt lat="43.0281117" lon="12.09743"><ele>425.0</ele><time>2026-04-03T08:20:45.119Z</time></trkpt><trkpt lat="43.0280317" lon="12.097415"><ele>422.8</ele><time>2026-04-03T08:20:46.118Z</time></trkpt><trkpt lat="43.02796" lon="12.097405"><ele>420.6</ele><time>2026-04-03T08:20:47.118Z</time></trkpt><trkpt lat="43.0278883" lon="12.0973517"><ele>418.4</ele><time>2026-04-03T08:20:49.118Z</time></trkpt><trkpt lat="43.0279367" lon="12.0974083"><ele>416.2</ele><time>2026-04-03T08:20:54.118Z</time></trkpt><trkpt lat="43.0280383" lon="12.097415"><ele>414.0</ele><time>2026-04-03T08:20:56.118Z</time></trkpt><trkpt lat="43.0281783" lon="12.0974367"><ele>414.0</ele><time>2026-04-03T08:20:58.118Z</time></trkpt><trkpt lat="43.02826" lon="12.097445"><ele>414.0</ele><time>2026-04-03T08:20:59.118Z</time></trkpt><trkpt lat="43.0283367" lon="12.09745"><ele>414.0</ele><time>2026-04-03T08:21:00.119Z</time></trkpt><trkpt lat="43.02846" lon="12.0974717"><ele>414.0</ele><time>2026-04-03T08:21:02.119Z</time></trkpt><trkpt lat="43.0285417" lon="12.0974833"><ele>414.0</ele><time>2026-04-03T08:21:04.118Z</time></trkpt><trkpt lat="43.02856" lon="12.0973983"><ele>414.0</ele><time>2026-04-03T08:21:07.118Z</time></trkpt><trkpt lat="43.0285167" lon="12.0973217"><ele>417.8333333333333</ele><time>2026-04-03T08:21:09.118Z</time></trkpt><trkpt lat="43.0284267" lon="12.0972883"><ele>421.66666666666663</ele><time>2026-04-03T08:21:11.118Z</time></trkpt><trkpt lat="43.0283633" lon="12.0972383"><ele>425.5</ele><time>2026-04-03T08:21:13.118Z</time></trkpt><trkpt lat="43.0283317" lon="12.0971417"><ele>429.3333333333333</ele><time>2026-04-03T08:21:15.119Z</time></trkpt><trkpt lat="43.028335" lon="12.097015"><ele>433.16666666666663</ele><time>2026-04-03T08:21:17.119Z</time></trkpt><trkpt lat="43.028315" lon="12.0968967"><ele>437.0</ele><time>2026-04-03T08:21:19.119Z</time></trkpt><trkpt lat="43.0282833" lon="12.0968033"><ele>436.99999999999994</ele><time>2026-04-03T08:21:21.118Z</time></trkpt><trkpt lat="43.0283283" lon="12.09672"><ele>437.0</ele><time>2026-04-03T08:21:24.118Z</time></trkpt><trkpt lat="43.0283933" lon="12.09668"><ele>437.0</ele><time>2026-04-03T08:21:26.118Z</time></trkpt><trkpt lat="43.02846" lon="12.096565"><ele>437.0</ele><time>2026-04-03T08:21:28.119Z</time></trkpt><trkpt lat="43.02847" lon="12.09644"><ele>436.99999999999994</ele><time>2026-04-03T08:21:30.118Z</time></trkpt><trkpt lat="43.0284183" lon="12.09634"><ele>437.0</ele><time>2026-04-03T08:21:32.119Z</time></trkpt><trkpt lat="43.0283383" lon="12.0962717"><ele>441.8</ele><time>2026-04-03T08:21:34.119Z</time></trkpt><trkpt lat="43.0282267" lon="12.096175"><ele>446.6</ele><time>2026-04-03T08:21:36.118Z</time></trkpt><trkpt lat="43.0281583" lon="12.0961067"><ele>451.40000000000003</ele><time>2026-04-03T08:21:37.118Z</time></trkpt><trkpt lat="43.0280783" lon="12.0960367"><ele>456.20000000000005</ele><time>2026-04-03T08:21:38.118Z</time></trkpt><trkpt lat="43.028" lon="12.0959717"><ele>461.0</ele><time>2026-04-03T08:21:39.119Z</time></trkpt><trkpt lat="43.0279167" lon="12.0959117"><ele>460.99999999999994</ele><time>2026-04-03T08:21:40.118Z</time></trkpt><trkpt lat="43.0278283" lon="12.0958733"><ele>461.0</ele><time>2026-04-03T08:21:41.118Z</time></trkpt><trkpt lat="43.02774" lon="12.095845"><ele>461.0</ele><time>2026-04-03T08:21:42.118Z</time></trkpt><trkpt lat="43.027655" lon="12.0958233"><ele>461.0</ele><time>2026-04-03T08:21:43.118Z</time></trkpt><trkpt lat="43.027575" lon="12.0958183"><ele>460.99999999999994</ele><time>2026-04-03T08:21:44.118Z</time></trkpt><trkpt lat="43.0274983" lon="12.0957917"><ele>461.0</ele><time>2026-04-03T08:21:45.118Z</time></trkpt><trkpt lat="43.0274133" lon="12.09576"><ele>464.8</ele><time>2026-04-03T08:21:46.118Z</time></trkpt><trkpt lat="43.0273233" lon="12.09572"><ele>468.6</ele><time>2026-04-03T08:21:47.118Z</time></trkpt><trkpt lat="43.0272367" lon="12.0956783"><ele>472.4</ele><time>2026-04-03T08:21:48.118Z</time></trkpt><trkpt lat="43.02713" lon="12.09563"><ele>476.2</ele><time>2026-04-03T08:21:49.118Z</time></trkpt><trkpt lat="43.0270267" lon="12.0955867"><ele>480.0</ele><time>2026-04-03T08:21:50.119Z</time></trkpt><trkpt lat="43.0269483" lon="12.0955333"><ele>480.0</ele><time>2026-04-03T08:21:51.118Z</time></trkpt><trkpt lat="43.026885" lon="12.0954767"><ele>480.0</ele><time>2026-04-03T08:21:52.118Z</time></trkpt><trkpt lat="43.0268183" lon="12.0953933"><ele>480.0</ele><time>2026-04-03T08:21:53.118Z</time></trkpt><trkpt lat="43.0267617" lon="12.0952833"><ele>480.0</ele><time>2026-04-03T08:21:54.118Z</time></trkpt><trkpt lat="43.0267133" lon="12.0951517"><ele>480.0</ele><time>2026-04-03T08:21:55.118Z</time></trkpt><trkpt lat="43.026675" lon="12.0950167"><ele>480.8</ele><time>2026-04-03T08:21:56.118Z</time></trkpt><trkpt lat="43.0266233" lon="12.094905"><ele>481.6</ele><time>2026-04-03T08:21:57.119Z</time></trkpt><trkpt lat="43.0265733" lon="12.094805"><ele>482.4</ele><time>2026-04-03T08:21:58.118Z</time></trkpt><trkpt lat="43.0265167" lon="12.0947117"><ele>483.2</ele><time>2026-04-03T08:21:59.119Z</time></trkpt><trkpt lat="43.0264717" lon="12.09462"><ele>484.0</ele><time>2026-04-03T08:22:00.119Z</time></trkpt><trkpt lat="43.0264017" lon="12.094525"><ele>484.0</ele><time>2026-04-03T08:22:01.118Z</time></trkpt><trkpt lat="43.0263217" lon="12.094425"><ele>484.0</ele><time>2026-04-03T08:22:02.118Z</time></trkpt><trkpt lat="43.02624" lon="12.0943467"><ele>484.0</ele><time>2026-04-03T08:22:03.118Z</time></trkpt><trkpt lat="43.0261767" lon="12.0942683"><ele>484.0</ele><time>2026-04-03T08:22:04.118Z</time></trkpt><trkpt lat="43.0261133" lon="12.0942067"><ele>484.0</ele><time>2026-04-03T08:22:05.118Z</time></trkpt><trkpt lat="43.0260533" lon="12.0941267"><ele>484.4</ele><time>2026-04-03T08:22:06.119Z</time></trkpt><trkpt lat="43.026005" lon="12.0940283"><ele>484.79999999999995</ele><time>2026-04-03T08:22:07.119Z</time></trkpt><trkpt lat="43.0259567" lon="12.093915"><ele>485.20000000000005</ele><time>2026-04-03T08:22:08.118Z</time></trkpt><trkpt lat="43.0258883" lon="12.0937783"><ele>485.6</ele><time>2026-04-03T08:22:09.118Z</time></trkpt><trkpt lat="43.02581" lon="12.0936483"><ele>486.0</ele><time>2026-04-03T08:22:10.118Z</time></trkpt><trkpt lat="43.0257017" lon="12.0935067"><ele>486.0</ele><time>2026-04-03T08:22:11.118Z</time></trkpt><trkpt lat="43.0255917" lon="12.0933817"><ele>486.0</ele><time>2026-04-03T08:22:12.118Z</time></trkpt><trkpt lat="43.02549" lon="12.0932517"><ele>486.0</ele><time>2026-04-03T08:22:13.118Z</time></trkpt><trkpt lat="43.0254117" lon="12.0931267"><ele>486.0</ele><time>2026-04-03T08:22:14.118Z</time></trkpt><trkpt lat="43.0253367" lon="12.0930017"><ele>485.5</ele><time>2026-04-03T08:22:15.118Z</time></trkpt><trkpt lat="43.0252483" lon="12.0928733"><ele>485.0</ele><time>2026-04-03T08:22:16.118Z</time></trkpt><trkpt lat="43.0251567" lon="12.0927317"><ele>484.5</ele><time>2026-04-03T08:22:17.118Z</time></trkpt><trkpt lat="43.02506" lon="12.0926017"><ele>484.0</ele><time>2026-04-03T08:22:18.119Z</time></trkpt><trkpt lat="43.02497" lon="12.092475"><ele>488.5</ele><time>2026-04-03T08:22:19.119Z</time></trkpt><trkpt lat="43.0248617" lon="12.0923467"><ele>493.0</ele><time>2026-04-03T08:22:20.118Z</time></trkpt><trkpt lat="43.024745" lon="12.0922267"><ele>497.5</ele><time>2026-04-03T08:22:21.119Z</time></trkpt><trkpt lat="43.02463" lon="12.09211"><ele>502.0</ele><time>2026-04-03T08:22:22.119Z</time></trkpt><trkpt lat="43.0245117" lon="12.0919983"><ele>502.0</ele><time>2026-04-03T08:22:23.119Z</time></trkpt><trkpt lat="43.0243883" lon="12.0918667"><ele>502.0</ele><time>2026-04-03T08:22:24.118Z</time></trkpt><trkpt lat="43.0242767" lon="12.091745"><ele>502.0</ele><time>2026-04-03T08:22:25.118Z</time></trkpt><trkpt lat="43.0241717" lon="12.0916117"><ele>502.0</ele><time>2026-04-03T08:22:26.119Z</time></trkpt><trkpt lat="43.0240767" lon="12.0914883"><ele>503.25</ele><time>2026-04-03T08:22:27.118Z</time></trkpt><trkpt lat="43.0239883" lon="12.0913717"><ele>504.5</ele><time>2026-04-03T08:22:28.118Z</time></trkpt><trkpt lat="43.0238917" lon="12.0912583"><ele>505.75</ele><time>2026-04-03T08:22:29.118Z</time></trkpt><trkpt lat="43.0237917" lon="12.0911517"><ele>507.0</ele><time>2026-04-03T08:22:30.118Z</time></trkpt><trkpt lat="43.023685" lon="12.0910617"><ele>507.0</ele><time>2026-04-03T08:22:31.118Z</time></trkpt><trkpt lat="43.0235733" lon="12.091"><ele>507.0</ele><time>2026-04-03T08:22:32.118Z</time></trkpt><trkpt lat="43.0234583" lon="12.0909483"><ele>507.0</ele><time>2026-04-03T08:22:33.119Z</time></trkpt><trkpt lat="43.0233383" lon="12.0909033"><ele>507.0</ele><time>2026-04-03T08:22:34.118Z</time></trkpt><trkpt lat="43.0232283" lon="12.0908717"><ele>506.6666666666667</ele><time>2026-04-03T08:22:35.119Z</time></trkpt><trkpt lat="43.0231317" lon="12.090835"><ele>506.33333333333337</ele><time>2026-04-03T08:22:36.118Z</time></trkpt><trkpt lat="43.02305" lon="12.0908017"><ele>506.0</ele><time>2026-04-03T08:22:37.118Z</time></trkpt><trkpt lat="43.022975" lon="12.090765"><ele>505.6666666666667</ele><time>2026-04-03T08:22:38.118Z</time></trkpt><trkpt lat="43.022895" lon="12.09071"><ele>505.33333333333337</ele><time>2026-04-03T08:22:39.119Z</time></trkpt><trkpt lat="43.0228167" lon="12.09066"><ele>505.0</ele><time>2026-04-03T08:22:40.118Z</time></trkpt><trkpt lat="43.02274" lon="12.0905967"><ele>507.8</ele><time>2026-04-03T08:22:41.119Z</time></trkpt><trkpt lat="43.0226667" lon="12.09053"><ele>510.6</ele><time>2026-04-03T08:22:42.119Z</time></trkpt><trkpt lat="43.0225867" lon="12.0904467"><ele>513.4</ele><time>2026-04-03T08:22:43.118Z</time></trkpt><trkpt lat="43.0225167" lon="12.0903417"><ele>516.2</ele><time>2026-04-03T08:22:44.118Z</time></trkpt><trkpt lat="43.0224433" lon="12.090245"><ele>519.0</ele><time>2026-04-03T08:22:45.118Z</time></trkpt><trkpt lat="43.022355" lon="12.09015"><ele>520.6</ele><time>2026-04-03T08:22:46.118Z</time></trkpt><trkpt lat="43.0222583" lon="12.090055"><ele>522.2</ele><time>2026-04-03T08:22:47.119Z</time></trkpt><trkpt lat="43.022165" lon="12.08998"><ele>523.8000000000001</ele><time>2026-04-03T08:22:48.118Z</time></trkpt><trkpt lat="43.0220867" lon="12.0899233"><ele>525.4</ele><time>2026-04-03T08:22:49.119Z</time></trkpt><trkpt lat="43.0220033" lon="12.0898783"><ele>527.0</ele><time>2026-04-03T08:22:50.118Z</time></trkpt><trkpt lat="43.021935" lon="12.0898133"><ele>529.1666666666666</ele><time>2026-04-03T08:22:51.118Z</time></trkpt><trkpt lat="43.0218683" lon="12.0897433"><ele>531.3333333333333</ele><time>2026-04-03T08:22:52.118Z</time></trkpt><trkpt lat="43.0217967" lon="12.0896767"><ele>533.5</ele><time>2026-04-03T08:22:53.118Z</time></trkpt><trkpt lat="43.0217467" lon="12.089595"><ele>535.6666666666666</ele><time>2026-04-03T08:22:54.118Z</time></trkpt><trkpt lat="43.021695" lon="12.0895133"><ele>537.8333333333334</ele><time>2026-04-03T08:22:55.118Z</time></trkpt><trkpt lat="43.0216483" lon="12.0894167"><ele>540.0</ele><time>2026-04-03T08:22:56.118Z</time></trkpt><trkpt lat="43.02159" lon="12.08932"><ele>540.4</ele><time>2026-04-03T08:22:57.118Z</time></trkpt><trkpt lat="43.02153" lon="12.0892133"><ele>540.8</ele><time>2026-04-03T08:22:58.119Z</time></trkpt><trkpt lat="43.0214733" lon="12.089115"><ele>541.2</ele><time>2026-04-03T08:22:59.118Z</time></trkpt><trkpt lat="43.0214017" lon="12.089005"><ele>541.6</ele><time>2026-04-03T08:23:00.118Z</time></trkpt><trkpt lat="43.0213283" lon="12.0889067"><ele>542.0</ele><time>2026-04-03T08:23:01.118Z</time></trkpt><trkpt lat="43.0212467" lon="12.08883"><ele>546.0</ele><time>2026-04-03T08:23:02.118Z</time></trkpt><trkpt lat="43.02116" lon="12.08876"><ele>550.0</ele><time>2026-04-03T08:23:03.119Z</time></trkpt><trkpt lat="43.021065" lon="12.0887"><ele>554.0</ele><time>2026-04-03T08:23:04.118Z</time></trkpt><trkpt lat="43.0209733" lon="12.088645"><ele>558.0</ele><time>2026-04-03T08:23:05.118Z</time></trkpt><trkpt lat="43.020875" lon="12.0886"><ele>562.0</ele><time>2026-04-03T08:23:06.119Z</time></trkpt><trkpt lat="43.0207883" lon="12.0885517"><ele>563.0</ele><time>2026-04-03T08:23:07.118Z</time></trkpt><trkpt lat="43.020705" lon="12.0885017"><ele>564.0</ele><time>2026-04-03T08:23:08.119Z</time></trkpt><trkpt lat="43.0206083" lon="12.08846"><ele>565.0</ele><time>2026-04-03T08:23:09.119Z</time></trkpt><trkpt lat="43.02052" lon="12.0884267"><ele>566.0</ele><time>2026-04-03T08:23:10.119Z</time></trkpt><trkpt lat="43.0204233" lon="12.088385"><ele>567.0</ele><time>2026-04-03T08:23:11.118Z</time></trkpt><trkpt lat="43.0203233" lon="12.0883383"><ele>567.0</ele><time>2026-04-03T08:23:12.119Z</time></trkpt><trkpt lat="43.0202367" lon="12.0882783"><ele>567.0</ele><time>2026-04-03T08:23:13.118Z</time></trkpt><trkpt lat="43.0201467" lon="12.088215"><ele>567.0</ele><time>2026-04-03T08:23:14.118Z</time></trkpt><trkpt lat="43.0200633" lon="12.0881567"><ele>567.0</ele><time>2026-04-03T08:23:15.118Z</time></trkpt><trkpt lat="43.0199933" lon="12.088095"><ele>567.0</ele><time>2026-04-03T08:23:16.118Z</time></trkpt><trkpt lat="43.019935" lon="12.088025"><ele>566.0</ele><time>2026-04-03T08:23:17.118Z</time></trkpt><trkpt lat="43.0198917" lon="12.0879583"><ele>565.0</ele><time>2026-04-03T08:23:18.118Z</time></trkpt><trkpt lat="43.01985" lon="12.0878017"><ele>564.0</ele><time>2026-04-03T08:23:20.118Z</time></trkpt><trkpt lat="43.0198317" lon="12.0877"><ele>563.0</ele><time>2026-04-03T08:23:21.118Z</time></trkpt><trkpt lat="43.0198267" lon="12.0875717"><ele>562.0</ele><time>2026-04-03T08:23:22.119Z</time></trkpt><trkpt lat="43.0198333" lon="12.0874433"><ele>565.5</ele><time>2026-04-03T08:23:23.118Z</time></trkpt><trkpt lat="43.01984" lon="12.0872983"><ele>569.0</ele><time>2026-04-03T08:23:24.118Z</time></trkpt><trkpt lat="43.0198167" lon="12.0871517"><ele>572.5</ele><time>2026-04-03T08:23:25.119Z</time></trkpt><trkpt lat="43.0197617" lon="12.0870133"><ele>576.0</ele><time>2026-04-03T08:23:26.118Z</time></trkpt><trkpt lat="43.0196983" lon="12.086875"><ele>576.0</ele><time>2026-04-03T08:23:27.118Z</time></trkpt><trkpt lat="43.01962" lon="12.0867417"><ele>576.0</ele><time>2026-04-03T08:23:28.119Z</time></trkpt><trkpt lat="43.0195367" lon="12.0866083"><ele>576.0</ele><time>2026-04-03T08:23:29.118Z</time></trkpt><trkpt lat="43.0194567" lon="12.086475"><ele>576.0</ele><time>2026-04-03T08:23:30.118Z</time></trkpt><trkpt lat="43.0193983" lon="12.08633"><ele>577.25</ele><time>2026-04-03T08:23:31.118Z</time></trkpt><trkpt lat="43.01936" lon="12.086185"><ele>578.5</ele><time>2026-04-03T08:23:32.118Z</time></trkpt><trkpt lat="43.0193383" lon="12.086015"><ele>579.75</ele><time>2026-04-03T08:23:33.118Z</time></trkpt><trkpt lat="43.0193333" lon="12.0858267"><ele>581.0</ele><time>2026-04-03T08:23:34.118Z</time></trkpt><trkpt lat="43.0193367" lon="12.0856183"><ele>584.0</ele><time>2026-04-03T08:23:35.118Z</time></trkpt><trkpt lat="43.019315" lon="12.0854"><ele>587.0</ele><time>2026-04-03T08:23:36.118Z</time></trkpt><trkpt lat="43.0192867" lon="12.085175"><ele>590.0</ele><time>2026-04-03T08:23:37.119Z</time></trkpt><trkpt lat="43.0192633" lon="12.0849633"><ele>591.6</ele><time>2026-04-03T08:23:38.118Z</time></trkpt><trkpt lat="43.0192583" lon="12.0847867"><ele>593.2</ele><time>2026-04-03T08:23:39.118Z</time></trkpt><trkpt lat="43.0192583" lon="12.0846617"><ele>594.8</ele><time>2026-04-03T08:23:40.118Z</time></trkpt><trkpt lat="43.01926" lon="12.0845733"><ele>596.4</ele><time>2026-04-03T08:23:41.118Z</time></trkpt><trkpt lat="43.0191967" lon="12.0845267"><ele>598.0</ele><time>2026-04-03T08:23:56.118Z</time></trkpt><trkpt lat="43.01911" lon="12.0844383"><ele>600.0</ele><time>2026-04-03T08:23:58.118Z</time></trkpt><trkpt lat="43.019045" lon="12.0843267"><ele>602.0</ele><time>2026-04-03T08:24:00.118Z</time></trkpt><trkpt lat="43.0189767" lon="12.084195"><ele>604.0</ele><time>2026-04-03T08:24:02.118Z</time></trkpt><trkpt lat="43.0189017" lon="12.0840533"><ele>606.0</ele><time>2026-04-03T08:24:04.118Z</time></trkpt><trkpt lat="43.018865" lon="12.083965"><ele>608.0</ele><time>2026-04-03T08:24:05.118Z</time></trkpt><trkpt lat="43.01882" lon="12.0838617"><ele>611.0</ele><time>2026-04-03T08:24:06.119Z</time></trkpt><trkpt lat="43.0187733" lon="12.083745"><ele>614.0</ele><time>2026-04-03T08:24:07.119Z</time></trkpt><trkpt lat="43.0187183" lon="12.08363"><ele>617.0</ele><time>2026-04-03T08:24:08.118Z</time></trkpt><trkpt lat="43.0186767" lon="12.0834967"><ele>620.0</ele><time>2026-04-03T08:24:09.118Z</time></trkpt><trkpt lat="43.0186433" lon="12.0833317"><ele>623.0</ele><time>2026-04-03T08:24:10.118Z</time></trkpt><trkpt lat="43.0186117" lon="12.0831383"><ele>624.25</ele><time>2026-04-03T08:24:11.118Z</time></trkpt><trkpt lat="43.018575" lon="12.0829467"><ele>625.5</ele><time>2026-04-03T08:24:12.119Z</time></trkpt><trkpt lat="43.0185367" lon="12.08276"><ele>626.75</ele><time>2026-04-03T08:24:13.119Z</time></trkpt><trkpt lat="43.0184967" lon="12.0825933"><ele>628.0</ele><time>2026-04-03T08:24:14.118Z</time></trkpt><trkpt lat="43.0184533" lon="12.08244"><ele>626.5</ele><time>2026-04-03T08:24:15.118Z</time></trkpt><trkpt lat="43.0183983" lon="12.0823083"><ele>625.0</ele><time>2026-04-03T08:24:16.118Z</time></trkpt><trkpt lat="43.0183433" lon="12.0821783"><ele>623.5</ele><time>2026-04-03T08:24:17.118Z</time></trkpt><trkpt lat="43.0182767" lon="12.0820483"><ele>622.0</ele><time>2026-04-03T08:24:18.118Z</time></trkpt><trkpt lat="43.0182017" lon="12.0819217"><ele>622.5</ele><time>2026-04-03T08:24:19.119Z</time></trkpt><trkpt lat="43.0181233" lon="12.0818083"><ele>623.0</ele><time>2026-04-03T08:24:20.118Z</time></trkpt><trkpt lat="43.0180483" lon="12.0816817"><ele>623.5</ele><time>2026-04-03T08:24:21.119Z</time></trkpt><trkpt lat="43.0179767" lon="12.081575"><ele>624.0</ele><time>2026-04-03T08:24:22.118Z</time></trkpt><trkpt lat="43.0179033" lon="12.0814583"><ele>624.0</ele><time>2026-04-03T08:24:23.119Z</time></trkpt><trkpt lat="43.0178167" lon="12.0813367"><ele>624.0</ele><time>2026-04-03T08:24:24.118Z</time></trkpt><trkpt lat="43.0177333" lon="12.0812217"><ele>624.0</ele><time>2026-04-03T08:24:25.119Z</time></trkpt><trkpt lat="43.0176517" lon="12.08108"><ele>624.0</ele><time>2026-04-03T08:24:26.118Z</time></trkpt><trkpt lat="43.0175767" lon="12.08095"><ele>624.0</ele><time>2026-04-03T08:24:27.118Z</time></trkpt><trkpt lat="43.0175083" lon="12.0808317"><ele>624.0</ele><time>2026-04-03T08:24:28.118Z</time></trkpt><trkpt lat="43.0174483" lon="12.0807183"><ele>624.0</ele><time>2026-04-03T08:24:29.118Z</time></trkpt><trkpt lat="43.0173967" lon="12.0806383"><ele>624.0</ele><time>2026-04-03T08:24:30.118Z</time></trkpt><trkpt lat="43.0173533" lon="12.0805367"><ele>624.0</ele><time>2026-04-03T08:24:31.118Z</time></trkpt><trkpt lat="43.0172867" lon="12.0804567"><ele>621.4</ele><time>2026-04-03T08:24:32.119Z</time></trkpt><trkpt lat="43.017205" lon="12.0803717"><ele>618.8</ele><time>2026-04-03T08:24:33.117Z</time></trkpt><trkpt lat="43.0171133" lon="12.0803083"><ele>616.2</ele><time>2026-04-03T08:24:34.117Z</time></trkpt><trkpt lat="43.0170167" lon="12.0802383"><ele>613.6</ele><time>2026-04-03T08:24:35.117Z</time></trkpt><trkpt lat="43.0169133" lon="12.0801767"><ele>611.0</ele><time>2026-04-03T08:24:36.118Z</time></trkpt><trkpt lat="43.016815" lon="12.0800867"><ele>611.0</ele><time>2026-04-03T08:24:37.118Z</time></trkpt><trkpt lat="43.0167117" lon="12.0799783"><ele>611.0</ele><time>2026-04-03T08:24:38.118Z</time></trkpt><trkpt lat="43.0166117" lon="12.079855"><ele>611.0</ele><time>2026-04-03T08:24:39.117Z</time></trkpt><trkpt lat="43.0165" lon="12.0797417"><ele>611.0</ele><time>2026-04-03T08:24:40.117Z</time></trkpt><trkpt lat="43.0163833" lon="12.0796133"><ele>610.25</ele><time>2026-04-03T08:24:41.117Z</time></trkpt><trkpt lat="43.0162767" lon="12.07948"><ele>609.5</ele><time>2026-04-03T08:24:42.117Z</time></trkpt><trkpt lat="43.016185" lon="12.07938"><ele>608.75</ele><time>2026-04-03T08:24:43.118Z</time></trkpt><trkpt lat="43.0160783" lon="12.079265"><ele>608.0</ele><time>2026-04-03T08:24:44.118Z</time></trkpt><trkpt lat="43.0159667" lon="12.0791367"><ele>606.6666666666666</ele><time>2026-04-03T08:24:45.117Z</time></trkpt><trkpt lat="43.01585" lon="12.0789917"><ele>605.3333333333334</ele><time>2026-04-03T08:24:46.118Z</time></trkpt><trkpt lat="43.0157417" lon="12.07884"><ele>604.0</ele><time>2026-04-03T08:24:47.117Z</time></trkpt><trkpt lat="43.0156417" lon="12.0786917"><ele>604.0</ele><time>2026-04-03T08:24:48.118Z</time></trkpt><trkpt lat="43.0155333" lon="12.0785633"><ele>604.0</ele><time>2026-04-03T08:24:49.117Z</time></trkpt><trkpt lat="43.01543" lon="12.0784383"><ele>604.0</ele><time>2026-04-03T08:24:50.117Z</time></trkpt><trkpt lat="43.0153433" lon="12.0783067"><ele>604.0</ele><time>2026-04-03T08:24:51.117Z</time></trkpt><trkpt lat="43.01528" lon="12.078175"><ele>604.4</ele><time>2026-04-03T08:24:52.117Z</time></trkpt><trkpt lat="43.015215" lon="12.07804"><ele>604.8</ele><time>2026-04-03T08:24:53.118Z</time></trkpt><trkpt lat="43.0151533" lon="12.077925"><ele>605.2</ele><time>2026-04-03T08:24:54.117Z</time></trkpt><trkpt lat="43.0150717" lon="12.0778383"><ele>605.6</ele><time>2026-04-03T08:24:55.117Z</time></trkpt><trkpt lat="43.0149833" lon="12.07776"><ele>606.0</ele><time>2026-04-03T08:24:56.117Z</time></trkpt><trkpt lat="43.014905" lon="12.0776867"><ele>606.0</ele><time>2026-04-03T08:24:57.117Z</time></trkpt><trkpt lat="43.014825" lon="12.0776333"><ele>606.0</ele><time>2026-04-03T08:24:58.117Z</time></trkpt><trkpt lat="43.0147567" lon="12.07757"><ele>606.0</ele><time>2026-04-03T08:24:59.117Z</time></trkpt><trkpt lat="43.0146867" lon="12.07751"><ele>606.0</ele><time>2026-04-03T08:25:00.117Z</time></trkpt><trkpt lat="43.0146367" lon="12.0774333"><ele>606.0</ele><time>2026-04-03T08:25:01.117Z</time></trkpt><trkpt lat="43.01461" lon="12.077355"><ele>606.0</ele><time>2026-04-03T08:25:02.117Z</time></trkpt><trkpt lat="43.0145933" lon="12.0772217"><ele>607.3333333333334</ele><time>2026-04-03T08:25:03.117Z</time></trkpt><trkpt lat="43.0145817" lon="12.0770933"><ele>608.6666666666666</ele><time>2026-04-03T08:25:04.117Z</time></trkpt><trkpt lat="43.0145533" lon="12.0769867"><ele>610.0</ele><time>2026-04-03T08:25:05.117Z</time></trkpt><trkpt lat="43.01451" lon="12.07691"><ele>611.3333333333333</ele><time>2026-04-03T08:25:06.117Z</time></trkpt><trkpt lat="43.0144583" lon="12.07684"><ele>612.6666666666666</ele><time>2026-04-03T08:25:07.117Z</time></trkpt><trkpt lat="43.0144033" lon="12.0767717"><ele>614.0</ele><time>2026-04-03T08:25:08.117Z</time></trkpt><trkpt lat="43.0143433" lon="12.0767"><ele>614.0</ele><time>2026-04-03T08:25:09.117Z</time></trkpt><trkpt lat="43.01429" lon="12.0766133"><ele>614.0</ele><time>2026-04-03T08:25:10.117Z</time></trkpt><trkpt lat="43.0142533" lon="12.0765267"><ele>614.0</ele><time>2026-04-03T08:25:11.118Z</time></trkpt><trkpt lat="43.0142283" lon="12.0763617"><ele>614.0</ele><time>2026-04-03T08:25:13.118Z</time></trkpt><trkpt lat="43.014225" lon="12.0762733"><ele>614.0</ele><time>2026-04-03T08:25:14.118Z</time></trkpt><trkpt lat="43.0142833" lon="12.0761283"><ele>612.6666666666666</ele><time>2026-04-03T08:25:16.117Z</time></trkpt><trkpt lat="43.0143317" lon="12.0760667"><ele>611.3333333333333</ele><time>2026-04-03T08:25:17.118Z</time></trkpt><trkpt lat="43.0143917" lon="12.0760017"><ele>610.0</ele><time>2026-04-03T08:25:18.117Z</time></trkpt><trkpt lat="43.0144567" lon="12.07593"><ele>608.6666666666666</ele><time>2026-04-03T08:25:19.117Z</time></trkpt><trkpt lat="43.01451" lon="12.075855"><ele>607.3333333333334</ele><time>2026-04-03T08:25:20.118Z</time></trkpt><trkpt lat="43.0145517" lon="12.07576"><ele>606.0</ele><time>2026-04-03T08:25:21.117Z</time></trkpt><trkpt lat="43.0145767" lon="12.0756533"><ele>603.6</ele><time>2026-04-03T08:25:22.117Z</time></trkpt><trkpt lat="43.0145783" lon="12.075555"><ele>601.2</ele><time>2026-04-03T08:25:23.117Z</time></trkpt><trkpt lat="43.0145567" lon="12.0754433"><ele>598.8</ele><time>2026-04-03T08:25:24.118Z</time></trkpt><trkpt lat="43.0145183" lon="12.075335"><ele>596.4</ele><time>2026-04-03T08:25:25.118Z</time></trkpt><trkpt lat="43.0144717" lon="12.0752167"><ele>594.0</ele><time>2026-04-03T08:25:26.117Z</time></trkpt><trkpt lat="43.0144067" lon="12.0751"><ele>594.0</ele><time>2026-04-03T08:25:27.117Z</time></trkpt><trkpt lat="43.0143383" lon="12.0749933"><ele>594.0</ele><time>2026-04-03T08:25:28.117Z</time></trkpt><trkpt lat="43.0142633" lon="12.0748883"><ele>594.0</ele><time>2026-04-03T08:25:29.117Z</time></trkpt><trkpt lat="43.0142" lon="12.0747633"><ele>594.0</ele><time>2026-04-03T08:25:30.118Z</time></trkpt><trkpt lat="43.01416" lon="12.07464"><ele>594.0</ele><time>2026-04-03T08:25:31.118Z</time></trkpt><trkpt lat="43.0141183" lon="12.074515"><ele>593.5</ele><time>2026-04-03T08:25:32.117Z</time></trkpt><trkpt lat="43.0140817" lon="12.07436"><ele>593.0</ele><time>2026-04-03T08:25:33.117Z</time></trkpt><trkpt lat="43.0140533" lon="12.074195"><ele>592.5</ele><time>2026-04-03T08:25:34.118Z</time></trkpt><trkpt lat="43.0140067" lon="12.0740367"><ele>592.0</ele><time>2026-04-03T08:25:35.118Z</time></trkpt><trkpt lat="43.01394" lon="12.0738933"><ele>592.0</ele><time>2026-04-03T08:25:36.118Z</time></trkpt><trkpt lat="43.0138483" lon="12.0737367"><ele>592.0</ele><time>2026-04-03T08:25:37.117Z</time></trkpt><trkpt lat="43.01375" lon="12.073565"><ele>592.0</ele><time>2026-04-03T08:25:38.117Z</time></trkpt><trkpt lat="43.01366" lon="12.0734033"><ele>593.5</ele><time>2026-04-03T08:25:39.117Z</time></trkpt><trkpt lat="43.013575" lon="12.0732367"><ele>595.0</ele><time>2026-04-03T08:25:40.117Z</time></trkpt><trkpt lat="43.0134967" lon="12.07306"><ele>596.5</ele><time>2026-04-03T08:25:41.118Z</time></trkpt><trkpt lat="43.013435" lon="12.0728933"><ele>598.0</ele><time>2026-04-03T08:25:42.117Z</time></trkpt><trkpt lat="43.0133783" lon="12.0727333"><ele>597.75</ele><time>2026-04-03T08:25:43.118Z</time></trkpt><trkpt lat="43.01332" lon="12.0725767"><ele>597.5</ele><time>2026-04-03T08:25:44.118Z</time></trkpt><trkpt lat="43.0132633" lon="12.0724283"><ele>597.25</ele><time>2026-04-03T08:25:45.117Z</time></trkpt><trkpt lat="43.0131983" lon="12.072285"><ele>597.0</ele><time>2026-04-03T08:25:46.118Z</time></trkpt><trkpt lat="43.0131383" lon="12.07215"><ele>596.5</ele><time>2026-04-03T08:25:47.117Z</time></trkpt><trkpt lat="43.0130733" lon="12.0720117"><ele>596.0</ele><time>2026-04-03T08:25:48.118Z</time></trkpt><trkpt lat="43.0130133" lon="12.0718717"><ele>595.5</ele><time>2026-04-03T08:25:49.117Z</time></trkpt><trkpt lat="43.0129467" lon="12.07174"><ele>595.0</ele><time>2026-04-03T08:25:50.117Z</time></trkpt><trkpt lat="43.012875" lon="12.0716083"><ele>592.8</ele><time>2026-04-03T08:25:51.117Z</time></trkpt><trkpt lat="43.0128067" lon="12.0714833"><ele>590.6</ele><time>2026-04-03T08:25:52.117Z</time></trkpt><trkpt lat="43.0127467" lon="12.0713583"><ele>588.4</ele><time>2026-04-03T08:25:53.117Z</time></trkpt><trkpt lat="43.0127067" lon="12.071225"><ele>586.2</ele><time>2026-04-03T08:25:54.117Z</time></trkpt><trkpt lat="43.0126717" lon="12.0710767"><ele>584.0</ele><time>2026-04-03T08:25:55.117Z</time></trkpt><trkpt lat="43.0126433" lon="12.0709083"><ele>583.75</ele><time>2026-04-03T08:25:56.117Z</time></trkpt><trkpt lat="43.012605" lon="12.070725"><ele>583.5</ele><time>2026-04-03T08:25:57.117Z</time></trkpt><trkpt lat="43.0125583" lon="12.0705617"><ele>583.25</ele><time>2026-04-03T08:25:58.118Z</time></trkpt><trkpt lat="43.012525" lon="12.07041"><ele>583.0</ele><time>2026-04-03T08:25:59.117Z</time></trkpt><trkpt lat="43.0125033" lon="12.0702533"><ele>581.6</ele><time>2026-04-03T08:26:00.118Z</time></trkpt><trkpt lat="43.0124733" lon="12.0701233"><ele>580.1999999999999</ele><time>2026-04-03T08:26:01.117Z</time></trkpt><trkpt lat="43.0124217" lon="12.0700167"><ele>578.8</ele><time>2026-04-03T08:26:02.117Z</time></trkpt><trkpt lat="43.0123567" lon="12.0699133"><ele>577.4</ele><time>2026-04-03T08:26:03.117Z</time></trkpt><trkpt lat="43.0122667" lon="12.06983"><ele>576.0</ele><time>2026-04-03T08:26:04.118Z</time></trkpt><trkpt lat="43.012165" lon="12.0697283"><ele>576.0</ele><time>2026-04-03T08:26:05.117Z</time></trkpt><trkpt lat="43.01207" lon="12.0696167"><ele>576.0</ele><time>2026-04-03T08:26:06.118Z</time></trkpt><trkpt lat="43.0119717" lon="12.0694717"><ele>576.0</ele><time>2026-04-03T08:26:07.117Z</time></trkpt><trkpt lat="43.011855" lon="12.069325"><ele>576.0</ele><time>2026-04-03T08:26:08.117Z</time></trkpt><trkpt lat="43.0117267" lon="12.06918"><ele>575.25</ele><time>2026-04-03T08:26:09.117Z</time></trkpt><trkpt lat="43.011615" lon="12.06904"><ele>574.5</ele><time>2026-04-03T08:26:10.117Z</time></trkpt><trkpt lat="43.0115133" lon="12.0689117"><ele>573.75</ele><time>2026-04-03T08:26:11.117Z</time></trkpt><trkpt lat="43.0114067" lon="12.0687933"><ele>573.0</ele><time>2026-04-03T08:26:12.118Z</time></trkpt><trkpt lat="43.011305" lon="12.0686833"><ele>573.0</ele><time>2026-04-03T08:26:13.117Z</time></trkpt><trkpt lat="43.0112" lon="12.0685817"><ele>573.0</ele><time>2026-04-03T08:26:14.117Z</time></trkpt><trkpt lat="43.0110983" lon="12.068475"><ele>573.0</ele><time>2026-04-03T08:26:15.118Z</time></trkpt><trkpt lat="43.0109983" lon="12.06838"><ele>573.0</ele><time>2026-04-03T08:26:16.117Z</time></trkpt><trkpt lat="43.0109167" lon="12.0682883"><ele>570.8</ele><time>2026-04-03T08:26:17.117Z</time></trkpt><trkpt lat="43.0108433" lon="12.06819"><ele>568.5999999999999</ele><time>2026-04-03T08:26:18.117Z</time></trkpt><trkpt lat="43.010775" lon="12.0680867"><ele>566.4000000000001</ele><time>2026-04-03T08:26:19.118Z</time></trkpt><trkpt lat="43.0107167" lon="12.0679833"><ele>564.2</ele><time>2026-04-03T08:26:20.117Z</time></trkpt><trkpt lat="43.0106517" lon="12.067895"><ele>562.0</ele><time>2026-04-03T08:26:21.118Z</time></trkpt><trkpt lat="43.0105767" lon="12.0678267"><ele>561.1666666666667</ele><time>2026-04-03T08:26:22.117Z</time></trkpt><trkpt lat="43.0105083" lon="12.0677717"><ele>560.3333333333334</ele><time>2026-04-03T08:26:23.117Z</time></trkpt><trkpt lat="43.0104383" lon="12.067715"><ele>559.5</ele><time>2026-04-03T08:26:24.118Z</time></trkpt><trkpt lat="43.0103767" lon="12.0676583"><ele>558.6666666666666</ele><time>2026-04-03T08:26:25.117Z</time></trkpt><trkpt lat="43.0103267" lon="12.0675917"><ele>557.8333333333333</ele><time>2026-04-03T08:26:26.117Z</time></trkpt><trkpt lat="43.0102767" lon="12.0675133"><ele>557.0</ele><time>2026-04-03T08:26:27.118Z</time></trkpt><trkpt lat="43.01023" lon="12.0674183"><ele>556.0</ele><time>2026-04-03T08:26:28.118Z</time></trkpt><trkpt lat="43.0101717" lon="12.067325"><ele>555.0</ele><time>2026-04-03T08:26:29.117Z</time></trkpt><trkpt lat="43.0100983" lon="12.0672433"><ele>554.0</ele><time>2026-04-03T08:26:30.117Z</time></trkpt><trkpt lat="43.0100117" lon="12.0671717"><ele>553.0</ele><time>2026-04-03T08:26:31.117Z</time></trkpt><trkpt lat="43.0099183" lon="12.0671067"><ele>552.0</ele><time>2026-04-03T08:26:32.118Z</time></trkpt><trkpt lat="43.0098117" lon="12.067055"><ele>552.0</ele><time>2026-04-03T08:26:33.117Z</time></trkpt><trkpt lat="43.0097067" lon="12.0669917"><ele>552.0</ele><time>2026-04-03T08:26:34.117Z</time></trkpt><trkpt lat="43.0096183" lon="12.0669183"><ele>552.0</ele><time>2026-04-03T08:26:35.117Z</time></trkpt><trkpt lat="43.0095333" lon="12.0668567"><ele>552.0</ele><time>2026-04-03T08:26:36.117Z</time></trkpt><trkpt lat="43.0094667" lon="12.0667783"><ele>552.0</ele><time>2026-04-03T08:26:37.117Z</time></trkpt><trkpt lat="43.0094" lon="12.0666983"><ele>550.8571428571429</ele><time>2026-04-03T08:26:38.117Z</time></trkpt><trkpt lat="43.009345" lon="12.06661"><ele>549.7142857142858</ele><time>2026-04-03T08:26:39.117Z</time></trkpt><trkpt lat="43.009305" lon="12.0665167"><ele>548.5714285714286</ele><time>2026-04-03T08:26:40.117Z</time></trkpt><trkpt lat="43.0092717" lon="12.0664217"><ele>547.4285714285714</ele><time>2026-04-03T08:26:41.118Z</time></trkpt><trkpt lat="43.0092517" lon="12.0663267"><ele>546.2857142857142</ele><time>2026-04-03T08:26:42.118Z</time></trkpt><trkpt lat="43.0092267" lon="12.0662467"><ele>545.1428571428571</ele><time>2026-04-03T08:26:43.117Z</time></trkpt><trkpt lat="43.0091983" lon="12.0661633"><ele>544.0</ele><time>2026-04-03T08:26:44.117Z</time></trkpt><trkpt lat="43.0091733" lon="12.0660733"><ele>545.0</ele><time>2026-04-03T08:26:45.118Z</time></trkpt><trkpt lat="43.00914" lon="12.065975"><ele>546.0</ele><time>2026-04-03T08:26:46.117Z</time></trkpt><trkpt lat="43.0091017" lon="12.0658767"><ele>547.0</ele><time>2026-04-03T08:26:47.117Z</time></trkpt><trkpt lat="43.0090483" lon="12.0657917"><ele>548.0</ele><time>2026-04-03T08:26:48.118Z</time></trkpt><trkpt lat="43.0089617" lon="12.0657117"><ele>549.0</ele><time>2026-04-03T08:26:49.118Z</time></trkpt><trkpt lat="43.0088467" lon="12.065625"><ele>549.0</ele><time>2026-04-03T08:26:50.117Z</time></trkpt><trkpt lat="43.00872" lon="12.0655383"><ele>549.0</ele><time>2026-04-03T08:26:51.117Z</time></trkpt><trkpt lat="43.0086117" lon="12.0654483"><ele>549.0</ele><time>2026-04-03T08:26:52.117Z</time></trkpt><trkpt lat="43.008515" lon="12.0653533"><ele>549.0</ele><time>2026-04-03T08:26:53.118Z</time></trkpt><trkpt lat="43.0084283" lon="12.0652383"><ele>549.0</ele><time>2026-04-03T08:26:54.118Z</time></trkpt><trkpt lat="43.0083633" lon="12.0651083"><ele>549.0</ele><time>2026-04-03T08:26:55.118Z</time></trkpt><trkpt lat="43.0083383" lon="12.0649983"><ele>549.0</ele><time>2026-04-03T08:26:56.118Z</time></trkpt><trkpt lat="43.0083283" lon="12.0648667"><ele>549.0</ele><time>2026-04-03T08:26:57.118Z</time></trkpt><trkpt lat="43.0083167" lon="12.06474"><ele>549.0</ele><time>2026-04-03T08:26:58.117Z</time></trkpt><trkpt lat="43.0082833" lon="12.06462"><ele>550.8</ele><time>2026-04-03T08:26:59.117Z</time></trkpt><trkpt lat="43.0082433" lon="12.0645067"><ele>552.5999999999999</ele><time>2026-04-03T08:27:00.117Z</time></trkpt><trkpt lat="43.0081783" lon="12.0643983"><ele>554.4</ele><time>2026-04-03T08:27:01.117Z</time></trkpt><trkpt lat="43.008095" lon="12.0643067"><ele>556.1999999999999</ele><time>2026-04-03T08:27:02.117Z</time></trkpt><trkpt lat="43.0079883" lon="12.0642367"><ele>558.0</ele><time>2026-04-03T08:27:03.117Z</time></trkpt><trkpt lat="43.0078817" lon="12.0641317"><ele>559.5</ele><time>2026-04-03T08:27:04.117Z</time></trkpt><trkpt lat="43.00778" lon="12.0640133"><ele>561.0</ele><time>2026-04-03T08:27:05.117Z</time></trkpt><trkpt lat="43.0076767" lon="12.0638733"><ele>562.5</ele><time>2026-04-03T08:27:06.117Z</time></trkpt><trkpt lat="43.0075817" lon="12.063715"><ele>564.0</ele><time>2026-04-03T08:27:07.117Z</time></trkpt><trkpt lat="43.0074933" lon="12.0635483"><ele>564.0</ele><time>2026-04-03T08:27:08.118Z</time></trkpt><trkpt lat="43.0074317" lon="12.0633767"><ele>564.0</ele><time>2026-04-03T08:27:09.117Z</time></trkpt><trkpt lat="43.0073833" lon="12.0632183"><ele>564.0</ele><time>2026-04-03T08:27:10.117Z</time></trkpt><trkpt lat="43.0073333" lon="12.0630533"><ele>564.0</ele><time>2026-04-03T08:27:11.117Z</time></trkpt><trkpt lat="43.0072783" lon="12.06291"><ele>559.25</ele><time>2026-04-03T08:27:12.117Z</time></trkpt><trkpt lat="43.0072217" lon="12.06277"><ele>554.5</ele><time>2026-04-03T08:27:13.117Z</time></trkpt><trkpt lat="43.0071417" lon="12.0626283"><ele>549.75</ele><time>2026-04-03T08:27:14.117Z</time></trkpt><trkpt lat="43.007055" lon="12.0625117"><ele>545.0</ele><time>2026-04-03T08:27:15.118Z</time></trkpt><trkpt lat="43.0069867" lon="12.0624267"><ele>545.1666666666666</ele><time>2026-04-03T08:27:16.118Z</time></trkpt><trkpt lat="43.0069167" lon="12.062355"><ele>545.3333333333333</ele><time>2026-04-03T08:27:17.117Z</time></trkpt><trkpt lat="43.0068567" lon="12.062325"><ele>545.5</ele><time>2026-04-03T08:27:18.117Z</time></trkpt><trkpt lat="43.00679" lon="12.06232"><ele>545.6666666666666</ele><time>2026-04-03T08:27:19.117Z</time></trkpt><trkpt lat="43.0067283" lon="12.0623617"><ele>545.8333333333334</ele><time>2026-04-03T08:27:20.118Z</time></trkpt><trkpt lat="43.0066667" lon="12.0624333"><ele>546.0</ele><time>2026-04-03T08:27:21.117Z</time></trkpt><trkpt lat="43.0065967" lon="12.062525"><ele>546.0</ele><time>2026-04-03T08:27:22.117Z</time></trkpt><trkpt lat="43.0065117" lon="12.0626333"><ele>546.0</ele><time>2026-04-03T08:27:23.117Z</time></trkpt><trkpt lat="43.00643" lon="12.062725"><ele>546.0</ele><time>2026-04-03T08:27:24.117Z</time></trkpt><trkpt lat="43.0063167" lon="12.0627767"><ele>546.0</ele><time>2026-04-03T08:27:25.117Z</time></trkpt><trkpt lat="43.0062067" lon="12.062805"><ele>546.0</ele><time>2026-04-03T08:27:26.118Z</time></trkpt><trkpt lat="43.0061083" lon="12.062815"><ele>546.0</ele><time>2026-04-03T08:27:27.117Z</time></trkpt><trkpt lat="43.006045" lon="12.0628217"><ele>546.0</ele><time>2026-04-03T08:27:28.117Z</time></trkpt><trkpt lat="43.0059867" lon="12.0628567"><ele>546.0</ele><time>2026-04-03T08:27:29.117Z</time></trkpt><trkpt lat="43.0059367" lon="12.0630033"><ele>546.0</ele><time>2026-04-03T08:27:31.117Z</time></trkpt><trkpt lat="43.005945" lon="12.0631017"><ele>546.0</ele><time>2026-04-03T08:27:32.117Z</time></trkpt><trkpt lat="43.0059833" lon="12.0632183"><ele>547.8</ele><time>2026-04-03T08:27:33.117Z</time></trkpt><trkpt lat="43.0060417" lon="12.0633367"><ele>549.6</ele><time>2026-04-03T08:27:34.117Z</time></trkpt><trkpt lat="43.0061067" lon="12.0634467"><ele>551.4</ele><time>2026-04-03T08:27:35.117Z</time></trkpt><trkpt lat="43.00617" lon="12.06356"><ele>553.2</ele><time>2026-04-03T08:27:36.117Z</time></trkpt><trkpt lat="43.0062083" lon="12.063675"><ele>555.0</ele><time>2026-04-03T08:27:37.118Z</time></trkpt><trkpt lat="43.0062133" lon="12.0637617"><ele>555.0</ele><time>2026-04-03T08:27:38.118Z</time></trkpt><trkpt lat="43.006195" lon="12.0638583"><ele>555.0</ele><time>2026-04-03T08:27:39.117Z</time></trkpt><trkpt lat="43.0061283" lon="12.0639583"><ele>555.0</ele><time>2026-04-03T08:27:40.117Z</time></trkpt><trkpt lat="43.0060567" lon="12.0640783"><ele>555.0</ele><time>2026-04-03T08:27:41.117Z</time></trkpt><trkpt lat="43.0059817" lon="12.0642033"><ele>555.0</ele><time>2026-04-03T08:27:42.117Z</time></trkpt><trkpt lat="43.00591" lon="12.0643217"><ele>557.0</ele><time>2026-04-03T08:27:43.118Z</time></trkpt><trkpt lat="43.0058417" lon="12.064435"><ele>559.0</ele><time>2026-04-03T08:27:44.117Z</time></trkpt><trkpt lat="43.0057683" lon="12.0645333"><ele>561.0</ele><time>2026-04-03T08:27:45.118Z</time></trkpt><trkpt lat="43.0056833" lon="12.0646283"><ele>563.0</ele><time>2026-04-03T08:27:46.117Z</time></trkpt><trkpt lat="43.0055817" lon="12.0647133"><ele>565.0</ele><time>2026-04-03T08:27:47.118Z</time></trkpt><trkpt lat="43.0054667" lon="12.0648"><ele>565.0</ele><time>2026-04-03T08:27:48.118Z</time></trkpt><trkpt lat="43.0053283" lon="12.0648883"><ele>565.0</ele><time>2026-04-03T08:27:49.117Z</time></trkpt><trkpt lat="43.00518" lon="12.0649667"><ele>565.0</ele><time>2026-04-03T08:27:50.117Z</time></trkpt><trkpt lat="43.0050383" lon="12.065045"><ele>570.6666666666667</ele><time>2026-04-03T08:27:51.118Z</time></trkpt><trkpt lat="43.004885" lon="12.0650867"><ele>576.3333333333334</ele><time>2026-04-03T08:27:52.117Z</time></trkpt><trkpt lat="43.00472" lon="12.0651567"><ele>582.0</ele><time>2026-04-03T08:27:53.117Z</time></trkpt><trkpt lat="43.0045333" lon="12.0652333"><ele>582.0</ele><time>2026-04-03T08:27:54.117Z</time></trkpt><trkpt lat="43.0043533" lon="12.065315"><ele>582.0</ele><time>2026-04-03T08:27:55.117Z</time></trkpt><trkpt lat="43.0041717" lon="12.0653817"><ele>582.0</ele><time>2026-04-03T08:27:56.117Z</time></trkpt><trkpt lat="43.00401" lon="12.0654383"><ele>581.3333333333334</ele><time>2026-04-03T08:27:57.117Z</time></trkpt><trkpt lat="43.0038567" lon="12.065485"><ele>580.6666666666667</ele><time>2026-04-03T08:27:58.117Z</time></trkpt><trkpt lat="43.0037033" lon="12.065505"><ele>580.0</ele><time>2026-04-03T08:27:59.117Z</time></trkpt><trkpt lat="43.003525" lon="12.0655183"><ele>579.3333333333334</ele><time>2026-04-03T08:28:00.117Z</time></trkpt><trkpt lat="43.0033267" lon="12.0655417"><ele>578.6666666666666</ele><time>2026-04-03T08:28:01.117Z</time></trkpt><trkpt lat="43.0031317" lon="12.06558"><ele>578.0</ele><time>2026-04-03T08:28:02.117Z</time></trkpt><trkpt lat="43.0029467" lon="12.0656083"><ele>578.0</ele><time>2026-04-03T08:28:03.118Z</time></trkpt><trkpt lat="43.0027767" lon="12.0656283"><ele>578.0</ele><time>2026-04-03T08:28:04.117Z</time></trkpt><trkpt lat="43.0026133" lon="12.065615"><ele>578.0</ele><time>2026-04-03T08:28:05.117Z</time></trkpt><trkpt lat="43.002445" lon="12.0656017"><ele>581.6666666666666</ele><time>2026-04-03T08:28:06.117Z</time></trkpt><trkpt lat="43.0022667" lon="12.0655717"><ele>585.3333333333334</ele><time>2026-04-03T08:28:07.117Z</time></trkpt><trkpt lat="43.0020833" lon="12.0655467"><ele>589.0</ele><time>2026-04-03T08:28:08.118Z</time></trkpt><trkpt lat="43.0019167" lon="12.0655367"><ele>589.0</ele><time>2026-04-03T08:28:09.118Z</time></trkpt><trkpt lat="43.0017733" lon="12.06556"><ele>589.0</ele><time>2026-04-03T08:28:10.117Z</time></trkpt><trkpt lat="43.0016317" lon="12.065615"><ele>589.0</ele><time>2026-04-03T08:28:11.117Z</time></trkpt><trkpt lat="43.0014833" lon="12.0657183"><ele>593.75</ele><time>2026-04-03T08:28:12.117Z</time></trkpt><trkpt lat="43.001345" lon="12.065825"><ele>598.5</ele><time>2026-04-03T08:28:13.117Z</time></trkpt><trkpt lat="43.00122" lon="12.065925"><ele>603.25</ele><time>2026-04-03T08:28:14.117Z</time></trkpt><trkpt lat="43.0011217" lon="12.0659983"><ele>608.0</ele><time>2026-04-03T08:28:15.117Z</time></trkpt><trkpt lat="43.0010417" lon="12.0660283"><ele>608.0</ele><time>2026-04-03T08:28:16.117Z</time></trkpt><trkpt lat="43.0009617" lon="12.0660417"><ele>608.0</ele><time>2026-04-03T08:28:17.117Z</time></trkpt><trkpt lat="43.0008783" lon="12.0660217"><ele>608.0</ele><time>2026-04-03T08:28:18.117Z</time></trkpt><trkpt lat="43.0008067" lon="12.0659883"><ele>608.0</ele><time>2026-04-03T08:28:19.117Z</time></trkpt><trkpt lat="43.0007483" lon="12.0659317"><ele>608.0</ele><time>2026-04-03T08:28:20.117Z</time></trkpt><trkpt lat="43.0006883" lon="12.0658317"><ele>608.0</ele><time>2026-04-03T08:28:22.117Z</time></trkpt><trkpt lat="43.00061" lon="12.0658"><ele>607.1999999999999</ele><time>2026-04-03T08:28:24.117Z</time></trkpt><trkpt lat="43.000525" lon="12.0657833"><ele>606.4</ele><time>2026-04-03T08:28:25.117Z</time></trkpt><trkpt lat="43.00042" lon="12.0657433"><ele>605.5999999999999</ele><time>2026-04-03T08:28:26.117Z</time></trkpt><trkpt lat="43.0003133" lon="12.06569"><ele>604.8</ele><time>2026-04-03T08:28:27.117Z</time></trkpt><trkpt lat="43.00021" lon="12.0656167"><ele>604.0</ele><time>2026-04-03T08:28:28.117Z</time></trkpt><trkpt lat="43.0000967" lon="12.0655333"><ele>601.25</ele><time>2026-04-03T08:28:29.117Z</time></trkpt><trkpt lat="42.999975" lon="12.0654567"><ele>598.5</ele><time>2026-04-03T08:28:30.117Z</time></trkpt><trkpt lat="42.9998567" lon="12.0653917"><ele>595.75</ele><time>2026-04-03T08:28:31.117Z</time></trkpt><trkpt lat="42.9997583" lon="12.0653317"><ele>593.0</ele><time>2026-04-03T08:28:32.117Z</time></trkpt><trkpt lat="42.999665" lon="12.0652817"><ele>593.0</ele><time>2026-04-03T08:28:33.118Z</time></trkpt><trkpt lat="42.999575" lon="12.0652467"><ele>593.0</ele><time>2026-04-03T08:28:34.117Z</time></trkpt><trkpt lat="42.9994917" lon="12.06521"><ele>593.0</ele><time>2026-04-03T08:28:35.118Z</time></trkpt><trkpt lat="42.9994" lon="12.06521"><ele>593.0</ele><time>2026-04-03T08:28:36.117Z</time></trkpt><trkpt lat="42.9993067" lon="12.06523"><ele>593.0</ele><time>2026-04-03T08:28:37.118Z</time></trkpt><trkpt lat="42.99922" lon="12.0652717"><ele>589.75</ele><time>2026-04-03T08:28:38.117Z</time></trkpt><trkpt lat="42.9991217" lon="12.0653283"><ele>586.5</ele><time>2026-04-03T08:28:39.117Z</time></trkpt><trkpt lat="42.9990183" lon="12.06539"><ele>583.25</ele><time>2026-04-03T08:28:40.118Z</time></trkpt><trkpt lat="42.9989017" lon="12.065445"><ele>580.0</ele><time>2026-04-03T08:28:41.117Z</time></trkpt><trkpt lat="42.9987867" lon="12.0654817"><ele>580.0</ele><time>2026-04-03T08:28:42.117Z</time></trkpt><trkpt lat="42.9986633" lon="12.0655133"><ele>580.0</ele><time>2026-04-03T08:28:43.117Z</time></trkpt><trkpt lat="42.9985267" lon="12.06554"><ele>580.0</ele><time>2026-04-03T08:28:44.117Z</time></trkpt><trkpt lat="42.99839" lon="12.0655333"><ele>580.0</ele><time>2026-04-03T08:28:45.117Z</time></trkpt><trkpt lat="42.9982367" lon="12.065495"><ele>575.3333333333334</ele><time>2026-04-03T08:28:46.117Z</time></trkpt><trkpt lat="42.9980717" lon="12.0654283"><ele>570.6666666666666</ele><time>2026-04-03T08:28:47.117Z</time></trkpt><trkpt lat="42.9979217" lon="12.06537"><ele>566.0</ele><time>2026-04-03T08:28:48.117Z</time></trkpt><trkpt lat="42.9977817" lon="12.0653317"><ele>566.0</ele><time>2026-04-03T08:28:49.118Z</time></trkpt><trkpt lat="42.9976583" lon="12.0653133"><ele>566.0</ele><time>2026-04-03T08:28:50.118Z</time></trkpt><trkpt lat="42.9975467" lon="12.0653167"><ele>566.0</ele><time>2026-04-03T08:28:51.117Z</time></trkpt><trkpt lat="42.9974333" lon="12.0653317"><ele>566.0</ele><time>2026-04-03T08:28:52.118Z</time></trkpt><trkpt lat="42.9973033" lon="12.0653383"><ele>565.25</ele><time>2026-04-03T08:28:53.118Z</time></trkpt><trkpt lat="42.9971617" lon="12.0653433"><ele>564.5</ele><time>2026-04-03T08:28:54.118Z</time></trkpt><trkpt lat="42.9970283" lon="12.065355"><ele>563.75</ele><time>2026-04-03T08:28:55.117Z</time></trkpt><trkpt lat="42.9969183" lon="12.06534"><ele>563.0</ele><time>2026-04-03T08:28:56.117Z</time></trkpt><trkpt lat="42.9968233" lon="12.065315"><ele>563.0</ele><time>2026-04-03T08:28:57.118Z</time></trkpt><trkpt lat="42.9967133" lon="12.0652617"><ele>563.0</ele><time>2026-04-03T08:28:58.118Z</time></trkpt><trkpt lat="42.9965867" lon="12.0651917"><ele>563.0</ele><time>2026-04-03T08:28:59.118Z</time></trkpt><trkpt lat="42.99645" lon="12.065135"><ele>563.0</ele><time>2026-04-03T08:29:00.117Z</time></trkpt><trkpt lat="42.9962983" lon="12.0650917"><ele>560.3333333333333</ele><time>2026-04-03T08:29:01.117Z</time></trkpt><trkpt lat="42.9961383" lon="12.0650667"><ele>557.6666666666666</ele><time>2026-04-03T08:29:02.117Z</time></trkpt><trkpt lat="42.99598" lon="12.0650533"><ele>555.0</ele><time>2026-04-03T08:29:03.118Z</time></trkpt><trkpt lat="42.99582" lon="12.0650567"><ele>552.5</ele><time>2026-04-03T08:29:04.117Z</time></trkpt><trkpt lat="42.995695" lon="12.065045"><ele>550.0</ele><time>2026-04-03T08:29:05.117Z</time></trkpt><trkpt lat="42.9955767" lon="12.0650483"><ele>547.5</ele><time>2026-04-03T08:29:06.117Z</time></trkpt><trkpt lat="42.9954667" lon="12.06506"><ele>545.0</ele><time>2026-04-03T08:29:07.118Z</time></trkpt><trkpt lat="42.995365" lon="12.06509"><ele>545.0</ele><time>2026-04-03T08:29:08.117Z</time></trkpt><trkpt lat="42.9952633" lon="12.0651417"><ele>545.0</ele><time>2026-04-03T08:29:09.117Z</time></trkpt><trkpt lat="42.9951567" lon="12.0651583"><ele>545.0</ele><time>2026-04-03T08:29:10.117Z</time></trkpt><trkpt lat="42.99504" lon="12.06516"><ele>545.0</ele><time>2026-04-03T08:29:11.117Z</time></trkpt><trkpt lat="42.9949267" lon="12.0651417"><ele>545.0</ele><time>2026-04-03T08:29:12.118Z</time></trkpt><trkpt lat="42.9948083" lon="12.065095"><ele>541.0</ele><time>2026-04-03T08:29:13.117Z</time></trkpt><trkpt lat="42.9946767" lon="12.065025"><ele>537.0</ele><time>2026-04-03T08:29:14.118Z</time></trkpt><trkpt lat="42.9945317" lon="12.06492"><ele>533.0</ele><time>2026-04-03T08:29:15.117Z</time></trkpt><trkpt lat="42.994365" lon="12.0647967"><ele>529.6666666666666</ele><time>2026-04-03T08:29:16.118Z</time></trkpt><trkpt lat="42.9941933" lon="12.0646617"><ele>526.3333333333334</ele><time>2026-04-03T08:29:17.118Z</time></trkpt><trkpt lat="42.9940167" lon="12.0645317"><ele>523.0</ele><time>2026-04-03T08:29:18.117Z</time></trkpt><trkpt lat="42.9938383" lon="12.0644133"><ele>521.3333333333334</ele><time>2026-04-03T08:29:19.117Z</time></trkpt><trkpt lat="42.99363" lon="12.064305"><ele>519.6666666666666</ele><time>2026-04-03T08:29:20.117Z</time></trkpt><trkpt lat="42.993425" lon="12.0641967"><ele>518.0</ele><time>2026-04-03T08:29:21.118Z</time></trkpt><trkpt lat="42.9932067" lon="12.06411"><ele>515.3333333333333</ele><time>2026-04-03T08:29:22.117Z</time></trkpt><trkpt lat="42.9929917" lon="12.0640083"><ele>512.6666666666666</ele><time>2026-04-03T08:29:23.117Z</time></trkpt><trkpt lat="42.9928" lon="12.0639217"><ele>510.0</ele><time>2026-04-03T08:29:24.117Z</time></trkpt><trkpt lat="42.9926133" lon="12.0638633"><ele>512.0</ele><time>2026-04-03T08:29:25.117Z</time></trkpt><trkpt lat="42.9924467" lon="12.0638317"><ele>514.0</ele><time>2026-04-03T08:29:26.117Z</time></trkpt><trkpt lat="42.99229" lon="12.0638217"><ele>516.0</ele><time>2026-04-03T08:29:27.117Z</time></trkpt><trkpt lat="42.9921433" lon="12.0638167"><ele>516.0</ele><time>2026-04-03T08:29:28.117Z</time></trkpt><trkpt lat="42.9919867" lon="12.0637967"><ele>516.0</ele><time>2026-04-03T08:29:29.117Z</time></trkpt><trkpt lat="42.991835" lon="12.0637917"><ele>516.0</ele><time>2026-04-03T08:29:30.117Z</time></trkpt><trkpt lat="42.9917" lon="12.0638"><ele>516.0</ele><time>2026-04-03T08:29:31.118Z</time></trkpt><trkpt lat="42.9915783" lon="12.063795"><ele>517.25</ele><time>2026-04-03T08:29:32.117Z</time></trkpt><trkpt lat="42.99147" lon="12.06377"><ele>518.5</ele><time>2026-04-03T08:29:33.117Z</time></trkpt><trkpt lat="42.9913683" lon="12.0637117"><ele>519.75</ele><time>2026-04-03T08:29:34.117Z</time></trkpt><trkpt lat="42.9912633" lon="12.063625"><ele>521.0</ele><time>2026-04-03T08:29:35.116Z</time></trkpt><trkpt lat="42.9911433" lon="12.0635067"><ele>521.0</ele><time>2026-04-03T08:29:36.116Z</time></trkpt><trkpt lat="42.9910183" lon="12.0633867"><ele>521.0</ele><time>2026-04-03T08:29:37.116Z</time></trkpt><trkpt lat="42.9909" lon="12.063245"><ele>521.0</ele><time>2026-04-03T08:29:38.117Z</time></trkpt><trkpt lat="42.9907817" lon="12.0631067"><ele>517.0</ele><time>2026-04-03T08:29:39.116Z</time></trkpt><trkpt lat="42.9906483" lon="12.06296"><ele>513.0</ele><time>2026-04-03T08:29:40.117Z</time></trkpt><trkpt lat="42.9904817" lon="12.0628133"><ele>509.0</ele><time>2026-04-03T08:29:41.116Z</time></trkpt><trkpt lat="42.9903233" lon="12.062675"><ele>509.0</ele><time>2026-04-03T08:29:42.116Z</time></trkpt><trkpt lat="42.9901517" lon="12.0625917"><ele>509.0</ele><time>2026-04-03T08:29:43.117Z</time></trkpt><trkpt lat="42.9899717" lon="12.0625267"><ele>509.0</ele><time>2026-04-03T08:29:44.116Z</time></trkpt><trkpt lat="42.9898067" lon="12.062495"><ele>509.0</ele><time>2026-04-03T08:29:45.116Z</time></trkpt><trkpt lat="42.98966" lon="12.0624917"><ele>509.0</ele><time>2026-04-03T08:29:46.116Z</time></trkpt><trkpt lat="42.9895233" lon="12.062535"><ele>509.0</ele><time>2026-04-03T08:29:47.117Z</time></trkpt><trkpt lat="42.9893767" lon="12.0625967"><ele>509.0</ele><time>2026-04-03T08:29:48.117Z</time></trkpt><trkpt lat="42.989225" lon="12.06267"><ele>511.75</ele><time>2026-04-03T08:29:49.116Z</time></trkpt><trkpt lat="42.9890667" lon="12.0627283"><ele>514.5</ele><time>2026-04-03T08:29:50.116Z</time></trkpt><trkpt lat="42.98892" lon="12.0627733"><ele>517.25</ele><time>2026-04-03T08:29:51.116Z</time></trkpt><trkpt lat="42.9887933" lon="12.062815"><ele>520.0</ele><time>2026-04-03T08:29:52.117Z</time></trkpt><trkpt lat="42.9886767" lon="12.06286"><ele>520.0</ele><time>2026-04-03T08:29:53.116Z</time></trkpt><trkpt lat="42.9885533" lon="12.0629067"><ele>520.0</ele><time>2026-04-03T08:29:54.116Z</time></trkpt><trkpt lat="42.98842" lon="12.06295"><ele>520.0</ele><time>2026-04-03T08:29:55.116Z</time></trkpt><trkpt lat="42.98829" lon="12.0630033"><ele>520.0</ele><time>2026-04-03T08:29:56.116Z</time></trkpt><trkpt lat="42.9881667" lon="12.0630217"><ele>522.75</ele><time>2026-04-03T08:29:57.116Z</time></trkpt><trkpt lat="42.988035" lon="12.06302"><ele>525.5</ele><time>2026-04-03T08:29:58.116Z</time></trkpt><trkpt lat="42.9879" lon="12.0630417"><ele>528.25</ele><time>2026-04-03T08:29:59.116Z</time></trkpt><trkpt lat="42.987765" lon="12.0630683"><ele>531.0</ele><time>2026-04-03T08:30:00.117Z</time></trkpt><trkpt lat="42.987645" lon="12.0631217"><ele>531.0</ele><time>2026-04-03T08:30:01.116Z</time></trkpt><trkpt lat="42.98752" lon="12.0631617"><ele>531.0</ele><time>2026-04-03T08:30:02.117Z</time></trkpt><trkpt lat="42.9874133" lon="12.06319"><ele>531.0</ele><time>2026-04-03T08:30:03.116Z</time></trkpt><trkpt lat="42.9873333" lon="12.0631783"><ele>531.0</ele><time>2026-04-03T08:30:04.117Z</time></trkpt><trkpt lat="42.9872767" lon="12.0631117"><ele>531.0</ele><time>2026-04-03T08:30:05.117Z</time></trkpt><trkpt lat="42.9872383" lon="12.0630167"><ele>531.0</ele><time>2026-04-03T08:30:06.117Z</time></trkpt><trkpt lat="42.9872017" lon="12.0628933"><ele>531.0</ele><time>2026-04-03T08:30:07.116Z</time></trkpt><trkpt lat="42.9871667" lon="12.0627517"><ele>531.0</ele><time>2026-04-03T08:30:08.116Z</time></trkpt><trkpt lat="42.9871283" lon="12.0626133"><ele>531.0</ele><time>2026-04-03T08:30:09.116Z</time></trkpt><trkpt lat="42.987075" lon="12.0624817"><ele>531.0</ele><time>2026-04-03T08:30:10.117Z</time></trkpt><trkpt lat="42.9870183" lon="12.0623733"><ele>527.8</ele><time>2026-04-03T08:30:11.117Z</time></trkpt><trkpt lat="42.9869517" lon="12.0622967"><ele>524.6</ele><time>2026-04-03T08:30:12.116Z</time></trkpt><trkpt lat="42.9868733" lon="12.0622267"><ele>521.4</ele><time>2026-04-03T08:30:13.116Z</time></trkpt><trkpt lat="42.9867767" lon="12.0621633"><ele>518.2</ele><time>2026-04-03T08:30:14.116Z</time></trkpt><trkpt lat="42.9866817" lon="12.0621067"><ele>515.0</ele><time>2026-04-03T08:30:15.116Z</time></trkpt><trkpt lat="42.9865933" lon="12.0620617"><ele>514.0</ele><time>2026-04-03T08:30:16.117Z</time></trkpt><trkpt lat="42.9865017" lon="12.0620417"><ele>513.0</ele><time>2026-04-03T08:30:17.116Z</time></trkpt><trkpt lat="42.9863967" lon="12.06203"><ele>512.0</ele><time>2026-04-03T08:30:18.116Z</time></trkpt><trkpt lat="42.986275" lon="12.0620333"><ele>511.0</ele><time>2026-04-03T08:30:19.117Z</time></trkpt><trkpt lat="42.9861383" lon="12.0620717"><ele>511.0</ele><time>2026-04-03T08:30:20.116Z</time></trkpt><trkpt lat="42.9859817" lon="12.06209"><ele>511.0</ele><time>2026-04-03T08:30:21.116Z</time></trkpt><trkpt lat="42.9858283" lon="12.0620967"><ele>511.0</ele><time>2026-04-03T08:30:22.116Z</time></trkpt><trkpt lat="42.9856733" lon="12.0620933"><ele>507.33333333333337</ele><time>2026-04-03T08:30:23.116Z</time></trkpt><trkpt lat="42.985525" lon="12.0620733"><ele>503.66666666666663</ele><time>2026-04-03T08:30:24.116Z</time></trkpt><trkpt lat="42.9853733" lon="12.0620533"><ele>500.0</ele><time>2026-04-03T08:30:25.116Z</time></trkpt><trkpt lat="42.985225" lon="12.062055"><ele>500.0</ele><time>2026-04-03T08:30:26.116Z</time></trkpt><trkpt lat="42.9851033" lon="12.0620767"><ele>500.0</ele><time>2026-04-03T08:30:27.116Z</time></trkpt><trkpt lat="42.985" lon="12.0620733"><ele>500.0</ele><time>2026-04-03T08:30:28.116Z</time></trkpt><trkpt lat="42.98492" lon="12.0620417"><ele>500.0</ele><time>2026-04-03T08:30:29.116Z</time></trkpt><trkpt lat="42.9848583" lon="12.0619833"><ele>500.0</ele><time>2026-04-03T08:30:30.116Z</time></trkpt><trkpt lat="42.98481" lon="12.0618833"><ele>500.0</ele><time>2026-04-03T08:30:31.116Z</time></trkpt><trkpt lat="42.9847783" lon="12.06174"><ele>500.0</ele><time>2026-04-03T08:30:32.116Z</time></trkpt><trkpt lat="42.984735" lon="12.0615917"><ele>500.0</ele><time>2026-04-03T08:30:33.116Z</time></trkpt><trkpt lat="42.9846883" lon="12.06147"><ele>500.0</ele><time>2026-04-03T08:30:34.116Z</time></trkpt><trkpt lat="42.9846317" lon="12.061395"><ele>500.0</ele><time>2026-04-03T08:30:35.117Z</time></trkpt><trkpt lat="42.98454" lon="12.06134"><ele>498.2</ele><time>2026-04-03T08:30:37.116Z</time></trkpt><trkpt lat="42.98443" lon="12.0613717"><ele>496.4</ele><time>2026-04-03T08:30:39.116Z</time></trkpt><trkpt lat="42.9843583" lon="12.061415"><ele>494.6</ele><time>2026-04-03T08:30:40.116Z</time></trkpt><trkpt lat="42.9842733" lon="12.0614933"><ele>492.8</ele><time>2026-04-03T08:30:41.116Z</time></trkpt><trkpt lat="42.984175" lon="12.0616217"><ele>491.0</ele><time>2026-04-03T08:30:42.116Z</time></trkpt><trkpt lat="42.9840483" lon="12.0617483"><ele>491.0</ele><time>2026-04-03T08:30:43.116Z</time></trkpt><trkpt lat="42.9838933" lon="12.0618667"><ele>491.0</ele><time>2026-04-03T08:30:44.116Z</time></trkpt><trkpt lat="42.983745" lon="12.0619717"><ele>491.0</ele><time>2026-04-03T08:30:45.116Z</time></trkpt><trkpt lat="42.9836167" lon="12.0620383"><ele>491.0</ele><time>2026-04-03T08:30:46.116Z</time></trkpt><trkpt lat="42.9835067" lon="12.0620617"><ele>491.0</ele><time>2026-04-03T08:30:47.116Z</time></trkpt><trkpt lat="42.9834067" lon="12.0620467"><ele>491.0</ele><time>2026-04-03T08:30:48.116Z</time></trkpt><trkpt lat="42.983295" lon="12.0620217"><ele>491.0</ele><time>2026-04-03T08:30:49.116Z</time></trkpt><trkpt lat="42.9831767" lon="12.0620017"><ele>491.0</ele><time>2026-04-03T08:30:50.117Z</time></trkpt><trkpt lat="42.9830417" lon="12.062005"><ele>488.25</ele><time>2026-04-03T08:30:51.116Z</time></trkpt><trkpt lat="42.9829" lon="12.062025"><ele>485.5</ele><time>2026-04-03T08:30:52.117Z</time></trkpt><trkpt lat="42.9827683" lon="12.0620583"><ele>482.75</ele><time>2026-04-03T08:30:53.116Z</time></trkpt><trkpt lat="42.9826483" lon="12.0620967"><ele>480.0</ele><time>2026-04-03T08:30:54.117Z</time></trkpt><trkpt lat="42.98255" lon="12.0621367"><ele>480.0</ele><time>2026-04-03T08:30:55.117Z</time></trkpt><trkpt lat="42.9824667" lon="12.0621717"><ele>480.0</ele><time>2026-04-03T08:30:56.116Z</time></trkpt><trkpt lat="42.9823867" lon="12.062205"><ele>480.0</ele><time>2026-04-03T08:30:57.116Z</time></trkpt><trkpt lat="42.9822983" lon="12.06223"><ele>480.0</ele><time>2026-04-03T08:30:58.116Z</time></trkpt><trkpt lat="42.982195" lon="12.0622467"><ele>480.0</ele><time>2026-04-03T08:30:59.117Z</time></trkpt><trkpt lat="42.98205" lon="12.06227"><ele>480.0</ele><time>2026-04-03T08:31:00.116Z</time></trkpt><trkpt lat="42.9818833" lon="12.062295"><ele>480.0</ele><time>2026-04-03T08:31:01.116Z</time></trkpt><trkpt lat="42.981725" lon="12.0623017"><ele>480.0</ele><time>2026-04-03T08:31:02.116Z</time></trkpt><trkpt lat="42.9815467" lon="12.0622783"><ele>477.33333333333337</ele><time>2026-04-03T08:31:03.116Z</time></trkpt><trkpt lat="42.9813767" lon="12.0622283"><ele>474.6666666666667</ele><time>2026-04-03T08:31:04.116Z</time></trkpt><trkpt lat="42.981225" lon="12.06216"><ele>472.0</ele><time>2026-04-03T08:31:05.117Z</time></trkpt><trkpt lat="42.9810767" lon="12.062105"><ele>472.0</ele><time>2026-04-03T08:31:06.116Z</time></trkpt><trkpt lat="42.9809283" lon="12.0620467"><ele>472.0</ele><time>2026-04-03T08:31:07.116Z</time></trkpt><trkpt lat="42.9807967" lon="12.0620167"><ele>472.0</ele><time>2026-04-03T08:31:08.117Z</time></trkpt><trkpt lat="42.9806667" lon="12.0619867"><ele>472.0</ele><time>2026-04-03T08:31:09.116Z</time></trkpt><trkpt lat="42.9805467" lon="12.06198"><ele>471.0</ele><time>2026-04-03T08:31:10.117Z</time></trkpt><trkpt lat="42.9804633" lon="12.0619333"><ele>470.00000000000006</ele><time>2026-04-03T08:31:11.117Z</time></trkpt><trkpt lat="42.9803817" lon="12.061855"><ele>469.00000000000006</ele><time>2026-04-03T08:31:12.116Z</time></trkpt><trkpt lat="42.9803017" lon="12.06177"><ele>468.0</ele><time>2026-04-03T08:31:13.117Z</time></trkpt><trkpt lat="42.98021" lon="12.0616617"><ele>467.0</ele><time>2026-04-03T08:31:14.116Z</time></trkpt><trkpt lat="42.98013" lon="12.061575"><ele>464.49999999999994</ele><time>2026-04-03T08:31:15.116Z</time></trkpt><trkpt lat="42.980055" lon="12.0615"><ele>462.0</ele><time>2026-04-03T08:31:16.116Z</time></trkpt><trkpt lat="42.9799817" lon="12.0614333"><ele>459.5</ele><time>2026-04-03T08:31:17.116Z</time></trkpt><trkpt lat="42.9799083" lon="12.061395"><ele>457.0</ele><time>2026-04-03T08:31:18.117Z</time></trkpt><trkpt lat="42.979825" lon="12.061375"><ele>454.49999999999994</ele><time>2026-04-03T08:31:19.116Z</time></trkpt><trkpt lat="42.979725" lon="12.0613933"><ele>452.0</ele><time>2026-04-03T08:31:20.116Z</time></trkpt><trkpt lat="42.97961" lon="12.0614467"><ele>453.0</ele><time>2026-04-03T08:31:21.116Z</time></trkpt><trkpt lat="42.9794983" lon="12.0615117"><ele>454.0</ele><time>2026-04-03T08:31:22.116Z</time></trkpt><trkpt lat="42.9793833" lon="12.0616217"><ele>455.0</ele><time>2026-04-03T08:31:23.116Z</time></trkpt><trkpt lat="42.9792683" lon="12.0617567"><ele>456.0</ele><time>2026-04-03T08:31:24.117Z</time></trkpt><trkpt lat="42.9791633" lon="12.0619"><ele>452.5</ele><time>2026-04-03T08:31:25.116Z</time></trkpt><trkpt lat="42.9790733" lon="12.0620333"><ele>449.0</ele><time>2026-04-03T08:31:26.116Z</time></trkpt><trkpt lat="42.978985" lon="12.0621367"><ele>445.5</ele><time>2026-04-03T08:31:27.116Z</time></trkpt><trkpt lat="42.9788917" lon="12.062235"><ele>442.0</ele><time>2026-04-03T08:31:28.116Z</time></trkpt><trkpt lat="42.9787933" lon="12.0623233"><ele>442.00000000000006</ele><time>2026-04-03T08:31:29.116Z</time></trkpt><trkpt lat="42.978705" lon="12.0623917"><ele>442.0</ele><time>2026-04-03T08:31:30.116Z</time></trkpt><trkpt lat="42.9786283" lon="12.06244"><ele>442.0</ele><time>2026-04-03T08:31:31.116Z</time></trkpt><trkpt lat="42.978555" lon="12.0624683"><ele>442.0</ele><time>2026-04-03T08:31:32.117Z</time></trkpt><trkpt lat="42.9784833" lon="12.0624817"><ele>442.00000000000006</ele><time>2026-04-03T08:31:33.117Z</time></trkpt><trkpt lat="42.9784183" lon="12.0624483"><ele>442.0</ele><time>2026-04-03T08:31:34.116Z</time></trkpt><trkpt lat="42.97836" lon="12.0623417"><ele>440.33333333333337</ele><time>2026-04-03T08:31:35.116Z</time></trkpt><trkpt lat="42.9783" lon="12.0622367"><ele>438.6666666666667</ele><time>2026-04-03T08:31:36.116Z</time></trkpt><trkpt lat="42.978245" lon="12.0621317"><ele>437.0</ele><time>2026-04-03T08:31:37.116Z</time></trkpt><trkpt lat="42.9781933" lon="12.0620517"><ele>435.33333333333337</ele><time>2026-04-03T08:31:38.117Z</time></trkpt><trkpt lat="42.9781433" lon="12.0619833"><ele>433.6666666666667</ele><time>2026-04-03T08:31:39.117Z</time></trkpt><trkpt lat="42.9780933" lon="12.0618883"><ele>432.0</ele><time>2026-04-03T08:31:41.117Z</time></trkpt><trkpt lat="42.9780967" lon="12.0617583"><ele>432.0</ele><time>2026-04-03T08:31:43.116Z</time></trkpt><trkpt lat="42.9780983" lon="12.0616667"><ele>432.0</ele><time>2026-04-03T08:31:44.117Z</time></trkpt><trkpt lat="42.9781167" lon="12.0615633"><ele>432.0</ele><time>2026-04-03T08:31:45.116Z</time></trkpt><trkpt lat="42.97816" lon="12.0614617"><ele>432.0</ele><time>2026-04-03T08:31:46.116Z</time></trkpt><trkpt lat="42.9782233" lon="12.061355"><ele>432.0</ele><time>2026-04-03T08:31:47.116Z</time></trkpt><trkpt lat="42.97829" lon="12.0612417"><ele>432.0</ele><time>2026-04-03T08:31:48.117Z</time></trkpt><trkpt lat="42.9783567" lon="12.0611267"><ele>432.6666666666667</ele><time>2026-04-03T08:31:49.117Z</time></trkpt><trkpt lat="42.9784183" lon="12.061015"><ele>433.33333333333337</ele><time>2026-04-03T08:31:50.116Z</time></trkpt><trkpt lat="42.978475" lon="12.060915"><ele>434.0</ele><time>2026-04-03T08:31:51.116Z</time></trkpt><trkpt lat="42.9785267" lon="12.0608267"><ele>434.6666666666667</ele><time>2026-04-03T08:31:52.117Z</time></trkpt><trkpt lat="42.97857" lon="12.0607483"><ele>435.33333333333337</ele><time>2026-04-03T08:31:53.116Z</time></trkpt><trkpt lat="42.9786183" lon="12.06069"><ele>436.0</ele><time>2026-04-03T08:31:54.117Z</time></trkpt><trkpt lat="42.9786883" lon="12.06064"><ele>433.25</ele><time>2026-04-03T08:31:56.117Z</time></trkpt><trkpt lat="42.9787867" lon="12.060575"><ele>430.5</ele><time>2026-04-03T08:31:58.117Z</time></trkpt><trkpt lat="42.9789017" lon="12.0604917"><ele>427.75</ele><time>2026-04-03T08:32:00.116Z</time></trkpt><trkpt lat="42.9789967" lon="12.060395"><ele>425.0</ele><time>2026-04-03T08:32:02.116Z</time></trkpt><trkpt lat="42.9790667" lon="12.06031"><ele>425.0</ele><time>2026-04-03T08:32:04.116Z</time></trkpt><trkpt lat="42.9791267" lon="12.0602017"><ele>425.0</ele><time>2026-04-03T08:32:06.116Z</time></trkpt><trkpt lat="42.9792017" lon="12.06007"><ele>425.0</ele><time>2026-04-03T08:32:08.116Z</time></trkpt><trkpt lat="42.9792717" lon="12.059945"><ele>425.0</ele><time>2026-04-03T08:32:10.116Z</time></trkpt><trkpt lat="42.9793567" lon="12.0598317"><ele>425.16666666666663</ele><time>2026-04-03T08:32:12.116Z</time></trkpt><trkpt lat="42.9794133" lon="12.0597717"><ele>425.3333333333333</ele><time>2026-04-03T08:32:14.116Z</time></trkpt><trkpt lat="42.9794667" lon="12.059725"><ele>425.5</ele><time>2026-04-03T08:32:20.116Z</time></trkpt><trkpt lat="42.9795317" lon="12.0596517"><ele>425.66666666666663</ele><time>2026-04-03T08:32:23.116Z</time></trkpt><trkpt lat="42.9795983" lon="12.0595733"><ele>425.8333333333333</ele><time>2026-04-03T08:32:25.116Z</time></trkpt><trkpt lat="42.9796567" lon="12.0594933"><ele>426.0</ele><time>2026-04-03T08:32:27.116Z</time></trkpt><trkpt lat="42.9797233" lon="12.05936"><ele>426.0</ele><time>2026-04-03T08:32:29.116Z</time></trkpt><trkpt lat="42.9797583" lon="12.0592717"><ele>426.0</ele><time>2026-04-03T08:32:30.117Z</time></trkpt><trkpt lat="42.9797833" lon="12.0591783"><ele>426.0</ele><time>2026-04-03T08:32:31.117Z</time></trkpt><trkpt lat="42.9798083" lon="12.05908"><ele>426.0</ele><time>2026-04-03T08:32:32.116Z</time></trkpt><trkpt lat="42.9798267" lon="12.0589633"><ele>426.0</ele><time>2026-04-03T08:32:33.116Z</time></trkpt><trkpt lat="42.97984" lon="12.0588383"><ele>426.0</ele><time>2026-04-03T08:32:34.116Z</time></trkpt><trkpt lat="42.97985" lon="12.0587117"><ele>425.6666666666667</ele><time>2026-04-03T08:32:35.116Z</time></trkpt><trkpt lat="42.9798683" lon="12.0585867"><ele>425.33333333333337</ele><time>2026-04-03T08:32:36.116Z</time></trkpt><trkpt lat="42.9798833" lon="12.0584717"><ele>425.0</ele><time>2026-04-03T08:32:37.117Z</time></trkpt><trkpt lat="42.9798967" lon="12.0583717"><ele>424.6666666666667</ele><time>2026-04-03T08:32:38.117Z</time></trkpt><trkpt lat="42.9799033" lon="12.0582833"><ele>424.33333333333337</ele><time>2026-04-03T08:32:39.117Z</time></trkpt><trkpt lat="42.979905" lon="12.0581967"><ele>424.0</ele><time>2026-04-03T08:32:40.116Z</time></trkpt><trkpt lat="42.97992" lon="12.0580567"><ele>422.6</ele><time>2026-04-03T08:32:42.116Z</time></trkpt><trkpt lat="42.979925" lon="12.05794"><ele>421.2</ele><time>2026-04-03T08:32:44.116Z</time></trkpt><trkpt lat="42.9799317" lon="12.05781"><ele>419.8</ele><time>2026-04-03T08:32:46.116Z</time></trkpt><trkpt lat="42.97994" lon="12.05764"><ele>418.40000000000003</ele><time>2026-04-03T08:32:48.116Z</time></trkpt><trkpt lat="42.97996" lon="12.05755"><ele>417.0</ele><time>2026-04-03T08:32:49.116Z</time></trkpt><trkpt lat="42.9799783" lon="12.0574467"><ele>416.6666666666667</ele><time>2026-04-03T08:32:50.116Z</time></trkpt><trkpt lat="42.9799967" lon="12.0573567"><ele>416.33333333333337</ele><time>2026-04-03T08:32:51.116Z</time></trkpt><trkpt lat="42.9800217" lon="12.05726"><ele>416.0</ele><time>2026-04-03T08:32:52.116Z</time></trkpt><trkpt lat="42.98006" lon="12.0571333"><ele>415.6666666666667</ele><time>2026-04-03T08:32:54.116Z</time></trkpt><trkpt lat="42.9801033" lon="12.0570067"><ele>415.33333333333337</ele><time>2026-04-03T08:32:56.116Z</time></trkpt><trkpt lat="42.980135" lon="12.0569233"><ele>415.0</ele><time>2026-04-03T08:32:57.116Z</time></trkpt><trkpt lat="42.9801633" lon="12.05684"><ele>415.00000000000006</ele><time>2026-04-03T08:32:58.117Z</time></trkpt><trkpt lat="42.980185" lon="12.0567583"><ele>415.0</ele><time>2026-04-03T08:32:59.116Z</time></trkpt><trkpt lat="42.9802367" lon="12.0566117"><ele>415.0</ele><time>2026-04-03T08:33:01.116Z</time></trkpt><trkpt lat="42.98026" lon="12.0565283"><ele>415.0</ele><time>2026-04-03T08:33:02.116Z</time></trkpt><trkpt lat="42.98028" lon="12.05644"><ele>415.00000000000006</ele><time>2026-04-03T08:33:03.116Z</time></trkpt><trkpt lat="42.9803" lon="12.0563517"><ele>415.0</ele><time>2026-04-03T08:33:04.116Z</time></trkpt><trkpt lat="42.980315" lon="12.0561917"><ele>414.50000000000006</ele><time>2026-04-03T08:33:06.117Z</time></trkpt><trkpt lat="42.980275" lon="12.056025"><ele>414.0</ele><time>2026-04-03T08:33:08.116Z</time></trkpt><trkpt lat="42.9802417" lon="12.0559267"><ele>413.5</ele><time>2026-04-03T08:33:09.116Z</time></trkpt><trkpt lat="42.98021" lon="12.0558467"><ele>413.0</ele><time>2026-04-03T08:33:10.116Z</time></trkpt><trkpt lat="42.9801817" lon="12.0557633"><ele>412.50000000000006</ele><time>2026-04-03T08:33:11.117Z</time></trkpt><trkpt lat="42.9801633" lon="12.0556617"><ele>412.0</ele><time>2026-04-03T08:33:12.116Z</time></trkpt><trkpt lat="42.9801683" lon="12.055505"><ele>411.50000000000006</ele><time>2026-04-03T08:33:14.116Z</time></trkpt><trkpt lat="42.98021" lon="12.0553433"><ele>411.0</ele><time>2026-04-03T08:33:16.116Z</time></trkpt><trkpt lat="42.9802317" lon="12.055255"><ele>410.5</ele><time>2026-04-03T08:33:17.117Z</time></trkpt><trkpt lat="42.98025" lon="12.05516"><ele>410.0</ele><time>2026-04-03T08:33:18.116Z</time></trkpt><trkpt lat="42.980275" lon="12.0550633"><ele>409.50000000000006</ele><time>2026-04-03T08:33:19.116Z</time></trkpt><trkpt lat="42.9802883" lon="12.0549533"><ele>409.0</ele><time>2026-04-03T08:33:20.116Z</time></trkpt><trkpt lat="42.9802867" lon="12.0548567"><ele>408.2</ele><time>2026-04-03T08:33:21.117Z</time></trkpt><trkpt lat="42.980275" lon="12.0547533"><ele>407.4</ele><time>2026-04-03T08:33:22.116Z</time></trkpt><trkpt lat="42.9802517" lon="12.0546533"><ele>406.6</ele><time>2026-04-03T08:33:23.117Z</time></trkpt><trkpt lat="42.98022" lon="12.05457"><ele>405.8</ele><time>2026-04-03T08:33:24.116Z</time></trkpt><trkpt lat="42.98017" lon="12.0544383"><ele>405.0</ele><time>2026-04-03T08:33:26.116Z</time></trkpt><trkpt lat="42.980155" lon="12.0542683"><ele>405.0</ele><time>2026-04-03T08:33:28.117Z</time></trkpt><trkpt lat="42.9801433" lon="12.05418"><ele>405.0</ele><time>2026-04-03T08:33:29.116Z</time></trkpt><trkpt lat="42.9801117" lon="12.0540367"><ele>405.0</ele><time>2026-04-03T08:33:31.116Z</time></trkpt><trkpt lat="42.980095" lon="12.0539033"><ele>405.0</ele><time>2026-04-03T08:33:33.116Z</time></trkpt><trkpt lat="42.9800983" lon="12.0537517"><ele>405.0</ele><time>2026-04-03T08:33:35.116Z</time></trkpt><trkpt lat="42.9801183" lon="12.0535867"><ele>404.2</ele><time>2026-04-03T08:33:37.116Z</time></trkpt><trkpt lat="42.98019" lon="12.0534483"><ele>403.4</ele><time>2026-04-03T08:33:39.116Z</time></trkpt><trkpt lat="42.980255" lon="12.0533967"><ele>402.6</ele><time>2026-04-03T08:33:40.116Z</time></trkpt><trkpt lat="42.9803367" lon="12.0533367"><ele>401.8</ele><time>2026-04-03T08:33:41.116Z</time></trkpt><trkpt lat="42.9804117" lon="12.0532867"><ele>401.0</ele><time>2026-04-03T08:33:42.117Z</time></trkpt><trkpt lat="42.98049" lon="12.05324"><ele>399.8333333333333</ele><time>2026-04-03T08:33:43.116Z</time></trkpt><trkpt lat="42.9805683" lon="12.0531883"><ele>398.66666666666663</ele><time>2026-04-03T08:33:44.117Z</time></trkpt><trkpt lat="42.98064" lon="12.05314"><ele>397.5</ele><time>2026-04-03T08:33:45.116Z</time></trkpt><trkpt lat="42.9806983" lon="12.0531"><ele>396.33333333333337</ele><time>2026-04-03T08:33:46.116Z</time></trkpt><trkpt lat="42.9807783" lon="12.0530367"><ele>395.1666666666667</ele><time>2026-04-03T08:33:48.116Z</time></trkpt><trkpt lat="42.980855" lon="12.052965"><ele>394.0</ele><time>2026-04-03T08:33:50.117Z</time></trkpt><trkpt lat="42.9809283" lon="12.0528967"><ele>393.0</ele><time>2026-04-03T08:33:52.117Z</time></trkpt><trkpt lat="42.9809567" lon="12.0528083"><ele>392.0</ele><time>2026-04-03T08:33:54.117Z</time></trkpt><trkpt lat="42.980975" lon="12.0527017"><ele>391.0</ele><time>2026-04-03T08:33:56.116Z</time></trkpt><trkpt lat="42.9810317" lon="12.0526233"><ele>390.0</ele><time>2026-04-03T08:33:58.116Z</time></trkpt><trkpt lat="42.9811017" lon="12.05259"><ele>389.0</ele><time>2026-04-03T08:34:00.116Z</time></trkpt><trkpt lat="42.981115" lon="12.0524883"><ele>388.0</ele><time>2026-04-03T08:34:03.116Z</time></trkpt><trkpt lat="42.9811533" lon="12.0524133"><ele>387.0</ele><time>2026-04-03T08:34:06.116Z</time></trkpt><trkpt lat="42.9812817" lon="12.052385"><ele>386.8333333333333</ele><time>2026-04-03T08:34:08.117Z</time></trkpt><trkpt lat="42.981365" lon="12.052385"><ele>386.66666666666663</ele><time>2026-04-03T08:34:09.117Z</time></trkpt><trkpt lat="42.9814417" lon="12.05238"><ele>386.5</ele><time>2026-04-03T08:34:10.116Z</time></trkpt><trkpt lat="42.9815117" lon="12.052375"><ele>386.3333333333333</ele><time>2026-04-03T08:34:11.117Z</time></trkpt><trkpt lat="42.9815783" lon="12.0523317"><ele>386.16666666666663</ele><time>2026-04-03T08:34:12.116Z</time></trkpt><trkpt lat="42.9816233" lon="12.0522267"><ele>386.0</ele><time>2026-04-03T08:34:13.116Z</time></trkpt><trkpt lat="42.981665" lon="12.052085"><ele>383.75</ele><time>2026-04-03T08:34:14.116Z</time></trkpt><trkpt lat="42.981695" lon="12.0519083"><ele>381.5</ele><time>2026-04-03T08:34:15.116Z</time></trkpt><trkpt lat="42.9817083" lon="12.05173"><ele>379.25</ele><time>2026-04-03T08:34:16.116Z</time></trkpt><trkpt lat="42.981715" lon="12.0515883"><ele>377.0</ele><time>2026-04-03T08:34:17.116Z</time></trkpt><trkpt lat="42.9817383" lon="12.0514683"><ele>375.20000000000005</ele><time>2026-04-03T08:34:18.116Z</time></trkpt><trkpt lat="42.9817817" lon="12.051355"><ele>373.4</ele><time>2026-04-03T08:34:19.116Z</time></trkpt><trkpt lat="42.981835" lon="12.0512467"><ele>371.6</ele><time>2026-04-03T08:34:20.116Z</time></trkpt><trkpt lat="42.9818933" lon="12.05113"><ele>369.79999999999995</ele><time>2026-04-03T08:34:21.116Z</time></trkpt><trkpt lat="42.9819517" lon="12.05099"><ele>368.0</ele><time>2026-04-03T08:34:22.117Z</time></trkpt><trkpt lat="42.9819983" lon="12.0508433"><ele>368.2</ele><time>2026-04-03T08:34:23.117Z</time></trkpt><trkpt lat="42.9820267" lon="12.0507083"><ele>368.4</ele><time>2026-04-03T08:34:24.116Z</time></trkpt><trkpt lat="42.98206" lon="12.0505767"><ele>368.59999999999997</ele><time>2026-04-03T08:34:25.116Z</time></trkpt><trkpt lat="42.982095" lon="12.0504367"><ele>368.79999999999995</ele><time>2026-04-03T08:34:26.117Z</time></trkpt><trkpt lat="42.9821" lon="12.05028"><ele>369.0</ele><time>2026-04-03T08:34:27.116Z</time></trkpt><trkpt lat="42.98209" lon="12.050115"><ele>367.6</ele><time>2026-04-03T08:34:28.116Z</time></trkpt><trkpt lat="42.9820667" lon="12.0499567"><ele>366.2</ele><time>2026-04-03T08:34:29.116Z</time></trkpt><trkpt lat="42.982035" lon="12.0498267"><ele>364.8</ele><time>2026-04-03T08:34:30.117Z</time></trkpt><trkpt lat="42.982005" lon="12.049715"><ele>363.40000000000003</ele><time>2026-04-03T08:34:31.117Z</time></trkpt><trkpt lat="42.9819867" lon="12.04959"><ele>362.0</ele><time>2026-04-03T08:34:32.116Z</time></trkpt><trkpt lat="42.9819733" lon="12.049455"><ele>362.0</ele><time>2026-04-03T08:34:33.117Z</time></trkpt><trkpt lat="42.9819667" lon="12.0493267"><ele>362.0</ele><time>2026-04-03T08:34:34.117Z</time></trkpt><trkpt lat="42.9819483" lon="12.04921"><ele>362.0</ele><time>2026-04-03T08:34:35.116Z</time></trkpt><trkpt lat="42.98191" lon="12.0491083"><ele>362.0</ele><time>2026-04-03T08:34:36.117Z</time></trkpt><trkpt lat="42.981855" lon="12.0489933"><ele>362.0</ele><time>2026-04-03T08:34:37.116Z</time></trkpt><trkpt lat="42.9818017" lon="12.0488633"><ele>359.83333333333337</ele><time>2026-04-03T08:34:38.116Z</time></trkpt><trkpt lat="42.9817783" lon="12.04875"><ele>357.6666666666667</ele><time>2026-04-03T08:34:39.116Z</time></trkpt><trkpt lat="42.9817767" lon="12.048645"><ele>355.5</ele><time>2026-04-03T08:34:40.117Z</time></trkpt><trkpt lat="42.9817917" lon="12.048535"><ele>353.3333333333333</ele><time>2026-04-03T08:34:41.117Z</time></trkpt><trkpt lat="42.9818133" lon="12.0484217"><ele>351.16666666666663</ele><time>2026-04-03T08:34:42.117Z</time></trkpt><trkpt lat="42.9818517" lon="12.048295"><ele>349.0</ele><time>2026-04-03T08:34:43.116Z</time></trkpt><trkpt lat="42.9818833" lon="12.04816"><ele>348.5</ele><time>2026-04-03T08:34:44.116Z</time></trkpt><trkpt lat="42.9818867" lon="12.04798"><ele>348.0</ele><time>2026-04-03T08:34:45.116Z</time></trkpt><trkpt lat="42.98188" lon="12.0478033"><ele>347.5</ele><time>2026-04-03T08:34:46.117Z</time></trkpt><trkpt lat="42.981885" lon="12.0476333"><ele>347.0</ele><time>2026-04-03T08:34:47.116Z</time></trkpt><trkpt lat="42.9818767" lon="12.047455"><ele>347.0</ele><time>2026-04-03T08:34:48.116Z</time></trkpt><trkpt lat="42.981855" lon="12.0472683"><ele>347.0</ele><time>2026-04-03T08:34:49.116Z</time></trkpt><trkpt lat="42.9818333" lon="12.047095"><ele>347.0</ele><time>2026-04-03T08:34:50.116Z</time></trkpt><trkpt lat="42.9818033" lon="12.0469517"><ele>347.0</ele><time>2026-04-03T08:34:51.117Z</time></trkpt><trkpt lat="42.9817883" lon="12.046825"><ele>347.0</ele><time>2026-04-03T08:34:52.116Z</time></trkpt><trkpt lat="42.9817883" lon="12.04669"><ele>347.0</ele><time>2026-04-03T08:34:53.116Z</time></trkpt><trkpt lat="42.9818133" lon="12.046575"><ele>347.0</ele><time>2026-04-03T08:34:54.117Z</time></trkpt><trkpt lat="42.9818633" lon="12.0464567"><ele>347.0</ele><time>2026-04-03T08:34:55.116Z</time></trkpt><trkpt lat="42.9819233" lon="12.046315"><ele>347.0</ele><time>2026-04-03T08:34:56.117Z</time></trkpt><trkpt lat="42.9819683" lon="12.0461933"><ele>347.6666666666667</ele><time>2026-04-03T08:34:57.116Z</time></trkpt><trkpt lat="42.9820017" lon="12.0460867"><ele>348.33333333333337</ele><time>2026-04-03T08:34:58.116Z</time></trkpt><trkpt lat="42.9820217" lon="12.046"><ele>349.0</ele><time>2026-04-03T08:34:59.116Z</time></trkpt><trkpt lat="42.982035" lon="12.04591"><ele>349.6666666666667</ele><time>2026-04-03T08:35:00.117Z</time></trkpt><trkpt lat="42.98204" lon="12.0457933"><ele>350.3333333333333</ele><time>2026-04-03T08:35:01.116Z</time></trkpt><trkpt lat="42.9820333" lon="12.0456817"><ele>351.0</ele><time>2026-04-03T08:35:02.117Z</time></trkpt><trkpt lat="42.9820067" lon="12.0455533"><ele>352.3333333333333</ele><time>2026-04-03T08:35:04.116Z</time></trkpt><trkpt lat="42.98196" lon="12.0454517"><ele>353.6666666666667</ele><time>2026-04-03T08:35:07.116Z</time></trkpt><trkpt lat="42.981955" lon="12.0453117"><ele>355.0</ele><time>2026-04-03T08:35:09.116Z</time></trkpt><trkpt lat="42.9819933" lon="12.0451517"><ele>356.33333333333337</ele><time>2026-04-03T08:35:11.117Z</time></trkpt><trkpt lat="42.9820217" lon="12.0450733"><ele>357.6666666666667</ele><time>2026-04-03T08:35:12.116Z</time></trkpt><trkpt lat="42.9820617" lon="12.0449917"><ele>359.0</ele><time>2026-04-03T08:35:13.116Z</time></trkpt><trkpt lat="42.9821067" lon="12.0449217"><ele>360.83333333333337</ele><time>2026-04-03T08:35:14.116Z</time></trkpt><trkpt lat="42.9821517" lon="12.044855"><ele>362.6666666666667</ele><time>2026-04-03T08:35:15.116Z</time></trkpt><trkpt lat="42.98222" lon="12.044795"><ele>364.5</ele><time>2026-04-03T08:35:16.117Z</time></trkpt><trkpt lat="42.9822883" lon="12.0447317"><ele>366.3333333333333</ele><time>2026-04-03T08:35:17.117Z</time></trkpt><trkpt lat="42.98236" lon="12.0446633"><ele>368.16666666666663</ele><time>2026-04-03T08:35:18.116Z</time></trkpt><trkpt lat="42.9824133" lon="12.0446133"><ele>370.0</ele><time>2026-04-03T08:35:19.117Z</time></trkpt><trkpt lat="42.9824867" lon="12.0444967"><ele>367.66666666666663</ele><time>2026-04-03T08:35:21.117Z</time></trkpt><trkpt lat="42.9825183" lon="12.0444167"><ele>365.3333333333333</ele><time>2026-04-03T08:35:22.116Z</time></trkpt><trkpt lat="42.982555" lon="12.0443333"><ele>363.0</ele><time>2026-04-03T08:35:23.116Z</time></trkpt><trkpt lat="42.9825817" lon="12.044245"><ele>360.6666666666667</ele><time>2026-04-03T08:35:24.116Z</time></trkpt><trkpt lat="42.9826283" lon="12.0441217"><ele>358.33333333333337</ele><time>2026-04-03T08:35:26.116Z</time></trkpt><trkpt lat="42.9826483" lon="12.044035"><ele>356.0</ele><time>2026-04-03T08:35:28.116Z</time></trkpt><trkpt lat="42.9826933" lon="12.043945"><ele>356.0</ele><time>2026-04-03T08:35:31.116Z</time></trkpt><trkpt lat="42.98278" lon="12.0438783"><ele>356.0</ele><time>2026-04-03T08:35:33.116Z</time></trkpt><trkpt lat="42.9828967" lon="12.0438233"><ele>356.0</ele><time>2026-04-03T08:35:35.115Z</time></trkpt><trkpt lat="42.9830083" lon="12.0437467"><ele>356.0</ele><time>2026-04-03T08:35:37.115Z</time></trkpt><trkpt lat="42.9830683" lon="12.0436817"><ele>356.0</ele><time>2026-04-03T08:35:38.116Z</time></trkpt><trkpt lat="42.9831183" lon="12.0436017"><ele>356.0</ele><time>2026-04-03T08:35:39.115Z</time></trkpt><trkpt lat="42.9831733" lon="12.0434983"><ele>356.0</ele><time>2026-04-03T08:35:40.115Z</time></trkpt><trkpt lat="42.983215" lon="12.0433767"><ele>356.0</ele><time>2026-04-03T08:35:41.115Z</time></trkpt><trkpt lat="42.9832633" lon="12.0432433"><ele>356.0</ele><time>2026-04-03T08:35:42.115Z</time></trkpt><trkpt lat="42.9833" lon="12.0430967"><ele>356.0</ele><time>2026-04-03T08:35:43.116Z</time></trkpt><trkpt lat="42.9833333" lon="12.04293"><ele>350.25</ele><time>2026-04-03T08:35:44.115Z</time></trkpt><trkpt lat="42.983365" lon="12.0427517"><ele>344.5</ele><time>2026-04-03T08:35:45.115Z</time></trkpt><trkpt lat="42.983395" lon="12.0425767"><ele>338.75</ele><time>2026-04-03T08:35:46.115Z</time></trkpt><trkpt lat="42.9834217" lon="12.0424233"><ele>333.0</ele><time>2026-04-03T08:35:47.115Z</time></trkpt><trkpt lat="42.9834483" lon="12.0423183"><ele>332.79999999999995</ele><time>2026-04-03T08:35:48.116Z</time></trkpt><trkpt lat="42.983475" lon="12.0422367"><ele>332.6</ele><time>2026-04-03T08:35:49.115Z</time></trkpt><trkpt lat="42.9835067" lon="12.0420817"><ele>332.4</ele><time>2026-04-03T08:35:51.115Z</time></trkpt><trkpt lat="42.9835" lon="12.0419833"><ele>332.20000000000005</ele><time>2026-04-03T08:35:53.115Z</time></trkpt><trkpt lat="42.98349" lon="12.04185"><ele>332.0</ele><time>2026-04-03T08:35:55.115Z</time></trkpt><trkpt lat="42.9834883" lon="12.0417067"><ele>331.0</ele><time>2026-04-03T08:35:56.116Z</time></trkpt><trkpt lat="42.9834733" lon="12.0415233"><ele>330.0</ele><time>2026-04-03T08:35:57.115Z</time></trkpt><trkpt lat="42.9834567" lon="12.0413317"><ele>329.0</ele><time>2026-04-03T08:35:58.115Z</time></trkpt><trkpt lat="42.9834367" lon="12.0411567"><ele>328.0</ele><time>2026-04-03T08:35:59.116Z</time></trkpt><trkpt lat="42.983415" lon="12.0409767"><ele>327.75</ele><time>2026-04-03T08:36:00.116Z</time></trkpt><trkpt lat="42.9833917" lon="12.0407933"><ele>327.5</ele><time>2026-04-03T08:36:01.116Z</time></trkpt><trkpt lat="42.9833733" lon="12.0406133"><ele>327.25</ele><time>2026-04-03T08:36:02.116Z</time></trkpt><trkpt lat="42.9833583" lon="12.04043"><ele>327.0</ele><time>2026-04-03T08:36:03.115Z</time></trkpt><trkpt lat="42.9833433" lon="12.04025"><ele>327.0</ele><time>2026-04-03T08:36:04.115Z</time></trkpt><trkpt lat="42.98332" lon="12.040075"><ele>327.0</ele><time>2026-04-03T08:36:05.115Z</time></trkpt><trkpt lat="42.9832917" lon="12.0399183"><ele>327.0</ele><time>2026-04-03T08:36:06.116Z</time></trkpt><trkpt lat="42.9832567" lon="12.039765"><ele>327.0</ele><time>2026-04-03T08:36:07.116Z</time></trkpt><trkpt lat="42.98322" lon="12.039635"><ele>323.5</ele><time>2026-04-03T08:36:08.115Z</time></trkpt><trkpt lat="42.98318" lon="12.03951"><ele>320.0</ele><time>2026-04-03T08:36:09.115Z</time></trkpt><trkpt lat="42.983125" lon="12.039385"><ele>316.5</ele><time>2026-04-03T08:36:10.115Z</time></trkpt><trkpt lat="42.983055" lon="12.0392417"><ele>313.0</ele><time>2026-04-03T08:36:11.115Z</time></trkpt><trkpt lat="42.982965" lon="12.0390767"><ele>312.0</ele><time>2026-04-03T08:36:12.115Z</time></trkpt><trkpt lat="42.9828733" lon="12.0389033"><ele>311.0</ele><time>2026-04-03T08:36:13.116Z</time></trkpt><trkpt lat="42.98278" lon="12.0387317"><ele>310.0</ele><time>2026-04-03T08:36:14.116Z</time></trkpt><trkpt lat="42.9827017" lon="12.03859"><ele>309.0</ele><time>2026-04-03T08:36:15.115Z</time></trkpt><trkpt lat="42.9826433" lon="12.0384717"><ele>309.0</ele><time>2026-04-03T08:36:16.115Z</time></trkpt><trkpt lat="42.9826033" lon="12.03839"><ele>309.0</ele><time>2026-04-03T08:36:17.115Z</time></trkpt><trkpt lat="42.9825783" lon="12.0382933"><ele>309.0</ele><time>2026-04-03T08:36:19.115Z</time></trkpt><trkpt lat="42.9826217" lon="12.03817"><ele>309.0</ele><time>2026-04-03T08:36:21.115Z</time></trkpt><trkpt lat="42.982625" lon="12.038045"><ele>309.0</ele><time>2026-04-03T08:36:23.115Z</time></trkpt><trkpt lat="42.9825917" lon="12.0379517"><ele>309.0</ele><time>2026-04-03T08:36:24.115Z</time></trkpt><trkpt lat="42.9825533" lon="12.0378383"><ele>307.25</ele><time>2026-04-03T08:36:25.116Z</time></trkpt><trkpt lat="42.9825267" lon="12.0376883"><ele>305.5</ele><time>2026-04-03T08:36:26.115Z</time></trkpt><trkpt lat="42.9825083" lon="12.0375"><ele>303.75</ele><time>2026-04-03T08:36:27.115Z</time></trkpt><trkpt lat="42.982485" lon="12.0373233"><ele>302.0</ele><time>2026-04-03T08:36:28.115Z</time></trkpt><trkpt lat="42.98244" lon="12.0371733"><ele>301.2</ele><time>2026-04-03T08:36:29.116Z</time></trkpt><trkpt lat="42.9823983" lon="12.0370717"><ele>300.4</ele><time>2026-04-03T08:36:30.116Z</time></trkpt><trkpt lat="42.9823483" lon="12.0369867"><ele>299.6</ele><time>2026-04-03T08:36:31.116Z</time></trkpt><trkpt lat="42.98228" lon="12.036855"><ele>298.8</ele><time>2026-04-03T08:36:33.115Z</time></trkpt><trkpt lat="42.982195" lon="12.0367617"><ele>298.0</ele><time>2026-04-03T08:36:35.116Z</time></trkpt><trkpt lat="42.98209" lon="12.0366633"><ele>297.8333333333333</ele><time>2026-04-03T08:36:37.115Z</time></trkpt><trkpt lat="42.9820367" lon="12.036605"><ele>297.66666666666663</ele><time>2026-04-03T08:36:38.116Z</time></trkpt><trkpt lat="42.9819733" lon="12.0365417"><ele>297.5</ele><time>2026-04-03T08:36:39.115Z</time></trkpt><trkpt lat="42.9819067" lon="12.0364833"><ele>297.3333333333333</ele><time>2026-04-03T08:36:40.116Z</time></trkpt><trkpt lat="42.9818433" lon="12.0364283"><ele>297.1666666666667</ele><time>2026-04-03T08:36:41.116Z</time></trkpt><trkpt lat="42.9817667" lon="12.0363783"><ele>297.0</ele><time>2026-04-03T08:36:43.115Z</time></trkpt><trkpt lat="42.98182" lon="12.0364833"><ele>297.0</ele><time>2026-04-03T08:36:52.116Z</time></trkpt><trkpt lat="42.9818833" lon="12.03652"><ele>297.0</ele><time>2026-04-03T08:36:53.115Z</time></trkpt><trkpt lat="42.9819567" lon="12.03658"><ele>297.0</ele><time>2026-04-03T08:36:54.115Z</time></trkpt><trkpt lat="42.98205" lon="12.0366633"><ele>297.0</ele><time>2026-04-03T08:36:55.115Z</time></trkpt><trkpt lat="42.98216" lon="12.03677"><ele>297.0</ele><time>2026-04-03T08:36:56.115Z</time></trkpt><trkpt lat="42.9822633" lon="12.03688"><ele>297.1666666666667</ele><time>2026-04-03T08:36:57.115Z</time></trkpt><trkpt lat="42.9823417" lon="12.0369733"><ele>297.3333333333333</ele><time>2026-04-03T08:36:58.115Z</time></trkpt><trkpt lat="42.9823817" lon="12.0370483"><ele>297.5</ele><time>2026-04-03T08:36:59.116Z</time></trkpt><trkpt lat="42.9824283" lon="12.03713"><ele>297.66666666666663</ele><time>2026-04-03T08:37:01.115Z</time></trkpt><trkpt lat="42.9824417" lon="12.0370367"><ele>297.8333333333333</ele><time>2026-04-03T08:37:05.115Z</time></trkpt><trkpt lat="42.982405" lon="12.0368933"><ele>298.0</ele><time>2026-04-03T08:37:07.115Z</time></trkpt><trkpt lat="42.9823733" lon="12.03679"><ele>298.0</ele><time>2026-04-03T08:37:09.115Z</time></trkpt><trkpt lat="42.98234" lon="12.0366867"><ele>298.0</ele><time>2026-04-03T08:37:11.115Z</time></trkpt><trkpt lat="42.98231" lon="12.0366083"><ele>298.0</ele><time>2026-04-03T08:37:12.116Z</time></trkpt><trkpt lat="42.982275" lon="12.0365167"><ele>298.0</ele><time>2026-04-03T08:37:13.116Z</time></trkpt><trkpt lat="42.9822383" lon="12.03642"><ele>298.0</ele><time>2026-04-03T08:37:14.115Z</time></trkpt><trkpt lat="42.982205" lon="12.0363117"><ele>298.0</ele><time>2026-04-03T08:37:15.115Z</time></trkpt><trkpt lat="42.98218" lon="12.0362017"><ele>297.8</ele><time>2026-04-03T08:37:16.115Z</time></trkpt><trkpt lat="42.9821367" lon="12.0360917"><ele>297.6</ele><time>2026-04-03T08:37:17.115Z</time></trkpt><trkpt lat="42.9820833" lon="12.0359867"><ele>297.4</ele><time>2026-04-03T08:37:18.116Z</time></trkpt><trkpt lat="42.9820133" lon="12.03587"><ele>297.2</ele><time>2026-04-03T08:37:19.115Z</time></trkpt><trkpt lat="42.9819417" lon="12.0357483"><ele>297.0</ele><time>2026-04-03T08:37:20.116Z</time></trkpt><trkpt lat="42.9818833" lon="12.0356117"><ele>300.25</ele><time>2026-04-03T08:37:21.115Z</time></trkpt><trkpt lat="42.9818283" lon="12.035475"><ele>303.5</ele><time>2026-04-03T08:37:22.115Z</time></trkpt><trkpt lat="42.9817733" lon="12.0353283"><ele>306.75</ele><time>2026-04-03T08:37:23.115Z</time></trkpt><trkpt lat="42.9817333" lon="12.0351783"><ele>310.0</ele><time>2026-04-03T08:37:24.116Z</time></trkpt><trkpt lat="42.9817017" lon="12.035025"><ele>313.25</ele><time>2026-04-03T08:37:25.115Z</time></trkpt><trkpt lat="42.981695" lon="12.0348683"><ele>316.5</ele><time>2026-04-03T08:37:26.115Z</time></trkpt><trkpt lat="42.98171" lon="12.0347117"><ele>319.75</ele><time>2026-04-03T08:37:27.115Z</time></trkpt><trkpt lat="42.9817283" lon="12.03456"><ele>323.0</ele><time>2026-04-03T08:37:28.116Z</time></trkpt><trkpt lat="42.98176" lon="12.0344117"><ele>323.0</ele><time>2026-04-03T08:37:29.115Z</time></trkpt><trkpt lat="42.9818083" lon="12.0342683"><ele>323.0</ele><time>2026-04-03T08:37:30.115Z</time></trkpt><trkpt lat="42.9818567" lon="12.034135"><ele>323.0</ele><time>2026-04-03T08:37:31.115Z</time></trkpt><trkpt lat="42.9818933" lon="12.034015"><ele>323.0</ele><time>2026-04-03T08:37:32.116Z</time></trkpt><trkpt lat="42.98191" lon="12.0339083"><ele>323.0</ele><time>2026-04-03T08:37:33.115Z</time></trkpt><trkpt lat="42.98192" lon="12.0338067"><ele>323.5</ele><time>2026-04-03T08:37:34.115Z</time></trkpt><trkpt lat="42.98192" lon="12.0337133"><ele>324.0</ele><time>2026-04-03T08:37:35.116Z</time></trkpt><trkpt lat="42.9819417" lon="12.0336067"><ele>324.5</ele><time>2026-04-03T08:37:37.115Z</time></trkpt><trkpt lat="42.9819933" lon="12.033525"><ele>325.0</ele><time>2026-04-03T08:37:40.115Z</time></trkpt><trkpt lat="42.98205" lon="12.0334283"><ele>325.5</ele><time>2026-04-03T08:37:42.115Z</time></trkpt><trkpt lat="42.9820633" lon="12.0332883"><ele>326.0</ele><time>2026-04-03T08:37:44.116Z</time></trkpt><trkpt lat="42.9820533" lon="12.0331967"><ele>326.1666666666667</ele><time>2026-04-03T08:37:45.115Z</time></trkpt><trkpt lat="42.982045" lon="12.03311"><ele>326.33333333333337</ele><time>2026-04-03T08:37:46.115Z</time></trkpt><trkpt lat="42.9820417" lon="12.033005"><ele>326.5</ele><time>2026-04-03T08:37:47.116Z</time></trkpt><trkpt lat="42.9820267" lon="12.032895"><ele>326.6666666666667</ele><time>2026-04-03T08:37:48.115Z</time></trkpt><trkpt lat="42.9820033" lon="12.032795"><ele>326.8333333333333</ele><time>2026-04-03T08:37:49.115Z</time></trkpt><trkpt lat="42.9819683" lon="12.03269"><ele>327.0</ele><time>2026-04-03T08:37:50.115Z</time></trkpt><trkpt lat="42.981935" lon="12.0325683"><ele>327.25</ele><time>2026-04-03T08:37:51.115Z</time></trkpt><trkpt lat="42.9819183" lon="12.0324333"><ele>327.5</ele><time>2026-04-03T08:37:52.115Z</time></trkpt><trkpt lat="42.98192" lon="12.03228"><ele>327.75</ele><time>2026-04-03T08:37:53.116Z</time></trkpt><trkpt lat="42.9819483" lon="12.0321017"><ele>328.0</ele><time>2026-04-03T08:37:54.115Z</time></trkpt><trkpt lat="42.9819867" lon="12.0318967"><ele>328.0</ele><time>2026-04-03T08:37:55.115Z</time></trkpt><trkpt lat="42.9820167" lon="12.03168"><ele>328.0</ele><time>2026-04-03T08:37:56.115Z</time></trkpt><trkpt lat="42.982045" lon="12.0314333"><ele>328.0</ele><time>2026-04-03T08:37:57.115Z</time></trkpt><trkpt lat="42.9820633" lon="12.0311383"><ele>327.3333333333333</ele><time>2026-04-03T08:37:58.115Z</time></trkpt><trkpt lat="42.98208" lon="12.03087"><ele>326.6666666666667</ele><time>2026-04-03T08:37:59.115Z</time></trkpt><trkpt lat="42.9821033" lon="12.0305767"><ele>326.0</ele><time>2026-04-03T08:38:00.116Z</time></trkpt><trkpt lat="42.9821317" lon="12.0302983"><ele>323.33333333333337</ele><time>2026-04-03T08:38:01.115Z</time></trkpt><trkpt lat="42.9821483" lon="12.0300067"><ele>320.6666666666667</ele><time>2026-04-03T08:38:02.116Z</time></trkpt><trkpt lat="42.982175" lon="12.0297517"><ele>318.0</ele><time>2026-04-03T08:38:03.115Z</time></trkpt><trkpt lat="42.982185" lon="12.0294867"><ele>315.6666666666667</ele><time>2026-04-03T08:38:04.116Z</time></trkpt><trkpt lat="42.9821983" lon="12.029215"><ele>313.33333333333337</ele><time>2026-04-03T08:38:05.116Z</time></trkpt><trkpt lat="42.9822167" lon="12.0289317"><ele>311.0</ele><time>2026-04-03T08:38:06.116Z</time></trkpt><trkpt lat="42.9822267" lon="12.0286467"><ele>311.0</ele><time>2026-04-03T08:38:07.115Z</time></trkpt><trkpt lat="42.98224" lon="12.028355"><ele>311.0</ele><time>2026-04-03T08:38:08.115Z</time></trkpt><trkpt lat="42.9822617" lon="12.0280667"><ele>311.0</ele><time>2026-04-03T08:38:09.115Z</time></trkpt><trkpt lat="42.98227" lon="12.0277783"><ele>311.33333333333337</ele><time>2026-04-03T08:38:10.115Z</time></trkpt><trkpt lat="42.9822883" lon="12.0274867"><ele>311.6666666666667</ele><time>2026-04-03T08:38:11.115Z</time></trkpt><trkpt lat="42.9823067" lon="12.0271883"><ele>312.0</ele><time>2026-04-03T08:38:12.116Z</time></trkpt><trkpt lat="42.9823283" lon="12.026895"><ele>313.6666666666667</ele><time>2026-04-03T08:38:13.115Z</time></trkpt><trkpt lat="42.9823417" lon="12.02661"><ele>315.33333333333337</ele><time>2026-04-03T08:38:14.115Z</time></trkpt><trkpt lat="42.9823517" lon="12.0263167"><ele>317.0</ele><time>2026-04-03T08:38:15.115Z</time></trkpt><trkpt lat="42.9823683" lon="12.0260367"><ele>317.33333333333337</ele><time>2026-04-03T08:38:16.116Z</time></trkpt><trkpt lat="42.9823717" lon="12.0257583"><ele>317.6666666666667</ele><time>2026-04-03T08:38:17.115Z</time></trkpt><trkpt lat="42.9823783" lon="12.0255033"><ele>318.0</ele><time>2026-04-03T08:38:18.116Z</time></trkpt><trkpt lat="42.9823833" lon="12.025265"><ele>318.0</ele><time>2026-04-03T08:38:19.115Z</time></trkpt><trkpt lat="42.98238" lon="12.0250383"><ele>318.0</ele><time>2026-04-03T08:38:20.116Z</time></trkpt><trkpt lat="42.9823583" lon="12.0248367"><ele>318.0</ele><time>2026-04-03T08:38:21.115Z</time></trkpt><trkpt lat="42.98234" lon="12.0246733"><ele>318.0</ele><time>2026-04-03T08:38:22.115Z</time></trkpt><trkpt lat="42.9823233" lon="12.0245483"><ele>318.0</ele><time>2026-04-03T08:38:23.115Z</time></trkpt><trkpt lat="42.98229" lon="12.0244683"><ele>318.0</ele><time>2026-04-03T08:38:24.115Z</time></trkpt><trkpt lat="42.9822017" lon="12.02444"><ele>318.0</ele><time>2026-04-03T08:38:26.116Z</time></trkpt><trkpt lat="42.9821267" lon="12.0244517"><ele>318.0</ele><time>2026-04-03T08:38:27.115Z</time></trkpt><trkpt lat="42.9820217" lon="12.024465"><ele>318.0</ele><time>2026-04-03T08:38:28.115Z</time></trkpt><trkpt lat="42.9818983" lon="12.024485"><ele>318.0</ele><time>2026-04-03T08:38:29.115Z</time></trkpt><trkpt lat="42.9817667" lon="12.0245"><ele>318.0</ele><time>2026-04-03T08:38:30.115Z</time></trkpt><trkpt lat="42.9816367" lon="12.0245167"><ele>318.0</ele><time>2026-04-03T08:38:31.115Z</time></trkpt><trkpt lat="42.9815167" lon="12.0245283"><ele>318.0</ele><time>2026-04-03T08:38:32.115Z</time></trkpt><trkpt lat="42.9814183" lon="12.0245367"><ele>319.3333333333333</ele><time>2026-04-03T08:38:33.116Z</time></trkpt><trkpt lat="42.9813317" lon="12.024525"><ele>320.6666666666667</ele><time>2026-04-03T08:38:34.115Z</time></trkpt><trkpt lat="42.981255" lon="12.024505"><ele>322.0</ele><time>2026-04-03T08:38:35.116Z</time></trkpt><trkpt lat="42.981185" lon="12.02447"><ele>323.33333333333337</ele><time>2026-04-03T08:38:36.115Z</time></trkpt><trkpt lat="42.981115" lon="12.0244217"><ele>324.6666666666667</ele><time>2026-04-03T08:38:37.116Z</time></trkpt><trkpt lat="42.98105" lon="12.02436"><ele>326.0</ele><time>2026-04-03T08:38:38.115Z</time></trkpt><trkpt lat="42.980965" lon="12.0242983"><ele>326.0</ele><time>2026-04-03T08:38:39.116Z</time></trkpt><trkpt lat="42.980875" lon="12.0242367"><ele>326.0</ele><time>2026-04-03T08:38:40.115Z</time></trkpt><trkpt lat="42.9807817" lon="12.024185"><ele>326.0</ele><time>2026-04-03T08:38:41.115Z</time></trkpt><trkpt lat="42.98068" lon="12.0241317"><ele>326.0</ele><time>2026-04-03T08:38:42.116Z</time></trkpt><trkpt lat="42.980575" lon="12.0240683"><ele>326.0</ele><time>2026-04-03T08:38:43.115Z</time></trkpt><trkpt lat="42.980465" lon="12.0240083"><ele>331.5</ele><time>2026-04-03T08:38:44.116Z</time></trkpt><trkpt lat="42.9803467" lon="12.023945"><ele>337.0</ele><time>2026-04-03T08:38:45.116Z</time></trkpt><trkpt lat="42.98022" lon="12.023885"><ele>342.5</ele><time>2026-04-03T08:38:46.115Z</time></trkpt><trkpt lat="42.9800983" lon="12.02382"><ele>348.0</ele><time>2026-04-03T08:38:47.115Z</time></trkpt><trkpt lat="42.9799767" lon="12.0237633"><ele>350.5</ele><time>2026-04-03T08:38:48.115Z</time></trkpt><trkpt lat="42.9798417" lon="12.0237017"><ele>353.0</ele><time>2026-04-03T08:38:49.115Z</time></trkpt><trkpt lat="42.97971" lon="12.0236317"><ele>355.5</ele><time>2026-04-03T08:38:50.115Z</time></trkpt><trkpt lat="42.9795683" lon="12.0235633"><ele>358.0</ele><time>2026-04-03T08:38:51.116Z</time></trkpt><trkpt lat="42.9794283" lon="12.02349"><ele>358.0</ele><time>2026-04-03T08:38:52.116Z</time></trkpt><trkpt lat="42.97928" lon="12.0234217"><ele>358.0</ele><time>2026-04-03T08:38:53.116Z</time></trkpt><trkpt lat="42.9791467" lon="12.023365"><ele>358.0</ele><time>2026-04-03T08:38:54.115Z</time></trkpt><trkpt lat="42.9790083" lon="12.0233"><ele>358.0</ele><time>2026-04-03T08:38:55.115Z</time></trkpt><trkpt lat="42.9788717" lon="12.0232167"><ele>360.0</ele><time>2026-04-03T08:38:56.115Z</time></trkpt><trkpt lat="42.97873" lon="12.0231333"><ele>362.0</ele><time>2026-04-03T08:38:57.116Z</time></trkpt><trkpt lat="42.9786117" lon="12.0230683"><ele>364.0</ele><time>2026-04-03T08:38:58.115Z</time></trkpt><trkpt lat="42.978535" lon="12.0230067"><ele>366.0</ele><time>2026-04-03T08:38:59.115Z</time></trkpt><trkpt lat="42.9784517" lon="12.0229333"><ele>366.0</ele><time>2026-04-03T08:39:00.115Z</time></trkpt><trkpt lat="42.9783567" lon="12.0228667"><ele>366.0</ele><time>2026-04-03T08:39:01.115Z</time></trkpt><trkpt lat="42.9782633" lon="12.0227883"><ele>366.0</ele><time>2026-04-03T08:39:02.115Z</time></trkpt><trkpt lat="42.9781567" lon="12.022725"><ele>366.0</ele><time>2026-04-03T08:39:03.115Z</time></trkpt><trkpt lat="42.9780483" lon="12.02267"><ele>366.0</ele><time>2026-04-03T08:39:04.115Z</time></trkpt><trkpt lat="42.97793" lon="12.022625"><ele>367.0</ele><time>2026-04-03T08:39:05.116Z</time></trkpt><trkpt lat="42.9778233" lon="12.0225733"><ele>368.0</ele><time>2026-04-03T08:39:06.115Z</time></trkpt><trkpt lat="42.9777267" lon="12.0225117"><ele>369.0</ele><time>2026-04-03T08:39:07.115Z</time></trkpt><trkpt lat="42.977625" lon="12.0224467"><ele>370.0</ele><time>2026-04-03T08:39:08.115Z</time></trkpt><trkpt lat="42.97753" lon="12.0223633"><ele>371.0</ele><time>2026-04-03T08:39:09.116Z</time></trkpt><trkpt lat="42.97743" lon="12.02229"><ele>373.4</ele><time>2026-04-03T08:39:10.115Z</time></trkpt><trkpt lat="42.9773383" lon="12.02223"><ele>375.8</ele><time>2026-04-03T08:39:11.115Z</time></trkpt><trkpt lat="42.9772567" lon="12.0221733"><ele>378.2</ele><time>2026-04-03T08:39:12.115Z</time></trkpt><trkpt lat="42.9771633" lon="12.0221117"><ele>380.59999999999997</ele><time>2026-04-03T08:39:13.115Z</time></trkpt><trkpt lat="42.9770833" lon="12.0220633"><ele>383.0</ele><time>2026-04-03T08:39:14.115Z</time></trkpt><trkpt lat="42.9769883" lon="12.0220283"><ele>383.0</ele><time>2026-04-03T08:39:15.116Z</time></trkpt><trkpt lat="42.976895" lon="12.0220167"><ele>383.0</ele><time>2026-04-03T08:39:16.115Z</time></trkpt><trkpt lat="42.9768" lon="12.02203"><ele>383.0</ele><time>2026-04-03T08:39:17.116Z</time></trkpt><trkpt lat="42.9767283" lon="12.0220533"><ele>383.0</ele><time>2026-04-03T08:39:18.115Z</time></trkpt><trkpt lat="42.9766617" lon="12.0220783"><ele>383.0</ele><time>2026-04-03T08:39:19.115Z</time></trkpt><trkpt lat="42.97656" lon="12.0220983"><ele>383.0</ele><time>2026-04-03T08:39:21.115Z</time></trkpt><trkpt lat="42.97646" lon="12.0220617"><ele>386.79999999999995</ele><time>2026-04-03T08:39:23.115Z</time></trkpt><trkpt lat="42.9763667" lon="12.0220183"><ele>390.6</ele><time>2026-04-03T08:39:24.115Z</time></trkpt><trkpt lat="42.9762717" lon="12.0219483"><ele>394.4</ele><time>2026-04-03T08:39:25.115Z</time></trkpt><trkpt lat="42.9761717" lon="12.0218817"><ele>398.20000000000005</ele><time>2026-04-03T08:39:26.115Z</time></trkpt><trkpt lat="42.9760733" lon="12.0218233"><ele>402.0</ele><time>2026-04-03T08:39:27.115Z</time></trkpt><trkpt lat="42.97597" lon="12.0217483"><ele>402.0</ele><time>2026-04-03T08:39:28.115Z</time></trkpt><trkpt lat="42.975875" lon="12.02167"><ele>402.0</ele><time>2026-04-03T08:39:29.115Z</time></trkpt><trkpt lat="42.9757833" lon="12.0216117"><ele>402.0</ele><time>2026-04-03T08:39:30.115Z</time></trkpt><trkpt lat="42.9756983" lon="12.0215867"><ele>402.0</ele><time>2026-04-03T08:39:31.115Z</time></trkpt><trkpt lat="42.975625" lon="12.0215733"><ele>402.0</ele><time>2026-04-03T08:39:32.116Z</time></trkpt><trkpt lat="42.97555" lon="12.0215633"><ele>402.0</ele><time>2026-04-03T08:39:33.116Z</time></trkpt><trkpt lat="42.9754683" lon="12.0215417"><ele>404.20000000000005</ele><time>2026-04-03T08:39:34.115Z</time></trkpt><trkpt lat="42.975375" lon="12.0215117"><ele>406.4</ele><time>2026-04-03T08:39:35.115Z</time></trkpt><trkpt lat="42.975275" lon="12.0214767"><ele>408.6</ele><time>2026-04-03T08:39:36.115Z</time></trkpt><trkpt lat="42.9751917" lon="12.02143"><ele>410.79999999999995</ele><time>2026-04-03T08:39:37.115Z</time></trkpt><trkpt lat="42.9751083" lon="12.0213733"><ele>413.0</ele><time>2026-04-03T08:39:38.115Z</time></trkpt><trkpt lat="42.975" lon="12.0213033"><ele>415.79999999999995</ele><time>2026-04-03T08:39:40.115Z</time></trkpt><trkpt lat="42.9748833" lon="12.021245"><ele>418.6</ele><time>2026-04-03T08:39:42.115Z</time></trkpt><trkpt lat="42.9748133" lon="12.0212117"><ele>421.40000000000003</ele><time>2026-04-03T08:39:43.115Z</time></trkpt><trkpt lat="42.9747267" lon="12.0211817"><ele>424.20000000000005</ele><time>2026-04-03T08:39:44.115Z</time></trkpt><trkpt lat="42.9746367" lon="12.02115"><ele>427.0</ele><time>2026-04-03T08:39:45.115Z</time></trkpt><trkpt lat="42.9745567" lon="12.0211233"><ele>427.0</ele><time>2026-04-03T08:39:46.115Z</time></trkpt><trkpt lat="42.9744583" lon="12.02108"><ele>427.00000000000006</ele><time>2026-04-03T08:39:48.116Z</time></trkpt><trkpt lat="42.9745" lon="12.0209683"><ele>427.00000000000006</ele><time>2026-04-03T08:39:56.116Z</time></trkpt><trkpt lat="42.97453" lon="12.0208883"><ele>427.0</ele><time>2026-04-03T08:39:57.115Z</time></trkpt><trkpt lat="42.974555" lon="12.0207917"><ele>427.0</ele><time>2026-04-03T08:39:58.115Z</time></trkpt><trkpt lat="42.97461" lon="12.0205667"><ele>425.8</ele><time>2026-04-03T08:40:00.115Z</time></trkpt><trkpt lat="42.9746267" lon="12.020435"><ele>424.6</ele><time>2026-04-03T08:40:01.115Z</time></trkpt><trkpt lat="42.974635" lon="12.0202933"><ele>423.40000000000003</ele><time>2026-04-03T08:40:02.115Z</time></trkpt><trkpt lat="42.9746283" lon="12.020155"><ele>422.20000000000005</ele><time>2026-04-03T08:40:03.116Z</time></trkpt><trkpt lat="42.9746233" lon="12.0200067"><ele>421.0</ele><time>2026-04-03T08:40:04.116Z</time></trkpt><trkpt lat="42.9746067" lon="12.0198567"><ele>420.4</ele><time>2026-04-03T08:40:05.116Z</time></trkpt><trkpt lat="42.9745933" lon="12.0197083"><ele>419.8</ele><time>2026-04-03T08:40:06.115Z</time></trkpt><trkpt lat="42.974585" lon="12.0195717"><ele>419.2</ele><time>2026-04-03T08:40:07.115Z</time></trkpt><trkpt lat="42.9745733" lon="12.01943"><ele>418.59999999999997</ele><time>2026-04-03T08:40:08.115Z</time></trkpt><trkpt lat="42.9745567" lon="12.0192867"><ele>418.0</ele><time>2026-04-03T08:40:09.115Z</time></trkpt><trkpt lat="42.974535" lon="12.0191183"><ele>417.5</ele><time>2026-04-03T08:40:10.115Z</time></trkpt><trkpt lat="42.974515" lon="12.0189433"><ele>417.0</ele><time>2026-04-03T08:40:11.115Z</time></trkpt><trkpt lat="42.9744833" lon="12.0187483"><ele>416.5</ele><time>2026-04-03T08:40:12.115Z</time></trkpt><trkpt lat="42.9744517" lon="12.018535"><ele>416.0</ele><time>2026-04-03T08:40:13.116Z</time></trkpt><trkpt lat="42.974425" lon="12.0183383"><ele>416.25</ele><time>2026-04-03T08:40:14.116Z</time></trkpt><trkpt lat="42.9743817" lon="12.0181383"><ele>416.5</ele><time>2026-04-03T08:40:15.115Z</time></trkpt><trkpt lat="42.9743483" lon="12.017955"><ele>416.75</ele><time>2026-04-03T08:40:16.115Z</time></trkpt><trkpt lat="42.9743083" lon="12.01778"><ele>417.0</ele><time>2026-04-03T08:40:17.115Z</time></trkpt><trkpt lat="42.9742583" lon="12.0175967"><ele>417.0</ele><time>2026-04-03T08:40:18.115Z</time></trkpt><trkpt lat="42.9742133" lon="12.0174417"><ele>417.0</ele><time>2026-04-03T08:40:19.115Z</time></trkpt><trkpt lat="42.9741633" lon="12.0173167"><ele>417.0</ele><time>2026-04-03T08:40:20.115Z</time></trkpt><trkpt lat="42.9741117" lon="12.0172133"><ele>417.0</ele><time>2026-04-03T08:40:21.115Z</time></trkpt><trkpt lat="42.9740383" lon="12.017105"><ele>417.0</ele><time>2026-04-03T08:40:22.116Z</time></trkpt><trkpt lat="42.973945" lon="12.0169867"><ele>420.5</ele><time>2026-04-03T08:40:23.116Z</time></trkpt><trkpt lat="42.9738517" lon="12.01684"><ele>424.0</ele><time>2026-04-03T08:40:24.115Z</time></trkpt><trkpt lat="42.9737617" lon="12.016695"><ele>427.5</ele><time>2026-04-03T08:40:25.115Z</time></trkpt><trkpt lat="42.9736717" lon="12.0165617"><ele>431.0</ele><time>2026-04-03T08:40:26.115Z</time></trkpt><trkpt lat="42.9735917" lon="12.0164333"><ele>430.99999999999994</ele><time>2026-04-03T08:40:27.115Z</time></trkpt><trkpt lat="42.9735467" lon="12.01633"><ele>431.0</ele><time>2026-04-03T08:40:28.115Z</time></trkpt><trkpt lat="42.9735283" lon="12.0162283"><ele>431.0</ele><time>2026-04-03T08:40:29.115Z</time></trkpt><trkpt lat="42.973545" lon="12.0161283"><ele>431.0</ele><time>2026-04-03T08:40:30.115Z</time></trkpt><trkpt lat="42.973585" lon="12.0160133"><ele>430.99999999999994</ele><time>2026-04-03T08:40:31.115Z</time></trkpt><trkpt lat="42.9736167" lon="12.0158867"><ele>431.0</ele><time>2026-04-03T08:40:32.116Z</time></trkpt><trkpt lat="42.97363" lon="12.01575"><ele>429.75</ele><time>2026-04-03T08:40:33.115Z</time></trkpt><trkpt lat="42.9736267" lon="12.0155917"><ele>428.5</ele><time>2026-04-03T08:40:34.115Z</time></trkpt><trkpt lat="42.9735917" lon="12.0153983"><ele>427.25</ele><time>2026-04-03T08:40:35.115Z</time></trkpt><trkpt lat="42.9735767" lon="12.0151867"><ele>426.0</ele><time>2026-04-03T08:40:36.116Z</time></trkpt><trkpt lat="42.973565" lon="12.0149383"><ele>425.0</ele><time>2026-04-03T08:40:37.115Z</time></trkpt><trkpt lat="42.9735417" lon="12.0146967"><ele>424.0</ele><time>2026-04-03T08:40:38.116Z</time></trkpt><trkpt lat="42.97351" lon="12.01448"><ele>423.0</ele><time>2026-04-03T08:40:39.115Z</time></trkpt><trkpt lat="42.9734883" lon="12.014275"><ele>421.33333333333337</ele><time>2026-04-03T08:40:40.115Z</time></trkpt><trkpt lat="42.9734517" lon="12.0140733"><ele>419.6666666666667</ele><time>2026-04-03T08:40:41.115Z</time></trkpt><trkpt lat="42.97342" lon="12.0138583"><ele>418.0</ele><time>2026-04-03T08:40:42.116Z</time></trkpt><trkpt lat="42.9733667" lon="12.0136717"><ele>422.33333333333337</ele><time>2026-04-03T08:40:43.115Z</time></trkpt><trkpt lat="42.9733133" lon="12.0134783"><ele>426.66666666666663</ele><time>2026-04-03T08:40:44.115Z</time></trkpt><trkpt lat="42.973245" lon="12.01328"><ele>431.0</ele><time>2026-04-03T08:40:45.115Z</time></trkpt><trkpt lat="42.9731683" lon="12.0130867"><ele>431.0</ele><time>2026-04-03T08:40:46.116Z</time></trkpt><trkpt lat="42.9731117" lon="12.012925"><ele>431.0</ele><time>2026-04-03T08:40:47.116Z</time></trkpt><trkpt lat="42.9730683" lon="12.0127817"><ele>431.0</ele><time>2026-04-03T08:40:48.115Z</time></trkpt><trkpt lat="42.9729867" lon="12.0126583"><ele>431.0</ele><time>2026-04-03T08:40:49.115Z</time></trkpt><trkpt lat="42.9729017" lon="12.0125333"><ele>428.75</ele><time>2026-04-03T08:40:50.115Z</time></trkpt><trkpt lat="42.9728117" lon="12.01241"><ele>426.5</ele><time>2026-04-03T08:40:51.116Z</time></trkpt><trkpt lat="42.97271" lon="12.0122567"><ele>424.25</ele><time>2026-04-03T08:40:52.116Z</time></trkpt><trkpt lat="42.9726083" lon="12.0120967"><ele>422.0</ele><time>2026-04-03T08:40:53.116Z</time></trkpt><trkpt lat="42.9725083" lon="12.0119267"><ele>427.75</ele><time>2026-04-03T08:40:54.115Z</time></trkpt><trkpt lat="42.9724283" lon="12.0117733"><ele>433.5</ele><time>2026-04-03T08:40:55.116Z</time></trkpt><trkpt lat="42.9723483" lon="12.0116233"><ele>439.25</ele><time>2026-04-03T08:40:56.115Z</time></trkpt><trkpt lat="42.97227" lon="12.0114967"><ele>445.0</ele><time>2026-04-03T08:40:57.116Z</time></trkpt><trkpt lat="42.9722" lon="12.0113933"><ele>445.0</ele><time>2026-04-03T08:40:58.115Z</time></trkpt><trkpt lat="42.972155" lon="12.0113017"><ele>445.0</ele><time>2026-04-03T08:40:59.115Z</time></trkpt><trkpt lat="42.9721383" lon="12.011175"><ele>445.0</ele><time>2026-04-03T08:41:00.115Z</time></trkpt><trkpt lat="42.9721333" lon="12.0110167"><ele>445.0</ele><time>2026-04-03T08:41:01.115Z</time></trkpt><trkpt lat="42.9721233" lon="12.0108267"><ele>445.0</ele><time>2026-04-03T08:41:02.115Z</time></trkpt><trkpt lat="42.972105" lon="12.0106433"><ele>445.0</ele><time>2026-04-03T08:41:03.115Z</time></trkpt><trkpt lat="42.972095" lon="12.0104517"><ele>445.0</ele><time>2026-04-03T08:41:04.115Z</time></trkpt><trkpt lat="42.972075" lon="12.0102633"><ele>445.0</ele><time>2026-04-03T08:41:05.115Z</time></trkpt><trkpt lat="42.972065" lon="12.0100883"><ele>445.0</ele><time>2026-04-03T08:41:06.115Z</time></trkpt><trkpt lat="42.972065" lon="12.0099083"><ele>443.0</ele><time>2026-04-03T08:41:07.116Z</time></trkpt><trkpt lat="42.9720583" lon="12.0097483"><ele>441.0</ele><time>2026-04-03T08:41:08.116Z</time></trkpt><trkpt lat="42.972035" lon="12.0095917"><ele>439.0</ele><time>2026-04-03T08:41:09.115Z</time></trkpt><trkpt lat="42.972" lon="12.0094433"><ele>437.0</ele><time>2026-04-03T08:41:10.115Z</time></trkpt><trkpt lat="42.9719533" lon="12.009285"><ele>436.0</ele><time>2026-04-03T08:41:11.115Z</time></trkpt><trkpt lat="42.9719" lon="12.009135"><ele>435.0</ele><time>2026-04-03T08:41:12.115Z</time></trkpt><trkpt lat="42.9718383" lon="12.0089867"><ele>434.0</ele><time>2026-04-03T08:41:13.115Z</time></trkpt><trkpt lat="42.9717783" lon="12.00884"><ele>433.0</ele><time>2026-04-03T08:41:14.115Z</time></trkpt><trkpt lat="42.9717117" lon="12.0086883"><ele>438.0</ele><time>2026-04-03T08:41:15.115Z</time></trkpt><trkpt lat="42.97164" lon="12.008535"><ele>443.0</ele><time>2026-04-03T08:41:16.115Z</time></trkpt><trkpt lat="42.9715817" lon="12.0083833"><ele>448.0</ele><time>2026-04-03T08:41:17.115Z</time></trkpt><trkpt lat="42.97154" lon="12.0082467"><ele>453.0</ele><time>2026-04-03T08:41:18.115Z</time></trkpt><trkpt lat="42.9715117" lon="12.0080783"><ele>453.0</ele><time>2026-04-03T08:41:19.114Z</time></trkpt><trkpt lat="42.9714983" lon="12.007905"><ele>453.0</ele><time>2026-04-03T08:41:20.114Z</time></trkpt><trkpt lat="42.97151" lon="12.0077317"><ele>453.0</ele><time>2026-04-03T08:41:21.115Z</time></trkpt><trkpt lat="42.971515" lon="12.007555"><ele>453.0</ele><time>2026-04-03T08:41:22.114Z</time></trkpt><trkpt lat="42.97152" lon="12.00737"><ele>452.5</ele><time>2026-04-03T08:41:23.114Z</time></trkpt><trkpt lat="42.9715267" lon="12.0071767"><ele>452.0</ele><time>2026-04-03T08:41:24.114Z</time></trkpt><trkpt lat="42.9715417" lon="12.0069867"><ele>451.5</ele><time>2026-04-03T08:41:25.115Z</time></trkpt><trkpt lat="42.9715617" lon="12.00679"><ele>451.0</ele><time>2026-04-03T08:41:26.115Z</time></trkpt><trkpt lat="42.9715867" lon="12.006595"><ele>450.75</ele><time>2026-04-03T08:41:27.114Z</time></trkpt><trkpt lat="42.9715983" lon="12.0064217"><ele>450.5</ele><time>2026-04-03T08:41:28.114Z</time></trkpt><trkpt lat="42.9715967" lon="12.00627"><ele>450.25</ele><time>2026-04-03T08:41:29.114Z</time></trkpt><trkpt lat="42.97159" lon="12.006105"><ele>450.0</ele><time>2026-04-03T08:41:30.114Z</time></trkpt><trkpt lat="42.9715883" lon="12.00593"><ele>451.5</ele><time>2026-04-03T08:41:31.114Z</time></trkpt><trkpt lat="42.971595" lon="12.0057517"><ele>453.0</ele><time>2026-04-03T08:41:32.114Z</time></trkpt><trkpt lat="42.97162" lon="12.00558"><ele>454.5</ele><time>2026-04-03T08:41:33.114Z</time></trkpt><trkpt lat="42.9716333" lon="12.0054133"><ele>456.0</ele><time>2026-04-03T08:41:34.114Z</time></trkpt><trkpt lat="42.9716367" lon="12.005245"><ele>456.0</ele><time>2026-04-03T08:41:35.114Z</time></trkpt><trkpt lat="42.9716367" lon="12.005085"><ele>456.0</ele><time>2026-04-03T08:41:36.114Z</time></trkpt><trkpt lat="42.97163" lon="12.004915"><ele>456.0</ele><time>2026-04-03T08:41:37.114Z</time></trkpt><trkpt lat="42.97163" lon="12.0047583"><ele>456.0</ele><time>2026-04-03T08:41:38.114Z</time></trkpt><trkpt lat="42.97164" lon="12.0046283"><ele>457.20000000000005</ele><time>2026-04-03T08:41:39.114Z</time></trkpt><trkpt lat="42.9716333" lon="12.0044717"><ele>458.40000000000003</ele><time>2026-04-03T08:41:40.114Z</time></trkpt><trkpt lat="42.97161" lon="12.0043283"><ele>459.6</ele><time>2026-04-03T08:41:41.114Z</time></trkpt><trkpt lat="42.9715817" lon="12.0042033"><ele>460.8</ele><time>2026-04-03T08:41:42.114Z</time></trkpt><trkpt lat="42.9715383" lon="12.0040883"><ele>462.0</ele><time>2026-04-03T08:41:43.114Z</time></trkpt><trkpt lat="42.9714967" lon="12.0039767"><ele>462.6666666666667</ele><time>2026-04-03T08:41:44.115Z</time></trkpt><trkpt lat="42.9714567" lon="12.0038633"><ele>463.33333333333337</ele><time>2026-04-03T08:41:45.115Z</time></trkpt><trkpt lat="42.9714167" lon="12.0037633"><ele>464.0</ele><time>2026-04-03T08:41:46.115Z</time></trkpt><trkpt lat="42.9713883" lon="12.0036683"><ele>464.6666666666667</ele><time>2026-04-03T08:41:47.114Z</time></trkpt><trkpt lat="42.9713767" lon="12.00356"><ele>465.33333333333337</ele><time>2026-04-03T08:41:48.114Z</time></trkpt><trkpt lat="42.97136" lon="12.0034417"><ele>466.0</ele><time>2026-04-03T08:41:49.114Z</time></trkpt><trkpt lat="42.97133" lon="12.00331"><ele>467.25</ele><time>2026-04-03T08:41:50.115Z</time></trkpt><trkpt lat="42.9712917" lon="12.0031733"><ele>468.5</ele><time>2026-04-03T08:41:51.115Z</time></trkpt><trkpt lat="42.971245" lon="12.0029983"><ele>469.75</ele><time>2026-04-03T08:41:52.115Z</time></trkpt><trkpt lat="42.9711917" lon="12.0027917"><ele>471.0</ele><time>2026-04-03T08:41:53.114Z</time></trkpt><trkpt lat="42.9711533" lon="12.0026"><ele>470.8</ele><time>2026-04-03T08:41:54.115Z</time></trkpt><trkpt lat="42.9711317" lon="12.00243"><ele>470.6</ele><time>2026-04-03T08:41:55.115Z</time></trkpt><trkpt lat="42.971105" lon="12.00228"><ele>470.4</ele><time>2026-04-03T08:41:56.114Z</time></trkpt><trkpt lat="42.9710883" lon="12.0021633"><ele>470.2</ele><time>2026-04-03T08:41:57.114Z</time></trkpt><trkpt lat="42.9710867" lon="12.0020517"><ele>470.0</ele><time>2026-04-03T08:41:58.114Z</time></trkpt><trkpt lat="42.9710983" lon="12.001935"><ele>470.0</ele><time>2026-04-03T08:41:59.114Z</time></trkpt><trkpt lat="42.971125" lon="12.0017967"><ele>470.0</ele><time>2026-04-03T08:42:00.114Z</time></trkpt><trkpt lat="42.97116" lon="12.00165"><ele>470.0</ele><time>2026-04-03T08:42:01.114Z</time></trkpt><trkpt lat="42.971205" lon="12.0014867"><ele>470.0</ele><time>2026-04-03T08:42:02.114Z</time></trkpt><trkpt lat="42.971235" lon="12.0013367"><ele>470.8</ele><time>2026-04-03T08:42:03.115Z</time></trkpt><trkpt lat="42.971265" lon="12.0011783"><ele>471.6</ele><time>2026-04-03T08:42:04.114Z</time></trkpt><trkpt lat="42.9713" lon="12.0010417"><ele>472.4</ele><time>2026-04-03T08:42:05.114Z</time></trkpt><trkpt lat="42.9713417" lon="12.0009183"><ele>473.2</ele><time>2026-04-03T08:42:06.114Z</time></trkpt><trkpt lat="42.97137" lon="12.0008"><ele>474.0</ele><time>2026-04-03T08:42:07.115Z</time></trkpt><trkpt lat="42.971395" lon="12.0006883"><ele>472.4</ele><time>2026-04-03T08:42:08.114Z</time></trkpt><trkpt lat="42.9713767" lon="12.000545"><ele>470.79999999999995</ele><time>2026-04-03T08:42:10.114Z</time></trkpt><trkpt lat="42.9712933" lon="12.00042"><ele>469.20000000000005</ele><time>2026-04-03T08:42:12.114Z</time></trkpt><trkpt lat="42.9712267" lon="12.000345"><ele>467.6</ele><time>2026-04-03T08:42:13.115Z</time></trkpt><trkpt lat="42.9711467" lon="12.00026"><ele>466.0</ele><time>2026-04-03T08:42:14.114Z</time></trkpt><trkpt lat="42.97107" lon="12.0001867"><ele>466.00000000000006</ele><time>2026-04-03T08:42:15.114Z</time></trkpt><trkpt lat="42.9709883" lon="12.0001217"><ele>466.0</ele><time>2026-04-03T08:42:16.114Z</time></trkpt><trkpt lat="42.9709133" lon="12.0000733"><ele>466.0</ele><time>2026-04-03T08:42:17.114Z</time></trkpt><trkpt lat="42.9708533" lon="12.0000267"><ele>466.0</ele><time>2026-04-03T08:42:18.114Z</time></trkpt><trkpt lat="42.9707883" lon="11.9999917"><ele>466.00000000000006</ele><time>2026-04-03T08:42:19.114Z</time></trkpt><trkpt lat="42.9707183" lon="11.9999583"><ele>466.0</ele><time>2026-04-03T08:42:20.115Z</time></trkpt><trkpt lat="42.9706283" lon="11.9999283"><ele>466.0</ele><time>2026-04-03T08:42:21.115Z</time></trkpt><trkpt lat="42.9705217" lon="11.9998917"><ele>466.0</ele><time>2026-04-03T08:42:22.115Z</time></trkpt><trkpt lat="42.9703983" lon="11.999835"><ele>466.0</ele><time>2026-04-03T08:42:23.115Z</time></trkpt><trkpt lat="42.9702683" lon="11.999765"><ele>466.0</ele><time>2026-04-03T08:42:24.115Z</time></trkpt><trkpt lat="42.97013" lon="11.9996783"><ele>463.6666666666667</ele><time>2026-04-03T08:42:25.115Z</time></trkpt><trkpt lat="42.9699983" lon="11.9995583"><ele>461.33333333333337</ele><time>2026-04-03T08:42:26.114Z</time></trkpt><trkpt lat="42.9698617" lon="11.999435"><ele>459.0</ele><time>2026-04-03T08:42:27.114Z</time></trkpt><trkpt lat="42.9697283" lon="11.9993117"><ele>461.66666666666663</ele><time>2026-04-03T08:42:28.114Z</time></trkpt><trkpt lat="42.9695983" lon="11.999155"><ele>464.3333333333333</ele><time>2026-04-03T08:42:29.114Z</time></trkpt><trkpt lat="42.969445" lon="11.9989817"><ele>467.0</ele><time>2026-04-03T08:42:30.115Z</time></trkpt><trkpt lat="42.9693" lon="11.99884"><ele>465.66666666666663</ele><time>2026-04-03T08:42:31.114Z</time></trkpt><trkpt lat="42.969155" lon="11.9987117"><ele>464.33333333333337</ele><time>2026-04-03T08:42:32.114Z</time></trkpt><trkpt lat="42.9689717" lon="11.998615"><ele>463.0</ele><time>2026-04-03T08:42:33.115Z</time></trkpt><trkpt lat="42.9688017" lon="11.9985267"><ele>463.0</ele><time>2026-04-03T08:42:34.115Z</time></trkpt><trkpt lat="42.9686167" lon="11.9984617"><ele>463.0</ele><time>2026-04-03T08:42:35.115Z</time></trkpt><trkpt lat="42.968425" lon="11.9983983"><ele>463.0</ele><time>2026-04-03T08:42:36.114Z</time></trkpt><trkpt lat="42.9682433" lon="11.9983317"><ele>465.6666666666667</ele><time>2026-04-03T08:42:37.114Z</time></trkpt><trkpt lat="42.9680633" lon="11.9982567"><ele>468.33333333333337</ele><time>2026-04-03T08:42:38.114Z</time></trkpt><trkpt lat="42.9678717" lon="11.9982133"><ele>471.0</ele><time>2026-04-03T08:42:39.114Z</time></trkpt><trkpt lat="42.9676767" lon="11.998145"><ele>471.66666666666663</ele><time>2026-04-03T08:42:40.114Z</time></trkpt><trkpt lat="42.96749" lon="11.99809"><ele>472.3333333333333</ele><time>2026-04-03T08:42:41.115Z</time></trkpt><trkpt lat="42.9672983" lon="11.99806"><ele>473.0</ele><time>2026-04-03T08:42:42.114Z</time></trkpt><trkpt lat="42.9671017" lon="11.998045"><ele>473.0</ele><time>2026-04-03T08:42:43.115Z</time></trkpt><trkpt lat="42.9669133" lon="11.99802"><ele>473.0</ele><time>2026-04-03T08:42:44.114Z</time></trkpt><trkpt lat="42.9667233" lon="11.99799"><ele>473.0</ele><time>2026-04-03T08:42:45.114Z</time></trkpt><trkpt lat="42.966535" lon="11.9979633"><ele>475.3333333333333</ele><time>2026-04-03T08:42:46.115Z</time></trkpt><trkpt lat="42.96636" lon="11.9979517"><ele>477.66666666666663</ele><time>2026-04-03T08:42:47.114Z</time></trkpt><trkpt lat="42.9661883" lon="11.9979433"><ele>480.0</ele><time>2026-04-03T08:42:48.114Z</time></trkpt><trkpt lat="42.9660283" lon="11.9979517"><ele>480.0</ele><time>2026-04-03T08:42:49.114Z</time></trkpt><trkpt lat="42.965865" lon="11.99799"><ele>480.0</ele><time>2026-04-03T08:42:50.114Z</time></trkpt><trkpt lat="42.9657117" lon="11.9980567"><ele>480.0</ele><time>2026-04-03T08:42:51.114Z</time></trkpt><trkpt lat="42.9655467" lon="11.9981267"><ele>481.0</ele><time>2026-04-03T08:42:52.114Z</time></trkpt><trkpt lat="42.9653867" lon="11.998205"><ele>482.0</ele><time>2026-04-03T08:42:53.115Z</time></trkpt><trkpt lat="42.9652233" lon="11.9982783"><ele>483.0</ele><time>2026-04-03T08:42:54.115Z</time></trkpt><trkpt lat="42.9650567" lon="11.99833"><ele>481.0</ele><time>2026-04-03T08:42:55.114Z</time></trkpt><trkpt lat="42.9648717" lon="11.9983633"><ele>479.0</ele><time>2026-04-03T08:42:56.114Z</time></trkpt><trkpt lat="42.9646883" lon="11.9983883"><ele>477.0</ele><time>2026-04-03T08:42:57.114Z</time></trkpt><trkpt lat="42.9645233" lon="11.99836"><ele>477.5</ele><time>2026-04-03T08:42:58.114Z</time></trkpt><trkpt lat="42.964375" lon="11.9983117"><ele>478.0</ele><time>2026-04-03T08:42:59.114Z</time></trkpt><trkpt lat="42.9642517" lon="11.9982683"><ele>478.5</ele><time>2026-04-03T08:43:00.114Z</time></trkpt><trkpt lat="42.9641383" lon="11.9982233"><ele>479.0</ele><time>2026-04-03T08:43:01.115Z</time></trkpt><trkpt lat="42.9640333" lon="11.9981867"><ele>479.2</ele><time>2026-04-03T08:43:02.114Z</time></trkpt><trkpt lat="42.9639383" lon="11.9981533"><ele>479.4</ele><time>2026-04-03T08:43:03.114Z</time></trkpt><trkpt lat="42.9638467" lon="11.9981117"><ele>479.6</ele><time>2026-04-03T08:43:04.114Z</time></trkpt><trkpt lat="42.9637333" lon="11.99806"><ele>479.8</ele><time>2026-04-03T08:43:05.115Z</time></trkpt><trkpt lat="42.9636183" lon="11.9979967"><ele>480.0</ele><time>2026-04-03T08:43:06.114Z</time></trkpt><trkpt lat="42.9634917" lon="11.9979217"><ele>480.0</ele><time>2026-04-03T08:43:07.114Z</time></trkpt><trkpt lat="42.9633683" lon="11.9978667"><ele>480.0</ele><time>2026-04-03T08:43:08.114Z</time></trkpt><trkpt lat="42.9632367" lon="11.9978183"><ele>480.0</ele><time>2026-04-03T08:43:09.114Z</time></trkpt><trkpt lat="42.96311" lon="11.9977617"><ele>480.0</ele><time>2026-04-03T08:43:10.115Z</time></trkpt><trkpt lat="42.9629717" lon="11.9977033"><ele>480.0</ele><time>2026-04-03T08:43:11.114Z</time></trkpt><trkpt lat="42.9628333" lon="11.9976383"><ele>480.0</ele><time>2026-04-03T08:43:12.115Z</time></trkpt><trkpt lat="42.962705" lon="11.9975767"><ele>480.0</ele><time>2026-04-03T08:43:13.114Z</time></trkpt><trkpt lat="42.96258" lon="11.9975133"><ele>480.0</ele><time>2026-04-03T08:43:14.114Z</time></trkpt><trkpt lat="42.9624517" lon="11.9974383"><ele>480.0</ele><time>2026-04-03T08:43:15.115Z</time></trkpt><trkpt lat="42.96232" lon="11.9973767"><ele>480.0</ele><time>2026-04-03T08:43:16.114Z</time></trkpt><trkpt lat="42.9621867" lon="11.9973067"><ele>480.0</ele><time>2026-04-03T08:43:17.114Z</time></trkpt><trkpt lat="42.9620683" lon="11.9972383"><ele>480.0</ele><time>2026-04-03T08:43:18.115Z</time></trkpt><trkpt lat="42.9619567" lon="11.997185"><ele>480.0</ele><time>2026-04-03T08:43:19.114Z</time></trkpt><trkpt lat="42.9618617" lon="11.9971333"><ele>480.0</ele><time>2026-04-03T08:43:20.114Z</time></trkpt><trkpt lat="42.961775" lon="11.9970883"><ele>480.0</ele><time>2026-04-03T08:43:21.115Z</time></trkpt><trkpt lat="42.9616967" lon="11.9970533"><ele>480.0</ele><time>2026-04-03T08:43:22.114Z</time></trkpt><trkpt lat="42.9616017" lon="11.997005"><ele>480.0</ele><time>2026-04-03T08:43:24.115Z</time></trkpt><trkpt lat="42.9615367" lon="11.99707"><ele>480.2</ele><time>2026-04-03T08:43:32.115Z</time></trkpt><trkpt lat="42.9614867" lon="11.9971617"><ele>480.4</ele><time>2026-04-03T08:43:33.114Z</time></trkpt><trkpt lat="42.9614333" lon="11.9972633"><ele>480.6</ele><time>2026-04-03T08:43:34.114Z</time></trkpt><trkpt lat="42.9613717" lon="11.99736"><ele>480.8</ele><time>2026-04-03T08:43:35.114Z</time></trkpt><trkpt lat="42.961295" lon="11.9974667"><ele>481.0</ele><time>2026-04-03T08:43:36.115Z</time></trkpt><trkpt lat="42.961225" lon="11.9975833"><ele>480.0</ele><time>2026-04-03T08:43:37.114Z</time></trkpt><trkpt lat="42.96115" lon="11.9977133"><ele>479.0</ele><time>2026-04-03T08:43:38.114Z</time></trkpt><trkpt lat="42.9610817" lon="11.9978567"><ele>478.0</ele><time>2026-04-03T08:43:39.114Z</time></trkpt><trkpt lat="42.9609967" lon="11.99801"><ele>477.0</ele><time>2026-04-03T08:43:40.115Z</time></trkpt><trkpt lat="42.9609167" lon="11.9981667"><ele>478.75</ele><time>2026-04-03T08:43:41.114Z</time></trkpt><trkpt lat="42.9608383" lon="11.99833"><ele>480.5</ele><time>2026-04-03T08:43:42.114Z</time></trkpt><trkpt lat="42.9607567" lon="11.998495"><ele>482.25</ele><time>2026-04-03T08:43:43.114Z</time></trkpt><trkpt lat="42.9606583" lon="11.9986583"><ele>484.0</ele><time>2026-04-03T08:43:44.115Z</time></trkpt><trkpt lat="42.96056" lon="11.99884"><ele>484.0</ele><time>2026-04-03T08:43:45.114Z</time></trkpt><trkpt lat="42.9604517" lon="11.9990183"><ele>484.0</ele><time>2026-04-03T08:43:46.115Z</time></trkpt><trkpt lat="42.9603367" lon="11.9991883"><ele>484.0</ele><time>2026-04-03T08:43:47.114Z</time></trkpt><trkpt lat="42.9602267" lon="11.9993717"><ele>485.6666666666667</ele><time>2026-04-03T08:43:48.114Z</time></trkpt><trkpt lat="42.9601133" lon="11.9995517"><ele>487.33333333333337</ele><time>2026-04-03T08:43:49.114Z</time></trkpt><trkpt lat="42.95999" lon="11.999725"><ele>489.0</ele><time>2026-04-03T08:43:50.114Z</time></trkpt><trkpt lat="42.9598733" lon="11.9998917"><ele>489.33333333333337</ele><time>2026-04-03T08:43:51.114Z</time></trkpt><trkpt lat="42.9597533" lon="12.0000533"><ele>489.6666666666667</ele><time>2026-04-03T08:43:52.114Z</time></trkpt><trkpt lat="42.95963" lon="12.0002283"><ele>490.0</ele><time>2026-04-03T08:43:53.114Z</time></trkpt><trkpt lat="42.9595067" lon="12.000395"><ele>490.0</ele><time>2026-04-03T08:43:54.114Z</time></trkpt><trkpt lat="42.9593833" lon="12.0005533"><ele>490.0</ele><time>2026-04-03T08:43:55.114Z</time></trkpt><trkpt lat="42.9592433" lon="12.0006983"><ele>490.0</ele><time>2026-04-03T08:43:56.114Z</time></trkpt><trkpt lat="42.9590933" lon="12.0008167"><ele>487.33333333333337</ele><time>2026-04-03T08:43:57.114Z</time></trkpt><trkpt lat="42.9589417" lon="12.0009183"><ele>484.66666666666663</ele><time>2026-04-03T08:43:58.115Z</time></trkpt><trkpt lat="42.9588" lon="12.0009983"><ele>482.0</ele><time>2026-04-03T08:43:59.115Z</time></trkpt><trkpt lat="42.95865" lon="12.0010633"><ele>482.0</ele><time>2026-04-03T08:44:00.114Z</time></trkpt><trkpt lat="42.9584917" lon="12.0010967"><ele>482.0</ele><time>2026-04-03T08:44:01.114Z</time></trkpt><trkpt lat="42.9583217" lon="12.0011367"><ele>482.0</ele><time>2026-04-03T08:44:02.114Z</time></trkpt><trkpt lat="42.9581583" lon="12.0011817"><ele>482.3333333333333</ele><time>2026-04-03T08:44:03.114Z</time></trkpt><trkpt lat="42.958005" lon="12.0012"><ele>482.66666666666663</ele><time>2026-04-03T08:44:04.114Z</time></trkpt><trkpt lat="42.9578433" lon="12.0012283"><ele>483.0</ele><time>2026-04-03T08:44:05.114Z</time></trkpt><trkpt lat="42.9577017" lon="12.0013"><ele>483.0</ele><time>2026-04-03T08:44:06.114Z</time></trkpt><trkpt lat="42.95755" lon="12.0013733"><ele>483.0</ele><time>2026-04-03T08:44:07.115Z</time></trkpt><trkpt lat="42.9574117" lon="12.0014683"><ele>483.0</ele><time>2026-04-03T08:44:08.114Z</time></trkpt><trkpt lat="42.95727" lon="12.001615"><ele>482.33333333333337</ele><time>2026-04-03T08:44:09.114Z</time></trkpt><trkpt lat="42.9571433" lon="12.00176"><ele>481.6666666666667</ele><time>2026-04-03T08:44:10.114Z</time></trkpt><trkpt lat="42.9570367" lon="12.0019183"><ele>481.0</ele><time>2026-04-03T08:44:11.114Z</time></trkpt><trkpt lat="42.9569433" lon="12.00205"><ele>481.00000000000006</ele><time>2026-04-03T08:44:12.114Z</time></trkpt><trkpt lat="42.95687" lon="12.0021367"><ele>481.0</ele><time>2026-04-03T08:44:13.115Z</time></trkpt><trkpt lat="42.956805" lon="12.0021833"><ele>481.0</ele><time>2026-04-03T08:44:14.115Z</time></trkpt><trkpt lat="42.9567417" lon="12.0021967"><ele>481.0</ele><time>2026-04-03T08:44:15.115Z</time></trkpt><trkpt lat="42.9566767" lon="12.0022017"><ele>481.00000000000006</ele><time>2026-04-03T08:44:16.114Z</time></trkpt><trkpt lat="42.9566133" lon="12.0021933"><ele>481.0</ele><time>2026-04-03T08:44:17.114Z</time></trkpt><trkpt lat="42.95652" lon="12.0021383"><ele>481.6</ele><time>2026-04-03T08:44:19.114Z</time></trkpt><trkpt lat="42.9564217" lon="12.0020333"><ele>482.20000000000005</ele><time>2026-04-03T08:44:21.114Z</time></trkpt><trkpt lat="42.9563667" lon="12.0019533"><ele>482.79999999999995</ele><time>2026-04-03T08:44:22.115Z</time></trkpt><trkpt lat="42.9563067" lon="12.0018833"><ele>483.4</ele><time>2026-04-03T08:44:23.114Z</time></trkpt><trkpt lat="42.9562117" lon="12.0018117"><ele>484.0</ele><time>2026-04-03T08:44:24.114Z</time></trkpt><trkpt lat="42.9561067" lon="12.0017717"><ele>484.0</ele><time>2026-04-03T08:44:25.114Z</time></trkpt><trkpt lat="42.9560033" lon="12.0017667"><ele>484.0</ele><time>2026-04-03T08:44:26.114Z</time></trkpt><trkpt lat="42.9558817" lon="12.0018383"><ele>484.0</ele><time>2026-04-03T08:44:27.114Z</time></trkpt><trkpt lat="42.9557683" lon="12.0019217"><ele>484.0</ele><time>2026-04-03T08:44:28.114Z</time></trkpt><trkpt lat="42.95566" lon="12.0020133"><ele>485.0</ele><time>2026-04-03T08:44:29.114Z</time></trkpt><trkpt lat="42.955555" lon="12.0021317"><ele>486.0</ele><time>2026-04-03T08:44:30.114Z</time></trkpt><trkpt lat="42.9554467" lon="12.0022483"><ele>487.0</ele><time>2026-04-03T08:44:31.114Z</time></trkpt><trkpt lat="42.9553517" lon="12.0023983"><ele>488.0</ele><time>2026-04-03T08:44:32.114Z</time></trkpt><trkpt lat="42.9552433" lon="12.0025483"><ele>485.66666666666663</ele><time>2026-04-03T08:44:33.114Z</time></trkpt><trkpt lat="42.95514" lon="12.0026983"><ele>483.33333333333337</ele><time>2026-04-03T08:44:34.114Z</time></trkpt><trkpt lat="42.9550333" lon="12.0028617"><ele>481.0</ele><time>2026-04-03T08:44:35.114Z</time></trkpt><trkpt lat="42.95493" lon="12.0030283"><ele>481.0</ele><time>2026-04-03T08:44:36.115Z</time></trkpt><trkpt lat="42.9548217" lon="12.0031567"><ele>481.0</ele><time>2026-04-03T08:44:37.114Z</time></trkpt><trkpt lat="42.9547133" lon="12.0032483"><ele>481.0</ele><time>2026-04-03T08:44:38.115Z</time></trkpt><trkpt lat="42.9546017" lon="12.0033067"><ele>481.0</ele><time>2026-04-03T08:44:39.114Z</time></trkpt><trkpt lat="42.954495" lon="12.0033067"><ele>481.0</ele><time>2026-04-03T08:44:40.114Z</time></trkpt><trkpt lat="42.9543867" lon="12.0032667"><ele>481.0</ele><time>2026-04-03T08:44:41.114Z</time></trkpt><trkpt lat="42.9542633" lon="12.0032067"><ele>481.0</ele><time>2026-04-03T08:44:42.114Z</time></trkpt><trkpt lat="42.9541367" lon="12.003155"><ele>481.0</ele><time>2026-04-03T08:44:43.114Z</time></trkpt><trkpt lat="42.954" lon="12.0031167"><ele>479.0</ele><time>2026-04-03T08:44:44.115Z</time></trkpt><trkpt lat="42.9538617" lon="12.0031"><ele>477.0</ele><time>2026-04-03T08:44:45.115Z</time></trkpt><trkpt lat="42.95373" lon="12.0030917"><ele>475.0</ele><time>2026-04-03T08:44:46.114Z</time></trkpt><trkpt lat="42.9536017" lon="12.0030933"><ele>473.0</ele><time>2026-04-03T08:44:47.114Z</time></trkpt><trkpt lat="42.9534733" lon="12.0030983"><ele>473.75</ele><time>2026-04-03T08:44:48.114Z</time></trkpt><trkpt lat="42.9533433" lon="12.0030833"><ele>474.5</ele><time>2026-04-03T08:44:49.115Z</time></trkpt><trkpt lat="42.953215" lon="12.0030633"><ele>475.25</ele><time>2026-04-03T08:44:50.114Z</time></trkpt><trkpt lat="42.953085" lon="12.00301"><ele>476.0</ele><time>2026-04-03T08:44:51.115Z</time></trkpt><trkpt lat="42.952965" lon="12.00294"><ele>476.0</ele><time>2026-04-03T08:44:52.114Z</time></trkpt><trkpt lat="42.9528533" lon="12.0028517"><ele>476.0</ele><time>2026-04-03T08:44:53.115Z</time></trkpt><trkpt lat="42.952745" lon="12.0027417"><ele>476.0</ele><time>2026-04-03T08:44:54.114Z</time></trkpt><trkpt lat="42.9526567" lon="12.0026083"><ele>476.0</ele><time>2026-04-03T08:44:55.114Z</time></trkpt><trkpt lat="42.9526" lon="12.0024483"><ele>478.0</ele><time>2026-04-03T08:44:56.114Z</time></trkpt><trkpt lat="42.952565" lon="12.0022883"><ele>480.0</ele><time>2026-04-03T08:44:57.114Z</time></trkpt><trkpt lat="42.9525583" lon="12.0021267"><ele>482.0</ele><time>2026-04-03T08:44:58.114Z</time></trkpt><trkpt lat="42.952545" lon="12.0019867"><ele>484.0</ele><time>2026-04-03T08:44:59.114Z</time></trkpt><trkpt lat="42.9525283" lon="12.0018467"><ele>486.0</ele><time>2026-04-03T08:45:00.114Z</time></trkpt><trkpt lat="42.9525017" lon="12.0017283"><ele>483.0</ele><time>2026-04-03T08:45:01.114Z</time></trkpt><trkpt lat="42.95246" lon="12.0016267"><ele>480.0</ele><time>2026-04-03T08:45:02.115Z</time></trkpt><trkpt lat="42.9524" lon="12.0015433"><ele>477.0</ele><time>2026-04-03T08:45:03.115Z</time></trkpt><trkpt lat="42.9523283" lon="12.0014667"><ele>474.0</ele><time>2026-04-03T08:45:04.114Z</time></trkpt><trkpt lat="42.9522533" lon="12.0014"><ele>471.0</ele><time>2026-04-03T08:45:05.115Z</time></trkpt><trkpt lat="42.9521783" lon="12.0013383"><ele>468.0</ele><time>2026-04-03T08:45:06.114Z</time></trkpt><trkpt lat="42.95211" lon="12.001275"><ele>468.0</ele><time>2026-04-03T08:45:07.114Z</time></trkpt><trkpt lat="42.95204" lon="12.0012167"><ele>468.0</ele><time>2026-04-03T08:45:08.114Z</time></trkpt><trkpt lat="42.95198" lon="12.00116"><ele>468.0</ele><time>2026-04-03T08:45:09.114Z</time></trkpt><trkpt lat="42.951885" lon="12.0011033"><ele>468.0</ele><time>2026-04-03T08:45:11.115Z</time></trkpt><trkpt lat="42.9517717" lon="12.0010517"><ele>468.0</ele><time>2026-04-03T08:45:13.115Z</time></trkpt><trkpt lat="42.95171" lon="12.001025"><ele>468.0</ele><time>2026-04-03T08:45:14.115Z</time></trkpt><trkpt lat="42.9516033" lon="12.0009733"><ele>470.79999999999995</ele><time>2026-04-03T08:45:16.114Z</time></trkpt><trkpt lat="42.95151" lon="12.0009267"><ele>473.59999999999997</ele><time>2026-04-03T08:45:18.115Z</time></trkpt><trkpt lat="42.9514133" lon="12.0008617"><ele>476.40000000000003</ele><time>2026-04-03T08:45:20.115Z</time></trkpt><trkpt lat="42.9512983" lon="12.0008667"><ele>479.20000000000005</ele><time>2026-04-03T08:45:22.115Z</time></trkpt><trkpt lat="42.9512267" lon="12.0009933"><ele>482.0</ele><time>2026-04-03T08:45:24.114Z</time></trkpt><trkpt lat="42.9512083" lon="12.0010783"><ele>481.99999999999994</ele><time>2026-04-03T08:45:25.114Z</time></trkpt><trkpt lat="42.9511867" lon="12.00125"><ele>482.0</ele><time>2026-04-03T08:45:27.115Z</time></trkpt><trkpt lat="42.951185" lon="12.0013417"><ele>482.0</ele><time>2026-04-03T08:45:28.114Z</time></trkpt><trkpt lat="42.9511833" lon="12.001455"><ele>482.0</ele><time>2026-04-03T08:45:29.114Z</time></trkpt><trkpt lat="42.951185" lon="12.00157"><ele>481.99999999999994</ele><time>2026-04-03T08:45:30.114Z</time></trkpt><trkpt lat="42.9511783" lon="12.001675"><ele>482.0</ele><time>2026-04-03T08:45:31.114Z</time></trkpt><trkpt lat="42.951185" lon="12.0017933"><ele>484.66666666666663</ele><time>2026-04-03T08:45:32.114Z</time></trkpt><trkpt lat="42.9511917" lon="12.0018967"><ele>487.3333333333333</ele><time>2026-04-03T08:45:33.114Z</time></trkpt><trkpt lat="42.9512083" lon="12.0019817"><ele>490.0</ele><time>2026-04-03T08:45:34.114Z</time></trkpt><trkpt lat="42.95123" lon="12.002065"><ele>492.66666666666663</ele><time>2026-04-03T08:45:35.114Z</time></trkpt><trkpt lat="42.9512783" lon="12.0021833"><ele>495.3333333333333</ele><time>2026-04-03T08:45:36.115Z</time></trkpt><trkpt lat="42.951355" lon="12.002325"><ele>498.0</ele><time>2026-04-03T08:45:37.114Z</time></trkpt><trkpt lat="42.9514467" lon="12.0024733"><ele>497.75</ele><time>2026-04-03T08:45:38.114Z</time></trkpt><trkpt lat="42.9515233" lon="12.0026367"><ele>497.5</ele><time>2026-04-03T08:45:39.114Z</time></trkpt><trkpt lat="42.9515583" lon="12.0028367"><ele>497.25</ele><time>2026-04-03T08:45:40.114Z</time></trkpt><trkpt lat="42.951585" lon="12.00303"><ele>497.0</ele><time>2026-04-03T08:45:41.114Z</time></trkpt><trkpt lat="42.9515783" lon="12.0032417"><ele>497.0</ele><time>2026-04-03T08:45:42.114Z</time></trkpt><trkpt lat="42.951555" lon="12.0034333"><ele>497.0</ele><time>2026-04-03T08:45:43.115Z</time></trkpt><trkpt lat="42.9515217" lon="12.003625"><ele>497.0</ele><time>2026-04-03T08:45:44.114Z</time></trkpt><trkpt lat="42.95147" lon="12.003795"><ele>497.0</ele><time>2026-04-03T08:45:45.114Z</time></trkpt><trkpt lat="42.9513933" lon="12.0039267"><ele>497.0</ele><time>2026-04-03T08:45:46.114Z</time></trkpt><trkpt lat="42.9512783" lon="12.0040317"><ele>497.0</ele><time>2026-04-03T08:45:47.114Z</time></trkpt><trkpt lat="42.9511533" lon="12.0041083"><ele>497.0</ele><time>2026-04-03T08:45:48.114Z</time></trkpt><trkpt lat="42.95102" lon="12.0041633"><ele>497.0</ele><time>2026-04-03T08:45:49.114Z</time></trkpt><trkpt lat="42.9508883" lon="12.00422"><ele>495.75</ele><time>2026-04-03T08:45:50.114Z</time></trkpt><trkpt lat="42.9507517" lon="12.0042767"><ele>494.5</ele><time>2026-04-03T08:45:51.115Z</time></trkpt><trkpt lat="42.9506117" lon="12.0043367"><ele>493.25</ele><time>2026-04-03T08:45:52.114Z</time></trkpt><trkpt lat="42.9504783" lon="12.0044133"><ele>492.0</ele><time>2026-04-03T08:45:53.114Z</time></trkpt><trkpt lat="42.9503733" lon="12.00446"><ele>492.0</ele><time>2026-04-03T08:45:54.114Z</time></trkpt><trkpt lat="42.9502983" lon="12.0044733"><ele>492.00000000000006</ele><time>2026-04-03T08:45:55.114Z</time></trkpt><trkpt lat="42.9501883" lon="12.0044917"><ele>492.00000000000006</ele><time>2026-04-03T08:45:57.115Z</time></trkpt><trkpt lat="42.9500883" lon="12.0044817"><ele>492.0</ele><time>2026-04-03T08:45:59.114Z</time></trkpt><trkpt lat="42.9500167" lon="12.0044617"><ele>492.0</ele><time>2026-04-03T08:46:00.114Z</time></trkpt><trkpt lat="42.94993" lon="12.0044283"><ele>491.0</ele><time>2026-04-03T08:46:01.115Z</time></trkpt><trkpt lat="42.949835" lon="12.0044017"><ele>490.0</ele><time>2026-04-03T08:46:02.114Z</time></trkpt><trkpt lat="42.94972" lon="12.0043583"><ele>489.0</ele><time>2026-04-03T08:46:03.114Z</time></trkpt><trkpt lat="42.9496133" lon="12.0043033"><ele>488.0</ele><time>2026-04-03T08:46:04.114Z</time></trkpt><trkpt lat="42.9495" lon="12.0042333"><ele>488.0</ele><time>2026-04-03T08:46:05.114Z</time></trkpt><trkpt lat="42.9493883" lon="12.0041917"><ele>488.0</ele><time>2026-04-03T08:46:06.114Z</time></trkpt><trkpt lat="42.9492683" lon="12.00419"><ele>488.0</ele><time>2026-04-03T08:46:07.114Z</time></trkpt><trkpt lat="42.9491517" lon="12.0042033"><ele>488.0</ele><time>2026-04-03T08:46:08.114Z</time></trkpt><trkpt lat="42.9490333" lon="12.004225"><ele>485.0</ele><time>2026-04-03T08:46:09.114Z</time></trkpt><trkpt lat="42.94891" lon="12.0042417"><ele>482.0</ele><time>2026-04-03T08:46:10.114Z</time></trkpt><trkpt lat="42.948795" lon="12.0042817"><ele>479.0</ele><time>2026-04-03T08:46:11.114Z</time></trkpt><trkpt lat="42.9486817" lon="12.0042933"><ele>476.0</ele><time>2026-04-03T08:46:12.114Z</time></trkpt><trkpt lat="42.9485733" lon="12.0042933"><ele>476.0</ele><time>2026-04-03T08:46:13.114Z</time></trkpt><trkpt lat="42.94846" lon="12.0042717"><ele>476.0</ele><time>2026-04-03T08:46:14.114Z</time></trkpt><trkpt lat="42.9483667" lon="12.00425"><ele>476.0</ele><time>2026-04-03T08:46:15.115Z</time></trkpt><trkpt lat="42.948275" lon="12.0042483"><ele>476.0</ele><time>2026-04-03T08:46:16.114Z</time></trkpt><trkpt lat="42.9481767" lon="12.0042617"><ele>476.0</ele><time>2026-04-03T08:46:17.114Z</time></trkpt><trkpt lat="42.9480767" lon="12.0043067"><ele>472.75</ele><time>2026-04-03T08:46:18.114Z</time></trkpt><trkpt lat="42.94797" lon="12.0043917"><ele>469.5</ele><time>2026-04-03T08:46:19.114Z</time></trkpt><trkpt lat="42.9478567" lon="12.0044767"><ele>466.25</ele><time>2026-04-03T08:46:20.114Z</time></trkpt><trkpt lat="42.947745" lon="12.0045483"><ele>463.0</ele><time>2026-04-03T08:46:21.114Z</time></trkpt><trkpt lat="42.9476333" lon="12.00459"><ele>461.2</ele><time>2026-04-03T08:46:22.114Z</time></trkpt><trkpt lat="42.9475317" lon="12.004595"><ele>459.4</ele><time>2026-04-03T08:46:23.114Z</time></trkpt><trkpt lat="42.94743" lon="12.0045567"><ele>457.59999999999997</ele><time>2026-04-03T08:46:24.115Z</time></trkpt><trkpt lat="42.9473483" lon="12.004475"><ele>455.79999999999995</ele><time>2026-04-03T08:46:25.114Z</time></trkpt><trkpt lat="42.94727" lon="12.0043617"><ele>454.0</ele><time>2026-04-03T08:46:26.115Z</time></trkpt><trkpt lat="42.9471933" lon="12.0042417"><ele>450.79999999999995</ele><time>2026-04-03T08:46:27.114Z</time></trkpt><trkpt lat="42.9471217" lon="12.0041033"><ele>447.59999999999997</ele><time>2026-04-03T08:46:28.114Z</time></trkpt><trkpt lat="42.9470633" lon="12.0039617"><ele>444.4</ele><time>2026-04-03T08:46:29.114Z</time></trkpt><trkpt lat="42.9470233" lon="12.0038267"><ele>441.2</ele><time>2026-04-03T08:46:30.114Z</time></trkpt><trkpt lat="42.94698" lon="12.0037083"><ele>438.0</ele><time>2026-04-03T08:46:31.114Z</time></trkpt><trkpt lat="42.9469367" lon="12.0036133"><ele>438.0</ele><time>2026-04-03T08:46:32.114Z</time></trkpt><trkpt lat="42.9468883" lon="12.0035283"><ele>438.0</ele><time>2026-04-03T08:46:33.114Z</time></trkpt><trkpt lat="42.9468283" lon="12.0034567"><ele>438.0</ele><time>2026-04-03T08:46:34.114Z</time></trkpt><trkpt lat="42.9467683" lon="12.003415"><ele>438.0</ele><time>2026-04-03T08:46:35.114Z</time></trkpt><trkpt lat="42.946705" lon="12.0033917"><ele>438.0</ele><time>2026-04-03T08:46:36.114Z</time></trkpt><trkpt lat="42.9466417" lon="12.00341"><ele>438.0</ele><time>2026-04-03T08:46:37.115Z</time></trkpt><trkpt lat="42.9465367" lon="12.00349"><ele>437.3333333333333</ele><time>2026-04-03T08:46:39.115Z</time></trkpt><trkpt lat="42.9464917" lon="12.00356"><ele>436.66666666666663</ele><time>2026-04-03T08:46:40.114Z</time></trkpt><trkpt lat="42.9464433" lon="12.0036383"><ele>436.0</ele><time>2026-04-03T08:46:41.114Z</time></trkpt><trkpt lat="42.9463933" lon="12.0037267"><ele>435.3333333333333</ele><time>2026-04-03T08:46:42.115Z</time></trkpt><trkpt lat="42.9463317" lon="12.00381"><ele>434.66666666666663</ele><time>2026-04-03T08:46:43.115Z</time></trkpt><trkpt lat="42.94626" lon="12.0039067"><ele>434.0</ele><time>2026-04-03T08:46:44.114Z</time></trkpt><trkpt lat="42.946175" lon="12.004005"><ele>434.0</ele><time>2026-04-03T08:46:45.114Z</time></trkpt><trkpt lat="42.9460933" lon="12.0041067"><ele>434.0</ele><time>2026-04-03T08:46:46.115Z</time></trkpt><trkpt lat="42.94603" lon="12.0042183"><ele>434.0</ele><time>2026-04-03T08:46:47.114Z</time></trkpt><trkpt lat="42.9459917" lon="12.0043383"><ele>434.0</ele><time>2026-04-03T08:46:48.114Z</time></trkpt><trkpt lat="42.9459717" lon="12.0044517"><ele>434.0</ele><time>2026-04-03T08:46:49.114Z</time></trkpt><trkpt lat="42.945975" lon="12.0045683"><ele>438.0</ele><time>2026-04-03T08:46:50.114Z</time></trkpt><trkpt lat="42.9459867" lon="12.0047033"><ele>442.0</ele><time>2026-04-03T08:46:51.115Z</time></trkpt><trkpt lat="42.9460033" lon="12.0048433"><ele>446.0</ele><time>2026-04-03T08:46:52.115Z</time></trkpt><trkpt lat="42.9460133" lon="12.0049933"><ele>450.0</ele><time>2026-04-03T08:46:53.114Z</time></trkpt><trkpt lat="42.9460267" lon="12.0051517"><ele>454.0</ele><time>2026-04-03T08:46:54.114Z</time></trkpt><trkpt lat="42.9460283" lon="12.00533"><ele>457.2</ele><time>2026-04-03T08:46:55.114Z</time></trkpt><trkpt lat="42.9460283" lon="12.0054933"><ele>460.4</ele><time>2026-04-03T08:46:56.114Z</time></trkpt><trkpt lat="42.9460167" lon="12.005655"><ele>463.6</ele><time>2026-04-03T08:46:57.114Z</time></trkpt><trkpt lat="42.9459967" lon="12.005795"><ele>466.8</ele><time>2026-04-03T08:46:58.113Z</time></trkpt><trkpt lat="42.9459867" lon="12.0059"><ele>470.0</ele><time>2026-04-03T08:46:59.113Z</time></trkpt><trkpt lat="42.945965" lon="12.0059867"><ele>467.99999999999994</ele><time>2026-04-03T08:47:00.113Z</time></trkpt><trkpt lat="42.9458767" lon="12.00594"><ele>466.0</ele><time>2026-04-03T08:47:01.113Z</time></trkpt><trkpt lat="42.9458033" lon="12.0059167"><ele>464.0</ele><time>2026-04-03T08:47:02.113Z</time></trkpt><trkpt lat="42.9457267" lon="12.0058717"><ele>462.0</ele><time>2026-04-03T08:47:03.113Z</time></trkpt><trkpt lat="42.9456633" lon="12.0058033"><ele>459.99999999999994</ele><time>2026-04-03T08:47:04.113Z</time></trkpt><trkpt lat="42.9456067" lon="12.0057133"><ele>458.0</ele><time>2026-04-03T08:47:05.114Z</time></trkpt><trkpt lat="42.9455517" lon="12.0056117"><ele>452.0</ele><time>2026-04-03T08:47:06.113Z</time></trkpt><trkpt lat="42.945505" lon="12.005485"><ele>446.0</ele><time>2026-04-03T08:47:07.114Z</time></trkpt><trkpt lat="42.9454367" lon="12.005365"><ele>440.0</ele><time>2026-04-03T08:47:08.113Z</time></trkpt><trkpt lat="42.9453433" lon="12.0052617"><ele>434.0</ele><time>2026-04-03T08:47:09.114Z</time></trkpt><trkpt lat="42.9452367" lon="12.0051733"><ele>434.0</ele><time>2026-04-03T08:47:10.113Z</time></trkpt><trkpt lat="42.9451133" lon="12.0050967"><ele>434.0</ele><time>2026-04-03T08:47:11.113Z</time></trkpt><trkpt lat="42.9449817" lon="12.0050233"><ele>434.0</ele><time>2026-04-03T08:47:12.113Z</time></trkpt><trkpt lat="42.9448417" lon="12.004945"><ele>434.0</ele><time>2026-04-03T08:47:13.113Z</time></trkpt><trkpt lat="42.9447033" lon="12.0048783"><ele>428.25</ele><time>2026-04-03T08:47:14.113Z</time></trkpt><trkpt lat="42.9445783" lon="12.0047967"><ele>422.5</ele><time>2026-04-03T08:47:15.114Z</time></trkpt><trkpt lat="42.944465" lon="12.0047233"><ele>416.75</ele><time>2026-04-03T08:47:16.114Z</time></trkpt><trkpt lat="42.944375" lon="12.0046517"><ele>411.0</ele><time>2026-04-03T08:47:17.113Z</time></trkpt><trkpt lat="42.9442917" lon="12.0045783"><ele>410.0</ele><time>2026-04-03T08:47:18.113Z</time></trkpt><trkpt lat="42.944205" lon="12.0044983"><ele>409.0</ele><time>2026-04-03T08:47:19.113Z</time></trkpt><trkpt lat="42.944125" lon="12.0044067"><ele>408.0</ele><time>2026-04-03T08:47:20.114Z</time></trkpt><trkpt lat="42.9440567" lon="12.0043033"><ele>407.0</ele><time>2026-04-03T08:47:21.113Z</time></trkpt><trkpt lat="42.943985" lon="12.0041833"><ele>406.0</ele><time>2026-04-03T08:47:22.113Z</time></trkpt><trkpt lat="42.9439267" lon="12.0040533"><ele>406.0</ele><time>2026-04-03T08:47:23.113Z</time></trkpt><trkpt lat="42.9438583" lon="12.00392"><ele>406.0</ele><time>2026-04-03T08:47:24.113Z</time></trkpt><trkpt lat="42.94379" lon="12.003755"><ele>406.0</ele><time>2026-04-03T08:47:25.113Z</time></trkpt><trkpt lat="42.9437267" lon="12.0035817"><ele>406.0</ele><time>2026-04-03T08:47:26.113Z</time></trkpt><trkpt lat="42.9436567" lon="12.003405"><ele>407.25</ele><time>2026-04-03T08:47:27.113Z</time></trkpt><trkpt lat="42.9435833" lon="12.0032583"><ele>408.5</ele><time>2026-04-03T08:47:28.113Z</time></trkpt><trkpt lat="42.9434983" lon="12.00315"><ele>409.75</ele><time>2026-04-03T08:47:29.114Z</time></trkpt><trkpt lat="42.9434017" lon="12.00305"><ele>411.0</ele><time>2026-04-03T08:47:30.113Z</time></trkpt><trkpt lat="42.9433" lon="12.0029583"><ele>411.0</ele><time>2026-04-03T08:47:31.113Z</time></trkpt><trkpt lat="42.9431917" lon="12.002855"><ele>411.0</ele><time>2026-04-03T08:47:32.113Z</time></trkpt><trkpt lat="42.9430933" lon="12.0027567"><ele>411.0</ele><time>2026-04-03T08:47:33.114Z</time></trkpt><trkpt lat="42.942985" lon="12.0026667"><ele>411.0</ele><time>2026-04-03T08:47:34.113Z</time></trkpt><trkpt lat="42.942875" lon="12.0025917"><ele>411.0</ele><time>2026-04-03T08:47:35.113Z</time></trkpt><trkpt lat="42.9427467" lon="12.0025233"><ele>411.0</ele><time>2026-04-03T08:47:36.113Z</time></trkpt><trkpt lat="42.9426133" lon="12.002475"><ele>411.0</ele><time>2026-04-03T08:47:37.114Z</time></trkpt><trkpt lat="42.94249" lon="12.002415"><ele>411.0</ele><time>2026-04-03T08:47:38.113Z</time></trkpt><trkpt lat="42.9423583" lon="12.0024"><ele>411.25</ele><time>2026-04-03T08:47:39.113Z</time></trkpt><trkpt lat="42.94223" lon="12.0024183"><ele>411.5</ele><time>2026-04-03T08:47:40.113Z</time></trkpt><trkpt lat="42.9420967" lon="12.0024283"><ele>411.75</ele><time>2026-04-03T08:47:41.114Z</time></trkpt><trkpt lat="42.9419633" lon="12.0024183"><ele>412.0</ele><time>2026-04-03T08:47:42.114Z</time></trkpt><trkpt lat="42.9418433" lon="12.0023967"><ele>412.00000000000006</ele><time>2026-04-03T08:47:43.113Z</time></trkpt><trkpt lat="42.9417533" lon="12.00238"><ele>412.0</ele><time>2026-04-03T08:47:44.113Z</time></trkpt><trkpt lat="42.9416717" lon="12.00236"><ele>412.0</ele><time>2026-04-03T08:47:45.113Z</time></trkpt><trkpt lat="42.9415917" lon="12.0023617"><ele>412.0</ele><time>2026-04-03T08:47:46.114Z</time></trkpt><trkpt lat="42.94151" lon="12.00235"><ele>412.00000000000006</ele><time>2026-04-03T08:47:47.114Z</time></trkpt><trkpt lat="42.9414217" lon="12.0023483"><ele>412.0</ele><time>2026-04-03T08:47:48.114Z</time></trkpt><trkpt lat="42.9413383" lon="12.002355"><ele>411.6</ele><time>2026-04-03T08:47:49.113Z</time></trkpt><trkpt lat="42.9412383" lon="12.0023583"><ele>411.20000000000005</ele><time>2026-04-03T08:47:50.114Z</time></trkpt><trkpt lat="42.94114" lon="12.0023533"><ele>410.8</ele><time>2026-04-03T08:47:51.113Z</time></trkpt><trkpt lat="42.9410467" lon="12.0023133"><ele>410.4</ele><time>2026-04-03T08:47:52.114Z</time></trkpt><trkpt lat="42.9409583" lon="12.00226"><ele>410.0</ele><time>2026-04-03T08:47:53.113Z</time></trkpt><trkpt lat="42.9408767" lon="12.002225"><ele>410.0</ele><time>2026-04-03T08:47:54.113Z</time></trkpt><trkpt lat="42.9407983" lon="12.002165"><ele>410.0</ele><time>2026-04-03T08:47:56.113Z</time></trkpt><trkpt lat="42.94085" lon="12.0022267"><ele>410.0</ele><time>2026-04-03T08:48:04.113Z</time></trkpt><trkpt lat="42.940985" lon="12.0023117"><ele>410.0</ele><time>2026-04-03T08:48:06.113Z</time></trkpt><trkpt lat="42.941075" lon="12.0023583"><ele>410.0</ele><time>2026-04-03T08:48:07.113Z</time></trkpt><trkpt lat="42.9411583" lon="12.00238"><ele>410.0</ele><time>2026-04-03T08:48:08.114Z</time></trkpt><trkpt lat="42.9412517" lon="12.002375"><ele>410.0</ele><time>2026-04-03T08:48:09.113Z</time></trkpt><trkpt lat="42.9413567" lon="12.0023633"><ele>410.0</ele><time>2026-04-03T08:48:10.114Z</time></trkpt><trkpt lat="42.941465" lon="12.0023567"><ele>410.0</ele><time>2026-04-03T08:48:11.113Z</time></trkpt><trkpt lat="42.9415483" lon="12.002355"><ele>410.0</ele><time>2026-04-03T08:48:12.113Z</time></trkpt><trkpt lat="42.941615" lon="12.0023617"><ele>410.0</ele><time>2026-04-03T08:48:13.113Z</time></trkpt><trkpt lat="42.9417083" lon="12.002365"><ele>410.0</ele><time>2026-04-03T08:48:15.113Z</time></trkpt><trkpt lat="42.94171" lon="12.0022783"><ele>410.0</ele><time>2026-04-03T08:48:17.113Z</time></trkpt><trkpt lat="42.9416133" lon="12.00215"><ele>410.0</ele><time>2026-04-03T08:48:19.113Z</time></trkpt><trkpt lat="42.9415283" lon="12.0020717"><ele>410.0</ele><time>2026-04-03T08:48:20.113Z</time></trkpt><trkpt lat="42.9414233" lon="12.0019783"><ele>410.0</ele><time>2026-04-03T08:48:21.113Z</time></trkpt><trkpt lat="42.9412917" lon="12.0018717"><ele>410.0</ele><time>2026-04-03T08:48:22.113Z</time></trkpt><trkpt lat="42.9411583" lon="12.0017617"><ele>410.0</ele><time>2026-04-03T08:48:23.113Z</time></trkpt><trkpt lat="42.94104" lon="12.001655"><ele>407.25</ele><time>2026-04-03T08:48:24.113Z</time></trkpt><trkpt lat="42.9409383" lon="12.001535"><ele>404.5</ele><time>2026-04-03T08:48:25.113Z</time></trkpt><trkpt lat="42.9408483" lon="12.0014233"><ele>401.75</ele><time>2026-04-03T08:48:26.114Z</time></trkpt><trkpt lat="42.9407683" lon="12.00132"><ele>399.0</ele><time>2026-04-03T08:48:27.114Z</time></trkpt><trkpt lat="42.9406883" lon="12.0012367"><ele>399.0</ele><time>2026-04-03T08:48:28.113Z</time></trkpt><trkpt lat="42.9405933" lon="12.0011467"><ele>399.0</ele><time>2026-04-03T08:48:29.113Z</time></trkpt><trkpt lat="42.940485" lon="12.001055"><ele>399.0</ele><time>2026-04-03T08:48:30.113Z</time></trkpt><trkpt lat="42.9403733" lon="12.0009633"><ele>399.0</ele><time>2026-04-03T08:48:31.113Z</time></trkpt><trkpt lat="42.9402567" lon="12.0008633"><ele>397.0</ele><time>2026-04-03T08:48:32.113Z</time></trkpt><trkpt lat="42.9401433" lon="12.0007717"><ele>395.0</ele><time>2026-04-03T08:48:33.113Z</time></trkpt><trkpt lat="42.9400483" lon="12.0007017"><ele>393.0</ele><time>2026-04-03T08:48:34.113Z</time></trkpt><trkpt lat="42.9399483" lon="12.0006483"><ele>391.0</ele><time>2026-04-03T08:48:35.113Z</time></trkpt><trkpt lat="42.9398267" lon="12.0006183"><ele>389.5</ele><time>2026-04-03T08:48:36.113Z</time></trkpt><trkpt lat="42.939685" lon="12.0006083"><ele>388.0</ele><time>2026-04-03T08:48:37.113Z</time></trkpt><trkpt lat="42.9395367" lon="12.000595"><ele>386.5</ele><time>2026-04-03T08:48:38.114Z</time></trkpt><trkpt lat="42.9393883" lon="12.0005767"><ele>385.0</ele><time>2026-04-03T08:48:39.113Z</time></trkpt><trkpt lat="42.9392317" lon="12.0005633"><ele>384.25</ele><time>2026-04-03T08:48:40.113Z</time></trkpt><trkpt lat="42.9390983" lon="12.0005417"><ele>383.5</ele><time>2026-04-03T08:48:41.113Z</time></trkpt><trkpt lat="42.9389683" lon="12.0005067"><ele>382.75</ele><time>2026-04-03T08:48:42.113Z</time></trkpt><trkpt lat="42.93884" lon="12.0004733"><ele>382.0</ele><time>2026-04-03T08:48:43.114Z</time></trkpt><trkpt lat="42.9387317" lon="12.0004167"><ele>382.0</ele><time>2026-04-03T08:48:44.114Z</time></trkpt><trkpt lat="42.9386267" lon="12.0003383"><ele>382.0</ele><time>2026-04-03T08:48:45.114Z</time></trkpt><trkpt lat="42.93855" lon="12.0002467"><ele>382.0</ele><time>2026-04-03T08:48:46.113Z</time></trkpt><trkpt lat="42.9385017" lon="12.00013"><ele>382.0</ele><time>2026-04-03T08:48:47.113Z</time></trkpt><trkpt lat="42.9384683" lon="12.000025"><ele>382.0</ele><time>2026-04-03T08:48:48.113Z</time></trkpt><trkpt lat="42.9384483" lon="11.9999083"><ele>382.0</ele><time>2026-04-03T08:48:49.113Z</time></trkpt><trkpt lat="42.93845" lon="11.99977"><ele>382.0</ele><time>2026-04-03T08:48:50.113Z</time></trkpt><trkpt lat="42.9384483" lon="11.999595"><ele>382.0</ele><time>2026-04-03T08:48:51.113Z</time></trkpt><trkpt lat="42.9384467" lon="11.9994133"><ele>382.0</ele><time>2026-04-03T08:48:52.113Z</time></trkpt><trkpt lat="42.9384267" lon="11.9992417"><ele>383.5</ele><time>2026-04-03T08:48:53.113Z</time></trkpt><trkpt lat="42.9384033" lon="11.9990717"><ele>385.0</ele><time>2026-04-03T08:48:54.114Z</time></trkpt><trkpt lat="42.9383733" lon="11.9989133"><ele>386.5</ele><time>2026-04-03T08:48:55.113Z</time></trkpt><trkpt lat="42.9383383" lon="11.998765"><ele>388.0</ele><time>2026-04-03T08:48:56.113Z</time></trkpt><trkpt lat="42.9382933" lon="11.9986283"><ele>388.0</ele><time>2026-04-03T08:48:57.113Z</time></trkpt><trkpt lat="42.938235" lon="11.998515"><ele>388.0</ele><time>2026-04-03T08:48:58.113Z</time></trkpt><trkpt lat="42.9381633" lon="11.998425"><ele>388.0</ele><time>2026-04-03T08:48:59.113Z</time></trkpt><trkpt lat="42.9380917" lon="11.9983417"><ele>388.0</ele><time>2026-04-03T08:49:00.113Z</time></trkpt><trkpt lat="42.938" lon="11.9982533"><ele>388.0</ele><time>2026-04-03T08:49:01.114Z</time></trkpt><trkpt lat="42.9379017" lon="11.9981667"><ele>385.5</ele><time>2026-04-03T08:49:02.114Z</time></trkpt><trkpt lat="42.9377917" lon="11.9980817"><ele>383.0</ele><time>2026-04-03T08:49:03.113Z</time></trkpt><trkpt lat="42.9376867" lon="11.99801"><ele>380.5</ele><time>2026-04-03T08:49:04.114Z</time></trkpt><trkpt lat="42.9375933" lon="11.9979267"><ele>378.0</ele><time>2026-04-03T08:49:05.114Z</time></trkpt><trkpt lat="42.9375167" lon="11.9978433"><ele>376.0</ele><time>2026-04-03T08:49:06.114Z</time></trkpt><trkpt lat="42.9374467" lon="11.9977517"><ele>374.0</ele><time>2026-04-03T08:49:07.113Z</time></trkpt><trkpt lat="42.9373733" lon="11.997615"><ele>372.0</ele><time>2026-04-03T08:49:08.113Z</time></trkpt><trkpt lat="42.93731" lon="11.9974583"><ele>370.0</ele><time>2026-04-03T08:49:09.113Z</time></trkpt><trkpt lat="42.93722" lon="11.997295"><ele>370.0</ele><time>2026-04-03T08:49:10.113Z</time></trkpt><trkpt lat="42.9371333" lon="11.99714"><ele>370.0</ele><time>2026-04-03T08:49:11.113Z</time></trkpt><trkpt lat="42.9370567" lon="11.9970167"><ele>370.0</ele><time>2026-04-03T08:49:12.114Z</time></trkpt><trkpt lat="42.93697" lon="11.9969117"><ele>370.0</ele><time>2026-04-03T08:49:13.114Z</time></trkpt><trkpt lat="42.9368883" lon="11.996845"><ele>370.0</ele><time>2026-04-03T08:49:14.113Z</time></trkpt><trkpt lat="42.93681" lon="11.9967933"><ele>370.0</ele><time>2026-04-03T08:49:15.113Z</time></trkpt><trkpt lat="42.9367133" lon="11.996775"><ele>370.0</ele><time>2026-04-03T08:49:16.113Z</time></trkpt><trkpt lat="42.9366117" lon="11.996765"><ele>370.0</ele><time>2026-04-03T08:49:17.113Z</time></trkpt><trkpt lat="42.9365083" lon="11.9967617"><ele>370.0</ele><time>2026-04-03T08:49:18.114Z</time></trkpt><trkpt lat="42.9363967" lon="11.996745"><ele>367.75</ele><time>2026-04-03T08:49:19.113Z</time></trkpt><trkpt lat="42.9362783" lon="11.9967017"><ele>365.5</ele><time>2026-04-03T08:49:20.113Z</time></trkpt><trkpt lat="42.9361583" lon="11.996635"><ele>363.25</ele><time>2026-04-03T08:49:21.113Z</time></trkpt><trkpt lat="42.9360333" lon="11.9965517"><ele>361.0</ele><time>2026-04-03T08:49:22.114Z</time></trkpt><trkpt lat="42.9359083" lon="11.9964617"><ele>358.0</ele><time>2026-04-03T08:49:23.113Z</time></trkpt><trkpt lat="42.9357933" lon="11.9963433"><ele>355.0</ele><time>2026-04-03T08:49:24.113Z</time></trkpt><trkpt lat="42.9356917" lon="11.9962383"><ele>352.0</ele><time>2026-04-03T08:49:25.113Z</time></trkpt><trkpt lat="42.9356067" lon="11.996145"><ele>349.0</ele><time>2026-04-03T08:49:26.113Z</time></trkpt><trkpt lat="42.9355317" lon="11.9960417"><ele>349.0</ele><time>2026-04-03T08:49:27.114Z</time></trkpt><trkpt lat="42.9354717" lon="11.9959333"><ele>349.0</ele><time>2026-04-03T08:49:28.113Z</time></trkpt><trkpt lat="42.9354217" lon="11.9957833"><ele>349.0</ele><time>2026-04-03T08:49:29.113Z</time></trkpt><trkpt lat="42.9353667" lon="11.995615"><ele>349.0</ele><time>2026-04-03T08:49:30.113Z</time></trkpt><trkpt lat="42.9353083" lon="11.9954467"><ele>348.25</ele><time>2026-04-03T08:49:31.113Z</time></trkpt><trkpt lat="42.9352267" lon="11.9952817"><ele>347.5</ele><time>2026-04-03T08:49:32.114Z</time></trkpt><trkpt lat="42.9351467" lon="11.995115"><ele>346.75</ele><time>2026-04-03T08:49:33.113Z</time></trkpt><trkpt lat="42.93507" lon="11.994985"><ele>346.0</ele><time>2026-04-03T08:49:34.113Z</time></trkpt><trkpt lat="42.9350017" lon="11.9948683"><ele>344.0</ele><time>2026-04-03T08:49:35.113Z</time></trkpt><trkpt lat="42.9349383" lon="11.994765"><ele>342.0</ele><time>2026-04-03T08:49:36.113Z</time></trkpt><trkpt lat="42.9348883" lon="11.9946567"><ele>340.0</ele><time>2026-04-03T08:49:37.113Z</time></trkpt><trkpt lat="42.9348517" lon="11.994545"><ele>338.0</ele><time>2026-04-03T08:49:38.113Z</time></trkpt><trkpt lat="42.9348333" lon="11.9944333"><ele>336.0</ele><time>2026-04-03T08:49:39.113Z</time></trkpt><trkpt lat="42.93484" lon="11.9943333"><ele>334.0</ele><time>2026-04-03T08:49:40.113Z</time></trkpt><trkpt lat="42.9348683" lon="11.99423"><ele>333.25</ele><time>2026-04-03T08:49:41.114Z</time></trkpt><trkpt lat="42.93492" lon="11.9940783"><ele>332.5</ele><time>2026-04-03T08:49:42.114Z</time></trkpt><trkpt lat="42.9349733" lon="11.993925"><ele>331.75</ele><time>2026-04-03T08:49:43.113Z</time></trkpt><trkpt lat="42.9350117" lon="11.9937433"><ele>331.0</ele><time>2026-04-03T08:49:44.113Z</time></trkpt><trkpt lat="42.93503" lon="11.9935717"><ele>331.0</ele><time>2026-04-03T08:49:45.114Z</time></trkpt><trkpt lat="42.9350433" lon="11.993395"><ele>331.0</ele><time>2026-04-03T08:49:46.113Z</time></trkpt><trkpt lat="42.9350267" lon="11.9932217"><ele>331.0</ele><time>2026-04-03T08:49:47.113Z</time></trkpt><trkpt lat="42.9350033" lon="11.9930483"><ele>331.0</ele><time>2026-04-03T08:49:48.113Z</time></trkpt><trkpt lat="42.9349517" lon="11.9928867"><ele>331.0</ele><time>2026-04-03T08:49:49.113Z</time></trkpt><trkpt lat="42.93487" lon="11.992745"><ele>331.0</ele><time>2026-04-03T08:49:50.113Z</time></trkpt><trkpt lat="42.9347717" lon="11.992615"><ele>331.0</ele><time>2026-04-03T08:49:51.114Z</time></trkpt><trkpt lat="42.9346533" lon="11.9925017"><ele>331.0</ele><time>2026-04-03T08:49:52.114Z</time></trkpt><trkpt lat="42.9345167" lon="11.9924033"><ele>329.3333333333333</ele><time>2026-04-03T08:49:53.113Z</time></trkpt><trkpt lat="42.9343833" lon="11.992285"><ele>327.6666666666667</ele><time>2026-04-03T08:49:54.113Z</time></trkpt><trkpt lat="42.9342317" lon="11.9921717"><ele>326.0</ele><time>2026-04-03T08:49:55.113Z</time></trkpt><trkpt lat="42.9340783" lon="11.9920617"><ele>330.6666666666667</ele><time>2026-04-03T08:49:56.114Z</time></trkpt><trkpt lat="42.9339083" lon="11.9919533"><ele>335.3333333333333</ele><time>2026-04-03T08:49:57.113Z</time></trkpt><trkpt lat="42.9337283" lon="11.9918317"><ele>340.0</ele><time>2026-04-03T08:49:58.113Z</time></trkpt><trkpt lat="42.9335467" lon="11.9917217"><ele>338.0</ele><time>2026-04-03T08:49:59.113Z</time></trkpt><trkpt lat="42.9333583" lon="11.99162"><ele>336.0</ele><time>2026-04-03T08:50:00.113Z</time></trkpt><trkpt lat="42.9331517" lon="11.9915333"><ele>334.0</ele><time>2026-04-03T08:50:01.113Z</time></trkpt><trkpt lat="42.9329467" lon="11.9914533"><ele>334.0</ele><time>2026-04-03T08:50:02.113Z</time></trkpt><trkpt lat="42.9327383" lon="11.9913733"><ele>334.0</ele><time>2026-04-03T08:50:03.114Z</time></trkpt><trkpt lat="42.9325583" lon="11.991315"><ele>334.0</ele><time>2026-04-03T08:50:04.113Z</time></trkpt><trkpt lat="42.9324017" lon="11.9912467"><ele>334.3333333333333</ele><time>2026-04-03T08:50:05.113Z</time></trkpt><trkpt lat="42.9322483" lon="11.9911933"><ele>334.6666666666667</ele><time>2026-04-03T08:50:06.113Z</time></trkpt><trkpt lat="42.9320917" lon="11.991165"><ele>335.0</ele><time>2026-04-03T08:50:07.114Z</time></trkpt><trkpt lat="42.93195" lon="11.9911183"><ele>335.0</ele><time>2026-04-03T08:50:08.113Z</time></trkpt><trkpt lat="42.9318417" lon="11.991055"><ele>335.0</ele><time>2026-04-03T08:50:09.114Z</time></trkpt><trkpt lat="42.9317483" lon="11.9909583"><ele>335.0</ele><time>2026-04-03T08:50:10.113Z</time></trkpt><trkpt lat="42.93166" lon="11.9908283"><ele>335.0</ele><time>2026-04-03T08:50:11.113Z</time></trkpt><trkpt lat="42.9315833" lon="11.9906683"><ele>334.25</ele><time>2026-04-03T08:50:12.114Z</time></trkpt><trkpt lat="42.9315117" lon="11.9905083"><ele>333.5</ele><time>2026-04-03T08:50:13.113Z</time></trkpt><trkpt lat="42.9314517" lon="11.990355"><ele>332.75</ele><time>2026-04-03T08:50:14.113Z</time></trkpt><trkpt lat="42.9313983" lon="11.9901683"><ele>332.0</ele><time>2026-04-03T08:50:15.113Z</time></trkpt><trkpt lat="42.931355" lon="11.9899583"><ele>331.33333333333337</ele><time>2026-04-03T08:50:16.113Z</time></trkpt><trkpt lat="42.9313167" lon="11.9897267"><ele>330.6666666666667</ele><time>2026-04-03T08:50:17.113Z</time></trkpt><trkpt lat="42.9312633" lon="11.9895"><ele>330.0</ele><time>2026-04-03T08:50:18.113Z</time></trkpt><trkpt lat="42.9312" lon="11.989285"><ele>329.3333333333333</ele><time>2026-04-03T08:50:19.114Z</time></trkpt><trkpt lat="42.9311483" lon="11.9890733"><ele>328.66666666666663</ele><time>2026-04-03T08:50:20.113Z</time></trkpt><trkpt lat="42.9310883" lon="11.9888617"><ele>328.0</ele><time>2026-04-03T08:50:21.113Z</time></trkpt><trkpt lat="42.93104" lon="11.9886433"><ele>328.0</ele><time>2026-04-03T08:50:22.113Z</time></trkpt><trkpt lat="42.9310067" lon="11.9884317"><ele>328.0</ele><time>2026-04-03T08:50:23.113Z</time></trkpt><trkpt lat="42.93095" lon="11.988225"><ele>328.0</ele><time>2026-04-03T08:50:24.113Z</time></trkpt><trkpt lat="42.9309083" lon="11.988015"><ele>328.3333333333333</ele><time>2026-04-03T08:50:25.113Z</time></trkpt><trkpt lat="42.93085" lon="11.9878217"><ele>328.6666666666667</ele><time>2026-04-03T08:50:26.113Z</time></trkpt><trkpt lat="42.9307817" lon="11.9876217"><ele>329.0</ele><time>2026-04-03T08:50:27.113Z</time></trkpt><trkpt lat="42.9306967" lon="11.9874317"><ele>326.5</ele><time>2026-04-03T08:50:28.114Z</time></trkpt><trkpt lat="42.9306167" lon="11.9872717"><ele>324.0</ele><time>2026-04-03T08:50:29.113Z</time></trkpt><trkpt lat="42.930525" lon="11.9871133"><ele>321.5</ele><time>2026-04-03T08:50:30.114Z</time></trkpt><trkpt lat="42.9304217" lon="11.9869733"><ele>319.0</ele><time>2026-04-03T08:50:31.113Z</time></trkpt><trkpt lat="42.930305" lon="11.986855"><ele>319.0</ele><time>2026-04-03T08:50:32.113Z</time></trkpt><trkpt lat="42.930185" lon="11.9867317"><ele>319.0</ele><time>2026-04-03T08:50:33.113Z</time></trkpt><trkpt lat="42.9300567" lon="11.98659"><ele>319.0</ele><time>2026-04-03T08:50:34.114Z</time></trkpt><trkpt lat="42.929925" lon="11.986435"><ele>318.66666666666663</ele><time>2026-04-03T08:50:35.114Z</time></trkpt><trkpt lat="42.9297983" lon="11.9862667"><ele>318.3333333333333</ele><time>2026-04-03T08:50:36.113Z</time></trkpt><trkpt lat="42.9296417" lon="11.9860883"><ele>318.0</ele><time>2026-04-03T08:50:37.113Z</time></trkpt><trkpt lat="42.9294867" lon="11.9859283"><ele>315.6666666666667</ele><time>2026-04-03T08:50:38.113Z</time></trkpt><trkpt lat="42.9293467" lon="11.9858017"><ele>313.33333333333337</ele><time>2026-04-03T08:50:39.114Z</time></trkpt><trkpt lat="42.9292167" lon="11.9856883"><ele>311.0</ele><time>2026-04-03T08:50:40.113Z</time></trkpt><trkpt lat="42.9291017" lon="11.9855933"><ele>310.5</ele><time>2026-04-03T08:50:41.113Z</time></trkpt><trkpt lat="42.9289967" lon="11.985525"><ele>310.0</ele><time>2026-04-03T08:50:42.114Z</time></trkpt><trkpt lat="42.9288917" lon="11.98548"><ele>309.5</ele><time>2026-04-03T08:50:43.114Z</time></trkpt><trkpt lat="42.9287833" lon="11.9854733"><ele>309.0</ele><time>2026-04-03T08:50:44.113Z</time></trkpt><trkpt lat="42.9286683" lon="11.9854917"><ele>309.0</ele><time>2026-04-03T08:50:45.113Z</time></trkpt><trkpt lat="42.9285633" lon="11.98553"><ele>309.0</ele><time>2026-04-03T08:50:46.114Z</time></trkpt><trkpt lat="42.92847" lon="11.985555"><ele>309.0</ele><time>2026-04-03T08:50:47.113Z</time></trkpt><trkpt lat="42.9283933" lon="11.9855617"><ele>309.0</ele><time>2026-04-03T08:50:48.113Z</time></trkpt><trkpt lat="42.9283267" lon="11.9855483"><ele>309.0</ele><time>2026-04-03T08:50:49.114Z</time></trkpt><trkpt lat="42.9282567" lon="11.9854183"><ele>306.3333333333333</ele><time>2026-04-03T08:50:51.114Z</time></trkpt><trkpt lat="42.9282617" lon="11.9852983"><ele>303.66666666666663</ele><time>2026-04-03T08:50:52.113Z</time></trkpt><trkpt lat="42.92834" lon="11.9850417"><ele>301.0</ele><time>2026-04-03T08:50:53.113Z</time></trkpt><trkpt lat="42.92838" lon="11.9848067"><ele>300.0</ele><time>2026-04-03T08:50:54.113Z</time></trkpt><trkpt lat="42.9284083" lon="11.9845717"><ele>299.0</ele><time>2026-04-03T08:50:55.113Z</time></trkpt><trkpt lat="42.9284267" lon="11.9843267"><ele>298.0</ele><time>2026-04-03T08:50:56.113Z</time></trkpt><trkpt lat="42.9283983" lon="11.9841"><ele>296.3333333333333</ele><time>2026-04-03T08:50:57.114Z</time></trkpt><trkpt lat="42.9283583" lon="11.9838733"><ele>294.6666666666667</ele><time>2026-04-03T08:50:58.113Z</time></trkpt><trkpt lat="42.9283083" lon="11.98366"><ele>293.0</ele><time>2026-04-03T08:50:59.113Z</time></trkpt><trkpt lat="42.92826" lon="11.9834483"><ele>291.25</ele><time>2026-04-03T08:51:00.114Z</time></trkpt><trkpt lat="42.92822" lon="11.9832483"><ele>289.5</ele><time>2026-04-03T08:51:01.113Z</time></trkpt><trkpt lat="42.9282017" lon="11.9830617"><ele>287.75</ele><time>2026-04-03T08:51:02.113Z</time></trkpt><trkpt lat="42.9281933" lon="11.9828933"><ele>286.0</ele><time>2026-04-03T08:51:03.114Z</time></trkpt><trkpt lat="42.92819" lon="11.982735"><ele>286.0</ele><time>2026-04-03T08:51:04.113Z</time></trkpt><trkpt lat="42.9281867" lon="11.9826033"><ele>286.0</ele><time>2026-04-03T08:51:05.113Z</time></trkpt><trkpt lat="42.9281717" lon="11.9824883"><ele>286.0</ele><time>2026-04-03T08:51:06.113Z</time></trkpt><trkpt lat="42.92814" lon="11.982375"><ele>286.0</ele><time>2026-04-03T08:51:07.114Z</time></trkpt><trkpt lat="42.92809" lon="11.9822633"><ele>286.0</ele><time>2026-04-03T08:51:08.114Z</time></trkpt><trkpt lat="42.92799" lon="11.9821533"><ele>283.66666666666663</ele><time>2026-04-03T08:51:09.113Z</time></trkpt><trkpt lat="42.9278767" lon="11.982035"><ele>281.3333333333333</ele><time>2026-04-03T08:51:10.114Z</time></trkpt><trkpt lat="42.9277467" lon="11.9819133"><ele>279.0</ele><time>2026-04-03T08:51:11.113Z</time></trkpt><trkpt lat="42.9276183" lon="11.981775"><ele>276.25</ele><time>2026-04-03T08:51:12.113Z</time></trkpt><trkpt lat="42.9275067" lon="11.9816617"><ele>273.5</ele><time>2026-04-03T08:51:13.113Z</time></trkpt><trkpt lat="42.9274217" lon="11.98153"><ele>270.75</ele><time>2026-04-03T08:51:14.113Z</time></trkpt><trkpt lat="42.9273533" lon="11.9813967"><ele>268.0</ele><time>2026-04-03T08:51:15.113Z</time></trkpt><trkpt lat="42.9273033" lon="11.98125"><ele>268.0</ele><time>2026-04-03T08:51:16.113Z</time></trkpt><trkpt lat="42.92726" lon="11.981055"><ele>268.0</ele><time>2026-04-03T08:51:17.114Z</time></trkpt><trkpt lat="42.9272117" lon="11.9808467"><ele>268.0</ele><time>2026-04-03T08:51:18.113Z</time></trkpt><trkpt lat="42.927165" lon="11.9806233"><ele>265.3333333333333</ele><time>2026-04-03T08:51:19.113Z</time></trkpt><trkpt lat="42.9271333" lon="11.9803983"><ele>262.6666666666667</ele><time>2026-04-03T08:51:20.113Z</time></trkpt><trkpt lat="42.9271183" lon="11.9801817"><ele>260.0</ele><time>2026-04-03T08:51:21.113Z</time></trkpt><trkpt lat="42.9271117" lon="11.97997"><ele>259.5</ele><time>2026-04-03T08:51:22.113Z</time></trkpt><trkpt lat="42.9271017" lon="11.97977"><ele>259.0</ele><time>2026-04-03T08:51:23.113Z</time></trkpt><trkpt lat="42.9270833" lon="11.9795717"><ele>258.5</ele><time>2026-04-03T08:51:24.113Z</time></trkpt><trkpt lat="42.9270433" lon="11.97938"><ele>258.0</ele><time>2026-04-03T08:51:25.113Z</time></trkpt><trkpt lat="42.9269883" lon="11.9791933"><ele>256.3333333333333</ele><time>2026-04-03T08:51:26.113Z</time></trkpt><trkpt lat="42.92691" lon="11.9790133"><ele>254.66666666666666</ele><time>2026-04-03T08:51:27.113Z</time></trkpt><trkpt lat="42.9268183" lon="11.97884"><ele>253.0</ele><time>2026-04-03T08:51:28.113Z</time></trkpt><trkpt lat="42.92673" lon="11.9786617"><ele>252.75</ele><time>2026-04-03T08:51:29.114Z</time></trkpt><trkpt lat="42.92664" lon="11.9784683"><ele>252.5</ele><time>2026-04-03T08:51:30.113Z</time></trkpt><trkpt lat="42.926555" lon="11.9783033"><ele>252.25</ele><time>2026-04-03T08:51:31.114Z</time></trkpt><trkpt lat="42.9264867" lon="11.97816"><ele>252.0</ele><time>2026-04-03T08:51:32.113Z</time></trkpt><trkpt lat="42.9264367" lon="11.9780533"><ele>251.66666666666666</ele><time>2026-04-03T08:51:33.114Z</time></trkpt><trkpt lat="42.926415" lon="11.977965"><ele>251.33333333333331</ele><time>2026-04-03T08:51:34.113Z</time></trkpt><trkpt lat="42.9264633" lon="11.9778367"><ele>251.0</ele><time>2026-04-03T08:51:36.114Z</time></trkpt><trkpt lat="42.9265317" lon="11.977795"><ele>250.66666666666666</ele><time>2026-04-03T08:51:37.114Z</time></trkpt><trkpt lat="42.92661" lon="11.97777"><ele>250.33333333333331</ele><time>2026-04-03T08:51:38.114Z</time></trkpt><trkpt lat="42.9267283" lon="11.9777533"><ele>250.0</ele><time>2026-04-03T08:51:39.113Z</time></trkpt><trkpt lat="42.92687" lon="11.9777333"><ele>250.0</ele><time>2026-04-03T08:51:40.113Z</time></trkpt><trkpt lat="42.9270167" lon="11.9777183"><ele>250.0</ele><time>2026-04-03T08:51:41.113Z</time></trkpt><trkpt lat="42.927165" lon="11.9776783"><ele>250.0</ele><time>2026-04-03T08:51:42.114Z</time></trkpt><trkpt lat="42.92731" lon="11.9776333"><ele>250.0</ele><time>2026-04-03T08:51:43.113Z</time></trkpt><trkpt lat="42.9274483" lon="11.9775817"><ele>250.5</ele><time>2026-04-03T08:51:44.113Z</time></trkpt><trkpt lat="42.9275833" lon="11.977535"><ele>251.0</ele><time>2026-04-03T08:51:45.113Z</time></trkpt><trkpt lat="42.9277217" lon="11.977475"><ele>251.5</ele><time>2026-04-03T08:51:46.113Z</time></trkpt><trkpt lat="42.927865" lon="11.97741"><ele>252.0</ele><time>2026-04-03T08:51:47.113Z</time></trkpt><trkpt lat="42.92801" lon="11.9773333"><ele>252.0</ele><time>2026-04-03T08:51:48.114Z</time></trkpt><trkpt lat="42.9281567" lon="11.9772333"><ele>252.0</ele><time>2026-04-03T08:51:49.113Z</time></trkpt><trkpt lat="42.92831" lon="11.97712"><ele>252.0</ele><time>2026-04-03T08:51:50.113Z</time></trkpt><trkpt lat="42.9284467" lon="11.9770167"><ele>251.5</ele><time>2026-04-03T08:51:51.113Z</time></trkpt><trkpt lat="42.9285867" lon="11.9769067"><ele>251.0</ele><time>2026-04-03T08:51:52.113Z</time></trkpt><trkpt lat="42.928715" lon="11.9768083"><ele>250.5</ele><time>2026-04-03T08:51:53.113Z</time></trkpt><trkpt lat="42.9288317" lon="11.9767067"><ele>250.0</ele><time>2026-04-03T08:51:54.113Z</time></trkpt><trkpt lat="42.92894" lon="11.976595"><ele>250.0</ele><time>2026-04-03T08:51:55.113Z</time></trkpt><trkpt lat="42.9290567" lon="11.9764817"><ele>250.0</ele><time>2026-04-03T08:51:56.113Z</time></trkpt><trkpt lat="42.92918" lon="11.9763833"><ele>250.0</ele><time>2026-04-03T08:51:57.114Z</time></trkpt><trkpt lat="42.92931" lon="11.976295"><ele>250.0</ele><time>2026-04-03T08:51:58.114Z</time></trkpt><trkpt lat="42.9294567" lon="11.97621"><ele>252.0</ele><time>2026-04-03T08:51:59.114Z</time></trkpt><trkpt lat="42.9296067" lon="11.9761333"><ele>254.0</ele><time>2026-04-03T08:52:00.113Z</time></trkpt><trkpt lat="42.9297617" lon="11.976075"><ele>256.0</ele><time>2026-04-03T08:52:01.113Z</time></trkpt><trkpt lat="42.92992" lon="11.9760317"><ele>254.0</ele><time>2026-04-03T08:52:02.113Z</time></trkpt><trkpt lat="42.93008" lon="11.97597"><ele>252.0</ele><time>2026-04-03T08:52:03.113Z</time></trkpt><trkpt lat="42.9302467" lon="11.97591"><ele>250.0</ele><time>2026-04-03T08:52:04.113Z</time></trkpt><trkpt lat="42.9304067" lon="11.97585"><ele>250.0</ele><time>2026-04-03T08:52:05.113Z</time></trkpt><trkpt lat="42.9305717" lon="11.9757867"><ele>250.0</ele><time>2026-04-03T08:52:06.113Z</time></trkpt><trkpt lat="42.9307417" lon="11.9757317"><ele>250.0</ele><time>2026-04-03T08:52:07.114Z</time></trkpt><trkpt lat="42.9309117" lon="11.975675"><ele>251.0</ele><time>2026-04-03T08:52:08.114Z</time></trkpt><trkpt lat="42.9310817" lon="11.97562"><ele>252.0</ele><time>2026-04-03T08:52:09.114Z</time></trkpt><trkpt lat="42.9312417" lon="11.975565"><ele>253.0</ele><time>2026-04-03T08:52:10.113Z</time></trkpt><trkpt lat="42.9313867" lon="11.9755117"><ele>253.0</ele><time>2026-04-03T08:52:11.113Z</time></trkpt><trkpt lat="42.9315167" lon="11.975455"><ele>253.0</ele><time>2026-04-03T08:52:12.113Z</time></trkpt><trkpt lat="42.9316267" lon="11.9754067"><ele>253.0</ele><time>2026-04-03T08:52:13.113Z</time></trkpt><trkpt lat="42.9317117" lon="11.97536"><ele>253.0</ele><time>2026-04-03T08:52:14.113Z</time></trkpt><trkpt lat="42.9317833" lon="11.9753333"><ele>253.0</ele><time>2026-04-03T08:52:15.113Z</time></trkpt><trkpt lat="42.9318467" lon="11.975315"><ele>252.5</ele><time>2026-04-03T08:52:16.113Z</time></trkpt><trkpt lat="42.9319217" lon="11.975265"><ele>252.0</ele><time>2026-04-03T08:52:18.114Z</time></trkpt><trkpt lat="42.9318333" lon="11.9751217"><ele>251.5</ele><time>2026-04-03T08:52:20.113Z</time></trkpt><trkpt lat="42.9317517" lon="11.9750217"><ele>251.0</ele><time>2026-04-03T08:52:21.113Z</time></trkpt><trkpt lat="42.9316567" lon="11.9749033"><ele>250.75</ele><time>2026-04-03T08:52:22.114Z</time></trkpt><trkpt lat="42.9315483" lon="11.9747667"><ele>250.5</ele><time>2026-04-03T08:52:23.113Z</time></trkpt><trkpt lat="42.9314383" lon="11.9746317"><ele>250.25</ele><time>2026-04-03T08:52:24.113Z</time></trkpt><trkpt lat="42.9313333" lon="11.9744817"><ele>250.0</ele><time>2026-04-03T08:52:25.113Z</time></trkpt><trkpt lat="42.9312283" lon="11.9743233"><ele>249.75</ele><time>2026-04-03T08:52:26.113Z</time></trkpt><trkpt lat="42.9311317" lon="11.9741667"><ele>249.5</ele><time>2026-04-03T08:52:27.114Z</time></trkpt><trkpt lat="42.9310333" lon="11.9740083"><ele>249.25</ele><time>2026-04-03T08:52:28.114Z</time></trkpt><trkpt lat="42.9309433" lon="11.97385"><ele>249.0</ele><time>2026-04-03T08:52:29.113Z</time></trkpt><trkpt lat="42.93087" lon="11.97369"><ele>248.75</ele><time>2026-04-03T08:52:30.114Z</time></trkpt><trkpt lat="42.9308" lon="11.97352"><ele>248.5</ele><time>2026-04-03T08:52:31.114Z</time></trkpt><trkpt lat="42.9307433" lon="11.9733317"><ele>248.25</ele><time>2026-04-03T08:52:32.113Z</time></trkpt><trkpt lat="42.9307083" lon="11.9731367"><ele>248.0</ele><time>2026-04-03T08:52:33.113Z</time></trkpt><trkpt lat="42.93069" lon="11.9729317"><ele>247.5</ele><time>2026-04-03T08:52:34.114Z</time></trkpt><trkpt lat="42.930685" lon="11.97273"><ele>247.0</ele><time>2026-04-03T08:52:35.113Z</time></trkpt><trkpt lat="42.9307017" lon="11.9725367"><ele>246.5</ele><time>2026-04-03T08:52:36.114Z</time></trkpt><trkpt lat="42.93073" lon="11.9723467"><ele>246.0</ele><time>2026-04-03T08:52:37.113Z</time></trkpt><trkpt lat="42.93078" lon="11.9721583"><ele>246.0</ele><time>2026-04-03T08:52:38.113Z</time></trkpt><trkpt lat="42.9308583" lon="11.9719717"><ele>246.0</ele><time>2026-04-03T08:52:39.113Z</time></trkpt><trkpt lat="42.9309517" lon="11.9718"><ele>246.0</ele><time>2026-04-03T08:52:40.113Z</time></trkpt><trkpt lat="42.931055" lon="11.9716433"><ele>246.0</ele><time>2026-04-03T08:52:41.113Z</time></trkpt><trkpt lat="42.9311617" lon="11.9714967"><ele>246.0</ele><time>2026-04-03T08:52:42.114Z</time></trkpt><trkpt lat="42.9312767" lon="11.97138"><ele>246.0</ele><time>2026-04-03T08:52:43.114Z</time></trkpt><trkpt lat="42.931395" lon="11.9712683"><ele>246.0</ele><time>2026-04-03T08:52:44.113Z</time></trkpt><trkpt lat="42.931515" lon="11.9711583"><ele>246.0</ele><time>2026-04-03T08:52:45.113Z</time></trkpt><trkpt lat="42.9316267" lon="11.9710383"><ele>246.0</ele><time>2026-04-03T08:52:46.113Z</time></trkpt><trkpt lat="42.9317267" lon="11.9709167"><ele>246.0</ele><time>2026-04-03T08:52:47.113Z</time></trkpt><trkpt lat="42.9318033" lon="11.97078"><ele>246.0</ele><time>2026-04-03T08:52:48.113Z</time></trkpt><trkpt lat="42.931855" lon="11.9706283"><ele>245.75</ele><time>2026-04-03T08:52:49.113Z</time></trkpt><trkpt lat="42.93188" lon="11.97045"><ele>245.5</ele><time>2026-04-03T08:52:50.114Z</time></trkpt><trkpt lat="42.9318783" lon="11.9702633"><ele>245.25</ele><time>2026-04-03T08:52:51.113Z</time></trkpt><trkpt lat="42.93186" lon="11.97008"><ele>245.0</ele><time>2026-04-03T08:52:52.114Z</time></trkpt><trkpt lat="42.9318517" lon="11.96989"><ele>245.0</ele><time>2026-04-03T08:52:53.113Z</time></trkpt><trkpt lat="42.9318417" lon="11.9697"><ele>245.0</ele><time>2026-04-03T08:52:54.114Z</time></trkpt><trkpt lat="42.9318117" lon="11.969515"><ele>245.0</ele><time>2026-04-03T08:52:55.114Z</time></trkpt><trkpt lat="42.9318017" lon="11.9693433"><ele>245.0</ele><time>2026-04-03T08:52:56.114Z</time></trkpt><trkpt lat="42.9317967" lon="11.9691767"><ele>245.0</ele><time>2026-04-03T08:52:57.113Z</time></trkpt><trkpt lat="42.9317917" lon="11.9690183"><ele>245.0</ele><time>2026-04-03T08:52:58.113Z</time></trkpt><trkpt lat="42.9317883" lon="11.9688683"><ele>245.0</ele><time>2026-04-03T08:52:59.113Z</time></trkpt><trkpt lat="42.9317833" lon="11.9687433"><ele>245.0</ele><time>2026-04-03T08:53:00.113Z</time></trkpt><trkpt lat="42.9317883" lon="11.968635"><ele>245.0</ele><time>2026-04-03T08:53:01.113Z</time></trkpt><trkpt lat="42.9317833" lon="11.9685367"><ele>245.00000000000003</ele><time>2026-04-03T08:53:02.113Z</time></trkpt><trkpt lat="42.931785" lon="11.9684467"><ele>245.0</ele><time>2026-04-03T08:53:03.113Z</time></trkpt><trkpt lat="42.9317833" lon="11.968295"><ele>245.0</ele><time>2026-04-03T08:53:05.113Z</time></trkpt><trkpt lat="42.93177" lon="11.96816"><ele>245.0</ele><time>2026-04-03T08:53:07.114Z</time></trkpt><trkpt lat="42.9317617" lon="11.9680667"><ele>245.00000000000003</ele><time>2026-04-03T08:53:08.113Z</time></trkpt><trkpt lat="42.93175" lon="11.9679583"><ele>245.0</ele><time>2026-04-03T08:53:09.114Z</time></trkpt><trkpt lat="42.9317417" lon="11.9678283"><ele>245.0</ele><time>2026-04-03T08:53:10.113Z</time></trkpt><trkpt lat="42.9317367" lon="11.9676967"><ele>245.0</ele><time>2026-04-03T08:53:11.113Z</time></trkpt><trkpt lat="42.9317283" lon="11.9675433"><ele>245.0</ele><time>2026-04-03T08:53:12.114Z</time></trkpt><trkpt lat="42.93172" lon="11.9673683"><ele>245.0</ele><time>2026-04-03T08:53:13.114Z</time></trkpt><trkpt lat="42.9316983" lon="11.96718"><ele>245.0</ele><time>2026-04-03T08:53:14.113Z</time></trkpt><trkpt lat="42.9316717" lon="11.9669867"><ele>245.0</ele><time>2026-04-03T08:53:15.113Z</time></trkpt><trkpt lat="42.9316233" lon="11.9668017"><ele>245.0</ele><time>2026-04-03T08:53:16.114Z</time></trkpt><trkpt lat="42.9315467" lon="11.9666017"><ele>245.0</ele><time>2026-04-03T08:53:17.113Z</time></trkpt><trkpt lat="42.9314517" lon="11.9663983"><ele>245.0</ele><time>2026-04-03T08:53:18.113Z</time></trkpt><trkpt lat="42.9313517" lon="11.9662017"><ele>245.0</ele><time>2026-04-03T08:53:19.113Z</time></trkpt><trkpt lat="42.93124" lon="11.9660117"><ele>244.66666666666669</ele><time>2026-04-03T08:53:20.113Z</time></trkpt><trkpt lat="42.931125" lon="11.9658183"><ele>244.33333333333331</ele><time>2026-04-03T08:53:21.113Z</time></trkpt><trkpt lat="42.9309933" lon="11.9656417"><ele>244.0</ele><time>2026-04-03T08:53:22.114Z</time></trkpt><trkpt lat="42.930875" lon="11.9654517"><ele>244.0</ele><time>2026-04-03T08:53:23.113Z</time></trkpt><trkpt lat="42.9307433" lon="11.9652567"><ele>244.0</ele><time>2026-04-03T08:53:24.113Z</time></trkpt><trkpt lat="42.9306183" lon="11.96506"><ele>244.0</ele><time>2026-04-03T08:53:25.113Z</time></trkpt><trkpt lat="42.9305067" lon="11.9648633"><ele>244.0</ele><time>2026-04-03T08:53:26.113Z</time></trkpt><trkpt lat="42.930375" lon="11.964665"><ele>244.0</ele><time>2026-04-03T08:53:27.114Z</time></trkpt><trkpt lat="42.9302433" lon="11.9644783"><ele>244.0</ele><time>2026-04-03T08:53:28.113Z</time></trkpt><trkpt lat="42.9301183" lon="11.9642867"><ele>244.33333333333331</ele><time>2026-04-03T08:53:29.113Z</time></trkpt><trkpt lat="42.9299983" lon="11.9640983"><ele>244.66666666666669</ele><time>2026-04-03T08:53:30.113Z</time></trkpt><trkpt lat="42.9298717" lon="11.9639"><ele>245.0</ele><time>2026-04-03T08:53:31.113Z</time></trkpt><trkpt lat="42.9297483" lon="11.9637183"><ele>245.0</ele><time>2026-04-03T08:53:32.113Z</time></trkpt><trkpt lat="42.9296233" lon="11.9635383"><ele>245.0</ele><time>2026-04-03T08:53:33.113Z</time></trkpt><trkpt lat="42.929475" lon="11.96335"><ele>245.0</ele><time>2026-04-03T08:53:34.113Z</time></trkpt><trkpt lat="42.92932" lon="11.9631967"><ele>244.33333333333334</ele><time>2026-04-03T08:53:35.113Z</time></trkpt><trkpt lat="42.9291767" lon="11.9630467"><ele>243.66666666666669</ele><time>2026-04-03T08:53:36.114Z</time></trkpt><trkpt lat="42.92903" lon="11.9628967"><ele>243.0</ele><time>2026-04-03T08:53:37.113Z</time></trkpt><trkpt lat="42.928885" lon="11.9627467"><ele>243.0</ele><time>2026-04-03T08:53:38.113Z</time></trkpt><trkpt lat="42.9287417" lon="11.9625967"><ele>243.0</ele><time>2026-04-03T08:53:39.113Z</time></trkpt><trkpt lat="42.9285967" lon="11.96244"><ele>243.0</ele><time>2026-04-03T08:53:40.114Z</time></trkpt><trkpt lat="42.9284667" lon="11.9622983"><ele>242.5</ele><time>2026-04-03T08:53:41.113Z</time></trkpt><trkpt lat="42.928355" lon="11.9621733"><ele>242.0</ele><time>2026-04-03T08:53:42.112Z</time></trkpt><trkpt lat="42.9282517" lon="11.9620667"><ele>241.5</ele><time>2026-04-03T08:53:43.113Z</time></trkpt><trkpt lat="42.9281533" lon="11.9619567"><ele>241.0</ele><time>2026-04-03T08:53:44.112Z</time></trkpt><trkpt lat="42.9280583" lon="11.9618533"><ele>241.0</ele><time>2026-04-03T08:53:45.112Z</time></trkpt><trkpt lat="42.92796" lon="11.9617467"><ele>241.00000000000003</ele><time>2026-04-03T08:53:46.112Z</time></trkpt><trkpt lat="42.927875" lon="11.961655"><ele>241.00000000000003</ele><time>2026-04-03T08:53:47.113Z</time></trkpt><trkpt lat="42.9278117" lon="11.9615683"><ele>241.0</ele><time>2026-04-03T08:53:48.112Z</time></trkpt><trkpt lat="42.9277567" lon="11.961485"><ele>241.0</ele><time>2026-04-03T08:53:49.112Z</time></trkpt><trkpt lat="42.9277133" lon="11.9614083"><ele>241.16666666666666</ele><time>2026-04-03T08:53:50.112Z</time></trkpt><trkpt lat="42.927675" lon="11.9613283"><ele>241.33333333333331</ele><time>2026-04-03T08:53:51.112Z</time></trkpt><trkpt lat="42.92763" lon="11.9612467"><ele>241.5</ele><time>2026-04-03T08:53:52.112Z</time></trkpt><trkpt lat="42.9275783" lon="11.9611817"><ele>241.66666666666669</ele><time>2026-04-03T08:53:54.113Z</time></trkpt><trkpt lat="42.9276133" lon="11.961285"><ele>241.83333333333334</ele><time>2026-04-03T08:53:57.113Z</time></trkpt><trkpt lat="42.9276533" lon="11.96137"><ele>242.0</ele><time>2026-04-03T08:53:58.112Z</time></trkpt><trkpt lat="42.9277167" lon="11.9614717"><ele>242.0</ele><time>2026-04-03T08:53:59.112Z</time></trkpt><trkpt lat="42.9277917" lon="11.9615667"><ele>242.0</ele><time>2026-04-03T08:54:00.112Z</time></trkpt><trkpt lat="42.9278867" lon="11.96168"><ele>242.0</ele><time>2026-04-03T08:54:01.113Z</time></trkpt><trkpt lat="42.9279933" lon="11.961795"><ele>242.0</ele><time>2026-04-03T08:54:02.112Z</time></trkpt><trkpt lat="42.92811" lon="11.9619233"><ele>241.66666666666669</ele><time>2026-04-03T08:54:03.113Z</time></trkpt><trkpt lat="42.9282417" lon="11.9620617"><ele>241.33333333333331</ele><time>2026-04-03T08:54:04.112Z</time></trkpt><trkpt lat="42.9283817" lon="11.96221"><ele>241.0</ele><time>2026-04-03T08:54:05.112Z</time></trkpt><trkpt lat="42.9285267" lon="11.96236"><ele>241.66666666666666</ele><time>2026-04-03T08:54:06.112Z</time></trkpt><trkpt lat="42.9286833" lon="11.9625183"><ele>242.33333333333331</ele><time>2026-04-03T08:54:07.113Z</time></trkpt><trkpt lat="42.9288267" lon="11.9626817"><ele>243.0</ele><time>2026-04-03T08:54:08.113Z</time></trkpt><trkpt lat="42.9289617" lon="11.9628267"><ele>243.0</ele><time>2026-04-03T08:54:09.112Z</time></trkpt><trkpt lat="42.9290817" lon="11.9629533"><ele>243.0</ele><time>2026-04-03T08:54:10.112Z</time></trkpt><trkpt lat="42.9291867" lon="11.963055"><ele>243.0</ele><time>2026-04-03T08:54:11.112Z</time></trkpt><trkpt lat="42.9292817" lon="11.96316"><ele>243.0</ele><time>2026-04-03T08:54:12.112Z</time></trkpt><trkpt lat="42.92936" lon="11.963255"><ele>243.4</ele><time>2026-04-03T08:54:13.113Z</time></trkpt><trkpt lat="42.9294267" lon="11.9633383"><ele>243.8</ele><time>2026-04-03T08:54:14.112Z</time></trkpt><trkpt lat="42.9295483" lon="11.96341"><ele>244.2</ele><time>2026-04-03T08:54:16.112Z</time></trkpt><trkpt lat="42.9296017" lon="11.9633467"><ele>244.6</ele><time>2026-04-03T08:54:18.112Z</time></trkpt><trkpt lat="42.9295717" lon="11.9632283"><ele>245.0</ele><time>2026-04-03T08:54:20.112Z</time></trkpt><trkpt lat="42.9295417" lon="11.9631367"><ele>246.0</ele><time>2026-04-03T08:54:21.113Z</time></trkpt><trkpt lat="42.929505" lon="11.9630267"><ele>247.0</ele><time>2026-04-03T08:54:22.112Z</time></trkpt><trkpt lat="42.9294633" lon="11.9629033"><ele>248.0</ele><time>2026-04-03T08:54:23.112Z</time></trkpt><trkpt lat="42.929415" lon="11.9627583"><ele>249.0</ele><time>2026-04-03T08:54:24.112Z</time></trkpt><trkpt lat="42.9293583" lon="11.9626133"><ele>250.0</ele><time>2026-04-03T08:54:25.112Z</time></trkpt><trkpt lat="42.929315" lon="11.962455"><ele>250.25</ele><time>2026-04-03T08:54:26.112Z</time></trkpt><trkpt lat="42.9292683" lon="11.9622983"><ele>250.5</ele><time>2026-04-03T08:54:27.112Z</time></trkpt><trkpt lat="42.9292283" lon="11.96215"><ele>250.75</ele><time>2026-04-03T08:54:28.113Z</time></trkpt><trkpt lat="42.9291867" lon="11.9620033"><ele>251.0</ele><time>2026-04-03T08:54:29.113Z</time></trkpt><trkpt lat="42.9291433" lon="11.9618583"><ele>249.60000000000002</ele><time>2026-04-03T08:54:30.113Z</time></trkpt><trkpt lat="42.9291" lon="11.9617283"><ele>248.20000000000002</ele><time>2026-04-03T08:54:31.113Z</time></trkpt><trkpt lat="42.9290533" lon="11.9615967"><ele>246.79999999999998</ele><time>2026-04-03T08:54:32.113Z</time></trkpt><trkpt lat="42.9289983" lon="11.96146"><ele>245.39999999999998</ele><time>2026-04-03T08:54:33.113Z</time></trkpt><trkpt lat="42.9289483" lon="11.96132"><ele>244.0</ele><time>2026-04-03T08:54:34.112Z</time></trkpt><trkpt lat="42.928895" lon="11.9611817"><ele>244.0</ele><time>2026-04-03T08:54:35.113Z</time></trkpt><trkpt lat="42.928855" lon="11.9610417"><ele>243.99999999999997</ele><time>2026-04-03T08:54:36.113Z</time></trkpt><trkpt lat="42.9288183" lon="11.9609033"><ele>243.99999999999997</ele><time>2026-04-03T08:54:37.113Z</time></trkpt><trkpt lat="42.928785" lon="11.9607683"><ele>244.0</ele><time>2026-04-03T08:54:38.112Z</time></trkpt><trkpt lat="42.928745" lon="11.9606333"><ele>244.0</ele><time>2026-04-03T08:54:39.112Z</time></trkpt><trkpt lat="42.9287267" lon="11.9604933"><ele>244.2</ele><time>2026-04-03T08:54:40.112Z</time></trkpt><trkpt lat="42.928715" lon="11.9603667"><ele>244.39999999999998</ele><time>2026-04-03T08:54:41.113Z</time></trkpt><trkpt lat="42.9286967" lon="11.96028"><ele>244.6</ele><time>2026-04-03T08:54:42.112Z</time></trkpt><trkpt lat="42.9287533" lon="11.9602033"><ele>244.8</ele><time>2026-04-03T08:54:46.112Z</time></trkpt><trkpt lat="42.92887" lon="11.9601333"><ele>245.0</ele><time>2026-04-03T08:54:48.113Z</time></trkpt><trkpt lat="42.9289533" lon="11.9600883"><ele>245.25</ele><time>2026-04-03T08:54:49.112Z</time></trkpt><trkpt lat="42.9290517" lon="11.9600233"><ele>245.5</ele><time>2026-04-03T08:54:50.112Z</time></trkpt><trkpt lat="42.9291617" lon="11.95996"><ele>245.75</ele><time>2026-04-03T08:54:51.113Z</time></trkpt><trkpt lat="42.9292867" lon="11.95989"><ele>246.0</ele><time>2026-04-03T08:54:52.112Z</time></trkpt><trkpt lat="42.92941" lon="11.9598067"><ele>246.0</ele><time>2026-04-03T08:54:53.112Z</time></trkpt><trkpt lat="42.9295233" lon="11.9597117"><ele>246.0</ele><time>2026-04-03T08:54:54.112Z</time></trkpt><trkpt lat="42.9296333" lon="11.9595967"><ele>246.0</ele><time>2026-04-03T08:54:55.113Z</time></trkpt><trkpt lat="42.92975" lon="11.959485"><ele>246.0</ele><time>2026-04-03T08:54:56.112Z</time></trkpt><trkpt lat="42.9298667" lon="11.9593717"><ele>246.0</ele><time>2026-04-03T08:54:57.113Z</time></trkpt><trkpt lat="42.9299767" lon="11.9592567"><ele>246.0</ele><time>2026-04-03T08:54:58.112Z</time></trkpt><trkpt lat="42.9301" lon="11.9591317"><ele>246.0</ele><time>2026-04-03T08:54:59.112Z</time></trkpt><trkpt lat="42.9302117" lon="11.9590567"><ele>246.0</ele><time>2026-04-03T08:55:00.113Z</time></trkpt><trkpt lat="42.93032" lon="11.9589867"><ele>246.0</ele><time>2026-04-03T08:55:01.112Z</time></trkpt><trkpt lat="42.93043" lon="11.9589317"><ele>246.0</ele><time>2026-04-03T08:55:02.112Z</time></trkpt><trkpt lat="42.9305283" lon="11.9588583"><ele>246.0</ele><time>2026-04-03T08:55:03.112Z</time></trkpt><trkpt lat="42.93063" lon="11.95879"><ele>246.0</ele><time>2026-04-03T08:55:04.112Z</time></trkpt><trkpt lat="42.9307333" lon="11.958725"><ele>246.0</ele><time>2026-04-03T08:55:05.113Z</time></trkpt><trkpt lat="42.9308467" lon="11.9586517"><ele>246.0</ele><time>2026-04-03T08:55:06.112Z</time></trkpt><trkpt lat="42.93097" lon="11.9585733"><ele>246.0</ele><time>2026-04-03T08:55:07.112Z</time></trkpt><trkpt lat="42.931095" lon="11.95849"><ele>246.0</ele><time>2026-04-03T08:55:08.113Z</time></trkpt><trkpt lat="42.93121" lon="11.9584033"><ele>246.25</ele><time>2026-04-03T08:55:09.112Z</time></trkpt><trkpt lat="42.931315" lon="11.9583217"><ele>246.5</ele><time>2026-04-03T08:55:10.113Z</time></trkpt><trkpt lat="42.9314233" lon="11.9582383"><ele>246.75</ele><time>2026-04-03T08:55:11.112Z</time></trkpt><trkpt lat="42.9315183" lon="11.9581633"><ele>247.0</ele><time>2026-04-03T08:55:12.113Z</time></trkpt><trkpt lat="42.9316083" lon="11.9581117"><ele>247.0</ele><time>2026-04-03T08:55:13.113Z</time></trkpt><trkpt lat="42.9316933" lon="11.958055"><ele>247.0</ele><time>2026-04-03T08:55:14.112Z</time></trkpt><trkpt lat="42.9317717" lon="11.9580117"><ele>247.0</ele><time>2026-04-03T08:55:15.112Z</time></trkpt><trkpt lat="42.9318517" lon="11.9579633"><ele>247.0</ele><time>2026-04-03T08:55:16.112Z</time></trkpt><trkpt lat="42.9319417" lon="11.9579083"><ele>247.0</ele><time>2026-04-03T08:55:17.112Z</time></trkpt><trkpt lat="42.93204" lon="11.95785"><ele>246.83333333333331</ele><time>2026-04-03T08:55:18.113Z</time></trkpt><trkpt lat="42.93214" lon="11.957785"><ele>246.66666666666666</ele><time>2026-04-03T08:55:19.112Z</time></trkpt><trkpt lat="42.9322167" lon="11.9577217"><ele>246.5</ele><time>2026-04-03T08:55:20.113Z</time></trkpt><trkpt lat="42.9322833" lon="11.9576783"><ele>246.33333333333331</ele><time>2026-04-03T08:55:21.113Z</time></trkpt><trkpt lat="42.9323683" lon="11.957665"><ele>246.16666666666666</ele><time>2026-04-03T08:55:24.113Z</time></trkpt><trkpt lat="42.9324417" lon="11.9576267"><ele>246.0</ele><time>2026-04-03T08:55:26.112Z</time></trkpt><trkpt lat="42.9325667" lon="11.9575533"><ele>245.8</ele><time>2026-04-03T08:55:28.112Z</time></trkpt><trkpt lat="42.9326333" lon="11.9575"><ele>245.60000000000002</ele><time>2026-04-03T08:55:29.112Z</time></trkpt><trkpt lat="42.9327" lon="11.95746"><ele>245.4</ele><time>2026-04-03T08:55:30.112Z</time></trkpt><trkpt lat="42.9328" lon="11.95739"><ele>245.2</ele><time>2026-04-03T08:55:32.112Z</time></trkpt><trkpt lat="42.93281" lon="11.9572833"><ele>245.0</ele><time>2026-04-03T08:55:34.112Z</time></trkpt><trkpt lat="42.9327583" lon="11.957145"><ele>245.0</ele><time>2026-04-03T08:55:36.112Z</time></trkpt><trkpt lat="42.9326833" lon="11.9570117"><ele>245.0</ele><time>2026-04-03T08:55:38.112Z</time></trkpt><trkpt lat="42.9326333" lon="11.95695"><ele>245.0</ele><time>2026-04-03T08:55:39.112Z</time></trkpt><trkpt lat="42.9326133" lon="11.95686"><ele>245.0</ele><time>2026-04-03T08:55:40.112Z</time></trkpt><trkpt lat="42.9326567" lon="11.9567567"><ele>245.0</ele><time>2026-04-03T08:55:46.112Z</time></trkpt><trkpt lat="42.9327683" lon="11.95666"><ele>245.5</ele><time>2026-04-03T08:55:48.112Z</time></trkpt><trkpt lat="42.932855" lon="11.9565983"><ele>246.0</ele><time>2026-04-03T08:55:49.112Z</time></trkpt><trkpt lat="42.9329483" lon="11.956535"><ele>246.5</ele><time>2026-04-03T08:55:50.113Z</time></trkpt><trkpt lat="42.933065" lon="11.9564717"><ele>247.0</ele><time>2026-04-03T08:55:51.112Z</time></trkpt><trkpt lat="42.93319" lon="11.9564217"><ele>247.0</ele><time>2026-04-03T08:55:52.112Z</time></trkpt><trkpt lat="42.933295" lon="11.956375"><ele>247.0</ele><time>2026-04-03T08:55:53.112Z</time></trkpt><trkpt lat="42.9333883" lon="11.9563183"><ele>247.0</ele><time>2026-04-03T08:55:54.112Z</time></trkpt><trkpt lat="42.9334467" lon="11.95628"><ele>247.0</ele><time>2026-04-03T08:55:55.112Z</time></trkpt><trkpt lat="42.9334633" lon="11.956115"><ele>247.0</ele><time>2026-04-03T08:55:57.112Z</time></trkpt><trkpt lat="42.9334267" lon="11.9559933"><ele>246.75</ele><time>2026-04-03T08:55:58.112Z</time></trkpt><trkpt lat="42.9333817" lon="11.9558617"><ele>246.5</ele><time>2026-04-03T08:55:59.112Z</time></trkpt><trkpt lat="42.9333267" lon="11.955715"><ele>246.25</ele><time>2026-04-03T08:56:00.112Z</time></trkpt><trkpt lat="42.9332717" lon="11.95555"><ele>246.0</ele><time>2026-04-03T08:56:01.112Z</time></trkpt><trkpt lat="42.93322" lon="11.9554017"><ele>246.0</ele><time>2026-04-03T08:56:02.113Z</time></trkpt><trkpt lat="42.9331667" lon="11.9552517"><ele>246.0</ele><time>2026-04-03T08:56:03.112Z</time></trkpt><trkpt lat="42.933115" lon="11.955115"><ele>246.0</ele><time>2026-04-03T08:56:04.112Z</time></trkpt><trkpt lat="42.933055" lon="11.9549733"><ele>246.0</ele><time>2026-04-03T08:56:05.113Z</time></trkpt><trkpt lat="42.933" lon="11.9548183"><ele>246.25</ele><time>2026-04-03T08:56:06.113Z</time></trkpt><trkpt lat="42.9329467" lon="11.9546667"><ele>246.5</ele><time>2026-04-03T08:56:07.112Z</time></trkpt><trkpt lat="42.9329083" lon="11.9545233"><ele>246.75</ele><time>2026-04-03T08:56:08.112Z</time></trkpt><trkpt lat="42.93286" lon="11.9543717"><ele>247.0</ele><time>2026-04-03T08:56:09.112Z</time></trkpt><trkpt lat="42.9328067" lon="11.9542267"><ele>247.25</ele><time>2026-04-03T08:56:10.112Z</time></trkpt><trkpt lat="42.9327467" lon="11.9540683"><ele>247.5</ele><time>2026-04-03T08:56:11.112Z</time></trkpt><trkpt lat="42.9326883" lon="11.9539217"><ele>247.75</ele><time>2026-04-03T08:56:12.112Z</time></trkpt><trkpt lat="42.93263" lon="11.953785"><ele>248.0</ele><time>2026-04-03T08:56:13.112Z</time></trkpt><trkpt lat="42.9325867" lon="11.95365"><ele>248.0</ele><time>2026-04-03T08:56:14.113Z</time></trkpt><trkpt lat="42.9325283" lon="11.9535133"><ele>248.0</ele><time>2026-04-03T08:56:15.113Z</time></trkpt><trkpt lat="42.9324683" lon="11.9533683"><ele>248.0</ele><time>2026-04-03T08:56:16.112Z</time></trkpt><trkpt lat="42.932405" lon="11.9532217"><ele>248.0</ele><time>2026-04-03T08:56:17.112Z</time></trkpt><trkpt lat="42.93237" lon="11.9531117"><ele>248.16666666666669</ele><time>2026-04-03T08:56:18.112Z</time></trkpt><trkpt lat="42.932335" lon="11.95304"><ele>248.33333333333334</ele><time>2026-04-03T08:56:19.112Z</time></trkpt><trkpt lat="42.9322717" lon="11.952995"><ele>248.5</ele><time>2026-04-03T08:56:21.112Z</time></trkpt><trkpt lat="42.9322" lon="11.9530217"><ele>248.66666666666669</ele><time>2026-04-03T08:56:22.112Z</time></trkpt><trkpt lat="42.9321033" lon="11.953045"><ele>248.83333333333334</ele><time>2026-04-03T08:56:23.112Z</time></trkpt><trkpt lat="42.9319767" lon="11.9530967"><ele>249.0</ele><time>2026-04-03T08:56:24.113Z</time></trkpt><trkpt lat="42.9318383" lon="11.9531567"><ele>249.25</ele><time>2026-04-03T08:56:25.113Z</time></trkpt><trkpt lat="42.9316983" lon="11.9532367"><ele>249.5</ele><time>2026-04-03T08:56:26.112Z</time></trkpt><trkpt lat="42.9315583" lon="11.9533083"><ele>249.75</ele><time>2026-04-03T08:56:27.112Z</time></trkpt><trkpt lat="42.931425" lon="11.9533733"><ele>250.0</ele><time>2026-04-03T08:56:28.112Z</time></trkpt><trkpt lat="42.931295" lon="11.9534333"><ele>249.6</ele><time>2026-04-03T08:56:29.112Z</time></trkpt><trkpt lat="42.9311833" lon="11.95344"><ele>249.2</ele><time>2026-04-03T08:56:30.112Z</time></trkpt><trkpt lat="42.9310717" lon="11.95347"><ele>248.8</ele><time>2026-04-03T08:56:31.112Z</time></trkpt><trkpt lat="42.930965" lon="11.9534867"><ele>248.4</ele><time>2026-04-03T08:56:32.112Z</time></trkpt><trkpt lat="42.9308517" lon="11.9535117"><ele>248.0</ele><time>2026-04-03T08:56:33.112Z</time></trkpt><trkpt lat="42.930765" lon="11.95353"><ele>248.00000000000003</ele><time>2026-04-03T08:56:34.112Z</time></trkpt><trkpt lat="42.9306967" lon="11.9535333"><ele>248.0</ele><time>2026-04-03T08:56:35.112Z</time></trkpt><trkpt lat="42.9306333" lon="11.9535467"><ele>248.0</ele><time>2026-04-03T08:56:36.112Z</time></trkpt><trkpt lat="42.9305617" lon="11.953565"><ele>248.0</ele><time>2026-04-03T08:56:37.112Z</time></trkpt><trkpt lat="42.930485" lon="11.9535933"><ele>248.00000000000003</ele><time>2026-04-03T08:56:38.112Z</time></trkpt><trkpt lat="42.9304183" lon="11.9536133"><ele>248.0</ele><time>2026-04-03T08:56:39.112Z</time></trkpt><trkpt lat="42.9303133" lon="11.95361"><ele>248.00000000000003</ele><time>2026-04-03T08:56:41.112Z</time></trkpt><trkpt lat="42.9302867" lon="11.953505"><ele>248.0</ele><time>2026-04-03T08:56:44.112Z</time></trkpt><trkpt lat="42.9303033" lon="11.95342"><ele>248.0</ele><time>2026-04-03T08:56:45.112Z</time></trkpt><trkpt lat="42.9303133" lon="11.9533033"><ele>248.0</ele><time>2026-04-03T08:56:46.112Z</time></trkpt><trkpt lat="42.9303167" lon="11.9531633"><ele>248.00000000000003</ele><time>2026-04-03T08:56:47.112Z</time></trkpt><trkpt lat="42.930315" lon="11.95301"><ele>248.0</ele><time>2026-04-03T08:56:48.113Z</time></trkpt><trkpt lat="42.9303133" lon="11.9528567"><ele>248.5</ele><time>2026-04-03T08:56:49.112Z</time></trkpt><trkpt lat="42.9303067" lon="11.9527033"><ele>249.0</ele><time>2026-04-03T08:56:50.112Z</time></trkpt><trkpt lat="42.9302883" lon="11.952535"><ele>249.5</ele><time>2026-04-03T08:56:51.112Z</time></trkpt><trkpt lat="42.9302433" lon="11.9523567"><ele>250.0</ele><time>2026-04-03T08:56:52.112Z</time></trkpt><trkpt lat="42.9301983" lon="11.9521833"><ele>250.25</ele><time>2026-04-03T08:56:53.112Z</time></trkpt><trkpt lat="42.9301367" lon="11.9520117"><ele>250.5</ele><time>2026-04-03T08:56:54.112Z</time></trkpt><trkpt lat="42.9300467" lon="11.9518317"><ele>250.75</ele><time>2026-04-03T08:56:55.112Z</time></trkpt><trkpt lat="42.9299533" lon="11.9516717"><ele>251.0</ele><time>2026-04-03T08:56:56.112Z</time></trkpt><trkpt lat="42.9298633" lon="11.951535"><ele>251.25</ele><time>2026-04-03T08:56:57.113Z</time></trkpt><trkpt lat="42.9297633" lon="11.9513983"><ele>251.5</ele><time>2026-04-03T08:56:58.113Z</time></trkpt><trkpt lat="42.9296633" lon="11.9512733"><ele>251.75</ele><time>2026-04-03T08:56:59.112Z</time></trkpt><trkpt lat="42.9295783" lon="11.951135"><ele>252.0</ele><time>2026-04-03T08:57:00.112Z</time></trkpt><trkpt lat="42.9295017" lon="11.951015"><ele>252.0</ele><time>2026-04-03T08:57:01.112Z</time></trkpt><trkpt lat="42.9294317" lon="11.9509117"><ele>252.0</ele><time>2026-04-03T08:57:02.112Z</time></trkpt><trkpt lat="42.9293767" lon="11.9508017"><ele>252.0</ele><time>2026-04-03T08:57:03.112Z</time></trkpt><trkpt lat="42.92931" lon="11.9506983"><ele>252.0</ele><time>2026-04-03T08:57:04.112Z</time></trkpt><trkpt lat="42.9292517" lon="11.950585"><ele>252.0</ele><time>2026-04-03T08:57:05.112Z</time></trkpt><trkpt lat="42.9291917" lon="11.9504783"><ele>252.39999999999998</ele><time>2026-04-03T08:57:06.112Z</time></trkpt><trkpt lat="42.9291233" lon="11.950355"><ele>252.79999999999998</ele><time>2026-04-03T08:57:07.112Z</time></trkpt><trkpt lat="42.9290667" lon="11.950245"><ele>253.2</ele><time>2026-04-03T08:57:08.112Z</time></trkpt><trkpt lat="42.9290133" lon="11.9501183"><ele>253.6</ele><time>2026-04-03T08:57:09.112Z</time></trkpt><trkpt lat="42.928965" lon="11.94998"><ele>254.0</ele><time>2026-04-03T08:57:10.112Z</time></trkpt><trkpt lat="42.9289217" lon="11.94983"><ele>254.0</ele><time>2026-04-03T08:57:11.113Z</time></trkpt><trkpt lat="42.928885" lon="11.949675"><ele>253.99999999999997</ele><time>2026-04-03T08:57:12.112Z</time></trkpt><trkpt lat="42.9288583" lon="11.9495467"><ele>253.99999999999997</ele><time>2026-04-03T08:57:13.113Z</time></trkpt><trkpt lat="42.928825" lon="11.9494367"><ele>254.0</ele><time>2026-04-03T08:57:14.112Z</time></trkpt><trkpt lat="42.9287783" lon="11.94935"><ele>254.0</ele><time>2026-04-03T08:57:15.112Z</time></trkpt><trkpt lat="42.928705" lon="11.9493067"><ele>254.0</ele><time>2026-04-03T08:57:16.112Z</time></trkpt><trkpt lat="42.92862" lon="11.9492683"><ele>254.0</ele><time>2026-04-03T08:57:17.112Z</time></trkpt><trkpt lat="42.9285167" lon="11.9492367"><ele>254.0</ele><time>2026-04-03T08:57:18.112Z</time></trkpt><trkpt lat="42.9284" lon="11.9492083"><ele>254.0</ele><time>2026-04-03T08:57:19.112Z</time></trkpt><trkpt lat="42.9282633" lon="11.94918"><ele>255.0</ele><time>2026-04-03T08:57:20.112Z</time></trkpt><trkpt lat="42.92811" lon="11.9491383"><ele>256.0</ele><time>2026-04-03T08:57:21.113Z</time></trkpt><trkpt lat="42.9279633" lon="11.9491"><ele>257.0</ele><time>2026-04-03T08:57:22.113Z</time></trkpt><trkpt lat="42.927835" lon="11.9490467"><ele>258.0</ele><time>2026-04-03T08:57:23.112Z</time></trkpt><trkpt lat="42.9277333" lon="11.9490083"><ele>258.0</ele><time>2026-04-03T08:57:24.113Z</time></trkpt><trkpt lat="42.9276533" lon="11.948975"><ele>258.0</ele><time>2026-04-03T08:57:25.112Z</time></trkpt><trkpt lat="42.92759" lon="11.9489617"><ele>258.0</ele><time>2026-04-03T08:57:26.112Z</time></trkpt><trkpt lat="42.9275167" lon="11.948945"><ele>258.0</ele><time>2026-04-03T08:57:27.113Z</time></trkpt><trkpt lat="42.9274283" lon="11.9489667"><ele>258.0</ele><time>2026-04-03T08:57:28.112Z</time></trkpt><trkpt lat="42.9273133" lon="11.9489933"><ele>258.0</ele><time>2026-04-03T08:57:29.112Z</time></trkpt><trkpt lat="42.92716" lon="11.9490583"><ele>258.3333333333333</ele><time>2026-04-03T08:57:30.112Z</time></trkpt><trkpt lat="42.9269833" lon="11.9491233"><ele>258.66666666666663</ele><time>2026-04-03T08:57:31.112Z</time></trkpt><trkpt lat="42.9267917" lon="11.9491933"><ele>259.0</ele><time>2026-04-03T08:57:32.113Z</time></trkpt><trkpt lat="42.9265967" lon="11.9492617"><ele>262.0</ele><time>2026-04-03T08:57:33.112Z</time></trkpt><trkpt lat="42.9263983" lon="11.94934"><ele>265.0</ele><time>2026-04-03T08:57:34.112Z</time></trkpt><trkpt lat="42.92621" lon="11.94942"><ele>268.0</ele><time>2026-04-03T08:57:35.112Z</time></trkpt><trkpt lat="42.9260367" lon="11.949505"><ele>266.3333333333333</ele><time>2026-04-03T08:57:36.112Z</time></trkpt><trkpt lat="42.925865" lon="11.94957"><ele>264.6666666666667</ele><time>2026-04-03T08:57:37.112Z</time></trkpt><trkpt lat="42.9257033" lon="11.949655"><ele>263.0</ele><time>2026-04-03T08:57:38.112Z</time></trkpt><trkpt lat="42.92555" lon="11.9497183"><ele>263.0</ele><time>2026-04-03T08:57:39.113Z</time></trkpt><trkpt lat="42.9254033" lon="11.94977"><ele>263.0</ele><time>2026-04-03T08:57:40.112Z</time></trkpt><trkpt lat="42.925265" lon="11.9498433"><ele>263.0</ele><time>2026-04-03T08:57:41.112Z</time></trkpt><trkpt lat="42.9251233" lon="11.9499417"><ele>261.33333333333337</ele><time>2026-04-03T08:57:42.112Z</time></trkpt><trkpt lat="42.92499" lon="11.950055"><ele>259.6666666666667</ele><time>2026-04-03T08:57:43.113Z</time></trkpt><trkpt lat="42.924855" lon="11.9501917"><ele>258.0</ele><time>2026-04-03T08:57:44.112Z</time></trkpt><trkpt lat="42.924725" lon="11.950335"><ele>258.0</ele><time>2026-04-03T08:57:45.112Z</time></trkpt><trkpt lat="42.9245983" lon="11.9504817"><ele>258.0</ele><time>2026-04-03T08:57:46.112Z</time></trkpt><trkpt lat="42.9244767" lon="11.9506133"><ele>258.0</ele><time>2026-04-03T08:57:47.112Z</time></trkpt><trkpt lat="42.9243633" lon="11.95073"><ele>258.0</ele><time>2026-04-03T08:57:48.112Z</time></trkpt><trkpt lat="42.9242317" lon="11.9508233"><ele>258.0</ele><time>2026-04-03T08:57:49.112Z</time></trkpt><trkpt lat="42.9240733" lon="11.950895"><ele>258.0</ele><time>2026-04-03T08:57:50.112Z</time></trkpt><trkpt lat="42.9239" lon="11.950975"><ele>256.3333333333333</ele><time>2026-04-03T08:57:51.112Z</time></trkpt><trkpt lat="42.9237117" lon="11.9510783"><ele>254.66666666666666</ele><time>2026-04-03T08:57:52.113Z</time></trkpt><trkpt lat="42.92351" lon="11.9511733"><ele>253.0</ele><time>2026-04-03T08:57:53.112Z</time></trkpt><trkpt lat="42.9233017" lon="11.9512733"><ele>252.33333333333331</ele><time>2026-04-03T08:57:54.112Z</time></trkpt><trkpt lat="42.9231" lon="11.9513483"><ele>251.66666666666669</ele><time>2026-04-03T08:57:55.113Z</time></trkpt><trkpt lat="42.9229133" lon="11.9514067"><ele>251.0</ele><time>2026-04-03T08:57:56.112Z</time></trkpt><trkpt lat="42.92273" lon="11.9514667"><ele>249.33333333333334</ele><time>2026-04-03T08:57:57.112Z</time></trkpt><trkpt lat="42.92255" lon="11.95151"><ele>247.66666666666669</ele><time>2026-04-03T08:57:58.112Z</time></trkpt><trkpt lat="42.9223833" lon="11.951565"><ele>246.0</ele><time>2026-04-03T08:57:59.112Z</time></trkpt><trkpt lat="42.92225" lon="11.9516167"><ele>246.0</ele><time>2026-04-03T08:58:00.112Z</time></trkpt><trkpt lat="42.9221483" lon="11.95166"><ele>246.0</ele><time>2026-04-03T08:58:01.113Z</time></trkpt><trkpt lat="42.9220517" lon="11.95172"><ele>246.0</ele><time>2026-04-03T08:58:02.112Z</time></trkpt><trkpt lat="42.9219233" lon="11.9517617"><ele>246.0</ele><time>2026-04-03T08:58:03.112Z</time></trkpt><trkpt lat="42.92178" lon="11.951805"><ele>245.5</ele><time>2026-04-03T08:58:04.113Z</time></trkpt><trkpt lat="42.92164" lon="11.9518633"><ele>245.0</ele><time>2026-04-03T08:58:05.113Z</time></trkpt><trkpt lat="42.921495" lon="11.9518833"><ele>244.5</ele><time>2026-04-03T08:58:06.112Z</time></trkpt><trkpt lat="42.9213383" lon="11.9518783"><ele>244.0</ele><time>2026-04-03T08:58:07.112Z</time></trkpt><trkpt lat="42.9211717" lon="11.9518583"><ele>244.0</ele><time>2026-04-03T08:58:08.112Z</time></trkpt><trkpt lat="42.9210167" lon="11.9518183"><ele>244.0</ele><time>2026-04-03T08:58:09.112Z</time></trkpt><trkpt lat="42.9208633" lon="11.9517717"><ele>244.0</ele><time>2026-04-03T08:58:10.112Z</time></trkpt><trkpt lat="42.920725" lon="11.95174"><ele>244.2</ele><time>2026-04-03T08:58:11.112Z</time></trkpt><trkpt lat="42.9205933" lon="11.9517"><ele>244.39999999999998</ele><time>2026-04-03T08:58:12.112Z</time></trkpt><trkpt lat="42.920485" lon="11.9516783"><ele>244.6</ele><time>2026-04-03T08:58:13.112Z</time></trkpt><trkpt lat="42.9204117" lon="11.951655"><ele>244.8</ele><time>2026-04-03T08:58:14.112Z</time></trkpt><trkpt lat="42.9203167" lon="11.9515767"><ele>245.0</ele><time>2026-04-03T08:58:16.113Z</time></trkpt><trkpt lat="42.9202683" lon="11.9515"><ele>245.0</ele><time>2026-04-03T08:58:17.112Z</time></trkpt><trkpt lat="42.9202217" lon="11.95141"><ele>245.0</ele><time>2026-04-03T08:58:18.112Z</time></trkpt><trkpt lat="42.920165" lon="11.95129"><ele>245.0</ele><time>2026-04-03T08:58:19.112Z</time></trkpt><trkpt lat="42.9200917" lon="11.9511433"><ele>245.0</ele><time>2026-04-03T08:58:20.112Z</time></trkpt><trkpt lat="42.9200083" lon="11.9509717"><ele>245.0</ele><time>2026-04-03T08:58:21.112Z</time></trkpt><trkpt lat="42.9199217" lon="11.9507733"><ele>245.0</ele><time>2026-04-03T08:58:22.113Z</time></trkpt><trkpt lat="42.919815" lon="11.9505583"><ele>245.0</ele><time>2026-04-03T08:58:23.113Z</time></trkpt><trkpt lat="42.9197117" lon="11.9503467"><ele>245.0</ele><time>2026-04-03T08:58:24.113Z</time></trkpt><trkpt lat="42.919595" lon="11.9501167"><ele>245.0</ele><time>2026-04-03T08:58:25.113Z</time></trkpt><trkpt lat="42.9194667" lon="11.9498683"><ele>245.0</ele><time>2026-04-03T08:58:26.113Z</time></trkpt><trkpt lat="42.9193567" lon="11.94964"><ele>245.33333333333334</ele><time>2026-04-03T08:58:27.113Z</time></trkpt><trkpt lat="42.9192483" lon="11.9494333"><ele>245.66666666666669</ele><time>2026-04-03T08:58:28.112Z</time></trkpt><trkpt lat="42.91916" lon="11.9492567"><ele>246.0</ele><time>2026-04-03T08:58:29.113Z</time></trkpt><trkpt lat="42.9190933" lon="11.94912"><ele>246.0</ele><time>2026-04-03T08:58:30.113Z</time></trkpt><trkpt lat="42.9190567" lon="11.9490433"><ele>246.00000000000003</ele><time>2026-04-03T08:58:31.113Z</time></trkpt><trkpt lat="42.9190633" lon="11.9489267"><ele>246.00000000000003</ele><time>2026-04-03T08:58:33.113Z</time></trkpt><trkpt lat="42.919195" lon="11.9487933"><ele>246.0</ele><time>2026-04-03T08:58:35.112Z</time></trkpt><trkpt lat="42.919295" lon="11.9487217"><ele>246.0</ele><time>2026-04-03T08:58:36.112Z</time></trkpt><trkpt lat="42.9194183" lon="11.94863"><ele>246.0</ele><time>2026-04-03T08:58:37.112Z</time></trkpt><trkpt lat="42.919555" lon="11.9485483"><ele>246.0</ele><time>2026-04-03T08:58:38.113Z</time></trkpt><trkpt lat="42.9196917" lon="11.948475"><ele>246.0</ele><time>2026-04-03T08:58:39.113Z</time></trkpt><trkpt lat="42.9198467" lon="11.9484083"><ele>246.5</ele><time>2026-04-03T08:58:40.112Z</time></trkpt><trkpt lat="42.9199767" lon="11.9483317"><ele>247.0</ele><time>2026-04-03T08:58:41.112Z</time></trkpt><trkpt lat="42.9200933" lon="11.9482417"><ele>247.5</ele><time>2026-04-03T08:58:42.112Z</time></trkpt><trkpt lat="42.92021" lon="11.9481217"><ele>248.0</ele><time>2026-04-03T08:58:43.112Z</time></trkpt><trkpt lat="42.92033" lon="11.9479817"><ele>248.66666666666669</ele><time>2026-04-03T08:58:44.112Z</time></trkpt><trkpt lat="42.9204583" lon="11.9478117"><ele>249.33333333333331</ele><time>2026-04-03T08:58:45.112Z</time></trkpt><trkpt lat="42.9205867" lon="11.9476517"><ele>250.0</ele><time>2026-04-03T08:58:46.113Z</time></trkpt><trkpt lat="42.92072" lon="11.9475067"><ele>251.25</ele><time>2026-04-03T08:58:47.112Z</time></trkpt><trkpt lat="42.920845" lon="11.9474017"><ele>252.5</ele><time>2026-04-03T08:58:48.112Z</time></trkpt><trkpt lat="42.9209633" lon="11.9473083"><ele>253.75</ele><time>2026-04-03T08:58:49.112Z</time></trkpt><trkpt lat="42.9210867" lon="11.9472467"><ele>255.0</ele><time>2026-04-03T08:58:50.112Z</time></trkpt><trkpt lat="42.92119" lon="11.9471767"><ele>255.0</ele><time>2026-04-03T08:58:51.113Z</time></trkpt><trkpt lat="42.921275" lon="11.9471167"><ele>255.0</ele><time>2026-04-03T08:58:52.113Z</time></trkpt><trkpt lat="42.9213483" lon="11.9470367"><ele>255.0</ele><time>2026-04-03T08:58:53.112Z</time></trkpt><trkpt lat="42.92142" lon="11.9469217"><ele>255.0</ele><time>2026-04-03T08:58:54.112Z</time></trkpt><trkpt lat="42.9214933" lon="11.946785"><ele>255.0</ele><time>2026-04-03T08:58:55.112Z</time></trkpt><trkpt lat="42.9215717" lon="11.946625"><ele>256.75</ele><time>2026-04-03T08:58:56.112Z</time></trkpt><trkpt lat="42.9216367" lon="11.9464667"><ele>258.5</ele><time>2026-04-03T08:58:57.112Z</time></trkpt><trkpt lat="42.9217067" lon="11.9462867"><ele>260.25</ele><time>2026-04-03T08:58:58.112Z</time></trkpt><trkpt lat="42.921785" lon="11.9460983"><ele>262.0</ele><time>2026-04-03T08:58:59.112Z</time></trkpt><trkpt lat="42.9218667" lon="11.945935"><ele>265.25</ele><time>2026-04-03T08:59:00.113Z</time></trkpt><trkpt lat="42.9219383" lon="11.9457733"><ele>268.5</ele><time>2026-04-03T08:59:01.112Z</time></trkpt><trkpt lat="42.9220183" lon="11.945635"><ele>271.75</ele><time>2026-04-03T08:59:02.112Z</time></trkpt><trkpt lat="42.9220917" lon="11.9454867"><ele>275.0</ele><time>2026-04-03T08:59:03.112Z</time></trkpt><trkpt lat="42.9221583" lon="11.94532"><ele>275.0</ele><time>2026-04-03T08:59:04.113Z</time></trkpt><trkpt lat="42.9222417" lon="11.945175"><ele>275.0</ele><time>2026-04-03T08:59:05.112Z</time></trkpt><trkpt lat="42.9223267" lon="11.945035"><ele>275.0</ele><time>2026-04-03T08:59:06.112Z</time></trkpt><trkpt lat="42.9224233" lon="11.9448883"><ele>275.0</ele><time>2026-04-03T08:59:07.113Z</time></trkpt><trkpt lat="42.9225117" lon="11.9447767"><ele>276.33333333333337</ele><time>2026-04-03T08:59:08.113Z</time></trkpt><trkpt lat="42.922585" lon="11.9446633"><ele>277.6666666666667</ele><time>2026-04-03T08:59:09.112Z</time></trkpt><trkpt lat="42.92262" lon="11.9445667"><ele>279.0</ele><time>2026-04-03T08:59:10.112Z</time></trkpt><trkpt lat="42.922625" lon="11.94444"><ele>280.3333333333333</ele><time>2026-04-03T08:59:12.113Z</time></trkpt><trkpt lat="42.9226667" lon="11.9445167"><ele>281.66666666666663</ele><time>2026-04-03T08:59:18.112Z</time></trkpt><trkpt lat="42.9225917" lon="11.944525"><ele>283.0</ele><time>2026-04-03T08:59:22.112Z</time></trkpt><trkpt lat="42.9225317" lon="11.944445"><ele>283.0</ele><time>2026-04-03T08:59:24.113Z</time></trkpt><trkpt lat="42.9224733" lon="11.9443333"><ele>283.0</ele><time>2026-04-03T08:59:26.113Z</time></trkpt><trkpt lat="42.9224233" lon="11.944215"><ele>283.0</ele><time>2026-04-03T08:59:28.112Z</time></trkpt><trkpt lat="42.9223817" lon="11.9441067"><ele>283.0</ele><time>2026-04-03T08:59:30.112Z</time></trkpt><trkpt lat="42.9223517" lon="11.9440183"><ele>283.0</ele><time>2026-04-03T08:59:32.112Z</time></trkpt><trkpt lat="42.92232" lon="11.9439117"><ele>283.0</ele><time>2026-04-03T08:59:34.113Z</time></trkpt><trkpt lat="42.9222833" lon="11.9437667"><ele>284.0</ele><time>2026-04-03T08:59:36.113Z</time></trkpt><trkpt lat="42.9222083" lon="11.9436267"><ele>285.0</ele><time>2026-04-03T08:59:38.112Z</time></trkpt><trkpt lat="42.9221467" lon="11.94353"><ele>286.0</ele><time>2026-04-03T08:59:39.111Z</time></trkpt><trkpt lat="42.9220617" lon="11.943395"><ele>287.0</ele><time>2026-04-03T08:59:40.111Z</time></trkpt><trkpt lat="42.9219633" lon="11.9432417"><ele>287.0</ele><time>2026-04-03T08:59:41.111Z</time></trkpt><trkpt lat="42.9218783" lon="11.9431033"><ele>287.0</ele><time>2026-04-03T08:59:42.111Z</time></trkpt><trkpt lat="42.9218083" lon="11.9429883"><ele>287.0</ele><time>2026-04-03T08:59:43.111Z</time></trkpt><trkpt lat="42.9217367" lon="11.942885"><ele>287.0</ele><time>2026-04-03T08:59:44.111Z</time></trkpt><trkpt lat="42.9216567" lon="11.94278"><ele>286.8</ele><time>2026-04-03T08:59:45.112Z</time></trkpt><trkpt lat="42.9215633" lon="11.9426917"><ele>286.6</ele><time>2026-04-03T08:59:46.112Z</time></trkpt><trkpt lat="42.9214783" lon="11.94263"><ele>286.40000000000003</ele><time>2026-04-03T08:59:47.111Z</time></trkpt><trkpt lat="42.921395" lon="11.9425867"><ele>286.2</ele><time>2026-04-03T08:59:48.111Z</time></trkpt><trkpt lat="42.9213033" lon="11.942555"><ele>286.0</ele><time>2026-04-03T08:59:49.111Z</time></trkpt><trkpt lat="42.9212083" lon="11.94251"><ele>286.0</ele><time>2026-04-03T08:59:50.111Z</time></trkpt><trkpt lat="42.9211167" lon="11.9424483"><ele>286.0</ele><time>2026-04-03T08:59:51.111Z</time></trkpt><trkpt lat="42.921035" lon="11.9423767"><ele>286.0</ele><time>2026-04-03T08:59:52.111Z</time></trkpt><trkpt lat="42.9209433" lon="11.9422833"><ele>286.0</ele><time>2026-04-03T08:59:53.111Z</time></trkpt><trkpt lat="42.9208467" lon="11.9421767"><ele>286.0</ele><time>2026-04-03T08:59:54.111Z</time></trkpt><trkpt lat="42.920755" lon="11.94208"><ele>285.5</ele><time>2026-04-03T08:59:55.111Z</time></trkpt><trkpt lat="42.9206533" lon="11.9419833"><ele>285.0</ele><time>2026-04-03T08:59:56.111Z</time></trkpt><trkpt lat="42.920545" lon="11.9418833"><ele>284.5</ele><time>2026-04-03T08:59:57.111Z</time></trkpt><trkpt lat="42.9204283" lon="11.9417917"><ele>284.0</ele><time>2026-04-03T08:59:58.112Z</time></trkpt><trkpt lat="42.9203133" lon="11.9417"><ele>284.0</ele><time>2026-04-03T08:59:59.111Z</time></trkpt><trkpt lat="42.9201917" lon="11.9416067"><ele>284.0</ele><time>2026-04-03T09:00:00.112Z</time></trkpt><trkpt lat="42.9201" lon="11.9415217"><ele>284.0</ele><time>2026-04-03T09:00:01.111Z</time></trkpt><trkpt lat="42.9200383" lon="11.94143"><ele>284.0</ele><time>2026-04-03T09:00:02.111Z</time></trkpt><trkpt lat="42.919995" lon="11.9413217"><ele>284.0</ele><time>2026-04-03T09:00:03.111Z</time></trkpt><trkpt lat="42.919955" lon="11.9412133"><ele>283.6666666666667</ele><time>2026-04-03T09:00:04.111Z</time></trkpt><trkpt lat="42.9199083" lon="11.9411183"><ele>283.33333333333337</ele><time>2026-04-03T09:00:05.111Z</time></trkpt><trkpt lat="42.9198567" lon="11.9410383"><ele>283.0</ele><time>2026-04-03T09:00:06.111Z</time></trkpt><trkpt lat="42.9198" lon="11.940955"><ele>282.6666666666667</ele><time>2026-04-03T09:00:07.112Z</time></trkpt><trkpt lat="42.919745" lon="11.9408633"><ele>282.3333333333333</ele><time>2026-04-03T09:00:08.111Z</time></trkpt><trkpt lat="42.919705" lon="11.940775"><ele>282.0</ele><time>2026-04-03T09:00:09.111Z</time></trkpt><trkpt lat="42.919665" lon="11.9406833"><ele>284.0</ele><time>2026-04-03T09:00:10.112Z</time></trkpt><trkpt lat="42.919625" lon="11.94061"><ele>286.0</ele><time>2026-04-03T09:00:11.112Z</time></trkpt><trkpt lat="42.9195883" lon="11.9405117"><ele>288.0</ele><time>2026-04-03T09:00:12.111Z</time></trkpt><trkpt lat="42.9195417" lon="11.940435"><ele>290.0</ele><time>2026-04-03T09:00:13.111Z</time></trkpt><trkpt lat="42.91947" lon="11.940325"><ele>292.0</ele><time>2026-04-03T09:00:15.111Z</time></trkpt><trkpt lat="42.9194167" lon="11.9402567"><ele>294.0</ele><time>2026-04-03T09:00:18.112Z</time></trkpt><trkpt lat="42.91935" lon="11.940185"><ele>294.0</ele><time>2026-04-03T09:09:04.11Z</time></trkpt><trkpt lat="42.9192883" lon="11.9401433"><ele>294.0</ele><time>2026-04-03T09:09:05.111Z</time></trkpt><trkpt lat="42.919215" lon="11.9400933"><ele>294.0</ele><time>2026-04-03T09:09:06.11Z</time></trkpt><trkpt lat="42.9191233" lon="11.9400283"><ele>294.0</ele><time>2026-04-03T09:09:07.11Z</time></trkpt><trkpt lat="42.91902" lon="11.93996"><ele>294.0</ele><time>2026-04-03T09:09:08.111Z</time></trkpt><trkpt lat="42.918895" lon="11.93986"><ele>292.6666666666667</ele><time>2026-04-03T09:09:09.11Z</time></trkpt><trkpt lat="42.9187717" lon="11.9397433"><ele>291.33333333333337</ele><time>2026-04-03T09:09:10.11Z</time></trkpt><trkpt lat="42.918645" lon="11.93962"><ele>290.0</ele><time>2026-04-03T09:09:11.111Z</time></trkpt><trkpt lat="42.918515" lon="11.9395067"><ele>289.75</ele><time>2026-04-03T09:09:12.11Z</time></trkpt><trkpt lat="42.9183967" lon="11.9394083"><ele>289.5</ele><time>2026-04-03T09:09:13.11Z</time></trkpt><trkpt lat="42.918295" lon="11.9392967"><ele>289.25</ele><time>2026-04-03T09:09:14.11Z</time></trkpt><trkpt lat="42.9181917" lon="11.9391817"><ele>289.0</ele><time>2026-04-03T09:09:15.11Z</time></trkpt><trkpt lat="42.9180817" lon="11.9390617"><ele>289.0</ele><time>2026-04-03T09:09:16.11Z</time></trkpt><trkpt lat="42.9179783" lon="11.938965"><ele>289.0</ele><time>2026-04-03T09:09:17.11Z</time></trkpt><trkpt lat="42.91786" lon="11.9388617"><ele>289.0</ele><time>2026-04-03T09:09:18.111Z</time></trkpt><trkpt lat="42.91773" lon="11.938785"><ele>289.0</ele><time>2026-04-03T09:09:19.11Z</time></trkpt><trkpt lat="42.9175833" lon="11.9387"><ele>289.3333333333333</ele><time>2026-04-03T09:09:20.11Z</time></trkpt><trkpt lat="42.9174283" lon="11.938625"><ele>289.6666666666667</ele><time>2026-04-03T09:09:21.11Z</time></trkpt><trkpt lat="42.9172533" lon="11.9385483"><ele>290.0</ele><time>2026-04-03T09:09:22.11Z</time></trkpt><trkpt lat="42.9170933" lon="11.93849"><ele>290.0</ele><time>2026-04-03T09:09:23.11Z</time></trkpt><trkpt lat="42.9169617" lon="11.9384367"><ele>290.0</ele><time>2026-04-03T09:09:24.11Z</time></trkpt><trkpt lat="42.9168533" lon="11.938385"><ele>290.0</ele><time>2026-04-03T09:09:25.11Z</time></trkpt><trkpt lat="42.9167717" lon="11.9382983"><ele>290.0</ele><time>2026-04-03T09:09:26.111Z</time></trkpt><trkpt lat="42.9166883" lon="11.9381933"><ele>291.5</ele><time>2026-04-03T09:09:27.11Z</time></trkpt><trkpt lat="42.9166083" lon="11.9380767"><ele>293.0</ele><time>2026-04-03T09:09:28.11Z</time></trkpt><trkpt lat="42.9165267" lon="11.9379483"><ele>294.5</ele><time>2026-04-03T09:09:29.11Z</time></trkpt><trkpt lat="42.9164417" lon="11.9378133"><ele>296.0</ele><time>2026-04-03T09:09:30.11Z</time></trkpt><trkpt lat="42.9163517" lon="11.9376883"><ele>296.0</ele><time>2026-04-03T09:09:31.111Z</time></trkpt><trkpt lat="42.9162767" lon="11.93761"><ele>296.0</ele><time>2026-04-03T09:09:32.111Z</time></trkpt><trkpt lat="42.916195" lon="11.9375717"><ele>296.0</ele><time>2026-04-03T09:09:33.11Z</time></trkpt><trkpt lat="42.916095" lon="11.9375833"><ele>296.0</ele><time>2026-04-03T09:09:34.11Z</time></trkpt><trkpt lat="42.9159767" lon="11.9376067"><ele>296.0</ele><time>2026-04-03T09:09:35.11Z</time></trkpt><trkpt lat="42.9158483" lon="11.937635"><ele>297.75</ele><time>2026-04-03T09:09:36.111Z</time></trkpt><trkpt lat="42.915725" lon="11.9376767"><ele>299.5</ele><time>2026-04-03T09:09:37.11Z</time></trkpt><trkpt lat="42.9155883" lon="11.937725"><ele>301.25</ele><time>2026-04-03T09:09:38.11Z</time></trkpt><trkpt lat="42.9154467" lon="11.9377717"><ele>303.0</ele><time>2026-04-03T09:09:39.11Z</time></trkpt><trkpt lat="42.9153117" lon="11.9378183"><ele>303.0</ele><time>2026-04-03T09:09:40.11Z</time></trkpt><trkpt lat="42.915185" lon="11.9378333"><ele>303.0</ele><time>2026-04-03T09:09:41.109Z</time></trkpt><trkpt lat="42.91506" lon="11.9378183"><ele>303.0</ele><time>2026-04-03T09:09:42.109Z</time></trkpt><trkpt lat="42.914925" lon="11.9377617"><ele>303.0</ele><time>2026-04-03T09:09:43.109Z</time></trkpt><trkpt lat="42.9147933" lon="11.9376717"><ele>302.75</ele><time>2026-04-03T09:09:44.11Z</time></trkpt><trkpt lat="42.9146617" lon="11.9375867"><ele>302.5</ele><time>2026-04-03T09:09:45.109Z</time></trkpt><trkpt lat="42.9145217" lon="11.937485"><ele>302.25</ele><time>2026-04-03T09:09:46.109Z</time></trkpt><trkpt lat="42.9143917" lon="11.9373967"><ele>302.0</ele><time>2026-04-03T09:09:47.109Z</time></trkpt><trkpt lat="42.91426" lon="11.9372867"><ele>303.6666666666667</ele><time>2026-04-03T09:09:48.11Z</time></trkpt><trkpt lat="42.9141233" lon="11.9371617"><ele>305.3333333333333</ele><time>2026-04-03T09:09:49.109Z</time></trkpt><trkpt lat="42.91399" lon="11.93703"><ele>307.0</ele><time>2026-04-03T09:09:50.11Z</time></trkpt><trkpt lat="42.9138817" lon="11.9369183"><ele>307.0</ele><time>2026-04-03T09:09:51.109Z</time></trkpt><trkpt lat="42.9137783" lon="11.93682"><ele>307.0</ele><time>2026-04-03T09:09:52.11Z</time></trkpt><trkpt lat="42.913665" lon="11.9367217"><ele>307.0</ele><time>2026-04-03T09:09:53.109Z</time></trkpt><trkpt lat="42.9135417" lon="11.9366133"><ele>307.0</ele><time>2026-04-03T09:09:54.11Z</time></trkpt><trkpt lat="42.9134" lon="11.9364917"><ele>307.3333333333333</ele><time>2026-04-03T09:09:55.109Z</time></trkpt><trkpt lat="42.91326" lon="11.936375"><ele>307.6666666666667</ele><time>2026-04-03T09:09:56.11Z</time></trkpt><trkpt lat="42.9131183" lon="11.9362483"><ele>308.0</ele><time>2026-04-03T09:09:57.109Z</time></trkpt><trkpt lat="42.9129833" lon="11.9361183"><ele>308.0</ele><time>2026-04-03T09:09:58.11Z</time></trkpt><trkpt lat="42.9128483" lon="11.9359983"><ele>308.0</ele><time>2026-04-03T09:09:59.109Z</time></trkpt><trkpt lat="42.9127017" lon="11.9358667"><ele>308.0</ele><time>2026-04-03T09:10:00.109Z</time></trkpt><trkpt lat="42.9125417" lon="11.9357217"><ele>307.75</ele><time>2026-04-03T09:10:01.11Z</time></trkpt><trkpt lat="42.91241" lon="11.935595"><ele>307.5</ele><time>2026-04-03T09:10:02.109Z</time></trkpt><trkpt lat="42.9123033" lon="11.9355017"><ele>307.25</ele><time>2026-04-03T09:10:03.11Z</time></trkpt><trkpt lat="42.9122033" lon="11.9354267"><ele>307.0</ele><time>2026-04-03T09:10:04.109Z</time></trkpt><trkpt lat="42.9121283" lon="11.9353717"><ele>307.0</ele><time>2026-04-03T09:10:05.109Z</time></trkpt><trkpt lat="42.912065" lon="11.93534"><ele>307.0</ele><time>2026-04-03T09:10:06.11Z</time></trkpt><trkpt lat="42.91199" lon="11.9352933"><ele>307.0</ele><time>2026-04-03T09:10:09.109Z</time></trkpt><trkpt lat="42.9119533" lon="11.9351967"><ele>307.0</ele><time>2026-04-03T09:10:11.109Z</time></trkpt><trkpt lat="42.9119233" lon="11.9351167"><ele>307.0</ele><time>2026-04-03T09:10:12.109Z</time></trkpt><trkpt lat="42.9118783" lon="11.9350267"><ele>307.0</ele><time>2026-04-03T09:10:13.109Z</time></trkpt><trkpt lat="42.9118167" lon="11.9349217"><ele>306.75</ele><time>2026-04-03T09:10:14.109Z</time></trkpt><trkpt lat="42.9117517" lon="11.9348117"><ele>306.5</ele><time>2026-04-03T09:10:15.109Z</time></trkpt><trkpt lat="42.9116767" lon="11.9346983"><ele>306.25</ele><time>2026-04-03T09:10:16.109Z</time></trkpt><trkpt lat="42.9115883" lon="11.9345817"><ele>306.0</ele><time>2026-04-03T09:10:17.11Z</time></trkpt><trkpt lat="42.9115017" lon="11.9344833"><ele>306.0</ele><time>2026-04-03T09:10:18.11Z</time></trkpt><trkpt lat="42.9113967" lon="11.9344017"><ele>306.0</ele><time>2026-04-03T09:10:19.109Z</time></trkpt><trkpt lat="42.91127" lon="11.9343183"><ele>306.0</ele><time>2026-04-03T09:10:20.109Z</time></trkpt><trkpt lat="42.9111283" lon="11.93423"><ele>306.0</ele><time>2026-04-03T09:10:21.109Z</time></trkpt><trkpt lat="42.9109733" lon="11.9341533"><ele>308.6666666666667</ele><time>2026-04-03T09:10:22.109Z</time></trkpt><trkpt lat="42.9108083" lon="11.9340717"><ele>311.33333333333337</ele><time>2026-04-03T09:10:23.109Z</time></trkpt><trkpt lat="42.9106333" lon="11.9339867"><ele>314.0</ele><time>2026-04-03T09:10:24.11Z</time></trkpt><trkpt lat="42.9104517" lon="11.9338967"><ele>314.0</ele><time>2026-04-03T09:10:25.109Z</time></trkpt><trkpt lat="42.9102667" lon="11.933815"><ele>314.0</ele><time>2026-04-03T09:10:26.11Z</time></trkpt><trkpt lat="42.9100883" lon="11.933725"><ele>314.0</ele><time>2026-04-03T09:10:27.109Z</time></trkpt><trkpt lat="42.9099083" lon="11.9336383"><ele>315.0</ele><time>2026-04-03T09:10:28.11Z</time></trkpt><trkpt lat="42.909735" lon="11.9335467"><ele>316.0</ele><time>2026-04-03T09:10:29.11Z</time></trkpt><trkpt lat="42.9095583" lon="11.93346"><ele>317.0</ele><time>2026-04-03T09:10:30.109Z</time></trkpt><trkpt lat="42.9093917" lon="11.9333217"><ele>319.6666666666667</ele><time>2026-04-03T09:10:31.109Z</time></trkpt><trkpt lat="42.9092217" lon="11.9331767"><ele>322.3333333333333</ele><time>2026-04-03T09:10:32.11Z</time></trkpt><trkpt lat="42.90905" lon="11.933015"><ele>325.0</ele><time>2026-04-03T09:10:33.109Z</time></trkpt><trkpt lat="42.9088767" lon="11.9328867"><ele>325.0</ele><time>2026-04-03T09:10:34.109Z</time></trkpt><trkpt lat="42.9087033" lon="11.9327717"><ele>325.0</ele><time>2026-04-03T09:10:35.109Z</time></trkpt><trkpt lat="42.9084967" lon="11.93266"><ele>325.0</ele><time>2026-04-03T09:10:36.109Z</time></trkpt><trkpt lat="42.9082917" lon="11.9325383"><ele>326.66666666666663</ele><time>2026-04-03T09:10:37.109Z</time></trkpt><trkpt lat="42.908095" lon="11.9324317"><ele>328.3333333333333</ele><time>2026-04-03T09:10:38.109Z</time></trkpt><trkpt lat="42.90789" lon="11.9323267"><ele>330.0</ele><time>2026-04-03T09:10:39.11Z</time></trkpt><trkpt lat="42.9076833" lon="11.9322217"><ele>328.3333333333333</ele><time>2026-04-03T09:10:40.11Z</time></trkpt><trkpt lat="42.9074783" lon="11.9321183"><ele>326.66666666666663</ele><time>2026-04-03T09:10:41.109Z</time></trkpt><trkpt lat="42.9072733" lon="11.9319933"><ele>325.0</ele><time>2026-04-03T09:10:42.11Z</time></trkpt><trkpt lat="42.9070667" lon="11.9318917"><ele>325.0</ele><time>2026-04-03T09:10:43.109Z</time></trkpt><trkpt lat="42.9068733" lon="11.93182"><ele>325.0</ele><time>2026-04-03T09:10:44.109Z</time></trkpt><trkpt lat="42.9066983" lon="11.93177"><ele>325.0</ele><time>2026-04-03T09:10:45.11Z</time></trkpt><trkpt lat="42.90652" lon="11.93175"><ele>326.66666666666663</ele><time>2026-04-03T09:10:46.109Z</time></trkpt><trkpt lat="42.9063367" lon="11.931735"><ele>328.3333333333333</ele><time>2026-04-03T09:10:47.109Z</time></trkpt><trkpt lat="42.906165" lon="11.9317217"><ele>330.0</ele><time>2026-04-03T09:10:48.109Z</time></trkpt><trkpt lat="42.9059933" lon="11.9317367"><ele>332.0</ele><time>2026-04-03T09:10:49.109Z</time></trkpt><trkpt lat="42.90583" lon="11.93173"><ele>334.0</ele><time>2026-04-03T09:10:50.109Z</time></trkpt><trkpt lat="42.90568" lon="11.93167"><ele>336.0</ele><time>2026-04-03T09:10:51.11Z</time></trkpt><trkpt lat="42.905545" lon="11.9315717"><ele>338.25</ele><time>2026-04-03T09:10:52.109Z</time></trkpt><trkpt lat="42.90543" lon="11.9314417"><ele>340.5</ele><time>2026-04-03T09:10:53.109Z</time></trkpt><trkpt lat="42.905355" lon="11.93128"><ele>342.75</ele><time>2026-04-03T09:10:54.109Z</time></trkpt><trkpt lat="42.9052983" lon="11.9311233"><ele>345.0</ele><time>2026-04-03T09:10:55.109Z</time></trkpt><trkpt lat="42.9052483" lon="11.9310033"><ele>345.0</ele><time>2026-04-03T09:10:56.109Z</time></trkpt><trkpt lat="42.905225" lon="11.9309133"><ele>345.0</ele><time>2026-04-03T09:10:57.109Z</time></trkpt><trkpt lat="42.9051933" lon="11.9308033"><ele>345.0</ele><time>2026-04-03T09:10:59.109Z</time></trkpt><trkpt lat="42.9051417" lon="11.9307517"><ele>345.0</ele><time>2026-04-03T09:11:01.109Z</time></trkpt><trkpt lat="42.9050633" lon="11.930825"><ele>345.0</ele><time>2026-04-03T09:11:03.109Z</time></trkpt><trkpt lat="42.90501" lon="11.9308783"><ele>345.0</ele><time>2026-04-03T09:11:04.109Z</time></trkpt><trkpt lat="42.9049417" lon="11.930975"><ele>347.25</ele><time>2026-04-03T09:11:05.109Z</time></trkpt><trkpt lat="42.9048583" lon="11.93109"><ele>349.5</ele><time>2026-04-03T09:11:06.109Z</time></trkpt><trkpt lat="42.9047717" lon="11.9312017"><ele>351.75</ele><time>2026-04-03T09:11:07.11Z</time></trkpt><trkpt lat="42.904685" lon="11.9312917"><ele>354.0</ele><time>2026-04-03T09:11:08.11Z</time></trkpt><trkpt lat="42.9045883" lon="11.931345"><ele>354.0</ele><time>2026-04-03T09:11:09.109Z</time></trkpt><trkpt lat="42.9044733" lon="11.9313633"><ele>354.0</ele><time>2026-04-03T09:11:10.109Z</time></trkpt><trkpt lat="42.90435" lon="11.9313617"><ele>354.0</ele><time>2026-04-03T09:11:11.109Z</time></trkpt><trkpt lat="42.9042417" lon="11.9313017"><ele>354.0</ele><time>2026-04-03T09:11:12.109Z</time></trkpt><trkpt lat="42.9041267" lon="11.9312017"><ele>352.0</ele><time>2026-04-03T09:11:13.109Z</time></trkpt><trkpt lat="42.904" lon="11.9310867"><ele>350.0</ele><time>2026-04-03T09:11:14.109Z</time></trkpt><trkpt lat="42.903865" lon="11.9309633"><ele>348.0</ele><time>2026-04-03T09:11:15.109Z</time></trkpt><trkpt lat="42.9037217" lon="11.9308267"><ele>348.0</ele><time>2026-04-03T09:11:16.109Z</time></trkpt><trkpt lat="42.90357" lon="11.9307"><ele>348.0</ele><time>2026-04-03T09:11:17.11Z</time></trkpt><trkpt lat="42.903445" lon="11.9305917"><ele>348.0</ele><time>2026-04-03T09:11:18.109Z</time></trkpt><trkpt lat="42.903325" lon="11.9304817"><ele>347.59999999999997</ele><time>2026-04-03T09:11:19.109Z</time></trkpt><trkpt lat="42.9032267" lon="11.9303733"><ele>347.2</ele><time>2026-04-03T09:11:20.109Z</time></trkpt><trkpt lat="42.9031433" lon="11.930285"><ele>346.8</ele><time>2026-04-03T09:11:21.109Z</time></trkpt><trkpt lat="42.903075" lon="11.930195"><ele>346.4</ele><time>2026-04-03T09:11:22.109Z</time></trkpt><trkpt lat="42.9030217" lon="11.9301283"><ele>346.0</ele><time>2026-04-03T09:11:23.11Z</time></trkpt><trkpt lat="42.9029783" lon="11.9299783"><ele>346.0</ele><time>2026-04-03T09:11:25.109Z</time></trkpt><trkpt lat="42.9029683" lon="11.9298683"><ele>346.0</ele><time>2026-04-03T09:11:26.11Z</time></trkpt><trkpt lat="42.902965" lon="11.9297517"><ele>346.0</ele><time>2026-04-03T09:11:27.109Z</time></trkpt><trkpt lat="42.9029583" lon="11.92962"><ele>346.0</ele><time>2026-04-03T09:11:28.109Z</time></trkpt><trkpt lat="42.902955" lon="11.9294867"><ele>346.0</ele><time>2026-04-03T09:11:29.109Z</time></trkpt><trkpt lat="42.9029617" lon="11.9293567"><ele>346.8</ele><time>2026-04-03T09:11:30.11Z</time></trkpt><trkpt lat="42.9029867" lon="11.9292233"><ele>347.6</ele><time>2026-04-03T09:11:31.109Z</time></trkpt><trkpt lat="42.90303" lon="11.92909"><ele>348.4</ele><time>2026-04-03T09:11:32.11Z</time></trkpt><trkpt lat="42.9030917" lon="11.92896"><ele>349.2</ele><time>2026-04-03T09:11:33.109Z</time></trkpt><trkpt lat="42.90316" lon="11.9288233"><ele>350.0</ele><time>2026-04-03T09:11:34.109Z</time></trkpt><trkpt lat="42.9032417" lon="11.9286817"><ele>350.0</ele><time>2026-04-03T09:11:35.11Z</time></trkpt><trkpt lat="42.903305" lon="11.9285233"><ele>350.0</ele><time>2026-04-03T09:11:36.11Z</time></trkpt><trkpt lat="42.9033767" lon="11.9283667"><ele>350.0</ele><time>2026-04-03T09:11:37.109Z</time></trkpt><trkpt lat="42.9034383" lon="11.9282033"><ele>350.0</ele><time>2026-04-03T09:11:38.109Z</time></trkpt><trkpt lat="42.9034983" lon="11.9280217"><ele>350.5</ele><time>2026-04-03T09:11:39.11Z</time></trkpt><trkpt lat="42.9035417" lon="11.9278333"><ele>351.0</ele><time>2026-04-03T09:11:40.109Z</time></trkpt><trkpt lat="42.9035717" lon="11.927635"><ele>351.5</ele><time>2026-04-03T09:11:41.11Z</time></trkpt><trkpt lat="42.9036167" lon="11.9274383"><ele>352.0</ele><time>2026-04-03T09:11:42.109Z</time></trkpt><trkpt lat="42.903665" lon="11.9272383"><ele>352.0</ele><time>2026-04-03T09:11:43.11Z</time></trkpt><trkpt lat="42.9037033" lon="11.927055"><ele>352.0</ele><time>2026-04-03T09:11:44.109Z</time></trkpt><trkpt lat="42.9037333" lon="11.926905"><ele>352.0</ele><time>2026-04-03T09:11:45.11Z</time></trkpt><trkpt lat="42.903755" lon="11.9268"><ele>352.0</ele><time>2026-04-03T09:11:46.109Z</time></trkpt><trkpt lat="42.9037633" lon="11.9267133"><ele>352.0</ele><time>2026-04-03T09:11:47.109Z</time></trkpt><trkpt lat="42.90375" lon="11.92662"><ele>351.20000000000005</ele><time>2026-04-03T09:11:49.109Z</time></trkpt><trkpt lat="42.9037267" lon="11.9265083"><ele>350.4</ele><time>2026-04-03T09:11:51.109Z</time></trkpt><trkpt lat="42.9037617" lon="11.9263633"><ele>349.6</ele><time>2026-04-03T09:11:53.109Z</time></trkpt><trkpt lat="42.903805" lon="11.926275"><ele>348.79999999999995</ele><time>2026-04-03T09:11:54.109Z</time></trkpt><trkpt lat="42.9038583" lon="11.9261667"><ele>348.0</ele><time>2026-04-03T09:11:55.109Z</time></trkpt><trkpt lat="42.90391" lon="11.9260483"><ele>348.0</ele><time>2026-04-03T09:11:56.109Z</time></trkpt><trkpt lat="42.903965" lon="11.925915"><ele>348.0</ele><time>2026-04-03T09:11:57.109Z</time></trkpt><trkpt lat="42.9040167" lon="11.92577"><ele>348.0</ele><time>2026-04-03T09:11:58.109Z</time></trkpt><trkpt lat="42.9040667" lon="11.92562"><ele>348.0</ele><time>2026-04-03T09:11:59.109Z</time></trkpt><trkpt lat="42.9041133" lon="11.9254517"><ele>347.75</ele><time>2026-04-03T09:12:00.109Z</time></trkpt><trkpt lat="42.9041417" lon="11.9253017"><ele>347.5</ele><time>2026-04-03T09:12:01.11Z</time></trkpt><trkpt lat="42.904155" lon="11.9251333"><ele>347.25</ele><time>2026-04-03T09:12:02.109Z</time></trkpt><trkpt lat="42.9041617" lon="11.9249567"><ele>347.0</ele><time>2026-04-03T09:12:03.109Z</time></trkpt><trkpt lat="42.9041683" lon="11.9247983"><ele>346.40000000000003</ele><time>2026-04-03T09:12:04.11Z</time></trkpt><trkpt lat="42.9041883" lon="11.9246633"><ele>345.8</ele><time>2026-04-03T09:12:05.11Z</time></trkpt><trkpt lat="42.9042283" lon="11.9245333"><ele>345.2</ele><time>2026-04-03T09:12:06.109Z</time></trkpt><trkpt lat="42.9042833" lon="11.9244183"><ele>344.6</ele><time>2026-04-03T09:12:07.109Z</time></trkpt><trkpt lat="42.9043533" lon="11.9243133"><ele>344.0</ele><time>2026-04-03T09:12:08.109Z</time></trkpt><trkpt lat="42.9044183" lon="11.924215"><ele>346.1666666666667</ele><time>2026-04-03T09:12:09.109Z</time></trkpt><trkpt lat="42.90447" lon="11.92408"><ele>348.33333333333337</ele><time>2026-04-03T09:12:10.109Z</time></trkpt><trkpt lat="42.9045017" lon="11.923955"><ele>350.5</ele><time>2026-04-03T09:12:11.109Z</time></trkpt><trkpt lat="42.904515" lon="11.92384"><ele>352.6666666666667</ele><time>2026-04-03T09:12:12.109Z</time></trkpt><trkpt lat="42.90454" lon="11.9237383"><ele>354.8333333333333</ele><time>2026-04-03T09:12:13.109Z</time></trkpt><trkpt lat="42.904575" lon="11.9236483"><ele>357.0</ele><time>2026-04-03T09:12:14.109Z</time></trkpt><trkpt lat="42.9046183" lon="11.9235433"><ele>357.0</ele><time>2026-04-03T09:12:15.109Z</time></trkpt><trkpt lat="42.9046633" lon="11.923405"><ele>357.0</ele><time>2026-04-03T09:12:16.109Z</time></trkpt><trkpt lat="42.9047067" lon="11.9232417"><ele>357.0</ele><time>2026-04-03T09:12:17.11Z</time></trkpt><trkpt lat="42.904725" lon="11.9230617"><ele>357.0</ele><time>2026-04-03T09:12:18.11Z</time></trkpt><trkpt lat="42.904735" lon="11.9228917"><ele>356.25</ele><time>2026-04-03T09:12:19.109Z</time></trkpt><trkpt lat="42.9047417" lon="11.9227083"><ele>355.5</ele><time>2026-04-03T09:12:20.109Z</time></trkpt><trkpt lat="42.9047517" lon="11.9225267"><ele>354.75</ele><time>2026-04-03T09:12:21.11Z</time></trkpt><trkpt lat="42.9047583" lon="11.9223483"><ele>354.0</ele><time>2026-04-03T09:12:22.109Z</time></trkpt><trkpt lat="42.90476" lon="11.9222"><ele>353.2</ele><time>2026-04-03T09:12:23.11Z</time></trkpt><trkpt lat="42.9047433" lon="11.9220633"><ele>352.4</ele><time>2026-04-03T09:12:24.109Z</time></trkpt><trkpt lat="42.904715" lon="11.92193"><ele>351.6</ele><time>2026-04-03T09:12:25.11Z</time></trkpt><trkpt lat="42.9046717" lon="11.9217867"><ele>350.8</ele><time>2026-04-03T09:12:26.109Z</time></trkpt><trkpt lat="42.9046183" lon="11.9216417"><ele>350.0</ele><time>2026-04-03T09:12:27.11Z</time></trkpt><trkpt lat="42.9045567" lon="11.9214767"><ele>349.8</ele><time>2026-04-03T09:12:28.109Z</time></trkpt><trkpt lat="42.9045067" lon="11.9213017"><ele>349.6</ele><time>2026-04-03T09:12:29.109Z</time></trkpt><trkpt lat="42.90448" lon="11.9211433"><ele>349.4</ele><time>2026-04-03T09:12:30.109Z</time></trkpt><trkpt lat="42.9044717" lon="11.92101"><ele>349.2</ele><time>2026-04-03T09:12:31.109Z</time></trkpt><trkpt lat="42.9044733" lon="11.9208833"><ele>349.0</ele><time>2026-04-03T09:12:32.109Z</time></trkpt><trkpt lat="42.9044833" lon="11.9207317"><ele>349.75</ele><time>2026-04-03T09:12:33.109Z</time></trkpt><trkpt lat="42.9044983" lon="11.9205767"><ele>350.5</ele><time>2026-04-03T09:12:34.109Z</time></trkpt><trkpt lat="42.9045017" lon="11.9203833"><ele>351.25</ele><time>2026-04-03T09:12:35.109Z</time></trkpt><trkpt lat="42.904515" lon="11.9202133"><ele>352.0</ele><time>2026-04-03T09:12:36.109Z</time></trkpt><trkpt lat="42.904545" lon="11.9200717"><ele>352.5</ele><time>2026-04-03T09:12:37.11Z</time></trkpt><trkpt lat="42.9045883" lon="11.9199433"><ele>353.0</ele><time>2026-04-03T09:12:38.109Z</time></trkpt><trkpt lat="42.9046417" lon="11.9197733"><ele>353.5</ele><time>2026-04-03T09:12:39.109Z</time></trkpt><trkpt lat="42.90469" lon="11.9196083"><ele>354.0</ele><time>2026-04-03T09:12:40.109Z</time></trkpt><trkpt lat="42.9047433" lon="11.9194433"><ele>354.0</ele><time>2026-04-03T09:12:41.109Z</time></trkpt><trkpt lat="42.9047867" lon="11.9192967"><ele>354.0</ele><time>2026-04-03T09:12:42.11Z</time></trkpt><trkpt lat="42.90483" lon="11.91918"><ele>354.0</ele><time>2026-04-03T09:12:43.109Z</time></trkpt><trkpt lat="42.904885" lon="11.9190933"><ele>354.0</ele><time>2026-04-03T09:12:44.109Z</time></trkpt><trkpt lat="42.904955" lon="11.9190083"><ele>354.0</ele><time>2026-04-03T09:12:45.109Z</time></trkpt><trkpt lat="42.9050167" lon="11.9189133"><ele>357.0</ele><time>2026-04-03T09:12:46.109Z</time></trkpt><trkpt lat="42.9050817" lon="11.9188033"><ele>360.0</ele><time>2026-04-03T09:12:47.109Z</time></trkpt><trkpt lat="42.9051417" lon="11.91866"><ele>363.0</ele><time>2026-04-03T09:12:48.109Z</time></trkpt><trkpt lat="42.9051883" lon="11.9184883"><ele>366.0</ele><time>2026-04-03T09:12:49.11Z</time></trkpt><trkpt lat="42.9052083" lon="11.918285"><ele>366.0</ele><time>2026-04-03T09:12:50.109Z</time></trkpt><trkpt lat="42.9052067" lon="11.9180667"><ele>366.0</ele><time>2026-04-03T09:12:51.11Z</time></trkpt><trkpt lat="42.9051883" lon="11.917845"><ele>366.0</ele><time>2026-04-03T09:12:52.109Z</time></trkpt><trkpt lat="42.9051683" lon="11.9176333"><ele>366.0</ele><time>2026-04-03T09:12:53.11Z</time></trkpt><trkpt lat="42.9051533" lon="11.9174467"><ele>366.0</ele><time>2026-04-03T09:12:54.109Z</time></trkpt><trkpt lat="42.905145" lon="11.917315"><ele>366.0</ele><time>2026-04-03T09:12:55.11Z</time></trkpt><trkpt lat="42.9051367" lon="11.9172183"><ele>366.0</ele><time>2026-04-03T09:12:56.109Z</time></trkpt><trkpt lat="42.9051233" lon="11.917125"><ele>366.0</ele><time>2026-04-03T09:12:57.109Z</time></trkpt><trkpt lat="42.9051017" lon="11.9170183"><ele>365.6</ele><time>2026-04-03T09:12:58.109Z</time></trkpt><trkpt lat="42.9050683" lon="11.9169133"><ele>365.20000000000005</ele><time>2026-04-03T09:12:59.109Z</time></trkpt><trkpt lat="42.9050317" lon="11.9168"><ele>364.79999999999995</ele><time>2026-04-03T09:13:00.11Z</time></trkpt><trkpt lat="42.904985" lon="11.9166717"><ele>364.4</ele><time>2026-04-03T09:13:01.11Z</time></trkpt><trkpt lat="42.9049317" lon="11.916535"><ele>364.0</ele><time>2026-04-03T09:13:02.109Z</time></trkpt><trkpt lat="42.9048683" lon="11.91639"><ele>364.0</ele><time>2026-04-03T09:13:03.109Z</time></trkpt><trkpt lat="42.9048067" lon="11.9162533"><ele>364.0</ele><time>2026-04-03T09:13:04.109Z</time></trkpt><trkpt lat="42.90474" lon="11.916115"><ele>364.0</ele><time>2026-04-03T09:13:05.109Z</time></trkpt><trkpt lat="42.9046783" lon="11.9159733"><ele>364.0</ele><time>2026-04-03T09:13:06.109Z</time></trkpt><trkpt lat="42.90462" lon="11.9158583"><ele>363.79999999999995</ele><time>2026-04-03T09:13:07.11Z</time></trkpt><trkpt lat="42.904575" lon="11.91575"><ele>363.59999999999997</ele><time>2026-04-03T09:13:08.109Z</time></trkpt><trkpt lat="42.904535" lon="11.9156317"><ele>363.4</ele><time>2026-04-03T09:13:09.109Z</time></trkpt><trkpt lat="42.9045067" lon="11.9155233"><ele>363.2</ele><time>2026-04-03T09:13:10.11Z</time></trkpt><trkpt lat="42.9044667" lon="11.915415"><ele>363.0</ele><time>2026-04-03T09:13:12.109Z</time></trkpt><trkpt lat="42.9044233" lon="11.91529"><ele>363.0</ele><time>2026-04-03T09:13:14.109Z</time></trkpt><trkpt lat="42.904405" lon="11.91518"><ele>363.0</ele><time>2026-04-03T09:13:15.109Z</time></trkpt><trkpt lat="42.9043833" lon="11.9150433"><ele>363.0</ele><time>2026-04-03T09:13:16.11Z</time></trkpt><trkpt lat="42.9043583" lon="11.9148933"><ele>363.0</ele><time>2026-04-03T09:13:17.109Z</time></trkpt><trkpt lat="42.9043333" lon="11.9147433"><ele>363.0</ele><time>2026-04-03T09:13:18.109Z</time></trkpt><trkpt lat="42.904325" lon="11.9145817"><ele>364.0</ele><time>2026-04-03T09:13:19.11Z</time></trkpt><trkpt lat="42.9043283" lon="11.914415"><ele>365.0</ele><time>2026-04-03T09:13:20.109Z</time></trkpt><trkpt lat="42.9043367" lon="11.9142583"><ele>366.0</ele><time>2026-04-03T09:13:21.109Z</time></trkpt><trkpt lat="42.904335" lon="11.9140967"><ele>367.0</ele><time>2026-04-03T09:13:22.11Z</time></trkpt><trkpt lat="42.9043367" lon="11.91395"><ele>367.6</ele><time>2026-04-03T09:13:23.109Z</time></trkpt><trkpt lat="42.904345" lon="11.9137933"><ele>368.20000000000005</ele><time>2026-04-03T09:13:24.109Z</time></trkpt><trkpt lat="42.9043617" lon="11.91365"><ele>368.8</ele><time>2026-04-03T09:13:25.109Z</time></trkpt><trkpt lat="42.9043817" lon="11.9135217"><ele>369.4</ele><time>2026-04-03T09:13:26.109Z</time></trkpt><trkpt lat="42.9043883" lon="11.9134317"><ele>370.0</ele><time>2026-04-03T09:13:27.109Z</time></trkpt><trkpt lat="42.90441" lon="11.9133467"><ele>371.16666666666663</ele><time>2026-04-03T09:13:28.109Z</time></trkpt><trkpt lat="42.9044433" lon="11.91327"><ele>372.3333333333333</ele><time>2026-04-03T09:13:29.108Z</time></trkpt><trkpt lat="42.9044817" lon="11.91319"><ele>373.5</ele><time>2026-04-03T09:13:30.108Z</time></trkpt><trkpt lat="42.904525" lon="11.9131017"><ele>374.6666666666667</ele><time>2026-04-03T09:13:31.109Z</time></trkpt><trkpt lat="42.904575" lon="11.9130183"><ele>375.83333333333337</ele><time>2026-04-03T09:13:32.108Z</time></trkpt><trkpt lat="42.9046183" lon="11.912945"><ele>377.0</ele><time>2026-04-03T09:13:33.108Z</time></trkpt><trkpt lat="42.904665" lon="11.9127917"><ele>377.0</ele><time>2026-04-03T09:13:35.108Z</time></trkpt><trkpt lat="42.9046667" lon="11.9126933"><ele>377.0</ele><time>2026-04-03T09:13:36.108Z</time></trkpt><trkpt lat="42.9046683" lon="11.9125867"><ele>377.0</ele><time>2026-04-03T09:13:37.109Z</time></trkpt><trkpt lat="42.9046767" lon="11.9124567"><ele>377.0</ele><time>2026-04-03T09:13:38.108Z</time></trkpt><trkpt lat="42.9046983" lon="11.9123183"><ele>377.0</ele><time>2026-04-03T09:13:39.108Z</time></trkpt><trkpt lat="42.9047417" lon="11.9121833"><ele>378.40000000000003</ele><time>2026-04-03T09:13:40.109Z</time></trkpt><trkpt lat="42.904785" lon="11.9120467"><ele>379.8</ele><time>2026-04-03T09:13:41.108Z</time></trkpt><trkpt lat="42.90484" lon="11.91191"><ele>381.2</ele><time>2026-04-03T09:13:42.108Z</time></trkpt><trkpt lat="42.904895" lon="11.911765"><ele>382.6</ele><time>2026-04-03T09:13:43.108Z</time></trkpt><trkpt lat="42.904935" lon="11.9116317"><ele>384.0</ele><time>2026-04-03T09:13:44.108Z</time></trkpt><trkpt lat="42.9049717" lon="11.9115217"><ele>384.5</ele><time>2026-04-03T09:13:45.108Z</time></trkpt><trkpt lat="42.9050033" lon="11.911435"><ele>385.0</ele><time>2026-04-03T09:13:46.108Z</time></trkpt><trkpt lat="42.9050717" lon="11.9113983"><ele>385.5</ele><time>2026-04-03T09:13:48.108Z</time></trkpt><trkpt lat="42.9051217" lon="11.9115233"><ele>386.0</ele><time>2026-04-03T09:13:50.108Z</time></trkpt><trkpt lat="42.9051333" lon="11.9116317"><ele>386.5</ele><time>2026-04-03T09:13:51.108Z</time></trkpt><trkpt lat="42.9051267" lon="11.9117633"><ele>387.0</ele><time>2026-04-03T09:13:52.108Z</time></trkpt><trkpt lat="42.90511" lon="11.9119017"><ele>386.40000000000003</ele><time>2026-04-03T09:13:53.108Z</time></trkpt><trkpt lat="42.90508" lon="11.9120367"><ele>385.8</ele><time>2026-04-03T09:13:54.108Z</time></trkpt><trkpt lat="42.9050517" lon="11.9121833"><ele>385.2</ele><time>2026-04-03T09:13:55.108Z</time></trkpt><trkpt lat="42.905045" lon="11.9123167"><ele>384.6</ele><time>2026-04-03T09:13:56.108Z</time></trkpt><trkpt lat="42.9050517" lon="11.9124117"><ele>384.0</ele><time>2026-04-03T09:13:57.108Z</time></trkpt><trkpt lat="42.9051183" lon="11.9125017"><ele>385.79999999999995</ele><time>2026-04-03T09:13:59.109Z</time></trkpt><trkpt lat="42.9052" lon="11.9124817"><ele>387.59999999999997</ele><time>2026-04-03T09:14:01.108Z</time></trkpt><trkpt lat="42.90526" lon="11.9123883"><ele>389.4</ele><time>2026-04-03T09:14:03.108Z</time></trkpt><trkpt lat="42.905305" lon="11.912235"><ele>391.2</ele><time>2026-04-03T09:14:05.108Z</time></trkpt><trkpt lat="42.9053483" lon="11.9120833"><ele>393.0</ele><time>2026-04-03T09:14:07.108Z</time></trkpt><trkpt lat="42.90539" lon="11.911955"><ele>393.0</ele><time>2026-04-03T09:14:09.108Z</time></trkpt><trkpt lat="42.9054283" lon="11.91186"><ele>393.0</ele><time>2026-04-03T09:14:11.108Z</time></trkpt><trkpt lat="42.90554" lon="11.911895"><ele>393.0</ele><time>2026-04-03T09:14:25.108Z</time></trkpt><trkpt lat="42.9056267" lon="11.9119283"><ele>393.0</ele><time>2026-04-03T09:14:26.108Z</time></trkpt><trkpt lat="42.9057267" lon="11.911965"><ele>393.0</ele><time>2026-04-03T09:14:27.108Z</time></trkpt><trkpt lat="42.90583" lon="11.9119983"><ele>396.2</ele><time>2026-04-03T09:14:28.108Z</time></trkpt><trkpt lat="42.9059383" lon="11.912035"><ele>399.4</ele><time>2026-04-03T09:14:29.108Z</time></trkpt><trkpt lat="42.90605" lon="11.9120783"><ele>402.59999999999997</ele><time>2026-04-03T09:14:30.108Z</time></trkpt><trkpt lat="42.9061517" lon="11.9121183"><ele>405.79999999999995</ele><time>2026-04-03T09:14:31.108Z</time></trkpt><trkpt lat="42.9062483" lon="11.9121567"><ele>409.0</ele><time>2026-04-03T09:14:32.108Z</time></trkpt><trkpt lat="42.9063483" lon="11.9121967"><ele>409.0</ele><time>2026-04-03T09:14:33.108Z</time></trkpt><trkpt lat="42.9064317" lon="11.9122267"><ele>409.0</ele><time>2026-04-03T09:14:34.108Z</time></trkpt><trkpt lat="42.9064933" lon="11.912255"><ele>409.0</ele><time>2026-04-03T09:14:35.109Z</time></trkpt><trkpt lat="42.90658" lon="11.9122867"><ele>409.0</ele><time>2026-04-03T09:14:37.108Z</time></trkpt><trkpt lat="42.906595" lon="11.9121867"><ele>409.0</ele><time>2026-04-03T09:14:40.108Z</time></trkpt><trkpt lat="42.906585" lon="11.911995"><ele>409.0</ele><time>2026-04-03T09:14:42.109Z</time></trkpt><trkpt lat="42.906565" lon="11.9118633"><ele>409.0</ele><time>2026-04-03T09:14:43.108Z</time></trkpt><trkpt lat="42.9065483" lon="11.9117217"><ele>409.0</ele><time>2026-04-03T09:14:44.108Z</time></trkpt><trkpt lat="42.9065183" lon="11.9115817"><ele>409.0</ele><time>2026-04-03T09:14:45.108Z</time></trkpt><trkpt lat="42.906475" lon="11.911435"><ele>409.0</ele><time>2026-04-03T09:14:46.108Z</time></trkpt><trkpt lat="42.9064017" lon="11.9113"><ele>410.0</ele><time>2026-04-03T09:14:47.108Z</time></trkpt><trkpt lat="42.9063117" lon="11.9111683"><ele>411.0</ele><time>2026-04-03T09:14:48.109Z</time></trkpt><trkpt lat="42.9061883" lon="11.9110717"><ele>412.0</ele><time>2026-04-03T09:14:49.108Z</time></trkpt><trkpt lat="42.906045" lon="11.9110167"><ele>413.0</ele><time>2026-04-03T09:14:50.109Z</time></trkpt><trkpt lat="42.9058817" lon="11.9109717"><ele>413.0</ele><time>2026-04-03T09:14:51.108Z</time></trkpt><trkpt lat="42.9057267" lon="11.9109317"><ele>413.0</ele><time>2026-04-03T09:14:52.108Z</time></trkpt><trkpt lat="42.9055933" lon="11.91085"><ele>413.0</ele><time>2026-04-03T09:14:53.108Z</time></trkpt><trkpt lat="42.9054767" lon="11.9107233"><ele>413.0</ele><time>2026-04-03T09:14:54.109Z</time></trkpt><trkpt lat="42.9053867" lon="11.9105483"><ele>413.0</ele><time>2026-04-03T09:14:55.109Z</time></trkpt><trkpt lat="42.90533" lon="11.9103333"><ele>413.0</ele><time>2026-04-03T09:14:56.108Z</time></trkpt><trkpt lat="42.9052833" lon="11.9101117"><ele>417.3333333333333</ele><time>2026-04-03T09:14:57.108Z</time></trkpt><trkpt lat="42.90524" lon="11.909865"><ele>421.66666666666663</ele><time>2026-04-03T09:14:58.108Z</time></trkpt><trkpt lat="42.9051933" lon="11.9096283"><ele>426.0</ele><time>2026-04-03T09:14:59.108Z</time></trkpt><trkpt lat="42.905145" lon="11.9093783"><ele>429.33333333333337</ele><time>2026-04-03T09:15:00.108Z</time></trkpt><trkpt lat="42.9051333" lon="11.9091083"><ele>432.6666666666667</ele><time>2026-04-03T09:15:01.108Z</time></trkpt><trkpt lat="42.9051217" lon="11.9088467"><ele>436.0</ele><time>2026-04-03T09:15:02.108Z</time></trkpt><trkpt lat="42.905125" lon="11.90861"><ele>437.33333333333337</ele><time>2026-04-03T09:15:03.108Z</time></trkpt><trkpt lat="42.90516" lon="11.9083767"><ele>438.66666666666663</ele><time>2026-04-03T09:15:04.109Z</time></trkpt><trkpt lat="42.905215" lon="11.9081433"><ele>440.0</ele><time>2026-04-03T09:15:05.108Z</time></trkpt><trkpt lat="42.9052617" lon="11.9079283"><ele>440.0</ele><time>2026-04-03T09:15:06.109Z</time></trkpt><trkpt lat="42.9052817" lon="11.9077467"><ele>440.0</ele><time>2026-04-03T09:15:07.108Z</time></trkpt><trkpt lat="42.9052483" lon="11.9075683"><ele>440.0</ele><time>2026-04-03T09:15:08.109Z</time></trkpt><trkpt lat="42.9051717" lon="11.9073833"><ele>440.0</ele><time>2026-04-03T09:15:09.108Z</time></trkpt><trkpt lat="42.90507" lon="11.907205"><ele>438.0</ele><time>2026-04-03T09:15:10.108Z</time></trkpt><trkpt lat="42.9049567" lon="11.9070333"><ele>436.0</ele><time>2026-04-03T09:15:11.108Z</time></trkpt><trkpt lat="42.9048617" lon="11.9068317"><ele>434.0</ele><time>2026-04-03T09:15:12.108Z</time></trkpt><trkpt lat="42.9047917" lon="11.9066"><ele>434.0</ele><time>2026-04-03T09:15:13.108Z</time></trkpt><trkpt lat="42.9047267" lon="11.906365"><ele>434.0</ele><time>2026-04-03T09:15:14.109Z</time></trkpt><trkpt lat="42.904645" lon="11.9061283"><ele>434.0</ele><time>2026-04-03T09:15:15.108Z</time></trkpt><trkpt lat="42.90456" lon="11.9058867"><ele>439.0</ele><time>2026-04-03T09:15:16.108Z</time></trkpt><trkpt lat="42.9044633" lon="11.90564"><ele>444.0</ele><time>2026-04-03T09:15:17.109Z</time></trkpt><trkpt lat="42.9043583" lon="11.9054133"><ele>449.0</ele><time>2026-04-03T09:15:18.108Z</time></trkpt><trkpt lat="42.9042533" lon="11.905215"><ele>440.3333333333333</ele><time>2026-04-03T09:15:19.108Z</time></trkpt><trkpt lat="42.90418" lon="11.9050317"><ele>431.66666666666663</ele><time>2026-04-03T09:15:20.108Z</time></trkpt><trkpt lat="42.90414" lon="11.9048"><ele>423.0</ele><time>2026-04-03T09:15:21.109Z</time></trkpt><trkpt lat="42.9041167" lon="11.9045683"><ele>423.0</ele><time>2026-04-03T09:15:22.108Z</time></trkpt><trkpt lat="42.9040833" lon="11.90435"><ele>423.0</ele><time>2026-04-03T09:15:23.109Z</time></trkpt><trkpt lat="42.9040667" lon="11.9041283"><ele>423.0</ele><time>2026-04-03T09:15:24.108Z</time></trkpt><trkpt lat="42.904065" lon="11.9039133"><ele>426.33333333333337</ele><time>2026-04-03T09:15:25.108Z</time></trkpt><trkpt lat="42.90409" lon="11.9037167"><ele>429.6666666666667</ele><time>2026-04-03T09:15:26.108Z</time></trkpt><trkpt lat="42.9041933" lon="11.90355"><ele>433.0</ele><time>2026-04-03T09:15:27.108Z</time></trkpt><trkpt lat="42.9043067" lon="11.9034033"><ele>439.6666666666667</ele><time>2026-04-03T09:15:28.108Z</time></trkpt><trkpt lat="42.9044217" lon="11.9032583"><ele>446.33333333333337</ele><time>2026-04-03T09:15:29.108Z</time></trkpt><trkpt lat="42.9045433" lon="11.90309"><ele>453.0</ele><time>2026-04-03T09:15:30.108Z</time></trkpt><trkpt lat="42.9046733" lon="11.9029133"><ele>453.0</ele><time>2026-04-03T09:15:31.108Z</time></trkpt><trkpt lat="42.90481" lon="11.9027333"><ele>453.0</ele><time>2026-04-03T09:15:32.108Z</time></trkpt><trkpt lat="42.9049483" lon="11.9025467"><ele>453.0</ele><time>2026-04-03T09:15:33.109Z</time></trkpt><trkpt lat="42.9050883" lon="11.9023683"><ele>455.66666666666663</ele><time>2026-04-03T09:15:34.108Z</time></trkpt><trkpt lat="42.9052117" lon="11.9022033"><ele>458.3333333333333</ele><time>2026-04-03T09:15:35.109Z</time></trkpt><trkpt lat="42.9053183" lon="11.902015"><ele>461.0</ele><time>2026-04-03T09:15:36.109Z</time></trkpt><trkpt lat="42.9053817" lon="11.9018483"><ele>459.4</ele><time>2026-04-03T09:15:37.108Z</time></trkpt><trkpt lat="42.9053817" lon="11.9017"><ele>457.8</ele><time>2026-04-03T09:15:38.109Z</time></trkpt><trkpt lat="42.9053367" lon="11.901585"><ele>456.19999999999993</ele><time>2026-04-03T09:15:39.109Z</time></trkpt><trkpt lat="42.9052833" lon="11.9014917"><ele>454.59999999999997</ele><time>2026-04-03T09:15:40.108Z</time></trkpt><trkpt lat="42.9052067" lon="11.9014317"><ele>453.0</ele><time>2026-04-03T09:15:41.108Z</time></trkpt><trkpt lat="42.9051233" lon="11.90139"><ele>450.59999999999997</ele><time>2026-04-03T09:15:42.108Z</time></trkpt><trkpt lat="42.905035" lon="11.9013783"><ele>448.19999999999993</ele><time>2026-04-03T09:15:43.109Z</time></trkpt><trkpt lat="42.9049333" lon="11.9013733"><ele>445.8</ele><time>2026-04-03T09:15:44.109Z</time></trkpt><trkpt lat="42.904835" lon="11.901375"><ele>443.4</ele><time>2026-04-03T09:15:45.109Z</time></trkpt><trkpt lat="42.9046983" lon="11.9014133"><ele>441.0</ele><time>2026-04-03T09:15:46.108Z</time></trkpt><trkpt lat="42.9045617" lon="11.90145"><ele>441.0</ele><time>2026-04-03T09:15:47.109Z</time></trkpt><trkpt lat="42.904425" lon="11.90149"><ele>441.0</ele><time>2026-04-03T09:15:48.109Z</time></trkpt><trkpt lat="42.90428" lon="11.9015133"><ele>441.0</ele><time>2026-04-03T09:15:49.108Z</time></trkpt><trkpt lat="42.9041233" lon="11.9015167"><ele>441.0</ele><time>2026-04-03T09:15:50.109Z</time></trkpt><trkpt lat="42.9039867" lon="11.901445"><ele>439.5</ele><time>2026-04-03T09:15:51.108Z</time></trkpt><trkpt lat="42.9038767" lon="11.9013333"><ele>438.0</ele><time>2026-04-03T09:15:52.108Z</time></trkpt><trkpt lat="42.9037933" lon="11.9011967"><ele>436.5</ele><time>2026-04-03T09:15:53.108Z</time></trkpt><trkpt lat="42.90376" lon="11.901"><ele>435.0</ele><time>2026-04-03T09:15:54.109Z</time></trkpt><trkpt lat="42.9037283" lon="11.9007867"><ele>440.33333333333337</ele><time>2026-04-03T09:15:55.108Z</time></trkpt><trkpt lat="42.9036983" lon="11.900565"><ele>445.6666666666667</ele><time>2026-04-03T09:15:56.109Z</time></trkpt><trkpt lat="42.90365" lon="11.90034"><ele>451.0</ele><time>2026-04-03T09:15:57.108Z</time></trkpt><trkpt lat="42.9035567" lon="11.900125"><ele>449.0</ele><time>2026-04-03T09:15:58.109Z</time></trkpt><trkpt lat="42.9034483" lon="11.8999683"><ele>447.0</ele><time>2026-04-03T09:15:59.108Z</time></trkpt><trkpt lat="42.9033267" lon="11.8998617"><ele>445.0</ele><time>2026-04-03T09:16:00.108Z</time></trkpt><trkpt lat="42.9031817" lon="11.8997783"><ele>445.0</ele><time>2026-04-03T09:16:01.108Z</time></trkpt><trkpt lat="42.903045" lon="11.8996967"><ele>445.0</ele><time>2026-04-03T09:16:02.108Z</time></trkpt><trkpt lat="42.9029133" lon="11.899595"><ele>445.0</ele><time>2026-04-03T09:16:03.109Z</time></trkpt><trkpt lat="42.9027733" lon="11.8994917"><ele>445.0</ele><time>2026-04-03T09:16:04.108Z</time></trkpt><trkpt lat="42.9026633" lon="11.8993583"><ele>445.0</ele><time>2026-04-03T09:16:05.108Z</time></trkpt><trkpt lat="42.9025683" lon="11.8991683"><ele>445.0</ele><time>2026-04-03T09:16:06.108Z</time></trkpt><trkpt lat="42.9024783" lon="11.8989567"><ele>445.0</ele><time>2026-04-03T09:16:07.109Z</time></trkpt><trkpt lat="42.90238" lon="11.898745"><ele>445.0</ele><time>2026-04-03T09:16:08.108Z</time></trkpt><trkpt lat="42.9022733" lon="11.8985383"><ele>445.0</ele><time>2026-04-03T09:16:09.108Z</time></trkpt><trkpt lat="42.902145" lon="11.8983267"><ele>444.6666666666667</ele><time>2026-04-03T09:16:10.109Z</time></trkpt><trkpt lat="42.901995" lon="11.8981433"><ele>444.33333333333337</ele><time>2026-04-03T09:16:11.109Z</time></trkpt><trkpt lat="42.9018183" lon="11.897985"><ele>444.0</ele><time>2026-04-03T09:16:12.109Z</time></trkpt><trkpt lat="42.9016333" lon="11.8978467"><ele>444.0</ele><time>2026-04-03T09:16:13.108Z</time></trkpt><trkpt lat="42.9014617" lon="11.8977283"><ele>444.0</ele><time>2026-04-03T09:16:14.108Z</time></trkpt><trkpt lat="42.9012933" lon="11.8976383"><ele>444.0</ele><time>2026-04-03T09:16:15.108Z</time></trkpt><trkpt lat="42.9011483" lon="11.8975283"><ele>446.5</ele><time>2026-04-03T09:16:16.108Z</time></trkpt><trkpt lat="42.9010417" lon="11.8973967"><ele>449.0</ele><time>2026-04-03T09:16:17.108Z</time></trkpt><trkpt lat="42.9009767" lon="11.89722"><ele>451.5</ele><time>2026-04-03T09:16:18.109Z</time></trkpt><trkpt lat="42.9009667" lon="11.8970267"><ele>454.0</ele><time>2026-04-03T09:16:19.109Z</time></trkpt><trkpt lat="42.9009917" lon="11.8968117"><ele>456.33333333333337</ele><time>2026-04-03T09:16:20.108Z</time></trkpt><trkpt lat="42.9010117" lon="11.8966067"><ele>458.66666666666663</ele><time>2026-04-03T09:16:21.108Z</time></trkpt><trkpt lat="42.9010433" lon="11.8963683"><ele>461.0</ele><time>2026-04-03T09:16:22.108Z</time></trkpt><trkpt lat="42.9010733" lon="11.8961367"><ele>461.0</ele><time>2026-04-03T09:16:23.108Z</time></trkpt><trkpt lat="42.9011017" lon="11.8959067"><ele>461.0</ele><time>2026-04-03T09:16:24.108Z</time></trkpt><trkpt lat="42.9010983" lon="11.89571"><ele>461.0</ele><time>2026-04-03T09:16:25.108Z</time></trkpt><trkpt lat="42.9010567" lon="11.895545"><ele>461.0</ele><time>2026-04-03T09:16:26.108Z</time></trkpt><trkpt lat="42.9009833" lon="11.89541"><ele>457.5</ele><time>2026-04-03T09:16:27.108Z</time></trkpt><trkpt lat="42.9008783" lon="11.8953167"><ele>454.0</ele><time>2026-04-03T09:16:28.108Z</time></trkpt><trkpt lat="42.9007533" lon="11.8952667"><ele>450.5</ele><time>2026-04-03T09:16:29.109Z</time></trkpt><trkpt lat="42.90062" lon="11.8952317"><ele>447.0</ele><time>2026-04-03T09:16:30.108Z</time></trkpt><trkpt lat="42.9004717" lon="11.8951667"><ele>450.0</ele><time>2026-04-03T09:16:31.108Z</time></trkpt><trkpt lat="42.9003217" lon="11.89507"><ele>453.0</ele><time>2026-04-03T09:16:32.108Z</time></trkpt><trkpt lat="42.9001617" lon="11.894975"><ele>456.0</ele><time>2026-04-03T09:16:33.109Z</time></trkpt><trkpt lat="42.8999933" lon="11.8949117"><ele>456.33333333333337</ele><time>2026-04-03T09:16:34.108Z</time></trkpt><trkpt lat="42.8998183" lon="11.8948517"><ele>456.6666666666667</ele><time>2026-04-03T09:16:35.108Z</time></trkpt><trkpt lat="42.8996333" lon="11.8947733"><ele>457.0</ele><time>2026-04-03T09:16:36.108Z</time></trkpt><trkpt lat="42.8994483" lon="11.8946783"><ele>457.0</ele><time>2026-04-03T09:16:37.108Z</time></trkpt><trkpt lat="42.8992717" lon="11.8945583"><ele>457.0</ele><time>2026-04-03T09:16:38.108Z</time></trkpt><trkpt lat="42.8990933" lon="11.8944183"><ele>457.0</ele><time>2026-04-03T09:16:39.108Z</time></trkpt><trkpt lat="42.89891" lon="11.8942667"><ele>461.6666666666667</ele><time>2026-04-03T09:16:40.108Z</time></trkpt><trkpt lat="42.8987417" lon="11.8941283"><ele>466.33333333333337</ele><time>2026-04-03T09:16:41.108Z</time></trkpt><trkpt lat="42.8985767" lon="11.89399"><ele>471.0</ele><time>2026-04-03T09:16:42.108Z</time></trkpt><trkpt lat="42.8984317" lon="11.893865"><ele>470.6</ele><time>2026-04-03T09:16:43.108Z</time></trkpt><trkpt lat="42.8983283" lon="11.893755"><ele>470.20000000000005</ele><time>2026-04-03T09:16:44.108Z</time></trkpt><trkpt lat="42.89827" lon="11.8936867"><ele>469.79999999999995</ele><time>2026-04-03T09:16:45.109Z</time></trkpt><trkpt lat="42.8982117" lon="11.8936183"><ele>469.4</ele><time>2026-04-03T09:16:47.108Z</time></trkpt><trkpt lat="42.8981417" lon="11.8935417"><ele>469.0</ele><time>2026-04-03T09:17:58.108Z</time></trkpt><trkpt lat="42.898085" lon="11.8934517"><ele>473.75</ele><time>2026-04-03T09:17:59.108Z</time></trkpt><trkpt lat="42.89803" lon="11.89334"><ele>478.5</ele><time>2026-04-03T09:18:00.107Z</time></trkpt><trkpt lat="42.897965" lon="11.8932033"><ele>483.25</ele><time>2026-04-03T09:18:01.108Z</time></trkpt><trkpt lat="42.897895" lon="11.893045"><ele>488.0</ele><time>2026-04-03T09:18:02.107Z</time></trkpt><trkpt lat="42.8978233" lon="11.8928717"><ele>488.0</ele><time>2026-04-03T09:18:03.107Z</time></trkpt><trkpt lat="42.89776" lon="11.8926917"><ele>488.0</ele><time>2026-04-03T09:18:04.108Z</time></trkpt><trkpt lat="42.8976917" lon="11.8924983"><ele>488.0</ele><time>2026-04-03T09:18:05.107Z</time></trkpt><trkpt lat="42.89763" lon="11.89228"><ele>489.0</ele><time>2026-04-03T09:18:06.107Z</time></trkpt><trkpt lat="42.8975867" lon="11.892045"><ele>490.0</ele><time>2026-04-03T09:18:07.107Z</time></trkpt><trkpt lat="42.8975383" lon="11.8918183"><ele>491.0</ele><time>2026-04-03T09:18:08.107Z</time></trkpt><trkpt lat="42.8974783" lon="11.8915817"><ele>491.0</ele><time>2026-04-03T09:18:09.107Z</time></trkpt><trkpt lat="42.8974033" lon="11.8913633"><ele>491.0</ele><time>2026-04-03T09:18:10.107Z</time></trkpt><trkpt lat="42.8973667" lon="11.8911283"><ele>491.0</ele><time>2026-04-03T09:18:11.107Z</time></trkpt><trkpt lat="42.8973717" lon="11.8908967"><ele>492.5</ele><time>2026-04-03T09:18:12.108Z</time></trkpt><trkpt lat="42.89742" lon="11.8906933"><ele>494.0</ele><time>2026-04-03T09:18:13.107Z</time></trkpt><trkpt lat="42.8974883" lon="11.8905117"><ele>495.5</ele><time>2026-04-03T09:18:14.108Z</time></trkpt><trkpt lat="42.8975233" lon="11.890345"><ele>497.0</ele><time>2026-04-03T09:18:15.108Z</time></trkpt><trkpt lat="42.8975067" lon="11.8901967"><ele>498.5</ele><time>2026-04-03T09:18:16.107Z</time></trkpt><trkpt lat="42.89745" lon="11.8900633"><ele>500.0</ele><time>2026-04-03T09:18:17.107Z</time></trkpt><trkpt lat="42.8973783" lon="11.8899217"><ele>501.5</ele><time>2026-04-03T09:18:18.107Z</time></trkpt><trkpt lat="42.8972917" lon="11.8897717"><ele>503.0</ele><time>2026-04-03T09:18:19.107Z</time></trkpt><trkpt lat="42.8971783" lon="11.88964"><ele>503.0</ele><time>2026-04-03T09:18:20.108Z</time></trkpt><trkpt lat="42.8970683" lon="11.8895117"><ele>503.0</ele><time>2026-04-03T09:18:21.107Z</time></trkpt><trkpt lat="42.8969367" lon="11.8894317"><ele>503.0</ele><time>2026-04-03T09:18:22.107Z</time></trkpt><trkpt lat="42.8968" lon="11.8893867"><ele>503.0</ele><time>2026-04-03T09:18:23.108Z</time></trkpt><trkpt lat="42.8966883" lon="11.88934"><ele>502.59999999999997</ele><time>2026-04-03T09:18:24.107Z</time></trkpt><trkpt lat="42.8966233" lon="11.8892383"><ele>502.19999999999993</ele><time>2026-04-03T09:18:25.107Z</time></trkpt><trkpt lat="42.8966017" lon="11.8891083"><ele>501.8</ele><time>2026-04-03T09:18:26.107Z</time></trkpt><trkpt lat="42.896615" lon="11.8889567"><ele>501.4</ele><time>2026-04-03T09:18:27.108Z</time></trkpt><trkpt lat="42.89666" lon="11.8888017"><ele>501.0</ele><time>2026-04-03T09:18:28.108Z</time></trkpt><trkpt lat="42.89674" lon="11.88864"><ele>504.25</ele><time>2026-04-03T09:18:29.108Z</time></trkpt><trkpt lat="42.8968417" lon="11.8885017"><ele>507.5</ele><time>2026-04-03T09:18:30.108Z</time></trkpt><trkpt lat="42.8969467" lon="11.8883783"><ele>510.75</ele><time>2026-04-03T09:18:31.107Z</time></trkpt><trkpt lat="42.8970633" lon="11.8882367"><ele>514.0</ele><time>2026-04-03T09:18:32.107Z</time></trkpt><trkpt lat="42.8971567" lon="11.8881133"><ele>515.0</ele><time>2026-04-03T09:18:33.107Z</time></trkpt><trkpt lat="42.897185" lon="11.8879683"><ele>516.0</ele><time>2026-04-03T09:18:34.107Z</time></trkpt><trkpt lat="42.8971433" lon="11.887835"><ele>517.0</ele><time>2026-04-03T09:18:35.107Z</time></trkpt><trkpt lat="42.8970467" lon="11.8877133"><ele>518.0</ele><time>2026-04-03T09:18:36.108Z</time></trkpt><trkpt lat="42.89694" lon="11.8876517"><ele>518.0</ele><time>2026-04-03T09:18:37.107Z</time></trkpt><trkpt lat="42.8968167" lon="11.8876417"><ele>518.0</ele><time>2026-04-03T09:18:38.107Z</time></trkpt><trkpt lat="42.896675" lon="11.8876517"><ele>518.0</ele><time>2026-04-03T09:18:39.107Z</time></trkpt><trkpt lat="42.8965317" lon="11.88766"><ele>518.0</ele><time>2026-04-03T09:18:40.107Z</time></trkpt><trkpt lat="42.8964" lon="11.8876133"><ele>517.75</ele><time>2026-04-03T09:18:41.107Z</time></trkpt><trkpt lat="42.8963033" lon="11.8875133"><ele>517.5</ele><time>2026-04-03T09:18:42.108Z</time></trkpt><trkpt lat="42.8962333" lon="11.8873467"><ele>517.25</ele><time>2026-04-03T09:18:43.107Z</time></trkpt><trkpt lat="42.8961833" lon="11.8871483"><ele>517.0</ele><time>2026-04-03T09:18:44.107Z</time></trkpt><trkpt lat="42.8961133" lon="11.886955"><ele>517.0</ele><time>2026-04-03T09:18:45.108Z</time></trkpt><trkpt lat="42.8960433" lon="11.8867717"><ele>517.0</ele><time>2026-04-03T09:18:46.107Z</time></trkpt><trkpt lat="42.8959533" lon="11.8865967"><ele>517.0</ele><time>2026-04-03T09:18:47.107Z</time></trkpt><trkpt lat="42.8958533" lon="11.8864417"><ele>517.0</ele><time>2026-04-03T09:18:48.107Z</time></trkpt><trkpt lat="42.8957683" lon="11.8863083"><ele>517.0</ele><time>2026-04-03T09:18:49.107Z</time></trkpt><trkpt lat="42.8956883" lon="11.88622"><ele>517.0</ele><time>2026-04-03T09:18:50.108Z</time></trkpt><trkpt lat="42.895645" lon="11.886155"><ele>517.0</ele><time>2026-04-03T09:18:51.107Z</time></trkpt><trkpt lat="42.8956533" lon="11.8860683"><ele>517.0</ele><time>2026-04-03T09:18:54.107Z</time></trkpt><trkpt lat="42.8957517" lon="11.8860667"><ele>517.0</ele><time>2026-04-03T09:18:56.107Z</time></trkpt><trkpt lat="42.89582" lon="11.8860733"><ele>517.0</ele><time>2026-04-03T09:18:57.107Z</time></trkpt><trkpt lat="42.8959033" lon="11.8860767"><ele>517.0</ele><time>2026-04-03T09:18:58.107Z</time></trkpt><trkpt lat="42.8959867" lon="11.88607"><ele>517.0</ele><time>2026-04-03T09:18:59.108Z</time></trkpt><trkpt lat="42.89607" lon="11.886055"><ele>517.0</ele><time>2026-04-03T09:19:00.107Z</time></trkpt><trkpt lat="42.896145" lon="11.88604"><ele>517.0</ele><time>2026-04-03T09:19:01.107Z</time></trkpt><trkpt lat="42.8962117" lon="11.886005"><ele>519.8000000000001</ele><time>2026-04-03T09:19:02.108Z</time></trkpt><trkpt lat="42.89626" lon="11.8859467"><ele>522.6</ele><time>2026-04-03T09:19:03.107Z</time></trkpt><trkpt lat="42.8963" lon="11.8858017"><ele>525.4000000000001</ele><time>2026-04-03T09:19:05.107Z</time></trkpt><trkpt lat="42.896245" lon="11.8856533"><ele>528.2</ele><time>2026-04-03T09:19:07.107Z</time></trkpt><trkpt lat="42.8961917" lon="11.885535"><ele>531.0</ele><time>2026-04-03T09:19:09.108Z</time></trkpt><trkpt lat="42.8961967" lon="11.8854383"><ele>532.8333333333334</ele><time>2026-04-03T09:19:11.107Z</time></trkpt><trkpt lat="42.8962933" lon="11.885395"><ele>534.6666666666666</ele><time>2026-04-03T09:19:13.107Z</time></trkpt><trkpt lat="42.8963667" lon="11.8853983"><ele>536.5</ele><time>2026-04-03T09:19:14.107Z</time></trkpt><trkpt lat="42.8964417" lon="11.8853967"><ele>538.3333333333333</ele><time>2026-04-03T09:19:15.107Z</time></trkpt><trkpt lat="42.89651" lon="11.8853733"><ele>540.1666666666666</ele><time>2026-04-03T09:19:16.107Z</time></trkpt><trkpt lat="42.89658" lon="11.8853233"><ele>542.0</ele><time>2026-04-03T09:19:17.107Z</time></trkpt><trkpt lat="42.896635" lon="11.8852633"><ele>542.0</ele><time>2026-04-03T09:19:18.107Z</time></trkpt><trkpt lat="42.896695" lon="11.88518"><ele>542.0</ele><time>2026-04-03T09:19:19.107Z</time></trkpt><trkpt lat="42.896765" lon="11.8850833"><ele>542.0</ele><time>2026-04-03T09:19:20.108Z</time></trkpt><trkpt lat="42.8968467" lon="11.8849667"><ele>542.0</ele><time>2026-04-03T09:19:21.107Z</time></trkpt><trkpt lat="42.8969233" lon="11.8848417"><ele>542.0</ele><time>2026-04-03T09:19:22.107Z</time></trkpt><trkpt lat="42.8969933" lon="11.8847083"><ele>546.0</ele><time>2026-04-03T09:19:23.107Z</time></trkpt><trkpt lat="42.8970683" lon="11.8845833"><ele>550.0</ele><time>2026-04-03T09:19:24.107Z</time></trkpt><trkpt lat="42.8971417" lon="11.8844533"><ele>554.0</ele><time>2026-04-03T09:19:25.107Z</time></trkpt><trkpt lat="42.89721" lon="11.884325"><ele>558.0</ele><time>2026-04-03T09:19:26.107Z</time></trkpt><trkpt lat="42.8972583" lon="11.8842217"><ele>562.0</ele><time>2026-04-03T09:19:27.107Z</time></trkpt><trkpt lat="42.8973033" lon="11.8841333"><ele>562.0</ele><time>2026-04-03T09:19:28.108Z</time></trkpt><trkpt lat="42.897365" lon="11.884085"><ele>562.0</ele><time>2026-04-03T09:19:30.108Z</time></trkpt><trkpt lat="42.897435" lon="11.884155"><ele>562.0</ele><time>2026-04-03T09:19:32.107Z</time></trkpt><trkpt lat="42.8974867" lon="11.884225"><ele>562.0</ele><time>2026-04-03T09:19:33.108Z</time></trkpt><trkpt lat="42.8975333" lon="11.8843117"><ele>562.0</ele><time>2026-04-03T09:19:34.107Z</time></trkpt><trkpt lat="42.8975817" lon="11.8844083"><ele>562.0</ele><time>2026-04-03T09:19:35.108Z</time></trkpt><trkpt lat="42.89763" lon="11.884505"><ele>564.6666666666667</ele><time>2026-04-03T09:19:36.107Z</time></trkpt><trkpt lat="42.8976783" lon="11.8846067"><ele>567.3333333333334</ele><time>2026-04-03T09:19:37.107Z</time></trkpt><trkpt lat="42.8977217" lon="11.8847033"><ele>570.0</ele><time>2026-04-03T09:19:38.108Z</time></trkpt><trkpt lat="42.8977567" lon="11.8848067"><ele>572.6666666666666</ele><time>2026-04-03T09:19:39.108Z</time></trkpt><trkpt lat="42.897805" lon="11.8848967"><ele>575.3333333333333</ele><time>2026-04-03T09:19:40.107Z</time></trkpt><trkpt lat="42.8978817" lon="11.8849733"><ele>578.0</ele><time>2026-04-03T09:19:41.107Z</time></trkpt><trkpt lat="42.8979683" lon="11.885035"><ele>578.0</ele><time>2026-04-03T09:19:42.107Z</time></trkpt><trkpt lat="42.8980467" lon="11.88509"><ele>578.0</ele><time>2026-04-03T09:19:43.107Z</time></trkpt><trkpt lat="42.8981267" lon="11.8851167"><ele>578.0</ele><time>2026-04-03T09:19:44.107Z</time></trkpt><trkpt lat="42.8982033" lon="11.88512"><ele>578.0</ele><time>2026-04-03T09:19:45.108Z</time></trkpt><trkpt lat="42.8982883" lon="11.8851083"><ele>578.0</ele><time>2026-04-03T09:19:46.107Z</time></trkpt><trkpt lat="42.8983667" lon="11.88509"><ele>578.0</ele><time>2026-04-03T09:19:47.107Z</time></trkpt><trkpt lat="42.8984467" lon="11.8850683"><ele>578.8333333333333</ele><time>2026-04-03T09:19:48.107Z</time></trkpt><trkpt lat="42.8985233" lon="11.88505"><ele>579.6666666666666</ele><time>2026-04-03T09:19:49.107Z</time></trkpt><trkpt lat="42.8986033" lon="11.8850217"><ele>580.5</ele><time>2026-04-03T09:19:50.107Z</time></trkpt><trkpt lat="42.89868" lon="11.8849917"><ele>581.3333333333334</ele><time>2026-04-03T09:19:51.107Z</time></trkpt><trkpt lat="42.8987517" lon="11.8849533"><ele>582.1666666666667</ele><time>2026-04-03T09:19:52.107Z</time></trkpt><trkpt lat="42.8988117" lon="11.8849183"><ele>583.0</ele><time>2026-04-03T09:19:53.108Z</time></trkpt><trkpt lat="42.898885" lon="11.8848233"><ele>583.0</ele><time>2026-04-03T09:19:55.108Z</time></trkpt><trkpt lat="42.8989017" lon="11.88467"><ele>583.0</ele><time>2026-04-03T09:19:57.108Z</time></trkpt><trkpt lat="42.898905" lon="11.88458"><ele>583.0</ele><time>2026-04-03T09:19:58.108Z</time></trkpt><trkpt lat="42.89891" lon="11.8844933"><ele>583.0</ele><time>2026-04-03T09:19:59.107Z</time></trkpt><trkpt lat="42.8989317" lon="11.8844033"><ele>583.0</ele><time>2026-04-03T09:20:00.107Z</time></trkpt><trkpt lat="42.8990017" lon="11.884285"><ele>583.0</ele><time>2026-04-03T09:20:02.107Z</time></trkpt><trkpt lat="42.8990517" lon="11.88423"><ele>586.3333333333334</ele><time>2026-04-03T09:20:03.107Z</time></trkpt><trkpt lat="42.899135" lon="11.8841367"><ele>589.6666666666667</ele><time>2026-04-03T09:20:05.107Z</time></trkpt><trkpt lat="42.899165" lon="11.8840417"><ele>593.0</ele><time>2026-04-03T09:20:07.107Z</time></trkpt><trkpt lat="42.8991233" lon="11.8839317"><ele>596.3333333333334</ele><time>2026-04-03T09:20:09.107Z</time></trkpt><trkpt lat="42.89907" lon="11.8838817"><ele>599.6666666666666</ele><time>2026-04-03T09:20:10.107Z</time></trkpt><trkpt lat="42.899" lon="11.883845"><ele>603.0</ele><time>2026-04-03T09:20:11.107Z</time></trkpt><trkpt lat="42.898925" lon="11.8838067"><ele>603.0</ele><time>2026-04-03T09:20:12.107Z</time></trkpt><trkpt lat="42.8988533" lon="11.88373"><ele>603.0</ele><time>2026-04-03T09:20:13.107Z</time></trkpt><trkpt lat="42.8987933" lon="11.8836367"><ele>603.0</ele><time>2026-04-03T09:20:14.107Z</time></trkpt><trkpt lat="42.8987417" lon="11.8835317"><ele>603.0</ele><time>2026-04-03T09:20:15.107Z</time></trkpt><trkpt lat="42.89869" lon="11.8834183"><ele>603.0</ele><time>2026-04-03T09:20:16.107Z</time></trkpt><trkpt lat="42.8986417" lon="11.8833017"><ele>601.1999999999999</ele><time>2026-04-03T09:20:17.107Z</time></trkpt><trkpt lat="42.898595" lon="11.883165"><ele>599.4</ele><time>2026-04-03T09:20:18.107Z</time></trkpt><trkpt lat="42.8985283" lon="11.8830467"><ele>597.5999999999999</ele><time>2026-04-03T09:20:19.107Z</time></trkpt><trkpt lat="42.8984717" lon="11.88292"><ele>595.8</ele><time>2026-04-03T09:20:20.107Z</time></trkpt><trkpt lat="42.89843" lon="11.8828233"><ele>594.0</ele><time>2026-04-03T09:20:21.107Z</time></trkpt><trkpt lat="42.8983783" lon="11.88276"><ele>594.0</ele><time>2026-04-03T09:20:22.107Z</time></trkpt><trkpt lat="42.8983067" lon="11.88271"><ele>594.0</ele><time>2026-04-03T09:20:24.107Z</time></trkpt><trkpt lat="42.89819" lon="11.8826783"><ele>594.0</ele><time>2026-04-03T09:20:26.107Z</time></trkpt><trkpt lat="42.8981133" lon="11.882635"><ele>594.0</ele><time>2026-04-03T09:20:27.108Z</time></trkpt><trkpt lat="42.8980217" lon="11.88259"><ele>594.0</ele><time>2026-04-03T09:20:28.107Z</time></trkpt><trkpt lat="42.89792" lon="11.882555"><ele>594.25</ele><time>2026-04-03T09:20:29.107Z</time></trkpt><trkpt lat="42.897805" lon="11.8825233"><ele>594.5</ele><time>2026-04-03T09:20:30.107Z</time></trkpt><trkpt lat="42.8976817" lon="11.8824817"><ele>594.75</ele><time>2026-04-03T09:20:31.107Z</time></trkpt><trkpt lat="42.8975633" lon="11.88241"><ele>595.0</ele><time>2026-04-03T09:20:32.107Z</time></trkpt><trkpt lat="42.8974617" lon="11.8823217"><ele>595.0</ele><time>2026-04-03T09:20:33.108Z</time></trkpt><trkpt lat="42.8973767" lon="11.8821967"><ele>595.0</ele><time>2026-04-03T09:20:34.107Z</time></trkpt><trkpt lat="42.8973067" lon="11.8820567"><ele>595.0</ele><time>2026-04-03T09:20:35.107Z</time></trkpt><trkpt lat="42.8972433" lon="11.88192"><ele>595.0</ele><time>2026-04-03T09:20:36.107Z</time></trkpt><trkpt lat="42.897185" lon="11.8817883"><ele>600.6</ele><time>2026-04-03T09:20:37.107Z</time></trkpt><trkpt lat="42.8971167" lon="11.8816433"><ele>606.2</ele><time>2026-04-03T09:20:38.107Z</time></trkpt><trkpt lat="42.8970433" lon="11.881515"><ele>611.8</ele><time>2026-04-03T09:20:39.107Z</time></trkpt><trkpt lat="42.8969783" lon="11.881405"><ele>617.4</ele><time>2026-04-03T09:20:40.107Z</time></trkpt><trkpt lat="42.896915" lon="11.8813167"><ele>623.0</ele><time>2026-04-03T09:20:41.107Z</time></trkpt><trkpt lat="42.8968567" lon="11.881235"><ele>623.0</ele><time>2026-04-03T09:20:42.108Z</time></trkpt><trkpt lat="42.8968" lon="11.8811533"><ele>623.0</ele><time>2026-04-03T09:20:43.107Z</time></trkpt><trkpt lat="42.896745" lon="11.8810467"><ele>623.0</ele><time>2026-04-03T09:20:44.108Z</time></trkpt><trkpt lat="42.8966983" lon="11.880885"><ele>623.0</ele><time>2026-04-03T09:20:45.108Z</time></trkpt><trkpt lat="42.896645" lon="11.8807167"><ele>623.0</ele><time>2026-04-03T09:20:46.107Z</time></trkpt><trkpt lat="42.8965717" lon="11.8805767"><ele>623.0</ele><time>2026-04-03T09:20:47.107Z</time></trkpt><trkpt lat="42.8965" lon="11.880475"><ele>623.0</ele><time>2026-04-03T09:20:48.107Z</time></trkpt><trkpt lat="42.8964317" lon="11.8804"><ele>623.0</ele><time>2026-04-03T09:20:49.108Z</time></trkpt><trkpt lat="42.8963683" lon="11.88036"><ele>623.0</ele><time>2026-04-03T09:20:50.108Z</time></trkpt><trkpt lat="42.8963067" lon="11.8803383"><ele>623.0</ele><time>2026-04-03T09:20:51.107Z</time></trkpt><trkpt lat="42.8962233" lon="11.880315"><ele>623.0</ele><time>2026-04-03T09:20:52.108Z</time></trkpt><trkpt lat="42.8961383" lon="11.8803033"><ele>623.0</ele><time>2026-04-03T09:20:53.108Z</time></trkpt><trkpt lat="42.8960583" lon="11.8803083"><ele>623.0</ele><time>2026-04-03T09:20:54.108Z</time></trkpt><trkpt lat="42.8959733" lon="11.8803183"><ele>623.0</ele><time>2026-04-03T09:20:55.107Z</time></trkpt><trkpt lat="42.8958883" lon="11.8803383"><ele>623.0</ele><time>2026-04-03T09:20:56.107Z</time></trkpt><trkpt lat="42.8958067" lon="11.8803383"><ele>623.0</ele><time>2026-04-03T09:20:57.107Z</time></trkpt><trkpt lat="42.8957333" lon="11.8802967"><ele>623.0</ele><time>2026-04-03T09:20:58.107Z</time></trkpt><trkpt lat="42.89566" lon="11.8802267"><ele>623.8</ele><time>2026-04-03T09:20:59.107Z</time></trkpt><trkpt lat="42.8955783" lon="11.8801433"><ele>624.5999999999999</ele><time>2026-04-03T09:21:00.107Z</time></trkpt><trkpt lat="42.8954933" lon="11.8800533"><ele>625.4000000000001</ele><time>2026-04-03T09:21:01.107Z</time></trkpt><trkpt lat="42.8953933" lon="11.8799717"><ele>626.2</ele><time>2026-04-03T09:21:02.107Z</time></trkpt><trkpt lat="42.8953083" lon="11.879885"><ele>627.0</ele><time>2026-04-03T09:21:03.107Z</time></trkpt><trkpt lat="42.8952267" lon="11.8797917"><ele>627.0</ele><time>2026-04-03T09:21:04.107Z</time></trkpt><trkpt lat="42.8951367" lon="11.8797"><ele>627.0</ele><time>2026-04-03T09:21:05.107Z</time></trkpt><trkpt lat="42.89504" lon="11.8796333"><ele>627.0</ele><time>2026-04-03T09:21:06.108Z</time></trkpt><trkpt lat="42.8949383" lon="11.8795867"><ele>627.0</ele><time>2026-04-03T09:21:07.107Z</time></trkpt><trkpt lat="42.8948233" lon="11.8795417"><ele>627.0</ele><time>2026-04-03T09:21:08.108Z</time></trkpt><trkpt lat="42.894695" lon="11.8795033"><ele>627.75</ele><time>2026-04-03T09:21:09.107Z</time></trkpt><trkpt lat="42.8945717" lon="11.8794633"><ele>628.5</ele><time>2026-04-03T09:21:10.108Z</time></trkpt><trkpt lat="42.8944533" lon="11.879455"><ele>629.25</ele><time>2026-04-03T09:21:11.108Z</time></trkpt><trkpt lat="42.894335" lon="11.8794583"><ele>630.0</ele><time>2026-04-03T09:21:12.107Z</time></trkpt><trkpt lat="42.89421" lon="11.8794833"><ele>630.0</ele><time>2026-04-03T09:21:13.108Z</time></trkpt><trkpt lat="42.89409" lon="11.87951"><ele>630.0</ele><time>2026-04-03T09:21:14.107Z</time></trkpt><trkpt lat="42.89398" lon="11.879535"><ele>630.0</ele><time>2026-04-03T09:21:15.107Z</time></trkpt><trkpt lat="42.8938917" lon="11.87958"><ele>630.0</ele><time>2026-04-03T09:21:16.107Z</time></trkpt><trkpt lat="42.89381" lon="11.87963"><ele>630.0</ele><time>2026-04-03T09:21:17.107Z</time></trkpt><trkpt lat="42.8937267" lon="11.87969"><ele>630.0</ele><time>2026-04-03T09:21:18.107Z</time></trkpt><trkpt lat="42.8936383" lon="11.879735"><ele>630.0</ele><time>2026-04-03T09:21:19.107Z</time></trkpt><trkpt lat="42.893555" lon="11.8797633"><ele>630.0</ele><time>2026-04-03T09:21:20.107Z</time></trkpt><trkpt lat="42.8934633" lon="11.8797633"><ele>630.0</ele><time>2026-04-03T09:21:21.107Z</time></trkpt><trkpt lat="42.8933583" lon="11.879755"><ele>630.0</ele><time>2026-04-03T09:21:22.108Z</time></trkpt><trkpt lat="42.8932467" lon="11.879715"><ele>630.0</ele><time>2026-04-03T09:21:23.107Z</time></trkpt><trkpt lat="42.8931383" lon="11.879675"><ele>630.0</ele><time>2026-04-03T09:21:24.107Z</time></trkpt><trkpt lat="42.8930433" lon="11.87963"><ele>630.0</ele><time>2026-04-03T09:21:25.107Z</time></trkpt><trkpt lat="42.892955" lon="11.879555"><ele>630.0</ele><time>2026-04-03T09:21:26.107Z</time></trkpt><trkpt lat="42.8928683" lon="11.87947"><ele>630.0</ele><time>2026-04-03T09:21:27.107Z</time></trkpt><trkpt lat="42.8927817" lon="11.8793867"><ele>630.0</ele><time>2026-04-03T09:21:28.107Z</time></trkpt><trkpt lat="42.89269" lon="11.879315"><ele>630.0</ele><time>2026-04-03T09:21:29.107Z</time></trkpt><trkpt lat="42.8925967" lon="11.87924"><ele>630.0</ele><time>2026-04-03T09:21:30.107Z</time></trkpt><trkpt lat="42.8924983" lon="11.8791583"><ele>630.0</ele><time>2026-04-03T09:21:31.107Z</time></trkpt><trkpt lat="42.8923983" lon="11.8790833"><ele>630.0</ele><time>2026-04-03T09:21:32.107Z</time></trkpt><trkpt lat="42.8923083" lon="11.879015"><ele>628.0</ele><time>2026-04-03T09:21:33.108Z</time></trkpt><trkpt lat="42.892225" lon="11.8789567"><ele>626.0</ele><time>2026-04-03T09:21:34.108Z</time></trkpt><trkpt lat="42.8921533" lon="11.8788667"><ele>624.0</ele><time>2026-04-03T09:21:35.108Z</time></trkpt><trkpt lat="42.8920733" lon="11.8787667"><ele>622.0</ele><time>2026-04-03T09:21:36.107Z</time></trkpt><trkpt lat="42.8919983" lon="11.8786717"><ele>620.0</ele><time>2026-04-03T09:21:37.108Z</time></trkpt><trkpt lat="42.89191" lon="11.878595"><ele>620.0</ele><time>2026-04-03T09:21:38.107Z</time></trkpt><trkpt lat="42.891815" lon="11.8785433"><ele>620.0</ele><time>2026-04-03T09:21:39.108Z</time></trkpt><trkpt lat="42.8917133" lon="11.8785117"><ele>620.0</ele><time>2026-04-03T09:21:40.107Z</time></trkpt><trkpt lat="42.8916067" lon="11.878495"><ele>620.0</ele><time>2026-04-03T09:21:41.106Z</time></trkpt><trkpt lat="42.891485" lon="11.8784817"><ele>620.0</ele><time>2026-04-03T09:21:42.107Z</time></trkpt><trkpt lat="42.8913667" lon="11.87848"><ele>616.4</ele><time>2026-04-03T09:21:43.107Z</time></trkpt><trkpt lat="42.8912483" lon="11.8784717"><ele>612.8</ele><time>2026-04-03T09:21:44.106Z</time></trkpt><trkpt lat="42.8911417" lon="11.8784617"><ele>609.2</ele><time>2026-04-03T09:21:45.107Z</time></trkpt><trkpt lat="42.8910467" lon="11.8784483"><ele>605.6</ele><time>2026-04-03T09:21:46.106Z</time></trkpt><trkpt lat="42.8909433" lon="11.8784433"><ele>602.0</ele><time>2026-04-03T09:21:47.106Z</time></trkpt><trkpt lat="42.8908367" lon="11.87846"><ele>602.0</ele><time>2026-04-03T09:21:48.107Z</time></trkpt><trkpt lat="42.8907433" lon="11.8784933"><ele>602.0</ele><time>2026-04-03T09:21:49.106Z</time></trkpt><trkpt lat="42.8906617" lon="11.87853"><ele>602.0</ele><time>2026-04-03T09:21:50.106Z</time></trkpt><trkpt lat="42.8905867" lon="11.87856"><ele>602.0</ele><time>2026-04-03T09:21:51.107Z</time></trkpt><trkpt lat="42.8905083" lon="11.878575"><ele>602.0</ele><time>2026-04-03T09:21:52.106Z</time></trkpt><trkpt lat="42.8904233" lon="11.8785733"><ele>602.0</ele><time>2026-04-03T09:21:53.106Z</time></trkpt><trkpt lat="42.89033" lon="11.8785583"><ele>602.0</ele><time>2026-04-03T09:21:54.107Z</time></trkpt><trkpt lat="42.890245" lon="11.87855"><ele>602.0</ele><time>2026-04-03T09:21:55.106Z</time></trkpt><trkpt lat="42.8901467" lon="11.8785433"><ele>602.0</ele><time>2026-04-03T09:21:56.106Z</time></trkpt><trkpt lat="42.8900333" lon="11.8785367"><ele>602.0</ele><time>2026-04-03T09:21:57.106Z</time></trkpt><trkpt lat="42.8899133" lon="11.8785367"><ele>602.0</ele><time>2026-04-03T09:21:58.107Z</time></trkpt><trkpt lat="42.8897783" lon="11.8785133"><ele>603.5</ele><time>2026-04-03T09:21:59.106Z</time></trkpt><trkpt lat="42.8896433" lon="11.8784983"><ele>605.0</ele><time>2026-04-03T09:22:00.106Z</time></trkpt><trkpt lat="42.889515" lon="11.8784817"><ele>606.5</ele><time>2026-04-03T09:22:01.106Z</time></trkpt><trkpt lat="42.8893883" lon="11.87847"><ele>608.0</ele><time>2026-04-03T09:22:02.106Z</time></trkpt><trkpt lat="42.88927" lon="11.8784583"><ele>609.4</ele><time>2026-04-03T09:22:03.106Z</time></trkpt><trkpt lat="42.88916" lon="11.8784417"><ele>610.8</ele><time>2026-04-03T09:22:04.106Z</time></trkpt><trkpt lat="42.88905" lon="11.8784417"><ele>612.2</ele><time>2026-04-03T09:22:05.106Z</time></trkpt><trkpt lat="42.8889483" lon="11.8784533"><ele>613.6</ele><time>2026-04-03T09:22:06.106Z</time></trkpt><trkpt lat="42.8888517" lon="11.878465"><ele>615.0</ele><time>2026-04-03T09:22:07.106Z</time></trkpt><trkpt lat="42.8887483" lon="11.8784617"><ele>615.0</ele><time>2026-04-03T09:22:08.106Z</time></trkpt><trkpt lat="42.8886333" lon="11.878465"><ele>615.0</ele><time>2026-04-03T09:22:09.106Z</time></trkpt><trkpt lat="42.8885033" lon="11.8784783"><ele>615.0</ele><time>2026-04-03T09:22:10.107Z</time></trkpt><trkpt lat="42.888375" lon="11.87851"><ele>615.0</ele><time>2026-04-03T09:22:11.107Z</time></trkpt><trkpt lat="42.888255" lon="11.878555"><ele>615.2</ele><time>2026-04-03T09:22:12.106Z</time></trkpt><trkpt lat="42.8881383" lon="11.878595"><ele>615.4</ele><time>2026-04-03T09:22:13.107Z</time></trkpt><trkpt lat="42.88802" lon="11.8786017"><ele>615.6</ele><time>2026-04-03T09:22:14.106Z</time></trkpt><trkpt lat="42.8879267" lon="11.8785767"><ele>615.8</ele><time>2026-04-03T09:22:15.106Z</time></trkpt><trkpt lat="42.8878317" lon="11.8785417"><ele>616.0</ele><time>2026-04-03T09:22:16.107Z</time></trkpt><trkpt lat="42.8877267" lon="11.8785117"><ele>616.0</ele><time>2026-04-03T09:22:17.106Z</time></trkpt><trkpt lat="42.8876067" lon="11.8784917"><ele>616.0</ele><time>2026-04-03T09:22:18.106Z</time></trkpt><trkpt lat="42.88747" lon="11.8785"><ele>616.0</ele><time>2026-04-03T09:22:19.106Z</time></trkpt><trkpt lat="42.8873267" lon="11.8785283"><ele>616.0</ele><time>2026-04-03T09:22:20.106Z</time></trkpt><trkpt lat="42.8871733" lon="11.87857"><ele>615.6666666666667</ele><time>2026-04-03T09:22:21.106Z</time></trkpt><trkpt lat="42.88701" lon="11.8786167"><ele>615.3333333333334</ele><time>2026-04-03T09:22:22.106Z</time></trkpt><trkpt lat="42.8868383" lon="11.8786667"><ele>615.0</ele><time>2026-04-03T09:22:23.106Z</time></trkpt><trkpt lat="42.88665" lon="11.8787133"><ele>617.0</ele><time>2026-04-03T09:22:24.107Z</time></trkpt><trkpt lat="42.886465" lon="11.8787817"><ele>619.0</ele><time>2026-04-03T09:22:25.106Z</time></trkpt><trkpt lat="42.8862967" lon="11.87885"><ele>621.0</ele><time>2026-04-03T09:22:26.107Z</time></trkpt><trkpt lat="42.88615" lon="11.8789033"><ele>621.0</ele><time>2026-04-03T09:22:27.106Z</time></trkpt><trkpt lat="42.8860167" lon="11.8789517"><ele>621.0</ele><time>2026-04-03T09:22:28.106Z</time></trkpt><trkpt lat="42.8859233" lon="11.8790033"><ele>621.0</ele><time>2026-04-03T09:22:29.106Z</time></trkpt><trkpt lat="42.8858233" lon="11.8790783"><ele>621.0</ele><time>2026-04-03T09:22:30.106Z</time></trkpt><trkpt lat="42.8857317" lon="11.8791517"><ele>621.0</ele><time>2026-04-03T09:22:31.106Z</time></trkpt><trkpt lat="42.8856433" lon="11.8792283"><ele>621.0</ele><time>2026-04-03T09:22:32.107Z</time></trkpt><trkpt lat="42.8855633" lon="11.8792733"><ele>621.0</ele><time>2026-04-03T09:22:33.107Z</time></trkpt><trkpt lat="42.8854933" lon="11.879305"><ele>621.0</ele><time>2026-04-03T09:22:34.106Z</time></trkpt><trkpt lat="42.8854117" lon="11.8793367"><ele>621.0</ele><time>2026-04-03T09:22:35.106Z</time></trkpt><trkpt lat="42.8853183" lon="11.8793467"><ele>621.0</ele><time>2026-04-03T09:22:36.106Z</time></trkpt><trkpt lat="42.8852033" lon="11.8793467"><ele>621.75</ele><time>2026-04-03T09:22:37.106Z</time></trkpt><trkpt lat="42.8850833" lon="11.8793283"><ele>622.5</ele><time>2026-04-03T09:22:38.106Z</time></trkpt><trkpt lat="42.884955" lon="11.8792767"><ele>623.25</ele><time>2026-04-03T09:22:39.107Z</time></trkpt><trkpt lat="42.8848167" lon="11.8792217"><ele>624.0</ele><time>2026-04-03T09:22:40.106Z</time></trkpt><trkpt lat="42.88465" lon="11.87918"><ele>624.6666666666666</ele><time>2026-04-03T09:22:41.106Z</time></trkpt><trkpt lat="42.8844783" lon="11.8791533"><ele>625.3333333333333</ele><time>2026-04-03T09:22:42.106Z</time></trkpt><trkpt lat="42.8842967" lon="11.8791283"><ele>626.0</ele><time>2026-04-03T09:22:43.106Z</time></trkpt><trkpt lat="42.8841317" lon="11.8791317"><ele>626.0</ele><time>2026-04-03T09:22:44.107Z</time></trkpt><trkpt lat="42.8839733" lon="11.8791367"><ele>626.0</ele><time>2026-04-03T09:22:45.107Z</time></trkpt><trkpt lat="42.8838283" lon="11.87913"><ele>626.0</ele><time>2026-04-03T09:22:46.106Z</time></trkpt><trkpt lat="42.883695" lon="11.879105"><ele>626.0</ele><time>2026-04-03T09:22:47.106Z</time></trkpt><trkpt lat="42.8835767" lon="11.879085"><ele>626.0</ele><time>2026-04-03T09:22:48.106Z</time></trkpt><trkpt lat="42.883475" lon="11.8790583"><ele>626.0</ele><time>2026-04-03T09:22:49.106Z</time></trkpt><trkpt lat="42.8833833" lon="11.8790417"><ele>626.0</ele><time>2026-04-03T09:22:50.107Z</time></trkpt><trkpt lat="42.8833083" lon="11.8790233"><ele>626.0</ele><time>2026-04-03T09:22:51.107Z</time></trkpt><trkpt lat="42.88322" lon="11.8789417"><ele>626.0</ele><time>2026-04-03T09:22:53.106Z</time></trkpt><trkpt lat="42.8831967" lon="11.8788417"><ele>626.4</ele><time>2026-04-03T09:22:54.106Z</time></trkpt><trkpt lat="42.8831783" lon="11.87872"><ele>626.8</ele><time>2026-04-03T09:22:55.106Z</time></trkpt><trkpt lat="42.8831383" lon="11.87861"><ele>627.1999999999999</ele><time>2026-04-03T09:22:56.106Z</time></trkpt><trkpt lat="42.8830867" lon="11.8785067"><ele>627.6</ele><time>2026-04-03T09:22:57.106Z</time></trkpt><trkpt lat="42.8830217" lon="11.8784"><ele>628.0</ele><time>2026-04-03T09:22:58.107Z</time></trkpt><trkpt lat="42.882925" lon="11.8783383"><ele>628.0</ele><time>2026-04-03T09:22:59.106Z</time></trkpt><trkpt lat="42.8828167" lon="11.87829"><ele>628.0</ele><time>2026-04-03T09:23:00.106Z</time></trkpt><trkpt lat="42.88271" lon="11.8782833"><ele>628.0</ele><time>2026-04-03T09:23:01.106Z</time></trkpt><trkpt lat="42.8825833" lon="11.8782983"><ele>628.0</ele><time>2026-04-03T09:23:02.106Z</time></trkpt><trkpt lat="42.8824317" lon="11.878335"><ele>626.0</ele><time>2026-04-03T09:23:03.106Z</time></trkpt><trkpt lat="42.88227" lon="11.8783867"><ele>624.0</ele><time>2026-04-03T09:23:04.106Z</time></trkpt><trkpt lat="42.88211" lon="11.87844"><ele>622.0</ele><time>2026-04-03T09:23:05.107Z</time></trkpt><trkpt lat="42.8819367" lon="11.8784617"><ele>619.25</ele><time>2026-04-03T09:23:06.106Z</time></trkpt><trkpt lat="42.881775" lon="11.87849"><ele>616.5</ele><time>2026-04-03T09:23:07.107Z</time></trkpt><trkpt lat="42.8816367" lon="11.8785317"><ele>613.75</ele><time>2026-04-03T09:23:08.106Z</time></trkpt><trkpt lat="42.881495" lon="11.8785683"><ele>611.0</ele><time>2026-04-03T09:23:09.106Z</time></trkpt><trkpt lat="42.8813683" lon="11.8785733"><ele>611.0</ele><time>2026-04-03T09:23:10.107Z</time></trkpt><trkpt lat="42.8812617" lon="11.8785683"><ele>611.0</ele><time>2026-04-03T09:23:11.106Z</time></trkpt><trkpt lat="42.8811833" lon="11.87855"><ele>611.0</ele><time>2026-04-03T09:23:12.106Z</time></trkpt><trkpt lat="42.881105" lon="11.878505"><ele>611.0</ele><time>2026-04-03T09:23:13.106Z</time></trkpt><trkpt lat="42.88104" lon="11.8784283"><ele>611.0</ele><time>2026-04-03T09:23:14.106Z</time></trkpt><trkpt lat="42.8809617" lon="11.8783367"><ele>614.4</ele><time>2026-04-03T09:23:15.106Z</time></trkpt><trkpt lat="42.8808733" lon="11.8782633"><ele>617.8</ele><time>2026-04-03T09:23:16.106Z</time></trkpt><trkpt lat="42.8807867" lon="11.8782133"><ele>621.1999999999999</ele><time>2026-04-03T09:23:17.106Z</time></trkpt><trkpt lat="42.8806783" lon="11.8781733"><ele>624.6</ele><time>2026-04-03T09:23:18.106Z</time></trkpt><trkpt lat="42.8805467" lon="11.87812"><ele>628.0</ele><time>2026-04-03T09:23:19.106Z</time></trkpt><trkpt lat="42.8804017" lon="11.8780633"><ele>628.0</ele><time>2026-04-03T09:23:20.106Z</time></trkpt><trkpt lat="42.8802367" lon="11.8780083"><ele>628.0</ele><time>2026-04-03T09:23:21.107Z</time></trkpt><trkpt lat="42.88009" lon="11.8779583"><ele>628.0</ele><time>2026-04-03T09:23:22.106Z</time></trkpt><trkpt lat="42.879955" lon="11.877905"><ele>628.75</ele><time>2026-04-03T09:23:23.107Z</time></trkpt><trkpt lat="42.8798517" lon="11.877825"><ele>629.5</ele><time>2026-04-03T09:23:24.107Z</time></trkpt><trkpt lat="42.8797383" lon="11.877735"><ele>630.25</ele><time>2026-04-03T09:23:25.106Z</time></trkpt><trkpt lat="42.879605" lon="11.8776217"><ele>631.0</ele><time>2026-04-03T09:23:26.107Z</time></trkpt><trkpt lat="42.87947" lon="11.87752"><ele>631.0</ele><time>2026-04-03T09:23:27.106Z</time></trkpt><trkpt lat="42.8793383" lon="11.8774183"><ele>631.0</ele><time>2026-04-03T09:23:28.107Z</time></trkpt><trkpt lat="42.8792183" lon="11.8773133"><ele>631.0</ele><time>2026-04-03T09:23:29.106Z</time></trkpt><trkpt lat="42.8791033" lon="11.877235"><ele>631.0</ele><time>2026-04-03T09:23:30.107Z</time></trkpt><trkpt lat="42.879" lon="11.8771783"><ele>629.2</ele><time>2026-04-03T09:23:31.106Z</time></trkpt><trkpt lat="42.87891" lon="11.8771183"><ele>627.4000000000001</ele><time>2026-04-03T09:23:32.106Z</time></trkpt><trkpt lat="42.8788267" lon="11.87706"><ele>625.6</ele><time>2026-04-03T09:23:33.106Z</time></trkpt><trkpt lat="42.8787517" lon="11.8769917"><ele>623.8000000000001</ele><time>2026-04-03T09:23:34.106Z</time></trkpt><trkpt lat="42.878685" lon="11.8768917"><ele>622.0</ele><time>2026-04-03T09:23:35.106Z</time></trkpt><trkpt lat="42.8786267" lon="11.87676"><ele>621.6</ele><time>2026-04-03T09:23:36.106Z</time></trkpt><trkpt lat="42.8785867" lon="11.8766117"><ele>621.2</ele><time>2026-04-03T09:23:37.107Z</time></trkpt><trkpt lat="42.8785367" lon="11.8764933"><ele>620.8</ele><time>2026-04-03T09:23:38.107Z</time></trkpt><trkpt lat="42.8784733" lon="11.8763883"><ele>620.4</ele><time>2026-04-03T09:23:39.106Z</time></trkpt><trkpt lat="42.8783983" lon="11.8763"><ele>620.0</ele><time>2026-04-03T09:23:40.106Z</time></trkpt><trkpt lat="42.8782933" lon="11.87623"><ele>618.3333333333333</ele><time>2026-04-03T09:23:41.106Z</time></trkpt><trkpt lat="42.8781583" lon="11.876135"><ele>616.6666666666666</ele><time>2026-04-03T09:23:42.106Z</time></trkpt><trkpt lat="42.8780317" lon="11.87606"><ele>615.0</ele><time>2026-04-03T09:23:43.106Z</time></trkpt><trkpt lat="42.8778833" lon="11.8759783"><ele>613.0</ele><time>2026-04-03T09:23:44.106Z</time></trkpt><trkpt lat="42.877735" lon="11.8759033"><ele>611.0</ele><time>2026-04-03T09:23:45.106Z</time></trkpt><trkpt lat="42.8775833" lon="11.875855"><ele>609.0</ele><time>2026-04-03T09:23:46.107Z</time></trkpt><trkpt lat="42.8774217" lon="11.8758067"><ele>607.2</ele><time>2026-04-03T09:23:47.106Z</time></trkpt><trkpt lat="42.8772983" lon="11.8757733"><ele>605.4</ele><time>2026-04-03T09:23:48.107Z</time></trkpt><trkpt lat="42.8772083" lon="11.875735"><ele>603.6</ele><time>2026-04-03T09:23:49.106Z</time></trkpt><trkpt lat="42.8771167" lon="11.8757233"><ele>601.8</ele><time>2026-04-03T09:23:50.106Z</time></trkpt><trkpt lat="42.87705" lon="11.8757217"><ele>600.0</ele><time>2026-04-03T09:23:51.106Z</time></trkpt><trkpt lat="42.8769733" lon="11.8757133"><ele>600.0</ele><time>2026-04-03T09:23:52.107Z</time></trkpt><trkpt lat="42.876875" lon="11.875685"><ele>600.0</ele><time>2026-04-03T09:23:53.106Z</time></trkpt><trkpt lat="42.8767533" lon="11.8756433"><ele>600.0</ele><time>2026-04-03T09:23:54.107Z</time></trkpt><trkpt lat="42.87661" lon="11.875605"><ele>600.0</ele><time>2026-04-03T09:23:55.106Z</time></trkpt><trkpt lat="42.8764617" lon="11.8755617"><ele>598.3333333333334</ele><time>2026-04-03T09:23:56.106Z</time></trkpt><trkpt lat="42.87631" lon="11.8755083"><ele>596.6666666666667</ele><time>2026-04-03T09:23:57.107Z</time></trkpt><trkpt lat="42.8761617" lon="11.875465"><ele>595.0</ele><time>2026-04-03T09:23:58.107Z</time></trkpt><trkpt lat="42.8760083" lon="11.8754167"><ele>593.0</ele><time>2026-04-03T09:23:59.106Z</time></trkpt><trkpt lat="42.8758583" lon="11.875375"><ele>591.0</ele><time>2026-04-03T09:24:00.107Z</time></trkpt><trkpt lat="42.8757083" lon="11.875355"><ele>589.0</ele><time>2026-04-03T09:24:01.106Z</time></trkpt><trkpt lat="42.8755433" lon="11.8753533"><ele>589.0</ele><time>2026-04-03T09:24:02.106Z</time></trkpt><trkpt lat="42.8753867" lon="11.8753617"><ele>589.0</ele><time>2026-04-03T09:24:03.106Z</time></trkpt><trkpt lat="42.87523" lon="11.87538"><ele>589.0</ele><time>2026-04-03T09:24:04.106Z</time></trkpt><trkpt lat="42.8750817" lon="11.875415"><ele>588.0</ele><time>2026-04-03T09:24:05.106Z</time></trkpt><trkpt lat="42.8749433" lon="11.8754883"><ele>587.0</ele><time>2026-04-03T09:24:06.106Z</time></trkpt><trkpt lat="42.8748233" lon="11.875565"><ele>586.0</ele><time>2026-04-03T09:24:07.107Z</time></trkpt><trkpt lat="42.8747067" lon="11.87566"><ele>585.0</ele><time>2026-04-03T09:24:08.106Z</time></trkpt><trkpt lat="42.87462" lon="11.875775"><ele>585.0</ele><time>2026-04-03T09:24:09.107Z</time></trkpt><trkpt lat="42.8745133" lon="11.8758733"><ele>585.0</ele><time>2026-04-03T09:24:10.106Z</time></trkpt><trkpt lat="42.8744083" lon="11.875935"><ele>585.0</ele><time>2026-04-03T09:24:11.106Z</time></trkpt><trkpt lat="42.8742967" lon="11.8759417"><ele>585.0</ele><time>2026-04-03T09:24:12.106Z</time></trkpt><trkpt lat="42.87416" lon="11.8759167"><ele>583.5</ele><time>2026-04-03T09:24:13.106Z</time></trkpt><trkpt lat="42.874025" lon="11.8758667"><ele>582.0</ele><time>2026-04-03T09:24:14.106Z</time></trkpt><trkpt lat="42.8738917" lon="11.8758233"><ele>580.5</ele><time>2026-04-03T09:24:15.106Z</time></trkpt><trkpt lat="42.87378" lon="11.8757783"><ele>579.0</ele><time>2026-04-03T09:24:16.107Z</time></trkpt><trkpt lat="42.8737017" lon="11.8757533"><ele>579.0</ele><time>2026-04-03T09:24:17.106Z</time></trkpt><trkpt lat="42.8736167" lon="11.875735"><ele>579.0</ele><time>2026-04-03T09:24:19.106Z</time></trkpt><trkpt lat="42.8736283" lon="11.8756233"><ele>579.0</ele><time>2026-04-03T09:24:25.106Z</time></trkpt><trkpt lat="42.8736667" lon="11.8755367"><ele>579.0</ele><time>2026-04-03T09:24:26.106Z</time></trkpt><trkpt lat="42.8737183" lon="11.8754367"><ele>579.0</ele><time>2026-04-03T09:24:27.107Z</time></trkpt><trkpt lat="42.8737767" lon="11.875315"><ele>579.0</ele><time>2026-04-03T09:24:28.106Z</time></trkpt><trkpt lat="42.8738383" lon="11.8751767"><ele>575.75</ele><time>2026-04-03T09:24:29.106Z</time></trkpt><trkpt lat="42.873895" lon="11.87502"><ele>572.5</ele><time>2026-04-03T09:24:30.106Z</time></trkpt><trkpt lat="42.8739633" lon="11.8748483"><ele>569.25</ele><time>2026-04-03T09:24:31.106Z</time></trkpt><trkpt lat="42.8740167" lon="11.8746633"><ele>566.0</ele><time>2026-04-03T09:24:32.107Z</time></trkpt><trkpt lat="42.8740717" lon="11.8744533"><ele>563.0</ele><time>2026-04-03T09:24:33.106Z</time></trkpt><trkpt lat="42.87414" lon="11.8742417"><ele>560.0</ele><time>2026-04-03T09:24:34.107Z</time></trkpt><trkpt lat="42.8742083" lon="11.87402"><ele>557.0</ele><time>2026-04-03T09:24:35.107Z</time></trkpt><trkpt lat="42.8742567" lon="11.87378"><ele>557.0</ele><time>2026-04-03T09:24:36.106Z</time></trkpt><trkpt lat="42.8742617" lon="11.8735217"><ele>557.0</ele><time>2026-04-03T09:24:37.106Z</time></trkpt><trkpt lat="42.8742333" lon="11.8732633"><ele>557.0</ele><time>2026-04-03T09:24:38.106Z</time></trkpt><trkpt lat="42.8741833" lon="11.8730167"><ele>558.3333333333333</ele><time>2026-04-03T09:24:39.106Z</time></trkpt><trkpt lat="42.8741167" lon="11.8727667"><ele>559.6666666666666</ele><time>2026-04-03T09:24:40.107Z</time></trkpt><trkpt lat="42.8740567" lon="11.8725417"><ele>561.0</ele><time>2026-04-03T09:24:41.107Z</time></trkpt><trkpt lat="42.8739967" lon="11.8723267"><ele>563.3333333333334</ele><time>2026-04-03T09:24:42.106Z</time></trkpt><trkpt lat="42.8739483" lon="11.87211"><ele>565.6666666666667</ele><time>2026-04-03T09:24:43.106Z</time></trkpt><trkpt lat="42.8739183" lon="11.8718717"><ele>568.0</ele><time>2026-04-03T09:24:44.106Z</time></trkpt><trkpt lat="42.8738833" lon="11.8716317"><ele>569.3333333333334</ele><time>2026-04-03T09:24:45.106Z</time></trkpt><trkpt lat="42.8738617" lon="11.8713833"><ele>570.6666666666666</ele><time>2026-04-03T09:24:46.106Z</time></trkpt><trkpt lat="42.8738383" lon="11.8711367"><ele>572.0</ele><time>2026-04-03T09:24:47.106Z</time></trkpt><trkpt lat="42.8738283" lon="11.8708767"><ele>573.6666666666666</ele><time>2026-04-03T09:24:48.106Z</time></trkpt><trkpt lat="42.873815" lon="11.8706067"><ele>575.3333333333334</ele><time>2026-04-03T09:24:49.106Z</time></trkpt><trkpt lat="42.8737967" lon="11.8703333"><ele>577.0</ele><time>2026-04-03T09:24:50.106Z</time></trkpt><trkpt lat="42.8737567" lon="11.8700533"><ele>576.0</ele><time>2026-04-03T09:24:51.106Z</time></trkpt><trkpt lat="42.873705" lon="11.8697733"><ele>575.0</ele><time>2026-04-03T09:24:52.106Z</time></trkpt><trkpt lat="42.8736217" lon="11.869505"><ele>574.0</ele><time>2026-04-03T09:24:53.106Z</time></trkpt><trkpt lat="42.8735133" lon="11.8692483"><ele>571.0</ele><time>2026-04-03T09:24:54.106Z</time></trkpt><trkpt lat="42.873405" lon="11.869005"><ele>568.0</ele><time>2026-04-03T09:24:55.107Z</time></trkpt><trkpt lat="42.873295" lon="11.8687817"><ele>565.0</ele><time>2026-04-03T09:24:56.107Z</time></trkpt><trkpt lat="42.8732017" lon="11.868575"><ele>566.3333333333334</ele><time>2026-04-03T09:24:57.106Z</time></trkpt><trkpt lat="42.8731117" lon="11.8683633"><ele>567.6666666666666</ele><time>2026-04-03T09:24:58.106Z</time></trkpt><trkpt lat="42.8730467" lon="11.8681367"><ele>569.0</ele><time>2026-04-03T09:24:59.106Z</time></trkpt><trkpt lat="42.873005" lon="11.86791"><ele>569.0</ele><time>2026-04-03T09:25:00.107Z</time></trkpt><trkpt lat="42.872985" lon="11.8676817"><ele>569.0</ele><time>2026-04-03T09:25:01.107Z</time></trkpt><trkpt lat="42.8729717" lon="11.8674433"><ele>569.0</ele><time>2026-04-03T09:25:02.106Z</time></trkpt><trkpt lat="42.87295" lon="11.867215"><ele>568.3333333333333</ele><time>2026-04-03T09:25:03.107Z</time></trkpt><trkpt lat="42.8729233" lon="11.867005"><ele>567.6666666666666</ele><time>2026-04-03T09:25:04.107Z</time></trkpt><trkpt lat="42.8728817" lon="11.8668033"><ele>567.0</ele><time>2026-04-03T09:25:05.106Z</time></trkpt><trkpt lat="42.8728033" lon="11.8666133"><ele>566.0</ele><time>2026-04-03T09:25:06.106Z</time></trkpt><trkpt lat="42.8726967" lon="11.8664433"><ele>565.0</ele><time>2026-04-03T09:25:07.107Z</time></trkpt><trkpt lat="42.87257" lon="11.8662783"><ele>564.0</ele><time>2026-04-03T09:25:08.107Z</time></trkpt><trkpt lat="42.8724333" lon="11.8661133"><ele>565.3333333333334</ele><time>2026-04-03T09:25:09.106Z</time></trkpt><trkpt lat="42.8722917" lon="11.8659417"><ele>566.6666666666667</ele><time>2026-04-03T09:25:10.106Z</time></trkpt><trkpt lat="42.8721633" lon="11.8657567"><ele>568.0</ele><time>2026-04-03T09:25:11.106Z</time></trkpt><trkpt lat="42.8720433" lon="11.8655633"><ele>568.0</ele><time>2026-04-03T09:25:12.106Z</time></trkpt><trkpt lat="42.87196" lon="11.8653283"><ele>568.0</ele><time>2026-04-03T09:25:13.106Z</time></trkpt><trkpt lat="42.87189" lon="11.86508"><ele>568.0</ele><time>2026-04-03T09:25:14.106Z</time></trkpt><trkpt lat="42.871815" lon="11.86483"><ele>568.6666666666667</ele><time>2026-04-03T09:25:15.106Z</time></trkpt><trkpt lat="42.8717317" lon="11.8645867"><ele>569.3333333333334</ele><time>2026-04-03T09:25:16.106Z</time></trkpt><trkpt lat="42.8716333" lon="11.8643467"><ele>570.0</ele><time>2026-04-03T09:25:17.107Z</time></trkpt><trkpt lat="42.8715217" lon="11.8641083"><ele>570.0</ele><time>2026-04-03T09:25:18.107Z</time></trkpt><trkpt lat="42.871405" lon="11.8638683"><ele>570.0</ele><time>2026-04-03T09:25:19.107Z</time></trkpt><trkpt lat="42.87128" lon="11.863625"><ele>570.0</ele><time>2026-04-03T09:25:20.107Z</time></trkpt><trkpt lat="42.8711517" lon="11.86338"><ele>570.0</ele><time>2026-04-03T09:25:21.106Z</time></trkpt><trkpt lat="42.8710183" lon="11.8631483"><ele>570.0</ele><time>2026-04-03T09:25:22.106Z</time></trkpt><trkpt lat="42.8708783" lon="11.862915"><ele>570.0</ele><time>2026-04-03T09:25:23.107Z</time></trkpt><trkpt lat="42.870715" lon="11.8627167"><ele>571.3333333333334</ele><time>2026-04-03T09:25:24.107Z</time></trkpt><trkpt lat="42.87052" lon="11.8625567"><ele>572.6666666666667</ele><time>2026-04-03T09:25:25.106Z</time></trkpt><trkpt lat="42.870335" lon="11.862435"><ele>574.0</ele><time>2026-04-03T09:25:26.106Z</time></trkpt><trkpt lat="42.8701317" lon="11.8623167"><ele>572.6666666666667</ele><time>2026-04-03T09:25:27.107Z</time></trkpt><trkpt lat="42.86996" lon="11.8621683"><ele>571.3333333333334</ele><time>2026-04-03T09:25:28.106Z</time></trkpt><trkpt lat="42.8698067" lon="11.861995"><ele>570.0</ele><time>2026-04-03T09:25:29.106Z</time></trkpt><trkpt lat="42.8696717" lon="11.86179"><ele>574.3333333333334</ele><time>2026-04-03T09:25:30.107Z</time></trkpt><trkpt lat="42.86955" lon="11.8615667"><ele>578.6666666666667</ele><time>2026-04-03T09:25:31.107Z</time></trkpt><trkpt lat="42.86946" lon="11.8613167"><ele>583.0</ele><time>2026-04-03T09:25:32.106Z</time></trkpt><trkpt lat="42.869365" lon="11.861085"><ele>584.3333333333334</ele><time>2026-04-03T09:25:33.106Z</time></trkpt><trkpt lat="42.869315" lon="11.86086"><ele>585.6666666666666</ele><time>2026-04-03T09:25:34.106Z</time></trkpt><trkpt lat="42.86929" lon="11.8606317"><ele>587.0</ele><time>2026-04-03T09:25:35.106Z</time></trkpt><trkpt lat="42.8693217" lon="11.8603933"><ele>587.0</ele><time>2026-04-03T09:25:36.107Z</time></trkpt><trkpt lat="42.8694033" lon="11.8601867"><ele>587.0</ele><time>2026-04-03T09:25:37.107Z</time></trkpt><trkpt lat="42.8695033" lon="11.8599767"><ele>587.0</ele><time>2026-04-03T09:25:38.106Z</time></trkpt><trkpt lat="42.8696" lon="11.8597633"><ele>585.6666666666666</ele><time>2026-04-03T09:25:39.106Z</time></trkpt><trkpt lat="42.869715" lon="11.8595317"><ele>584.3333333333334</ele><time>2026-04-03T09:25:40.106Z</time></trkpt><trkpt lat="42.8698283" lon="11.8593117"><ele>583.0</ele><time>2026-04-03T09:25:41.106Z</time></trkpt><trkpt lat="42.8699383" lon="11.8590767"><ele>581.3333333333334</ele><time>2026-04-03T09:25:42.106Z</time></trkpt><trkpt lat="42.870055" lon="11.858845"><ele>579.6666666666666</ele><time>2026-04-03T09:25:43.106Z</time></trkpt><trkpt lat="42.8701667" lon="11.8586217"><ele>578.0</ele><time>2026-04-03T09:25:44.106Z</time></trkpt><trkpt lat="42.870265" lon="11.8583783"><ele>574.6666666666666</ele><time>2026-04-03T09:25:45.106Z</time></trkpt><trkpt lat="42.870345" lon="11.8581333"><ele>571.3333333333334</ele><time>2026-04-03T09:25:46.107Z</time></trkpt><trkpt lat="42.8703867" lon="11.85787"><ele>568.0</ele><time>2026-04-03T09:25:47.106Z</time></trkpt><trkpt lat="42.8703967" lon="11.857595"><ele>568.0</ele><time>2026-04-03T09:25:48.106Z</time></trkpt><trkpt lat="42.8703917" lon="11.8573017"><ele>568.0</ele><time>2026-04-03T09:25:49.106Z</time></trkpt><trkpt lat="42.8703817" lon="11.8570033"><ele>568.0</ele><time>2026-04-03T09:25:50.107Z</time></trkpt><trkpt lat="42.8703633" lon="11.8567033"><ele>569.0</ele><time>2026-04-03T09:25:51.106Z</time></trkpt><trkpt lat="42.8703433" lon="11.8563867"><ele>570.0</ele><time>2026-04-03T09:25:52.106Z</time></trkpt><trkpt lat="42.8702933" lon="11.8560783"><ele>569.5</ele><time>2026-04-03T09:25:53.106Z</time></trkpt><trkpt lat="42.8702167" lon="11.855765"><ele>569.0</ele><time>2026-04-03T09:25:54.106Z</time></trkpt><trkpt lat="42.870145" lon="11.855465"><ele>569.0</ele><time>2026-04-03T09:25:55.106Z</time></trkpt><trkpt lat="42.8700733" lon="11.8551867"><ele>569.0</ele><time>2026-04-03T09:25:56.106Z</time></trkpt><trkpt lat="42.87001" lon="11.8549133"><ele>569.0</ele><time>2026-04-03T09:25:57.106Z</time></trkpt><trkpt lat="42.8699833" lon="11.8546283"><ele>569.6666666666666</ele><time>2026-04-03T09:25:58.107Z</time></trkpt><trkpt lat="42.8699767" lon="11.8543417"><ele>570.3333333333334</ele><time>2026-04-03T09:25:59.106Z</time></trkpt><trkpt lat="42.86998" lon="11.8540617"><ele>571.0</ele><time>2026-04-03T09:26:00.107Z</time></trkpt><trkpt lat="42.8699767" lon="11.85381"><ele>569.6666666666667</ele><time>2026-04-03T09:26:01.106Z</time></trkpt><trkpt lat="42.8699267" lon="11.8535783"><ele>568.3333333333334</ele><time>2026-04-03T09:26:02.106Z</time></trkpt><trkpt lat="42.86983" lon="11.8533683"><ele>567.0</ele><time>2026-04-03T09:26:03.106Z</time></trkpt><trkpt lat="42.86972" lon="11.85315"><ele>565.3333333333334</ele><time>2026-04-03T09:26:04.106Z</time></trkpt><trkpt lat="42.8695933" lon="11.852945"><ele>563.6666666666667</ele><time>2026-04-03T09:26:05.106Z</time></trkpt><trkpt lat="42.8694833" lon="11.8527333"><ele>562.0</ele><time>2026-04-03T09:26:06.107Z</time></trkpt><trkpt lat="42.869415" lon="11.852495"><ele>560.0</ele><time>2026-04-03T09:26:07.106Z</time></trkpt><trkpt lat="42.86939" lon="11.85226"><ele>558.0</ele><time>2026-04-03T09:26:08.106Z</time></trkpt><trkpt lat="42.8693983" lon="11.8520083"><ele>556.0</ele><time>2026-04-03T09:26:09.106Z</time></trkpt><trkpt lat="42.869445" lon="11.8517567"><ele>553.0</ele><time>2026-04-03T09:26:10.106Z</time></trkpt><trkpt lat="42.8695083" lon="11.8515033"><ele>550.0</ele><time>2026-04-03T09:26:11.106Z</time></trkpt><trkpt lat="42.86957" lon="11.8512317"><ele>547.0</ele><time>2026-04-03T09:26:12.106Z</time></trkpt><trkpt lat="42.869625" lon="11.85095"><ele>546.3333333333334</ele><time>2026-04-03T09:26:13.106Z</time></trkpt><trkpt lat="42.869665" lon="11.8506633"><ele>545.6666666666666</ele><time>2026-04-03T09:26:14.107Z</time></trkpt><trkpt lat="42.869685" lon="11.8503783"><ele>545.0</ele><time>2026-04-03T09:26:15.106Z</time></trkpt><trkpt lat="42.8697033" lon="11.85009"><ele>545.0</ele><time>2026-04-03T09:26:16.106Z</time></trkpt><trkpt lat="42.86972" lon="11.8498067"><ele>545.0</ele><time>2026-04-03T09:26:17.106Z</time></trkpt><trkpt lat="42.8697283" lon="11.8495183"><ele>545.0</ele><time>2026-04-03T09:26:18.106Z</time></trkpt><trkpt lat="42.8697" lon="11.8492583"><ele>545.0</ele><time>2026-04-03T09:26:19.106Z</time></trkpt><trkpt lat="42.869635" lon="11.8489967"><ele>545.0</ele><time>2026-04-03T09:26:20.106Z</time></trkpt><trkpt lat="42.86954" lon="11.8487417"><ele>545.0</ele><time>2026-04-03T09:26:21.105Z</time></trkpt><trkpt lat="42.8694283" lon="11.8484867"><ele>543.0</ele><time>2026-04-03T09:26:22.105Z</time></trkpt><trkpt lat="42.8692983" lon="11.848245"><ele>541.0</ele><time>2026-04-03T09:26:23.105Z</time></trkpt><trkpt lat="42.86916" lon="11.8479917"><ele>540.0</ele><time>2026-04-03T09:26:24.105Z</time></trkpt><trkpt lat="42.869025" lon="11.8477317"><ele>539.0</ele><time>2026-04-03T09:26:25.105Z</time></trkpt><trkpt lat="42.8688917" lon="11.8474667"><ele>539.0</ele><time>2026-04-03T09:26:26.105Z</time></trkpt><trkpt lat="42.8687667" lon="11.8472017"><ele>539.0</ele><time>2026-04-03T09:26:27.105Z</time></trkpt><trkpt lat="42.868665" lon="11.8469317"><ele>537.0</ele><time>2026-04-03T09:26:28.105Z</time></trkpt><trkpt lat="42.86859" lon="11.8466567"><ele>535.0</ele><time>2026-04-03T09:26:29.105Z</time></trkpt><trkpt lat="42.8685333" lon="11.846365"><ele>533.0</ele><time>2026-04-03T09:26:30.105Z</time></trkpt><trkpt lat="42.8684883" lon="11.8460517"><ele>526.5</ele><time>2026-04-03T09:26:31.105Z</time></trkpt><trkpt lat="42.86843" lon="11.84574"><ele>520.0</ele><time>2026-04-03T09:26:32.106Z</time></trkpt><trkpt lat="42.868365" lon="11.845425"><ele>519.0</ele><time>2026-04-03T09:26:33.106Z</time></trkpt><trkpt lat="42.8682767" lon="11.8451267"><ele>518.0</ele><time>2026-04-03T09:26:34.105Z</time></trkpt><trkpt lat="42.8681667" lon="11.8448467"><ele>518.0</ele><time>2026-04-03T09:26:35.105Z</time></trkpt><trkpt lat="42.86803" lon="11.8445867"><ele>518.0</ele><time>2026-04-03T09:26:36.105Z</time></trkpt><trkpt lat="42.86789" lon="11.8443533"><ele>519.0</ele><time>2026-04-03T09:26:37.106Z</time></trkpt><trkpt lat="42.8677267" lon="11.8441667"><ele>520.0</ele><time>2026-04-03T09:26:38.105Z</time></trkpt><trkpt lat="42.8675483" lon="11.8440367"><ele>521.0</ele><time>2026-04-03T09:26:39.105Z</time></trkpt><trkpt lat="42.8673583" lon="11.8439383"><ele>521.0</ele><time>2026-04-03T09:26:40.105Z</time></trkpt><trkpt lat="42.86717" lon="11.8438783"><ele>521.0</ele><time>2026-04-03T09:26:41.105Z</time></trkpt><trkpt lat="42.8669833" lon="11.84384"><ele>521.0</ele><time>2026-04-03T09:26:42.105Z</time></trkpt><trkpt lat="42.8668133" lon="11.843775"><ele>521.0</ele><time>2026-04-03T09:26:43.105Z</time></trkpt><trkpt lat="42.866695" lon="11.8436667"><ele>521.0</ele><time>2026-04-03T09:26:44.106Z</time></trkpt><trkpt lat="42.8665867" lon="11.8435217"><ele>521.0</ele><time>2026-04-03T09:26:45.106Z</time></trkpt><trkpt lat="42.86651" lon="11.84332"><ele>518.6666666666666</ele><time>2026-04-03T09:26:46.105Z</time></trkpt><trkpt lat="42.86648" lon="11.8430867"><ele>516.3333333333334</ele><time>2026-04-03T09:26:47.106Z</time></trkpt><trkpt lat="42.8664783" lon="11.84282"><ele>514.0</ele><time>2026-04-03T09:26:48.105Z</time></trkpt><trkpt lat="42.8664833" lon="11.8425433"><ele>510.6666666666667</ele><time>2026-04-03T09:26:49.106Z</time></trkpt><trkpt lat="42.866485" lon="11.842265"><ele>507.33333333333337</ele><time>2026-04-03T09:26:50.106Z</time></trkpt><trkpt lat="42.8664817" lon="11.8419717"><ele>504.0</ele><time>2026-04-03T09:26:51.105Z</time></trkpt><trkpt lat="42.8664733" lon="11.8416733"><ele>503.0</ele><time>2026-04-03T09:26:52.105Z</time></trkpt><trkpt lat="42.8664383" lon="11.8413667"><ele>502.0</ele><time>2026-04-03T09:26:53.105Z</time></trkpt><trkpt lat="42.8663817" lon="11.8410717"><ele>503.0</ele><time>2026-04-03T09:26:54.106Z</time></trkpt><trkpt lat="42.8663217" lon="11.8407717"><ele>504.0</ele><time>2026-04-03T09:26:55.105Z</time></trkpt><trkpt lat="42.866255" lon="11.8404717"><ele>504.0</ele><time>2026-04-03T09:26:56.105Z</time></trkpt><trkpt lat="42.8661867" lon="11.8401833"><ele>504.0</ele><time>2026-04-03T09:26:57.105Z</time></trkpt><trkpt lat="42.866125" lon="11.839905"><ele>504.0</ele><time>2026-04-03T09:26:58.106Z</time></trkpt><trkpt lat="42.866065" lon="11.8396183"><ele>505.33333333333337</ele><time>2026-04-03T09:26:59.105Z</time></trkpt><trkpt lat="42.8659917" lon="11.839325"><ele>506.6666666666667</ele><time>2026-04-03T09:27:00.105Z</time></trkpt><trkpt lat="42.8659233" lon="11.8390367"><ele>508.0</ele><time>2026-04-03T09:27:01.105Z</time></trkpt><trkpt lat="42.8658567" lon="11.8387417"><ele>514.0</ele><time>2026-04-03T09:27:02.105Z</time></trkpt><trkpt lat="42.8657833" lon="11.8384467"><ele>520.0</ele><time>2026-04-03T09:27:03.106Z</time></trkpt><trkpt lat="42.8657133" lon="11.83816"><ele>520.0</ele><time>2026-04-03T09:27:04.106Z</time></trkpt><trkpt lat="42.86565" lon="11.8378733"><ele>520.0</ele><time>2026-04-03T09:27:05.105Z</time></trkpt><trkpt lat="42.8655983" lon="11.8375817"><ele>520.0</ele><time>2026-04-03T09:27:06.105Z</time></trkpt><trkpt lat="42.8655483" lon="11.8372933"><ele>521.0</ele><time>2026-04-03T09:27:07.105Z</time></trkpt><trkpt lat="42.8655083" lon="11.8370033"><ele>522.0</ele><time>2026-04-03T09:27:08.106Z</time></trkpt><trkpt lat="42.865475" lon="11.8367017"><ele>523.0</ele><time>2026-04-03T09:27:09.105Z</time></trkpt><trkpt lat="42.8654483" lon="11.836395"><ele>523.0</ele><time>2026-04-03T09:27:10.105Z</time></trkpt><trkpt lat="42.8654267" lon="11.8360867"><ele>523.0</ele><time>2026-04-03T09:27:11.106Z</time></trkpt><trkpt lat="42.8653983" lon="11.8357783"><ele>522.3333333333334</ele><time>2026-04-03T09:27:12.106Z</time></trkpt><trkpt lat="42.8653633" lon="11.8354983"><ele>521.6666666666666</ele><time>2026-04-03T09:27:13.105Z</time></trkpt><trkpt lat="42.86534" lon="11.8352783"><ele>521.0</ele><time>2026-04-03T09:27:14.105Z</time></trkpt><trkpt lat="42.865335" lon="11.8351167"><ele>520.4</ele><time>2026-04-03T09:27:15.105Z</time></trkpt><trkpt lat="42.8653483" lon="11.8349667"><ele>519.8</ele><time>2026-04-03T09:27:16.106Z</time></trkpt><trkpt lat="42.8653883" lon="11.8348333"><ele>519.1999999999999</ele><time>2026-04-03T09:27:17.106Z</time></trkpt><trkpt lat="42.8654533" lon="11.8347233"><ele>518.6</ele><time>2026-04-03T09:27:18.105Z</time></trkpt><trkpt lat="42.865515" lon="11.8345983"><ele>518.0</ele><time>2026-04-03T09:27:19.106Z</time></trkpt><trkpt lat="42.8655617" lon="11.8344617"><ele>517.25</ele><time>2026-04-03T09:27:20.105Z</time></trkpt><trkpt lat="42.865575" lon="11.8342967"><ele>516.5</ele><time>2026-04-03T09:27:21.106Z</time></trkpt><trkpt lat="42.8655817" lon="11.8341117"><ele>515.75</ele><time>2026-04-03T09:27:22.105Z</time></trkpt><trkpt lat="42.8655833" lon="11.833915"><ele>515.0</ele><time>2026-04-03T09:27:23.105Z</time></trkpt><trkpt lat="42.865595" lon="11.8337083"><ele>515.0</ele><time>2026-04-03T09:27:24.106Z</time></trkpt><trkpt lat="42.865605" lon="11.8334983"><ele>515.0</ele><time>2026-04-03T09:27:25.105Z</time></trkpt><trkpt lat="42.86561" lon="11.8332917"><ele>515.0</ele><time>2026-04-03T09:27:26.105Z</time></trkpt><trkpt lat="42.86562" lon="11.833085"><ele>515.0</ele><time>2026-04-03T09:27:27.105Z</time></trkpt><trkpt lat="42.86563" lon="11.8328683"><ele>515.0</ele><time>2026-04-03T09:27:28.106Z</time></trkpt><trkpt lat="42.8656017" lon="11.8326617"><ele>515.0</ele><time>2026-04-03T09:27:29.105Z</time></trkpt><trkpt lat="42.86555" lon="11.8324617"><ele>515.6666666666666</ele><time>2026-04-03T09:27:30.105Z</time></trkpt><trkpt lat="42.8654783" lon="11.832255"><ele>516.3333333333334</ele><time>2026-04-03T09:27:31.105Z</time></trkpt><trkpt lat="42.865395" lon="11.8320333"><ele>517.0</ele><time>2026-04-03T09:27:32.105Z</time></trkpt><trkpt lat="42.8652917" lon="11.8318117"><ele>515.3333333333334</ele><time>2026-04-03T09:27:33.105Z</time></trkpt><trkpt lat="42.8651667" lon="11.8316"><ele>513.6666666666666</ele><time>2026-04-03T09:27:34.105Z</time></trkpt><trkpt lat="42.8650317" lon="11.8313883"><ele>512.0</ele><time>2026-04-03T09:27:35.106Z</time></trkpt><trkpt lat="42.8648833" lon="11.8312033"><ele>512.0</ele><time>2026-04-03T09:27:36.105Z</time></trkpt><trkpt lat="42.86473" lon="11.8310633"><ele>512.0</ele><time>2026-04-03T09:27:37.105Z</time></trkpt><trkpt lat="42.864585" lon="11.830955"><ele>512.0</ele><time>2026-04-03T09:27:38.105Z</time></trkpt><trkpt lat="42.86445" lon="11.8308633"><ele>512.0</ele><time>2026-04-03T09:27:39.106Z</time></trkpt><trkpt lat="42.8643367" lon="11.830755"><ele>512.0</ele><time>2026-04-03T09:27:40.105Z</time></trkpt><trkpt lat="42.8642633" lon="11.83062"><ele>512.0</ele><time>2026-04-03T09:27:41.106Z</time></trkpt><trkpt lat="42.864215" lon="11.8304717"><ele>512.0</ele><time>2026-04-03T09:27:42.106Z</time></trkpt><trkpt lat="42.864165" lon="11.8302933"><ele>515.6666666666666</ele><time>2026-04-03T09:27:43.105Z</time></trkpt><trkpt lat="42.8641133" lon="11.83011"><ele>519.3333333333334</ele><time>2026-04-03T09:27:44.105Z</time></trkpt><trkpt lat="42.8640517" lon="11.8299167"><ele>523.0</ele><time>2026-04-03T09:27:45.106Z</time></trkpt><trkpt lat="42.8639967" lon="11.8297117"><ele>523.0</ele><time>2026-04-03T09:27:46.105Z</time></trkpt><trkpt lat="42.863935" lon="11.8294867"><ele>523.0</ele><time>2026-04-03T09:27:47.105Z</time></trkpt><trkpt lat="42.863865" lon="11.8292683"><ele>523.0</ele><time>2026-04-03T09:27:48.105Z</time></trkpt><trkpt lat="42.8638117" lon="11.8290433"><ele>523.6666666666667</ele><time>2026-04-03T09:27:49.105Z</time></trkpt><trkpt lat="42.8637617" lon="11.8288033"><ele>524.3333333333334</ele><time>2026-04-03T09:27:50.105Z</time></trkpt><trkpt lat="42.8637217" lon="11.8285617"><ele>525.0</ele><time>2026-04-03T09:27:51.106Z</time></trkpt><trkpt lat="42.8636717" lon="11.82832"><ele>527.6666666666666</ele><time>2026-04-03T09:27:52.105Z</time></trkpt><trkpt lat="42.8636317" lon="11.828085"><ele>530.3333333333333</ele><time>2026-04-03T09:27:53.105Z</time></trkpt><trkpt lat="42.8635883" lon="11.8278433"><ele>533.0</ele><time>2026-04-03T09:27:54.105Z</time></trkpt><trkpt lat="42.8635417" lon="11.8276333"><ele>535.3333333333333</ele><time>2026-04-03T09:27:55.105Z</time></trkpt><trkpt lat="42.863505" lon="11.8274183"><ele>537.6666666666666</ele><time>2026-04-03T09:27:56.106Z</time></trkpt><trkpt lat="42.8634817" lon="11.8272033"><ele>540.0</ele><time>2026-04-03T09:27:57.105Z</time></trkpt><trkpt lat="42.8634683" lon="11.8269783"><ele>542.6666666666666</ele><time>2026-04-03T09:27:58.105Z</time></trkpt><trkpt lat="42.8634833" lon="11.8267433"><ele>545.3333333333333</ele><time>2026-04-03T09:27:59.105Z</time></trkpt><trkpt lat="42.863495" lon="11.8265083"><ele>548.0</ele><time>2026-04-03T09:28:00.105Z</time></trkpt><trkpt lat="42.8635" lon="11.826295"><ele>548.0</ele><time>2026-04-03T09:28:01.105Z</time></trkpt><trkpt lat="42.863455" lon="11.8260883"><ele>548.0</ele><time>2026-04-03T09:28:02.105Z</time></trkpt><trkpt lat="42.8633733" lon="11.825905"><ele>548.0</ele><time>2026-04-03T09:28:03.105Z</time></trkpt><trkpt lat="42.8632583" lon="11.82573"><ele>544.0</ele><time>2026-04-03T09:28:04.106Z</time></trkpt><trkpt lat="42.863135" lon="11.8255733"><ele>540.0</ele><time>2026-04-03T09:28:05.105Z</time></trkpt><trkpt lat="42.862985" lon="11.82544"><ele>536.0</ele><time>2026-04-03T09:28:06.105Z</time></trkpt><trkpt lat="42.86283" lon="11.82529"><ele>535.6666666666666</ele><time>2026-04-03T09:28:07.105Z</time></trkpt><trkpt lat="42.862685" lon="11.82513"><ele>535.3333333333334</ele><time>2026-04-03T09:28:08.105Z</time></trkpt><trkpt lat="42.862535" lon="11.8249617"><ele>535.0</ele><time>2026-04-03T09:28:09.105Z</time></trkpt><trkpt lat="42.8624167" lon="11.8247933"><ele>535.0</ele><time>2026-04-03T09:28:10.106Z</time></trkpt><trkpt lat="42.862315" lon="11.8246233"><ele>535.0</ele><time>2026-04-03T09:28:11.106Z</time></trkpt><trkpt lat="42.8622267" lon="11.8244667"><ele>535.0</ele><time>2026-04-03T09:28:12.106Z</time></trkpt><trkpt lat="42.862175" lon="11.8243"><ele>535.0</ele><time>2026-04-03T09:28:13.106Z</time></trkpt><trkpt lat="42.86214" lon="11.824135"><ele>537.0</ele><time>2026-04-03T09:28:14.106Z</time></trkpt><trkpt lat="42.862135" lon="11.8239917"><ele>539.0</ele><time>2026-04-03T09:28:15.105Z</time></trkpt><trkpt lat="42.8621433" lon="11.8238417"><ele>541.0</ele><time>2026-04-03T09:28:16.105Z</time></trkpt><trkpt lat="42.8621533" lon="11.8237083"><ele>543.0</ele><time>2026-04-03T09:28:17.105Z</time></trkpt><trkpt lat="42.8621667" lon="11.82357"><ele>545.0</ele><time>2026-04-03T09:28:18.105Z</time></trkpt><trkpt lat="42.8621833" lon="11.8234483"><ele>546.8</ele><time>2026-04-03T09:28:19.105Z</time></trkpt><trkpt lat="42.8621983" lon="11.82333"><ele>548.6</ele><time>2026-04-03T09:28:20.105Z</time></trkpt><trkpt lat="42.86221" lon="11.8231917"><ele>550.4</ele><time>2026-04-03T09:28:21.105Z</time></trkpt><trkpt lat="42.8622083" lon="11.8230567"><ele>552.2</ele><time>2026-04-03T09:28:22.105Z</time></trkpt><trkpt lat="42.8622117" lon="11.822935"><ele>554.0</ele><time>2026-04-03T09:28:23.105Z</time></trkpt><trkpt lat="42.8622133" lon="11.822815"><ele>554.0</ele><time>2026-04-03T09:28:24.105Z</time></trkpt><trkpt lat="42.8622133" lon="11.82272"><ele>554.0</ele><time>2026-04-03T09:28:25.105Z</time></trkpt><trkpt lat="42.862225" lon="11.8226117"><ele>554.0</ele><time>2026-04-03T09:28:27.105Z</time></trkpt><trkpt lat="42.862245" lon="11.82252"><ele>554.0</ele><time>2026-04-03T09:28:29.105Z</time></trkpt><trkpt lat="42.8622467" lon="11.8223983"><ele>554.0</ele><time>2026-04-03T09:28:31.105Z</time></trkpt><trkpt lat="42.8622383" lon="11.822295"><ele>554.0</ele><time>2026-04-03T09:28:33.105Z</time></trkpt><trkpt lat="42.86218" lon="11.8222467"><ele>554.6666666666666</ele><time>2026-04-03T09:28:36.105Z</time></trkpt><trkpt lat="42.8620933" lon="11.8222633"><ele>555.3333333333333</ele><time>2026-04-03T09:28:38.105Z</time></trkpt><trkpt lat="42.86197" lon="11.822265"><ele>556.0</ele><time>2026-04-03T09:28:40.105Z</time></trkpt><trkpt lat="42.8619017" lon="11.8222417"><ele>556.6666666666666</ele><time>2026-04-03T09:28:41.106Z</time></trkpt><trkpt lat="42.8618317" lon="11.8221917"><ele>557.3333333333334</ele><time>2026-04-03T09:28:42.105Z</time></trkpt><trkpt lat="42.8617617" lon="11.822135"><ele>558.0</ele><time>2026-04-03T09:28:43.105Z</time></trkpt><trkpt lat="42.8616833" lon="11.822065"><ele>556.0</ele><time>2026-04-03T09:28:44.105Z</time></trkpt><trkpt lat="42.861605" lon="11.821995"><ele>554.0</ele><time>2026-04-03T09:28:45.105Z</time></trkpt><trkpt lat="42.8615367" lon="11.8219417"><ele>552.0</ele><time>2026-04-03T09:28:46.106Z</time></trkpt><trkpt lat="42.861465" lon="11.8218917"><ele>550.0</ele><time>2026-04-03T09:28:47.105Z</time></trkpt><trkpt lat="42.8613917" lon="11.82186"><ele>548.0</ele><time>2026-04-03T09:28:48.105Z</time></trkpt><trkpt lat="42.8613067" lon="11.821845"><ele>546.0</ele><time>2026-04-03T09:28:49.105Z</time></trkpt><trkpt lat="42.8612233" lon="11.8218417"><ele>546.0</ele><time>2026-04-03T09:28:50.105Z</time></trkpt><trkpt lat="42.86114" lon="11.8218483"><ele>546.0</ele><time>2026-04-03T09:28:51.105Z</time></trkpt><trkpt lat="42.8610633" lon="11.8218617"><ele>546.0</ele><time>2026-04-03T09:28:52.105Z</time></trkpt><trkpt lat="42.8609933" lon="11.8218483"><ele>546.0</ele><time>2026-04-03T09:28:53.105Z</time></trkpt><trkpt lat="42.8609217" lon="11.8218017"><ele>546.0</ele><time>2026-04-03T09:28:54.106Z</time></trkpt><trkpt lat="42.8608617" lon="11.8217467"><ele>546.0</ele><time>2026-04-03T09:28:55.105Z</time></trkpt><trkpt lat="42.8608067" lon="11.8216733"><ele>545.5</ele><time>2026-04-03T09:28:56.105Z</time></trkpt><trkpt lat="42.8607533" lon="11.8215967"><ele>545.0</ele><time>2026-04-03T09:28:57.105Z</time></trkpt><trkpt lat="42.8607017" lon="11.8215183"><ele>544.5</ele><time>2026-04-03T09:28:58.106Z</time></trkpt><trkpt lat="42.8606517" lon="11.8214183"><ele>544.0</ele><time>2026-04-03T09:28:59.105Z</time></trkpt><trkpt lat="42.8606067" lon="11.821315"><ele>543.5</ele><time>2026-04-03T09:29:00.106Z</time></trkpt><trkpt lat="42.8605583" lon="11.8212267"><ele>543.0</ele><time>2026-04-03T09:29:01.105Z</time></trkpt><trkpt lat="42.8605167" lon="11.8211283"><ele>543.0</ele><time>2026-04-03T09:29:02.105Z</time></trkpt><trkpt lat="42.86049" lon="11.8210167"><ele>543.0</ele><time>2026-04-03T09:29:03.106Z</time></trkpt><trkpt lat="42.86048" lon="11.8209033"><ele>543.0</ele><time>2026-04-03T09:29:04.105Z</time></trkpt><trkpt lat="42.8604767" lon="11.820795"><ele>543.0</ele><time>2026-04-03T09:29:05.105Z</time></trkpt><trkpt lat="42.8604883" lon="11.8206667"><ele>543.0</ele><time>2026-04-03T09:29:06.105Z</time></trkpt><trkpt lat="42.8604817" lon="11.8205267"><ele>543.0</ele><time>2026-04-03T09:29:07.105Z</time></trkpt><trkpt lat="42.86048" lon="11.8203933"><ele>545.0</ele><time>2026-04-03T09:29:08.105Z</time></trkpt><trkpt lat="42.8604567" lon="11.8202783"><ele>547.0</ele><time>2026-04-03T09:29:09.105Z</time></trkpt><trkpt lat="42.8604333" lon="11.8201617"><ele>549.0</ele><time>2026-04-03T09:29:10.105Z</time></trkpt><trkpt lat="42.8604083" lon="11.82006"><ele>551.0</ele><time>2026-04-03T09:29:11.105Z</time></trkpt><trkpt lat="42.8603883" lon="11.8199667"><ele>553.0</ele><time>2026-04-03T09:29:12.105Z</time></trkpt><trkpt lat="42.8603617" lon="11.8198633"><ele>555.0</ele><time>2026-04-03T09:29:13.106Z</time></trkpt><trkpt lat="42.8603333" lon="11.819755"><ele>557.0</ele><time>2026-04-03T09:29:14.106Z</time></trkpt><trkpt lat="42.860305" lon="11.8196567"><ele>559.0</ele><time>2026-04-03T09:29:15.105Z</time></trkpt><trkpt lat="42.8602683" lon="11.8195667"><ele>561.0</ele><time>2026-04-03T09:29:16.105Z</time></trkpt><trkpt lat="42.8602167" lon="11.81949"><ele>563.0</ele><time>2026-04-03T09:29:17.105Z</time></trkpt><trkpt lat="42.8601667" lon="11.8194317"><ele>565.0</ele><time>2026-04-03T09:29:18.105Z</time></trkpt><trkpt lat="42.8601067" lon="11.8193733"><ele>567.0</ele><time>2026-04-03T09:29:19.105Z</time></trkpt><trkpt lat="42.8600267" lon="11.8193183"><ele>564.0</ele><time>2026-04-03T09:29:20.105Z</time></trkpt><trkpt lat="42.8599283" lon="11.8192767"><ele>561.0</ele><time>2026-04-03T09:29:21.105Z</time></trkpt><trkpt lat="42.8598167" lon="11.8192467"><ele>558.0</ele><time>2026-04-03T09:29:22.105Z</time></trkpt><trkpt lat="42.8597083" lon="11.819235"><ele>555.0</ele><time>2026-04-03T09:29:23.106Z</time></trkpt><trkpt lat="42.8595767" lon="11.8191983"><ele>555.0</ele><time>2026-04-03T09:29:24.105Z</time></trkpt><trkpt lat="42.8594433" lon="11.81916"><ele>555.0</ele><time>2026-04-03T09:29:25.105Z</time></trkpt><trkpt lat="42.8593033" lon="11.8191417"><ele>555.0</ele><time>2026-04-03T09:29:26.105Z</time></trkpt><trkpt lat="42.8591733" lon="11.8191233"><ele>555.0</ele><time>2026-04-03T09:29:27.106Z</time></trkpt><trkpt lat="42.8590583" lon="11.8190983"><ele>552.0</ele><time>2026-04-03T09:29:28.106Z</time></trkpt><trkpt lat="42.8589667" lon="11.8190533"><ele>549.0</ele><time>2026-04-03T09:29:29.105Z</time></trkpt><trkpt lat="42.8588867" lon="11.8189983"><ele>546.0</ele><time>2026-04-03T09:29:30.106Z</time></trkpt><trkpt lat="42.8588217" lon="11.81891"><ele>543.0</ele><time>2026-04-03T09:29:31.105Z</time></trkpt><trkpt lat="42.85875" lon="11.81881"><ele>540.0</ele><time>2026-04-03T09:29:32.105Z</time></trkpt><trkpt lat="42.8586783" lon="11.8186917"><ele>540.0</ele><time>2026-04-03T09:29:33.105Z</time></trkpt><trkpt lat="42.8586" lon="11.818575"><ele>540.0</ele><time>2026-04-03T09:29:34.105Z</time></trkpt><trkpt lat="42.8585117" lon="11.8184683"><ele>540.0</ele><time>2026-04-03T09:29:35.105Z</time></trkpt><trkpt lat="42.8584167" lon="11.81836"><ele>540.0</ele><time>2026-04-03T09:29:36.105Z</time></trkpt><trkpt lat="42.8583033" lon="11.81828"><ele>537.75</ele><time>2026-04-03T09:29:37.106Z</time></trkpt><trkpt lat="42.8581717" lon="11.818205"><ele>535.5</ele><time>2026-04-03T09:29:38.106Z</time></trkpt><trkpt lat="42.8580483" lon="11.818125"><ele>533.25</ele><time>2026-04-03T09:29:39.105Z</time></trkpt><trkpt lat="42.8579317" lon="11.818055"><ele>531.0</ele><time>2026-04-03T09:29:40.105Z</time></trkpt><trkpt lat="42.8578417" lon="11.817975"><ele>531.0</ele><time>2026-04-03T09:29:41.105Z</time></trkpt><trkpt lat="42.8577433" lon="11.8179"><ele>531.0</ele><time>2026-04-03T09:29:42.105Z</time></trkpt><trkpt lat="42.8576433" lon="11.817835"><ele>531.0</ele><time>2026-04-03T09:29:43.105Z</time></trkpt><trkpt lat="42.8575333" lon="11.8177617"><ele>531.0</ele><time>2026-04-03T09:29:44.105Z</time></trkpt><trkpt lat="42.857415" lon="11.817695"><ele>527.5</ele><time>2026-04-03T09:29:45.106Z</time></trkpt><trkpt lat="42.8572867" lon="11.8176567"><ele>524.0</ele><time>2026-04-03T09:29:46.105Z</time></trkpt><trkpt lat="42.85715" lon="11.81764"><ele>520.5</ele><time>2026-04-03T09:29:47.105Z</time></trkpt><trkpt lat="42.8570017" lon="11.8176433"><ele>517.0</ele><time>2026-04-03T09:29:48.105Z</time></trkpt><trkpt lat="42.8568533" lon="11.8176233"><ele>515.6666666666667</ele><time>2026-04-03T09:29:49.105Z</time></trkpt><trkpt lat="42.856695" lon="11.81762"><ele>514.3333333333334</ele><time>2026-04-03T09:29:50.105Z</time></trkpt><trkpt lat="42.8565333" lon="11.81762"><ele>513.0</ele><time>2026-04-03T09:29:51.105Z</time></trkpt><trkpt lat="42.8563933" lon="11.81761"><ele>513.0</ele><time>2026-04-03T09:29:52.105Z</time></trkpt><trkpt lat="42.85627" lon="11.8175917"><ele>513.0</ele><time>2026-04-03T09:29:53.106Z</time></trkpt><trkpt lat="42.856165" lon="11.8175667"><ele>513.0</ele><time>2026-04-03T09:29:54.105Z</time></trkpt><trkpt lat="42.8560867" lon="11.8175233"><ele>513.0</ele><time>2026-04-03T09:29:55.105Z</time></trkpt><trkpt lat="42.8560283" lon="11.8174483"><ele>513.0</ele><time>2026-04-03T09:29:56.105Z</time></trkpt><trkpt lat="42.8559767" lon="11.81736"><ele>515.1666666666666</ele><time>2026-04-03T09:29:57.105Z</time></trkpt><trkpt lat="42.8559267" lon="11.8172767"><ele>517.3333333333334</ele><time>2026-04-03T09:29:58.106Z</time></trkpt><trkpt lat="42.8558733" lon="11.81721"><ele>519.5</ele><time>2026-04-03T09:29:59.106Z</time></trkpt><trkpt lat="42.855825" lon="11.8171517"><ele>521.6666666666667</ele><time>2026-04-03T09:30:00.105Z</time></trkpt><trkpt lat="42.8557683" lon="11.8170933"><ele>523.8333333333334</ele><time>2026-04-03T09:30:01.105Z</time></trkpt><trkpt lat="42.8556967" lon="11.817025"><ele>526.0</ele><time>2026-04-03T09:30:02.105Z</time></trkpt><trkpt lat="42.8556017" lon="11.8169617"><ele>526.0</ele><time>2026-04-03T09:30:03.105Z</time></trkpt><trkpt lat="42.8554983" lon="11.8169"><ele>526.0</ele><time>2026-04-03T09:30:04.106Z</time></trkpt><trkpt lat="42.8553833" lon="11.81685"><ele>526.0</ele><time>2026-04-03T09:30:05.105Z</time></trkpt><trkpt lat="42.8552683" lon="11.8167817"><ele>526.0</ele><time>2026-04-03T09:30:06.105Z</time></trkpt><trkpt lat="42.8551517" lon="11.8166983"><ele>523.0</ele><time>2026-04-03T09:30:07.105Z</time></trkpt><trkpt lat="42.85506" lon="11.816595"><ele>520.0</ele><time>2026-04-03T09:30:08.105Z</time></trkpt><trkpt lat="42.8549833" lon="11.8164883"><ele>517.0</ele><time>2026-04-03T09:30:09.105Z</time></trkpt><trkpt lat="42.8549183" lon="11.81637"><ele>514.0</ele><time>2026-04-03T09:30:10.105Z</time></trkpt><trkpt lat="42.8548433" lon="11.81626"><ele>511.0</ele><time>2026-04-03T09:30:11.105Z</time></trkpt><trkpt lat="42.8547733" lon="11.8161633"><ele>511.0</ele><time>2026-04-03T09:30:12.105Z</time></trkpt><trkpt lat="42.8547017" lon="11.8160817"><ele>511.0</ele><time>2026-04-03T09:30:13.105Z</time></trkpt><trkpt lat="42.8546117" lon="11.81604"><ele>511.0</ele><time>2026-04-03T09:30:14.106Z</time></trkpt><trkpt lat="42.8545067" lon="11.8160367"><ele>511.0</ele><time>2026-04-03T09:30:15.105Z</time></trkpt><trkpt lat="42.8543967" lon="11.8160517"><ele>511.0</ele><time>2026-04-03T09:30:16.105Z</time></trkpt><trkpt lat="42.8542933" lon="11.8160783"><ele>508.0</ele><time>2026-04-03T09:30:17.105Z</time></trkpt><trkpt lat="42.8541917" lon="11.8161233"><ele>505.0</ele><time>2026-04-03T09:30:18.105Z</time></trkpt><trkpt lat="42.8541067" lon="11.8161333"><ele>502.0</ele><time>2026-04-03T09:30:19.106Z</time></trkpt><trkpt lat="42.8540217" lon="11.8160967"><ele>499.0</ele><time>2026-04-03T09:30:20.105Z</time></trkpt><trkpt lat="42.8539317" lon="11.816025"><ele>496.0</ele><time>2026-04-03T09:30:21.105Z</time></trkpt><trkpt lat="42.8538383" lon="11.815905"><ele>493.0</ele><time>2026-04-03T09:30:22.105Z</time></trkpt><trkpt lat="42.8537383" lon="11.8157383"><ele>490.0</ele><time>2026-04-03T09:30:23.105Z</time></trkpt><trkpt lat="42.85362" lon="11.8155383"><ele>487.0</ele><time>2026-04-03T09:30:24.105Z</time></trkpt><trkpt lat="42.8534867" lon="11.8153317"><ele>485.0</ele><time>2026-04-03T09:30:25.105Z</time></trkpt><trkpt lat="42.8533467" lon="11.8151117"><ele>483.0</ele><time>2026-04-03T09:30:26.105Z</time></trkpt><trkpt lat="42.8532167" lon="11.814895"><ele>481.0</ele><time>2026-04-03T09:30:27.105Z</time></trkpt><trkpt lat="42.8531" lon="11.8146967"><ele>481.0</ele><time>2026-04-03T09:30:28.106Z</time></trkpt><trkpt lat="42.852995" lon="11.8145183"><ele>481.0</ele><time>2026-04-03T09:30:29.106Z</time></trkpt><trkpt lat="42.85291" lon="11.8143467"><ele>481.0</ele><time>2026-04-03T09:30:30.105Z</time></trkpt><trkpt lat="42.8528283" lon="11.8142067"><ele>480.4</ele><time>2026-04-03T09:30:31.105Z</time></trkpt><trkpt lat="42.85274" lon="11.814085"><ele>479.8</ele><time>2026-04-03T09:30:32.105Z</time></trkpt><trkpt lat="42.852665" lon="11.8139883"><ele>479.19999999999993</ele><time>2026-04-03T09:30:33.105Z</time></trkpt><trkpt lat="42.85259" lon="11.8139333"><ele>478.59999999999997</ele><time>2026-04-03T09:30:34.106Z</time></trkpt><trkpt lat="42.85251" lon="11.8138967"><ele>478.0</ele><time>2026-04-03T09:30:35.106Z</time></trkpt><trkpt lat="42.8524117" lon="11.81388"><ele>482.75</ele><time>2026-04-03T09:30:36.106Z</time></trkpt><trkpt lat="42.8523067" lon="11.8138767"><ele>487.5</ele><time>2026-04-03T09:30:37.105Z</time></trkpt><trkpt lat="42.852195" lon="11.81387"><ele>492.25</ele><time>2026-04-03T09:30:38.106Z</time></trkpt><trkpt lat="42.852065" lon="11.8138683"><ele>497.0</ele><time>2026-04-03T09:30:39.105Z</time></trkpt><trkpt lat="42.85194" lon="11.8138767"><ele>497.0</ele><time>2026-04-03T09:30:40.106Z</time></trkpt><trkpt lat="42.8518383" lon="11.813875"><ele>497.0</ele><time>2026-04-03T09:30:41.105Z</time></trkpt><trkpt lat="42.8517333" lon="11.8138283"><ele>497.0</ele><time>2026-04-03T09:30:42.105Z</time></trkpt><trkpt lat="42.851625" lon="11.81375"><ele>497.0</ele><time>2026-04-03T09:30:43.105Z</time></trkpt><trkpt lat="42.8515217" lon="11.8136267"><ele>498.3333333333333</ele><time>2026-04-03T09:30:44.106Z</time></trkpt><trkpt lat="42.8514017" lon="11.8134867"><ele>499.66666666666663</ele><time>2026-04-03T09:30:45.106Z</time></trkpt><trkpt lat="42.8512667" lon="11.8133417"><ele>501.0</ele><time>2026-04-03T09:30:46.105Z</time></trkpt><trkpt lat="42.8511183" lon="11.8132083"><ele>501.0</ele><time>2026-04-03T09:30:47.106Z</time></trkpt><trkpt lat="42.8509733" lon="11.81309"><ele>501.0</ele><time>2026-04-03T09:30:48.106Z</time></trkpt><trkpt lat="42.850845" lon="11.8130017"><ele>501.0</ele><time>2026-04-03T09:30:49.105Z</time></trkpt><trkpt lat="42.8507333" lon="11.8129533"><ele>501.0</ele><time>2026-04-03T09:30:50.105Z</time></trkpt><trkpt lat="42.850625" lon="11.812945"><ele>502.0</ele><time>2026-04-03T09:30:51.105Z</time></trkpt><trkpt lat="42.8505083" lon="11.8129633"><ele>503.0</ele><time>2026-04-03T09:30:52.105Z</time></trkpt><trkpt lat="42.8503867" lon="11.8130117"><ele>504.0</ele><time>2026-04-03T09:30:53.105Z</time></trkpt><trkpt lat="42.8502683" lon="11.8130783"><ele>505.0</ele><time>2026-04-03T09:30:54.105Z</time></trkpt><trkpt lat="42.8501667" lon="11.813145"><ele>503.75</ele><time>2026-04-03T09:30:55.105Z</time></trkpt><trkpt lat="42.8500617" lon="11.8131967"><ele>502.5</ele><time>2026-04-03T09:30:56.105Z</time></trkpt><trkpt lat="42.84994" lon="11.81322"><ele>501.25</ele><time>2026-04-03T09:30:57.105Z</time></trkpt><trkpt lat="42.8498133" lon="11.8132033"><ele>500.0</ele><time>2026-04-03T09:30:58.105Z</time></trkpt><trkpt lat="42.84968" lon="11.81314"><ele>500.0</ele><time>2026-04-03T09:30:59.105Z</time></trkpt><trkpt lat="42.849545" lon="11.8130533"><ele>500.0</ele><time>2026-04-03T09:31:00.105Z</time></trkpt><trkpt lat="42.849405" lon="11.812935"><ele>500.0</ele><time>2026-04-03T09:31:01.105Z</time></trkpt><trkpt lat="42.849275" lon="11.8127917"><ele>500.0</ele><time>2026-04-03T09:31:02.106Z</time></trkpt><trkpt lat="42.8491667" lon="11.81265"><ele>500.0</ele><time>2026-04-03T09:31:03.105Z</time></trkpt><trkpt lat="42.8490667" lon="11.812515"><ele>500.0</ele><time>2026-04-03T09:31:04.105Z</time></trkpt><trkpt lat="42.8489917" lon="11.8123817"><ele>500.0</ele><time>2026-04-03T09:31:05.106Z</time></trkpt><trkpt lat="42.8489433" lon="11.8122433"><ele>500.0</ele><time>2026-04-03T09:31:06.105Z</time></trkpt><trkpt lat="42.8488933" lon="11.8120933"><ele>500.0</ele><time>2026-04-03T09:31:07.106Z</time></trkpt><trkpt lat="42.848835" lon="11.8119167"><ele>500.0</ele><time>2026-04-03T09:31:08.105Z</time></trkpt><trkpt lat="42.8487633" lon="11.811725"><ele>500.0</ele><time>2026-04-03T09:31:09.105Z</time></trkpt><trkpt lat="42.84869" lon="11.811545"><ele>499.75</ele><time>2026-04-03T09:31:10.105Z</time></trkpt><trkpt lat="42.84863" lon="11.811405"><ele>499.5</ele><time>2026-04-03T09:31:11.105Z</time></trkpt><trkpt lat="42.84857" lon="11.8112783"><ele>499.25</ele><time>2026-04-03T09:31:12.105Z</time></trkpt><trkpt lat="42.848495" lon="11.8111567"><ele>499.0</ele><time>2026-04-03T09:31:13.105Z</time></trkpt><trkpt lat="42.8483983" lon="11.8110467"><ele>496.75</ele><time>2026-04-03T09:31:14.105Z</time></trkpt><trkpt lat="42.8482867" lon="11.81096"><ele>494.5</ele><time>2026-04-03T09:31:15.105Z</time></trkpt><trkpt lat="42.8481567" lon="11.8109033"><ele>492.25</ele><time>2026-04-03T09:31:16.106Z</time></trkpt><trkpt lat="42.8480417" lon="11.81084"><ele>490.0</ele><time>2026-04-03T09:31:17.105Z</time></trkpt><trkpt lat="42.8479483" lon="11.8107733"><ele>490.0</ele><time>2026-04-03T09:31:18.105Z</time></trkpt><trkpt lat="42.8478717" lon="11.8106667"><ele>490.0</ele><time>2026-04-03T09:31:19.105Z</time></trkpt><trkpt lat="42.84779" lon="11.8105117"><ele>490.0</ele><time>2026-04-03T09:31:20.105Z</time></trkpt><trkpt lat="42.8477" lon="11.8103483"><ele>490.0</ele><time>2026-04-03T09:31:21.106Z</time></trkpt><trkpt lat="42.84757" lon="11.8101933"><ele>487.33333333333337</ele><time>2026-04-03T09:31:22.105Z</time></trkpt><trkpt lat="42.8474283" lon="11.81003"><ele>484.66666666666663</ele><time>2026-04-03T09:31:23.105Z</time></trkpt><trkpt lat="42.84727" lon="11.8098633"><ele>482.0</ele><time>2026-04-03T09:31:24.106Z</time></trkpt><trkpt lat="42.8470967" lon="11.809695"><ele>482.0</ele><time>2026-04-03T09:31:25.105Z</time></trkpt><trkpt lat="42.8469267" lon="11.809555"><ele>482.0</ele><time>2026-04-03T09:31:26.106Z</time></trkpt><trkpt lat="42.8467617" lon="11.8094433"><ele>482.0</ele><time>2026-04-03T09:31:27.105Z</time></trkpt><trkpt lat="42.8466" lon="11.8093517"><ele>480.0</ele><time>2026-04-03T09:31:28.105Z</time></trkpt><trkpt lat="42.84646" lon="11.8092333"><ele>478.0</ele><time>2026-04-03T09:31:29.105Z</time></trkpt><trkpt lat="42.8463133" lon="11.8091167"><ele>476.0</ele><time>2026-04-03T09:31:30.105Z</time></trkpt><trkpt lat="42.846185" lon="11.8090017"><ele>476.0</ele><time>2026-04-03T09:31:31.105Z</time></trkpt><trkpt lat="42.846065" lon="11.80888"><ele>476.0</ele><time>2026-04-03T09:31:32.104Z</time></trkpt><trkpt lat="42.845945" lon="11.8087917"><ele>476.0</ele><time>2026-04-03T09:31:33.104Z</time></trkpt><trkpt lat="42.8458267" lon="11.8087417"><ele>476.0</ele><time>2026-04-03T09:31:34.104Z</time></trkpt><trkpt lat="42.845705" lon="11.8087133"><ele>477.6</ele><time>2026-04-03T09:31:35.105Z</time></trkpt><trkpt lat="42.8455817" lon="11.808695"><ele>479.20000000000005</ele><time>2026-04-03T09:31:36.104Z</time></trkpt><trkpt lat="42.8454717" lon="11.80869"><ele>480.79999999999995</ele><time>2026-04-03T09:31:37.104Z</time></trkpt><trkpt lat="42.845365" lon="11.8086633"><ele>482.4</ele><time>2026-04-03T09:31:38.104Z</time></trkpt><trkpt lat="42.8452633" lon="11.8086367"><ele>484.0</ele><time>2026-04-03T09:31:39.105Z</time></trkpt><trkpt lat="42.8451483" lon="11.8086083"><ele>483.25</ele><time>2026-04-03T09:31:40.104Z</time></trkpt><trkpt lat="42.8450217" lon="11.8085683"><ele>482.5</ele><time>2026-04-03T09:31:41.104Z</time></trkpt><trkpt lat="42.8448917" lon="11.8085"><ele>481.75</ele><time>2026-04-03T09:31:42.104Z</time></trkpt><trkpt lat="42.8447867" lon="11.8083983"><ele>481.0</ele><time>2026-04-03T09:31:43.104Z</time></trkpt><trkpt lat="42.8446867" lon="11.8082317"><ele>479.33333333333337</ele><time>2026-04-03T09:31:44.104Z</time></trkpt><trkpt lat="42.844605" lon="11.8080283"><ele>477.66666666666663</ele><time>2026-04-03T09:31:45.104Z</time></trkpt><trkpt lat="42.844515" lon="11.8078117"><ele>476.0</ele><time>2026-04-03T09:31:46.104Z</time></trkpt><trkpt lat="42.84441" lon="11.8075983"><ele>475.66666666666663</ele><time>2026-04-03T09:31:47.104Z</time></trkpt><trkpt lat="42.844295" lon="11.80741"><ele>475.33333333333337</ele><time>2026-04-03T09:31:48.105Z</time></trkpt><trkpt lat="42.8441717" lon="11.80723"><ele>475.0</ele><time>2026-04-03T09:31:49.104Z</time></trkpt><trkpt lat="42.8440383" lon="11.807045"><ele>475.0</ele><time>2026-04-03T09:31:50.104Z</time></trkpt><trkpt lat="42.8438983" lon="11.8068767"><ele>475.0</ele><time>2026-04-03T09:31:51.104Z</time></trkpt><trkpt lat="42.8437583" lon="11.8067217"><ele>475.0</ele><time>2026-04-03T09:31:52.104Z</time></trkpt><trkpt lat="42.8436283" lon="11.8065567"><ele>472.33333333333337</ele><time>2026-04-03T09:31:53.105Z</time></trkpt><trkpt lat="42.8435017" lon="11.806365"><ele>469.66666666666663</ele><time>2026-04-03T09:31:54.104Z</time></trkpt><trkpt lat="42.8433967" lon="11.8061483"><ele>467.0</ele><time>2026-04-03T09:31:55.104Z</time></trkpt><trkpt lat="42.8432967" lon="11.8058917"><ele>465.0</ele><time>2026-04-03T09:31:56.104Z</time></trkpt><trkpt lat="42.8431783" lon="11.8056317"><ele>463.0</ele><time>2026-04-03T09:31:57.105Z</time></trkpt><trkpt lat="42.843045" lon="11.8053633"><ele>459.0</ele><time>2026-04-03T09:31:58.104Z</time></trkpt><trkpt lat="42.8429083" lon="11.8051067"><ele>455.0</ele><time>2026-04-03T09:31:59.104Z</time></trkpt><trkpt lat="42.8427633" lon="11.8048233"><ele>455.0</ele><time>2026-04-03T09:32:00.104Z</time></trkpt><trkpt lat="42.8426267" lon="11.8045483"><ele>455.0</ele><time>2026-04-03T09:32:01.105Z</time></trkpt><trkpt lat="42.8425" lon="11.804295"><ele>456.0</ele><time>2026-04-03T09:32:02.105Z</time></trkpt><trkpt lat="42.8423733" lon="11.8040533"><ele>457.0</ele><time>2026-04-03T09:32:03.104Z</time></trkpt><trkpt lat="42.8422533" lon="11.8038267"><ele>458.0</ele><time>2026-04-03T09:32:04.104Z</time></trkpt><trkpt lat="42.8421483" lon="11.8036233"><ele>458.3333333333333</ele><time>2026-04-03T09:32:05.104Z</time></trkpt><trkpt lat="42.8420517" lon="11.8034417"><ele>458.66666666666663</ele><time>2026-04-03T09:32:06.105Z</time></trkpt><trkpt lat="42.841965" lon="11.8032783"><ele>459.0</ele><time>2026-04-03T09:32:07.104Z</time></trkpt><trkpt lat="42.8418833" lon="11.8031267"><ele>459.0</ele><time>2026-04-03T09:32:08.104Z</time></trkpt><trkpt lat="42.8418017" lon="11.802985"><ele>459.0</ele><time>2026-04-03T09:32:09.105Z</time></trkpt><trkpt lat="42.841695" lon="11.80286"><ele>459.0</ele><time>2026-04-03T09:32:10.104Z</time></trkpt><trkpt lat="42.8415717" lon="11.8027417"><ele>459.0</ele><time>2026-04-03T09:32:11.104Z</time></trkpt><trkpt lat="42.8414483" lon="11.8026417"><ele>456.5</ele><time>2026-04-03T09:32:12.105Z</time></trkpt><trkpt lat="42.8413267" lon="11.8025783"><ele>454.0</ele><time>2026-04-03T09:32:13.104Z</time></trkpt><trkpt lat="42.8411983" lon="11.8025533"><ele>451.5</ele><time>2026-04-03T09:32:14.104Z</time></trkpt><trkpt lat="42.841075" lon="11.8025617"><ele>449.0</ele><time>2026-04-03T09:32:15.105Z</time></trkpt><trkpt lat="42.84095" lon="11.8025883"><ele>449.0</ele><time>2026-04-03T09:32:16.104Z</time></trkpt><trkpt lat="42.840805" lon="11.8026383"><ele>449.0</ele><time>2026-04-03T09:32:17.105Z</time></trkpt><trkpt lat="42.8406533" lon="11.8027033"><ele>449.0</ele><time>2026-04-03T09:32:18.104Z</time></trkpt><trkpt lat="42.84048" lon="11.8027717"><ele>447.66666666666663</ele><time>2026-04-03T09:32:19.104Z</time></trkpt><trkpt lat="42.840285" lon="11.8028533"><ele>446.33333333333337</ele><time>2026-04-03T09:32:20.104Z</time></trkpt><trkpt lat="42.840085" lon="11.8029367"><ele>445.0</ele><time>2026-04-03T09:32:21.104Z</time></trkpt><trkpt lat="42.8398683" lon="11.803025"><ele>444.5</ele><time>2026-04-03T09:32:22.104Z</time></trkpt><trkpt lat="42.8396467" lon="11.803115"><ele>444.0</ele><time>2026-04-03T09:32:23.105Z</time></trkpt><trkpt lat="42.8394317" lon="11.80321"><ele>445.66666666666663</ele><time>2026-04-03T09:32:24.104Z</time></trkpt><trkpt lat="42.8392433" lon="11.8032883"><ele>447.3333333333333</ele><time>2026-04-03T09:32:25.104Z</time></trkpt><trkpt lat="42.839075" lon="11.8033617"><ele>449.0</ele><time>2026-04-03T09:32:26.104Z</time></trkpt><trkpt lat="42.838935" lon="11.8034183"><ele>449.0</ele><time>2026-04-03T09:32:27.104Z</time></trkpt><trkpt lat="42.8388133" lon="11.8034567"><ele>449.0</ele><time>2026-04-03T09:32:28.105Z</time></trkpt><trkpt lat="42.8387" lon="11.803445"><ele>449.0</ele><time>2026-04-03T09:32:29.105Z</time></trkpt><trkpt lat="42.8385967" lon="11.8034033"><ele>449.0</ele><time>2026-04-03T09:32:30.104Z</time></trkpt><trkpt lat="42.83849" lon="11.803325"><ele>449.3333333333333</ele><time>2026-04-03T09:32:31.104Z</time></trkpt><trkpt lat="42.83838" lon="11.8032033"><ele>449.66666666666663</ele><time>2026-04-03T09:32:32.104Z</time></trkpt><trkpt lat="42.8382767" lon="11.8030433"><ele>450.0</ele><time>2026-04-03T09:32:33.104Z</time></trkpt><trkpt lat="42.838165" lon="11.80288"><ele>450.0</ele><time>2026-04-03T09:32:34.105Z</time></trkpt><trkpt lat="42.8380517" lon="11.8027183"><ele>450.0</ele><time>2026-04-03T09:32:35.104Z</time></trkpt><trkpt lat="42.837945" lon="11.80257"><ele>450.0</ele><time>2026-04-03T09:32:36.105Z</time></trkpt><trkpt lat="42.8378283" lon="11.802435"><ele>450.0</ele><time>2026-04-03T09:32:37.104Z</time></trkpt><trkpt lat="42.837705" lon="11.8022733"><ele>450.0</ele><time>2026-04-03T09:32:38.104Z</time></trkpt><trkpt lat="42.8375667" lon="11.8020883"><ele>450.0</ele><time>2026-04-03T09:32:39.104Z</time></trkpt><trkpt lat="42.8374217" lon="11.8018783"><ele>445.0</ele><time>2026-04-03T09:32:40.104Z</time></trkpt><trkpt lat="42.83727" lon="11.8016383"><ele>440.0</ele><time>2026-04-03T09:32:41.105Z</time></trkpt><trkpt lat="42.837125" lon="11.8013667"><ele>440.0</ele><time>2026-04-03T09:32:42.105Z</time></trkpt><trkpt lat="42.8369817" lon="11.801075"><ele>440.0</ele><time>2026-04-03T09:32:43.104Z</time></trkpt><trkpt lat="42.8368317" lon="11.800785"><ele>436.0</ele><time>2026-04-03T09:32:44.105Z</time></trkpt><trkpt lat="42.8366833" lon="11.8004867"><ele>432.0</ele><time>2026-04-03T09:32:45.105Z</time></trkpt><trkpt lat="42.8365267" lon="11.800185"><ele>430.5</ele><time>2026-04-03T09:32:46.104Z</time></trkpt><trkpt lat="42.8363583" lon="11.7998867"><ele>429.0</ele><time>2026-04-03T09:32:47.104Z</time></trkpt><trkpt lat="42.8361883" lon="11.7996"><ele>429.0</ele><time>2026-04-03T09:32:48.104Z</time></trkpt><trkpt lat="42.8360267" lon="11.7993367"><ele>429.0</ele><time>2026-04-03T09:32:49.105Z</time></trkpt><trkpt lat="42.8358833" lon="11.799105"><ele>431.0</ele><time>2026-04-03T09:32:50.104Z</time></trkpt><trkpt lat="42.835775" lon="11.7989033"><ele>433.0</ele><time>2026-04-03T09:32:51.104Z</time></trkpt><trkpt lat="42.835675" lon="11.79874"><ele>435.0</ele><time>2026-04-03T09:32:52.104Z</time></trkpt><trkpt lat="42.8355983" lon="11.7985883"><ele>434.75</ele><time>2026-04-03T09:32:53.104Z</time></trkpt><trkpt lat="42.835535" lon="11.7984417"><ele>434.5</ele><time>2026-04-03T09:32:54.104Z</time></trkpt><trkpt lat="42.835495" lon="11.7982867"><ele>434.25</ele><time>2026-04-03T09:32:55.105Z</time></trkpt><trkpt lat="42.8354617" lon="11.7981167"><ele>434.0</ele><time>2026-04-03T09:32:56.105Z</time></trkpt><trkpt lat="42.83544" lon="11.7979217"><ele>434.0</ele><time>2026-04-03T09:32:57.105Z</time></trkpt><trkpt lat="42.8354133" lon="11.7977067"><ele>434.0</ele><time>2026-04-03T09:32:58.104Z</time></trkpt><trkpt lat="42.8353983" lon="11.7974617"><ele>434.0</ele><time>2026-04-03T09:32:59.104Z</time></trkpt><trkpt lat="42.835375" lon="11.79719"><ele>433.3333333333333</ele><time>2026-04-03T09:33:00.105Z</time></trkpt><trkpt lat="42.835355" lon="11.796905"><ele>432.66666666666663</ele><time>2026-04-03T09:33:01.104Z</time></trkpt><trkpt lat="42.835335" lon="11.7966267"><ele>432.0</ele><time>2026-04-03T09:33:02.105Z</time></trkpt><trkpt lat="42.835315" lon="11.796375"><ele>431.66666666666663</ele><time>2026-04-03T09:33:03.104Z</time></trkpt><trkpt lat="42.8353083" lon="11.79615"><ele>431.3333333333333</ele><time>2026-04-03T09:33:04.104Z</time></trkpt><trkpt lat="42.8353" lon="11.795945"><ele>431.0</ele><time>2026-04-03T09:33:05.104Z</time></trkpt><trkpt lat="42.8352833" lon="11.795745"><ele>431.0</ele><time>2026-04-03T09:33:06.104Z</time></trkpt><trkpt lat="42.8352567" lon="11.7955517"><ele>431.0</ele><time>2026-04-03T09:33:07.105Z</time></trkpt><trkpt lat="42.8352117" lon="11.7953633"><ele>431.0</ele><time>2026-04-03T09:33:08.105Z</time></trkpt><trkpt lat="42.8351633" lon="11.7951667"><ele>431.0</ele><time>2026-04-03T09:33:09.104Z</time></trkpt><trkpt lat="42.83509" lon="11.7949617"><ele>434.3333333333333</ele><time>2026-04-03T09:33:10.105Z</time></trkpt><trkpt lat="42.83502" lon="11.7947533"><ele>437.66666666666663</ele><time>2026-04-03T09:33:11.104Z</time></trkpt><trkpt lat="42.8349417" lon="11.7945533"><ele>441.0</ele><time>2026-04-03T09:33:12.104Z</time></trkpt><trkpt lat="42.8348617" lon="11.794385"><ele>438.33333333333337</ele><time>2026-04-03T09:33:13.105Z</time></trkpt><trkpt lat="42.8347767" lon="11.7942317"><ele>435.6666666666667</ele><time>2026-04-03T09:33:14.104Z</time></trkpt><trkpt lat="42.8346867" lon="11.7940767"><ele>433.0</ele><time>2026-04-03T09:33:15.104Z</time></trkpt><trkpt lat="42.8345567" lon="11.7939267"><ele>433.0</ele><time>2026-04-03T09:33:16.104Z</time></trkpt><trkpt lat="42.8343983" lon="11.793765"><ele>433.0</ele><time>2026-04-03T09:33:17.104Z</time></trkpt><trkpt lat="42.834225" lon="11.793605"><ele>433.0</ele><time>2026-04-03T09:33:18.104Z</time></trkpt><trkpt lat="42.8340767" lon="11.793445"><ele>428.33333333333337</ele><time>2026-04-03T09:33:19.104Z</time></trkpt><trkpt lat="42.8339283" lon="11.793255"><ele>423.66666666666663</ele><time>2026-04-03T09:33:20.104Z</time></trkpt><trkpt lat="42.8337983" lon="11.79306"><ele>419.0</ele><time>2026-04-03T09:33:21.104Z</time></trkpt><trkpt lat="42.83368" lon="11.792885"><ele>419.0</ele><time>2026-04-03T09:33:22.104Z</time></trkpt><trkpt lat="42.833585" lon="11.7927383"><ele>419.0</ele><time>2026-04-03T09:33:23.104Z</time></trkpt><trkpt lat="42.8335033" lon="11.7926117"><ele>419.0</ele><time>2026-04-03T09:33:24.105Z</time></trkpt><trkpt lat="42.833435" lon="11.7925217"><ele>419.0</ele><time>2026-04-03T09:33:25.105Z</time></trkpt><trkpt lat="42.833385" lon="11.792455"><ele>419.0</ele><time>2026-04-03T09:33:26.105Z</time></trkpt><trkpt lat="42.83333" lon="11.7923767"><ele>418.8333333333333</ele><time>2026-04-03T09:33:28.104Z</time></trkpt><trkpt lat="42.833285" lon="11.7923017"><ele>418.66666666666663</ele><time>2026-04-03T09:33:31.104Z</time></trkpt><trkpt lat="42.8332383" lon="11.7922417"><ele>418.5</ele><time>2026-04-03T09:33:33.105Z</time></trkpt><trkpt lat="42.8331733" lon="11.7921683"><ele>418.33333333333337</ele><time>2026-04-03T09:33:35.104Z</time></trkpt><trkpt lat="42.8330717" lon="11.79207"><ele>418.1666666666667</ele><time>2026-04-03T09:33:37.104Z</time></trkpt><trkpt lat="42.832995" lon="11.7920083"><ele>418.0</ele><time>2026-04-03T09:33:38.105Z</time></trkpt><trkpt lat="42.832905" lon="11.7919567"><ele>418.0</ele><time>2026-04-03T09:33:39.104Z</time></trkpt><trkpt lat="42.8327967" lon="11.791935"><ele>418.0</ele><time>2026-04-03T09:33:40.104Z</time></trkpt><trkpt lat="42.8326733" lon="11.79194"><ele>418.0</ele><time>2026-04-03T09:33:41.104Z</time></trkpt><trkpt lat="42.8325333" lon="11.7919767"><ele>418.0</ele><time>2026-04-03T09:33:42.104Z</time></trkpt><trkpt lat="42.83238" lon="11.7920383"><ele>417.5</ele><time>2026-04-03T09:33:43.105Z</time></trkpt><trkpt lat="42.83223" lon="11.7921167"><ele>417.0</ele><time>2026-04-03T09:33:44.104Z</time></trkpt><trkpt lat="42.8320983" lon="11.7922017"><ele>416.5</ele><time>2026-04-03T09:33:45.104Z</time></trkpt><trkpt lat="42.832" lon="11.7922967"><ele>416.0</ele><time>2026-04-03T09:33:46.104Z</time></trkpt><trkpt lat="42.8319167" lon="11.7924033"><ele>416.0</ele><time>2026-04-03T09:33:47.105Z</time></trkpt><trkpt lat="42.8318517" lon="11.79254"><ele>416.0</ele><time>2026-04-03T09:33:48.104Z</time></trkpt><trkpt lat="42.8317967" lon="11.79271"><ele>416.0</ele><time>2026-04-03T09:33:49.104Z</time></trkpt><trkpt lat="42.8317517" lon="11.7929083"><ele>416.0</ele><time>2026-04-03T09:33:50.104Z</time></trkpt><trkpt lat="42.8316967" lon="11.7931233"><ele>412.25</ele><time>2026-04-03T09:33:51.105Z</time></trkpt><trkpt lat="42.8316383" lon="11.7933067"><ele>408.5</ele><time>2026-04-03T09:33:52.104Z</time></trkpt><trkpt lat="42.831575" lon="11.7934567"><ele>404.75</ele><time>2026-04-03T09:33:53.104Z</time></trkpt><trkpt lat="42.831495" lon="11.7935667"><ele>401.0</ele><time>2026-04-03T09:33:54.105Z</time></trkpt><trkpt lat="42.83139" lon="11.79362"><ele>398.66666666666663</ele><time>2026-04-03T09:33:55.104Z</time></trkpt><trkpt lat="42.8312533" lon="11.7936633"><ele>396.33333333333337</ele><time>2026-04-03T09:33:56.104Z</time></trkpt><trkpt lat="42.831095" lon="11.7936633"><ele>394.0</ele><time>2026-04-03T09:33:57.104Z</time></trkpt><trkpt lat="42.8309167" lon="11.7936483"><ele>394.0</ele><time>2026-04-03T09:33:58.104Z</time></trkpt><trkpt lat="42.8307167" lon="11.793625"><ele>394.0</ele><time>2026-04-03T09:33:59.104Z</time></trkpt><trkpt lat="42.8305017" lon="11.7936133"><ele>394.0</ele><time>2026-04-03T09:34:00.105Z</time></trkpt><trkpt lat="42.8302717" lon="11.7935983"><ele>391.5</ele><time>2026-04-03T09:34:01.104Z</time></trkpt><trkpt lat="42.8300233" lon="11.7935767"><ele>389.0</ele><time>2026-04-03T09:34:02.105Z</time></trkpt><trkpt lat="42.8297717" lon="11.7935617"><ele>389.0</ele><time>2026-04-03T09:34:03.104Z</time></trkpt><trkpt lat="42.8295233" lon="11.7935517"><ele>389.0</ele><time>2026-04-03T09:34:04.104Z</time></trkpt><trkpt lat="42.8293133" lon="11.7935517"><ele>387.66666666666663</ele><time>2026-04-03T09:34:05.105Z</time></trkpt><trkpt lat="42.8291117" lon="11.7935783"><ele>386.33333333333337</ele><time>2026-04-03T09:34:06.104Z</time></trkpt><trkpt lat="42.82893" lon="11.79363"><ele>385.0</ele><time>2026-04-03T09:34:07.104Z</time></trkpt><trkpt lat="42.8287417" lon="11.793725"><ele>385.0</ele><time>2026-04-03T09:34:08.105Z</time></trkpt><trkpt lat="42.8285583" lon="11.7938333"><ele>385.0</ele><time>2026-04-03T09:34:09.105Z</time></trkpt><trkpt lat="42.8283983" lon="11.7939283"><ele>385.0</ele><time>2026-04-03T09:34:10.105Z</time></trkpt><trkpt lat="42.8282417" lon="11.794025"><ele>387.33333333333337</ele><time>2026-04-03T09:34:11.104Z</time></trkpt><trkpt lat="42.8280867" lon="11.794085"><ele>389.66666666666663</ele><time>2026-04-03T09:34:12.104Z</time></trkpt><trkpt lat="42.8279383" lon="11.794115"><ele>392.0</ele><time>2026-04-03T09:34:13.104Z</time></trkpt><trkpt lat="42.827765" lon="11.7941333"><ele>392.66666666666663</ele><time>2026-04-03T09:34:14.104Z</time></trkpt><trkpt lat="42.827605" lon="11.7941367"><ele>393.33333333333337</ele><time>2026-04-03T09:34:15.105Z</time></trkpt><trkpt lat="42.82744" lon="11.79411"><ele>394.0</ele><time>2026-04-03T09:34:16.105Z</time></trkpt><trkpt lat="42.8272917" lon="11.79406"><ele>394.0</ele><time>2026-04-03T09:34:17.104Z</time></trkpt><trkpt lat="42.8271367" lon="11.7939617"><ele>394.0</ele><time>2026-04-03T09:34:18.104Z</time></trkpt><trkpt lat="42.8269617" lon="11.7938483"><ele>394.0</ele><time>2026-04-03T09:34:19.104Z</time></trkpt><trkpt lat="42.8267867" lon="11.7937317"><ele>393.0</ele><time>2026-04-03T09:34:20.104Z</time></trkpt><trkpt lat="42.826615" lon="11.7936283"><ele>392.0</ele><time>2026-04-03T09:34:21.104Z</time></trkpt><trkpt lat="42.82647" lon="11.7935433"><ele>391.0</ele><time>2026-04-03T09:34:22.104Z</time></trkpt><trkpt lat="42.8263317" lon="11.7935017"><ele>391.0</ele><time>2026-04-03T09:34:23.104Z</time></trkpt><trkpt lat="42.8262233" lon="11.79349"><ele>391.0</ele><time>2026-04-03T09:34:24.104Z</time></trkpt><trkpt lat="42.8261067" lon="11.79352"><ele>391.0</ele><time>2026-04-03T09:34:25.104Z</time></trkpt><trkpt lat="42.8259833" lon="11.79362"><ele>391.0</ele><time>2026-04-03T09:34:26.104Z</time></trkpt><trkpt lat="42.825855" lon="11.7937617"><ele>386.33333333333337</ele><time>2026-04-03T09:34:27.104Z</time></trkpt><trkpt lat="42.8257267" lon="11.7939283"><ele>381.6666666666667</ele><time>2026-04-03T09:34:28.104Z</time></trkpt><trkpt lat="42.8255917" lon="11.79411"><ele>377.0</ele><time>2026-04-03T09:34:29.104Z</time></trkpt><trkpt lat="42.82546" lon="11.7942733"><ele>375.0</ele><time>2026-04-03T09:34:30.104Z</time></trkpt><trkpt lat="42.82534" lon="11.7944267"><ele>373.0</ele><time>2026-04-03T09:34:31.105Z</time></trkpt><trkpt lat="42.8252333" lon="11.79456"><ele>371.0</ele><time>2026-04-03T09:34:32.104Z</time></trkpt><trkpt lat="42.8251417" lon="11.794665"><ele>369.0</ele><time>2026-04-03T09:34:33.104Z</time></trkpt><trkpt lat="42.825045" lon="11.7947583"><ele>369.0</ele><time>2026-04-03T09:34:34.105Z</time></trkpt><trkpt lat="42.8249117" lon="11.7948317"><ele>369.0</ele><time>2026-04-03T09:34:35.104Z</time></trkpt><trkpt lat="42.824755" lon="11.7948733"><ele>369.0</ele><time>2026-04-03T09:34:36.104Z</time></trkpt><trkpt lat="42.8245683" lon="11.7949033"><ele>369.0</ele><time>2026-04-03T09:34:37.104Z</time></trkpt><trkpt lat="42.8243767" lon="11.7949217"><ele>369.0</ele><time>2026-04-03T09:34:38.104Z</time></trkpt><trkpt lat="42.82416" lon="11.7949433"><ele>369.0</ele><time>2026-04-03T09:34:39.104Z</time></trkpt><trkpt lat="42.8239367" lon="11.7949783"><ele>367.0</ele><time>2026-04-03T09:34:40.105Z</time></trkpt><trkpt lat="42.8237167" lon="11.7950133"><ele>365.0</ele><time>2026-04-03T09:34:41.104Z</time></trkpt><trkpt lat="42.823525" lon="11.7950383"><ele>363.0</ele><time>2026-04-03T09:34:42.104Z</time></trkpt><trkpt lat="42.8233283" lon="11.7950683"><ele>361.0</ele><time>2026-04-03T09:34:43.104Z</time></trkpt><trkpt lat="42.823155" lon="11.7950917"><ele>359.0</ele><time>2026-04-03T09:34:44.104Z</time></trkpt><trkpt lat="42.8230017" lon="11.7951233"><ele>357.0</ele><time>2026-04-03T09:34:45.104Z</time></trkpt><trkpt lat="42.82286" lon="11.795155"><ele>356.0</ele><time>2026-04-03T09:34:46.105Z</time></trkpt><trkpt lat="42.8227333" lon="11.7951933"><ele>355.0</ele><time>2026-04-03T09:34:47.105Z</time></trkpt><trkpt lat="42.8226067" lon="11.795265"><ele>354.0</ele><time>2026-04-03T09:34:48.104Z</time></trkpt><trkpt lat="42.82248" lon="11.795365"><ele>353.0</ele><time>2026-04-03T09:34:49.104Z</time></trkpt><trkpt lat="42.822355" lon="11.7955283"><ele>352.0</ele><time>2026-04-03T09:34:50.105Z</time></trkpt><trkpt lat="42.82223" lon="11.7957267"><ele>351.0</ele><time>2026-04-03T09:34:51.104Z</time></trkpt><trkpt lat="42.822095" lon="11.795935"><ele>350.0</ele><time>2026-04-03T09:34:52.104Z</time></trkpt><trkpt lat="42.8219433" lon="11.7961533"><ele>347.0</ele><time>2026-04-03T09:34:53.104Z</time></trkpt><trkpt lat="42.821785" lon="11.796395"><ele>344.0</ele><time>2026-04-03T09:34:54.105Z</time></trkpt><trkpt lat="42.8216233" lon="11.7966467"><ele>338.5</ele><time>2026-04-03T09:34:55.104Z</time></trkpt><trkpt lat="42.82145" lon="11.79688"><ele>333.0</ele><time>2026-04-03T09:34:56.105Z</time></trkpt><trkpt lat="42.82126" lon="11.79711"><ele>333.0</ele><time>2026-04-03T09:34:57.104Z</time></trkpt><trkpt lat="42.8210683" lon="11.7973183"><ele>333.0</ele><time>2026-04-03T09:34:58.104Z</time></trkpt><trkpt lat="42.8208883" lon="11.7975017"><ele>334.0</ele><time>2026-04-03T09:34:59.104Z</time></trkpt><trkpt lat="42.8207283" lon="11.7976633"><ele>335.0</ele><time>2026-04-03T09:35:00.105Z</time></trkpt><trkpt lat="42.820585" lon="11.7978217"><ele>336.0</ele><time>2026-04-03T09:35:01.105Z</time></trkpt><trkpt lat="42.8204433" lon="11.79797"><ele>334.0</ele><time>2026-04-03T09:35:02.104Z</time></trkpt><trkpt lat="42.8203067" lon="11.79812"><ele>332.0</ele><time>2026-04-03T09:35:03.104Z</time></trkpt><trkpt lat="42.8201717" lon="11.79824"><ele>330.0</ele><time>2026-04-03T09:35:04.105Z</time></trkpt><trkpt lat="42.8200583" lon="11.7983383"><ele>330.0</ele><time>2026-04-03T09:35:05.104Z</time></trkpt><trkpt lat="42.819965" lon="11.79843"><ele>330.0</ele><time>2026-04-03T09:35:06.105Z</time></trkpt><trkpt lat="42.8198883" lon="11.7985"><ele>330.0</ele><time>2026-04-03T09:35:07.104Z</time></trkpt><trkpt lat="42.8198267" lon="11.7985483"><ele>330.0</ele><time>2026-04-03T09:35:08.105Z</time></trkpt><trkpt lat="42.8197667" lon="11.7985883"><ele>330.0</ele><time>2026-04-03T09:35:09.104Z</time></trkpt><trkpt lat="42.8196617" lon="11.798605"><ele>330.0</ele><time>2026-04-03T09:35:11.104Z</time></trkpt><trkpt lat="42.8195633" lon="11.798545"><ele>330.0</ele><time>2026-04-03T09:35:13.104Z</time></trkpt><trkpt lat="42.8195133" lon="11.7984633"><ele>330.0</ele><time>2026-04-03T09:35:14.105Z</time></trkpt><trkpt lat="42.8194617" lon="11.7983333"><ele>330.0</ele><time>2026-04-03T09:35:15.104Z</time></trkpt><trkpt lat="42.8194267" lon="11.798185"><ele>330.0</ele><time>2026-04-03T09:35:16.104Z</time></trkpt><trkpt lat="42.8194" lon="11.7980167"><ele>330.0</ele><time>2026-04-03T09:35:17.104Z</time></trkpt><trkpt lat="42.8194067" lon="11.797845"><ele>330.0</ele><time>2026-04-03T09:35:18.105Z</time></trkpt><trkpt lat="42.8194467" lon="11.7976583"><ele>330.0</ele><time>2026-04-03T09:35:19.104Z</time></trkpt><trkpt lat="42.81953" lon="11.7974767"><ele>330.0</ele><time>2026-04-03T09:35:20.104Z</time></trkpt><trkpt lat="42.8196333" lon="11.7972967"><ele>329.3333333333333</ele><time>2026-04-03T09:35:21.104Z</time></trkpt><trkpt lat="42.81975" lon="11.7971033"><ele>328.66666666666663</ele><time>2026-04-03T09:35:22.104Z</time></trkpt><trkpt lat="42.8198717" lon="11.796895"><ele>328.0</ele><time>2026-04-03T09:35:23.105Z</time></trkpt><trkpt lat="42.8199883" lon="11.7966717"><ele>330.3333333333333</ele><time>2026-04-03T09:35:24.105Z</time></trkpt><trkpt lat="42.8201033" lon="11.7964267"><ele>332.6666666666667</ele><time>2026-04-03T09:35:25.104Z</time></trkpt><trkpt lat="42.8202117" lon="11.796165"><ele>335.0</ele><time>2026-04-03T09:35:26.104Z</time></trkpt><trkpt lat="42.8203133" lon="11.795885"><ele>328.0</ele><time>2026-04-03T09:35:27.105Z</time></trkpt><trkpt lat="42.82042" lon="11.7956067"><ele>321.0</ele><time>2026-04-03T09:35:28.104Z</time></trkpt><trkpt lat="42.820525" lon="11.795315"><ele>316.5</ele><time>2026-04-03T09:35:29.104Z</time></trkpt><trkpt lat="42.8206183" lon="11.7950133"><ele>312.0</ele><time>2026-04-03T09:35:30.104Z</time></trkpt><trkpt lat="42.82072" lon="11.7947117"><ele>312.0</ele><time>2026-04-03T09:35:31.105Z</time></trkpt><trkpt lat="42.8208167" lon="11.7944183"><ele>312.0</ele><time>2026-04-03T09:35:32.104Z</time></trkpt><trkpt lat="42.8209267" lon="11.794115"><ele>318.0</ele><time>2026-04-03T09:35:33.104Z</time></trkpt><trkpt lat="42.8210433" lon="11.79381"><ele>324.0</ele><time>2026-04-03T09:35:34.104Z</time></trkpt><trkpt lat="42.8211733" lon="11.79351"><ele>318.5</ele><time>2026-04-03T09:35:35.104Z</time></trkpt><trkpt lat="42.82131" lon="11.79322"><ele>313.0</ele><time>2026-04-03T09:35:36.104Z</time></trkpt><trkpt lat="42.821445" lon="11.7929167"><ele>308.0</ele><time>2026-04-03T09:35:37.104Z</time></trkpt><trkpt lat="42.8215883" lon="11.792615"><ele>303.0</ele><time>2026-04-03T09:35:38.104Z</time></trkpt><trkpt lat="42.8217333" lon="11.7923317"><ele>304.5</ele><time>2026-04-03T09:35:39.105Z</time></trkpt><trkpt lat="42.8218517" lon="11.7920483"><ele>306.0</ele><time>2026-04-03T09:35:40.105Z</time></trkpt><trkpt lat="42.82198" lon="11.7917917"><ele>306.0</ele><time>2026-04-03T09:35:41.104Z</time></trkpt><trkpt lat="42.8221" lon="11.79156"><ele>306.0</ele><time>2026-04-03T09:35:42.104Z</time></trkpt><trkpt lat="42.8221817" lon="11.7913483"><ele>306.0</ele><time>2026-04-03T09:35:43.104Z</time></trkpt><trkpt lat="42.8222283" lon="11.7911117"><ele>303.6666666666667</ele><time>2026-04-03T09:35:44.104Z</time></trkpt><trkpt lat="42.8222667" lon="11.79086"><ele>301.33333333333337</ele><time>2026-04-03T09:35:45.105Z</time></trkpt><trkpt lat="42.822295" lon="11.7906117"><ele>299.0</ele><time>2026-04-03T09:35:46.104Z</time></trkpt><trkpt lat="42.8223317" lon="11.79037"><ele>298.0</ele><time>2026-04-03T09:35:47.105Z</time></trkpt><trkpt lat="42.82236" lon="11.7901367"><ele>297.0</ele><time>2026-04-03T09:35:48.104Z</time></trkpt><trkpt lat="42.8224033" lon="11.7898967"><ele>296.0</ele><time>2026-04-03T09:35:49.104Z</time></trkpt><trkpt lat="42.8224483" lon="11.7896667"><ele>296.0</ele><time>2026-04-03T09:35:50.104Z</time></trkpt><trkpt lat="42.82253" lon="11.7894633"><ele>296.0</ele><time>2026-04-03T09:35:51.104Z</time></trkpt><trkpt lat="42.8226383" lon="11.7892683"><ele>296.0</ele><time>2026-04-03T09:35:52.104Z</time></trkpt><trkpt lat="42.8227617" lon="11.7890683"><ele>296.0</ele><time>2026-04-03T09:35:53.104Z</time></trkpt><trkpt lat="42.822895" lon="11.7888517"><ele>296.0</ele><time>2026-04-03T09:35:54.105Z</time></trkpt><trkpt lat="42.8230367" lon="11.7886233"><ele>296.0</ele><time>2026-04-03T09:35:55.104Z</time></trkpt><trkpt lat="42.8231733" lon="11.7883883"><ele>296.0</ele><time>2026-04-03T09:35:56.104Z</time></trkpt><trkpt lat="42.8232967" lon="11.7881467"><ele>296.0</ele><time>2026-04-03T09:35:57.105Z</time></trkpt><trkpt lat="42.8234217" lon="11.78791"><ele>296.0</ele><time>2026-04-03T09:35:58.104Z</time></trkpt><trkpt lat="42.823555" lon="11.78765"><ele>296.5</ele><time>2026-04-03T09:35:59.104Z</time></trkpt><trkpt lat="42.8236917" lon="11.7873883"><ele>297.0</ele><time>2026-04-03T09:36:00.104Z</time></trkpt><trkpt lat="42.82383" lon="11.78714"><ele>297.0</ele><time>2026-04-03T09:36:01.104Z</time></trkpt><trkpt lat="42.823975" lon="11.78689"><ele>297.0</ele><time>2026-04-03T09:36:02.104Z</time></trkpt><trkpt lat="42.824105" lon="11.7866217"><ele>296.0</ele><time>2026-04-03T09:36:03.104Z</time></trkpt><trkpt lat="42.82422" lon="11.7863517"><ele>295.0</ele><time>2026-04-03T09:36:04.105Z</time></trkpt><trkpt lat="42.824325" lon="11.7860683"><ele>299.5</ele><time>2026-04-03T09:36:05.104Z</time></trkpt><trkpt lat="42.82442" lon="11.7857717"><ele>304.0</ele><time>2026-04-03T09:36:06.104Z</time></trkpt><trkpt lat="42.82449" lon="11.78545"><ele>305.0</ele><time>2026-04-03T09:36:07.105Z</time></trkpt><trkpt lat="42.8245567" lon="11.78512"><ele>306.0</ele><time>2026-04-03T09:36:08.105Z</time></trkpt><trkpt lat="42.8246117" lon="11.7847817"><ele>306.0</ele><time>2026-04-03T09:36:09.104Z</time></trkpt><trkpt lat="42.8246633" lon="11.7844383"><ele>306.0</ele><time>2026-04-03T09:36:10.104Z</time></trkpt><trkpt lat="42.8247183" lon="11.78409"><ele>305.5</ele><time>2026-04-03T09:36:11.105Z</time></trkpt><trkpt lat="42.82477" lon="11.7837583"><ele>305.0</ele><time>2026-04-03T09:36:12.104Z</time></trkpt><trkpt lat="42.824835" lon="11.783425"><ele>303.0</ele><time>2026-04-03T09:36:13.104Z</time></trkpt><trkpt lat="42.824885" lon="11.7831"><ele>301.0</ele><time>2026-04-03T09:36:14.104Z</time></trkpt><trkpt lat="42.8249417" lon="11.78278"><ele>298.5</ele><time>2026-04-03T09:36:15.104Z</time></trkpt><trkpt lat="42.8249933" lon="11.7824483"><ele>296.0</ele><time>2026-04-03T09:36:16.105Z</time></trkpt><trkpt lat="42.8250433" lon="11.7821183"><ele>295.5</ele><time>2026-04-03T09:36:17.105Z</time></trkpt><trkpt lat="42.825085" lon="11.7818017"><ele>295.0</ele><time>2026-04-03T09:36:18.104Z</time></trkpt><trkpt lat="42.8251067" lon="11.7814967"><ele>295.0</ele><time>2026-04-03T09:36:19.105Z</time></trkpt><trkpt lat="42.825125" lon="11.7811833"><ele>295.0</ele><time>2026-04-03T09:36:20.105Z</time></trkpt><trkpt lat="42.825145" lon="11.78087"><ele>295.0</ele><time>2026-04-03T09:36:21.105Z</time></trkpt><trkpt lat="42.8251667" lon="11.7805617"><ele>295.0</ele><time>2026-04-03T09:36:22.104Z</time></trkpt><trkpt lat="42.8251917" lon="11.7802533"><ele>295.0</ele><time>2026-04-03T09:36:23.104Z</time></trkpt><trkpt lat="42.8252417" lon="11.779955"><ele>295.0</ele><time>2026-04-03T09:36:24.105Z</time></trkpt><trkpt lat="42.8253" lon="11.779665"><ele>295.0</ele><time>2026-04-03T09:36:25.105Z</time></trkpt><trkpt lat="42.825345" lon="11.77938"><ele>294.66666666666663</ele><time>2026-04-03T09:36:26.104Z</time></trkpt><trkpt lat="42.8253833" lon="11.7791067"><ele>294.3333333333333</ele><time>2026-04-03T09:36:27.104Z</time></trkpt><trkpt lat="42.8254033" lon="11.7788567"><ele>294.0</ele><time>2026-04-03T09:36:28.104Z</time></trkpt><trkpt lat="42.825425" lon="11.7786183"><ele>293.6666666666667</ele><time>2026-04-03T09:36:29.104Z</time></trkpt><trkpt lat="42.82545" lon="11.7783983"><ele>293.33333333333337</ele><time>2026-04-03T09:36:30.104Z</time></trkpt><trkpt lat="42.8254717" lon="11.7781867"><ele>293.0</ele><time>2026-04-03T09:36:31.104Z</time></trkpt><trkpt lat="42.825485" lon="11.77798"><ele>293.0</ele><time>2026-04-03T09:36:32.104Z</time></trkpt><trkpt lat="42.8254883" lon="11.777775"><ele>293.0</ele><time>2026-04-03T09:36:33.105Z</time></trkpt><trkpt lat="42.8254833" lon="11.7775833"><ele>293.0</ele><time>2026-04-03T09:36:34.104Z</time></trkpt><trkpt lat="42.8254583" lon="11.7773883"><ele>293.0</ele><time>2026-04-03T09:36:35.105Z</time></trkpt><trkpt lat="42.8254283" lon="11.7771917"><ele>294.0</ele><time>2026-04-03T09:36:36.105Z</time></trkpt><trkpt lat="42.8253717" lon="11.776995"><ele>295.0</ele><time>2026-04-03T09:36:37.104Z</time></trkpt><trkpt lat="42.82531" lon="11.7767967"><ele>296.0</ele><time>2026-04-03T09:36:38.104Z</time></trkpt><trkpt lat="42.8252483" lon="11.77658"><ele>296.33333333333337</ele><time>2026-04-03T09:36:39.105Z</time></trkpt><trkpt lat="42.82519" lon="11.7763617"><ele>296.6666666666667</ele><time>2026-04-03T09:36:40.104Z</time></trkpt><trkpt lat="42.825125" lon="11.77614"><ele>297.0</ele><time>2026-04-03T09:36:41.104Z</time></trkpt><trkpt lat="42.8250633" lon="11.7759017"><ele>297.0</ele><time>2026-04-03T09:36:42.105Z</time></trkpt><trkpt lat="42.8249933" lon="11.775665"><ele>297.0</ele><time>2026-04-03T09:36:43.105Z</time></trkpt><trkpt lat="42.8249167" lon="11.775435"><ele>297.0</ele><time>2026-04-03T09:36:44.105Z</time></trkpt><trkpt lat="42.824845" lon="11.7752033"><ele>297.6666666666667</ele><time>2026-04-03T09:36:45.104Z</time></trkpt><trkpt lat="42.824775" lon="11.7749683"><ele>298.33333333333337</ele><time>2026-04-03T09:36:46.103Z</time></trkpt><trkpt lat="42.824705" lon="11.7747333"><ele>299.0</ele><time>2026-04-03T09:36:47.104Z</time></trkpt><trkpt lat="42.8246183" lon="11.7744717"><ele>300.33333333333337</ele><time>2026-04-03T09:36:48.103Z</time></trkpt><trkpt lat="42.82454" lon="11.7742067"><ele>301.6666666666667</ele><time>2026-04-03T09:36:49.103Z</time></trkpt><trkpt lat="42.8244567" lon="11.7739517"><ele>303.0</ele><time>2026-04-03T09:36:50.103Z</time></trkpt><trkpt lat="42.824375" lon="11.7737"><ele>300.6666666666667</ele><time>2026-04-03T09:36:51.103Z</time></trkpt><trkpt lat="42.824295" lon="11.7734517"><ele>298.33333333333337</ele><time>2026-04-03T09:36:52.103Z</time></trkpt><trkpt lat="42.82422" lon="11.7732"><ele>296.0</ele><time>2026-04-03T09:36:53.103Z</time></trkpt><trkpt lat="42.8241417" lon="11.7729517"><ele>296.0</ele><time>2026-04-03T09:36:54.103Z</time></trkpt><trkpt lat="42.8240633" lon="11.7727083"><ele>296.0</ele><time>2026-04-03T09:36:55.103Z</time></trkpt><trkpt lat="42.8239917" lon="11.77247"><ele>296.0</ele><time>2026-04-03T09:36:56.103Z</time></trkpt><trkpt lat="42.8239267" lon="11.7722217"><ele>296.0</ele><time>2026-04-03T09:36:57.103Z</time></trkpt><trkpt lat="42.823865" lon="11.771975"><ele>296.0</ele><time>2026-04-03T09:36:58.103Z</time></trkpt><trkpt lat="42.8238267" lon="11.7717217"><ele>296.0</ele><time>2026-04-03T09:36:59.103Z</time></trkpt><trkpt lat="42.8237833" lon="11.771465"><ele>296.0</ele><time>2026-04-03T09:37:00.103Z</time></trkpt><trkpt lat="42.8237417" lon="11.7711983"><ele>296.0</ele><time>2026-04-03T09:37:01.103Z</time></trkpt><trkpt lat="42.8237083" lon="11.77093"><ele>296.0</ele><time>2026-04-03T09:37:02.103Z</time></trkpt><trkpt lat="42.8236933" lon="11.77065"><ele>296.0</ele><time>2026-04-03T09:37:03.104Z</time></trkpt><trkpt lat="42.823695" lon="11.7703667"><ele>296.0</ele><time>2026-04-03T09:37:04.103Z</time></trkpt><trkpt lat="42.8237117" lon="11.770085"><ele>296.0</ele><time>2026-04-03T09:37:05.103Z</time></trkpt><trkpt lat="42.8237367" lon="11.7697967"><ele>297.0</ele><time>2026-04-03T09:37:06.103Z</time></trkpt><trkpt lat="42.8237733" lon="11.76952"><ele>298.0</ele><time>2026-04-03T09:37:07.103Z</time></trkpt><trkpt lat="42.8238333" lon="11.769245"><ele>299.0</ele><time>2026-04-03T09:37:08.103Z</time></trkpt><trkpt lat="42.8238967" lon="11.7689733"><ele>299.0</ele><time>2026-04-03T09:37:09.103Z</time></trkpt><trkpt lat="42.8239767" lon="11.7687033"><ele>299.0</ele><time>2026-04-03T09:37:10.103Z</time></trkpt><trkpt lat="42.8240733" lon="11.7684383"><ele>299.0</ele><time>2026-04-03T09:37:11.103Z</time></trkpt><trkpt lat="42.8241817" lon="11.76818"><ele>299.0</ele><time>2026-04-03T09:37:12.104Z</time></trkpt><trkpt lat="42.8243067" lon="11.76793"><ele>299.0</ele><time>2026-04-03T09:37:13.103Z</time></trkpt><trkpt lat="42.8244433" lon="11.7676867"><ele>299.0</ele><time>2026-04-03T09:37:14.104Z</time></trkpt><trkpt lat="42.8245983" lon="11.76746"><ele>300.0</ele><time>2026-04-03T09:37:15.103Z</time></trkpt><trkpt lat="42.82476" lon="11.7672417"><ele>301.0</ele><time>2026-04-03T09:37:16.103Z</time></trkpt><trkpt lat="42.82493" lon="11.767045"><ele>300.0</ele><time>2026-04-03T09:37:17.103Z</time></trkpt><trkpt lat="42.8250967" lon="11.7668367"><ele>299.0</ele><time>2026-04-03T09:37:18.104Z</time></trkpt><trkpt lat="42.825265" lon="11.76662"><ele>301.5</ele><time>2026-04-03T09:37:19.103Z</time></trkpt><trkpt lat="42.8254383" lon="11.7664067"><ele>304.0</ele><time>2026-04-03T09:37:20.103Z</time></trkpt><trkpt lat="42.8256083" lon="11.7662067"><ele>302.0</ele><time>2026-04-03T09:37:21.104Z</time></trkpt><trkpt lat="42.8257717" lon="11.7659867"><ele>300.0</ele><time>2026-04-03T09:37:22.103Z</time></trkpt><trkpt lat="42.82594" lon="11.765775"><ele>303.0</ele><time>2026-04-03T09:37:23.104Z</time></trkpt><trkpt lat="42.8261017" lon="11.7655667"><ele>306.0</ele><time>2026-04-03T09:37:24.104Z</time></trkpt><trkpt lat="42.82627" lon="11.76535"><ele>304.0</ele><time>2026-04-03T09:37:25.103Z</time></trkpt><trkpt lat="42.8264383" lon="11.7651367"><ele>302.0</ele><time>2026-04-03T09:37:26.103Z</time></trkpt><trkpt lat="42.8266033" lon="11.7649167"><ele>302.0</ele><time>2026-04-03T09:37:27.104Z</time></trkpt><trkpt lat="42.8267667" lon="11.7646983"><ele>302.0</ele><time>2026-04-03T09:37:28.103Z</time></trkpt><trkpt lat="42.8269267" lon="11.7644833"><ele>303.5</ele><time>2026-04-03T09:37:29.104Z</time></trkpt><trkpt lat="42.8270933" lon="11.764275"><ele>305.0</ele><time>2026-04-03T09:37:30.103Z</time></trkpt><trkpt lat="42.8272583" lon="11.7640667"><ele>305.0</ele><time>2026-04-03T09:37:31.104Z</time></trkpt><trkpt lat="42.8274233" lon="11.763855"><ele>305.0</ele><time>2026-04-03T09:37:32.104Z</time></trkpt><trkpt lat="42.8275817" lon="11.7636383"><ele>306.0</ele><time>2026-04-03T09:37:33.103Z</time></trkpt><trkpt lat="42.8277433" lon="11.7634233"><ele>307.0</ele><time>2026-04-03T09:37:34.103Z</time></trkpt><trkpt lat="42.827905" lon="11.7632133"><ele>308.0</ele><time>2026-04-03T09:37:35.104Z</time></trkpt><trkpt lat="42.8280783" lon="11.7630067"><ele>308.0</ele><time>2026-04-03T09:37:36.103Z</time></trkpt><trkpt lat="42.8282567" lon="11.7628133"><ele>308.0</ele><time>2026-04-03T09:37:37.103Z</time></trkpt><trkpt lat="42.828435" lon="11.7626183"><ele>307.5</ele><time>2026-04-03T09:37:38.104Z</time></trkpt><trkpt lat="42.8286217" lon="11.7624417"><ele>307.0</ele><time>2026-04-03T09:37:39.104Z</time></trkpt><trkpt lat="42.8288183" lon="11.7622617"><ele>307.0</ele><time>2026-04-03T09:37:40.103Z</time></trkpt><trkpt lat="42.8290117" lon="11.7620767"><ele>307.0</ele><time>2026-04-03T09:37:41.103Z</time></trkpt><trkpt lat="42.8292067" lon="11.76189"><ele>308.0</ele><time>2026-04-03T09:37:42.104Z</time></trkpt><trkpt lat="42.8294" lon="11.7617017"><ele>309.0</ele><time>2026-04-03T09:37:43.103Z</time></trkpt><trkpt lat="42.8296" lon="11.7615167"><ele>309.0</ele><time>2026-04-03T09:37:44.103Z</time></trkpt><trkpt lat="42.8298033" lon="11.7613367"><ele>309.0</ele><time>2026-04-03T09:37:45.103Z</time></trkpt><trkpt lat="42.830005" lon="11.7611567"><ele>311.5</ele><time>2026-04-03T09:37:46.103Z</time></trkpt><trkpt lat="42.8302067" lon="11.76098"><ele>314.0</ele><time>2026-04-03T09:37:47.103Z</time></trkpt><trkpt lat="42.8304067" lon="11.76081"><ele>314.0</ele><time>2026-04-03T09:37:48.104Z</time></trkpt><trkpt lat="42.83061" lon="11.760635"><ele>314.0</ele><time>2026-04-03T09:37:49.103Z</time></trkpt><trkpt lat="42.830805" lon="11.7604517"><ele>314.0</ele><time>2026-04-03T09:37:50.103Z</time></trkpt><trkpt lat="42.8310083" lon="11.7602717"><ele>314.0</ele><time>2026-04-03T09:37:51.104Z</time></trkpt><trkpt lat="42.8312083" lon="11.760095"><ele>314.0</ele><time>2026-04-03T09:37:52.104Z</time></trkpt><trkpt lat="42.8314033" lon="11.7599133"><ele>314.0</ele><time>2026-04-03T09:37:53.103Z</time></trkpt><trkpt lat="42.8315983" lon="11.7597217"><ele>314.0</ele><time>2026-04-03T09:37:54.103Z</time></trkpt><trkpt lat="42.8317867" lon="11.75954"><ele>314.0</ele><time>2026-04-03T09:37:55.103Z</time></trkpt><trkpt lat="42.8319817" lon="11.75936"><ele>316.0</ele><time>2026-04-03T09:37:56.103Z</time></trkpt><trkpt lat="42.8321783" lon="11.75918"><ele>318.0</ele><time>2026-04-03T09:37:57.103Z</time></trkpt><trkpt lat="42.8323717" lon="11.7590017"><ele>318.0</ele><time>2026-04-03T09:37:58.103Z</time></trkpt><trkpt lat="42.8325633" lon="11.7588267"><ele>318.0</ele><time>2026-04-03T09:37:59.103Z</time></trkpt><trkpt lat="42.8327533" lon="11.758645"><ele>318.5</ele><time>2026-04-03T09:38:00.104Z</time></trkpt><trkpt lat="42.8329483" lon="11.75847"><ele>319.0</ele><time>2026-04-03T09:38:01.103Z</time></trkpt><trkpt lat="42.833145" lon="11.7582967"><ele>319.0</ele><time>2026-04-03T09:38:02.103Z</time></trkpt><trkpt lat="42.833345" lon="11.7581167"><ele>319.0</ele><time>2026-04-03T09:38:03.103Z</time></trkpt><trkpt lat="42.833545" lon="11.7579417"><ele>319.0</ele><time>2026-04-03T09:38:04.103Z</time></trkpt><trkpt lat="42.8337483" lon="11.75776"><ele>319.0</ele><time>2026-04-03T09:38:05.103Z</time></trkpt><trkpt lat="42.8339483" lon="11.7575783"><ele>319.0</ele><time>2026-04-03T09:38:06.103Z</time></trkpt><trkpt lat="42.8341433" lon="11.7573967"><ele>319.0</ele><time>2026-04-03T09:38:07.103Z</time></trkpt><trkpt lat="42.83434" lon="11.757215"><ele>320.0</ele><time>2026-04-03T09:38:08.103Z</time></trkpt><trkpt lat="42.8345317" lon="11.757045"><ele>321.0</ele><time>2026-04-03T09:38:09.104Z</time></trkpt><trkpt lat="42.8347467" lon="11.75688"><ele>321.0</ele><time>2026-04-03T09:38:10.103Z</time></trkpt><trkpt lat="42.8349683" lon="11.7567483"><ele>321.0</ele><time>2026-04-03T09:38:11.103Z</time></trkpt><trkpt lat="42.8351983" lon="11.7566417"><ele>321.0</ele><time>2026-04-03T09:38:12.104Z</time></trkpt><trkpt lat="42.835425" lon="11.756545"><ele>321.0</ele><time>2026-04-03T09:38:13.103Z</time></trkpt><trkpt lat="42.8356533" lon="11.7564417"><ele>321.0</ele><time>2026-04-03T09:38:14.103Z</time></trkpt><trkpt lat="42.8358817" lon="11.75634"><ele>321.0</ele><time>2026-04-03T09:38:15.103Z</time></trkpt><trkpt lat="42.836105" lon="11.75623"><ele>321.5</ele><time>2026-04-03T09:38:16.103Z</time></trkpt><trkpt lat="42.8363283" lon="11.75613"><ele>322.0</ele><time>2026-04-03T09:38:17.103Z</time></trkpt><trkpt lat="42.8365517" lon="11.7560233"><ele>322.0</ele><time>2026-04-03T09:38:18.103Z</time></trkpt><trkpt lat="42.8367667" lon="11.755915"><ele>322.0</ele><time>2026-04-03T09:38:19.103Z</time></trkpt><trkpt lat="42.8369817" lon="11.7558017"><ele>321.66666666666663</ele><time>2026-04-03T09:38:20.103Z</time></trkpt><trkpt lat="42.83719" lon="11.7556917"><ele>321.3333333333333</ele><time>2026-04-03T09:38:21.103Z</time></trkpt><trkpt lat="42.8373917" lon="11.75558"><ele>321.0</ele><time>2026-04-03T09:38:22.103Z</time></trkpt><trkpt lat="42.8375917" lon="11.7554683"><ele>320.3333333333333</ele><time>2026-04-03T09:38:23.103Z</time></trkpt><trkpt lat="42.8378" lon="11.755375"><ele>319.66666666666663</ele><time>2026-04-03T09:38:24.103Z</time></trkpt><trkpt lat="42.8380083" lon="11.755275"><ele>319.0</ele><time>2026-04-03T09:38:25.103Z</time></trkpt><trkpt lat="42.838205" lon="11.7551833"><ele>319.0</ele><time>2026-04-03T09:38:26.103Z</time></trkpt><trkpt lat="42.8383467" lon="11.7551167"><ele>319.0</ele><time>2026-04-03T09:38:27.103Z</time></trkpt><trkpt lat="42.8384317" lon="11.755075"><ele>319.0</ele><time>2026-04-03T09:38:28.103Z</time></trkpt><trkpt lat="42.838525" lon="11.7550333"><ele>319.0</ele><time>2026-04-03T09:38:30.104Z</time></trkpt><trkpt lat="42.8385833" lon="11.75498"><ele>319.0</ele><time>2026-04-03T09:38:51.103Z</time></trkpt><trkpt lat="42.8385133" lon="11.7548667"><ele>319.0</ele><time>2026-04-03T09:38:53.104Z</time></trkpt><trkpt lat="42.8384483" lon="11.7548083"><ele>319.0</ele><time>2026-04-03T09:38:54.104Z</time></trkpt><trkpt lat="42.838385" lon="11.7547417"><ele>319.0</ele><time>2026-04-03T09:38:55.103Z</time></trkpt><trkpt lat="42.8383433" lon="11.75463"><ele>319.0</ele><time>2026-04-03T09:38:56.104Z</time></trkpt><trkpt lat="42.8383267" lon="11.754505"><ele>319.0</ele><time>2026-04-03T09:38:57.103Z</time></trkpt><trkpt lat="42.838355" lon="11.7543817"><ele>319.0</ele><time>2026-04-03T09:38:58.103Z</time></trkpt><trkpt lat="42.8384183" lon="11.75426"><ele>319.0</ele><time>2026-04-03T09:38:59.103Z</time></trkpt><trkpt lat="42.8385133" lon="11.754185"><ele>319.0</ele><time>2026-04-03T09:39:00.104Z</time></trkpt><trkpt lat="42.8386233" lon="11.7541533"><ele>319.0</ele><time>2026-04-03T09:39:01.103Z</time></trkpt><trkpt lat="42.8387467" lon="11.7541283"><ele>319.0</ele><time>2026-04-03T09:39:02.104Z</time></trkpt><trkpt lat="42.8388783" lon="11.7541083"><ele>319.0</ele><time>2026-04-03T09:39:03.104Z</time></trkpt><trkpt lat="42.8390283" lon="11.75408"><ele>319.0</ele><time>2026-04-03T09:39:04.103Z</time></trkpt><trkpt lat="42.83918" lon="11.7540383"><ele>319.0</ele><time>2026-04-03T09:39:05.104Z</time></trkpt><trkpt lat="42.8393417" lon="11.7539983"><ele>319.66666666666663</ele><time>2026-04-03T09:39:06.103Z</time></trkpt><trkpt lat="42.839505" lon="11.7539533"><ele>320.3333333333333</ele><time>2026-04-03T09:39:07.104Z</time></trkpt><trkpt lat="42.8396717" lon="11.7539033"><ele>321.0</ele><time>2026-04-03T09:39:08.103Z</time></trkpt><trkpt lat="42.83985" lon="11.753845"><ele>321.0</ele><time>2026-04-03T09:39:09.104Z</time></trkpt><trkpt lat="42.8400333" lon="11.7537983"><ele>321.0</ele><time>2026-04-03T09:39:10.103Z</time></trkpt><trkpt lat="42.84022" lon="11.7537533"><ele>321.0</ele><time>2026-04-03T09:39:11.103Z</time></trkpt><trkpt lat="42.8404083" lon="11.75371"><ele>321.0</ele><time>2026-04-03T09:39:12.103Z</time></trkpt><trkpt lat="42.8406033" lon="11.7536717"><ele>321.0</ele><time>2026-04-03T09:39:13.103Z</time></trkpt><trkpt lat="42.8408017" lon="11.75364"><ele>321.0</ele><time>2026-04-03T09:39:14.103Z</time></trkpt><trkpt lat="42.8410017" lon="11.7536167"><ele>321.0</ele><time>2026-04-03T09:39:15.104Z</time></trkpt><trkpt lat="42.8411983" lon="11.7535967"><ele>321.0</ele><time>2026-04-03T09:39:16.103Z</time></trkpt><trkpt lat="42.8413967" lon="11.7535783"><ele>321.0</ele><time>2026-04-03T09:39:17.103Z</time></trkpt><trkpt lat="42.8416" lon="11.75356"><ele>321.3333333333333</ele><time>2026-04-03T09:39:18.103Z</time></trkpt><trkpt lat="42.841805" lon="11.7535483"><ele>321.66666666666663</ele><time>2026-04-03T09:39:19.104Z</time></trkpt><trkpt lat="42.8420217" lon="11.7535517"><ele>322.0</ele><time>2026-04-03T09:39:20.104Z</time></trkpt><trkpt lat="42.84223" lon="11.7535367"><ele>322.0</ele><time>2026-04-03T09:39:21.103Z</time></trkpt><trkpt lat="42.8424417" lon="11.7535283"><ele>322.0</ele><time>2026-04-03T09:39:22.103Z</time></trkpt><trkpt lat="42.8426533" lon="11.7535267"><ele>322.0</ele><time>2026-04-03T09:39:23.104Z</time></trkpt><trkpt lat="42.8428583" lon="11.7535217"><ele>322.0</ele><time>2026-04-03T09:39:24.103Z</time></trkpt><trkpt lat="42.8430633" lon="11.753515"><ele>322.0</ele><time>2026-04-03T09:39:25.103Z</time></trkpt><trkpt lat="42.8432617" lon="11.7535083"><ele>322.0</ele><time>2026-04-03T09:39:26.103Z</time></trkpt><trkpt lat="42.84346" lon="11.7535017"><ele>322.66666666666663</ele><time>2026-04-03T09:39:27.103Z</time></trkpt><trkpt lat="42.843655" lon="11.7534933"><ele>323.3333333333333</ele><time>2026-04-03T09:39:28.103Z</time></trkpt><trkpt lat="42.8438417" lon="11.75349"><ele>324.0</ele><time>2026-04-03T09:39:29.103Z</time></trkpt><trkpt lat="42.8440233" lon="11.7534867"><ele>324.0</ele><time>2026-04-03T09:39:30.103Z</time></trkpt><trkpt lat="42.844165" lon="11.7534867"><ele>324.0</ele><time>2026-04-03T09:39:31.104Z</time></trkpt><trkpt lat="42.8442417" lon="11.7534833"><ele>324.0</ele><time>2026-04-03T09:39:32.104Z</time></trkpt><trkpt lat="42.8443117" lon="11.7534533"><ele>324.0</ele><time>2026-04-03T09:39:34.103Z</time></trkpt><trkpt lat="42.8442383" lon="11.7533517"><ele>324.0</ele><time>2026-04-03T09:39:37.103Z</time></trkpt><trkpt lat="42.8441633" lon="11.753345"><ele>324.0</ele><time>2026-04-03T09:39:38.104Z</time></trkpt><trkpt lat="42.8440983" lon="11.7533167"><ele>324.0</ele><time>2026-04-03T09:39:39.103Z</time></trkpt><trkpt lat="42.844045" lon="11.7532517"><ele>324.0</ele><time>2026-04-03T09:39:40.104Z</time></trkpt><trkpt lat="42.844005" lon="11.7531433"><ele>324.0</ele><time>2026-04-03T09:39:41.103Z</time></trkpt><trkpt lat="42.843975" lon="11.7529983"><ele>324.0</ele><time>2026-04-03T09:39:42.103Z</time></trkpt><trkpt lat="42.8439367" lon="11.7528417"><ele>324.0</ele><time>2026-04-03T09:39:43.103Z</time></trkpt><trkpt lat="42.843895" lon="11.7526767"><ele>324.0</ele><time>2026-04-03T09:39:44.103Z</time></trkpt><trkpt lat="42.843845" lon="11.75251"><ele>324.0</ele><time>2026-04-03T09:39:45.104Z</time></trkpt><trkpt lat="42.8438" lon="11.752345"><ele>324.0</ele><time>2026-04-03T09:39:46.103Z</time></trkpt><trkpt lat="42.8437517" lon="11.7521583"><ele>324.0</ele><time>2026-04-03T09:39:47.103Z</time></trkpt><trkpt lat="42.84368" lon="11.7519567"><ele>324.0</ele><time>2026-04-03T09:39:48.103Z</time></trkpt><trkpt lat="42.8436083" lon="11.7517567"><ele>324.0</ele><time>2026-04-03T09:39:49.103Z</time></trkpt><trkpt lat="42.8435283" lon="11.751565"><ele>323.0</ele><time>2026-04-03T09:39:50.104Z</time></trkpt><trkpt lat="42.843455" lon="11.75137"><ele>322.0</ele><time>2026-04-03T09:39:51.103Z</time></trkpt><trkpt lat="42.84339" lon="11.75119"><ele>321.0</ele><time>2026-04-03T09:39:52.104Z</time></trkpt><trkpt lat="42.8433283" lon="11.7510267"><ele>320.0</ele><time>2026-04-03T09:39:53.103Z</time></trkpt><trkpt lat="42.84326" lon="11.750865"><ele>320.0</ele><time>2026-04-03T09:39:54.103Z</time></trkpt><trkpt lat="42.8432017" lon="11.7507517"><ele>320.0</ele><time>2026-04-03T09:39:55.103Z</time></trkpt><trkpt lat="42.8431417" lon="11.75066"><ele>320.0</ele><time>2026-04-03T09:39:56.103Z</time></trkpt><trkpt lat="42.8430967" lon="11.7505533"><ele>320.0</ele><time>2026-04-03T09:39:57.103Z</time></trkpt><trkpt lat="42.8430717" lon="11.75042"><ele>320.0</ele><time>2026-04-03T09:39:58.104Z</time></trkpt><trkpt lat="42.84302" lon="11.7502633"><ele>320.75</ele><time>2026-04-03T09:39:59.104Z</time></trkpt><trkpt lat="42.842975" lon="11.750085"><ele>321.5</ele><time>2026-04-03T09:40:00.103Z</time></trkpt><trkpt lat="42.8429317" lon="11.7499117"><ele>322.25</ele><time>2026-04-03T09:40:01.103Z</time></trkpt><trkpt lat="42.8429083" lon="11.74975"><ele>323.0</ele><time>2026-04-03T09:40:02.103Z</time></trkpt><trkpt lat="42.8428883" lon="11.7495967"><ele>323.0</ele><time>2026-04-03T09:40:03.103Z</time></trkpt><trkpt lat="42.8428933" lon="11.7494517"><ele>323.0</ele><time>2026-04-03T09:40:04.104Z</time></trkpt><trkpt lat="42.8429183" lon="11.7493083"><ele>323.0</ele><time>2026-04-03T09:40:05.103Z</time></trkpt><trkpt lat="42.84296" lon="11.7491533"><ele>323.0</ele><time>2026-04-03T09:40:06.104Z</time></trkpt><trkpt lat="42.8430267" lon="11.7489883"><ele>325.0</ele><time>2026-04-03T09:40:07.103Z</time></trkpt><trkpt lat="42.84309" lon="11.7488183"><ele>327.0</ele><time>2026-04-03T09:40:08.103Z</time></trkpt><trkpt lat="42.8431483" lon="11.74862"><ele>329.0</ele><time>2026-04-03T09:40:09.103Z</time></trkpt><trkpt lat="42.843205" lon="11.7484483"><ele>331.0</ele><time>2026-04-03T09:40:10.104Z</time></trkpt><trkpt lat="42.8432467" lon="11.7483083"><ele>332.4</ele><time>2026-04-03T09:40:11.103Z</time></trkpt><trkpt lat="42.8432983" lon="11.7481967"><ele>333.8</ele><time>2026-04-03T09:40:12.104Z</time></trkpt><trkpt lat="42.8433583" lon="11.7481267"><ele>335.2</ele><time>2026-04-03T09:40:13.104Z</time></trkpt><trkpt lat="42.84349" lon="11.7481183"><ele>336.59999999999997</ele><time>2026-04-03T09:40:15.103Z</time></trkpt><trkpt lat="42.84357" lon="11.7481833"><ele>338.0</ele><time>2026-04-03T09:40:16.104Z</time></trkpt><trkpt lat="42.8436483" lon="11.7482767"><ele>339.4</ele><time>2026-04-03T09:40:17.103Z</time></trkpt><trkpt lat="42.8437367" lon="11.7484033"><ele>340.79999999999995</ele><time>2026-04-03T09:40:18.103Z</time></trkpt><trkpt lat="42.8438217" lon="11.7485283"><ele>342.2</ele><time>2026-04-03T09:40:19.104Z</time></trkpt><trkpt lat="42.84391" lon="11.7486167"><ele>343.6</ele><time>2026-04-03T09:40:20.104Z</time></trkpt><trkpt lat="42.843995" lon="11.7486317"><ele>345.0</ele><time>2026-04-03T09:40:21.103Z</time></trkpt><trkpt lat="42.844075" lon="11.74859"><ele>345.0</ele><time>2026-04-03T09:40:22.104Z</time></trkpt><trkpt lat="42.8441417" lon="11.7485083"><ele>345.0</ele><time>2026-04-03T09:40:23.103Z</time></trkpt><trkpt lat="42.8442117" lon="11.7483917"><ele>345.0</ele><time>2026-04-03T09:40:24.104Z</time></trkpt><trkpt lat="42.8442783" lon="11.74826"><ele>345.0</ele><time>2026-04-03T09:40:25.103Z</time></trkpt><trkpt lat="42.8443467" lon="11.7481017"><ele>342.6666666666667</ele><time>2026-04-03T09:40:26.103Z</time></trkpt><trkpt lat="42.8444267" lon="11.7479333"><ele>340.33333333333337</ele><time>2026-04-03T09:40:27.104Z</time></trkpt><trkpt lat="42.8445217" lon="11.747755"><ele>338.0</ele><time>2026-04-03T09:40:28.103Z</time></trkpt><trkpt lat="42.8446167" lon="11.7475967"><ele>342.0</ele><time>2026-04-03T09:40:29.103Z</time></trkpt><trkpt lat="42.8447133" lon="11.74744"><ele>346.0</ele><time>2026-04-03T09:40:30.103Z</time></trkpt><trkpt lat="42.844805" lon="11.74729"><ele>350.0</ele><time>2026-04-03T09:40:31.103Z</time></trkpt><trkpt lat="42.84488" lon="11.747135"><ele>354.0</ele><time>2026-04-03T09:40:32.103Z</time></trkpt><trkpt lat="42.84493" lon="11.7469733"><ele>355.5</ele><time>2026-04-03T09:40:33.103Z</time></trkpt><trkpt lat="42.8449533" lon="11.7468183"><ele>357.0</ele><time>2026-04-03T09:40:34.103Z</time></trkpt><trkpt lat="42.84494" lon="11.7466517"><ele>358.5</ele><time>2026-04-03T09:40:35.104Z</time></trkpt><trkpt lat="42.844915" lon="11.746485"><ele>360.0</ele><time>2026-04-03T09:40:36.103Z</time></trkpt><trkpt lat="42.84488" lon="11.7463083"><ele>360.0</ele><time>2026-04-03T09:40:37.103Z</time></trkpt><trkpt lat="42.8448433" lon="11.7461083"><ele>360.0</ele><time>2026-04-03T09:40:38.103Z</time></trkpt><trkpt lat="42.8448217" lon="11.7458933"><ele>360.0</ele><time>2026-04-03T09:40:39.103Z</time></trkpt><trkpt lat="42.8448183" lon="11.7456683"><ele>361.3333333333333</ele><time>2026-04-03T09:40:40.103Z</time></trkpt><trkpt lat="42.84484" lon="11.7454633"><ele>362.66666666666663</ele><time>2026-04-03T09:40:41.104Z</time></trkpt><trkpt lat="42.844885" lon="11.7452517"><ele>364.0</ele><time>2026-04-03T09:40:42.104Z</time></trkpt><trkpt lat="42.8449467" lon="11.745035"><ele>366.0</ele><time>2026-04-03T09:40:43.103Z</time></trkpt><trkpt lat="42.84501" lon="11.7448117"><ele>368.0</ele><time>2026-04-03T09:40:44.103Z</time></trkpt><trkpt lat="42.8450667" lon="11.74457"><ele>370.0</ele><time>2026-04-03T09:40:45.103Z</time></trkpt><trkpt lat="42.8451067" lon="11.7443467"><ele>370.66666666666663</ele><time>2026-04-03T09:40:46.103Z</time></trkpt><trkpt lat="42.845165" lon="11.74412"><ele>371.3333333333333</ele><time>2026-04-03T09:40:47.103Z</time></trkpt><trkpt lat="42.8452217" lon="11.7439283"><ele>372.0</ele><time>2026-04-03T09:40:48.104Z</time></trkpt><trkpt lat="42.8453067" lon="11.7437583"><ele>372.0</ele><time>2026-04-03T09:40:49.104Z</time></trkpt><trkpt lat="42.8454083" lon="11.7436117"><ele>372.0</ele><time>2026-04-03T09:40:50.104Z</time></trkpt><trkpt lat="42.8455233" lon="11.74349"><ele>372.0</ele><time>2026-04-03T09:40:51.103Z</time></trkpt><trkpt lat="42.84566" lon="11.7433817"><ele>375.25</ele><time>2026-04-03T09:40:52.104Z</time></trkpt><trkpt lat="42.8457983" lon="11.7432917"><ele>378.5</ele><time>2026-04-03T09:40:53.103Z</time></trkpt><trkpt lat="42.84594" lon="11.7432367"><ele>381.75</ele><time>2026-04-03T09:40:54.103Z</time></trkpt><trkpt lat="42.8460683" lon="11.7432183"><ele>385.0</ele><time>2026-04-03T09:40:55.104Z</time></trkpt><trkpt lat="42.846195" lon="11.7432267"><ele>385.33333333333337</ele><time>2026-04-03T09:40:56.104Z</time></trkpt><trkpt lat="42.8463383" lon="11.74325"><ele>385.66666666666663</ele><time>2026-04-03T09:40:57.103Z</time></trkpt><trkpt lat="42.8464967" lon="11.7432767"><ele>386.0</ele><time>2026-04-03T09:40:58.103Z</time></trkpt><trkpt lat="42.846665" lon="11.7433083"><ele>388.0</ele><time>2026-04-03T09:40:59.104Z</time></trkpt><trkpt lat="42.84685" lon="11.7433383"><ele>390.0</ele><time>2026-04-03T09:41:00.103Z</time></trkpt><trkpt lat="42.8470317" lon="11.74336"><ele>392.0</ele><time>2026-04-03T09:41:01.104Z</time></trkpt><trkpt lat="42.8472233" lon="11.7433917"><ele>392.0</ele><time>2026-04-03T09:41:02.104Z</time></trkpt><trkpt lat="42.8474217" lon="11.7434167"><ele>392.0</ele><time>2026-04-03T09:41:03.103Z</time></trkpt><trkpt lat="42.8476117" lon="11.7434033"><ele>392.0</ele><time>2026-04-03T09:41:04.103Z</time></trkpt><trkpt lat="42.8478067" lon="11.7433733"><ele>395.0</ele><time>2026-04-03T09:41:05.104Z</time></trkpt><trkpt lat="42.8479933" lon="11.7433083"><ele>398.0</ele><time>2026-04-03T09:41:06.103Z</time></trkpt><trkpt lat="42.8481883" lon="11.74323"><ele>401.0</ele><time>2026-04-03T09:41:07.103Z</time></trkpt><trkpt lat="42.848365" lon="11.7431383"><ele>399.3333333333333</ele><time>2026-04-03T09:41:08.103Z</time></trkpt><trkpt lat="42.84852" lon="11.7430417"><ele>397.66666666666663</ele><time>2026-04-03T09:41:09.103Z</time></trkpt><trkpt lat="42.8486533" lon="11.7429467"><ele>396.0</ele><time>2026-04-03T09:41:10.103Z</time></trkpt><trkpt lat="42.848785" lon="11.7428733"><ele>396.0</ele><time>2026-04-03T09:41:11.104Z</time></trkpt><trkpt lat="42.848905" lon="11.7428117"><ele>396.0</ele><time>2026-04-03T09:41:12.103Z</time></trkpt><trkpt lat="42.8490167" lon="11.7427317"><ele>396.0</ele><time>2026-04-03T09:41:13.103Z</time></trkpt><trkpt lat="42.8491283" lon="11.7426417"><ele>396.0</ele><time>2026-04-03T09:41:14.103Z</time></trkpt><trkpt lat="42.84924" lon="11.7425267"><ele>394.66666666666663</ele><time>2026-04-03T09:41:15.103Z</time></trkpt><trkpt lat="42.8493417" lon="11.742385"><ele>393.3333333333333</ele><time>2026-04-03T09:41:16.103Z</time></trkpt><trkpt lat="42.8494483" lon="11.742235"><ele>392.0</ele><time>2026-04-03T09:41:17.103Z</time></trkpt><trkpt lat="42.8495567" lon="11.742085"><ele>392.0</ele><time>2026-04-03T09:41:18.103Z</time></trkpt><trkpt lat="42.8496583" lon="11.741925"><ele>392.0</ele><time>2026-04-03T09:41:19.103Z</time></trkpt><trkpt lat="42.84977" lon="11.7417517"><ele>392.0</ele><time>2026-04-03T09:41:20.103Z</time></trkpt><trkpt lat="42.8498767" lon="11.7415717"><ele>394.0</ele><time>2026-04-03T09:41:21.104Z</time></trkpt><trkpt lat="42.84998" lon="11.7414083"><ele>396.0</ele><time>2026-04-03T09:41:22.103Z</time></trkpt><trkpt lat="42.8500767" lon="11.741285"><ele>398.0</ele><time>2026-04-03T09:41:23.103Z</time></trkpt><trkpt lat="42.85019" lon="11.7411733"><ele>400.0</ele><time>2026-04-03T09:41:24.103Z</time></trkpt><trkpt lat="42.8503167" lon="11.7410817"><ele>402.25</ele><time>2026-04-03T09:41:25.103Z</time></trkpt><trkpt lat="42.8504183" lon="11.7410033"><ele>404.5</ele><time>2026-04-03T09:41:26.103Z</time></trkpt><trkpt lat="42.8505367" lon="11.7409183"><ele>406.75</ele><time>2026-04-03T09:41:27.103Z</time></trkpt><trkpt lat="42.8506483" lon="11.740845"><ele>409.0</ele><time>2026-04-03T09:41:28.103Z</time></trkpt><trkpt lat="42.8507483" lon="11.7407783"><ele>409.0</ele><time>2026-04-03T09:41:29.103Z</time></trkpt><trkpt lat="42.85082" lon="11.7406783"><ele>409.0</ele><time>2026-04-03T09:41:30.103Z</time></trkpt><trkpt lat="42.8508783" lon="11.740555"><ele>409.0</ele><time>2026-04-03T09:41:31.103Z</time></trkpt><trkpt lat="42.85093" lon="11.7404033"><ele>409.0</ele><time>2026-04-03T09:41:32.104Z</time></trkpt><trkpt lat="42.8509533" lon="11.74022"><ele>408.0</ele><time>2026-04-03T09:41:33.103Z</time></trkpt><trkpt lat="42.8509717" lon="11.7400333"><ele>407.0</ele><time>2026-04-03T09:41:34.103Z</time></trkpt><trkpt lat="42.8510067" lon="11.7398867"><ele>406.0</ele><time>2026-04-03T09:41:35.103Z</time></trkpt><trkpt lat="42.851065" lon="11.7397583"><ele>405.0</ele><time>2026-04-03T09:41:36.103Z</time></trkpt><trkpt lat="42.851135" lon="11.73963"><ele>405.0</ele><time>2026-04-03T09:41:37.103Z</time></trkpt><trkpt lat="42.851215" lon="11.7395067"><ele>405.0</ele><time>2026-04-03T09:41:38.104Z</time></trkpt><trkpt lat="42.85128" lon="11.7393783"><ele>405.0</ele><time>2026-04-03T09:41:39.103Z</time></trkpt><trkpt lat="42.85132" lon="11.7392483"><ele>405.0</ele><time>2026-04-03T09:41:40.103Z</time></trkpt><trkpt lat="42.85133" lon="11.7391083"><ele>405.0</ele><time>2026-04-03T09:41:41.103Z</time></trkpt><trkpt lat="42.8513117" lon="11.7389917"><ele>405.2</ele><time>2026-04-03T09:41:42.103Z</time></trkpt><trkpt lat="42.8512783" lon="11.738885"><ele>405.4</ele><time>2026-04-03T09:41:43.103Z</time></trkpt><trkpt lat="42.8512167" lon="11.7387933"><ele>405.6</ele><time>2026-04-03T09:41:44.103Z</time></trkpt><trkpt lat="42.8511283" lon="11.7387017"><ele>405.8</ele><time>2026-04-03T09:41:45.103Z</time></trkpt><trkpt lat="42.8510133" lon="11.7385883"><ele>406.0</ele><time>2026-04-03T09:41:46.104Z</time></trkpt><trkpt lat="42.85088" lon="11.7384733"><ele>406.0</ele><time>2026-04-03T09:41:47.103Z</time></trkpt><trkpt lat="42.8507483" lon="11.7383417"><ele>406.0</ele><time>2026-04-03T09:41:48.103Z</time></trkpt><trkpt lat="42.8506217" lon="11.7382067"><ele>406.0</ele><time>2026-04-03T09:41:49.104Z</time></trkpt><trkpt lat="42.8505133" lon="11.7380833"><ele>406.0</ele><time>2026-04-03T09:41:50.103Z</time></trkpt><trkpt lat="42.8504283" lon="11.7379683"><ele>406.0</ele><time>2026-04-03T09:41:51.104Z</time></trkpt><trkpt lat="42.85037" lon="11.7378667"><ele>406.0</ele><time>2026-04-03T09:41:52.103Z</time></trkpt><trkpt lat="42.8503417" lon="11.737765"><ele>406.0</ele><time>2026-04-03T09:41:53.103Z</time></trkpt><trkpt lat="42.85033" lon="11.7376783"><ele>406.0</ele><time>2026-04-03T09:41:54.102Z</time></trkpt><trkpt lat="42.8503783" lon="11.7375233"><ele>408.8</ele><time>2026-04-03T09:41:56.103Z</time></trkpt><trkpt lat="42.8504433" lon="11.7374467"><ele>411.6</ele><time>2026-04-03T09:41:57.102Z</time></trkpt><trkpt lat="42.850535" lon="11.7373983"><ele>414.4</ele><time>2026-04-03T09:41:58.102Z</time></trkpt><trkpt lat="42.8506433" lon="11.7373683"><ele>417.2</ele><time>2026-04-03T09:41:59.102Z</time></trkpt><trkpt lat="42.850765" lon="11.73734"><ele>420.0</ele><time>2026-04-03T09:42:00.102Z</time></trkpt><trkpt lat="42.8508683" lon="11.7372933"><ele>419.25</ele><time>2026-04-03T09:42:01.103Z</time></trkpt><trkpt lat="42.8509633" lon="11.737215"><ele>418.5</ele><time>2026-04-03T09:42:02.102Z</time></trkpt><trkpt lat="42.8510617" lon="11.737115"><ele>417.75</ele><time>2026-04-03T09:42:03.103Z</time></trkpt><trkpt lat="42.8511667" lon="11.7370167"><ele>417.0</ele><time>2026-04-03T09:42:04.102Z</time></trkpt><trkpt lat="42.851275" lon="11.7369167"><ele>419.75</ele><time>2026-04-03T09:42:05.102Z</time></trkpt><trkpt lat="42.8513883" lon="11.7368033"><ele>422.5</ele><time>2026-04-03T09:42:06.102Z</time></trkpt><trkpt lat="42.851495" lon="11.736675"><ele>425.25</ele><time>2026-04-03T09:42:07.102Z</time></trkpt><trkpt lat="42.8516083" lon="11.7365367"><ele>428.0</ele><time>2026-04-03T09:42:08.102Z</time></trkpt><trkpt lat="42.8517217" lon="11.73643"><ele>427.5</ele><time>2026-04-03T09:42:09.103Z</time></trkpt><trkpt lat="42.8518417" lon="11.7363833"><ele>427.0</ele><time>2026-04-03T09:42:10.102Z</time></trkpt><trkpt lat="42.8519767" lon="11.7363533"><ele>426.5</ele><time>2026-04-03T09:42:11.102Z</time></trkpt><trkpt lat="42.8521133" lon="11.7363217"><ele>426.0</ele><time>2026-04-03T09:42:12.102Z</time></trkpt><trkpt lat="42.8522367" lon="11.7362883"><ele>426.0</ele><time>2026-04-03T09:42:13.103Z</time></trkpt><trkpt lat="42.85235" lon="11.7362483"><ele>426.0</ele><time>2026-04-03T09:42:14.103Z</time></trkpt><trkpt lat="42.8524517" lon="11.7361983"><ele>426.0</ele><time>2026-04-03T09:42:15.103Z</time></trkpt><trkpt lat="42.8525417" lon="11.7361383"><ele>426.0</ele><time>2026-04-03T09:42:16.102Z</time></trkpt><trkpt lat="42.852625" lon="11.7360433"><ele>426.0</ele><time>2026-04-03T09:42:17.102Z</time></trkpt><trkpt lat="42.8527017" lon="11.735945"><ele>428.1666666666667</ele><time>2026-04-03T09:42:18.102Z</time></trkpt><trkpt lat="42.8527717" lon="11.735865"><ele>430.33333333333337</ele><time>2026-04-03T09:42:19.102Z</time></trkpt><trkpt lat="42.85283" lon="11.7358117"><ele>432.5</ele><time>2026-04-03T09:42:20.103Z</time></trkpt><trkpt lat="42.8528983" lon="11.7357817"><ele>434.6666666666667</ele><time>2026-04-03T09:42:22.102Z</time></trkpt><trkpt lat="42.8529983" lon="11.7357783"><ele>436.83333333333337</ele><time>2026-04-03T09:42:31.103Z</time></trkpt><trkpt lat="42.8530617" lon="11.735765"><ele>439.0</ele><time>2026-04-03T09:42:32.103Z</time></trkpt><trkpt lat="42.8531283" lon="11.7357467"><ele>439.0</ele><time>2026-04-03T09:42:33.102Z</time></trkpt><trkpt lat="42.8531967" lon="11.7357183"><ele>439.0</ele><time>2026-04-03T09:42:34.102Z</time></trkpt><trkpt lat="42.853265" lon="11.73569"><ele>439.0</ele><time>2026-04-03T09:42:35.103Z</time></trkpt><trkpt lat="42.8533283" lon="11.7356617"><ele>439.0</ele><time>2026-04-03T09:42:36.103Z</time></trkpt><trkpt lat="42.8533883" lon="11.73563"><ele>439.0</ele><time>2026-04-03T09:42:37.102Z</time></trkpt><trkpt lat="42.8534483" lon="11.7355933"><ele>439.0</ele><time>2026-04-03T09:42:38.103Z</time></trkpt><trkpt lat="42.8535133" lon="11.7355633"><ele>439.0</ele><time>2026-04-03T09:42:39.102Z</time></trkpt><trkpt lat="42.8535833" lon="11.7355367"><ele>440.7142857142857</ele><time>2026-04-03T09:42:40.102Z</time></trkpt><trkpt lat="42.853655" lon="11.7355067"><ele>442.42857142857144</ele><time>2026-04-03T09:42:41.102Z</time></trkpt><trkpt lat="42.853725" lon="11.7354667"><ele>444.1428571428571</ele><time>2026-04-03T09:42:42.102Z</time></trkpt><trkpt lat="42.853795" lon="11.7354233"><ele>445.8571428571429</ele><time>2026-04-03T09:42:43.102Z</time></trkpt><trkpt lat="42.8538533" lon="11.7353733"><ele>447.5714285714286</ele><time>2026-04-03T09:42:44.102Z</time></trkpt><trkpt lat="42.8539083" lon="11.7353183"><ele>449.2857142857143</ele><time>2026-04-03T09:42:45.103Z</time></trkpt><trkpt lat="42.8539567" lon="11.7352633"><ele>451.0</ele><time>2026-04-03T09:42:46.102Z</time></trkpt><trkpt lat="42.854045" lon="11.7351483"><ele>451.00000000000006</ele><time>2026-04-03T09:42:48.102Z</time></trkpt><trkpt lat="42.8541483" lon="11.7350483"><ele>451.0</ele><time>2026-04-03T09:42:50.102Z</time></trkpt><trkpt lat="42.854215" lon="11.7349917"><ele>451.0</ele><time>2026-04-03T09:42:51.102Z</time></trkpt><trkpt lat="42.85429" lon="11.7349383"><ele>451.0</ele><time>2026-04-03T09:42:52.102Z</time></trkpt><trkpt lat="42.854365" lon="11.7349033"><ele>451.00000000000006</ele><time>2026-04-03T09:42:53.102Z</time></trkpt><trkpt lat="42.8544333" lon="11.7348833"><ele>451.0</ele><time>2026-04-03T09:42:54.103Z</time></trkpt><trkpt lat="42.85451" lon="11.73485"><ele>453.00000000000006</ele><time>2026-04-03T09:42:55.102Z</time></trkpt><trkpt lat="42.854585" lon="11.7348067"><ele>455.0</ele><time>2026-04-03T09:42:56.102Z</time></trkpt><trkpt lat="42.8546617" lon="11.73477"><ele>457.0</ele><time>2026-04-03T09:42:57.102Z</time></trkpt><trkpt lat="42.854725" lon="11.7347633"><ele>459.0</ele><time>2026-04-03T09:42:58.102Z</time></trkpt><trkpt lat="42.8548533" lon="11.7348167"><ele>461.00000000000006</ele><time>2026-04-03T09:43:00.102Z</time></trkpt><trkpt lat="42.8549267" lon="11.7348683"><ele>463.0</ele><time>2026-04-03T09:43:01.102Z</time></trkpt><trkpt lat="42.8550083" lon="11.734925"><ele>463.00000000000006</ele><time>2026-04-03T09:43:02.102Z</time></trkpt><trkpt lat="42.8550867" lon="11.7349617"><ele>463.0</ele><time>2026-04-03T09:43:03.102Z</time></trkpt><trkpt lat="42.85515" lon="11.7349667"><ele>463.0</ele><time>2026-04-03T09:43:04.102Z</time></trkpt><trkpt lat="42.85525" lon="11.7349067"><ele>463.0</ele><time>2026-04-03T09:43:06.102Z</time></trkpt><trkpt lat="42.8552817" lon="11.7348267"><ele>463.00000000000006</ele><time>2026-04-03T09:43:07.103Z</time></trkpt><trkpt lat="42.8552933" lon="11.7347217"><ele>463.0</ele><time>2026-04-03T09:43:08.103Z</time></trkpt><trkpt lat="42.85531" lon="11.73462"><ele>463.6666666666667</ele><time>2026-04-03T09:43:09.102Z</time></trkpt><trkpt lat="42.8553383" lon="11.734525"><ele>464.33333333333337</ele><time>2026-04-03T09:43:10.102Z</time></trkpt><trkpt lat="42.8553883" lon="11.73444"><ele>465.0</ele><time>2026-04-03T09:43:11.102Z</time></trkpt><trkpt lat="42.85545" lon="11.734405"><ele>465.66666666666663</ele><time>2026-04-03T09:43:12.102Z</time></trkpt><trkpt lat="42.8555217" lon="11.7343983"><ele>466.3333333333333</ele><time>2026-04-03T09:43:13.102Z</time></trkpt><trkpt lat="42.8556033" lon="11.7344017"><ele>467.0</ele><time>2026-04-03T09:43:14.102Z</time></trkpt><trkpt lat="42.85568" lon="11.7344"><ele>466.99999999999994</ele><time>2026-04-03T09:43:15.102Z</time></trkpt><trkpt lat="42.8557583" lon="11.7343983"><ele>467.0</ele><time>2026-04-03T09:43:16.102Z</time></trkpt><trkpt lat="42.8558383" lon="11.7343867"><ele>467.0</ele><time>2026-04-03T09:43:17.103Z</time></trkpt><trkpt lat="42.8559217" lon="11.73437"><ele>467.0</ele><time>2026-04-03T09:43:18.103Z</time></trkpt><trkpt lat="42.856" lon="11.7343683"><ele>466.99999999999994</ele><time>2026-04-03T09:43:19.102Z</time></trkpt><trkpt lat="42.856075" lon="11.7343667"><ele>467.0</ele><time>2026-04-03T09:43:20.102Z</time></trkpt><trkpt lat="42.8561583" lon="11.73436"><ele>470.66666666666663</ele><time>2026-04-03T09:43:21.103Z</time></trkpt><trkpt lat="42.856245" lon="11.7343483"><ele>474.3333333333333</ele><time>2026-04-03T09:43:22.103Z</time></trkpt><trkpt lat="42.856335" lon="11.7343367"><ele>478.0</ele><time>2026-04-03T09:43:23.102Z</time></trkpt><trkpt lat="42.856425" lon="11.7343233"><ele>481.66666666666663</ele><time>2026-04-03T09:43:24.102Z</time></trkpt><trkpt lat="42.8565033" lon="11.7343017"><ele>485.3333333333333</ele><time>2026-04-03T09:43:25.102Z</time></trkpt><trkpt lat="42.8565733" lon="11.734285"><ele>489.0</ele><time>2026-04-03T09:43:26.102Z</time></trkpt><trkpt lat="42.8566417" lon="11.7342633"><ele>489.0</ele><time>2026-04-03T09:43:27.103Z</time></trkpt><trkpt lat="42.8567083" lon="11.73424"><ele>489.00000000000006</ele><time>2026-04-03T09:43:28.102Z</time></trkpt><trkpt lat="42.85677" lon="11.734205"><ele>489.0</ele><time>2026-04-03T09:43:29.103Z</time></trkpt><trkpt lat="42.8568383" lon="11.734165"><ele>489.0</ele><time>2026-04-03T09:43:30.103Z</time></trkpt><trkpt lat="42.8569067" lon="11.7341183"><ele>489.00000000000006</ele><time>2026-04-03T09:43:31.102Z</time></trkpt><trkpt lat="42.8569733" lon="11.7340767"><ele>489.0</ele><time>2026-04-03T09:43:32.103Z</time></trkpt><trkpt lat="42.8570517" lon="11.7340333"><ele>489.0</ele><time>2026-04-03T09:43:33.103Z</time></trkpt><trkpt lat="42.8571233" lon="11.7339883"><ele>489.1666666666667</ele><time>2026-04-03T09:43:34.102Z</time></trkpt><trkpt lat="42.8571967" lon="11.73393"><ele>489.33333333333337</ele><time>2026-04-03T09:43:35.102Z</time></trkpt><trkpt lat="42.8572617" lon="11.733855"><ele>489.5</ele><time>2026-04-03T09:43:36.102Z</time></trkpt><trkpt lat="42.8573233" lon="11.7337817"><ele>489.6666666666667</ele><time>2026-04-03T09:43:37.102Z</time></trkpt><trkpt lat="42.8573867" lon="11.7337033"><ele>489.83333333333337</ele><time>2026-04-03T09:43:38.102Z</time></trkpt><trkpt lat="42.8574483" lon="11.7336183"><ele>490.0</ele><time>2026-04-03T09:43:39.102Z</time></trkpt><trkpt lat="42.85751" lon="11.7335317"><ele>490.6666666666667</ele><time>2026-04-03T09:43:40.102Z</time></trkpt><trkpt lat="42.857575" lon="11.7334383"><ele>491.33333333333337</ele><time>2026-04-03T09:43:41.102Z</time></trkpt><trkpt lat="42.8576333" lon="11.7333467"><ele>492.0</ele><time>2026-04-03T09:43:42.102Z</time></trkpt><trkpt lat="42.8576967" lon="11.7332567"><ele>492.66666666666663</ele><time>2026-04-03T09:43:43.102Z</time></trkpt><trkpt lat="42.85776" lon="11.7331717"><ele>493.3333333333333</ele><time>2026-04-03T09:43:44.103Z</time></trkpt><trkpt lat="42.8578133" lon="11.73309"><ele>494.0</ele><time>2026-04-03T09:43:45.103Z</time></trkpt><trkpt lat="42.8578633" lon="11.7330167"><ele>494.0</ele><time>2026-04-03T09:43:46.102Z</time></trkpt><trkpt lat="42.8579433" lon="11.7329183"><ele>494.0</ele><time>2026-04-03T09:43:48.102Z</time></trkpt><trkpt lat="42.8579967" lon="11.7328483"><ele>494.0</ele><time>2026-04-03T09:43:50.102Z</time></trkpt><trkpt lat="42.8580517" lon="11.7327633"><ele>494.0</ele><time>2026-04-03T09:43:53.103Z</time></trkpt><trkpt lat="42.8580967" lon="11.7326917"><ele>494.0</ele><time>2026-04-03T09:43:56.102Z</time></trkpt><trkpt lat="42.8581833" lon="11.7325717"><ele>493.79999999999995</ele><time>2026-04-03T09:44:30.102Z</time></trkpt><trkpt lat="42.858245" lon="11.73252"><ele>493.59999999999997</ele><time>2026-04-03T09:44:31.102Z</time></trkpt><trkpt lat="42.8583317" lon="11.732455"><ele>493.4</ele><time>2026-04-03T09:44:32.102Z</time></trkpt><trkpt lat="42.858435" lon="11.73241"><ele>493.2</ele><time>2026-04-03T09:44:33.102Z</time></trkpt><trkpt lat="42.858545" lon="11.732375"><ele>493.0</ele><time>2026-04-03T09:44:34.103Z</time></trkpt><trkpt lat="42.8586367" lon="11.732345"><ele>493.0</ele><time>2026-04-03T09:44:35.102Z</time></trkpt><trkpt lat="42.8587217" lon="11.7323267"><ele>492.99999999999994</ele><time>2026-04-03T09:44:36.102Z</time></trkpt><trkpt lat="42.8587933" lon="11.7322833"><ele>492.99999999999994</ele><time>2026-04-03T09:44:37.103Z</time></trkpt><trkpt lat="42.8588667" lon="11.7321983"><ele>493.0</ele><time>2026-04-03T09:44:38.102Z</time></trkpt><trkpt lat="42.85894" lon="11.732085"><ele>493.0</ele><time>2026-04-03T09:44:39.102Z</time></trkpt><trkpt lat="42.8590117" lon="11.73195"><ele>492.25</ele><time>2026-04-03T09:44:40.102Z</time></trkpt><trkpt lat="42.8590817" lon="11.731815"><ele>491.5</ele><time>2026-04-03T09:44:41.102Z</time></trkpt><trkpt lat="42.8591483" lon="11.7316717"><ele>490.75</ele><time>2026-04-03T09:44:42.102Z</time></trkpt><trkpt lat="42.859225" lon="11.7315217"><ele>490.0</ele><time>2026-04-03T09:44:43.102Z</time></trkpt><trkpt lat="42.8593" lon="11.73138"><ele>490.0</ele><time>2026-04-03T09:44:44.102Z</time></trkpt><trkpt lat="42.8593717" lon="11.7312467"><ele>490.0</ele><time>2026-04-03T09:44:45.102Z</time></trkpt><trkpt lat="42.8594617" lon="11.7311267"><ele>490.0</ele><time>2026-04-03T09:44:46.102Z</time></trkpt><trkpt lat="42.85955" lon="11.7310083"><ele>490.0</ele><time>2026-04-03T09:44:47.102Z</time></trkpt><trkpt lat="42.85963" lon="11.730885"><ele>493.0</ele><time>2026-04-03T09:44:48.103Z</time></trkpt><trkpt lat="42.8597317" lon="11.7307717"><ele>496.0</ele><time>2026-04-03T09:44:49.103Z</time></trkpt><trkpt lat="42.859835" lon="11.7306633"><ele>499.0</ele><time>2026-04-03T09:44:50.102Z</time></trkpt><trkpt lat="42.85994" lon="11.7305567"><ele>502.0</ele><time>2026-04-03T09:44:51.102Z</time></trkpt><trkpt lat="42.8600383" lon="11.7304483"><ele>502.0</ele><time>2026-04-03T09:44:52.102Z</time></trkpt><trkpt lat="42.86014" lon="11.7303333"><ele>502.0</ele><time>2026-04-03T09:44:53.102Z</time></trkpt><trkpt lat="42.860245" lon="11.7302283"><ele>502.0</ele><time>2026-04-03T09:44:54.103Z</time></trkpt><trkpt lat="42.8603583" lon="11.7301267"><ele>502.0</ele><time>2026-04-03T09:44:55.102Z</time></trkpt><trkpt lat="42.8604667" lon="11.7300233"><ele>502.0</ele><time>2026-04-03T09:44:56.102Z</time></trkpt><trkpt lat="42.86056" lon="11.7299317"><ele>502.00000000000006</ele><time>2026-04-03T09:44:57.102Z</time></trkpt><trkpt lat="42.8606433" lon="11.729835"><ele>502.00000000000006</ele><time>2026-04-03T09:44:58.102Z</time></trkpt><trkpt lat="42.8606967" lon="11.7297417"><ele>502.0</ele><time>2026-04-03T09:44:59.102Z</time></trkpt><trkpt lat="42.8607333" lon="11.7296433"><ele>502.0</ele><time>2026-04-03T09:45:00.102Z</time></trkpt><trkpt lat="42.8607483" lon="11.72953"><ele>502.0</ele><time>2026-04-03T09:45:01.102Z</time></trkpt><trkpt lat="42.8607467" lon="11.7294033"><ele>502.00000000000006</ele><time>2026-04-03T09:45:02.103Z</time></trkpt><trkpt lat="42.8607367" lon="11.7292683"><ele>502.00000000000006</ele><time>2026-04-03T09:45:03.103Z</time></trkpt><trkpt lat="42.860735" lon="11.7291383"><ele>502.0</ele><time>2026-04-03T09:45:04.102Z</time></trkpt><trkpt lat="42.8607533" lon="11.7290033"><ele>502.0</ele><time>2026-04-03T09:45:05.102Z</time></trkpt><trkpt lat="42.8607967" lon="11.7288733"><ele>502.75</ele><time>2026-04-03T09:45:06.102Z</time></trkpt><trkpt lat="42.86086" lon="11.7287617"><ele>503.5</ele><time>2026-04-03T09:45:07.102Z</time></trkpt><trkpt lat="42.8609317" lon="11.7286467"><ele>504.25</ele><time>2026-04-03T09:45:08.102Z</time></trkpt><trkpt lat="42.8610183" lon="11.7285383"><ele>505.0</ele><time>2026-04-03T09:45:09.102Z</time></trkpt><trkpt lat="42.8611183" lon="11.72844"><ele>507.0</ele><time>2026-04-03T09:45:10.103Z</time></trkpt><trkpt lat="42.8612267" lon="11.7283417"><ele>509.0</ele><time>2026-04-03T09:45:11.103Z</time></trkpt><trkpt lat="42.8613383" lon="11.72824"><ele>511.0</ele><time>2026-04-03T09:45:12.103Z</time></trkpt><trkpt lat="42.8614533" lon="11.728135"><ele>513.0</ele><time>2026-04-03T09:45:13.102Z</time></trkpt><trkpt lat="42.861575" lon="11.72804"><ele>513.0</ele><time>2026-04-03T09:45:14.102Z</time></trkpt><trkpt lat="42.8617" lon="11.727935"><ele>513.0</ele><time>2026-04-03T09:45:15.102Z</time></trkpt><trkpt lat="42.861815" lon="11.7278167"><ele>513.0</ele><time>2026-04-03T09:45:16.102Z</time></trkpt><trkpt lat="42.8619333" lon="11.7277"><ele>513.0</ele><time>2026-04-03T09:45:17.102Z</time></trkpt><trkpt lat="42.8620567" lon="11.7276"><ele>514.6666666666666</ele><time>2026-04-03T09:45:18.102Z</time></trkpt><trkpt lat="42.8621867" lon="11.727495"><ele>516.3333333333333</ele><time>2026-04-03T09:45:19.102Z</time></trkpt><trkpt lat="42.8623217" lon="11.7273833"><ele>518.0</ele><time>2026-04-03T09:45:20.103Z</time></trkpt><trkpt lat="42.8624533" lon="11.72727"><ele>518.0</ele><time>2026-04-03T09:45:21.102Z</time></trkpt><trkpt lat="42.86259" lon="11.72715"><ele>518.0</ele><time>2026-04-03T09:45:22.102Z</time></trkpt><trkpt lat="42.8627267" lon="11.727035"><ele>518.0</ele><time>2026-04-03T09:45:23.102Z</time></trkpt><trkpt lat="42.8628617" lon="11.72694"><ele>520.0</ele><time>2026-04-03T09:45:24.102Z</time></trkpt><trkpt lat="42.863" lon="11.72683"><ele>522.0</ele><time>2026-04-03T09:45:25.102Z</time></trkpt><trkpt lat="42.8631367" lon="11.7266983"><ele>524.0</ele><time>2026-04-03T09:45:26.103Z</time></trkpt><trkpt lat="42.8632733" lon="11.7265733"><ele>524.0</ele><time>2026-04-03T09:45:27.102Z</time></trkpt><trkpt lat="42.8634017" lon="11.726455"><ele>524.0</ele><time>2026-04-03T09:45:28.102Z</time></trkpt><trkpt lat="42.8635283" lon="11.7263433"><ele>524.0</ele><time>2026-04-03T09:45:29.102Z</time></trkpt><trkpt lat="42.863665" lon="11.7262317"><ele>523.3333333333333</ele><time>2026-04-03T09:45:30.102Z</time></trkpt><trkpt lat="42.8637983" lon="11.7261167"><ele>522.6666666666666</ele><time>2026-04-03T09:45:31.102Z</time></trkpt><trkpt lat="42.8639317" lon="11.7259933"><ele>522.0</ele><time>2026-04-03T09:45:32.102Z</time></trkpt><trkpt lat="42.86406" lon="11.72588"><ele>522.0</ele><time>2026-04-03T09:45:33.102Z</time></trkpt><trkpt lat="42.8641933" lon="11.7257667"><ele>522.0</ele><time>2026-04-03T09:45:34.102Z</time></trkpt><trkpt lat="42.8643117" lon="11.72568"><ele>522.0</ele><time>2026-04-03T09:45:35.102Z</time></trkpt><trkpt lat="42.864435" lon="11.7256017"><ele>522.0</ele><time>2026-04-03T09:45:36.102Z</time></trkpt><trkpt lat="42.8645417" lon="11.7255367"><ele>522.0</ele><time>2026-04-03T09:45:37.102Z</time></trkpt><trkpt lat="42.8646283" lon="11.7254767"><ele>522.0</ele><time>2026-04-03T09:45:38.102Z</time></trkpt><trkpt lat="42.8647083" lon="11.7253967"><ele>522.0</ele><time>2026-04-03T09:45:39.102Z</time></trkpt><trkpt lat="42.864765" lon="11.7253083"><ele>522.0</ele><time>2026-04-03T09:45:40.103Z</time></trkpt><trkpt lat="42.8648317" lon="11.7251767"><ele>522.0</ele><time>2026-04-03T09:45:41.102Z</time></trkpt><trkpt lat="42.8648917" lon="11.72503"><ele>522.0</ele><time>2026-04-03T09:45:42.103Z</time></trkpt><trkpt lat="42.86496" lon="11.7248783"><ele>522.0</ele><time>2026-04-03T09:45:43.103Z</time></trkpt><trkpt lat="42.86503" lon="11.7247183"><ele>522.0</ele><time>2026-04-03T09:45:44.103Z</time></trkpt><trkpt lat="42.8650933" lon="11.7245517"><ele>522.0</ele><time>2026-04-03T09:45:45.102Z</time></trkpt><trkpt lat="42.8651633" lon="11.7243883"><ele>521.5</ele><time>2026-04-03T09:45:46.102Z</time></trkpt><trkpt lat="42.86524" lon="11.7242333"><ele>521.0</ele><time>2026-04-03T09:45:47.102Z</time></trkpt><trkpt lat="42.86532" lon="11.7240917"><ele>520.5</ele><time>2026-04-03T09:45:48.102Z</time></trkpt><trkpt lat="42.8654117" lon="11.723965"><ele>520.0</ele><time>2026-04-03T09:45:49.102Z</time></trkpt><trkpt lat="42.865515" lon="11.7238467"><ele>520.0</ele><time>2026-04-03T09:45:50.102Z</time></trkpt><trkpt lat="42.8656283" lon="11.7237383"><ele>520.0</ele><time>2026-04-03T09:45:51.102Z</time></trkpt><trkpt lat="42.8657467" lon="11.7236283"><ele>520.0</ele><time>2026-04-03T09:45:52.102Z</time></trkpt><trkpt lat="42.865865" lon="11.723535"><ele>520.0</ele><time>2026-04-03T09:45:53.102Z</time></trkpt><trkpt lat="42.86598" lon="11.7234383"><ele>521.25</ele><time>2026-04-03T09:45:54.102Z</time></trkpt><trkpt lat="42.8660667" lon="11.7233283"><ele>522.5</ele><time>2026-04-03T09:45:55.103Z</time></trkpt><trkpt lat="42.86615" lon="11.7232033"><ele>523.75</ele><time>2026-04-03T09:45:56.102Z</time></trkpt><trkpt lat="42.8662167" lon="11.7230567"><ele>525.0</ele><time>2026-04-03T09:45:57.103Z</time></trkpt><trkpt lat="42.8662867" lon="11.7228917"><ele>529.0</ele><time>2026-04-03T09:45:58.102Z</time></trkpt><trkpt lat="42.8663583" lon="11.7227117"><ele>533.0</ele><time>2026-04-03T09:45:59.102Z</time></trkpt><trkpt lat="42.86643" lon="11.7225167"><ele>537.0</ele><time>2026-04-03T09:46:00.102Z</time></trkpt><trkpt lat="42.8665067" lon="11.72232"><ele>537.0</ele><time>2026-04-03T09:46:01.102Z</time></trkpt><trkpt lat="42.86659" lon="11.7221117"><ele>537.0</ele><time>2026-04-03T09:46:02.102Z</time></trkpt><trkpt lat="42.8666783" lon="11.7218983"><ele>537.0</ele><time>2026-04-03T09:46:03.103Z</time></trkpt><trkpt lat="42.86677" lon="11.7216883"><ele>538.3333333333334</ele><time>2026-04-03T09:46:04.102Z</time></trkpt><trkpt lat="42.8668533" lon="11.721485"><ele>539.6666666666667</ele><time>2026-04-03T09:46:05.102Z</time></trkpt><trkpt lat="42.8669167" lon="11.7212767"><ele>541.0</ele><time>2026-04-03T09:46:06.102Z</time></trkpt><trkpt lat="42.8669667" lon="11.7210633"><ele>541.0</ele><time>2026-04-03T09:46:07.103Z</time></trkpt><trkpt lat="42.86701" lon="11.7208667"><ele>541.0</ele><time>2026-04-03T09:46:08.102Z</time></trkpt><trkpt lat="42.86704" lon="11.720695"><ele>541.0</ele><time>2026-04-03T09:46:09.103Z</time></trkpt><trkpt lat="42.8670333" lon="11.720545"><ele>541.0</ele><time>2026-04-03T09:46:10.102Z</time></trkpt><trkpt lat="42.867025" lon="11.7203967"><ele>541.0</ele><time>2026-04-03T09:46:11.102Z</time></trkpt><trkpt lat="42.8669983" lon="11.7202333"><ele>541.0</ele><time>2026-04-03T09:46:12.102Z</time></trkpt><trkpt lat="42.8669567" lon="11.7200667"><ele>541.0</ele><time>2026-04-03T09:46:13.102Z</time></trkpt><trkpt lat="42.8669" lon="11.7199167"><ele>541.0</ele><time>2026-04-03T09:46:14.102Z</time></trkpt><trkpt lat="42.8668583" lon="11.7197733"><ele>544.4</ele><time>2026-04-03T09:46:15.102Z</time></trkpt><trkpt lat="42.8668383" lon="11.7196417"><ele>547.8</ele><time>2026-04-03T09:46:16.102Z</time></trkpt><trkpt lat="42.866835" lon="11.71952"><ele>551.1999999999999</ele><time>2026-04-03T09:46:17.102Z</time></trkpt><trkpt lat="42.8668467" lon="11.7193983"><ele>554.6</ele><time>2026-04-03T09:46:18.102Z</time></trkpt><trkpt lat="42.866885" lon="11.7193017"><ele>558.0</ele><time>2026-04-03T09:46:19.102Z</time></trkpt><trkpt lat="42.8669517" lon="11.7192133"><ele>560.0</ele><time>2026-04-03T09:46:20.103Z</time></trkpt><trkpt lat="42.8670317" lon="11.719105"><ele>562.0</ele><time>2026-04-03T09:46:21.102Z</time></trkpt><trkpt lat="42.8671133" lon="11.718975"><ele>564.0</ele><time>2026-04-03T09:46:22.102Z</time></trkpt><trkpt lat="42.8671933" lon="11.7188217"><ele>566.0</ele><time>2026-04-03T09:46:23.101Z</time></trkpt><trkpt lat="42.8672583" lon="11.7186367"><ele>566.0</ele><time>2026-04-03T09:46:24.101Z</time></trkpt><trkpt lat="42.867325" lon="11.7184433"><ele>566.0</ele><time>2026-04-03T09:46:25.101Z</time></trkpt><trkpt lat="42.867405" lon="11.718275"><ele>566.0</ele><time>2026-04-03T09:46:26.102Z</time></trkpt><trkpt lat="42.8675017" lon="11.7181217"><ele>566.0</ele><time>2026-04-03T09:46:27.101Z</time></trkpt><trkpt lat="42.8676033" lon="11.7179817"><ele>566.0</ele><time>2026-04-03T09:46:28.101Z</time></trkpt><trkpt lat="42.8677133" lon="11.7178433"><ele>566.0</ele><time>2026-04-03T09:46:29.101Z</time></trkpt><trkpt lat="42.86782" lon="11.7176967"><ele>566.0</ele><time>2026-04-03T09:46:30.101Z</time></trkpt><trkpt lat="42.867945" lon="11.7175533"><ele>570.0</ele><time>2026-04-03T09:46:31.101Z</time></trkpt><trkpt lat="42.8680733" lon="11.7174033"><ele>574.0</ele><time>2026-04-03T09:46:32.101Z</time></trkpt><trkpt lat="42.8681933" lon="11.7172533"><ele>578.0</ele><time>2026-04-03T09:46:33.101Z</time></trkpt><trkpt lat="42.868295" lon="11.7170967"><ele>578.0</ele><time>2026-04-03T09:46:34.102Z</time></trkpt><trkpt lat="42.868415" lon="11.7169783"><ele>578.0</ele><time>2026-04-03T09:46:35.101Z</time></trkpt><trkpt lat="42.8685533" lon="11.7168483"><ele>578.0</ele><time>2026-04-03T09:46:36.101Z</time></trkpt><trkpt lat="42.8686767" lon="11.7166933"><ele>581.0</ele><time>2026-04-03T09:46:37.101Z</time></trkpt><trkpt lat="42.8687933" lon="11.71652"><ele>584.0</ele><time>2026-04-03T09:46:38.101Z</time></trkpt><trkpt lat="42.8688983" lon="11.716345"><ele>587.0</ele><time>2026-04-03T09:46:39.102Z</time></trkpt><trkpt lat="42.869" lon="11.7161617"><ele>584.0</ele><time>2026-04-03T09:46:40.101Z</time></trkpt><trkpt lat="42.869125" lon="11.7159733"><ele>581.0</ele><time>2026-04-03T09:46:41.102Z</time></trkpt><trkpt lat="42.86925" lon="11.7158067"><ele>578.0</ele><time>2026-04-03T09:46:42.102Z</time></trkpt><trkpt lat="42.86936" lon="11.7156583"><ele>581.25</ele><time>2026-04-03T09:46:43.101Z</time></trkpt><trkpt lat="42.8694583" lon="11.7155"><ele>584.5</ele><time>2026-04-03T09:46:44.101Z</time></trkpt><trkpt lat="42.86954" lon="11.71534"><ele>587.75</ele><time>2026-04-03T09:46:45.101Z</time></trkpt><trkpt lat="42.869595" lon="11.7151633"><ele>591.0</ele><time>2026-04-03T09:46:46.101Z</time></trkpt><trkpt lat="42.869665" lon="11.71501"><ele>591.0</ele><time>2026-04-03T09:46:47.101Z</time></trkpt><trkpt lat="42.8697483" lon="11.7148633"><ele>591.0</ele><time>2026-04-03T09:46:48.101Z</time></trkpt><trkpt lat="42.8698617" lon="11.714745"><ele>591.0</ele><time>2026-04-03T09:46:49.101Z</time></trkpt><trkpt lat="42.8699733" lon="11.7146217"><ele>591.0</ele><time>2026-04-03T09:46:50.102Z</time></trkpt><trkpt lat="42.8700833" lon="11.7145083"><ele>589.25</ele><time>2026-04-03T09:46:51.102Z</time></trkpt><trkpt lat="42.870205" lon="11.71442"><ele>587.5</ele><time>2026-04-03T09:46:52.101Z</time></trkpt><trkpt lat="42.87033" lon="11.7143467"><ele>585.75</ele><time>2026-04-03T09:46:53.101Z</time></trkpt><trkpt lat="42.8704567" lon="11.7142883"><ele>584.0</ele><time>2026-04-03T09:46:54.102Z</time></trkpt><trkpt lat="42.87058" lon="11.714265"><ele>584.0</ele><time>2026-04-03T09:46:55.102Z</time></trkpt><trkpt lat="42.870705" lon="11.7142567"><ele>584.0</ele><time>2026-04-03T09:46:56.101Z</time></trkpt><trkpt lat="42.8708283" lon="11.71425"><ele>584.0</ele><time>2026-04-03T09:46:57.101Z</time></trkpt><trkpt lat="42.8709633" lon="11.714235"><ele>584.0</ele><time>2026-04-03T09:46:58.101Z</time></trkpt><trkpt lat="42.8711017" lon="11.71422"><ele>587.75</ele><time>2026-04-03T09:46:59.101Z</time></trkpt><trkpt lat="42.8712283" lon="11.7141683"><ele>591.5</ele><time>2026-04-03T09:47:00.101Z</time></trkpt><trkpt lat="42.8713367" lon="11.7140817"><ele>595.25</ele><time>2026-04-03T09:47:01.101Z</time></trkpt><trkpt lat="42.8714367" lon="11.7139567"><ele>599.0</ele><time>2026-04-03T09:47:02.101Z</time></trkpt><trkpt lat="42.8715217" lon="11.7138067"><ele>599.0</ele><time>2026-04-03T09:47:03.101Z</time></trkpt><trkpt lat="42.8716067" lon="11.7136533"><ele>599.0</ele><time>2026-04-03T09:47:04.101Z</time></trkpt><trkpt lat="42.8716983" lon="11.71351"><ele>599.0</ele><time>2026-04-03T09:47:05.101Z</time></trkpt><trkpt lat="42.8717933" lon="11.7133867"><ele>599.0</ele><time>2026-04-03T09:47:06.101Z</time></trkpt><trkpt lat="42.8718983" lon="11.713285"><ele>600.5</ele><time>2026-04-03T09:47:07.101Z</time></trkpt><trkpt lat="42.8720283" lon="11.713225"><ele>602.0</ele><time>2026-04-03T09:47:08.101Z</time></trkpt><trkpt lat="42.8721683" lon="11.71317"><ele>603.5</ele><time>2026-04-03T09:47:09.101Z</time></trkpt><trkpt lat="42.8723067" lon="11.7131017"><ele>605.0</ele><time>2026-04-03T09:47:10.101Z</time></trkpt><trkpt lat="42.8724283" lon="11.71303"><ele>605.0</ele><time>2026-04-03T09:47:11.101Z</time></trkpt><trkpt lat="42.8725167" lon="11.71294"><ele>605.0</ele><time>2026-04-03T09:47:12.102Z</time></trkpt><trkpt lat="42.8725833" lon="11.7128233"><ele>605.0</ele><time>2026-04-03T09:47:13.102Z</time></trkpt><trkpt lat="42.8726383" lon="11.7126917"><ele>605.0</ele><time>2026-04-03T09:47:14.101Z</time></trkpt><trkpt lat="42.872665" lon="11.7125517"><ele>605.0</ele><time>2026-04-03T09:47:15.102Z</time></trkpt><trkpt lat="42.8727033" lon="11.7124133"><ele>607.0</ele><time>2026-04-03T09:47:16.102Z</time></trkpt><trkpt lat="42.8727717" lon="11.7122867"><ele>609.0</ele><time>2026-04-03T09:47:17.102Z</time></trkpt><trkpt lat="42.8728567" lon="11.7121883"><ele>611.0</ele><time>2026-04-03T09:47:18.101Z</time></trkpt><trkpt lat="42.87296" lon="11.712085"><ele>613.0</ele><time>2026-04-03T09:47:19.101Z</time></trkpt><trkpt lat="42.873075" lon="11.7119767"><ele>613.25</ele><time>2026-04-03T09:47:20.102Z</time></trkpt><trkpt lat="42.8731767" lon="11.71186"><ele>613.5</ele><time>2026-04-03T09:47:21.101Z</time></trkpt><trkpt lat="42.87328" lon="11.711745"><ele>613.75</ele><time>2026-04-03T09:47:22.101Z</time></trkpt><trkpt lat="42.8734033" lon="11.7116333"><ele>614.0</ele><time>2026-04-03T09:47:23.101Z</time></trkpt><trkpt lat="42.87354" lon="11.71153"><ele>614.0</ele><time>2026-04-03T09:47:24.101Z</time></trkpt><trkpt lat="42.8736833" lon="11.7114433"><ele>614.0</ele><time>2026-04-03T09:47:25.101Z</time></trkpt><trkpt lat="42.8738317" lon="11.7113683"><ele>614.0</ele><time>2026-04-03T09:47:26.102Z</time></trkpt><trkpt lat="42.8739683" lon="11.711285"><ele>614.0</ele><time>2026-04-03T09:47:27.101Z</time></trkpt><trkpt lat="42.8740867" lon="11.7111767"><ele>614.0</ele><time>2026-04-03T09:47:28.101Z</time></trkpt><trkpt lat="42.874195" lon="11.711045"><ele>614.0</ele><time>2026-04-03T09:47:29.101Z</time></trkpt><trkpt lat="42.8742983" lon="11.7109133"><ele>614.0</ele><time>2026-04-03T09:47:30.101Z</time></trkpt><trkpt lat="42.8743817" lon="11.710795"><ele>613.75</ele><time>2026-04-03T09:47:31.101Z</time></trkpt><trkpt lat="42.8744717" lon="11.710695"><ele>613.5</ele><time>2026-04-03T09:47:32.101Z</time></trkpt><trkpt lat="42.87457" lon="11.710595"><ele>613.25</ele><time>2026-04-03T09:47:33.101Z</time></trkpt><trkpt lat="42.87469" lon="11.7105183"><ele>613.0</ele><time>2026-04-03T09:47:34.102Z</time></trkpt><trkpt lat="42.87482" lon="11.7104383"><ele>613.0</ele><time>2026-04-03T09:47:35.101Z</time></trkpt><trkpt lat="42.87495" lon="11.710365"><ele>613.0</ele><time>2026-04-03T09:47:36.102Z</time></trkpt><trkpt lat="42.87507" lon="11.7103083"><ele>613.0</ele><time>2026-04-03T09:47:37.101Z</time></trkpt><trkpt lat="42.8751817" lon="11.7102783"><ele>613.0</ele><time>2026-04-03T09:47:38.101Z</time></trkpt><trkpt lat="42.8752917" lon="11.710265"><ele>613.5</ele><time>2026-04-03T09:47:39.101Z</time></trkpt><trkpt lat="42.87542" lon="11.7102667"><ele>614.0</ele><time>2026-04-03T09:47:40.101Z</time></trkpt><trkpt lat="42.87557" lon="11.7102717"><ele>614.5</ele><time>2026-04-03T09:47:41.101Z</time></trkpt><trkpt lat="42.8757283" lon="11.7102633"><ele>615.0</ele><time>2026-04-03T09:47:42.101Z</time></trkpt><trkpt lat="42.8758933" lon="11.71025"><ele>616.3333333333334</ele><time>2026-04-03T09:47:43.101Z</time></trkpt><trkpt lat="42.8760633" lon="11.7102367"><ele>617.6666666666667</ele><time>2026-04-03T09:47:44.102Z</time></trkpt><trkpt lat="42.876235" lon="11.7102333"><ele>619.0</ele><time>2026-04-03T09:47:45.101Z</time></trkpt><trkpt lat="42.87641" lon="11.7102417"><ele>619.0</ele><time>2026-04-03T09:47:46.101Z</time></trkpt><trkpt lat="42.8765767" lon="11.7102533"><ele>619.0</ele><time>2026-04-03T09:47:47.102Z</time></trkpt><trkpt lat="42.8767217" lon="11.7102533"><ele>619.0</ele><time>2026-04-03T09:47:48.101Z</time></trkpt><trkpt lat="42.876855" lon="11.710215"><ele>619.0</ele><time>2026-04-03T09:47:49.101Z</time></trkpt><trkpt lat="42.8769933" lon="11.7101533"><ele>616.6666666666667</ele><time>2026-04-03T09:47:50.101Z</time></trkpt><trkpt lat="42.8771433" lon="11.7100783"><ele>614.3333333333334</ele><time>2026-04-03T09:47:51.102Z</time></trkpt><trkpt lat="42.8772867" lon="11.71"><ele>612.0</ele><time>2026-04-03T09:47:52.101Z</time></trkpt><trkpt lat="42.87743" lon="11.7099117"><ele>612.0</ele><time>2026-04-03T09:47:53.101Z</time></trkpt><trkpt lat="42.8775617" lon="11.7097867"><ele>612.0</ele><time>2026-04-03T09:47:54.101Z</time></trkpt><trkpt lat="42.8776883" lon="11.70964"><ele>612.0</ele><time>2026-04-03T09:47:55.101Z</time></trkpt><trkpt lat="42.877815" lon="11.7094917"><ele>611.3333333333334</ele><time>2026-04-03T09:47:56.101Z</time></trkpt><trkpt lat="42.8779533" lon="11.709345"><ele>610.6666666666667</ele><time>2026-04-03T09:47:57.101Z</time></trkpt><trkpt lat="42.8780967" lon="11.7091967"><ele>610.0</ele><time>2026-04-03T09:47:58.101Z</time></trkpt><trkpt lat="42.87823" lon="11.709085"><ele>610.0</ele><time>2026-04-03T09:47:59.102Z</time></trkpt><trkpt lat="42.8783583" lon="11.7089867"><ele>610.0</ele><time>2026-04-03T09:48:00.101Z</time></trkpt><trkpt lat="42.8784733" lon="11.708895"><ele>610.0</ele><time>2026-04-03T09:48:01.102Z</time></trkpt><trkpt lat="42.8785767" lon="11.7088067"><ele>610.0</ele><time>2026-04-03T09:48:02.102Z</time></trkpt><trkpt lat="42.8786717" lon="11.7087083"><ele>608.75</ele><time>2026-04-03T09:48:03.101Z</time></trkpt><trkpt lat="42.87876" lon="11.7085983"><ele>607.5</ele><time>2026-04-03T09:48:04.102Z</time></trkpt><trkpt lat="42.87884" lon="11.7084617"><ele>606.25</ele><time>2026-04-03T09:48:05.101Z</time></trkpt><trkpt lat="42.878925" lon="11.7083067"><ele>605.0</ele><time>2026-04-03T09:48:06.101Z</time></trkpt><trkpt lat="42.879005" lon="11.7081333"><ele>605.0</ele><time>2026-04-03T09:48:07.101Z</time></trkpt><trkpt lat="42.87908" lon="11.70796"><ele>605.0</ele><time>2026-04-03T09:48:08.101Z</time></trkpt><trkpt lat="42.87914" lon="11.7078"><ele>605.0</ele><time>2026-04-03T09:48:09.101Z</time></trkpt><trkpt lat="42.8791983" lon="11.7076667"><ele>605.0</ele><time>2026-04-03T09:48:10.101Z</time></trkpt><trkpt lat="42.8792417" lon="11.7075467"><ele>605.0</ele><time>2026-04-03T09:48:11.101Z</time></trkpt><trkpt lat="42.879295" lon="11.7074467"><ele>605.0</ele><time>2026-04-03T09:48:12.101Z</time></trkpt><trkpt lat="42.87934" lon="11.70735"><ele>605.0</ele><time>2026-04-03T09:48:13.101Z</time></trkpt><trkpt lat="42.8793833" lon="11.7072417"><ele>605.0</ele><time>2026-04-03T09:48:14.102Z</time></trkpt><trkpt lat="42.879435" lon="11.7071217"><ele>605.0</ele><time>2026-04-03T09:48:15.101Z</time></trkpt><trkpt lat="42.8794933" lon="11.7069883"><ele>606.25</ele><time>2026-04-03T09:48:16.101Z</time></trkpt><trkpt lat="42.8795533" lon="11.7068433"><ele>607.5</ele><time>2026-04-03T09:48:17.101Z</time></trkpt><trkpt lat="42.8796183" lon="11.7066983"><ele>608.75</ele><time>2026-04-03T09:48:18.101Z</time></trkpt><trkpt lat="42.8796883" lon="11.7065417"><ele>610.0</ele><time>2026-04-03T09:48:19.102Z</time></trkpt><trkpt lat="42.8797517" lon="11.706375"><ele>610.0</ele><time>2026-04-03T09:48:20.102Z</time></trkpt><trkpt lat="42.8798167" lon="11.7061967"><ele>610.0</ele><time>2026-04-03T09:48:21.101Z</time></trkpt><trkpt lat="42.8798867" lon="11.7060133"><ele>610.0</ele><time>2026-04-03T09:48:22.102Z</time></trkpt><trkpt lat="42.8799633" lon="11.70583"><ele>608.6666666666667</ele><time>2026-04-03T09:48:23.101Z</time></trkpt><trkpt lat="42.8800483" lon="11.7056483"><ele>607.3333333333334</ele><time>2026-04-03T09:48:24.101Z</time></trkpt><trkpt lat="42.8801383" lon="11.7054617"><ele>606.0</ele><time>2026-04-03T09:48:25.101Z</time></trkpt><trkpt lat="42.8802333" lon="11.7052633"><ele>609.0</ele><time>2026-04-03T09:48:26.101Z</time></trkpt><trkpt lat="42.8803283" lon="11.7050633"><ele>612.0</ele><time>2026-04-03T09:48:27.101Z</time></trkpt><trkpt lat="42.8804267" lon="11.7048517"><ele>615.0</ele><time>2026-04-03T09:48:28.101Z</time></trkpt><trkpt lat="42.880525" lon="11.7046283"><ele>614.6666666666666</ele><time>2026-04-03T09:48:29.101Z</time></trkpt><trkpt lat="42.8806333" lon="11.7044033"><ele>614.3333333333333</ele><time>2026-04-03T09:48:30.101Z</time></trkpt><trkpt lat="42.880745" lon="11.704165"><ele>614.0</ele><time>2026-04-03T09:48:31.101Z</time></trkpt><trkpt lat="42.8808583" lon="11.7039183"><ele>611.0</ele><time>2026-04-03T09:48:32.101Z</time></trkpt><trkpt lat="42.88095" lon="11.7036717"><ele>608.0</ele><time>2026-04-03T09:48:33.102Z</time></trkpt><trkpt lat="42.8810117" lon="11.7034067"><ele>605.0</ele><time>2026-04-03T09:48:34.101Z</time></trkpt><trkpt lat="42.88105" lon="11.7031383"><ele>605.0</ele><time>2026-04-03T09:48:35.102Z</time></trkpt><trkpt lat="42.8810783" lon="11.7028683"><ele>605.0</ele><time>2026-04-03T09:48:36.101Z</time></trkpt><trkpt lat="42.88111" lon="11.7025983"><ele>605.0</ele><time>2026-04-03T09:48:37.101Z</time></trkpt><trkpt lat="42.8811433" lon="11.7023267"><ele>608.0</ele><time>2026-04-03T09:48:38.101Z</time></trkpt><trkpt lat="42.8811667" lon="11.7020467"><ele>611.0</ele><time>2026-04-03T09:48:39.101Z</time></trkpt><trkpt lat="42.8811883" lon="11.7017567"><ele>614.0</ele><time>2026-04-03T09:48:40.101Z</time></trkpt><trkpt lat="42.881195" lon="11.70147"><ele>614.0</ele><time>2026-04-03T09:48:41.101Z</time></trkpt><trkpt lat="42.8811917" lon="11.7011983"><ele>614.0</ele><time>2026-04-03T09:48:42.101Z</time></trkpt><trkpt lat="42.88119" lon="11.7009533"><ele>614.0</ele><time>2026-04-03T09:48:43.101Z</time></trkpt><trkpt lat="42.8811867" lon="11.7007217"><ele>614.0</ele><time>2026-04-03T09:48:44.101Z</time></trkpt><trkpt lat="42.8811783" lon="11.7005217"><ele>614.0</ele><time>2026-04-03T09:48:45.101Z</time></trkpt><trkpt lat="42.8811733" lon="11.700345"><ele>614.0</ele><time>2026-04-03T09:48:46.101Z</time></trkpt><trkpt lat="42.8811733" lon="11.7001733"><ele>614.0</ele><time>2026-04-03T09:48:47.101Z</time></trkpt><trkpt lat="42.8811717" lon="11.7000183"><ele>613.0</ele><time>2026-04-03T09:48:48.102Z</time></trkpt><trkpt lat="42.881165" lon="11.699885"><ele>612.0</ele><time>2026-04-03T09:48:49.101Z</time></trkpt><trkpt lat="42.8811517" lon="11.6997683"><ele>611.0</ele><time>2026-04-03T09:48:50.101Z</time></trkpt><trkpt lat="42.881135" lon="11.699655"><ele>610.0</ele><time>2026-04-03T09:48:51.102Z</time></trkpt><trkpt lat="42.88112" lon="11.69954"><ele>609.0</ele><time>2026-04-03T09:48:52.102Z</time></trkpt><trkpt lat="42.8811017" lon="11.6994283"><ele>608.0</ele><time>2026-04-03T09:48:53.101Z</time></trkpt><trkpt lat="42.8810783" lon="11.6993267"><ele>606.6</ele><time>2026-04-03T09:48:54.101Z</time></trkpt><trkpt lat="42.8810483" lon="11.699225"><ele>605.1999999999999</ele><time>2026-04-03T09:48:55.101Z</time></trkpt><trkpt lat="42.8810167" lon="11.69912"><ele>603.8</ele><time>2026-04-03T09:48:56.101Z</time></trkpt><trkpt lat="42.880985" lon="11.6989917"><ele>602.4</ele><time>2026-04-03T09:48:57.101Z</time></trkpt><trkpt lat="42.88095" lon="11.698855"><ele>601.0</ele><time>2026-04-03T09:48:58.101Z</time></trkpt><trkpt lat="42.88092" lon="11.6986983"><ele>604.0</ele><time>2026-04-03T09:48:59.101Z</time></trkpt><trkpt lat="42.8808883" lon="11.69854"><ele>607.0</ele><time>2026-04-03T09:49:00.101Z</time></trkpt><trkpt lat="42.8808633" lon="11.698395"><ele>610.0</ele><time>2026-04-03T09:49:01.102Z</time></trkpt><trkpt lat="42.88084" lon="11.6982533"><ele>613.0</ele><time>2026-04-03T09:49:02.101Z</time></trkpt><trkpt lat="42.8808133" lon="11.698125"><ele>616.0</ele><time>2026-04-03T09:49:03.102Z</time></trkpt><trkpt lat="42.88078" lon="11.6980033"><ele>616.0</ele><time>2026-04-03T09:49:04.101Z</time></trkpt><trkpt lat="42.88074" lon="11.697865"><ele>616.0</ele><time>2026-04-03T09:49:05.101Z</time></trkpt><trkpt lat="42.8806833" lon="11.69775"><ele>616.0</ele><time>2026-04-03T09:49:06.101Z</time></trkpt><trkpt lat="42.8806117" lon="11.697665"><ele>616.0</ele><time>2026-04-03T09:49:07.101Z</time></trkpt><trkpt lat="42.88053" lon="11.6976117"><ele>616.0</ele><time>2026-04-03T09:49:08.101Z</time></trkpt><trkpt lat="42.8804467" lon="11.6975917"><ele>616.0</ele><time>2026-04-03T09:49:09.101Z</time></trkpt><trkpt lat="42.8803467" lon="11.69763"><ele>616.0</ele><time>2026-04-03T09:49:10.101Z</time></trkpt><trkpt lat="42.8802417" lon="11.6977067"><ele>616.0</ele><time>2026-04-03T09:49:11.101Z</time></trkpt><trkpt lat="42.8801383" lon="11.6977933"><ele>616.0</ele><time>2026-04-03T09:49:12.101Z</time></trkpt><trkpt lat="42.880035" lon="11.69787"><ele>616.4</ele><time>2026-04-03T09:49:13.101Z</time></trkpt><trkpt lat="42.8799333" lon="11.6979183"><ele>616.8</ele><time>2026-04-03T09:49:14.101Z</time></trkpt><trkpt lat="42.8798317" lon="11.697965"><ele>617.1999999999999</ele><time>2026-04-03T09:49:15.101Z</time></trkpt><trkpt lat="42.8797317" lon="11.6979867"><ele>617.6</ele><time>2026-04-03T09:49:16.101Z</time></trkpt><trkpt lat="42.8796333" lon="11.697995"><ele>618.0</ele><time>2026-04-03T09:49:17.101Z</time></trkpt><trkpt lat="42.8795267" lon="11.6979867"><ele>618.0</ele><time>2026-04-03T09:49:18.101Z</time></trkpt><trkpt lat="42.8794083" lon="11.6979667"><ele>618.0</ele><time>2026-04-03T09:49:19.102Z</time></trkpt><trkpt lat="42.87929" lon="11.6979517"><ele>618.0</ele><time>2026-04-03T09:49:20.101Z</time></trkpt><trkpt lat="42.87917" lon="11.6979283"><ele>618.0</ele><time>2026-04-03T09:49:21.101Z</time></trkpt><trkpt lat="42.8790517" lon="11.697905"><ele>619.0</ele><time>2026-04-03T09:49:22.102Z</time></trkpt><trkpt lat="42.878945" lon="11.6978783"><ele>620.0</ele><time>2026-04-03T09:49:23.101Z</time></trkpt><trkpt lat="42.8788483" lon="11.6978467"><ele>621.0</ele><time>2026-04-03T09:49:24.101Z</time></trkpt><trkpt lat="42.8787567" lon="11.697805"><ele>622.0</ele><time>2026-04-03T09:49:25.101Z</time></trkpt><trkpt lat="42.87868" lon="11.6977433"><ele>623.0</ele><time>2026-04-03T09:49:26.102Z</time></trkpt><trkpt lat="42.8786383" lon="11.69766"><ele>625.3333333333333</ele><time>2026-04-03T09:49:27.101Z</time></trkpt><trkpt lat="42.8786133" lon="11.6975633"><ele>627.6666666666666</ele><time>2026-04-03T09:49:28.101Z</time></trkpt><trkpt lat="42.87862" lon="11.6974633"><ele>630.0</ele><time>2026-04-03T09:49:29.101Z</time></trkpt><trkpt lat="42.8786517" lon="11.6973667"><ele>632.3333333333334</ele><time>2026-04-03T09:49:30.102Z</time></trkpt><trkpt lat="42.87871" lon="11.6972617"><ele>634.6666666666667</ele><time>2026-04-03T09:49:31.102Z</time></trkpt><trkpt lat="42.87879" lon="11.6971617"><ele>637.0</ele><time>2026-04-03T09:49:32.102Z</time></trkpt><trkpt lat="42.878875" lon="11.6970567"><ele>637.0</ele><time>2026-04-03T09:49:33.101Z</time></trkpt><trkpt lat="42.8789583" lon="11.69695"><ele>637.0</ele><time>2026-04-03T09:49:34.101Z</time></trkpt><trkpt lat="42.8790233" lon="11.696845"><ele>637.0</ele><time>2026-04-03T09:49:35.101Z</time></trkpt><trkpt lat="42.879075" lon="11.6967383"><ele>637.0</ele><time>2026-04-03T09:49:36.101Z</time></trkpt><trkpt lat="42.8791017" lon="11.6966267"><ele>637.0</ele><time>2026-04-03T09:49:37.102Z</time></trkpt><trkpt lat="42.8790683" lon="11.69653"><ele>639.2</ele><time>2026-04-03T09:49:38.101Z</time></trkpt><trkpt lat="42.8789983" lon="11.696465"><ele>641.4000000000001</ele><time>2026-04-03T09:49:39.101Z</time></trkpt><trkpt lat="42.8789083" lon="11.6964167"><ele>643.5999999999999</ele><time>2026-04-03T09:49:40.101Z</time></trkpt><trkpt lat="42.8787983" lon="11.6963783"><ele>645.8</ele><time>2026-04-03T09:49:41.101Z</time></trkpt><trkpt lat="42.8786867" lon="11.6963433"><ele>648.0</ele><time>2026-04-03T09:49:42.101Z</time></trkpt><trkpt lat="42.8785683" lon="11.696295"><ele>648.0</ele><time>2026-04-03T09:49:43.101Z</time></trkpt><trkpt lat="42.8784533" lon="11.696235"><ele>648.0</ele><time>2026-04-03T09:49:44.101Z</time></trkpt><trkpt lat="42.87837" lon="11.6961633"><ele>648.0</ele><time>2026-04-03T09:49:45.101Z</time></trkpt><trkpt lat="42.8783217" lon="11.696085"><ele>648.0</ele><time>2026-04-03T09:49:46.101Z</time></trkpt><trkpt lat="42.8783183" lon="11.6959967"><ele>648.0</ele><time>2026-04-03T09:49:47.101Z</time></trkpt><trkpt lat="42.8783617" lon="11.69592"><ele>648.0</ele><time>2026-04-03T09:49:48.101Z</time></trkpt><trkpt lat="42.87844" lon="11.6958567"><ele>649.0</ele><time>2026-04-03T09:49:49.101Z</time></trkpt><trkpt lat="42.8785283" lon="11.6958033"><ele>650.0</ele><time>2026-04-03T09:49:50.101Z</time></trkpt><trkpt lat="42.8786033" lon="11.6957367"><ele>651.0</ele><time>2026-04-03T09:49:51.102Z</time></trkpt><trkpt lat="42.87865" lon="11.6956367"><ele>652.0</ele><time>2026-04-03T09:49:52.102Z</time></trkpt><trkpt lat="42.878645" lon="11.6954983"><ele>653.0</ele><time>2026-04-03T09:49:53.101Z</time></trkpt><trkpt lat="42.8785983" lon="11.6953633"><ele>652.5999999999999</ele><time>2026-04-03T09:49:54.102Z</time></trkpt><trkpt lat="42.8785317" lon="11.6952483"><ele>652.1999999999999</ele><time>2026-04-03T09:49:55.101Z</time></trkpt><trkpt lat="42.878445" lon="11.695175"><ele>651.8</ele><time>2026-04-03T09:49:56.101Z</time></trkpt><trkpt lat="42.8783333" lon="11.6951483"><ele>651.4</ele><time>2026-04-03T09:49:57.102Z</time></trkpt><trkpt lat="42.8782183" lon="11.695165"><ele>651.0</ele><time>2026-04-03T09:49:58.101Z</time></trkpt><trkpt lat="42.878095" lon="11.6952"><ele>655.5</ele><time>2026-04-03T09:49:59.101Z</time></trkpt><trkpt lat="42.8779617" lon="11.695225"><ele>660.0</ele><time>2026-04-03T09:50:00.101Z</time></trkpt><trkpt lat="42.8778317" lon="11.6952367"><ele>664.5</ele><time>2026-04-03T09:50:01.101Z</time></trkpt><trkpt lat="42.877725" lon="11.6952133"><ele>669.0</ele><time>2026-04-03T09:50:02.101Z</time></trkpt><trkpt lat="42.87765" lon="11.6951617"><ele>669.0</ele><time>2026-04-03T09:50:03.101Z</time></trkpt><trkpt lat="42.8776433" lon="11.6950183"><ele>669.0</ele><time>2026-04-03T09:50:05.101Z</time></trkpt><trkpt lat="42.877695" lon="11.6949283"><ele>669.0</ele><time>2026-04-03T09:50:06.101Z</time></trkpt><trkpt lat="42.87775" lon="11.69482"><ele>669.0</ele><time>2026-04-03T09:50:07.101Z</time></trkpt><trkpt lat="42.877795" lon="11.6946883"><ele>669.0</ele><time>2026-04-03T09:50:08.102Z</time></trkpt><trkpt lat="42.8778033" lon="11.6945633"><ele>669.0</ele><time>2026-04-03T09:50:09.101Z</time></trkpt><trkpt lat="42.8777717" lon="11.6944417"><ele>669.0</ele><time>2026-04-03T09:50:10.101Z</time></trkpt><trkpt lat="42.8777033" lon="11.6943533"><ele>669.0</ele><time>2026-04-03T09:50:11.101Z</time></trkpt><trkpt lat="42.877615" lon="11.6942617"><ele>669.0</ele><time>2026-04-03T09:50:12.101Z</time></trkpt><trkpt lat="42.87754" lon="11.6941517"><ele>669.0</ele><time>2026-04-03T09:50:13.101Z</time></trkpt><trkpt lat="42.8774883" lon="11.694005"><ele>674.0</ele><time>2026-04-03T09:50:14.101Z</time></trkpt><trkpt lat="42.87745" lon="11.69384"><ele>679.0</ele><time>2026-04-03T09:50:15.101Z</time></trkpt><trkpt lat="42.877405" lon="11.6936617"><ele>684.0</ele><time>2026-04-03T09:50:16.102Z</time></trkpt><trkpt lat="42.87734" lon="11.6934767"><ele>689.0</ele><time>2026-04-03T09:50:17.101Z</time></trkpt><trkpt lat="42.8772683" lon="11.693295"><ele>690.75</ele><time>2026-04-03T09:50:18.101Z</time></trkpt><trkpt lat="42.8772033" lon="11.6931217"><ele>692.5</ele><time>2026-04-03T09:50:19.101Z</time></trkpt><trkpt lat="42.877125" lon="11.6929583"><ele>694.25</ele><time>2026-04-03T09:50:20.102Z</time></trkpt><trkpt lat="42.8770433" lon="11.6928133"><ele>696.0</ele><time>2026-04-03T09:50:21.101Z</time></trkpt><trkpt lat="42.8769533" lon="11.6927033"><ele>698.0</ele><time>2026-04-03T09:50:22.102Z</time></trkpt><trkpt lat="42.87689" lon="11.6925917"><ele>700.0</ele><time>2026-04-03T09:50:23.101Z</time></trkpt><trkpt lat="42.8768667" lon="11.692455"><ele>702.0</ele><time>2026-04-03T09:50:24.102Z</time></trkpt><trkpt lat="42.8768567" lon="11.6923217"><ele>704.0</ele><time>2026-04-03T09:50:25.102Z</time></trkpt><trkpt lat="42.8768267" lon="11.69221"><ele>706.0</ele><time>2026-04-03T09:50:26.101Z</time></trkpt><trkpt lat="42.8767017" lon="11.6921633"><ele>707.5999999999999</ele><time>2026-04-03T09:50:28.101Z</time></trkpt><trkpt lat="42.8766167" lon="11.6922067"><ele>709.2</ele><time>2026-04-03T09:50:29.101Z</time></trkpt><trkpt lat="42.8765217" lon="11.692275"><ele>710.8</ele><time>2026-04-03T09:50:30.102Z</time></trkpt><trkpt lat="42.8764267" lon="11.6923367"><ele>712.4000000000001</ele><time>2026-04-03T09:50:31.101Z</time></trkpt><trkpt lat="42.876325" lon="11.6923767"><ele>714.0</ele><time>2026-04-03T09:50:32.102Z</time></trkpt><trkpt lat="42.8762383" lon="11.6923733"><ele>714.0</ele><time>2026-04-03T09:50:33.101Z</time></trkpt><trkpt lat="42.876175" lon="11.692335"><ele>714.0</ele><time>2026-04-03T09:50:34.101Z</time></trkpt><trkpt lat="42.8761483" lon="11.6922433"><ele>714.0</ele><time>2026-04-03T09:50:35.101Z</time></trkpt><trkpt lat="42.876165" lon="11.6921383"><ele>714.0</ele><time>2026-04-03T09:50:36.101Z</time></trkpt><trkpt lat="42.8761967" lon="11.6920183"><ele>714.0</ele><time>2026-04-03T09:50:37.102Z</time></trkpt><trkpt lat="42.8762283" lon="11.691875"><ele>714.0</ele><time>2026-04-03T09:50:38.102Z</time></trkpt><trkpt lat="42.876245" lon="11.6917283"><ele>717.25</ele><time>2026-04-03T09:50:39.101Z</time></trkpt><trkpt lat="42.87625" lon="11.6915717"><ele>720.5</ele><time>2026-04-03T09:50:40.101Z</time></trkpt><trkpt lat="42.8762367" lon="11.691415"><ele>723.75</ele><time>2026-04-03T09:50:41.102Z</time></trkpt><trkpt lat="42.8762067" lon="11.6912517"><ele>727.0</ele><time>2026-04-03T09:50:42.101Z</time></trkpt><trkpt lat="42.8761717" lon="11.6910767"><ele>728.5</ele><time>2026-04-03T09:50:43.101Z</time></trkpt><trkpt lat="42.8761533" lon="11.6908933"><ele>730.0</ele><time>2026-04-03T09:50:44.101Z</time></trkpt><trkpt lat="42.8761333" lon="11.6906983"><ele>731.5</ele><time>2026-04-03T09:50:45.102Z</time></trkpt><trkpt lat="42.8761117" lon="11.690515"><ele>733.0</ele><time>2026-04-03T09:50:46.102Z</time></trkpt><trkpt lat="42.8761083" lon="11.6903533"><ele>734.25</ele><time>2026-04-03T09:50:47.101Z</time></trkpt><trkpt lat="42.8761283" lon="11.6902133"><ele>735.5</ele><time>2026-04-03T09:50:48.101Z</time></trkpt><trkpt lat="42.8761667" lon="11.6900617"><ele>736.75</ele><time>2026-04-03T09:50:49.101Z</time></trkpt><trkpt lat="42.8762083" lon="11.6899133"><ele>738.0</ele><time>2026-04-03T09:50:50.102Z</time></trkpt><trkpt lat="42.87625" lon="11.689765"><ele>738.0</ele><time>2026-04-03T09:50:51.101Z</time></trkpt><trkpt lat="42.8763" lon="11.68961"><ele>738.0</ele><time>2026-04-03T09:50:52.101Z</time></trkpt><trkpt lat="42.8763517" lon="11.6894467"><ele>738.0</ele><time>2026-04-03T09:50:53.102Z</time></trkpt><trkpt lat="42.876405" lon="11.6892883"><ele>738.0</ele><time>2026-04-03T09:50:54.101Z</time></trkpt><trkpt lat="42.8764617" lon="11.6891333"><ele>740.75</ele><time>2026-04-03T09:50:55.101Z</time></trkpt><trkpt lat="42.8765017" lon="11.6889733"><ele>743.5</ele><time>2026-04-03T09:50:56.101Z</time></trkpt><trkpt lat="42.8765233" lon="11.68878"><ele>746.25</ele><time>2026-04-03T09:50:57.102Z</time></trkpt><trkpt lat="42.8765417" lon="11.6885833"><ele>749.0</ele><time>2026-04-03T09:50:58.101Z</time></trkpt><trkpt lat="42.8765517" lon="11.6883667"><ele>751.0</ele><time>2026-04-03T09:50:59.101Z</time></trkpt><trkpt lat="42.8765583" lon="11.68816"><ele>753.0</ele><time>2026-04-03T09:51:00.101Z</time></trkpt><trkpt lat="42.8765917" lon="11.6879583"><ele>755.0</ele><time>2026-04-03T09:51:01.101Z</time></trkpt><trkpt lat="42.8766333" lon="11.6877717"><ele>757.0</ele><time>2026-04-03T09:51:02.101Z</time></trkpt><trkpt lat="42.8767117" lon="11.687605"><ele>755.0</ele><time>2026-04-03T09:51:03.102Z</time></trkpt><trkpt lat="42.8767883" lon="11.6874517"><ele>753.0</ele><time>2026-04-03T09:51:04.101Z</time></trkpt><trkpt lat="42.876825" lon="11.687305"><ele>751.0</ele><time>2026-04-03T09:51:05.101Z</time></trkpt><trkpt lat="42.876815" lon="11.6871767"><ele>749.0</ele><time>2026-04-03T09:51:06.101Z</time></trkpt><trkpt lat="42.8767783" lon="11.6870417"><ele>755.25</ele><time>2026-04-03T09:51:07.101Z</time></trkpt><trkpt lat="42.8767033" lon="11.6869267"><ele>761.5</ele><time>2026-04-03T09:51:08.1Z</time></trkpt><trkpt lat="42.8766183" lon="11.6868133"><ele>767.75</ele><time>2026-04-03T09:51:09.1Z</time></trkpt><trkpt lat="42.876535" lon="11.68668"><ele>774.0</ele><time>2026-04-03T09:51:10.1Z</time></trkpt><trkpt lat="42.8764667" lon="11.6865383"><ele>774.0</ele><time>2026-04-03T09:51:11.1Z</time></trkpt><trkpt lat="42.8764" lon="11.686385"><ele>774.0</ele><time>2026-04-03T09:51:12.1Z</time></trkpt><trkpt lat="42.8763317" lon="11.686225"><ele>774.0</ele><time>2026-04-03T09:51:13.1Z</time></trkpt><trkpt lat="42.8762767" lon="11.6860783"><ele>774.0</ele><time>2026-04-03T09:51:14.1Z</time></trkpt><trkpt lat="42.8762317" lon="11.6859467"><ele>776.25</ele><time>2026-04-03T09:51:15.101Z</time></trkpt><trkpt lat="42.8762117" lon="11.68581"><ele>778.5</ele><time>2026-04-03T09:51:16.1Z</time></trkpt><trkpt lat="42.8762117" lon="11.6856483"><ele>780.75</ele><time>2026-04-03T09:51:17.101Z</time></trkpt><trkpt lat="42.876215" lon="11.6854817"><ele>783.0</ele><time>2026-04-03T09:51:18.1Z</time></trkpt><trkpt lat="42.8762183" lon="11.6853"><ele>783.75</ele><time>2026-04-03T09:51:19.1Z</time></trkpt><trkpt lat="42.8761967" lon="11.68511"><ele>784.5</ele><time>2026-04-03T09:51:20.1Z</time></trkpt><trkpt lat="42.8761867" lon="11.684915"><ele>785.25</ele><time>2026-04-03T09:51:21.1Z</time></trkpt><trkpt lat="42.8761783" lon="11.6847167"><ele>786.0</ele><time>2026-04-03T09:51:22.1Z</time></trkpt><trkpt lat="42.8761817" lon="11.684525"><ele>786.25</ele><time>2026-04-03T09:51:23.101Z</time></trkpt><trkpt lat="42.876205" lon="11.6843467"><ele>786.5</ele><time>2026-04-03T09:51:24.1Z</time></trkpt><trkpt lat="42.876265" lon="11.6841867"><ele>786.75</ele><time>2026-04-03T09:51:25.1Z</time></trkpt><trkpt lat="42.8763567" lon="11.6840267"><ele>787.0</ele><time>2026-04-03T09:51:26.1Z</time></trkpt><trkpt lat="42.8764217" lon="11.683865"><ele>787.0</ele><time>2026-04-03T09:51:27.1Z</time></trkpt><trkpt lat="42.8764917" lon="11.6837317"><ele>787.0</ele><time>2026-04-03T09:51:28.101Z</time></trkpt><trkpt lat="42.8765467" lon="11.6836183"><ele>787.0</ele><time>2026-04-03T09:51:29.101Z</time></trkpt><trkpt lat="42.8765983" lon="11.68354"><ele>787.0</ele><time>2026-04-03T09:51:30.101Z</time></trkpt><trkpt lat="42.876665" lon="11.6834617"><ele>787.0</ele><time>2026-04-03T09:51:32.101Z</time></trkpt><trkpt lat="42.8765767" lon="11.6835867"><ele>787.0</ele><time>2026-04-03T09:51:38.1Z</time></trkpt><trkpt lat="42.8765283" lon="11.6836917"><ele>787.0</ele><time>2026-04-03T09:51:39.101Z</time></trkpt><trkpt lat="42.8764667" lon="11.6838133"><ele>787.0</ele><time>2026-04-03T09:51:40.1Z</time></trkpt><trkpt lat="42.8764" lon="11.683935"><ele>787.0</ele><time>2026-04-03T09:51:41.1Z</time></trkpt><trkpt lat="42.8763333" lon="11.6840617"><ele>787.0</ele><time>2026-04-03T09:51:42.1Z</time></trkpt><trkpt lat="42.8762217" lon="11.68431"><ele>786.75</ele><time>2026-04-03T09:51:44.1Z</time></trkpt><trkpt lat="42.8761867" lon="11.6844367"><ele>786.5</ele><time>2026-04-03T09:51:45.1Z</time></trkpt><trkpt lat="42.8761683" lon="11.6845683"><ele>786.25</ele><time>2026-04-03T09:51:46.101Z</time></trkpt><trkpt lat="42.8761583" lon="11.68471"><ele>786.0</ele><time>2026-04-03T09:51:47.1Z</time></trkpt><trkpt lat="42.8761667" lon="11.6850217"><ele>786.0</ele><time>2026-04-03T09:51:49.1Z</time></trkpt><trkpt lat="42.8761717" lon="11.685185"><ele>786.0</ele><time>2026-04-03T09:51:50.1Z</time></trkpt><trkpt lat="42.8761667" lon="11.6853617"><ele>786.0</ele><time>2026-04-03T09:51:51.1Z</time></trkpt><trkpt lat="42.8761683" lon="11.685545"><ele>786.0</ele><time>2026-04-03T09:51:52.1Z</time></trkpt><trkpt lat="42.8761733" lon="11.6857317"><ele>785.4</ele><time>2026-04-03T09:51:53.1Z</time></trkpt><trkpt lat="42.87618" lon="11.6859017"><ele>784.8</ele><time>2026-04-03T09:51:54.1Z</time></trkpt><trkpt lat="42.8762" lon="11.686055"><ele>784.1999999999999</ele><time>2026-04-03T09:51:55.1Z</time></trkpt><trkpt lat="42.8762317" lon="11.6861767"><ele>783.5999999999999</ele><time>2026-04-03T09:51:56.1Z</time></trkpt><trkpt lat="42.87628" lon="11.6862933"><ele>783.0</ele><time>2026-04-03T09:51:57.1Z</time></trkpt><trkpt lat="42.8763383" lon="11.6864083"><ele>781.2</ele><time>2026-04-03T09:51:58.101Z</time></trkpt><trkpt lat="42.8763983" lon="11.6865383"><ele>779.4</ele><time>2026-04-03T09:51:59.101Z</time></trkpt><trkpt lat="42.8764533" lon="11.68668"><ele>777.6</ele><time>2026-04-03T09:52:00.1Z</time></trkpt><trkpt lat="42.8765167" lon="11.686815"><ele>775.8000000000001</ele><time>2026-04-03T09:52:01.1Z</time></trkpt><trkpt lat="42.8765767" lon="11.6869233"><ele>774.0</ele><time>2026-04-03T09:52:02.1Z</time></trkpt><trkpt lat="42.8766367" lon="11.6870083"><ele>772.3333333333334</ele><time>2026-04-03T09:52:03.101Z</time></trkpt><trkpt lat="42.8767" lon="11.6870883"><ele>770.6666666666666</ele><time>2026-04-03T09:52:04.1Z</time></trkpt><trkpt lat="42.8767483" lon="11.68715"><ele>769.0</ele><time>2026-04-03T09:52:05.101Z</time></trkpt><trkpt lat="42.8768183" lon="11.6872383"><ele>767.3333333333333</ele><time>2026-04-03T09:52:07.1Z</time></trkpt><trkpt lat="42.8768783" lon="11.68721"><ele>765.6666666666666</ele><time>2026-04-03T09:52:09.1Z</time></trkpt><trkpt lat="42.8769417" lon="11.6870683"><ele>764.0</ele><time>2026-04-03T09:52:11.1Z</time></trkpt><trkpt lat="42.8769767" lon="11.6869817"><ele>763.1428571428572</ele><time>2026-04-03T09:52:12.1Z</time></trkpt><trkpt lat="42.8770133" lon="11.6869"><ele>762.2857142857142</ele><time>2026-04-03T09:52:13.101Z</time></trkpt><trkpt lat="42.8770533" lon="11.6868167"><ele>761.4285714285714</ele><time>2026-04-03T09:52:14.1Z</time></trkpt><trkpt lat="42.8770883" lon="11.6867283"><ele>760.5714285714287</ele><time>2026-04-03T09:52:15.1Z</time></trkpt><trkpt lat="42.877115" lon="11.68664"><ele>759.7142857142858</ele><time>2026-04-03T09:52:16.1Z</time></trkpt><trkpt lat="42.8771367" lon="11.6865417"><ele>758.8571428571429</ele><time>2026-04-03T09:52:17.1Z</time></trkpt><trkpt lat="42.8771583" lon="11.6864483"><ele>758.0</ele><time>2026-04-03T09:52:18.101Z</time></trkpt><trkpt lat="42.8771967" lon="11.68636"><ele>758.0</ele><time>2026-04-03T09:52:19.101Z</time></trkpt><trkpt lat="42.8772417" lon="11.6862667"><ele>758.0</ele><time>2026-04-03T09:52:20.1Z</time></trkpt><trkpt lat="42.8772817" lon="11.6861783"><ele>758.0</ele><time>2026-04-03T09:52:21.1Z</time></trkpt><trkpt lat="42.87733" lon="11.686105"><ele>758.0</ele><time>2026-04-03T09:52:22.1Z</time></trkpt><trkpt lat="42.8773833" lon="11.68604"><ele>758.0</ele><time>2026-04-03T09:52:23.1Z</time></trkpt><trkpt lat="42.8774333" lon="11.68596"><ele>758.0</ele><time>2026-04-03T09:52:24.101Z</time></trkpt><trkpt lat="42.8774817" lon="11.6858767"><ele>756.6666666666666</ele><time>2026-04-03T09:52:25.1Z</time></trkpt><trkpt lat="42.87752" lon="11.685795"><ele>755.3333333333333</ele><time>2026-04-03T09:52:26.1Z</time></trkpt><trkpt lat="42.8775533" lon="11.685715"><ele>754.0</ele><time>2026-04-03T09:52:27.1Z</time></trkpt><trkpt lat="42.8775917" lon="11.6856233"><ele>752.6666666666666</ele><time>2026-04-03T09:52:28.1Z</time></trkpt><trkpt lat="42.8776433" lon="11.68546"><ele>751.3333333333334</ele><time>2026-04-03T09:52:30.101Z</time></trkpt><trkpt lat="42.8776667" lon="11.685375"><ele>750.0</ele><time>2026-04-03T09:52:31.1Z</time></trkpt><trkpt lat="42.87771" lon="11.685235"><ele>750.0</ele><time>2026-04-03T09:52:33.101Z</time></trkpt><trkpt lat="42.8777417" lon="11.685095"><ele>750.0</ele><time>2026-04-03T09:52:35.1Z</time></trkpt><trkpt lat="42.8777383" lon="11.68494"><ele>750.0</ele><time>2026-04-03T09:52:37.1Z</time></trkpt><trkpt lat="42.87772" lon="11.6847867"><ele>750.0</ele><time>2026-04-03T09:52:39.101Z</time></trkpt><trkpt lat="42.8777067" lon="11.68467"><ele>750.0</ele><time>2026-04-03T09:52:41.1Z</time></trkpt><trkpt lat="42.8777333" lon="11.68459"><ele>750.0</ele><time>2026-04-03T09:52:43.101Z</time></trkpt><trkpt lat="42.8777933" lon="11.6845"><ele>750.0</ele><time>2026-04-03T09:52:45.1Z</time></trkpt><trkpt lat="42.87784" lon="11.6844183"><ele>750.0</ele><time>2026-04-03T09:52:46.1Z</time></trkpt><trkpt lat="42.8778733" lon="11.68433"><ele>750.0</ele><time>2026-04-03T09:52:47.1Z</time></trkpt><trkpt lat="42.8779233" lon="11.6842217"><ele>750.0</ele><time>2026-04-03T09:52:48.101Z</time></trkpt><trkpt lat="42.877955" lon="11.6841017"><ele>750.0</ele><time>2026-04-03T09:52:49.1Z</time></trkpt><trkpt lat="42.877965" lon="11.683995"><ele>750.6666666666666</ele><time>2026-04-03T09:52:50.1Z</time></trkpt><trkpt lat="42.8779833" lon="11.6838883"><ele>751.3333333333334</ele><time>2026-04-03T09:52:51.101Z</time></trkpt><trkpt lat="42.8780117" lon="11.6837683"><ele>752.0</ele><time>2026-04-03T09:52:52.1Z</time></trkpt><trkpt lat="42.8780383" lon="11.6836433"><ele>752.6666666666667</ele><time>2026-04-03T09:52:53.1Z</time></trkpt><trkpt lat="42.8780483" lon="11.683525"><ele>753.3333333333334</ele><time>2026-04-03T09:52:54.1Z</time></trkpt><trkpt lat="42.8780417" lon="11.6834167"><ele>754.0</ele><time>2026-04-03T09:52:55.1Z</time></trkpt><trkpt lat="42.878005" lon="11.6832567"><ele>755.0</ele><time>2026-04-03T09:52:57.101Z</time></trkpt><trkpt lat="42.8779917" lon="11.6830767"><ele>756.0</ele><time>2026-04-03T09:52:59.1Z</time></trkpt><trkpt lat="42.8780133" lon="11.682985"><ele>757.0</ele><time>2026-04-03T09:53:00.1Z</time></trkpt><trkpt lat="42.878045" lon="11.6828917"><ele>758.0</ele><time>2026-04-03T09:53:01.1Z</time></trkpt><trkpt lat="42.8780767" lon="11.682805"><ele>759.0</ele><time>2026-04-03T09:53:02.1Z</time></trkpt><trkpt lat="42.8781117" lon="11.68273"><ele>760.0</ele><time>2026-04-03T09:53:03.1Z</time></trkpt><trkpt lat="42.8781417" lon="11.6825467"><ele>761.5</ele><time>2026-04-03T09:53:05.1Z</time></trkpt><trkpt lat="42.878135" lon="11.682435"><ele>763.0</ele><time>2026-04-03T09:53:06.1Z</time></trkpt><trkpt lat="42.8781317" lon="11.682315"><ele>764.5</ele><time>2026-04-03T09:53:07.1Z</time></trkpt><trkpt lat="42.878125" lon="11.6821967"><ele>766.0</ele><time>2026-04-03T09:53:08.1Z</time></trkpt><trkpt lat="42.87812" lon="11.68207"><ele>767.4999999999999</ele><time>2026-04-03T09:53:09.1Z</time></trkpt><trkpt lat="42.8781133" lon="11.68197"><ele>769.0</ele><time>2026-04-03T09:53:10.1Z</time></trkpt><trkpt lat="42.8781033" lon="11.6818717"><ele>770.8000000000001</ele><time>2026-04-03T09:53:11.1Z</time></trkpt><trkpt lat="42.878095" lon="11.6817717"><ele>772.6</ele><time>2026-04-03T09:53:12.1Z</time></trkpt><trkpt lat="42.8780967" lon="11.6816033"><ele>774.4</ele><time>2026-04-03T09:53:14.1Z</time></trkpt><trkpt lat="42.8781233" lon="11.6814583"><ele>776.2</ele><time>2026-04-03T09:53:16.1Z</time></trkpt><trkpt lat="42.878155" lon="11.6813117"><ele>778.0</ele><time>2026-04-03T09:53:18.101Z</time></trkpt><trkpt lat="42.8781617" lon="11.6812217"><ele>777.9999999999999</ele><time>2026-04-03T09:53:19.101Z</time></trkpt><trkpt lat="42.8781683" lon="11.681125"><ele>778.0</ele><time>2026-04-03T09:53:20.1Z</time></trkpt><trkpt lat="42.8781833" lon="11.68102"><ele>778.0</ele><time>2026-04-03T09:53:21.101Z</time></trkpt><trkpt lat="42.8781883" lon="11.6809167"><ele>778.0</ele><time>2026-04-03T09:53:22.1Z</time></trkpt><trkpt lat="42.8781717" lon="11.6807517"><ele>777.9999999999999</ele><time>2026-04-03T09:53:24.101Z</time></trkpt><trkpt lat="42.8781383" lon="11.6806483"><ele>778.0</ele><time>2026-04-03T09:53:26.1Z</time></trkpt><trkpt lat="42.8781733" lon="11.68057"><ele>779.1428571428572</ele><time>2026-04-03T09:53:29.1Z</time></trkpt><trkpt lat="42.87823" lon="11.6805267"><ele>780.2857142857142</ele><time>2026-04-03T09:53:30.101Z</time></trkpt><trkpt lat="42.8782917" lon="11.6804967"><ele>781.4285714285714</ele><time>2026-04-03T09:53:31.101Z</time></trkpt><trkpt lat="42.878355" lon="11.6804717"><ele>782.5714285714287</ele><time>2026-04-03T09:53:32.1Z</time></trkpt><trkpt lat="42.878415" lon="11.6804383"><ele>783.7142857142858</ele><time>2026-04-03T09:53:33.1Z</time></trkpt><trkpt lat="42.8785267" lon="11.6803733"><ele>784.8571428571429</ele><time>2026-04-03T09:53:35.1Z</time></trkpt><trkpt lat="42.878585" lon="11.68033"><ele>786.0</ele><time>2026-04-03T09:53:36.1Z</time></trkpt><trkpt lat="42.8786417" lon="11.6802833"><ele>788.8333333333334</ele><time>2026-04-03T09:53:37.1Z</time></trkpt><trkpt lat="42.878695" lon="11.680215"><ele>791.6666666666667</ele><time>2026-04-03T09:53:38.101Z</time></trkpt><trkpt lat="42.8787517" lon="11.6801433"><ele>794.5</ele><time>2026-04-03T09:53:39.1Z</time></trkpt><trkpt lat="42.8788083" lon="11.680065"><ele>797.3333333333334</ele><time>2026-04-03T09:53:40.101Z</time></trkpt><trkpt lat="42.8788633" lon="11.6799933"><ele>800.1666666666667</ele><time>2026-04-03T09:53:41.1Z</time></trkpt><trkpt lat="42.87891" lon="11.6799283"><ele>803.0</ele><time>2026-04-03T09:53:42.1Z</time></trkpt><trkpt lat="42.878985" lon="11.6798167"><ele>803.0</ele><time>2026-04-03T09:53:44.1Z</time></trkpt><trkpt lat="42.8790783" lon="11.6798583"><ele>803.0</ele><time>2026-04-03T09:53:50.101Z</time></trkpt><trkpt lat="42.8791217" lon="11.6799533"><ele>803.0</ele><time>2026-04-03T09:53:51.101Z</time></trkpt><trkpt lat="42.8791733" lon="11.6800517"><ele>803.0</ele><time>2026-04-03T09:53:52.1Z</time></trkpt><trkpt lat="42.8792333" lon="11.6801767"><ele>803.0</ele><time>2026-04-03T09:53:53.1Z</time></trkpt><trkpt lat="42.87929" lon="11.6803"><ele>801.2</ele><time>2026-04-03T09:53:54.1Z</time></trkpt><trkpt lat="42.87934" lon="11.6804267"><ele>799.4</ele><time>2026-04-03T09:53:55.1Z</time></trkpt><trkpt lat="42.8793833" lon="11.680535"><ele>797.6</ele><time>2026-04-03T09:53:56.1Z</time></trkpt><trkpt lat="42.8794067" lon="11.6806367"><ele>795.8000000000001</ele><time>2026-04-03T09:53:57.101Z</time></trkpt><trkpt lat="42.8794233" lon="11.6807883"><ele>794.0</ele><time>2026-04-03T09:53:59.101Z</time></trkpt><trkpt lat="42.8794717" lon="11.6808867"><ele>794.0000000000001</ele><time>2026-04-03T09:54:01.101Z</time></trkpt><trkpt lat="42.8795467" lon="11.6809167"><ele>794.0</ele><time>2026-04-03T09:54:03.1Z</time></trkpt><trkpt lat="42.8796417" lon="11.6808367"><ele>794.0</ele><time>2026-04-03T09:54:05.1Z</time></trkpt><trkpt lat="42.87969" lon="11.68077"><ele>794.0</ele><time>2026-04-03T09:54:06.1Z</time></trkpt><trkpt lat="42.87974" lon="11.6806967"><ele>794.0000000000001</ele><time>2026-04-03T09:54:07.1Z</time></trkpt><trkpt lat="42.879795" lon="11.6806117"><ele>794.0</ele><time>2026-04-03T09:54:08.1Z</time></trkpt><trkpt lat="42.8798433" lon="11.6805317"><ele>794.0000000000001</ele><time>2026-04-03T09:54:09.1Z</time></trkpt><trkpt lat="42.879895" lon="11.6804533"><ele>794.0</ele><time>2026-04-03T09:54:10.1Z</time></trkpt><trkpt lat="42.8799433" lon="11.680375"><ele>794.0</ele><time>2026-04-03T09:54:11.1Z</time></trkpt><trkpt lat="42.8799967" lon="11.6803"><ele>794.0</ele><time>2026-04-03T09:54:12.101Z</time></trkpt><trkpt lat="42.880055" lon="11.6802233"><ele>794.0000000000001</ele><time>2026-04-03T09:54:13.1Z</time></trkpt><trkpt lat="42.8801117" lon="11.6801417"><ele>794.0</ele><time>2026-04-03T09:54:14.1Z</time></trkpt><trkpt lat="42.8801817" lon="11.680065"><ele>795.6666666666667</ele><time>2026-04-03T09:54:15.101Z</time></trkpt><trkpt lat="42.8802583" lon="11.67999"><ele>797.3333333333334</ele><time>2026-04-03T09:54:16.1Z</time></trkpt><trkpt lat="42.8803417" lon="11.6799267"><ele>799.0</ele><time>2026-04-03T09:54:17.1Z</time></trkpt><trkpt lat="42.8804267" lon="11.6798617"><ele>800.6666666666667</ele><time>2026-04-03T09:54:18.1Z</time></trkpt><trkpt lat="42.88051" lon="11.6798183"><ele>802.3333333333334</ele><time>2026-04-03T09:54:19.1Z</time></trkpt><trkpt lat="42.8805633" lon="11.679765"><ele>804.0</ele><time>2026-04-03T09:54:20.101Z</time></trkpt><trkpt lat="42.88062" lon="11.6797133"><ele>804.0</ele><time>2026-04-03T09:54:21.1Z</time></trkpt><trkpt lat="42.88069" lon="11.6796233"><ele>804.0</ele><time>2026-04-03T09:54:23.1Z</time></trkpt><trkpt lat="42.8808117" lon="11.6796333"><ele>804.0</ele><time>2026-04-03T09:54:27.1Z</time></trkpt><trkpt lat="42.88094" lon="11.6796683"><ele>804.0</ele><time>2026-04-03T09:54:29.1Z</time></trkpt><trkpt lat="42.8810133" lon="11.6796833"><ele>804.0</ele><time>2026-04-03T09:54:30.1Z</time></trkpt><trkpt lat="42.8810833" lon="11.6797017"><ele>803.3333333333334</ele><time>2026-04-03T09:54:31.1Z</time></trkpt><trkpt lat="42.881155" lon="11.67972"><ele>802.6666666666667</ele><time>2026-04-03T09:54:32.1Z</time></trkpt><trkpt lat="42.8812283" lon="11.6797483"><ele>802.0</ele><time>2026-04-03T09:54:33.1Z</time></trkpt><trkpt lat="42.8813" lon="11.67978"><ele>801.3333333333334</ele><time>2026-04-03T09:54:34.101Z</time></trkpt><trkpt lat="42.8813717" lon="11.6798167"><ele>800.6666666666667</ele><time>2026-04-03T09:54:35.1Z</time></trkpt><trkpt lat="42.8815017" lon="11.679815"><ele>800.0</ele><time>2026-04-03T09:54:37.1Z</time></trkpt><trkpt lat="42.8815817" lon="11.67979"><ele>800.0000000000001</ele><time>2026-04-03T09:54:38.1Z</time></trkpt><trkpt lat="42.8816633" lon="11.6797633"><ele>800.0</ele><time>2026-04-03T09:54:39.101Z</time></trkpt><trkpt lat="42.8817417" lon="11.6797367"><ele>800.0</ele><time>2026-04-03T09:54:40.1Z</time></trkpt><trkpt lat="42.8818167" lon="11.67971"><ele>800.0</ele><time>2026-04-03T09:54:41.101Z</time></trkpt><trkpt lat="42.88193" lon="11.6796833"><ele>800.0000000000001</ele><time>2026-04-03T09:54:43.1Z</time></trkpt><trkpt lat="42.8820067" lon="11.6796783"><ele>800.0</ele><time>2026-04-03T09:54:45.101Z</time></trkpt><trkpt lat="42.882035" lon="11.679545"><ele>797.7142857142858</ele><time>2026-04-03T09:54:48.1Z</time></trkpt><trkpt lat="42.8820317" lon="11.6794533"><ele>795.4285714285714</ele><time>2026-04-03T09:54:49.101Z</time></trkpt><trkpt lat="42.88202" lon="11.6793517"><ele>793.1428571428571</ele><time>2026-04-03T09:54:50.1Z</time></trkpt><trkpt lat="42.8820067" lon="11.6792467"><ele>790.8571428571429</ele><time>2026-04-03T09:54:51.1Z</time></trkpt><trkpt lat="42.8819883" lon="11.6791433"><ele>788.5714285714286</ele><time>2026-04-03T09:54:52.1Z</time></trkpt><trkpt lat="42.88197" lon="11.6790467"><ele>786.2857142857143</ele><time>2026-04-03T09:54:53.1Z</time></trkpt><trkpt lat="42.8819567" lon="11.6789517"><ele>784.0</ele><time>2026-04-03T09:54:54.1Z</time></trkpt><trkpt lat="42.8819367" lon="11.6788633"><ele>784.0</ele><time>2026-04-03T09:54:55.1Z</time></trkpt><trkpt lat="42.8819133" lon="11.6787533"><ele>784.0</ele><time>2026-04-03T09:54:57.1Z</time></trkpt><trkpt lat="42.8819183" lon="11.6786483"><ele>784.0</ele><time>2026-04-03T09:55:00.101Z</time></trkpt><trkpt lat="42.8819483" lon="11.6785133"><ele>784.0</ele><time>2026-04-03T09:55:02.1Z</time></trkpt><trkpt lat="42.8819433" lon="11.6783417"><ele>784.0</ele><time>2026-04-03T09:55:04.1Z</time></trkpt><trkpt lat="42.8819367" lon="11.678255"><ele>784.5714285714286</ele><time>2026-04-03T09:55:05.1Z</time></trkpt><trkpt lat="42.88192" lon="11.6781667"><ele>785.1428571428571</ele><time>2026-04-03T09:55:06.1Z</time></trkpt><trkpt lat="42.881915" lon="11.6780667"><ele>785.7142857142858</ele><time>2026-04-03T09:55:07.1Z</time></trkpt><trkpt lat="42.8819133" lon="11.67798"><ele>786.2857142857142</ele><time>2026-04-03T09:55:08.101Z</time></trkpt><trkpt lat="42.8819217" lon="11.6778933"><ele>786.8571428571429</ele><time>2026-04-03T09:55:09.101Z</time></trkpt><trkpt lat="42.8819267" lon="11.677805"><ele>787.4285714285714</ele><time>2026-04-03T09:55:10.101Z</time></trkpt><trkpt lat="42.8819367" lon="11.67772"><ele>788.0</ele><time>2026-04-03T09:55:11.101Z</time></trkpt><trkpt lat="42.881955" lon="11.677545"><ele>790.5999999999999</ele><time>2026-04-03T09:55:13.101Z</time></trkpt><trkpt lat="42.8819867" lon="11.6774233"><ele>793.1999999999999</ele><time>2026-04-03T09:55:15.1Z</time></trkpt><trkpt lat="42.88204" lon="11.6773217"><ele>795.8</ele><time>2026-04-03T09:55:17.1Z</time></trkpt><trkpt lat="42.8821367" lon="11.6772533"><ele>798.4</ele><time>2026-04-03T09:55:19.1Z</time></trkpt><trkpt lat="42.8822533" lon="11.6772117"><ele>801.0</ele><time>2026-04-03T09:55:21.1Z</time></trkpt><trkpt lat="42.882335" lon="11.6772233"><ele>801.0</ele><time>2026-04-03T09:55:22.1Z</time></trkpt><trkpt lat="42.8824233" lon="11.6772383"><ele>801.0</ele><time>2026-04-03T09:55:23.1Z</time></trkpt><trkpt lat="42.88251" lon="11.677245"><ele>801.0</ele><time>2026-04-03T09:55:24.101Z</time></trkpt><trkpt lat="42.88259" lon="11.67724"><ele>801.0</ele><time>2026-04-03T09:55:25.101Z</time></trkpt><trkpt lat="42.88266" lon="11.6772333"><ele>801.0</ele><time>2026-04-03T09:55:26.1Z</time></trkpt><trkpt lat="42.88272" lon="11.6772067"><ele>801.0</ele><time>2026-04-03T09:55:27.1Z</time></trkpt><trkpt lat="42.8827833" lon="11.6771667"><ele>800.1999999999999</ele><time>2026-04-03T09:55:28.101Z</time></trkpt><trkpt lat="42.8828883" lon="11.6771183"><ele>799.4</ele><time>2026-04-03T09:55:30.1Z</time></trkpt><trkpt lat="42.8829633" lon="11.6770383"><ele>798.6</ele><time>2026-04-03T09:55:32.1Z</time></trkpt><trkpt lat="42.8830717" lon="11.6769417"><ele>797.8</ele><time>2026-04-03T09:55:34.1Z</time></trkpt><trkpt lat="42.883145" lon="11.6768833"><ele>797.0</ele><time>2026-04-03T09:55:35.1Z</time></trkpt><trkpt lat="42.88323" lon="11.6768033"><ele>797.0</ele><time>2026-04-03T09:55:36.1Z</time></trkpt><trkpt lat="42.88331" lon="11.6767033"><ele>797.0</ele><time>2026-04-03T09:55:37.1Z</time></trkpt><trkpt lat="42.88339" lon="11.6765967"><ele>797.0</ele><time>2026-04-03T09:55:38.1Z</time></trkpt><trkpt lat="42.8834683" lon="11.6764883"><ele>797.0</ele><time>2026-04-03T09:55:39.099Z</time></trkpt><trkpt lat="42.883545" lon="11.6763783"><ele>797.0</ele><time>2026-04-03T09:55:40.099Z</time></trkpt><trkpt lat="42.8836117" lon="11.6762717"><ele>794.8333333333334</ele><time>2026-04-03T09:55:41.099Z</time></trkpt><trkpt lat="42.8836667" lon="11.6761717"><ele>792.6666666666667</ele><time>2026-04-03T09:55:42.099Z</time></trkpt><trkpt lat="42.88372" lon="11.6760817"><ele>790.5</ele><time>2026-04-03T09:55:43.099Z</time></trkpt><trkpt lat="42.883775" lon="11.6759983"><ele>788.3333333333333</ele><time>2026-04-03T09:55:44.099Z</time></trkpt><trkpt lat="42.88383" lon="11.6759033"><ele>786.1666666666666</ele><time>2026-04-03T09:55:45.099Z</time></trkpt><trkpt lat="42.8838683" lon="11.67579"><ele>784.0</ele><time>2026-04-03T09:55:46.099Z</time></trkpt><trkpt lat="42.883905" lon="11.6756717"><ele>784.0</ele><time>2026-04-03T09:55:47.099Z</time></trkpt><trkpt lat="42.8839617" lon="11.675555"><ele>784.0</ele><time>2026-04-03T09:55:48.099Z</time></trkpt><trkpt lat="42.8840167" lon="11.6754433"><ele>784.0</ele><time>2026-04-03T09:55:49.099Z</time></trkpt><trkpt lat="42.8840633" lon="11.6753233"><ele>784.0</ele><time>2026-04-03T09:55:50.099Z</time></trkpt><trkpt lat="42.88409" lon="11.6751983"><ele>784.0</ele><time>2026-04-03T09:55:51.099Z</time></trkpt><trkpt lat="42.8840917" lon="11.6750667"><ele>784.4999999999999</ele><time>2026-04-03T09:55:52.099Z</time></trkpt><trkpt lat="42.8841" lon="11.67495"><ele>785.0</ele><time>2026-04-03T09:55:53.099Z</time></trkpt><trkpt lat="42.884105" lon="11.67483"><ele>785.5</ele><time>2026-04-03T09:55:54.099Z</time></trkpt><trkpt lat="42.8841483" lon="11.67473"><ele>786.0</ele><time>2026-04-03T09:55:55.099Z</time></trkpt><trkpt lat="42.8842067" lon="11.6746267"><ele>786.4999999999999</ele><time>2026-04-03T09:55:56.099Z</time></trkpt><trkpt lat="42.8842667" lon="11.6745267"><ele>787.0</ele><time>2026-04-03T09:55:57.1Z</time></trkpt><trkpt lat="42.8843333" lon="11.674425"><ele>790.6666666666666</ele><time>2026-04-03T09:55:58.099Z</time></trkpt><trkpt lat="42.8843933" lon="11.674335"><ele>794.3333333333333</ele><time>2026-04-03T09:55:59.1Z</time></trkpt><trkpt lat="42.8844467" lon="11.6742733"><ele>798.0</ele><time>2026-04-03T09:56:00.1Z</time></trkpt><trkpt lat="42.8845133" lon="11.6742317"><ele>801.6666666666667</ele><time>2026-04-03T09:56:02.1Z</time></trkpt><trkpt lat="42.8844317" lon="11.6742667"><ele>805.3333333333334</ele><time>2026-04-03T09:56:07.1Z</time></trkpt><trkpt lat="42.884365" lon="11.6743267"><ele>809.0</ele><time>2026-04-03T09:56:08.099Z</time></trkpt><trkpt lat="42.884305" lon="11.6744117"><ele>808.0</ele><time>2026-04-03T09:56:09.099Z</time></trkpt><trkpt lat="42.8842367" lon="11.6745267"><ele>807.0</ele><time>2026-04-03T09:56:10.099Z</time></trkpt><trkpt lat="42.88417" lon="11.6746467"><ele>806.0</ele><time>2026-04-03T09:56:11.1Z</time></trkpt><trkpt lat="42.8841117" lon="11.6747733"><ele>805.0</ele><time>2026-04-03T09:56:12.099Z</time></trkpt><trkpt lat="42.8840733" lon="11.6749033"><ele>804.0</ele><time>2026-04-03T09:56:13.099Z</time></trkpt><trkpt lat="42.88406" lon="11.6751217"><ele>804.0</ele><time>2026-04-03T09:56:15.1Z</time></trkpt><trkpt lat="42.8840967" lon="11.675225"><ele>804.0</ele><time>2026-04-03T09:56:17.1Z</time></trkpt><trkpt lat="42.8842233" lon="11.6752067"><ele>804.0</ele><time>2026-04-03T09:56:20.099Z</time></trkpt><trkpt lat="42.8843117" lon="11.675175"><ele>804.0</ele><time>2026-04-03T09:56:21.099Z</time></trkpt><trkpt lat="42.884405" lon="11.675135"><ele>804.0</ele><time>2026-04-03T09:56:22.099Z</time></trkpt><trkpt lat="42.8844917" lon="11.6751083"><ele>801.1666666666666</ele><time>2026-04-03T09:56:23.099Z</time></trkpt><trkpt lat="42.8845767" lon="11.67509"><ele>798.3333333333333</ele><time>2026-04-03T09:56:24.099Z</time></trkpt><trkpt lat="42.88465" lon="11.6750933"><ele>795.5</ele><time>2026-04-03T09:56:25.1Z</time></trkpt><trkpt lat="42.8847183" lon="11.6750967"><ele>792.6666666666666</ele><time>2026-04-03T09:56:26.1Z</time></trkpt><trkpt lat="42.8847883" lon="11.6751133"><ele>789.8333333333333</ele><time>2026-04-03T09:56:27.1Z</time></trkpt><trkpt lat="42.8848717" lon="11.6751383"><ele>787.0</ele><time>2026-04-03T09:56:28.1Z</time></trkpt><trkpt lat="42.8849617" lon="11.67517"><ele>786.9999999999999</ele><time>2026-04-03T09:56:29.1Z</time></trkpt><trkpt lat="42.885055" lon="11.6752067"><ele>787.0</ele><time>2026-04-03T09:56:30.099Z</time></trkpt><trkpt lat="42.885155" lon="11.6752417"><ele>787.0</ele><time>2026-04-03T09:56:31.099Z</time></trkpt><trkpt lat="42.8852517" lon="11.67526"><ele>787.0</ele><time>2026-04-03T09:56:32.099Z</time></trkpt><trkpt lat="42.8853333" lon="11.6752517"><ele>786.9999999999999</ele><time>2026-04-03T09:56:33.099Z</time></trkpt><trkpt lat="42.885395" lon="11.6752317"><ele>787.0</ele><time>2026-04-03T09:56:34.099Z</time></trkpt><trkpt lat="42.8854983" lon="11.6751633"><ele>786.8</ele><time>2026-04-03T09:56:36.099Z</time></trkpt><trkpt lat="42.885565" lon="11.675115"><ele>786.6</ele><time>2026-04-03T09:56:37.1Z</time></trkpt><trkpt lat="42.88565" lon="11.6750467"><ele>786.4</ele><time>2026-04-03T09:56:38.099Z</time></trkpt><trkpt lat="42.8857467" lon="11.674975"><ele>786.1999999999999</ele><time>2026-04-03T09:56:39.099Z</time></trkpt><trkpt lat="42.8858583" lon="11.6749017"><ele>786.0</ele><time>2026-04-03T09:56:40.099Z</time></trkpt><trkpt lat="42.885965" lon="11.6748317"><ele>784.8</ele><time>2026-04-03T09:56:41.1Z</time></trkpt><trkpt lat="42.8860617" lon="11.6747717"><ele>783.5999999999999</ele><time>2026-04-03T09:56:42.099Z</time></trkpt><trkpt lat="42.8861483" lon="11.67473"><ele>782.4</ele><time>2026-04-03T09:56:43.099Z</time></trkpt><trkpt lat="42.8862317" lon="11.67473"><ele>781.2</ele><time>2026-04-03T09:56:44.099Z</time></trkpt><trkpt lat="42.886295" lon="11.6747717"><ele>780.0</ele><time>2026-04-03T09:56:45.1Z</time></trkpt><trkpt lat="42.88638" lon="11.6748967"><ele>780.0</ele><time>2026-04-03T09:56:47.099Z</time></trkpt><trkpt lat="42.8864183" lon="11.6749883"><ele>780.0</ele><time>2026-04-03T09:56:48.099Z</time></trkpt><trkpt lat="42.8864617" lon="11.6750733"><ele>780.0</ele><time>2026-04-03T09:56:49.099Z</time></trkpt><trkpt lat="42.8865233" lon="11.675185"><ele>780.0</ele><time>2026-04-03T09:56:51.099Z</time></trkpt><trkpt lat="42.8865967" lon="11.6751183"><ele>780.0</ele><time>2026-04-03T09:56:53.099Z</time></trkpt><trkpt lat="42.8866517" lon="11.6750383"><ele>780.0</ele><time>2026-04-03T09:56:54.099Z</time></trkpt><trkpt lat="42.8867233" lon="11.674985"><ele>777.4</ele><time>2026-04-03T09:56:55.099Z</time></trkpt><trkpt lat="42.8868183" lon="11.674955"><ele>774.8</ele><time>2026-04-03T09:56:56.099Z</time></trkpt><trkpt lat="42.8869167" lon="11.6749467"><ele>772.2</ele><time>2026-04-03T09:56:57.1Z</time></trkpt><trkpt lat="42.8870167" lon="11.6749333"><ele>769.6</ele><time>2026-04-03T09:56:58.099Z</time></trkpt><trkpt lat="42.8871333" lon="11.67489"><ele>767.0</ele><time>2026-04-03T09:56:59.099Z</time></trkpt><trkpt lat="42.88724" lon="11.67482"><ele>767.0</ele><time>2026-04-03T09:57:00.099Z</time></trkpt><trkpt lat="42.887345" lon="11.6747333"><ele>767.0</ele><time>2026-04-03T09:57:01.099Z</time></trkpt><trkpt lat="42.8874483" lon="11.6746283"><ele>767.0</ele><time>2026-04-03T09:57:02.1Z</time></trkpt><trkpt lat="42.8875583" lon="11.6745233"><ele>767.0</ele><time>2026-04-03T09:57:03.099Z</time></trkpt><trkpt lat="42.8876667" lon="11.6744233"><ele>768.0</ele><time>2026-04-03T09:57:04.099Z</time></trkpt><trkpt lat="42.8877783" lon="11.674325"><ele>769.0</ele><time>2026-04-03T09:57:05.099Z</time></trkpt><trkpt lat="42.8878933" lon="11.6742133"><ele>770.0</ele><time>2026-04-03T09:57:06.099Z</time></trkpt><trkpt lat="42.888" lon="11.674125"><ele>771.0</ele><time>2026-04-03T09:57:07.1Z</time></trkpt><trkpt lat="42.888095" lon="11.6740717"><ele>771.0</ele><time>2026-04-03T09:57:08.099Z</time></trkpt><trkpt lat="42.8881933" lon="11.6740433"><ele>771.0</ele><time>2026-04-03T09:57:09.099Z</time></trkpt><trkpt lat="42.8882867" lon="11.6740417"><ele>771.0</ele><time>2026-04-03T09:57:10.1Z</time></trkpt><trkpt lat="42.8883933" lon="11.6740517"><ele>771.0</ele><time>2026-04-03T09:57:11.1Z</time></trkpt><trkpt lat="42.888515" lon="11.6740633"><ele>771.0</ele><time>2026-04-03T09:57:12.099Z</time></trkpt><trkpt lat="42.8886267" lon="11.6740917"><ele>771.0</ele><time>2026-04-03T09:57:13.1Z</time></trkpt><trkpt lat="42.8887583" lon="11.6741383"><ele>771.0</ele><time>2026-04-03T09:57:14.099Z</time></trkpt><trkpt lat="42.8888883" lon="11.6741917"><ele>771.0</ele><time>2026-04-03T09:57:15.099Z</time></trkpt><trkpt lat="42.88901" lon="11.6742517"><ele>771.0</ele><time>2026-04-03T09:57:16.099Z</time></trkpt><trkpt lat="42.8891233" lon="11.674305"><ele>771.0</ele><time>2026-04-03T09:57:17.099Z</time></trkpt><trkpt lat="42.889235" lon="11.6743267"><ele>771.0</ele><time>2026-04-03T09:57:18.1Z</time></trkpt><trkpt lat="42.8893517" lon="11.6743417"><ele>771.0</ele><time>2026-04-03T09:57:19.099Z</time></trkpt><trkpt lat="42.8894683" lon="11.6743533"><ele>771.0</ele><time>2026-04-03T09:57:20.099Z</time></trkpt><trkpt lat="42.8895867" lon="11.6743517"><ele>772.0</ele><time>2026-04-03T09:57:21.099Z</time></trkpt><trkpt lat="42.889715" lon="11.6743333"><ele>773.0</ele><time>2026-04-03T09:57:22.099Z</time></trkpt><trkpt lat="42.88984" lon="11.6743167"><ele>774.0</ele><time>2026-04-03T09:57:23.099Z</time></trkpt><trkpt lat="42.8899533" lon="11.6743167"><ele>775.0</ele><time>2026-04-03T09:57:24.099Z</time></trkpt><trkpt lat="42.89006" lon="11.6743267"><ele>775.3333333333333</ele><time>2026-04-03T09:57:25.099Z</time></trkpt><trkpt lat="42.8901533" lon="11.6743467"><ele>775.6666666666666</ele><time>2026-04-03T09:57:26.1Z</time></trkpt><trkpt lat="42.89024" lon="11.674375"><ele>776.0</ele><time>2026-04-03T09:57:27.1Z</time></trkpt><trkpt lat="42.8903183" lon="11.674405"><ele>776.3333333333333</ele><time>2026-04-03T09:57:28.099Z</time></trkpt><trkpt lat="42.8903917" lon="11.6744583"><ele>776.6666666666666</ele><time>2026-04-03T09:57:29.099Z</time></trkpt><trkpt lat="42.890465" lon="11.6745283"><ele>777.0</ele><time>2026-04-03T09:57:30.1Z</time></trkpt><trkpt lat="42.8905033" lon="11.67463"><ele>775.4000000000001</ele><time>2026-04-03T09:57:31.1Z</time></trkpt><trkpt lat="42.8905167" lon="11.6747533"><ele>773.8000000000001</ele><time>2026-04-03T09:57:32.099Z</time></trkpt><trkpt lat="42.8905133" lon="11.67488"><ele>772.2</ele><time>2026-04-03T09:57:33.099Z</time></trkpt><trkpt lat="42.8904917" lon="11.6750217"><ele>770.6</ele><time>2026-04-03T09:57:34.1Z</time></trkpt><trkpt lat="42.890475" lon="11.6751333"><ele>769.0</ele><time>2026-04-03T09:57:35.099Z</time></trkpt><trkpt lat="42.8904717" lon="11.6752467"><ele>767.3333333333333</ele><time>2026-04-03T09:57:36.1Z</time></trkpt><trkpt lat="42.8904817" lon="11.6753417"><ele>765.6666666666666</ele><time>2026-04-03T09:57:37.099Z</time></trkpt><trkpt lat="42.89055" lon="11.6753633"><ele>764.0</ele><time>2026-04-03T09:57:38.099Z</time></trkpt><trkpt lat="42.8906233" lon="11.675365"><ele>762.3333333333333</ele><time>2026-04-03T09:57:39.099Z</time></trkpt><trkpt lat="42.8906933" lon="11.6753733"><ele>760.6666666666666</ele><time>2026-04-03T09:57:40.099Z</time></trkpt><trkpt lat="42.8907717" lon="11.6754433"><ele>759.0</ele><time>2026-04-03T09:57:42.1Z</time></trkpt><trkpt lat="42.890775" lon="11.6756017"><ele>759.0</ele><time>2026-04-03T09:57:44.1Z</time></trkpt><trkpt lat="42.8907717" lon="11.6757217"><ele>759.0</ele><time>2026-04-03T09:57:45.1Z</time></trkpt><trkpt lat="42.89077" lon="11.67586"><ele>759.0</ele><time>2026-04-03T09:57:46.1Z</time></trkpt><trkpt lat="42.8907767" lon="11.6760183"><ele>759.0</ele><time>2026-04-03T09:57:47.1Z</time></trkpt><trkpt lat="42.89079" lon="11.6761817"><ele>759.0</ele><time>2026-04-03T09:57:48.099Z</time></trkpt><trkpt lat="42.8908" lon="11.6763517"><ele>757.2</ele><time>2026-04-03T09:57:49.099Z</time></trkpt><trkpt lat="42.8907933" lon="11.6765133"><ele>755.4000000000001</ele><time>2026-04-03T09:57:50.099Z</time></trkpt><trkpt lat="42.8907733" lon="11.67667"><ele>753.6</ele><time>2026-04-03T09:57:51.099Z</time></trkpt><trkpt lat="42.8907533" lon="11.6768117"><ele>751.8</ele><time>2026-04-03T09:57:52.099Z</time></trkpt><trkpt lat="42.890725" lon="11.67695"><ele>750.0</ele><time>2026-04-03T09:57:53.099Z</time></trkpt><trkpt lat="42.8907" lon="11.677075"><ele>748.8571428571429</ele><time>2026-04-03T09:57:54.099Z</time></trkpt><trkpt lat="42.89069" lon="11.6771767"><ele>747.7142857142857</ele><time>2026-04-03T09:57:55.1Z</time></trkpt><trkpt lat="42.89068" lon="11.6772617"><ele>746.5714285714286</ele><time>2026-04-03T09:57:56.099Z</time></trkpt><trkpt lat="42.890665" lon="11.6773533"><ele>745.4285714285714</ele><time>2026-04-03T09:57:58.099Z</time></trkpt><trkpt lat="42.8907233" lon="11.6774183"><ele>744.2857142857142</ele><time>2026-04-03T09:58:05.099Z</time></trkpt><trkpt lat="42.8907667" lon="11.6774983"><ele>743.1428571428571</ele><time>2026-04-03T09:58:06.1Z</time></trkpt><trkpt lat="42.8908133" lon="11.677595"><ele>742.0</ele><time>2026-04-03T09:58:07.099Z</time></trkpt><trkpt lat="42.8908517" lon="11.67769"><ele>742.0</ele><time>2026-04-03T09:58:08.099Z</time></trkpt><trkpt lat="42.8908933" lon="11.6777667"><ele>742.0</ele><time>2026-04-03T09:58:09.099Z</time></trkpt><trkpt lat="42.8909317" lon="11.67784"><ele>742.0</ele><time>2026-04-03T09:58:10.099Z</time></trkpt><trkpt lat="42.8910067" lon="11.6779917"><ele>742.0</ele><time>2026-04-03T09:58:12.099Z</time></trkpt><trkpt lat="42.8910467" lon="11.67808"><ele>742.0</ele><time>2026-04-03T09:58:13.1Z</time></trkpt><trkpt lat="42.8910783" lon="11.678165"><ele>742.0</ele><time>2026-04-03T09:58:14.099Z</time></trkpt><trkpt lat="42.8911067" lon="11.6782533"><ele>739.0</ele><time>2026-04-03T09:58:15.1Z</time></trkpt><trkpt lat="42.8911717" lon="11.67842"><ele>736.0</ele><time>2026-04-03T09:58:17.099Z</time></trkpt><trkpt lat="42.8912067" lon="11.6785333"><ele>733.0</ele><time>2026-04-03T09:58:18.099Z</time></trkpt><trkpt lat="42.8912467" lon="11.6786467"><ele>730.0</ele><time>2026-04-03T09:58:19.099Z</time></trkpt><trkpt lat="42.89128" lon="11.678775"><ele>727.0</ele><time>2026-04-03T09:58:20.099Z</time></trkpt><trkpt lat="42.891315" lon="11.6788767"><ele>725.7142857142857</ele><time>2026-04-03T09:58:21.099Z</time></trkpt><trkpt lat="42.8913533" lon="11.67897"><ele>724.4285714285714</ele><time>2026-04-03T09:58:22.099Z</time></trkpt><trkpt lat="42.8913933" lon="11.679045"><ele>723.1428571428571</ele><time>2026-04-03T09:58:23.1Z</time></trkpt><trkpt lat="42.8914533" lon="11.6791417"><ele>721.8571428571429</ele><time>2026-04-03T09:58:25.1Z</time></trkpt><trkpt lat="42.8915117" lon="11.679185"><ele>720.5714285714287</ele><time>2026-04-03T09:58:28.099Z</time></trkpt><trkpt lat="42.8915767" lon="11.6791917"><ele>719.2857142857143</ele><time>2026-04-03T09:58:30.099Z</time></trkpt><trkpt lat="42.89164" lon="11.679195"><ele>718.0</ele><time>2026-04-03T09:58:31.1Z</time></trkpt><trkpt lat="42.89171" lon="11.6791833"><ele>717.8571428571429</ele><time>2026-04-03T09:58:32.099Z</time></trkpt><trkpt lat="42.8917833" lon="11.6791767"><ele>717.7142857142858</ele><time>2026-04-03T09:58:33.099Z</time></trkpt><trkpt lat="42.891855" lon="11.6791667"><ele>717.5714285714286</ele><time>2026-04-03T09:58:34.099Z</time></trkpt><trkpt lat="42.8919317" lon="11.6791517"><ele>717.4285714285714</ele><time>2026-04-03T09:58:35.099Z</time></trkpt><trkpt lat="42.892" lon="11.6791467"><ele>717.2857142857142</ele><time>2026-04-03T09:58:36.099Z</time></trkpt><trkpt lat="42.8920683" lon="11.6791367"><ele>717.1428571428571</ele><time>2026-04-03T09:58:37.099Z</time></trkpt><trkpt lat="42.8921383" lon="11.6791283"><ele>717.0</ele><time>2026-04-03T09:58:38.099Z</time></trkpt><trkpt lat="42.892245" lon="11.67913"><ele>717.0</ele><time>2026-04-03T09:58:40.099Z</time></trkpt><trkpt lat="42.8923217" lon="11.679175"><ele>717.0</ele><time>2026-04-03T09:58:43.099Z</time></trkpt><trkpt lat="42.8923817" lon="11.6792267"><ele>717.0</ele><time>2026-04-03T09:58:45.099Z</time></trkpt><trkpt lat="42.8924967" lon="11.6793267"><ele>717.0</ele><time>2026-04-03T09:58:47.099Z</time></trkpt><trkpt lat="42.8925733" lon="11.6794"><ele>717.0</ele><time>2026-04-03T09:58:48.1Z</time></trkpt><trkpt lat="42.8926633" lon="11.6794633"><ele>715.4000000000001</ele><time>2026-04-03T09:58:49.1Z</time></trkpt><trkpt lat="42.8927517" lon="11.6795283"><ele>713.8000000000001</ele><time>2026-04-03T09:58:50.1Z</time></trkpt><trkpt lat="42.8928433" lon="11.6795833"><ele>712.2</ele><time>2026-04-03T09:58:51.099Z</time></trkpt><trkpt lat="42.89294" lon="11.6796167"><ele>710.6</ele><time>2026-04-03T09:58:52.099Z</time></trkpt><trkpt lat="42.89304" lon="11.679655"><ele>709.0</ele><time>2026-04-03T09:58:53.099Z</time></trkpt><trkpt lat="42.8931367" lon="11.6796967"><ele>709.0</ele><time>2026-04-03T09:58:54.099Z</time></trkpt><trkpt lat="42.8932217" lon="11.6797433"><ele>709.0</ele><time>2026-04-03T09:58:55.099Z</time></trkpt><trkpt lat="42.8933083" lon="11.6797517"><ele>709.0</ele><time>2026-04-03T09:58:56.099Z</time></trkpt><trkpt lat="42.8933883" lon="11.6797367"><ele>709.0</ele><time>2026-04-03T09:58:57.1Z</time></trkpt><trkpt lat="42.8934733" lon="11.6797117"><ele>709.0</ele><time>2026-04-03T09:58:58.1Z</time></trkpt><trkpt lat="42.89356" lon="11.6797133"><ele>709.0</ele><time>2026-04-03T09:58:59.1Z</time></trkpt><trkpt lat="42.8936433" lon="11.6797483"><ele>709.0</ele><time>2026-04-03T09:59:00.099Z</time></trkpt><trkpt lat="42.8937167" lon="11.679825"><ele>709.0</ele><time>2026-04-03T09:59:01.1Z</time></trkpt><trkpt lat="42.89379" lon="11.6799333"><ele>709.0</ele><time>2026-04-03T09:59:02.099Z</time></trkpt><trkpt lat="42.893865" lon="11.6800417"><ele>709.0</ele><time>2026-04-03T09:59:03.1Z</time></trkpt><trkpt lat="42.8939483" lon="11.680165"><ele>709.0</ele><time>2026-04-03T09:59:04.099Z</time></trkpt><trkpt lat="42.89403" lon="11.6802783"><ele>709.0</ele><time>2026-04-03T09:59:05.1Z</time></trkpt><trkpt lat="42.894095" lon="11.6803983"><ele>709.0</ele><time>2026-04-03T09:59:06.1Z</time></trkpt><trkpt lat="42.89413" lon="11.6805083"><ele>709.0</ele><time>2026-04-03T09:59:07.099Z</time></trkpt><trkpt lat="42.8941483" lon="11.6806083"><ele>709.0</ele><time>2026-04-03T09:59:08.099Z</time></trkpt><trkpt lat="42.894165" lon="11.6807083"><ele>709.0</ele><time>2026-04-03T09:59:09.1Z</time></trkpt><trkpt lat="42.894205" lon="11.6808733"><ele>709.0</ele><time>2026-04-03T09:59:11.099Z</time></trkpt><trkpt lat="42.8942517" lon="11.6809567"><ele>709.0</ele><time>2026-04-03T09:59:12.099Z</time></trkpt><trkpt lat="42.8943167" lon="11.6810517"><ele>709.0</ele><time>2026-04-03T09:59:13.099Z</time></trkpt><trkpt lat="42.89439" lon="11.6811367"><ele>709.0</ele><time>2026-04-03T09:59:14.099Z</time></trkpt><trkpt lat="42.8944617" lon="11.6812117"><ele>709.0</ele><time>2026-04-03T09:59:15.099Z</time></trkpt><trkpt lat="42.8945267" lon="11.6812817"><ele>709.0</ele><time>2026-04-03T09:59:16.1Z</time></trkpt><trkpt lat="42.894575" lon="11.6813717"><ele>708.2857142857143</ele><time>2026-04-03T09:59:17.099Z</time></trkpt><trkpt lat="42.894605" lon="11.681475"><ele>707.5714285714286</ele><time>2026-04-03T09:59:18.099Z</time></trkpt><trkpt lat="42.89462" lon="11.681585"><ele>706.8571428571429</ele><time>2026-04-03T09:59:19.099Z</time></trkpt><trkpt lat="42.8946383" lon="11.6816767"><ele>706.1428571428571</ele><time>2026-04-03T09:59:20.099Z</time></trkpt><trkpt lat="42.8946683" lon="11.6817633"><ele>705.4285714285714</ele><time>2026-04-03T09:59:21.099Z</time></trkpt><trkpt lat="42.8947017" lon="11.6818417"><ele>704.7142857142858</ele><time>2026-04-03T09:59:22.099Z</time></trkpt><trkpt lat="42.89474" lon="11.6819167"><ele>704.0</ele><time>2026-04-03T09:59:23.099Z</time></trkpt><trkpt lat="42.894785" lon="11.682"><ele>702.8333333333333</ele><time>2026-04-03T09:59:24.1Z</time></trkpt><trkpt lat="42.8948367" lon="11.6820933"><ele>701.6666666666666</ele><time>2026-04-03T09:59:25.1Z</time></trkpt><trkpt lat="42.8948917" lon="11.682185"><ele>700.5</ele><time>2026-04-03T09:59:26.1Z</time></trkpt><trkpt lat="42.89494" lon="11.682255"><ele>699.3333333333334</ele><time>2026-04-03T09:59:27.1Z</time></trkpt><trkpt lat="42.8950017" lon="11.6823117"><ele>698.1666666666667</ele><time>2026-04-03T09:59:28.1Z</time></trkpt><trkpt lat="42.8950733" lon="11.682365"><ele>697.0</ele><time>2026-04-03T09:59:29.1Z</time></trkpt><trkpt lat="42.8951467" lon="11.6824267"><ele>697.1666666666667</ele><time>2026-04-03T09:59:30.099Z</time></trkpt><trkpt lat="42.8952117" lon="11.6825133"><ele>697.3333333333334</ele><time>2026-04-03T09:59:31.1Z</time></trkpt><trkpt lat="42.89526" lon="11.682615"><ele>697.5</ele><time>2026-04-03T09:59:32.099Z</time></trkpt><trkpt lat="42.895295" lon="11.68273"><ele>697.6666666666666</ele><time>2026-04-03T09:59:33.099Z</time></trkpt><trkpt lat="42.89532" lon="11.6828433"><ele>697.8333333333333</ele><time>2026-04-03T09:59:34.099Z</time></trkpt><trkpt lat="42.8953483" lon="11.6829533"><ele>698.0</ele><time>2026-04-03T09:59:35.099Z</time></trkpt><trkpt lat="42.8953667" lon="11.68306"><ele>697.9999999999999</ele><time>2026-04-03T09:59:36.099Z</time></trkpt><trkpt lat="42.895395" lon="11.68316"><ele>698.0</ele><time>2026-04-03T09:59:37.099Z</time></trkpt><trkpt lat="42.895435" lon="11.683245"><ele>698.0</ele><time>2026-04-03T09:59:38.099Z</time></trkpt><trkpt lat="42.8954783" lon="11.683315"><ele>698.0</ele><time>2026-04-03T09:59:39.099Z</time></trkpt><trkpt lat="42.89553" lon="11.68337"><ele>698.0</ele><time>2026-04-03T09:59:40.099Z</time></trkpt><trkpt lat="42.8955883" lon="11.6834233"><ele>697.9999999999999</ele><time>2026-04-03T09:59:41.1Z</time></trkpt><trkpt lat="42.8956567" lon="11.6835067"><ele>698.0</ele><time>2026-04-03T09:59:42.1Z</time></trkpt><trkpt lat="42.8957233" lon="11.6836183"><ele>697.0</ele><time>2026-04-03T09:59:43.099Z</time></trkpt><trkpt lat="42.8957883" lon="11.6837383"><ele>696.0</ele><time>2026-04-03T09:59:44.1Z</time></trkpt><trkpt lat="42.89584" lon="11.6838617"><ele>695.0</ele><time>2026-04-03T09:59:45.1Z</time></trkpt><trkpt lat="42.8958933" lon="11.683965"><ele>694.0</ele><time>2026-04-03T09:59:46.099Z</time></trkpt><trkpt lat="42.8959633" lon="11.6840467"><ele>693.0</ele><time>2026-04-03T09:59:47.099Z</time></trkpt><trkpt lat="42.8960417" lon="11.6841067"><ele>693.0</ele><time>2026-04-03T09:59:48.1Z</time></trkpt><trkpt lat="42.8961383" lon="11.6841467"><ele>693.0</ele><time>2026-04-03T09:59:49.099Z</time></trkpt><trkpt lat="42.8962467" lon="11.6841767"><ele>693.0</ele><time>2026-04-03T09:59:50.099Z</time></trkpt><trkpt lat="42.8963617" lon="11.684165"><ele>693.0</ele><time>2026-04-03T09:59:51.1Z</time></trkpt><trkpt lat="42.8964833" lon="11.6841317"><ele>693.0</ele><time>2026-04-03T09:59:52.1Z</time></trkpt><trkpt lat="42.896615" lon="11.6840867"><ele>693.0</ele><time>2026-04-03T09:59:53.099Z</time></trkpt><trkpt lat="42.896745" lon="11.68404"><ele>693.0</ele><time>2026-04-03T09:59:54.099Z</time></trkpt><trkpt lat="42.8968667" lon="11.6839983"><ele>693.0</ele><time>2026-04-03T09:59:55.099Z</time></trkpt><trkpt lat="42.8969733" lon="11.6839517"><ele>692.5</ele><time>2026-04-03T09:59:56.099Z</time></trkpt><trkpt lat="42.8970833" lon="11.6839033"><ele>692.0</ele><time>2026-04-03T09:59:57.099Z</time></trkpt><trkpt lat="42.8972033" lon="11.683865"><ele>691.5</ele><time>2026-04-03T09:59:58.099Z</time></trkpt><trkpt lat="42.8973283" lon="11.683855"><ele>691.0</ele><time>2026-04-03T09:59:59.099Z</time></trkpt><trkpt lat="42.8974517" lon="11.6838633"><ele>691.0</ele><time>2026-04-03T10:00:00.098Z</time></trkpt><trkpt lat="42.8975717" lon="11.6838833"><ele>691.0</ele><time>2026-04-03T10:00:01.099Z</time></trkpt><trkpt lat="42.89768" lon="11.6838633"><ele>691.0</ele><time>2026-04-03T10:00:02.098Z</time></trkpt><trkpt lat="42.8977783" lon="11.683835"><ele>691.0</ele><time>2026-04-03T10:00:03.098Z</time></trkpt><trkpt lat="42.897875" lon="11.6837733"><ele>691.0</ele><time>2026-04-03T10:00:04.098Z</time></trkpt><trkpt lat="42.8979733" lon="11.68372"><ele>691.0</ele><time>2026-04-03T10:00:05.099Z</time></trkpt><trkpt lat="42.8980733" lon="11.6836583"><ele>691.0</ele><time>2026-04-03T10:00:06.098Z</time></trkpt><trkpt lat="42.8981733" lon="11.68361"><ele>691.0</ele><time>2026-04-03T10:00:07.098Z</time></trkpt><trkpt lat="42.8982733" lon="11.6835883"><ele>691.0</ele><time>2026-04-03T10:00:08.098Z</time></trkpt><trkpt lat="42.8983667" lon="11.6835933"><ele>691.0</ele><time>2026-04-03T10:00:09.099Z</time></trkpt><trkpt lat="42.89847" lon="11.6836117"><ele>691.0</ele><time>2026-04-03T10:00:10.098Z</time></trkpt><trkpt lat="42.898585" lon="11.6836333"><ele>691.0</ele><time>2026-04-03T10:00:11.098Z</time></trkpt><trkpt lat="42.8987083" lon="11.6836533"><ele>691.0</ele><time>2026-04-03T10:00:12.098Z</time></trkpt><trkpt lat="42.8988233" lon="11.6836667"><ele>691.0</ele><time>2026-04-03T10:00:13.099Z</time></trkpt><trkpt lat="42.89893" lon="11.6837067"><ele>691.0</ele><time>2026-04-03T10:00:14.098Z</time></trkpt><trkpt lat="42.8990267" lon="11.6837483"><ele>691.0</ele><time>2026-04-03T10:00:15.099Z</time></trkpt><trkpt lat="42.8991267" lon="11.683765"><ele>691.0</ele><time>2026-04-03T10:00:16.098Z</time></trkpt><trkpt lat="42.89923" lon="11.6837683"><ele>691.0</ele><time>2026-04-03T10:00:17.099Z</time></trkpt><trkpt lat="42.8993283" lon="11.683755"><ele>691.0</ele><time>2026-04-03T10:00:18.098Z</time></trkpt><trkpt lat="42.89943" lon="11.6837267"><ele>690.8</ele><time>2026-04-03T10:00:19.098Z</time></trkpt><trkpt lat="42.899535" lon="11.683685"><ele>690.5999999999999</ele><time>2026-04-03T10:00:20.098Z</time></trkpt><trkpt lat="42.8996317" lon="11.68364"><ele>690.4</ele><time>2026-04-03T10:00:21.099Z</time></trkpt><trkpt lat="42.8997233" lon="11.6835867"><ele>690.2</ele><time>2026-04-03T10:00:22.098Z</time></trkpt><trkpt lat="42.8998267" lon="11.6835183"><ele>690.0</ele><time>2026-04-03T10:00:23.098Z</time></trkpt><trkpt lat="42.8999233" lon="11.6834533"><ele>691.8</ele><time>2026-04-03T10:00:24.098Z</time></trkpt><trkpt lat="42.900025" lon="11.6834117"><ele>693.6</ele><time>2026-04-03T10:00:25.098Z</time></trkpt><trkpt lat="42.900115" lon="11.6833767"><ele>695.4000000000001</ele><time>2026-04-03T10:00:26.098Z</time></trkpt><trkpt lat="42.9001983" lon="11.6833433"><ele>697.2</ele><time>2026-04-03T10:00:27.098Z</time></trkpt><trkpt lat="42.9002833" lon="11.6833367"><ele>699.0</ele><time>2026-04-03T10:00:28.098Z</time></trkpt><trkpt lat="42.900365" lon="11.683345"><ele>699.3333333333334</ele><time>2026-04-03T10:00:29.098Z</time></trkpt><trkpt lat="42.90044" lon="11.6833817"><ele>699.6666666666666</ele><time>2026-04-03T10:00:30.098Z</time></trkpt><trkpt lat="42.90051" lon="11.68344"><ele>700.0</ele><time>2026-04-03T10:00:31.098Z</time></trkpt><trkpt lat="42.900585" lon="11.683485"><ele>700.3333333333333</ele><time>2026-04-03T10:00:32.098Z</time></trkpt><trkpt lat="42.90068" lon="11.6835"><ele>700.6666666666666</ele><time>2026-04-03T10:00:33.098Z</time></trkpt><trkpt lat="42.90077" lon="11.6834933"><ele>701.0</ele><time>2026-04-03T10:00:34.098Z</time></trkpt><trkpt lat="42.9008633" lon="11.683475"><ele>701.0</ele><time>2026-04-03T10:00:35.099Z</time></trkpt><trkpt lat="42.900945" lon="11.68345"><ele>701.0</ele><time>2026-04-03T10:00:36.098Z</time></trkpt><trkpt lat="42.9010083" lon="11.6834217"><ele>701.0</ele><time>2026-04-03T10:00:37.098Z</time></trkpt><trkpt lat="42.901065" lon="11.6833533"><ele>701.0</ele><time>2026-04-03T10:00:39.098Z</time></trkpt><trkpt lat="42.9010517" lon="11.683225"><ele>701.0</ele><time>2026-04-03T10:00:41.099Z</time></trkpt><trkpt lat="42.9010217" lon="11.6831383"><ele>701.0</ele><time>2026-04-03T10:00:42.098Z</time></trkpt><trkpt lat="42.9009767" lon="11.6830083"><ele>701.0</ele><time>2026-04-03T10:00:43.098Z</time></trkpt><trkpt lat="42.9009167" lon="11.682855"><ele>701.0</ele><time>2026-04-03T10:00:44.099Z</time></trkpt><trkpt lat="42.9008417" lon="11.6827317"><ele>701.0</ele><time>2026-04-03T10:00:45.098Z</time></trkpt><trkpt lat="42.90076" lon="11.6826433"><ele>701.0</ele><time>2026-04-03T10:00:46.098Z</time></trkpt><trkpt lat="42.9006917" lon="11.6825633"><ele>701.0</ele><time>2026-04-03T10:00:47.098Z</time></trkpt><trkpt lat="42.9006383" lon="11.6824833"><ele>702.8</ele><time>2026-04-03T10:00:48.098Z</time></trkpt><trkpt lat="42.9006" lon="11.68238"><ele>704.5999999999999</ele><time>2026-04-03T10:00:49.098Z</time></trkpt><trkpt lat="42.90058" lon="11.6822867"><ele>706.4</ele><time>2026-04-03T10:00:50.098Z</time></trkpt><trkpt lat="42.90058" lon="11.6821867"><ele>708.2</ele><time>2026-04-03T10:00:51.098Z</time></trkpt><trkpt lat="42.900625" lon="11.6820117"><ele>710.0</ele><time>2026-04-03T10:00:53.098Z</time></trkpt><trkpt lat="42.90068" lon="11.6819183"><ele>711.6</ele><time>2026-04-03T10:00:54.098Z</time></trkpt><trkpt lat="42.90075" lon="11.681825"><ele>713.2</ele><time>2026-04-03T10:00:55.098Z</time></trkpt><trkpt lat="42.90083" lon="11.681725"><ele>714.8</ele><time>2026-04-03T10:00:56.099Z</time></trkpt><trkpt lat="42.9008983" lon="11.6816167"><ele>716.4</ele><time>2026-04-03T10:00:57.098Z</time></trkpt><trkpt lat="42.90094" lon="11.6815167"><ele>718.0</ele><time>2026-04-03T10:00:58.098Z</time></trkpt><trkpt lat="42.9009417" lon="11.68138"><ele>718.2</ele><time>2026-04-03T10:01:00.098Z</time></trkpt><trkpt lat="42.9008783" lon="11.6812417"><ele>718.4</ele><time>2026-04-03T10:01:02.098Z</time></trkpt><trkpt lat="42.900835" lon="11.6811567"><ele>718.6</ele><time>2026-04-03T10:01:03.098Z</time></trkpt><trkpt lat="42.9007833" lon="11.6810533"><ele>718.8000000000001</ele><time>2026-04-03T10:01:04.098Z</time></trkpt><trkpt lat="42.9007467" lon="11.6809367"><ele>719.0</ele><time>2026-04-03T10:01:05.099Z</time></trkpt><trkpt lat="42.9007333" lon="11.6808267"><ele>719.6</ele><time>2026-04-03T10:01:06.098Z</time></trkpt><trkpt lat="42.90074" lon="11.6807333"><ele>720.2</ele><time>2026-04-03T10:01:07.098Z</time></trkpt><trkpt lat="42.90077" lon="11.6806433"><ele>720.8000000000001</ele><time>2026-04-03T10:01:08.098Z</time></trkpt><trkpt lat="42.9008717" lon="11.6805583"><ele>721.4000000000001</ele><time>2026-04-03T10:01:09.099Z</time></trkpt><trkpt lat="42.9009583" lon="11.6804583"><ele>722.0</ele><time>2026-04-03T10:01:10.099Z</time></trkpt><trkpt lat="42.90101" lon="11.68036"><ele>723.8333333333333</ele><time>2026-04-03T10:01:11.098Z</time></trkpt><trkpt lat="42.9010083" lon="11.68026"><ele>725.6666666666666</ele><time>2026-04-03T10:01:12.098Z</time></trkpt><trkpt lat="42.900985" lon="11.6801717"><ele>727.5</ele><time>2026-04-03T10:01:13.098Z</time></trkpt><trkpt lat="42.900945" lon="11.6800833"><ele>729.3333333333334</ele><time>2026-04-03T10:01:14.099Z</time></trkpt><trkpt lat="42.9008933" lon="11.6799783"><ele>731.1666666666667</ele><time>2026-04-03T10:01:15.098Z</time></trkpt><trkpt lat="42.9008633" lon="11.679865"><ele>733.0</ele><time>2026-04-03T10:01:16.099Z</time></trkpt><trkpt lat="42.900855" lon="11.67974"><ele>733.0</ele><time>2026-04-03T10:01:17.099Z</time></trkpt><trkpt lat="42.90089" lon="11.67963"><ele>733.0</ele><time>2026-04-03T10:01:18.099Z</time></trkpt><trkpt lat="42.9009433" lon="11.6795"><ele>733.0</ele><time>2026-04-03T10:01:19.098Z</time></trkpt><trkpt lat="42.9009783" lon="11.679365"><ele>733.0</ele><time>2026-04-03T10:01:20.099Z</time></trkpt><trkpt lat="42.90099" lon="11.6792233"><ele>733.0</ele><time>2026-04-03T10:01:21.098Z</time></trkpt><trkpt lat="42.9009783" lon="11.6790783"><ele>734.75</ele><time>2026-04-03T10:01:22.098Z</time></trkpt><trkpt lat="42.9009533" lon="11.67892"><ele>736.5</ele><time>2026-04-03T10:01:23.099Z</time></trkpt><trkpt lat="42.9009367" lon="11.67876"><ele>738.25</ele><time>2026-04-03T10:01:24.098Z</time></trkpt><trkpt lat="42.9009333" lon="11.6785833"><ele>740.0</ele><time>2026-04-03T10:01:25.099Z</time></trkpt><trkpt lat="42.9009617" lon="11.6784033"><ele>742.5</ele><time>2026-04-03T10:01:26.098Z</time></trkpt><trkpt lat="42.9010167" lon="11.678215"><ele>745.0</ele><time>2026-04-03T10:01:27.098Z</time></trkpt><trkpt lat="42.9010617" lon="11.6780233"><ele>747.5</ele><time>2026-04-03T10:01:28.098Z</time></trkpt><trkpt lat="42.9010983" lon="11.6778433"><ele>750.0</ele><time>2026-04-03T10:01:29.098Z</time></trkpt><trkpt lat="42.9011167" lon="11.67767"><ele>753.25</ele><time>2026-04-03T10:01:30.098Z</time></trkpt><trkpt lat="42.9011133" lon="11.67752"><ele>756.5</ele><time>2026-04-03T10:01:31.098Z</time></trkpt><trkpt lat="42.9011217" lon="11.6773567"><ele>759.75</ele><time>2026-04-03T10:01:32.098Z</time></trkpt><trkpt lat="42.9011417" lon="11.6771983"><ele>763.0</ele><time>2026-04-03T10:01:33.098Z</time></trkpt><trkpt lat="42.9011667" lon="11.677055"><ele>763.0</ele><time>2026-04-03T10:01:34.099Z</time></trkpt><trkpt lat="42.9011733" lon="11.676945"><ele>763.0</ele><time>2026-04-03T10:01:35.098Z</time></trkpt><trkpt lat="42.9011033" lon="11.676825"><ele>763.0</ele><time>2026-04-03T10:01:37.098Z</time></trkpt><trkpt lat="42.9010267" lon="11.6767833"><ele>763.0</ele><time>2026-04-03T10:01:38.099Z</time></trkpt><trkpt lat="42.9009583" lon="11.6767333"><ele>763.0</ele><time>2026-04-03T10:01:39.098Z</time></trkpt><trkpt lat="42.9009017" lon="11.6766667"><ele>763.0</ele><time>2026-04-03T10:01:40.099Z</time></trkpt><trkpt lat="42.9008567" lon="11.676575"><ele>766.0</ele><time>2026-04-03T10:01:41.099Z</time></trkpt><trkpt lat="42.9008117" lon="11.67646"><ele>769.0</ele><time>2026-04-03T10:01:42.098Z</time></trkpt><trkpt lat="42.9007567" lon="11.6763383"><ele>772.0</ele><time>2026-04-03T10:01:43.098Z</time></trkpt><trkpt lat="42.9006917" lon="11.6762133"><ele>775.0</ele><time>2026-04-03T10:01:44.098Z</time></trkpt><trkpt lat="42.90065" lon="11.6761167"><ele>778.0</ele><time>2026-04-03T10:01:45.098Z</time></trkpt><trkpt lat="42.90065" lon="11.6760283"><ele>779.5999999999999</ele><time>2026-04-03T10:01:46.098Z</time></trkpt><trkpt lat="42.9006833" lon="11.675925"><ele>781.1999999999999</ele><time>2026-04-03T10:01:47.098Z</time></trkpt><trkpt lat="42.9007333" lon="11.675815"><ele>782.8</ele><time>2026-04-03T10:01:48.098Z</time></trkpt><trkpt lat="42.9007833" lon="11.675675"><ele>784.4</ele><time>2026-04-03T10:01:49.098Z</time></trkpt><trkpt lat="42.9008267" lon="11.67551"><ele>786.0</ele><time>2026-04-03T10:01:50.099Z</time></trkpt><trkpt lat="42.9008433" lon="11.6753383"><ele>787.75</ele><time>2026-04-03T10:01:51.098Z</time></trkpt><trkpt lat="42.9008367" lon="11.6751433"><ele>789.5</ele><time>2026-04-03T10:01:52.098Z</time></trkpt><trkpt lat="42.90083" lon="11.6749367"><ele>791.25</ele><time>2026-04-03T10:01:53.098Z</time></trkpt><trkpt lat="42.9008317" lon="11.67474"><ele>793.0</ele><time>2026-04-03T10:01:54.099Z</time></trkpt><trkpt lat="42.9008283" lon="11.674565"><ele>794.1666666666666</ele><time>2026-04-03T10:01:55.099Z</time></trkpt><trkpt lat="42.90081" lon="11.67443"><ele>795.3333333333333</ele><time>2026-04-03T10:01:56.098Z</time></trkpt><trkpt lat="42.90076" lon="11.6743367"><ele>796.5</ele><time>2026-04-03T10:01:57.098Z</time></trkpt><trkpt lat="42.900695" lon="11.6742833"><ele>797.6666666666667</ele><time>2026-04-03T10:01:58.098Z</time></trkpt><trkpt lat="42.900625" lon="11.6742683"><ele>798.8333333333334</ele><time>2026-04-03T10:01:59.098Z</time></trkpt><trkpt lat="42.90056" lon="11.6743"><ele>800.0</ele><time>2026-04-03T10:02:00.099Z</time></trkpt><trkpt lat="42.9004967" lon="11.6743583"><ele>800.0</ele><time>2026-04-03T10:02:01.099Z</time></trkpt><trkpt lat="42.9004367" lon="11.6744367"><ele>800.0</ele><time>2026-04-03T10:02:02.098Z</time></trkpt><trkpt lat="42.90037" lon="11.67452"><ele>800.0</ele><time>2026-04-03T10:02:03.099Z</time></trkpt><trkpt lat="42.90029" lon="11.674595"><ele>800.0</ele><time>2026-04-03T10:02:04.098Z</time></trkpt><trkpt lat="42.900185" lon="11.674665"><ele>800.0</ele><time>2026-04-03T10:02:05.098Z</time></trkpt><trkpt lat="42.9000767" lon="11.674745"><ele>800.0</ele><time>2026-04-03T10:02:06.099Z</time></trkpt><trkpt lat="42.8999617" lon="11.6748283"><ele>800.0</ele><time>2026-04-03T10:02:07.099Z</time></trkpt><trkpt lat="42.8998417" lon="11.6749333"><ele>800.0</ele><time>2026-04-03T10:02:08.098Z</time></trkpt><trkpt lat="42.8997183" lon="11.6750433"><ele>800.0</ele><time>2026-04-03T10:02:09.099Z</time></trkpt><trkpt lat="42.8995983" lon="11.6751283"><ele>800.0</ele><time>2026-04-03T10:02:10.098Z</time></trkpt><trkpt lat="42.8994983" lon="11.6751783"><ele>800.0</ele><time>2026-04-03T10:02:11.098Z</time></trkpt><trkpt lat="42.89942" lon="11.6751867"><ele>800.0</ele><time>2026-04-03T10:02:12.098Z</time></trkpt><trkpt lat="42.8993333" lon="11.6751083"><ele>800.0</ele><time>2026-04-03T10:02:14.098Z</time></trkpt><trkpt lat="42.899295" lon="11.6749467"><ele>800.0</ele><time>2026-04-03T10:02:16.098Z</time></trkpt><trkpt lat="42.8992817" lon="11.6748333"><ele>802.25</ele><time>2026-04-03T10:02:17.099Z</time></trkpt><trkpt lat="42.8992483" lon="11.674695"><ele>804.5</ele><time>2026-04-03T10:02:18.099Z</time></trkpt><trkpt lat="42.899205" lon="11.674555"><ele>806.75</ele><time>2026-04-03T10:02:19.098Z</time></trkpt><trkpt lat="42.89913" lon="11.6744217"><ele>809.0</ele><time>2026-04-03T10:02:20.098Z</time></trkpt><trkpt lat="42.89905" lon="11.6742883"><ele>811.0</ele><time>2026-04-03T10:02:21.098Z</time></trkpt><trkpt lat="42.898985" lon="11.6741483"><ele>813.0</ele><time>2026-04-03T10:02:22.098Z</time></trkpt><trkpt lat="42.8989667" lon="11.6740183"><ele>815.0</ele><time>2026-04-03T10:02:23.098Z</time></trkpt><trkpt lat="42.898965" lon="11.6738817"><ele>817.0</ele><time>2026-04-03T10:02:24.098Z</time></trkpt><trkpt lat="42.8989683" lon="11.673735"><ele>819.0</ele><time>2026-04-03T10:02:25.099Z</time></trkpt><trkpt lat="42.8989717" lon="11.6735783"><ele>820.0</ele><time>2026-04-03T10:02:26.098Z</time></trkpt><trkpt lat="42.89899" lon="11.6734367"><ele>821.0</ele><time>2026-04-03T10:02:27.098Z</time></trkpt><trkpt lat="42.899035" lon="11.6733467"><ele>822.0</ele><time>2026-04-03T10:02:28.098Z</time></trkpt><trkpt lat="42.8991033" lon="11.6732883"><ele>823.0</ele><time>2026-04-03T10:02:29.099Z</time></trkpt><trkpt lat="42.899185" lon="11.6732567"><ele>824.0</ele><time>2026-04-03T10:02:30.099Z</time></trkpt><trkpt lat="42.8992633" lon="11.6732167"><ele>825.0</ele><time>2026-04-03T10:02:31.098Z</time></trkpt><trkpt lat="42.8993283" lon="11.67316"><ele>825.0</ele><time>2026-04-03T10:02:32.099Z</time></trkpt><trkpt lat="42.899345" lon="11.673075"><ele>825.0</ele><time>2026-04-03T10:02:33.098Z</time></trkpt><trkpt lat="42.8993417" lon="11.6729733"><ele>825.0</ele><time>2026-04-03T10:02:34.098Z</time></trkpt><trkpt lat="42.8993083" lon="11.67288"><ele>825.0</ele><time>2026-04-03T10:02:35.099Z</time></trkpt><trkpt lat="42.8992483" lon="11.67279"><ele>825.0</ele><time>2026-04-03T10:02:36.099Z</time></trkpt><trkpt lat="42.89918" lon="11.6726767"><ele>825.0</ele><time>2026-04-03T10:02:37.098Z</time></trkpt><trkpt lat="42.89912" lon="11.672545"><ele>829.25</ele><time>2026-04-03T10:02:38.098Z</time></trkpt><trkpt lat="42.8990633" lon="11.6724017"><ele>833.5</ele><time>2026-04-03T10:02:39.098Z</time></trkpt><trkpt lat="42.8990267" lon="11.6722467"><ele>837.75</ele><time>2026-04-03T10:02:40.098Z</time></trkpt><trkpt lat="42.89899" lon="11.6720933"><ele>842.0</ele><time>2026-04-03T10:02:41.098Z</time></trkpt><trkpt lat="42.8989483" lon="11.67193"><ele>844.25</ele><time>2026-04-03T10:02:42.098Z</time></trkpt><trkpt lat="42.8988933" lon="11.671765"><ele>846.5</ele><time>2026-04-03T10:02:43.098Z</time></trkpt><trkpt lat="42.8988383" lon="11.6716033"><ele>848.75</ele><time>2026-04-03T10:02:44.099Z</time></trkpt><trkpt lat="42.898775" lon="11.6714583"><ele>851.0</ele><time>2026-04-03T10:02:45.098Z</time></trkpt><trkpt lat="42.8987017" lon="11.6713117"><ele>851.0</ele><time>2026-04-03T10:02:46.098Z</time></trkpt><trkpt lat="42.8986117" lon="11.6711917"><ele>851.0</ele><time>2026-04-03T10:02:47.098Z</time></trkpt><trkpt lat="42.8985133" lon="11.6710867"><ele>851.0</ele><time>2026-04-03T10:02:48.098Z</time></trkpt><trkpt lat="42.89846" lon="11.67097"><ele>851.0</ele><time>2026-04-03T10:02:49.098Z</time></trkpt><trkpt lat="42.8984317" lon="11.6708633"><ele>851.0</ele><time>2026-04-03T10:02:50.099Z</time></trkpt><trkpt lat="42.8984067" lon="11.6707633"><ele>853.8</ele><time>2026-04-03T10:02:51.098Z</time></trkpt><trkpt lat="42.8983817" lon="11.6706567"><ele>856.5999999999999</ele><time>2026-04-03T10:02:52.099Z</time></trkpt><trkpt lat="42.898345" lon="11.6705417"><ele>859.4</ele><time>2026-04-03T10:02:53.098Z</time></trkpt><trkpt lat="42.8983367" lon="11.6704167"><ele>862.2</ele><time>2026-04-03T10:02:54.098Z</time></trkpt><trkpt lat="42.898335" lon="11.67028"><ele>865.0</ele><time>2026-04-03T10:02:55.098Z</time></trkpt><trkpt lat="42.8983383" lon="11.6701383"><ele>864.4</ele><time>2026-04-03T10:02:56.098Z</time></trkpt><trkpt lat="42.8983483" lon="11.6700017"><ele>863.8</ele><time>2026-04-03T10:02:57.099Z</time></trkpt><trkpt lat="42.898365" lon="11.6698717"><ele>863.2</ele><time>2026-04-03T10:02:58.098Z</time></trkpt><trkpt lat="42.898395" lon="11.669745"><ele>862.6</ele><time>2026-04-03T10:02:59.098Z</time></trkpt><trkpt lat="42.898435" lon="11.669625"><ele>862.0</ele><time>2026-04-03T10:03:00.098Z</time></trkpt><trkpt lat="42.8984867" lon="11.66951"><ele>863.4000000000001</ele><time>2026-04-03T10:03:01.098Z</time></trkpt><trkpt lat="42.8985317" lon="11.6693983"><ele>864.8000000000001</ele><time>2026-04-03T10:03:02.098Z</time></trkpt><trkpt lat="42.8985567" lon="11.6692683"><ele>866.2</ele><time>2026-04-03T10:03:03.099Z</time></trkpt><trkpt lat="42.8985717" lon="11.66913"><ele>867.6</ele><time>2026-04-03T10:03:04.098Z</time></trkpt><trkpt lat="42.89857" lon="11.668985"><ele>869.0</ele><time>2026-04-03T10:03:05.098Z</time></trkpt><trkpt lat="42.898555" lon="11.6688433"><ele>869.0000000000001</ele><time>2026-04-03T10:03:06.098Z</time></trkpt><trkpt lat="42.8985333" lon="11.6687233"><ele>869.0</ele><time>2026-04-03T10:03:07.098Z</time></trkpt><trkpt lat="42.89851" lon="11.6686383"><ele>869.0</ele><time>2026-04-03T10:03:08.099Z</time></trkpt><trkpt lat="42.8984917" lon="11.6685067"><ele>869.0</ele><time>2026-04-03T10:03:10.098Z</time></trkpt><trkpt lat="42.8985233" lon="11.6683917"><ele>869.0000000000001</ele><time>2026-04-03T10:03:12.098Z</time></trkpt><trkpt lat="42.8985733" lon="11.668335"><ele>869.0</ele><time>2026-04-03T10:03:13.098Z</time></trkpt><trkpt lat="42.8986417" lon="11.66827"><ele>870.0</ele><time>2026-04-03T10:03:14.098Z</time></trkpt><trkpt lat="42.8987317" lon="11.6681967"><ele>871.0</ele><time>2026-04-03T10:03:15.098Z</time></trkpt><trkpt lat="42.8988367" lon="11.6681133"><ele>872.0</ele><time>2026-04-03T10:03:16.098Z</time></trkpt><trkpt lat="42.898945" lon="11.6680233"><ele>873.0</ele><time>2026-04-03T10:03:17.098Z</time></trkpt><trkpt lat="42.899055" lon="11.667915"><ele>873.0</ele><time>2026-04-03T10:03:18.098Z</time></trkpt><trkpt lat="42.8991667" lon="11.6678033"><ele>873.0</ele><time>2026-04-03T10:03:19.098Z</time></trkpt><trkpt lat="42.89929" lon="11.667685"><ele>873.0</ele><time>2026-04-03T10:03:20.099Z</time></trkpt><trkpt lat="42.8994033" lon="11.667575"><ele>873.0</ele><time>2026-04-03T10:03:21.098Z</time></trkpt><trkpt lat="42.89953" lon="11.667455"><ele>873.0</ele><time>2026-04-03T10:03:22.099Z</time></trkpt><trkpt lat="42.8996517" lon="11.6673567"><ele>873.0</ele><time>2026-04-03T10:03:23.098Z</time></trkpt><trkpt lat="42.8997867" lon="11.6672883"><ele>873.0</ele><time>2026-04-03T10:03:24.098Z</time></trkpt><trkpt lat="42.8999233" lon="11.6672467"><ele>873.0</ele><time>2026-04-03T10:03:25.098Z</time></trkpt><trkpt lat="42.900055" lon="11.6672417"><ele>873.3333333333334</ele><time>2026-04-03T10:03:26.099Z</time></trkpt><trkpt lat="42.90015" lon="11.667255"><ele>873.6666666666667</ele><time>2026-04-03T10:03:27.098Z</time></trkpt><trkpt lat="42.9002283" lon="11.6672883"><ele>874.0</ele><time>2026-04-03T10:03:28.099Z</time></trkpt><trkpt lat="42.9002983" lon="11.6673"><ele>874.3333333333334</ele><time>2026-04-03T10:03:29.098Z</time></trkpt><trkpt lat="42.9003733" lon="11.66729"><ele>874.6666666666667</ele><time>2026-04-03T10:03:30.098Z</time></trkpt><trkpt lat="42.9004567" lon="11.66725"><ele>875.0</ele><time>2026-04-03T10:03:31.099Z</time></trkpt><trkpt lat="42.9005383" lon="11.6671817"><ele>875.0</ele><time>2026-04-03T10:03:32.098Z</time></trkpt><trkpt lat="42.900625" lon="11.6671033"><ele>875.0</ele><time>2026-04-03T10:03:33.098Z</time></trkpt><trkpt lat="42.9007267" lon="11.6670183"><ele>875.0</ele><time>2026-04-03T10:03:34.099Z</time></trkpt><trkpt lat="42.90084" lon="11.6669283"><ele>875.0</ele><time>2026-04-03T10:03:35.098Z</time></trkpt><trkpt lat="42.900965" lon="11.666855"><ele>878.0</ele><time>2026-04-03T10:03:36.098Z</time></trkpt><trkpt lat="42.9010967" lon="11.6668017"><ele>881.0</ele><time>2026-04-03T10:03:37.098Z</time></trkpt><trkpt lat="42.9012417" lon="11.6667717"><ele>884.0</ele><time>2026-04-03T10:03:38.098Z</time></trkpt><trkpt lat="42.9013933" lon="11.6667583"><ele>887.0</ele><time>2026-04-03T10:03:39.098Z</time></trkpt><trkpt lat="42.9015433" lon="11.666775"><ele>887.0</ele><time>2026-04-03T10:03:40.098Z</time></trkpt><trkpt lat="42.9017017" lon="11.6668033"><ele>887.0</ele><time>2026-04-03T10:03:41.098Z</time></trkpt><trkpt lat="42.901855" lon="11.6668333"><ele>887.0</ele><time>2026-04-03T10:03:42.098Z</time></trkpt><trkpt lat="42.9020133" lon="11.6668367"><ele>891.0</ele><time>2026-04-03T10:03:43.098Z</time></trkpt><trkpt lat="42.902165" lon="11.6667967"><ele>895.0</ele><time>2026-04-03T10:03:44.098Z</time></trkpt><trkpt lat="42.9023017" lon="11.6667267"><ele>899.0</ele><time>2026-04-03T10:03:45.099Z</time></trkpt><trkpt lat="42.9024183" lon="11.6666017"><ele>903.0</ele><time>2026-04-03T10:03:46.098Z</time></trkpt><trkpt lat="42.9025033" lon="11.6664267"><ele>903.0</ele><time>2026-04-03T10:03:47.099Z</time></trkpt><trkpt lat="42.90256" lon="11.6662467"><ele>903.0</ele><time>2026-04-03T10:03:48.098Z</time></trkpt><trkpt lat="42.902575" lon="11.6660517"><ele>903.0</ele><time>2026-04-03T10:03:49.098Z</time></trkpt><trkpt lat="42.9025617" lon="11.665855"><ele>903.0</ele><time>2026-04-03T10:03:50.098Z</time></trkpt><trkpt lat="42.9025117" lon="11.6656617"><ele>902.6666666666667</ele><time>2026-04-03T10:03:51.098Z</time></trkpt><trkpt lat="42.9024283" lon="11.6654817"><ele>902.3333333333334</ele><time>2026-04-03T10:03:52.099Z</time></trkpt><trkpt lat="42.902325" lon="11.665305"><ele>902.0</ele><time>2026-04-03T10:03:53.098Z</time></trkpt><trkpt lat="42.9022167" lon="11.6651233"><ele>904.6666666666667</ele><time>2026-04-03T10:03:54.098Z</time></trkpt><trkpt lat="42.9021083" lon="11.6649317"><ele>907.3333333333333</ele><time>2026-04-03T10:03:55.098Z</time></trkpt><trkpt lat="42.9020067" lon="11.66473"><ele>910.0</ele><time>2026-04-03T10:03:56.099Z</time></trkpt><trkpt lat="42.9019133" lon="11.6645267"><ele>909.0</ele><time>2026-04-03T10:03:57.098Z</time></trkpt><trkpt lat="42.9018317" lon="11.664305"><ele>908.0</ele><time>2026-04-03T10:03:58.098Z</time></trkpt><trkpt lat="42.9017717" lon="11.664065"><ele>907.0</ele><time>2026-04-03T10:03:59.098Z</time></trkpt><trkpt lat="42.9017267" lon="11.66381"><ele>911.0</ele><time>2026-04-03T10:04:00.098Z</time></trkpt><trkpt lat="42.9016617" lon="11.6635767"><ele>915.0</ele><time>2026-04-03T10:04:01.098Z</time></trkpt><trkpt lat="42.9015983" lon="11.663335"><ele>919.0</ele><time>2026-04-03T10:04:02.098Z</time></trkpt><trkpt lat="42.9015867" lon="11.6630967"><ele>919.0</ele><time>2026-04-03T10:04:03.098Z</time></trkpt><trkpt lat="42.9016033" lon="11.6628683"><ele>919.0</ele><time>2026-04-03T10:04:04.098Z</time></trkpt><trkpt lat="42.90167" lon="11.6626883"><ele>919.0</ele><time>2026-04-03T10:04:05.098Z</time></trkpt><trkpt lat="42.9017483" lon="11.6625517"><ele>919.0</ele><time>2026-04-03T10:04:06.099Z</time></trkpt><trkpt lat="42.9018433" lon="11.662475"><ele>923.25</ele><time>2026-04-03T10:04:07.098Z</time></trkpt><trkpt lat="42.9019583" lon="11.66244"><ele>927.5</ele><time>2026-04-03T10:04:08.098Z</time></trkpt><trkpt lat="42.902085" lon="11.6624467"><ele>931.75</ele><time>2026-04-03T10:04:09.098Z</time></trkpt><trkpt lat="42.9022133" lon="11.6624717"><ele>936.0</ele><time>2026-04-03T10:04:10.099Z</time></trkpt><trkpt lat="42.9023467" lon="11.6625167"><ele>936.0</ele><time>2026-04-03T10:04:11.098Z</time></trkpt><trkpt lat="42.9024883" lon="11.6625867"><ele>936.0</ele><time>2026-04-03T10:04:12.098Z</time></trkpt><trkpt lat="42.90262" lon="11.662665"><ele>936.0</ele><time>2026-04-03T10:04:13.098Z</time></trkpt><trkpt lat="42.9027533" lon="11.66275"><ele>936.0</ele><time>2026-04-03T10:04:14.099Z</time></trkpt><trkpt lat="42.902895" lon="11.6628167"><ele>937.6666666666667</ele><time>2026-04-03T10:04:15.098Z</time></trkpt><trkpt lat="42.903045" lon="11.6628683"><ele>939.3333333333334</ele><time>2026-04-03T10:04:16.098Z</time></trkpt><trkpt lat="42.9032017" lon="11.6628917"><ele>941.0</ele><time>2026-04-03T10:04:17.098Z</time></trkpt><trkpt lat="42.9033483" lon="11.6629133"><ele>941.6666666666667</ele><time>2026-04-03T10:04:18.098Z</time></trkpt><trkpt lat="42.9035067" lon="11.6628867"><ele>942.3333333333333</ele><time>2026-04-03T10:04:19.098Z</time></trkpt><trkpt lat="42.9036733" lon="11.6628283"><ele>943.0</ele><time>2026-04-03T10:04:20.098Z</time></trkpt><trkpt lat="42.9038367" lon="11.6627517"><ele>945.0</ele><time>2026-04-03T10:04:21.099Z</time></trkpt><trkpt lat="42.904005" lon="11.6626767"><ele>947.0</ele><time>2026-04-03T10:04:22.099Z</time></trkpt><trkpt lat="42.904175" lon="11.66261"><ele>949.0</ele><time>2026-04-03T10:04:23.098Z</time></trkpt><trkpt lat="42.9043567" lon="11.6625567"><ele>951.3333333333333</ele><time>2026-04-03T10:04:24.099Z</time></trkpt><trkpt lat="42.9045367" lon="11.6625467"><ele>953.6666666666667</ele><time>2026-04-03T10:04:25.099Z</time></trkpt><trkpt lat="42.9047167" lon="11.662575"><ele>956.0</ele><time>2026-04-03T10:04:26.099Z</time></trkpt><trkpt lat="42.90489" lon="11.662615"><ele>956.0</ele><time>2026-04-03T10:04:27.098Z</time></trkpt><trkpt lat="42.9050583" lon="11.6626217"><ele>956.0</ele><time>2026-04-03T10:04:28.098Z</time></trkpt><trkpt lat="42.9052117" lon="11.6625883"><ele>956.0</ele><time>2026-04-03T10:04:29.099Z</time></trkpt><trkpt lat="42.905365" lon="11.6625183"><ele>957.0</ele><time>2026-04-03T10:04:30.098Z</time></trkpt><trkpt lat="42.905525" lon="11.6624267"><ele>958.0</ele><time>2026-04-03T10:04:31.097Z</time></trkpt><trkpt lat="42.9056933" lon="11.6623267"><ele>959.0</ele><time>2026-04-03T10:04:32.097Z</time></trkpt><trkpt lat="42.9058667" lon="11.6622217"><ele>961.0</ele><time>2026-04-03T10:04:33.097Z</time></trkpt><trkpt lat="42.90604" lon="11.6621117"><ele>963.0</ele><time>2026-04-03T10:04:34.097Z</time></trkpt><trkpt lat="42.906205" lon="11.6620017"><ele>965.0</ele><time>2026-04-03T10:04:35.098Z</time></trkpt><trkpt lat="42.9063667" lon="11.6618967"><ele>966.6666666666667</ele><time>2026-04-03T10:04:36.098Z</time></trkpt><trkpt lat="42.9065283" lon="11.66178"><ele>968.3333333333333</ele><time>2026-04-03T10:04:37.097Z</time></trkpt><trkpt lat="42.9066883" lon="11.6616367"><ele>970.0</ele><time>2026-04-03T10:04:38.097Z</time></trkpt><trkpt lat="42.90685" lon="11.6614933"><ele>971.6666666666666</ele><time>2026-04-03T10:04:39.097Z</time></trkpt><trkpt lat="42.907015" lon="11.6613483"><ele>973.3333333333333</ele><time>2026-04-03T10:04:40.097Z</time></trkpt><trkpt lat="42.9071783" lon="11.6612067"><ele>975.0</ele><time>2026-04-03T10:04:41.097Z</time></trkpt><trkpt lat="42.9073467" lon="11.661075"><ele>977.6666666666667</ele><time>2026-04-03T10:04:42.097Z</time></trkpt><trkpt lat="42.90752" lon="11.66092"><ele>980.3333333333334</ele><time>2026-04-03T10:04:43.097Z</time></trkpt><trkpt lat="42.9076933" lon="11.6608133"><ele>983.0</ele><time>2026-04-03T10:04:44.097Z</time></trkpt><trkpt lat="42.9078817" lon="11.6607367"><ele>984.6666666666667</ele><time>2026-04-03T10:04:45.098Z</time></trkpt><trkpt lat="42.9080783" lon="11.6606683"><ele>986.3333333333333</ele><time>2026-04-03T10:04:46.097Z</time></trkpt><trkpt lat="42.908275" lon="11.6606017"><ele>988.0</ele><time>2026-04-03T10:04:47.097Z</time></trkpt><trkpt lat="42.9084617" lon="11.66054"><ele>989.3333333333333</ele><time>2026-04-03T10:04:48.097Z</time></trkpt><trkpt lat="42.9086433" lon="11.660495"><ele>990.6666666666667</ele><time>2026-04-03T10:04:49.097Z</time></trkpt><trkpt lat="42.908825" lon="11.6604583"><ele>992.0</ele><time>2026-04-03T10:04:50.097Z</time></trkpt><trkpt lat="42.909" lon="11.6604117"><ele>992.0</ele><time>2026-04-03T10:04:51.098Z</time></trkpt><trkpt lat="42.9091733" lon="11.660335"><ele>992.0</ele><time>2026-04-03T10:04:52.097Z</time></trkpt><trkpt lat="42.9093433" lon="11.6602383"><ele>992.0</ele><time>2026-04-03T10:04:53.098Z</time></trkpt><trkpt lat="42.9094967" lon="11.66011"><ele>997.0</ele><time>2026-04-03T10:04:54.097Z</time></trkpt><trkpt lat="42.90965" lon="11.6599467"><ele>1002.0</ele><time>2026-04-03T10:04:55.098Z</time></trkpt><trkpt lat="42.909805" lon="11.6597983"><ele>1007.0</ele><time>2026-04-03T10:04:56.098Z</time></trkpt><trkpt lat="42.9099617" lon="11.6596733"><ele>1007.6666666666667</ele><time>2026-04-03T10:04:57.097Z</time></trkpt><trkpt lat="42.910125" lon="11.6595783"><ele>1008.3333333333333</ele><time>2026-04-03T10:04:58.097Z</time></trkpt><trkpt lat="42.9102883" lon="11.6594817"><ele>1009.0</ele><time>2026-04-03T10:04:59.098Z</time></trkpt><trkpt lat="42.9104417" lon="11.6593533"><ele>1013.3333333333333</ele><time>2026-04-03T10:05:00.097Z</time></trkpt><trkpt lat="42.9105717" lon="11.6591933"><ele>1017.6666666666667</ele><time>2026-04-03T10:05:01.098Z</time></trkpt><trkpt lat="42.9106883" lon="11.6590083"><ele>1022.0</ele><time>2026-04-03T10:05:02.097Z</time></trkpt><trkpt lat="42.9107867" lon="11.65881"><ele>1025.25</ele><time>2026-04-03T10:05:03.097Z</time></trkpt><trkpt lat="42.9108467" lon="11.6586067"><ele>1028.5</ele><time>2026-04-03T10:05:04.098Z</time></trkpt><trkpt lat="42.9108967" lon="11.658435"><ele>1031.75</ele><time>2026-04-03T10:05:05.098Z</time></trkpt><trkpt lat="42.91096" lon="11.658345"><ele>1035.0</ele><time>2026-04-03T10:05:06.098Z</time></trkpt><trkpt lat="42.91105" lon="11.6583217"><ele>1035.6</ele><time>2026-04-03T10:05:07.097Z</time></trkpt><trkpt lat="42.9111467" lon="11.6583233"><ele>1036.2</ele><time>2026-04-03T10:05:08.097Z</time></trkpt><trkpt lat="42.91125" lon="11.6583233"><ele>1036.8</ele><time>2026-04-03T10:05:09.097Z</time></trkpt><trkpt lat="42.9113567" lon="11.6583233"><ele>1037.4</ele><time>2026-04-03T10:05:10.097Z</time></trkpt><trkpt lat="42.9114783" lon="11.658305"><ele>1038.0</ele><time>2026-04-03T10:05:11.097Z</time></trkpt><trkpt lat="42.9116117" lon="11.6582867"><ele>1039.5</ele><time>2026-04-03T10:05:12.097Z</time></trkpt><trkpt lat="42.9117483" lon="11.6582667"><ele>1041.0</ele><time>2026-04-03T10:05:13.097Z</time></trkpt><trkpt lat="42.9118817" lon="11.6582517"><ele>1042.5</ele><time>2026-04-03T10:05:14.097Z</time></trkpt><trkpt lat="42.9120167" lon="11.6582133"><ele>1044.0</ele><time>2026-04-03T10:05:15.098Z</time></trkpt><trkpt lat="42.9121317" lon="11.658135"><ele>1044.0</ele><time>2026-04-03T10:05:16.097Z</time></trkpt><trkpt lat="42.9122267" lon="11.658015"><ele>1044.0</ele><time>2026-04-03T10:05:17.097Z</time></trkpt><trkpt lat="42.9122983" lon="11.6578767"><ele>1044.0</ele><time>2026-04-03T10:05:18.098Z</time></trkpt><trkpt lat="42.9123667" lon="11.6577367"><ele>1044.0</ele><time>2026-04-03T10:05:19.097Z</time></trkpt><trkpt lat="42.9124433" lon="11.657625"><ele>1046.5</ele><time>2026-04-03T10:05:20.097Z</time></trkpt><trkpt lat="42.9125467" lon="11.6575417"><ele>1049.0</ele><time>2026-04-03T10:05:21.098Z</time></trkpt><trkpt lat="42.9126567" lon="11.657485"><ele>1051.5</ele><time>2026-04-03T10:05:22.097Z</time></trkpt><trkpt lat="42.91278" lon="11.6574567"><ele>1054.0</ele><time>2026-04-03T10:05:23.097Z</time></trkpt><trkpt lat="42.9129067" lon="11.6574417"><ele>1056.75</ele><time>2026-04-03T10:05:24.098Z</time></trkpt><trkpt lat="42.913035" lon="11.6574467"><ele>1059.5</ele><time>2026-04-03T10:05:25.097Z</time></trkpt><trkpt lat="42.913155" lon="11.65747"><ele>1062.25</ele><time>2026-04-03T10:05:26.098Z</time></trkpt><trkpt lat="42.9132633" lon="11.6575267"><ele>1065.0</ele><time>2026-04-03T10:05:27.097Z</time></trkpt><trkpt lat="42.913365" lon="11.65761"><ele>1066.0</ele><time>2026-04-03T10:05:28.098Z</time></trkpt><trkpt lat="42.913455" lon="11.6577283"><ele>1067.0</ele><time>2026-04-03T10:05:29.097Z</time></trkpt><trkpt lat="42.91353" lon="11.65786"><ele>1068.0</ele><time>2026-04-03T10:05:30.097Z</time></trkpt><trkpt lat="42.9136167" lon="11.6579767"><ele>1069.0</ele><time>2026-04-03T10:05:31.097Z</time></trkpt><trkpt lat="42.9137133" lon="11.65806"><ele>1069.0</ele><time>2026-04-03T10:05:32.098Z</time></trkpt><trkpt lat="42.91382" lon="11.6580917"><ele>1069.0</ele><time>2026-04-03T10:05:33.097Z</time></trkpt><trkpt lat="42.913945" lon="11.65808"><ele>1069.0</ele><time>2026-04-03T10:05:34.098Z</time></trkpt><trkpt lat="42.9140733" lon="11.6580417"><ele>1069.0</ele><time>2026-04-03T10:05:35.098Z</time></trkpt><trkpt lat="42.914205" lon="11.6579867"><ele>1070.25</ele><time>2026-04-03T10:05:36.098Z</time></trkpt><trkpt lat="42.91434" lon="11.6579067"><ele>1071.5</ele><time>2026-04-03T10:05:37.098Z</time></trkpt><trkpt lat="42.9144733" lon="11.657825"><ele>1072.75</ele><time>2026-04-03T10:05:38.098Z</time></trkpt><trkpt lat="42.9146033" lon="11.65776"><ele>1074.0</ele><time>2026-04-03T10:05:39.097Z</time></trkpt><trkpt lat="42.9147383" lon="11.657715"><ele>1079.0</ele><time>2026-04-03T10:05:40.097Z</time></trkpt><trkpt lat="42.91488" lon="11.6576917"><ele>1084.0</ele><time>2026-04-03T10:05:41.097Z</time></trkpt><trkpt lat="42.9150283" lon="11.6576817"><ele>1089.0</ele><time>2026-04-03T10:05:42.097Z</time></trkpt><trkpt lat="42.9151817" lon="11.6576717"><ele>1094.0</ele><time>2026-04-03T10:05:43.097Z</time></trkpt><trkpt lat="42.9153433" lon="11.6576483"><ele>1094.3333333333335</ele><time>2026-04-03T10:05:44.097Z</time></trkpt><trkpt lat="42.9155017" lon="11.6576183"><ele>1094.6666666666667</ele><time>2026-04-03T10:05:45.098Z</time></trkpt><trkpt lat="42.9156633" lon="11.6576017"><ele>1095.0</ele><time>2026-04-03T10:05:46.097Z</time></trkpt><trkpt lat="42.9158317" lon="11.6575933"><ele>1095.6666666666667</ele><time>2026-04-03T10:05:47.097Z</time></trkpt><trkpt lat="42.9159833" lon="11.6575883"><ele>1096.3333333333335</ele><time>2026-04-03T10:05:48.097Z</time></trkpt><trkpt lat="42.9161433" lon="11.6575683"><ele>1097.0</ele><time>2026-04-03T10:05:49.097Z</time></trkpt><trkpt lat="42.9162917" lon="11.6574917"><ele>1097.0</ele><time>2026-04-03T10:05:50.097Z</time></trkpt><trkpt lat="42.9164283" lon="11.657385"><ele>1097.0</ele><time>2026-04-03T10:05:51.098Z</time></trkpt><trkpt lat="42.91657" lon="11.657305"><ele>1097.0</ele><time>2026-04-03T10:05:52.097Z</time></trkpt><trkpt lat="42.9167217" lon="11.65726"><ele>1099.0</ele><time>2026-04-03T10:05:53.097Z</time></trkpt><trkpt lat="42.9168783" lon="11.6572467"><ele>1101.0</ele><time>2026-04-03T10:05:54.097Z</time></trkpt><trkpt lat="42.91703" lon="11.65724"><ele>1103.0</ele><time>2026-04-03T10:05:55.097Z</time></trkpt><trkpt lat="42.9171767" lon="11.65724"><ele>1103.0</ele><time>2026-04-03T10:05:56.097Z</time></trkpt><trkpt lat="42.9173167" lon="11.6572583"><ele>1103.0</ele><time>2026-04-03T10:05:57.097Z</time></trkpt><trkpt lat="42.917455" lon="11.657295"><ele>1103.0</ele><time>2026-04-03T10:05:58.097Z</time></trkpt><trkpt lat="42.9175883" lon="11.6573367"><ele>1103.0</ele><time>2026-04-03T10:05:59.097Z</time></trkpt><trkpt lat="42.9177433" lon="11.6573417"><ele>1104.25</ele><time>2026-04-03T10:06:00.098Z</time></trkpt><trkpt lat="42.9178867" lon="11.6573417"><ele>1105.5</ele><time>2026-04-03T10:06:01.097Z</time></trkpt><trkpt lat="42.9180217" lon="11.6573617"><ele>1106.75</ele><time>2026-04-03T10:06:02.097Z</time></trkpt><trkpt lat="42.91814" lon="11.6574133"><ele>1108.0</ele><time>2026-04-03T10:06:03.098Z</time></trkpt><trkpt lat="42.9182267" lon="11.6575183"><ele>1108.0</ele><time>2026-04-03T10:06:04.097Z</time></trkpt><trkpt lat="42.9182733" lon="11.6576533"><ele>1108.0</ele><time>2026-04-03T10:06:05.097Z</time></trkpt><trkpt lat="42.91829" lon="11.6578133"><ele>1108.0</ele><time>2026-04-03T10:06:06.097Z</time></trkpt><trkpt lat="42.918295" lon="11.6579983"><ele>1108.0</ele><time>2026-04-03T10:06:07.097Z</time></trkpt><trkpt lat="42.9183133" lon="11.658185"><ele>1107.75</ele><time>2026-04-03T10:06:08.098Z</time></trkpt><trkpt lat="42.918335" lon="11.6583783"><ele>1107.5</ele><time>2026-04-03T10:06:09.097Z</time></trkpt><trkpt lat="42.91838" lon="11.6585733"><ele>1107.25</ele><time>2026-04-03T10:06:10.097Z</time></trkpt><trkpt lat="42.9184417" lon="11.65876"><ele>1107.0</ele><time>2026-04-03T10:06:11.097Z</time></trkpt><trkpt lat="42.9185133" lon="11.65891"><ele>1107.0</ele><time>2026-04-03T10:06:12.098Z</time></trkpt><trkpt lat="42.9185783" lon="11.6590317"><ele>1107.0</ele><time>2026-04-03T10:06:13.097Z</time></trkpt><trkpt lat="42.9186283" lon="11.6591267"><ele>1107.0</ele><time>2026-04-03T10:06:14.097Z</time></trkpt><trkpt lat="42.9186667" lon="11.6591983"><ele>1107.0</ele><time>2026-04-03T10:06:15.097Z</time></trkpt><trkpt lat="42.9187083" lon="11.6592667"><ele>1107.0</ele><time>2026-04-03T10:06:16.098Z</time></trkpt><trkpt lat="42.91875" lon="11.659335"><ele>1107.0</ele><time>2026-04-03T10:06:17.097Z</time></trkpt><trkpt lat="42.9187967" lon="11.659415"><ele>1106.6</ele><time>2026-04-03T10:06:18.098Z</time></trkpt><trkpt lat="42.91885" lon="11.6595"><ele>1106.2</ele><time>2026-04-03T10:06:19.098Z</time></trkpt><trkpt lat="42.9189133" lon="11.65959"><ele>1105.8</ele><time>2026-04-03T10:06:20.097Z</time></trkpt><trkpt lat="42.9189767" lon="11.6596783"><ele>1105.4</ele><time>2026-04-03T10:06:21.097Z</time></trkpt><trkpt lat="42.9190583" lon="11.6597617"><ele>1105.0</ele><time>2026-04-03T10:06:22.097Z</time></trkpt><trkpt lat="42.9191583" lon="11.659825"><ele>1106.25</ele><time>2026-04-03T10:06:23.097Z</time></trkpt><trkpt lat="42.9192783" lon="11.6598383"><ele>1107.5</ele><time>2026-04-03T10:06:24.097Z</time></trkpt><trkpt lat="42.9194" lon="11.6598317"><ele>1108.75</ele><time>2026-04-03T10:06:25.098Z</time></trkpt><trkpt lat="42.9195317" lon="11.6598083"><ele>1110.0</ele><time>2026-04-03T10:06:26.097Z</time></trkpt><trkpt lat="42.91967" lon="11.6597683"><ele>1110.0</ele><time>2026-04-03T10:06:27.098Z</time></trkpt><trkpt lat="42.9198133" lon="11.6597317"><ele>1110.0</ele><time>2026-04-03T10:06:28.097Z</time></trkpt><trkpt lat="42.9199517" lon="11.6596733"><ele>1110.0</ele><time>2026-04-03T10:06:29.098Z</time></trkpt><trkpt lat="42.9200867" lon="11.6596017"><ele>1110.0</ele><time>2026-04-03T10:06:30.097Z</time></trkpt><trkpt lat="42.92019" lon="11.6595217"><ele>1108.25</ele><time>2026-04-03T10:06:31.097Z</time></trkpt><trkpt lat="42.9202633" lon="11.6593983"><ele>1106.5</ele><time>2026-04-03T10:06:32.098Z</time></trkpt><trkpt lat="42.920305" lon="11.6592633"><ele>1104.75</ele><time>2026-04-03T10:06:33.097Z</time></trkpt><trkpt lat="42.9202933" lon="11.6590867"><ele>1103.0</ele><time>2026-04-03T10:06:34.097Z</time></trkpt><trkpt lat="42.9202467" lon="11.6589083"><ele>1103.0</ele><time>2026-04-03T10:06:35.097Z</time></trkpt><trkpt lat="42.92018" lon="11.6587283"><ele>1103.0</ele><time>2026-04-03T10:06:36.097Z</time></trkpt><trkpt lat="42.920145" lon="11.6585567"><ele>1103.0</ele><time>2026-04-03T10:06:37.097Z</time></trkpt><trkpt lat="42.9201517" lon="11.65838"><ele>1103.0</ele><time>2026-04-03T10:06:38.097Z</time></trkpt><trkpt lat="42.92019" lon="11.6582067"><ele>1101.0</ele><time>2026-04-03T10:06:39.098Z</time></trkpt><trkpt lat="42.9202617" lon="11.65804"><ele>1099.0</ele><time>2026-04-03T10:06:40.097Z</time></trkpt><trkpt lat="42.9203533" lon="11.65791"><ele>1097.0</ele><time>2026-04-03T10:06:41.097Z</time></trkpt><trkpt lat="42.9204583" lon="11.657825"><ele>1095.0</ele><time>2026-04-03T10:06:42.097Z</time></trkpt><trkpt lat="42.920585" lon="11.6577817"><ele>1095.0</ele><time>2026-04-03T10:06:43.098Z</time></trkpt><trkpt lat="42.9207383" lon="11.6577733"><ele>1095.0</ele><time>2026-04-03T10:06:44.097Z</time></trkpt><trkpt lat="42.9208833" lon="11.6577883"><ele>1095.0</ele><time>2026-04-03T10:06:45.097Z</time></trkpt><trkpt lat="42.9210367" lon="11.65783"><ele>1090.0</ele><time>2026-04-03T10:06:46.097Z</time></trkpt><trkpt lat="42.9212133" lon="11.6578917"><ele>1085.0</ele><time>2026-04-03T10:06:47.097Z</time></trkpt><trkpt lat="42.9213967" lon="11.6579467"><ele>1080.0</ele><time>2026-04-03T10:06:48.097Z</time></trkpt><trkpt lat="42.9215683" lon="11.65801"><ele>1076.0</ele><time>2026-04-03T10:06:49.098Z</time></trkpt><trkpt lat="42.921745" lon="11.6580633"><ele>1072.0</ele><time>2026-04-03T10:06:50.098Z</time></trkpt><trkpt lat="42.921925" lon="11.6581233"><ele>1068.0</ele><time>2026-04-03T10:06:51.098Z</time></trkpt><trkpt lat="42.9221067" lon="11.6581867"><ele>1068.0</ele><time>2026-04-03T10:06:52.098Z</time></trkpt><trkpt lat="42.9222833" lon="11.658215"><ele>1068.0</ele><time>2026-04-03T10:06:53.097Z</time></trkpt><trkpt lat="42.92245" lon="11.6582033"><ele>1068.0</ele><time>2026-04-03T10:06:54.097Z</time></trkpt><trkpt lat="42.9226083" lon="11.65815"><ele>1065.25</ele><time>2026-04-03T10:06:55.097Z</time></trkpt><trkpt lat="42.9227667" lon="11.6580767"><ele>1062.5</ele><time>2026-04-03T10:06:56.097Z</time></trkpt><trkpt lat="42.9228983" lon="11.657995"><ele>1059.75</ele><time>2026-04-03T10:06:57.098Z</time></trkpt><trkpt lat="42.923005" lon="11.6578833"><ele>1057.0</ele><time>2026-04-03T10:06:58.097Z</time></trkpt><trkpt lat="42.9230817" lon="11.6577383"><ele>1056.0</ele><time>2026-04-03T10:06:59.097Z</time></trkpt><trkpt lat="42.9231133" lon="11.6575483"><ele>1055.0</ele><time>2026-04-03T10:07:00.097Z</time></trkpt><trkpt lat="42.923115" lon="11.65736"><ele>1054.0</ele><time>2026-04-03T10:07:01.097Z</time></trkpt><trkpt lat="42.92309" lon="11.6571367"><ele>1053.0</ele><time>2026-04-03T10:07:02.097Z</time></trkpt><trkpt lat="42.9230667" lon="11.6569233"><ele>1052.3333333333333</ele><time>2026-04-03T10:07:03.097Z</time></trkpt><trkpt lat="42.923055" lon="11.6567033"><ele>1051.6666666666665</ele><time>2026-04-03T10:07:04.098Z</time></trkpt><trkpt lat="42.9230433" lon="11.6564833"><ele>1051.0</ele><time>2026-04-03T10:07:05.097Z</time></trkpt><trkpt lat="42.9230383" lon="11.656275"><ele>1049.6</ele><time>2026-04-03T10:07:06.097Z</time></trkpt><trkpt lat="42.923025" lon="11.6560767"><ele>1048.1999999999998</ele><time>2026-04-03T10:07:07.098Z</time></trkpt><trkpt lat="42.9230167" lon="11.6559267"><ele>1046.8000000000002</ele><time>2026-04-03T10:07:08.098Z</time></trkpt><trkpt lat="42.9230267" lon="11.65579"><ele>1045.4</ele><time>2026-04-03T10:07:09.097Z</time></trkpt><trkpt lat="42.9230633" lon="11.6556767"><ele>1044.0</ele><time>2026-04-03T10:07:10.097Z</time></trkpt><trkpt lat="42.9231283" lon="11.6555917"><ele>1044.0</ele><time>2026-04-03T10:07:11.097Z</time></trkpt><trkpt lat="42.923215" lon="11.6555383"><ele>1044.0</ele><time>2026-04-03T10:07:12.097Z</time></trkpt><trkpt lat="42.9233233" lon="11.65554"><ele>1044.0</ele><time>2026-04-03T10:07:13.098Z</time></trkpt><trkpt lat="42.92347" lon="11.655595"><ele>1044.0</ele><time>2026-04-03T10:07:14.097Z</time></trkpt><trkpt lat="42.9236167" lon="11.6556767"><ele>1037.6666666666667</ele><time>2026-04-03T10:07:15.097Z</time></trkpt><trkpt lat="42.9237633" lon="11.6557733"><ele>1031.3333333333335</ele><time>2026-04-03T10:07:16.098Z</time></trkpt><trkpt lat="42.92391" lon="11.6558883"><ele>1025.0</ele><time>2026-04-03T10:07:17.097Z</time></trkpt><trkpt lat="42.92403" lon="11.656015"><ele>1026.3333333333335</ele><time>2026-04-03T10:07:18.098Z</time></trkpt><trkpt lat="42.92412" lon="11.6561817"><ele>1027.6666666666667</ele><time>2026-04-03T10:07:19.097Z</time></trkpt><trkpt lat="42.9241983" lon="11.6563717"><ele>1029.0</ele><time>2026-04-03T10:07:20.097Z</time></trkpt><trkpt lat="42.9242783" lon="11.6565633"><ele>1027.3333333333333</ele><time>2026-04-03T10:07:21.097Z</time></trkpt><trkpt lat="42.924365" lon="11.65675"><ele>1025.6666666666665</ele><time>2026-04-03T10:07:22.098Z</time></trkpt><trkpt lat="42.924465" lon="11.6569233"><ele>1024.0</ele><time>2026-04-03T10:07:23.097Z</time></trkpt><trkpt lat="42.9245667" lon="11.65706"><ele>1024.0</ele><time>2026-04-03T10:07:24.098Z</time></trkpt><trkpt lat="42.9246833" lon="11.6571567"><ele>1024.0</ele><time>2026-04-03T10:07:25.097Z</time></trkpt><trkpt lat="42.92482" lon="11.6571817"><ele>1024.0</ele><time>2026-04-03T10:07:26.098Z</time></trkpt><trkpt lat="42.9249583" lon="11.6571517"><ele>1024.0</ele><time>2026-04-03T10:07:27.098Z</time></trkpt><trkpt lat="42.9250917" lon="11.6570817"><ele>1024.3333333333333</ele><time>2026-04-03T10:07:28.097Z</time></trkpt><trkpt lat="42.9252283" lon="11.6569733"><ele>1024.6666666666667</ele><time>2026-04-03T10:07:29.098Z</time></trkpt><trkpt lat="42.9253733" lon="11.6568417"><ele>1025.0</ele><time>2026-04-03T10:07:30.098Z</time></trkpt><trkpt lat="42.9255233" lon="11.6566967"><ele>1020.3333333333334</ele><time>2026-04-03T10:07:31.097Z</time></trkpt><trkpt lat="42.92569" lon="11.6565467"><ele>1015.6666666666667</ele><time>2026-04-03T10:07:32.097Z</time></trkpt><trkpt lat="42.9258483" lon="11.656385"><ele>1011.0</ele><time>2026-04-03T10:07:33.097Z</time></trkpt><trkpt lat="42.9260167" lon="11.6562117"><ele>1006.3333333333333</ele><time>2026-04-03T10:07:34.097Z</time></trkpt><trkpt lat="42.9261667" lon="11.6560517"><ele>1001.6666666666666</ele><time>2026-04-03T10:07:35.098Z</time></trkpt><trkpt lat="42.9262817" lon="11.6558917"><ele>997.0</ele><time>2026-04-03T10:07:36.098Z</time></trkpt><trkpt lat="42.9263733" lon="11.6557117"><ele>997.0</ele><time>2026-04-03T10:07:37.097Z</time></trkpt><trkpt lat="42.9264517" lon="11.6554867"><ele>997.0</ele><time>2026-04-03T10:07:38.097Z</time></trkpt><trkpt lat="42.9265167" lon="11.6552467"><ele>997.0</ele><time>2026-04-03T10:07:39.097Z</time></trkpt><trkpt lat="42.9265967" lon="11.6550317"><ele>994.25</ele><time>2026-04-03T10:07:40.098Z</time></trkpt><trkpt lat="42.926695" lon="11.6548417"><ele>991.5</ele><time>2026-04-03T10:07:41.097Z</time></trkpt><trkpt lat="42.9267767" lon="11.6546867"><ele>988.75</ele><time>2026-04-03T10:07:42.097Z</time></trkpt><trkpt lat="42.9268417" lon="11.65459"><ele>986.0</ele><time>2026-04-03T10:07:43.097Z</time></trkpt><trkpt lat="42.9268967" lon="11.6545333"><ele>985.1666666666667</ele><time>2026-04-03T10:07:45.098Z</time></trkpt><trkpt lat="42.9269267" lon="11.6546167"><ele>984.3333333333334</ele><time>2026-04-03T10:07:47.097Z</time></trkpt><trkpt lat="42.926965" lon="11.65474"><ele>983.5</ele><time>2026-04-03T10:07:49.098Z</time></trkpt><trkpt lat="42.927" lon="11.6548133"><ele>982.6666666666667</ele><time>2026-04-03T10:07:50.097Z</time></trkpt><trkpt lat="42.9270517" lon="11.6548867"><ele>981.8333333333334</ele><time>2026-04-03T10:07:51.098Z</time></trkpt><trkpt lat="42.92713" lon="11.6549583"><ele>981.0</ele><time>2026-04-03T10:07:52.098Z</time></trkpt><trkpt lat="42.9272283" lon="11.655035"><ele>981.0</ele><time>2026-04-03T10:07:53.097Z</time></trkpt><trkpt lat="42.9273417" lon="11.65513"><ele>981.0</ele><time>2026-04-03T10:07:54.097Z</time></trkpt><trkpt lat="42.9274583" lon="11.6552333"><ele>981.0</ele><time>2026-04-03T10:07:55.098Z</time></trkpt><trkpt lat="42.9275817" lon="11.655335"><ele>981.0</ele><time>2026-04-03T10:07:56.097Z</time></trkpt><trkpt lat="42.9276833" lon="11.6554317"><ele>981.5</ele><time>2026-04-03T10:07:57.097Z</time></trkpt><trkpt lat="42.927785" lon="11.65554"><ele>982.0</ele><time>2026-04-03T10:07:58.097Z</time></trkpt><trkpt lat="42.9279" lon="11.6556617"><ele>982.5</ele><time>2026-04-03T10:07:59.097Z</time></trkpt><trkpt lat="42.9280267" lon="11.6557633"><ele>983.0</ele><time>2026-04-03T10:08:00.097Z</time></trkpt><trkpt lat="42.9281517" lon="11.65587"><ele>983.0</ele><time>2026-04-03T10:08:01.097Z</time></trkpt><trkpt lat="42.9282667" lon="11.6559867"><ele>983.0</ele><time>2026-04-03T10:08:02.097Z</time></trkpt><trkpt lat="42.9283567" lon="11.656105"><ele>983.0</ele><time>2026-04-03T10:08:03.098Z</time></trkpt><trkpt lat="42.92842" lon="11.6562133"><ele>983.0</ele><time>2026-04-03T10:08:04.098Z</time></trkpt><trkpt lat="42.9284667" lon="11.6563"><ele>983.0</ele><time>2026-04-03T10:08:05.097Z</time></trkpt><trkpt lat="42.9284933" lon="11.656395"><ele>981.5999999999999</ele><time>2026-04-03T10:08:06.097Z</time></trkpt><trkpt lat="42.9285167" lon="11.6565017"><ele>980.1999999999999</ele><time>2026-04-03T10:08:07.098Z</time></trkpt><trkpt lat="42.92854" lon="11.6566217"><ele>978.8</ele><time>2026-04-03T10:08:08.098Z</time></trkpt><trkpt lat="42.9285567" lon="11.6567633"><ele>977.4</ele><time>2026-04-03T10:08:09.098Z</time></trkpt><trkpt lat="42.928575" lon="11.6569017"><ele>976.0</ele><time>2026-04-03T10:08:10.098Z</time></trkpt><trkpt lat="42.9286017" lon="11.6570267"><ele>979.1999999999999</ele><time>2026-04-03T10:08:11.097Z</time></trkpt><trkpt lat="42.9286467" lon="11.65713"><ele>982.3999999999999</ele><time>2026-04-03T10:08:12.097Z</time></trkpt><trkpt lat="42.9287183" lon="11.6572167"><ele>985.6</ele><time>2026-04-03T10:08:13.097Z</time></trkpt><trkpt lat="42.9288133" lon="11.65729"><ele>988.8</ele><time>2026-04-03T10:08:14.097Z</time></trkpt><trkpt lat="42.9289217" lon="11.657345"><ele>992.0</ele><time>2026-04-03T10:08:15.097Z</time></trkpt><trkpt lat="42.9290317" lon="11.6573817"><ele>992.0</ele><time>2026-04-03T10:08:16.097Z</time></trkpt><trkpt lat="42.9291417" lon="11.6573933"><ele>992.0</ele><time>2026-04-03T10:08:17.097Z</time></trkpt><trkpt lat="42.9292467" lon="11.6573717"><ele>992.0</ele><time>2026-04-03T10:08:18.097Z</time></trkpt><trkpt lat="42.929365" lon="11.65735"><ele>992.0</ele><time>2026-04-03T10:08:19.098Z</time></trkpt><trkpt lat="42.9295017" lon="11.6573233"><ele>990.5</ele><time>2026-04-03T10:08:20.097Z</time></trkpt><trkpt lat="42.92964" lon="11.6573083"><ele>989.0</ele><time>2026-04-03T10:08:21.098Z</time></trkpt><trkpt lat="42.9297783" lon="11.65729"><ele>987.5</ele><time>2026-04-03T10:08:22.097Z</time></trkpt><trkpt lat="42.9299117" lon="11.6572767"><ele>986.0</ele><time>2026-04-03T10:08:23.097Z</time></trkpt><trkpt lat="42.93004" lon="11.6572783"><ele>984.25</ele><time>2026-04-03T10:08:24.098Z</time></trkpt><trkpt lat="42.9301617" lon="11.657305"><ele>982.5</ele><time>2026-04-03T10:08:25.097Z</time></trkpt><trkpt lat="42.9302867" lon="11.6573367"><ele>980.75</ele><time>2026-04-03T10:08:26.097Z</time></trkpt><trkpt lat="42.93042" lon="11.6573517"><ele>979.0</ele><time>2026-04-03T10:08:27.097Z</time></trkpt><trkpt lat="42.9305567" lon="11.6573683"><ele>979.0</ele><time>2026-04-03T10:08:28.097Z</time></trkpt><trkpt lat="42.9306917" lon="11.6573983"><ele>979.0</ele><time>2026-04-03T10:08:29.097Z</time></trkpt><trkpt lat="42.9308183" lon="11.6574283"><ele>979.0</ele><time>2026-04-03T10:08:30.097Z</time></trkpt><trkpt lat="42.9309367" lon="11.6574467"><ele>979.0</ele><time>2026-04-03T10:08:31.097Z</time></trkpt><trkpt lat="42.931055" lon="11.65746"><ele>977.75</ele><time>2026-04-03T10:08:32.097Z</time></trkpt><trkpt lat="42.9311783" lon="11.65745"><ele>976.5</ele><time>2026-04-03T10:08:33.097Z</time></trkpt><trkpt lat="42.9313033" lon="11.6574267"><ele>975.25</ele><time>2026-04-03T10:08:34.097Z</time></trkpt><trkpt lat="42.93143" lon="11.6574017"><ele>974.0</ele><time>2026-04-03T10:08:35.097Z</time></trkpt><trkpt lat="42.9315517" lon="11.6573917"><ele>974.0</ele><time>2026-04-03T10:08:36.097Z</time></trkpt><trkpt lat="42.9316883" lon="11.6573617"><ele>974.0</ele><time>2026-04-03T10:08:37.097Z</time></trkpt><trkpt lat="42.9318233" lon="11.6573117"><ele>974.0</ele><time>2026-04-03T10:08:38.098Z</time></trkpt><trkpt lat="42.9319583" lon="11.6572533"><ele>974.0</ele><time>2026-04-03T10:08:39.097Z</time></trkpt><trkpt lat="42.9320967" lon="11.6571933"><ele>973.25</ele><time>2026-04-03T10:08:40.097Z</time></trkpt><trkpt lat="42.9322367" lon="11.6571317"><ele>972.5</ele><time>2026-04-03T10:08:41.097Z</time></trkpt><trkpt lat="42.9323617" lon="11.6570717"><ele>971.75</ele><time>2026-04-03T10:08:42.097Z</time></trkpt><trkpt lat="42.9324733" lon="11.6570117"><ele>971.0</ele><time>2026-04-03T10:08:43.098Z</time></trkpt><trkpt lat="42.93259" lon="11.6569567"><ele>970.25</ele><time>2026-04-03T10:08:44.097Z</time></trkpt><trkpt lat="42.9327117" lon="11.6569167"><ele>969.5</ele><time>2026-04-03T10:08:45.097Z</time></trkpt><trkpt lat="42.9328333" lon="11.6568867"><ele>968.75</ele><time>2026-04-03T10:08:46.097Z</time></trkpt><trkpt lat="42.932955" lon="11.6568633"><ele>968.0</ele><time>2026-04-03T10:08:47.098Z</time></trkpt><trkpt lat="42.93308" lon="11.6568483"><ele>968.0</ele><time>2026-04-03T10:08:48.097Z</time></trkpt><trkpt lat="42.9331967" lon="11.65684"><ele>968.0</ele><time>2026-04-03T10:08:49.097Z</time></trkpt><trkpt lat="42.9333167" lon="11.6568417"><ele>968.0</ele><time>2026-04-03T10:08:50.098Z</time></trkpt><trkpt lat="42.933445" lon="11.6568617"><ele>968.0</ele><time>2026-04-03T10:08:51.097Z</time></trkpt><trkpt lat="42.9335817" lon="11.656895"><ele>968.0</ele><time>2026-04-03T10:08:52.097Z</time></trkpt><trkpt lat="42.933735" lon="11.6569367"><ele>968.0</ele><time>2026-04-03T10:08:53.098Z</time></trkpt><trkpt lat="42.9338767" lon="11.6569883"><ele>968.0</ele><time>2026-04-03T10:08:54.097Z</time></trkpt><trkpt lat="42.934005" lon="11.6570217"><ele>968.0</ele><time>2026-04-03T10:08:55.097Z</time></trkpt><trkpt lat="42.9341283" lon="11.6570417"><ele>968.0</ele><time>2026-04-03T10:08:56.097Z</time></trkpt><trkpt lat="42.93422" lon="11.6570667"><ele>968.0</ele><time>2026-04-03T10:08:57.097Z</time></trkpt><trkpt lat="42.934305" lon="11.65711"><ele>968.0</ele><time>2026-04-03T10:08:58.097Z</time></trkpt><trkpt lat="42.9343833" lon="11.6571633"><ele>968.0</ele><time>2026-04-03T10:08:59.098Z</time></trkpt><trkpt lat="42.9344683" lon="11.65722"><ele>968.0</ele><time>2026-04-03T10:09:00.097Z</time></trkpt><trkpt lat="42.9345583" lon="11.6572617"><ele>968.0</ele><time>2026-04-03T10:09:01.097Z</time></trkpt><trkpt lat="42.9346733" lon="11.657275"><ele>968.0</ele><time>2026-04-03T10:09:02.098Z</time></trkpt><trkpt lat="42.9347867" lon="11.65727"><ele>968.0</ele><time>2026-04-03T10:09:03.097Z</time></trkpt><trkpt lat="42.9348883" lon="11.65725"><ele>968.0</ele><time>2026-04-03T10:09:04.098Z</time></trkpt><trkpt lat="42.9349967" lon="11.6571967"><ele>968.0</ele><time>2026-04-03T10:09:05.098Z</time></trkpt><trkpt lat="42.9350933" lon="11.6571217"><ele>968.5</ele><time>2026-04-03T10:09:06.097Z</time></trkpt><trkpt lat="42.93519" lon="11.6570617"><ele>969.0</ele><time>2026-04-03T10:09:07.097Z</time></trkpt><trkpt lat="42.93531" lon="11.6570283"><ele>969.5</ele><time>2026-04-03T10:09:08.097Z</time></trkpt><trkpt lat="42.935425" lon="11.6570183"><ele>970.0</ele><time>2026-04-03T10:09:09.097Z</time></trkpt><trkpt lat="42.9355367" lon="11.65705"><ele>970.0</ele><time>2026-04-03T10:09:10.098Z</time></trkpt><trkpt lat="42.9356617" lon="11.6570983"><ele>970.0</ele><time>2026-04-03T10:09:11.097Z</time></trkpt><trkpt lat="42.9357933" lon="11.6571567"><ele>970.0</ele><time>2026-04-03T10:09:12.097Z</time></trkpt><trkpt lat="42.9359317" lon="11.6572167"><ele>970.0</ele><time>2026-04-03T10:09:13.098Z</time></trkpt><trkpt lat="42.93606" lon="11.6572767"><ele>970.0</ele><time>2026-04-03T10:09:14.098Z</time></trkpt><trkpt lat="42.936175" lon="11.65735"><ele>970.0</ele><time>2026-04-03T10:09:15.097Z</time></trkpt><trkpt lat="42.936265" lon="11.6574383"><ele>970.0</ele><time>2026-04-03T10:09:16.098Z</time></trkpt><trkpt lat="42.9363483" lon="11.65755"><ele>970.0</ele><time>2026-04-03T10:09:17.098Z</time></trkpt><trkpt lat="42.93643" lon="11.6576833"><ele>968.75</ele><time>2026-04-03T10:09:18.098Z</time></trkpt><trkpt lat="42.9365067" lon="11.6578367"><ele>967.5</ele><time>2026-04-03T10:09:19.097Z</time></trkpt><trkpt lat="42.936585" lon="11.6579833"><ele>966.25</ele><time>2026-04-03T10:09:20.097Z</time></trkpt><trkpt lat="42.93667" lon="11.658135"><ele>965.0</ele><time>2026-04-03T10:09:21.097Z</time></trkpt><trkpt lat="42.936745" lon="11.6583133"><ele>962.75</ele><time>2026-04-03T10:09:22.097Z</time></trkpt><trkpt lat="42.9368083" lon="11.6585083"><ele>960.5</ele><time>2026-04-03T10:09:23.097Z</time></trkpt><trkpt lat="42.936875" lon="11.6586867"><ele>958.25</ele><time>2026-04-03T10:09:24.097Z</time></trkpt><trkpt lat="42.9369367" lon="11.6588483"><ele>956.0</ele><time>2026-04-03T10:09:25.097Z</time></trkpt><trkpt lat="42.937" lon="11.6590083"><ele>956.0</ele><time>2026-04-03T10:09:26.097Z</time></trkpt><trkpt lat="42.937055" lon="11.6591433"><ele>955.9999999999999</ele><time>2026-04-03T10:09:27.098Z</time></trkpt><trkpt lat="42.9371183" lon="11.65926"><ele>955.9999999999999</ele><time>2026-04-03T10:09:28.097Z</time></trkpt><trkpt lat="42.9371933" lon="11.6593617"><ele>956.0</ele><time>2026-04-03T10:09:29.097Z</time></trkpt><trkpt lat="42.93727" lon="11.65945"><ele>956.0</ele><time>2026-04-03T10:09:30.098Z</time></trkpt><trkpt lat="42.93735" lon="11.6595267"><ele>955.0</ele><time>2026-04-03T10:09:31.098Z</time></trkpt><trkpt lat="42.9374333" lon="11.6595967"><ele>953.9999999999999</ele><time>2026-04-03T10:09:32.098Z</time></trkpt><trkpt lat="42.9375233" lon="11.6596667"><ele>952.9999999999999</ele><time>2026-04-03T10:09:33.097Z</time></trkpt><trkpt lat="42.9375967" lon="11.6597483"><ele>952.0</ele><time>2026-04-03T10:09:34.096Z</time></trkpt><trkpt lat="42.937675" lon="11.6598183"><ele>951.0</ele><time>2026-04-03T10:09:35.096Z</time></trkpt><trkpt lat="42.9377417" lon="11.6599067"><ele>949.25</ele><time>2026-04-03T10:09:36.096Z</time></trkpt><trkpt lat="42.9378133" lon="11.66002"><ele>947.5</ele><time>2026-04-03T10:09:37.097Z</time></trkpt><trkpt lat="42.9378833" lon="11.6601467"><ele>945.75</ele><time>2026-04-03T10:09:38.097Z</time></trkpt><trkpt lat="42.9379533" lon="11.6603267"><ele>944.0</ele><time>2026-04-03T10:09:39.097Z</time></trkpt><trkpt lat="42.93803" lon="11.6604933"><ele>942.5</ele><time>2026-04-03T10:09:40.096Z</time></trkpt><trkpt lat="42.938095" lon="11.6606633"><ele>941.0</ele><time>2026-04-03T10:09:41.096Z</time></trkpt><trkpt lat="42.93815" lon="11.6608317"><ele>939.5</ele><time>2026-04-03T10:09:42.097Z</time></trkpt><trkpt lat="42.938205" lon="11.6610083"><ele>938.0</ele><time>2026-04-03T10:09:43.096Z</time></trkpt><trkpt lat="42.93827" lon="11.6611783"><ele>938.0</ele><time>2026-04-03T10:09:44.097Z</time></trkpt><trkpt lat="42.9383367" lon="11.6613583"><ele>938.0</ele><time>2026-04-03T10:09:45.097Z</time></trkpt><trkpt lat="42.93841" lon="11.6615317"><ele>938.0</ele><time>2026-04-03T10:09:46.096Z</time></trkpt><trkpt lat="42.9384833" lon="11.6616833"><ele>938.0</ele><time>2026-04-03T10:09:47.096Z</time></trkpt><trkpt lat="42.93856" lon="11.6618067"><ele>936.4</ele><time>2026-04-03T10:09:48.096Z</time></trkpt><trkpt lat="42.938625" lon="11.6619367"><ele>934.8</ele><time>2026-04-03T10:09:49.097Z</time></trkpt><trkpt lat="42.93867" lon="11.66208"><ele>933.2</ele><time>2026-04-03T10:09:50.096Z</time></trkpt><trkpt lat="42.9386933" lon="11.6622233"><ele>931.6</ele><time>2026-04-03T10:09:51.097Z</time></trkpt><trkpt lat="42.9387117" lon="11.6623533"><ele>930.0</ele><time>2026-04-03T10:09:52.097Z</time></trkpt><trkpt lat="42.9387433" lon="11.6624867"><ele>929.8</ele><time>2026-04-03T10:09:53.096Z</time></trkpt><trkpt lat="42.9388" lon="11.6626017"><ele>929.6</ele><time>2026-04-03T10:09:54.097Z</time></trkpt><trkpt lat="42.9388633" lon="11.6627317"><ele>929.4000000000001</ele><time>2026-04-03T10:09:55.097Z</time></trkpt><trkpt lat="42.9389267" lon="11.6628383"><ele>929.2</ele><time>2026-04-03T10:09:56.097Z</time></trkpt><trkpt lat="42.93899" lon="11.6629533"><ele>929.0</ele><time>2026-04-03T10:09:57.096Z</time></trkpt><trkpt lat="42.939055" lon="11.6630717"><ele>929.0</ele><time>2026-04-03T10:09:58.097Z</time></trkpt><trkpt lat="42.9391083" lon="11.6632017"><ele>929.0000000000001</ele><time>2026-04-03T10:09:59.096Z</time></trkpt><trkpt lat="42.9391517" lon="11.6633333"><ele>929.0000000000001</ele><time>2026-04-03T10:10:00.096Z</time></trkpt><trkpt lat="42.939205" lon="11.6634633"><ele>929.0</ele><time>2026-04-03T10:10:01.096Z</time></trkpt><trkpt lat="42.9392733" lon="11.6635967"><ele>929.0</ele><time>2026-04-03T10:10:02.096Z</time></trkpt><trkpt lat="42.9393417" lon="11.6637033"><ele>925.0</ele><time>2026-04-03T10:10:03.097Z</time></trkpt><trkpt lat="42.9394133" lon="11.6638167"><ele>921.0000000000001</ele><time>2026-04-03T10:10:04.096Z</time></trkpt><trkpt lat="42.939475" lon="11.6639217"><ele>917.0000000000001</ele><time>2026-04-03T10:10:05.096Z</time></trkpt><trkpt lat="42.939535" lon="11.664025"><ele>913.0</ele><time>2026-04-03T10:10:06.096Z</time></trkpt><trkpt lat="42.9396" lon="11.66413"><ele>909.0</ele><time>2026-04-03T10:10:07.096Z</time></trkpt><trkpt lat="42.9396733" lon="11.664235"><ele>909.0</ele><time>2026-04-03T10:10:08.096Z</time></trkpt><trkpt lat="42.939745" lon="11.66435"><ele>909.0000000000001</ele><time>2026-04-03T10:10:09.097Z</time></trkpt><trkpt lat="42.9398083" lon="11.66447"><ele>909.0000000000001</ele><time>2026-04-03T10:10:10.096Z</time></trkpt><trkpt lat="42.9398683" lon="11.6645767"><ele>909.0</ele><time>2026-04-03T10:10:11.097Z</time></trkpt><trkpt lat="42.9399233" lon="11.6646833"><ele>909.0</ele><time>2026-04-03T10:10:12.096Z</time></trkpt><trkpt lat="42.93997" lon="11.6647933"><ele>907.8000000000001</ele><time>2026-04-03T10:10:13.096Z</time></trkpt><trkpt lat="42.94001" lon="11.6648967"><ele>906.6000000000001</ele><time>2026-04-03T10:10:14.096Z</time></trkpt><trkpt lat="42.940035" lon="11.66502"><ele>905.4</ele><time>2026-04-03T10:10:15.097Z</time></trkpt><trkpt lat="42.9400483" lon="11.66515"><ele>904.2</ele><time>2026-04-03T10:10:16.097Z</time></trkpt><trkpt lat="42.9400583" lon="11.6652783"><ele>903.0</ele><time>2026-04-03T10:10:17.097Z</time></trkpt><trkpt lat="42.9400767" lon="11.66541"><ele>901.0</ele><time>2026-04-03T10:10:18.096Z</time></trkpt><trkpt lat="42.9401" lon="11.66553"><ele>899.0</ele><time>2026-04-03T10:10:19.096Z</time></trkpt><trkpt lat="42.9401383" lon="11.6656217"><ele>897.0</ele><time>2026-04-03T10:10:20.096Z</time></trkpt><trkpt lat="42.9402367" lon="11.6657183"><ele>895.0</ele><time>2026-04-03T10:10:22.096Z</time></trkpt><trkpt lat="42.9403" lon="11.6657033"><ele>893.0</ele><time>2026-04-03T10:10:23.096Z</time></trkpt><trkpt lat="42.9404033" lon="11.6656617"><ele>893.0000000000001</ele><time>2026-04-03T10:10:25.096Z</time></trkpt><trkpt lat="42.9404683" lon="11.6656433"><ele>893.0</ele><time>2026-04-03T10:10:26.096Z</time></trkpt><trkpt lat="42.9405833" lon="11.665665"><ele>893.0</ele><time>2026-04-03T10:10:28.096Z</time></trkpt><trkpt lat="42.9406867" lon="11.66573"><ele>893.0</ele><time>2026-04-03T10:10:30.096Z</time></trkpt><trkpt lat="42.9407617" lon="11.665775"><ele>893.0000000000001</ele><time>2026-04-03T10:10:32.096Z</time></trkpt><trkpt lat="42.94082" lon="11.6658133"><ele>893.0</ele><time>2026-04-03T10:10:34.096Z</time></trkpt><trkpt lat="42.9408267" lon="11.66572"><ele>893.0000000000001</ele><time>2026-04-03T10:11:28.096Z</time></trkpt><trkpt lat="42.9408633" lon="11.6658017"><ele>893.0</ele><time>2026-04-03T10:11:34.096Z</time></trkpt><trkpt lat="42.940835" lon="11.665685"><ele>893.0</ele><time>2026-04-03T10:18:18.095Z</time></trkpt><trkpt lat="42.940775" lon="11.6655483"><ele>893.0</ele><time>2026-04-03T10:18:20.095Z</time></trkpt><trkpt lat="42.9407467" lon="11.6654517"><ele>893.0000000000001</ele><time>2026-04-03T10:18:21.095Z</time></trkpt><trkpt lat="42.9407133" lon="11.6653383"><ele>893.0</ele><time>2026-04-03T10:18:22.095Z</time></trkpt><trkpt lat="42.9406767" lon="11.665215"><ele>892.5000000000001</ele><time>2026-04-03T10:18:23.095Z</time></trkpt><trkpt lat="42.9406317" lon="11.6651083"><ele>892.0</ele><time>2026-04-03T10:18:24.095Z</time></trkpt><trkpt lat="42.9406" lon="11.6650167"><ele>891.5</ele><time>2026-04-03T10:18:25.095Z</time></trkpt><trkpt lat="42.9405833" lon="11.66492"><ele>891.0</ele><time>2026-04-03T10:18:26.095Z</time></trkpt><trkpt lat="42.94058" lon="11.664815"><ele>890.5000000000001</ele><time>2026-04-03T10:18:27.095Z</time></trkpt><trkpt lat="42.9405867" lon="11.6647017"><ele>890.0</ele><time>2026-04-03T10:18:28.095Z</time></trkpt><trkpt lat="42.9406083" lon="11.6645683"><ele>888.4</ele><time>2026-04-03T10:18:29.095Z</time></trkpt><trkpt lat="42.9406317" lon="11.6644283"><ele>886.8</ele><time>2026-04-03T10:18:30.096Z</time></trkpt><trkpt lat="42.94067" lon="11.6642817"><ele>885.2</ele><time>2026-04-03T10:18:31.095Z</time></trkpt><trkpt lat="42.9407117" lon="11.6641383"><ele>883.6</ele><time>2026-04-03T10:18:32.095Z</time></trkpt><trkpt lat="42.9407583" lon="11.6640017"><ele>882.0</ele><time>2026-04-03T10:18:33.096Z</time></trkpt><trkpt lat="42.9408133" lon="11.66387"><ele>882.0</ele><time>2026-04-03T10:18:34.095Z</time></trkpt><trkpt lat="42.94087" lon="11.6637383"><ele>882.0</ele><time>2026-04-03T10:18:35.096Z</time></trkpt><trkpt lat="42.9409367" lon="11.6635883"><ele>882.0</ele><time>2026-04-03T10:18:36.095Z</time></trkpt><trkpt lat="42.9409983" lon="11.6634467"><ele>882.0</ele><time>2026-04-03T10:18:37.096Z</time></trkpt><trkpt lat="42.9410683" lon="11.6633067"><ele>878.4000000000001</ele><time>2026-04-03T10:18:38.095Z</time></trkpt><trkpt lat="42.94113" lon="11.66318"><ele>874.8000000000001</ele><time>2026-04-03T10:18:39.095Z</time></trkpt><trkpt lat="42.941185" lon="11.663065"><ele>871.2</ele><time>2026-04-03T10:18:40.096Z</time></trkpt><trkpt lat="42.9412467" lon="11.662955"><ele>867.6</ele><time>2026-04-03T10:18:41.095Z</time></trkpt><trkpt lat="42.9413133" lon="11.6628483"><ele>864.0</ele><time>2026-04-03T10:18:42.095Z</time></trkpt><trkpt lat="42.94139" lon="11.6627333"><ele>864.0</ele><time>2026-04-03T10:18:43.095Z</time></trkpt><trkpt lat="42.9414833" lon="11.6626167"><ele>864.0</ele><time>2026-04-03T10:18:44.095Z</time></trkpt><trkpt lat="42.9415867" lon="11.6625083"><ele>864.0</ele><time>2026-04-03T10:18:45.095Z</time></trkpt><trkpt lat="42.94167" lon="11.6624033"><ele>864.0</ele><time>2026-04-03T10:18:46.096Z</time></trkpt><trkpt lat="42.9417583" lon="11.6623117"><ele>859.5</ele><time>2026-04-03T10:18:47.095Z</time></trkpt><trkpt lat="42.9418517" lon="11.6622117"><ele>855.0</ele><time>2026-04-03T10:18:48.096Z</time></trkpt><trkpt lat="42.9419433" lon="11.6621183"><ele>850.5</ele><time>2026-04-03T10:18:49.095Z</time></trkpt><trkpt lat="42.94203" lon="11.6620283"><ele>846.0</ele><time>2026-04-03T10:18:50.095Z</time></trkpt><trkpt lat="42.9421283" lon="11.6619333"><ele>845.8571428571428</ele><time>2026-04-03T10:18:51.096Z</time></trkpt><trkpt lat="42.9421983" lon="11.6618483"><ele>845.7142857142858</ele><time>2026-04-03T10:18:52.095Z</time></trkpt><trkpt lat="42.9422583" lon="11.661785"><ele>845.5714285714286</ele><time>2026-04-03T10:18:53.096Z</time></trkpt><trkpt lat="42.9423133" lon="11.6617417"><ele>845.4285714285713</ele><time>2026-04-03T10:18:54.096Z</time></trkpt><trkpt lat="42.9423683" lon="11.66169"><ele>845.2857142857142</ele><time>2026-04-03T10:18:55.095Z</time></trkpt><trkpt lat="42.9424233" lon="11.6616383"><ele>845.1428571428571</ele><time>2026-04-03T10:18:56.095Z</time></trkpt><trkpt lat="42.942475" lon="11.6615767"><ele>845.0</ele><time>2026-04-03T10:18:57.095Z</time></trkpt><trkpt lat="42.9425883" lon="11.6614817"><ele>842.0000000000001</ele><time>2026-04-03T10:18:59.095Z</time></trkpt><trkpt lat="42.9426583" lon="11.6614467"><ele>839.0</ele><time>2026-04-03T10:19:00.096Z</time></trkpt><trkpt lat="42.9427283" lon="11.6614117"><ele>836.0</ele><time>2026-04-03T10:19:01.095Z</time></trkpt><trkpt lat="42.9428083" lon="11.6613683"><ele>833.0</ele><time>2026-04-03T10:19:02.096Z</time></trkpt><trkpt lat="42.9428933" lon="11.66132"><ele>830.0000000000001</ele><time>2026-04-03T10:19:03.095Z</time></trkpt><trkpt lat="42.94297" lon="11.6612733"><ele>827.0</ele><time>2026-04-03T10:19:04.095Z</time></trkpt><trkpt lat="42.9430467" lon="11.6612133"><ele>827.0</ele><time>2026-04-03T10:19:05.096Z</time></trkpt><trkpt lat="42.943115" lon="11.6611533"><ele>827.0</ele><time>2026-04-03T10:19:06.096Z</time></trkpt><trkpt lat="42.94318" lon="11.6611133"><ele>827.0</ele><time>2026-04-03T10:19:07.095Z</time></trkpt><trkpt lat="42.943245" lon="11.66109"><ele>827.0</ele><time>2026-04-03T10:19:08.095Z</time></trkpt><trkpt lat="42.9433183" lon="11.6611133"><ele>827.0</ele><time>2026-04-03T10:19:09.096Z</time></trkpt><trkpt lat="42.9433783" lon="11.66115"><ele>827.0</ele><time>2026-04-03T10:19:10.096Z</time></trkpt><trkpt lat="42.9434433" lon="11.6612117"><ele>827.0</ele><time>2026-04-03T10:19:11.095Z</time></trkpt><trkpt lat="42.9435033" lon="11.6612783"><ele>823.2</ele><time>2026-04-03T10:19:12.095Z</time></trkpt><trkpt lat="42.9435467" lon="11.6613683"><ele>819.4000000000001</ele><time>2026-04-03T10:19:13.095Z</time></trkpt><trkpt lat="42.9435867" lon="11.6614917"><ele>815.5999999999999</ele><time>2026-04-03T10:19:14.094Z</time></trkpt><trkpt lat="42.9436067" lon="11.6616233"><ele>811.8</ele><time>2026-04-03T10:19:15.094Z</time></trkpt><trkpt lat="42.9436233" lon="11.66174"><ele>808.0</ele><time>2026-04-03T10:19:16.094Z</time></trkpt><trkpt lat="42.943655" lon="11.6618617"><ele>807.5</ele><time>2026-04-03T10:19:17.095Z</time></trkpt><trkpt lat="42.9437" lon="11.661975"><ele>807.0</ele><time>2026-04-03T10:19:18.094Z</time></trkpt><trkpt lat="42.943785" lon="11.6620767"><ele>806.5</ele><time>2026-04-03T10:19:19.094Z</time></trkpt><trkpt lat="42.9438783" lon="11.662185"><ele>806.0</ele><time>2026-04-03T10:19:20.094Z</time></trkpt><trkpt lat="42.94399" lon="11.6623033"><ele>806.0</ele><time>2026-04-03T10:19:21.094Z</time></trkpt><trkpt lat="42.9440733" lon="11.662415"><ele>806.0</ele><time>2026-04-03T10:19:22.094Z</time></trkpt><trkpt lat="42.94416" lon="11.662525"><ele>806.0</ele><time>2026-04-03T10:19:23.094Z</time></trkpt><trkpt lat="42.9442433" lon="11.6626233"><ele>806.0</ele><time>2026-04-03T10:19:24.094Z</time></trkpt><trkpt lat="42.9443267" lon="11.6627117"><ele>803.1999999999999</ele><time>2026-04-03T10:19:25.094Z</time></trkpt><trkpt lat="42.9444167" lon="11.662785"><ele>800.4</ele><time>2026-04-03T10:19:26.094Z</time></trkpt><trkpt lat="42.94451" lon="11.6628517"><ele>797.6</ele><time>2026-04-03T10:19:27.094Z</time></trkpt><trkpt lat="42.9446017" lon="11.662915"><ele>794.8</ele><time>2026-04-03T10:19:28.095Z</time></trkpt><trkpt lat="42.9446883" lon="11.6629733"><ele>792.0</ele><time>2026-04-03T10:19:29.094Z</time></trkpt><trkpt lat="42.9447717" lon="11.6630183"><ele>792.0</ele><time>2026-04-03T10:19:30.094Z</time></trkpt><trkpt lat="42.94488" lon="11.66305"><ele>792.0</ele><time>2026-04-03T10:19:31.094Z</time></trkpt><trkpt lat="42.944975" lon="11.663075"><ele>792.0</ele><time>2026-04-03T10:19:32.094Z</time></trkpt><trkpt lat="42.9450783" lon="11.6630983"><ele>792.0</ele><time>2026-04-03T10:19:33.094Z</time></trkpt><trkpt lat="42.9451833" lon="11.66314"><ele>792.0</ele><time>2026-04-03T10:19:34.094Z</time></trkpt><trkpt lat="42.9452833" lon="11.6631933"><ele>789.6</ele><time>2026-04-03T10:19:35.094Z</time></trkpt><trkpt lat="42.9453867" lon="11.6632483"><ele>787.2</ele><time>2026-04-03T10:19:36.094Z</time></trkpt><trkpt lat="42.94549" lon="11.6632933"><ele>784.8</ele><time>2026-04-03T10:19:37.094Z</time></trkpt><trkpt lat="42.945585" lon="11.6633333"><ele>782.4</ele><time>2026-04-03T10:19:38.094Z</time></trkpt><trkpt lat="42.9456667" lon="11.663375"><ele>780.0</ele><time>2026-04-03T10:19:39.094Z</time></trkpt><trkpt lat="42.9457383" lon="11.6634233"><ele>780.0</ele><time>2026-04-03T10:19:40.094Z</time></trkpt><trkpt lat="42.9457917" lon="11.6634817"><ele>780.0</ele><time>2026-04-03T10:19:41.094Z</time></trkpt><trkpt lat="42.9458217" lon="11.6635783"><ele>780.0</ele><time>2026-04-03T10:19:42.094Z</time></trkpt><trkpt lat="42.94583" lon="11.66368"><ele>780.0</ele><time>2026-04-03T10:19:43.095Z</time></trkpt><trkpt lat="42.94586" lon="11.6637883"><ele>780.0</ele><time>2026-04-03T10:19:44.094Z</time></trkpt><trkpt lat="42.9458983" lon="11.6638933"><ele>780.0</ele><time>2026-04-03T10:19:45.094Z</time></trkpt><trkpt lat="42.9459433" lon="11.6639967"><ele>778.6666666666666</ele><time>2026-04-03T10:19:46.094Z</time></trkpt><trkpt lat="42.946" lon="11.6641033"><ele>777.3333333333333</ele><time>2026-04-03T10:19:47.095Z</time></trkpt><trkpt lat="42.946055" lon="11.664205"><ele>776.0</ele><time>2026-04-03T10:19:48.094Z</time></trkpt><trkpt lat="42.9461033" lon="11.664295"><ele>774.6666666666666</ele><time>2026-04-03T10:19:49.094Z</time></trkpt><trkpt lat="42.9461333" lon="11.664385"><ele>773.3333333333333</ele><time>2026-04-03T10:19:50.094Z</time></trkpt><trkpt lat="42.9461667" lon="11.66449"><ele>772.0</ele><time>2026-04-03T10:19:51.095Z</time></trkpt><trkpt lat="42.9461933" lon="11.6645967"><ele>771.9999999999999</ele><time>2026-04-03T10:19:52.094Z</time></trkpt><trkpt lat="42.94621" lon="11.6647217"><ele>772.0</ele><time>2026-04-03T10:19:53.095Z</time></trkpt><trkpt lat="42.94621" lon="11.6648417"><ele>772.0</ele><time>2026-04-03T10:19:54.094Z</time></trkpt><trkpt lat="42.946195" lon="11.6649583"><ele>772.0</ele><time>2026-04-03T10:19:55.095Z</time></trkpt><trkpt lat="42.9461717" lon="11.665065"><ele>771.9999999999999</ele><time>2026-04-03T10:19:56.094Z</time></trkpt><trkpt lat="42.94615" lon="11.66515"><ele>772.0</ele><time>2026-04-03T10:19:57.094Z</time></trkpt><trkpt lat="42.9460883" lon="11.6652717"><ele>769.75</ele><time>2026-04-03T10:19:59.095Z</time></trkpt><trkpt lat="42.9460483" lon="11.6654017"><ele>767.5</ele><time>2026-04-03T10:20:01.095Z</time></trkpt><trkpt lat="42.9460217" lon="11.6655983"><ele>765.25</ele><time>2026-04-03T10:20:03.094Z</time></trkpt><trkpt lat="42.9459983" lon="11.665735"><ele>763.0</ele><time>2026-04-03T10:20:04.094Z</time></trkpt><trkpt lat="42.9459683" lon="11.6658617"><ele>763.0</ele><time>2026-04-03T10:20:05.094Z</time></trkpt><trkpt lat="42.9459433" lon="11.6659733"><ele>763.0</ele><time>2026-04-03T10:20:06.095Z</time></trkpt><trkpt lat="42.9459567" lon="11.66612"><ele>763.0</ele><time>2026-04-03T10:20:08.095Z</time></trkpt><trkpt lat="42.9460167" lon="11.666195"><ele>763.0</ele><time>2026-04-03T10:20:11.094Z</time></trkpt><trkpt lat="42.9461217" lon="11.66619"><ele>763.0</ele><time>2026-04-03T10:20:13.094Z</time></trkpt><trkpt lat="42.9461917" lon="11.66618"><ele>760.8</ele><time>2026-04-03T10:20:14.094Z</time></trkpt><trkpt lat="42.9462717" lon="11.666185"><ele>758.5999999999999</ele><time>2026-04-03T10:20:15.094Z</time></trkpt><trkpt lat="42.9463767" lon="11.6662117"><ele>756.4000000000001</ele><time>2026-04-03T10:20:16.094Z</time></trkpt><trkpt lat="42.9465" lon="11.6662567"><ele>754.2</ele><time>2026-04-03T10:20:17.094Z</time></trkpt><trkpt lat="42.9466267" lon="11.6662833"><ele>752.0</ele><time>2026-04-03T10:20:18.094Z</time></trkpt><trkpt lat="42.94675" lon="11.666275"><ele>750.5</ele><time>2026-04-03T10:20:19.094Z</time></trkpt><trkpt lat="42.9468717" lon="11.6662467"><ele>749.0</ele><time>2026-04-03T10:20:20.094Z</time></trkpt><trkpt lat="42.946995" lon="11.6661433"><ele>747.5</ele><time>2026-04-03T10:20:21.095Z</time></trkpt><trkpt lat="42.9471033" lon="11.666015"><ele>746.0</ele><time>2026-04-03T10:20:22.095Z</time></trkpt><trkpt lat="42.94721" lon="11.66588"><ele>746.0</ele><time>2026-04-03T10:20:23.094Z</time></trkpt><trkpt lat="42.94731" lon="11.66574"><ele>746.0</ele><time>2026-04-03T10:20:24.094Z</time></trkpt><trkpt lat="42.947415" lon="11.665615"><ele>746.0</ele><time>2026-04-03T10:20:25.094Z</time></trkpt><trkpt lat="42.9475233" lon="11.6654917"><ele>746.0</ele><time>2026-04-03T10:20:26.095Z</time></trkpt><trkpt lat="42.9476417" lon="11.6653783"><ele>745.0</ele><time>2026-04-03T10:20:27.094Z</time></trkpt><trkpt lat="42.9477617" lon="11.6652783"><ele>744.0</ele><time>2026-04-03T10:20:28.094Z</time></trkpt><trkpt lat="42.9478867" lon="11.665185"><ele>743.0</ele><time>2026-04-03T10:20:29.094Z</time></trkpt><trkpt lat="42.9480033" lon="11.6651"><ele>742.0</ele><time>2026-04-03T10:20:30.094Z</time></trkpt><trkpt lat="42.9480983" lon="11.6650083"><ele>742.0</ele><time>2026-04-03T10:20:31.095Z</time></trkpt><trkpt lat="42.9481733" lon="11.6649233"><ele>742.0</ele><time>2026-04-03T10:20:32.094Z</time></trkpt><trkpt lat="42.94823" lon="11.664845"><ele>742.0</ele><time>2026-04-03T10:20:33.094Z</time></trkpt><trkpt lat="42.9482733" lon="11.6647733"><ele>742.0</ele><time>2026-04-03T10:20:34.095Z</time></trkpt><trkpt lat="42.9483183" lon="11.6646983"><ele>742.0</ele><time>2026-04-03T10:20:35.094Z</time></trkpt><trkpt lat="42.94835" lon="11.6646233"><ele>742.0</ele><time>2026-04-03T10:20:36.094Z</time></trkpt><trkpt lat="42.9484" lon="11.6644717"><ele>739.8333333333334</ele><time>2026-04-03T10:20:38.095Z</time></trkpt><trkpt lat="42.9484417" lon="11.664355"><ele>737.6666666666667</ele><time>2026-04-03T10:20:40.094Z</time></trkpt><trkpt lat="42.9484917" lon="11.6643"><ele>735.5</ele><time>2026-04-03T10:20:43.094Z</time></trkpt><trkpt lat="42.9485233" lon="11.6643967"><ele>733.3333333333334</ele><time>2026-04-03T10:20:53.095Z</time></trkpt><trkpt lat="42.94851" lon="11.664285"><ele>731.1666666666666</ele><time>2026-04-03T10:49:16.087Z</time></trkpt><trkpt lat="42.9485367" lon="11.6641567"><ele>729.0</ele><time>2026-04-03T10:49:18.086Z</time></trkpt><trkpt lat="42.9485933" lon="11.664005"><ele>729.0</ele><time>2026-04-03T10:49:20.086Z</time></trkpt><trkpt lat="42.948635" lon="11.6639117"><ele>729.0</ele><time>2026-04-03T10:49:21.087Z</time></trkpt><trkpt lat="42.9486817" lon="11.6638067"><ele>729.0</ele><time>2026-04-03T10:49:22.086Z</time></trkpt><trkpt lat="42.948735" lon="11.6636933"><ele>729.0</ele><time>2026-04-03T10:49:23.086Z</time></trkpt><trkpt lat="42.9487917" lon="11.6635717"><ele>729.0</ele><time>2026-04-03T10:49:24.086Z</time></trkpt><trkpt lat="42.9488417" lon="11.6634417"><ele>729.0</ele><time>2026-04-03T10:49:25.087Z</time></trkpt><trkpt lat="42.9489033" lon="11.6633067"><ele>729.0</ele><time>2026-04-03T10:49:26.086Z</time></trkpt><trkpt lat="42.9489617" lon="11.66316"><ele>729.0</ele><time>2026-04-03T10:49:27.087Z</time></trkpt><trkpt lat="42.9490283" lon="11.66302"><ele>729.0</ele><time>2026-04-03T10:49:28.086Z</time></trkpt><trkpt lat="42.9491033" lon="11.66288"><ele>727.5</ele><time>2026-04-03T10:49:29.086Z</time></trkpt><trkpt lat="42.9491917" lon="11.6627583"><ele>726.0</ele><time>2026-04-03T10:49:30.086Z</time></trkpt><trkpt lat="42.9492867" lon="11.6626733"><ele>724.5</ele><time>2026-04-03T10:49:31.087Z</time></trkpt><trkpt lat="42.9493933" lon="11.6626217"><ele>723.0</ele><time>2026-04-03T10:49:32.087Z</time></trkpt><trkpt lat="42.9495117" lon="11.6626267"><ele>720.0</ele><time>2026-04-03T10:49:33.086Z</time></trkpt><trkpt lat="42.94963" lon="11.6626767"><ele>717.0</ele><time>2026-04-03T10:49:34.086Z</time></trkpt><trkpt lat="42.94973" lon="11.6627517"><ele>714.0</ele><time>2026-04-03T10:49:35.087Z</time></trkpt><trkpt lat="42.94982" lon="11.6628483"><ele>711.0</ele><time>2026-04-03T10:49:36.086Z</time></trkpt><trkpt lat="42.94988" lon="11.663"><ele>711.0</ele><time>2026-04-03T10:49:37.087Z</time></trkpt><trkpt lat="42.9499133" lon="11.6631617"><ele>711.0</ele><time>2026-04-03T10:49:38.086Z</time></trkpt><trkpt lat="42.9499267" lon="11.6633267"><ele>711.0</ele><time>2026-04-03T10:49:39.086Z</time></trkpt><trkpt lat="42.9499233" lon="11.6634967"><ele>711.0</ele><time>2026-04-03T10:49:40.086Z</time></trkpt><trkpt lat="42.9499067" lon="11.6636817"><ele>710.25</ele><time>2026-04-03T10:49:41.087Z</time></trkpt><trkpt lat="42.9498933" lon="11.6638617"><ele>709.5</ele><time>2026-04-03T10:49:42.087Z</time></trkpt><trkpt lat="42.94987" lon="11.6640467"><ele>708.75</ele><time>2026-04-03T10:49:43.086Z</time></trkpt><trkpt lat="42.9498617" lon="11.66423"><ele>708.0</ele><time>2026-04-03T10:49:44.086Z</time></trkpt><trkpt lat="42.9498633" lon="11.66442"><ele>708.0</ele><time>2026-04-03T10:49:45.086Z</time></trkpt><trkpt lat="42.9498517" lon="11.66463"><ele>708.0</ele><time>2026-04-03T10:49:46.086Z</time></trkpt><trkpt lat="42.949865" lon="11.66483"><ele>708.0</ele><time>2026-04-03T10:49:47.086Z</time></trkpt><trkpt lat="42.9498917" lon="11.6650267"><ele>708.0</ele><time>2026-04-03T10:49:48.086Z</time></trkpt><trkpt lat="42.949935" lon="11.6652383"><ele>709.3333333333334</ele><time>2026-04-03T10:49:49.087Z</time></trkpt><trkpt lat="42.9499867" lon="11.6654417"><ele>710.6666666666667</ele><time>2026-04-03T10:49:50.087Z</time></trkpt><trkpt lat="42.9500433" lon="11.6656417"><ele>712.0</ele><time>2026-04-03T10:49:51.086Z</time></trkpt><trkpt lat="42.950105" lon="11.6658417"><ele>708.0</ele><time>2026-04-03T10:49:52.087Z</time></trkpt><trkpt lat="42.9501633" lon="11.666045"><ele>704.0</ele><time>2026-04-03T10:49:53.086Z</time></trkpt><trkpt lat="42.950225" lon="11.666245"><ele>700.0</ele><time>2026-04-03T10:49:54.087Z</time></trkpt><trkpt lat="42.9502983" lon="11.6664317"><ele>700.0</ele><time>2026-04-03T10:49:55.086Z</time></trkpt><trkpt lat="42.9504" lon="11.666595"><ele>700.0</ele><time>2026-04-03T10:49:56.086Z</time></trkpt><trkpt lat="42.95052" lon="11.6667317"><ele>700.0</ele><time>2026-04-03T10:49:57.086Z</time></trkpt><trkpt lat="42.950645" lon="11.6668617"><ele>700.6666666666667</ele><time>2026-04-03T10:49:58.086Z</time></trkpt><trkpt lat="42.950785" lon="11.6669917"><ele>701.3333333333334</ele><time>2026-04-03T10:49:59.087Z</time></trkpt><trkpt lat="42.9509117" lon="11.6671267"><ele>702.0</ele><time>2026-04-03T10:50:00.086Z</time></trkpt><trkpt lat="42.9510433" lon="11.667255"><ele>697.0</ele><time>2026-04-03T10:50:01.086Z</time></trkpt><trkpt lat="42.9511733" lon="11.6673617"><ele>692.0</ele><time>2026-04-03T10:50:02.086Z</time></trkpt><trkpt lat="42.9513133" lon="11.6674517"><ele>687.0</ele><time>2026-04-03T10:50:03.086Z</time></trkpt><trkpt lat="42.9514583" lon="11.667505"><ele>687.0</ele><time>2026-04-03T10:50:04.086Z</time></trkpt><trkpt lat="42.9516117" lon="11.6675233"><ele>687.0</ele><time>2026-04-03T10:50:05.086Z</time></trkpt><trkpt lat="42.9517683" lon="11.667545"><ele>687.0</ele><time>2026-04-03T10:50:06.086Z</time></trkpt><trkpt lat="42.9519333" lon="11.6675267"><ele>683.3333333333334</ele><time>2026-04-03T10:50:07.087Z</time></trkpt><trkpt lat="42.9521117" lon="11.66749"><ele>679.6666666666667</ele><time>2026-04-03T10:50:08.086Z</time></trkpt><trkpt lat="42.9522883" lon="11.6674583"><ele>676.0</ele><time>2026-04-03T10:50:09.086Z</time></trkpt><trkpt lat="42.952475" lon="11.6674167"><ele>670.3333333333334</ele><time>2026-04-03T10:50:10.086Z</time></trkpt><trkpt lat="42.9526583" lon="11.6673767"><ele>664.6666666666666</ele><time>2026-04-03T10:50:11.087Z</time></trkpt><trkpt lat="42.9528433" lon="11.6673333"><ele>659.0</ele><time>2026-04-03T10:50:12.086Z</time></trkpt><trkpt lat="42.9530267" lon="11.6672917"><ele>659.0</ele><time>2026-04-03T10:50:13.086Z</time></trkpt><trkpt lat="42.953215" lon="11.6672583"><ele>659.0</ele><time>2026-04-03T10:50:14.087Z</time></trkpt><trkpt lat="42.9533817" lon="11.667225"><ele>659.0</ele><time>2026-04-03T10:50:15.086Z</time></trkpt><trkpt lat="42.953555" lon="11.6671983"><ele>652.6666666666666</ele><time>2026-04-03T10:50:16.087Z</time></trkpt><trkpt lat="42.9537383" lon="11.6671717"><ele>646.3333333333334</ele><time>2026-04-03T10:50:17.086Z</time></trkpt><trkpt lat="42.9539217" lon="11.6671517"><ele>640.0</ele><time>2026-04-03T10:50:18.086Z</time></trkpt><trkpt lat="42.9540933" lon="11.66714"><ele>634.6666666666667</ele><time>2026-04-03T10:50:19.086Z</time></trkpt><trkpt lat="42.954265" lon="11.6671633"><ele>629.3333333333334</ele><time>2026-04-03T10:50:20.086Z</time></trkpt><trkpt lat="42.954425" lon="11.66722"><ele>624.0</ele><time>2026-04-03T10:50:21.086Z</time></trkpt><trkpt lat="42.9545683" lon="11.6673183"><ele>624.0</ele><time>2026-04-03T10:50:22.085Z</time></trkpt><trkpt lat="42.9547067" lon="11.66746"><ele>624.0</ele><time>2026-04-03T10:50:23.085Z</time></trkpt><trkpt lat="42.9548383" lon="11.6676317"><ele>624.0</ele><time>2026-04-03T10:50:24.085Z</time></trkpt><trkpt lat="42.9549733" lon="11.6677967"><ele>621.0</ele><time>2026-04-03T10:50:25.086Z</time></trkpt><trkpt lat="42.9551117" lon="11.667965"><ele>618.0</ele><time>2026-04-03T10:50:26.085Z</time></trkpt><trkpt lat="42.9552383" lon="11.6681467"><ele>615.0</ele><time>2026-04-03T10:50:27.085Z</time></trkpt><trkpt lat="42.95537" lon="11.6683367"><ele>615.0</ele><time>2026-04-03T10:50:28.085Z</time></trkpt><trkpt lat="42.9555" lon="11.6685317"><ele>615.0</ele><time>2026-04-03T10:50:29.085Z</time></trkpt><trkpt lat="42.9556217" lon="11.6687283"><ele>615.0</ele><time>2026-04-03T10:50:30.085Z</time></trkpt><trkpt lat="42.9557267" lon="11.668925"><ele>615.0</ele><time>2026-04-03T10:50:31.085Z</time></trkpt><trkpt lat="42.9557983" lon="11.6691533"><ele>615.0</ele><time>2026-04-03T10:50:32.085Z</time></trkpt><trkpt lat="42.955835" lon="11.6693983"><ele>615.0</ele><time>2026-04-03T10:50:33.085Z</time></trkpt><trkpt lat="42.9558533" lon="11.669645"><ele>614.3333333333334</ele><time>2026-04-03T10:50:34.085Z</time></trkpt><trkpt lat="42.9558617" lon="11.6698983"><ele>613.6666666666667</ele><time>2026-04-03T10:50:35.086Z</time></trkpt><trkpt lat="42.9558567" lon="11.670165"><ele>613.0</ele><time>2026-04-03T10:50:36.085Z</time></trkpt><trkpt lat="42.955855" lon="11.67043"><ele>612.0</ele><time>2026-04-03T10:50:37.086Z</time></trkpt><trkpt lat="42.9558683" lon="11.670685"><ele>611.0</ele><time>2026-04-03T10:50:38.086Z</time></trkpt><trkpt lat="42.9558867" lon="11.6709383"><ele>610.0</ele><time>2026-04-03T10:50:39.085Z</time></trkpt><trkpt lat="42.9559033" lon="11.6711783"><ele>604.3333333333334</ele><time>2026-04-03T10:50:40.086Z</time></trkpt><trkpt lat="42.9559267" lon="11.6714033"><ele>598.6666666666666</ele><time>2026-04-03T10:50:41.086Z</time></trkpt><trkpt lat="42.9559767" lon="11.6716233"><ele>593.0</ele><time>2026-04-03T10:50:42.085Z</time></trkpt><trkpt lat="42.9560533" lon="11.6718233"><ele>590.0</ele><time>2026-04-03T10:50:43.085Z</time></trkpt><trkpt lat="42.956165" lon="11.672"><ele>587.0</ele><time>2026-04-03T10:50:44.086Z</time></trkpt><trkpt lat="42.9562833" lon="11.6721483"><ele>584.0</ele><time>2026-04-03T10:50:45.085Z</time></trkpt><trkpt lat="42.9564267" lon="11.6722567"><ele>584.0</ele><time>2026-04-03T10:50:46.085Z</time></trkpt><trkpt lat="42.9565817" lon="11.67232"><ele>584.0</ele><time>2026-04-03T10:50:47.086Z</time></trkpt><trkpt lat="42.9567583" lon="11.6723467"><ele>584.0</ele><time>2026-04-03T10:50:48.085Z</time></trkpt><trkpt lat="42.956945" lon="11.67235"><ele>581.6666666666666</ele><time>2026-04-03T10:50:49.085Z</time></trkpt><trkpt lat="42.957125" lon="11.6723317"><ele>579.3333333333334</ele><time>2026-04-03T10:50:50.085Z</time></trkpt><trkpt lat="42.9573083" lon="11.6723033"><ele>577.0</ele><time>2026-04-03T10:50:51.086Z</time></trkpt><trkpt lat="42.9575017" lon="11.672265"><ele>573.6666666666667</ele><time>2026-04-03T10:50:52.085Z</time></trkpt><trkpt lat="42.9576983" lon="11.6722133"><ele>570.3333333333334</ele><time>2026-04-03T10:50:53.086Z</time></trkpt><trkpt lat="42.9578983" lon="11.6721367"><ele>567.0</ele><time>2026-04-03T10:50:54.085Z</time></trkpt><trkpt lat="42.9580833" lon="11.6720267"><ele>568.3333333333334</ele><time>2026-04-03T10:50:55.085Z</time></trkpt><trkpt lat="42.9582583" lon="11.6719133"><ele>569.6666666666667</ele><time>2026-04-03T10:50:56.085Z</time></trkpt><trkpt lat="42.9584433" lon="11.67179"><ele>571.0</ele><time>2026-04-03T10:50:57.086Z</time></trkpt><trkpt lat="42.9586233" lon="11.671665"><ele>568.0</ele><time>2026-04-03T10:50:58.085Z</time></trkpt><trkpt lat="42.9588033" lon="11.67154"><ele>565.0</ele><time>2026-04-03T10:50:59.085Z</time></trkpt><trkpt lat="42.9589717" lon="11.67142"><ele>562.0</ele><time>2026-04-03T10:51:00.085Z</time></trkpt><trkpt lat="42.9591483" lon="11.6713017"><ele>558.0</ele><time>2026-04-03T10:51:01.086Z</time></trkpt><trkpt lat="42.95932" lon="11.6711833"><ele>554.0</ele><time>2026-04-03T10:51:02.085Z</time></trkpt><trkpt lat="42.959485" lon="11.6710683"><ele>550.0</ele><time>2026-04-03T10:51:03.086Z</time></trkpt><trkpt lat="42.95966" lon="11.670955"><ele>550.0</ele><time>2026-04-03T10:51:04.085Z</time></trkpt><trkpt lat="42.9598233" lon="11.6708533"><ele>550.0</ele><time>2026-04-03T10:51:05.085Z</time></trkpt><trkpt lat="42.9599883" lon="11.6707733"><ele>550.0</ele><time>2026-04-03T10:51:06.085Z</time></trkpt><trkpt lat="42.96016" lon="11.6707217"><ele>547.0</ele><time>2026-04-03T10:51:07.085Z</time></trkpt><trkpt lat="42.9603367" lon="11.67073"><ele>544.0</ele><time>2026-04-03T10:51:08.085Z</time></trkpt><trkpt lat="42.9605117" lon="11.6707717"><ele>541.0</ele><time>2026-04-03T10:51:09.085Z</time></trkpt><trkpt lat="42.9606833" lon="11.6708417"><ele>541.0</ele><time>2026-04-03T10:51:10.085Z</time></trkpt><trkpt lat="42.960865" lon="11.670925"><ele>541.0</ele><time>2026-04-03T10:51:11.085Z</time></trkpt><trkpt lat="42.9610567" lon="11.6710133"><ele>541.0</ele><time>2026-04-03T10:51:12.086Z</time></trkpt><trkpt lat="42.9612483" lon="11.6711167"><ele>537.6666666666667</ele><time>2026-04-03T10:51:13.085Z</time></trkpt><trkpt lat="42.96143" lon="11.6712217"><ele>534.3333333333334</ele><time>2026-04-03T10:51:14.086Z</time></trkpt><trkpt lat="42.9616183" lon="11.6713167"><ele>531.0</ele><time>2026-04-03T10:51:15.085Z</time></trkpt><trkpt lat="42.9618" lon="11.67141"><ele>529.0</ele><time>2026-04-03T10:51:16.086Z</time></trkpt><trkpt lat="42.9619783" lon="11.6715"><ele>527.0</ele><time>2026-04-03T10:51:17.085Z</time></trkpt><trkpt lat="42.96216" lon="11.6716"><ele>525.0</ele><time>2026-04-03T10:51:18.085Z</time></trkpt><trkpt lat="42.9623217" lon="11.6716933"><ele>525.0</ele><time>2026-04-03T10:51:19.086Z</time></trkpt><trkpt lat="42.9624983" lon="11.67176"><ele>525.0</ele><time>2026-04-03T10:51:20.085Z</time></trkpt><trkpt lat="42.9626617" lon="11.6717867"><ele>525.0</ele><time>2026-04-03T10:51:21.085Z</time></trkpt><trkpt lat="42.9628367" lon="11.6717617"><ele>521.6666666666666</ele><time>2026-04-03T10:51:22.085Z</time></trkpt><trkpt lat="42.9630017" lon="11.671675"><ele>518.3333333333333</ele><time>2026-04-03T10:51:23.085Z</time></trkpt><trkpt lat="42.9631433" lon="11.6715533"><ele>515.0</ele><time>2026-04-03T10:51:24.086Z</time></trkpt><trkpt lat="42.9632717" lon="11.6714"><ele>511.0</ele><time>2026-04-03T10:51:25.086Z</time></trkpt><trkpt lat="42.9633867" lon="11.6712683"><ele>507.0</ele><time>2026-04-03T10:51:26.085Z</time></trkpt><trkpt lat="42.96352" lon="11.6711633"><ele>503.0</ele><time>2026-04-03T10:51:27.086Z</time></trkpt><trkpt lat="42.9636767" lon="11.6711417"><ele>503.0</ele><time>2026-04-03T10:51:28.085Z</time></trkpt><trkpt lat="42.96385" lon="11.6711617"><ele>503.0</ele><time>2026-04-03T10:51:29.085Z</time></trkpt><trkpt lat="42.9640117" lon="11.67121"><ele>503.0</ele><time>2026-04-03T10:51:30.085Z</time></trkpt><trkpt lat="42.96416" lon="11.6713283"><ele>500.3333333333333</ele><time>2026-04-03T10:51:31.085Z</time></trkpt><trkpt lat="42.9643167" lon="11.6714517"><ele>497.66666666666663</ele><time>2026-04-03T10:51:32.085Z</time></trkpt><trkpt lat="42.96445" lon="11.6715867"><ele>495.0</ele><time>2026-04-03T10:51:33.085Z</time></trkpt><trkpt lat="42.9645633" lon="11.671775"><ele>493.0</ele><time>2026-04-03T10:51:34.086Z</time></trkpt><trkpt lat="42.9646283" lon="11.671995"><ele>491.0</ele><time>2026-04-03T10:51:35.086Z</time></trkpt><trkpt lat="42.9646567" lon="11.6722317"><ele>489.0</ele><time>2026-04-03T10:51:36.085Z</time></trkpt><trkpt lat="42.964665" lon="11.6724733"><ele>489.0</ele><time>2026-04-03T10:51:37.085Z</time></trkpt><trkpt lat="42.9646517" lon="11.6727267"><ele>489.0</ele><time>2026-04-03T10:51:38.086Z</time></trkpt><trkpt lat="42.9646367" lon="11.67298"><ele>489.0</ele><time>2026-04-03T10:51:39.085Z</time></trkpt><trkpt lat="42.9646367" lon="11.6732383"><ele>487.66666666666663</ele><time>2026-04-03T10:51:40.085Z</time></trkpt><trkpt lat="42.9646333" lon="11.6734833"><ele>486.3333333333333</ele><time>2026-04-03T10:51:41.086Z</time></trkpt><trkpt lat="42.96463" lon="11.6737183"><ele>485.0</ele><time>2026-04-03T10:51:42.085Z</time></trkpt><trkpt lat="42.9646317" lon="11.673955"><ele>484.66666666666663</ele><time>2026-04-03T10:51:43.085Z</time></trkpt><trkpt lat="42.9646417" lon="11.6741883"><ele>484.33333333333337</ele><time>2026-04-03T10:51:44.085Z</time></trkpt><trkpt lat="42.96468" lon="11.674405"><ele>484.0</ele><time>2026-04-03T10:51:45.086Z</time></trkpt><trkpt lat="42.96475" lon="11.6746117"><ele>482.0</ele><time>2026-04-03T10:51:46.085Z</time></trkpt><trkpt lat="42.96485" lon="11.6748017"><ele>480.0</ele><time>2026-04-03T10:51:47.086Z</time></trkpt><trkpt lat="42.964965" lon="11.674975"><ele>478.0</ele><time>2026-04-03T10:51:48.085Z</time></trkpt><trkpt lat="42.96511" lon="11.6751233"><ele>475.6666666666667</ele><time>2026-04-03T10:51:49.086Z</time></trkpt><trkpt lat="42.9652617" lon="11.6752383"><ele>473.33333333333337</ele><time>2026-04-03T10:51:50.085Z</time></trkpt><trkpt lat="42.9654283" lon="11.6753117"><ele>471.0</ele><time>2026-04-03T10:51:51.086Z</time></trkpt><trkpt lat="42.965595" lon="11.6753367"><ele>468.0</ele><time>2026-04-03T10:51:52.085Z</time></trkpt><trkpt lat="42.9657683" lon="11.67532"><ele>465.0</ele><time>2026-04-03T10:51:53.085Z</time></trkpt><trkpt lat="42.96595" lon="11.675275"><ele>462.0</ele><time>2026-04-03T10:51:54.086Z</time></trkpt><trkpt lat="42.966125" lon="11.67519"><ele>460.33333333333337</ele><time>2026-04-03T10:51:55.085Z</time></trkpt><trkpt lat="42.9662817" lon="11.6750717"><ele>458.6666666666667</ele><time>2026-04-03T10:51:56.085Z</time></trkpt><trkpt lat="42.96646" lon="11.6749483"><ele>457.0</ele><time>2026-04-03T10:51:57.086Z</time></trkpt><trkpt lat="42.9666267" lon="11.67482"><ele>456.6666666666667</ele><time>2026-04-03T10:51:58.085Z</time></trkpt><trkpt lat="42.9667983" lon="11.674705"><ele>456.33333333333337</ele><time>2026-04-03T10:51:59.086Z</time></trkpt><trkpt lat="42.9669417" lon="11.6745733"><ele>456.0</ele><time>2026-04-03T10:52:00.085Z</time></trkpt><trkpt lat="42.967075" lon="11.6744267"><ele>456.0</ele><time>2026-04-03T10:52:01.085Z</time></trkpt><trkpt lat="42.967185" lon="11.6742567"><ele>456.0</ele><time>2026-04-03T10:52:02.085Z</time></trkpt><trkpt lat="42.9672617" lon="11.6740467"><ele>456.0</ele><time>2026-04-03T10:52:03.086Z</time></trkpt><trkpt lat="42.9673233" lon="11.6738217"><ele>455.66666666666663</ele><time>2026-04-03T10:52:04.085Z</time></trkpt><trkpt lat="42.967395" lon="11.673595"><ele>455.3333333333333</ele><time>2026-04-03T10:52:05.085Z</time></trkpt><trkpt lat="42.967465" lon="11.6733717"><ele>455.0</ele><time>2026-04-03T10:52:06.086Z</time></trkpt><trkpt lat="42.96756" lon="11.67316"><ele>451.3333333333333</ele><time>2026-04-03T10:52:07.085Z</time></trkpt><trkpt lat="42.96764" lon="11.6729667"><ele>447.66666666666663</ele><time>2026-04-03T10:52:08.085Z</time></trkpt><trkpt lat="42.9677433" lon="11.6728183"><ele>444.0</ele><time>2026-04-03T10:52:09.085Z</time></trkpt><trkpt lat="42.9678883" lon="11.6727117"><ele>443.0</ele><time>2026-04-03T10:52:10.085Z</time></trkpt><trkpt lat="42.96805" lon="11.6726167"><ele>442.0</ele><time>2026-04-03T10:52:11.085Z</time></trkpt><trkpt lat="42.9682167" lon="11.6725433"><ele>441.0</ele><time>2026-04-03T10:52:12.086Z</time></trkpt><trkpt lat="42.9683817" lon="11.6724733"><ele>437.33333333333337</ele><time>2026-04-03T10:52:13.085Z</time></trkpt><trkpt lat="42.96854" lon="11.6724133"><ele>433.6666666666667</ele><time>2026-04-03T10:52:14.085Z</time></trkpt><trkpt lat="42.96869" lon="11.6723683"><ele>430.0</ele><time>2026-04-03T10:52:15.086Z</time></trkpt><trkpt lat="42.96884" lon="11.6723667"><ele>430.0</ele><time>2026-04-03T10:52:16.085Z</time></trkpt><trkpt lat="42.9689883" lon="11.6723967"><ele>430.0</ele><time>2026-04-03T10:52:17.085Z</time></trkpt><trkpt lat="42.969135" lon="11.6724733"><ele>430.0</ele><time>2026-04-03T10:52:18.085Z</time></trkpt><trkpt lat="42.96928" lon="11.6725733"><ele>426.33333333333337</ele><time>2026-04-03T10:52:19.085Z</time></trkpt><trkpt lat="42.9694333" lon="11.6726783"><ele>422.66666666666663</ele><time>2026-04-03T10:52:20.085Z</time></trkpt><trkpt lat="42.9695833" lon="11.6727883"><ele>419.0</ele><time>2026-04-03T10:52:21.086Z</time></trkpt><trkpt lat="42.969735" lon="11.67289"><ele>418.66666666666663</ele><time>2026-04-03T10:52:22.085Z</time></trkpt><trkpt lat="42.9698967" lon="11.6729583"><ele>418.33333333333337</ele><time>2026-04-03T10:52:23.085Z</time></trkpt><trkpt lat="42.970055" lon="11.672985"><ele>418.0</ele><time>2026-04-03T10:52:24.085Z</time></trkpt><trkpt lat="42.9702167" lon="11.67296"><ele>414.0</ele><time>2026-04-03T10:52:25.086Z</time></trkpt><trkpt lat="42.9703567" lon="11.6728667"><ele>410.0</ele><time>2026-04-03T10:52:26.086Z</time></trkpt><trkpt lat="42.9704767" lon="11.6727267"><ele>406.0</ele><time>2026-04-03T10:52:27.085Z</time></trkpt><trkpt lat="42.9705683" lon="11.6725483"><ele>406.0</ele><time>2026-04-03T10:52:28.085Z</time></trkpt><trkpt lat="42.9706533" lon="11.67235"><ele>406.0</ele><time>2026-04-03T10:52:29.085Z</time></trkpt><trkpt lat="42.9707183" lon="11.672155"><ele>406.0</ele><time>2026-04-03T10:52:30.085Z</time></trkpt><trkpt lat="42.9707733" lon="11.6719583"><ele>405.75</ele><time>2026-04-03T10:52:31.085Z</time></trkpt><trkpt lat="42.9708333" lon="11.6717733"><ele>405.5</ele><time>2026-04-03T10:52:32.085Z</time></trkpt><trkpt lat="42.970905" lon="11.6715967"><ele>405.25</ele><time>2026-04-03T10:52:33.085Z</time></trkpt><trkpt lat="42.9709833" lon="11.6714483"><ele>405.0</ele><time>2026-04-03T10:52:34.085Z</time></trkpt><trkpt lat="42.971055" lon="11.6713183"><ele>403.2</ele><time>2026-04-03T10:52:35.086Z</time></trkpt><trkpt lat="42.9711433" lon="11.6712117"><ele>401.4</ele><time>2026-04-03T10:52:36.085Z</time></trkpt><trkpt lat="42.9711967" lon="11.67109"><ele>399.6</ele><time>2026-04-03T10:52:37.085Z</time></trkpt><trkpt lat="42.9712283" lon="11.670945"><ele>397.8</ele><time>2026-04-03T10:52:38.085Z</time></trkpt><trkpt lat="42.9712567" lon="11.670795"><ele>396.0</ele><time>2026-04-03T10:52:39.085Z</time></trkpt><trkpt lat="42.9712833" lon="11.6706217"><ele>396.0</ele><time>2026-04-03T10:52:40.085Z</time></trkpt><trkpt lat="42.9713233" lon="11.6704517"><ele>396.0</ele><time>2026-04-03T10:52:41.085Z</time></trkpt><trkpt lat="42.97138" lon="11.6702733"><ele>396.0</ele><time>2026-04-03T10:52:42.086Z</time></trkpt><trkpt lat="42.971435" lon="11.6701033"><ele>396.0</ele><time>2026-04-03T10:52:43.085Z</time></trkpt><trkpt lat="42.9714983" lon="11.6699333"><ele>397.0</ele><time>2026-04-03T10:52:44.085Z</time></trkpt><trkpt lat="42.9715733" lon="11.6697717"><ele>398.0</ele><time>2026-04-03T10:52:45.086Z</time></trkpt><trkpt lat="42.9716433" lon="11.6696217"><ele>399.0</ele><time>2026-04-03T10:52:46.085Z</time></trkpt><trkpt lat="42.9717067" lon="11.6695067"><ele>400.0</ele><time>2026-04-03T10:52:47.085Z</time></trkpt><trkpt lat="42.9717467" lon="11.66943"><ele>401.0</ele><time>2026-04-03T10:52:48.085Z</time></trkpt><trkpt lat="42.9718333" lon="11.66946"><ele>401.6</ele><time>2026-04-03T10:55:18.084Z</time></trkpt><trkpt lat="42.9719517" lon="11.6694933"><ele>402.20000000000005</ele><time>2026-04-03T10:55:20.084Z</time></trkpt><trkpt lat="42.97203" lon="11.6695233"><ele>402.79999999999995</ele><time>2026-04-03T10:55:21.084Z</time></trkpt><trkpt lat="42.9721133" lon="11.6695633"><ele>403.4</ele><time>2026-04-03T10:55:22.084Z</time></trkpt><trkpt lat="42.9722117" lon="11.6695967"><ele>404.0</ele><time>2026-04-03T10:55:23.085Z</time></trkpt><trkpt lat="42.9723217" lon="11.6696067"><ele>404.0</ele><time>2026-04-03T10:55:24.084Z</time></trkpt><trkpt lat="42.9724317" lon="11.6696017"><ele>404.0</ele><time>2026-04-03T10:55:25.084Z</time></trkpt><trkpt lat="42.9725417" lon="11.669575"><ele>404.0</ele><time>2026-04-03T10:55:26.085Z</time></trkpt><trkpt lat="42.9726433" lon="11.6695383"><ele>404.0</ele><time>2026-04-03T10:55:27.085Z</time></trkpt><trkpt lat="42.9727167" lon="11.66947"><ele>404.0</ele><time>2026-04-03T10:55:28.084Z</time></trkpt><trkpt lat="42.9727583" lon="11.6693767"><ele>403.79999999999995</ele><time>2026-04-03T10:55:29.084Z</time></trkpt><trkpt lat="42.9727767" lon="11.6692733"><ele>403.59999999999997</ele><time>2026-04-03T10:55:30.084Z</time></trkpt><trkpt lat="42.972775" lon="11.6691567"><ele>403.4</ele><time>2026-04-03T10:55:31.084Z</time></trkpt><trkpt lat="42.97276" lon="11.669015"><ele>403.2</ele><time>2026-04-03T10:55:32.084Z</time></trkpt><trkpt lat="42.9727367" lon="11.6688617"><ele>403.0</ele><time>2026-04-03T10:55:33.084Z</time></trkpt><trkpt lat="42.9727083" lon="11.6686933"><ele>402.5</ele><time>2026-04-03T10:55:34.084Z</time></trkpt><trkpt lat="42.972665" lon="11.6685117"><ele>402.0</ele><time>2026-04-03T10:55:35.084Z</time></trkpt><trkpt lat="42.9726033" lon="11.6683417"><ele>401.5</ele><time>2026-04-03T10:55:36.084Z</time></trkpt><trkpt lat="42.9725283" lon="11.6681783"><ele>401.0</ele><time>2026-04-03T10:55:37.085Z</time></trkpt><trkpt lat="42.972485" lon="11.6680267"><ele>401.4</ele><time>2026-04-03T10:55:38.085Z</time></trkpt><trkpt lat="42.9724783" lon="11.6678917"><ele>401.8</ele><time>2026-04-03T10:55:39.084Z</time></trkpt><trkpt lat="42.9725" lon="11.6677533"><ele>402.2</ele><time>2026-04-03T10:55:40.084Z</time></trkpt><trkpt lat="42.972535" lon="11.6676"><ele>402.59999999999997</ele><time>2026-04-03T10:55:41.085Z</time></trkpt><trkpt lat="42.9725767" lon="11.667455"><ele>403.0</ele><time>2026-04-03T10:55:42.084Z</time></trkpt><trkpt lat="42.9725967" lon="11.6673217"><ele>403.0</ele><time>2026-04-03T10:55:43.084Z</time></trkpt><trkpt lat="42.9726067" lon="11.6671883"><ele>403.0</ele><time>2026-04-03T10:55:44.085Z</time></trkpt><trkpt lat="42.9726017" lon="11.667045"><ele>403.0</ele><time>2026-04-03T10:55:45.085Z</time></trkpt><trkpt lat="42.97258" lon="11.66689"><ele>403.0</ele><time>2026-04-03T10:55:46.084Z</time></trkpt><trkpt lat="42.972545" lon="11.66671"><ele>411.0</ele><time>2026-04-03T10:55:47.084Z</time></trkpt><trkpt lat="42.972505" lon="11.666515"><ele>419.0</ele><time>2026-04-03T10:55:48.085Z</time></trkpt><trkpt lat="42.9724683" lon="11.666315"><ele>427.0</ele><time>2026-04-03T10:55:49.084Z</time></trkpt><trkpt lat="42.9724217" lon="11.6661033"><ele>428.0</ele><time>2026-04-03T10:55:50.085Z</time></trkpt><trkpt lat="42.9723733" lon="11.6658767"><ele>429.0</ele><time>2026-04-03T10:55:51.084Z</time></trkpt><trkpt lat="42.9723283" lon="11.6656483"><ele>430.0</ele><time>2026-04-03T10:55:52.084Z</time></trkpt><trkpt lat="42.97227" lon="11.6654367"><ele>429.8</ele><time>2026-04-03T10:55:53.084Z</time></trkpt><trkpt lat="42.97223" lon="11.6652533"><ele>429.6</ele><time>2026-04-03T10:55:54.084Z</time></trkpt><trkpt lat="42.9721833" lon="11.6651"><ele>429.4</ele><time>2026-04-03T10:55:55.085Z</time></trkpt><trkpt lat="42.9721217" lon="11.66501"><ele>429.2</ele><time>2026-04-03T10:55:56.084Z</time></trkpt><trkpt lat="42.97205" lon="11.6649617"><ele>429.0</ele><time>2026-04-03T10:55:57.084Z</time></trkpt><trkpt lat="42.97195" lon="11.6649117"><ele>429.0</ele><time>2026-04-03T10:55:58.084Z</time></trkpt><trkpt lat="42.9718283" lon="11.66486"><ele>429.0</ele><time>2026-04-03T10:55:59.084Z</time></trkpt><trkpt lat="42.9716933" lon="11.6648"><ele>429.0</ele><time>2026-04-03T10:56:00.084Z</time></trkpt><trkpt lat="42.9715517" lon="11.6647317"><ele>429.0</ele><time>2026-04-03T10:56:01.084Z</time></trkpt><trkpt lat="42.9714067" lon="11.6646883"><ele>432.33333333333337</ele><time>2026-04-03T10:56:02.084Z</time></trkpt><trkpt lat="42.9712567" lon="11.6646617"><ele>435.6666666666667</ele><time>2026-04-03T10:56:03.084Z</time></trkpt><trkpt lat="42.9710983" lon="11.664645"><ele>439.0</ele><time>2026-04-03T10:56:04.084Z</time></trkpt><trkpt lat="42.970945" lon="11.6646067"><ele>439.25</ele><time>2026-04-03T10:56:05.084Z</time></trkpt><trkpt lat="42.970805" lon="11.664555"><ele>439.5</ele><time>2026-04-03T10:56:06.085Z</time></trkpt><trkpt lat="42.9706883" lon="11.6644833"><ele>439.75</ele><time>2026-04-03T10:56:07.084Z</time></trkpt><trkpt lat="42.9705917" lon="11.6643933"><ele>440.0</ele><time>2026-04-03T10:56:08.084Z</time></trkpt><trkpt lat="42.9705283" lon="11.6642917"><ele>440.0</ele><time>2026-04-03T10:56:09.084Z</time></trkpt><trkpt lat="42.9704867" lon="11.664155"><ele>440.0</ele><time>2026-04-03T10:56:10.084Z</time></trkpt><trkpt lat="42.9704533" lon="11.66398"><ele>440.0</ele><time>2026-04-03T10:56:11.085Z</time></trkpt><trkpt lat="42.970415" lon="11.663775"><ele>440.0</ele><time>2026-04-03T10:56:12.084Z</time></trkpt><trkpt lat="42.9703633" lon="11.6635617"><ele>437.3333333333333</ele><time>2026-04-03T10:56:13.084Z</time></trkpt><trkpt lat="42.9703133" lon="11.6633317"><ele>434.66666666666663</ele><time>2026-04-03T10:56:14.085Z</time></trkpt><trkpt lat="42.9702517" lon="11.6630933"><ele>432.0</ele><time>2026-04-03T10:56:15.084Z</time></trkpt><trkpt lat="42.9701833" lon="11.6628383"><ele>431.0</ele><time>2026-04-03T10:56:16.084Z</time></trkpt><trkpt lat="42.970135" lon="11.66261"><ele>430.0</ele><time>2026-04-03T10:56:17.084Z</time></trkpt><trkpt lat="42.9700933" lon="11.66238"><ele>429.0</ele><time>2026-04-03T10:56:18.085Z</time></trkpt><trkpt lat="42.97008" lon="11.6621367"><ele>431.0</ele><time>2026-04-03T10:56:19.084Z</time></trkpt><trkpt lat="42.9700867" lon="11.6619033"><ele>433.0</ele><time>2026-04-03T10:56:20.084Z</time></trkpt><trkpt lat="42.9700717" lon="11.6616783"><ele>435.0</ele><time>2026-04-03T10:56:21.084Z</time></trkpt><trkpt lat="42.970065" lon="11.6614817"><ele>435.0</ele><time>2026-04-03T10:56:22.084Z</time></trkpt><trkpt lat="42.9700833" lon="11.661325"><ele>435.0</ele><time>2026-04-03T10:56:23.084Z</time></trkpt><trkpt lat="42.9701183" lon="11.661195"><ele>435.0</ele><time>2026-04-03T10:56:24.084Z</time></trkpt><trkpt lat="42.97018" lon="11.6610817"><ele>435.0</ele><time>2026-04-03T10:56:25.085Z</time></trkpt><trkpt lat="42.9702567" lon="11.66098"><ele>435.0</ele><time>2026-04-03T10:56:26.085Z</time></trkpt><trkpt lat="42.9703583" lon="11.6608717"><ele>437.2</ele><time>2026-04-03T10:56:27.084Z</time></trkpt><trkpt lat="42.9704567" lon="11.6607633"><ele>439.4</ele><time>2026-04-03T10:56:28.084Z</time></trkpt><trkpt lat="42.9705167" lon="11.6606333"><ele>441.6</ele><time>2026-04-03T10:56:29.085Z</time></trkpt><trkpt lat="42.9705567" lon="11.6605133"><ele>443.8</ele><time>2026-04-03T10:56:30.085Z</time></trkpt><trkpt lat="42.9705733" lon="11.6603933"><ele>446.0</ele><time>2026-04-03T10:56:31.085Z</time></trkpt><trkpt lat="42.9705817" lon="11.66024"><ele>447.0</ele><time>2026-04-03T10:56:32.085Z</time></trkpt><trkpt lat="42.97057" lon="11.6600467"><ele>448.0</ele><time>2026-04-03T10:56:33.084Z</time></trkpt><trkpt lat="42.9705633" lon="11.6598367"><ele>449.0</ele><time>2026-04-03T10:56:34.084Z</time></trkpt><trkpt lat="42.9705583" lon="11.6596067"><ele>449.3333333333333</ele><time>2026-04-03T10:56:35.084Z</time></trkpt><trkpt lat="42.9705583" lon="11.6593633"><ele>449.66666666666663</ele><time>2026-04-03T10:56:36.084Z</time></trkpt><trkpt lat="42.97056" lon="11.6591"><ele>450.0</ele><time>2026-04-03T10:56:37.085Z</time></trkpt><trkpt lat="42.9705683" lon="11.6588167"><ele>451.33333333333337</ele><time>2026-04-03T10:56:38.084Z</time></trkpt><trkpt lat="42.9705783" lon="11.6585367"><ele>452.6666666666667</ele><time>2026-04-03T10:56:39.085Z</time></trkpt><trkpt lat="42.97057" lon="11.6582433"><ele>454.0</ele><time>2026-04-03T10:56:40.084Z</time></trkpt><trkpt lat="42.9705617" lon="11.6579367"><ele>455.33333333333337</ele><time>2026-04-03T10:56:41.084Z</time></trkpt><trkpt lat="42.9705517" lon="11.6576467"><ele>456.66666666666663</ele><time>2026-04-03T10:56:42.084Z</time></trkpt><trkpt lat="42.9705367" lon="11.6573783"><ele>458.0</ele><time>2026-04-03T10:56:43.084Z</time></trkpt><trkpt lat="42.9705217" lon="11.65716"><ele>458.0</ele><time>2026-04-03T10:56:44.084Z</time></trkpt><trkpt lat="42.9705183" lon="11.6569767"><ele>457.99999999999994</ele><time>2026-04-03T10:56:45.084Z</time></trkpt><trkpt lat="42.9705383" lon="11.65682"><ele>457.99999999999994</ele><time>2026-04-03T10:56:46.084Z</time></trkpt><trkpt lat="42.9705717" lon="11.6566933"><ele>458.0</ele><time>2026-04-03T10:56:47.084Z</time></trkpt><trkpt lat="42.9706383" lon="11.6565933"><ele>458.0</ele><time>2026-04-03T10:56:48.084Z</time></trkpt><trkpt lat="42.970735" lon="11.6564833"><ele>458.25</ele><time>2026-04-03T10:56:49.084Z</time></trkpt><trkpt lat="42.9708167" lon="11.6563583"><ele>458.5</ele><time>2026-04-03T10:56:50.084Z</time></trkpt><trkpt lat="42.9708917" lon="11.6562433"><ele>458.75</ele><time>2026-04-03T10:56:51.084Z</time></trkpt><trkpt lat="42.97093" lon="11.6560917"><ele>459.0</ele><time>2026-04-03T10:56:52.084Z</time></trkpt><trkpt lat="42.970955" lon="11.6559117"><ele>459.0</ele><time>2026-04-03T10:56:53.084Z</time></trkpt><trkpt lat="42.9709833" lon="11.6557083"><ele>459.0</ele><time>2026-04-03T10:56:54.084Z</time></trkpt><trkpt lat="42.9710117" lon="11.6555167"><ele>459.0</ele><time>2026-04-03T10:56:55.084Z</time></trkpt><trkpt lat="42.9710383" lon="11.65535"><ele>459.0</ele><time>2026-04-03T10:56:56.084Z</time></trkpt><trkpt lat="42.9710367" lon="11.6552183"><ele>459.5</ele><time>2026-04-03T10:56:57.085Z</time></trkpt><trkpt lat="42.9710217" lon="11.6551017"><ele>460.0</ele><time>2026-04-03T10:56:58.084Z</time></trkpt><trkpt lat="42.9709917" lon="11.654995"><ele>460.5</ele><time>2026-04-03T10:56:59.085Z</time></trkpt><trkpt lat="42.970945" lon="11.65491"><ele>461.0</ele><time>2026-04-03T10:57:00.085Z</time></trkpt><trkpt lat="42.9708767" lon="11.6548417"><ele>461.5</ele><time>2026-04-03T10:57:01.084Z</time></trkpt><trkpt lat="42.970795" lon="11.65477"><ele>462.0</ele><time>2026-04-03T10:57:02.084Z</time></trkpt><trkpt lat="42.9707" lon="11.6546983"><ele>462.0</ele><time>2026-04-03T10:57:03.084Z</time></trkpt><trkpt lat="42.9705933" lon="11.6546017"><ele>462.0</ele><time>2026-04-03T10:57:04.084Z</time></trkpt><trkpt lat="42.9704983" lon="11.6544967"><ele>462.0</ele><time>2026-04-03T10:57:05.085Z</time></trkpt><trkpt lat="42.9704" lon="11.6543833"><ele>462.0</ele><time>2026-04-03T10:57:06.085Z</time></trkpt><trkpt lat="42.97032" lon="11.654255"><ele>462.0</ele><time>2026-04-03T10:57:07.084Z</time></trkpt><trkpt lat="42.9702633" lon="11.6540833"><ele>462.0</ele><time>2026-04-03T10:57:08.085Z</time></trkpt><trkpt lat="42.97021" lon="11.6539"><ele>462.0</ele><time>2026-04-03T10:57:09.084Z</time></trkpt><trkpt lat="42.9701417" lon="11.6537017"><ele>462.0</ele><time>2026-04-03T10:57:10.084Z</time></trkpt><trkpt lat="42.9700633" lon="11.6534983"><ele>464.66666666666663</ele><time>2026-04-03T10:57:11.085Z</time></trkpt><trkpt lat="42.969965" lon="11.6533"><ele>467.3333333333333</ele><time>2026-04-03T10:57:12.085Z</time></trkpt><trkpt lat="42.9698517" lon="11.6531"><ele>470.0</ele><time>2026-04-03T10:57:13.084Z</time></trkpt><trkpt lat="42.9697417" lon="11.6529083"><ele>466.3333333333333</ele><time>2026-04-03T10:57:14.085Z</time></trkpt><trkpt lat="42.9696367" lon="11.6527333"><ele>462.66666666666663</ele><time>2026-04-03T10:57:15.084Z</time></trkpt><trkpt lat="42.969555" lon="11.652565"><ele>459.0</ele><time>2026-04-03T10:57:16.084Z</time></trkpt><trkpt lat="42.9694917" lon="11.6523867"><ele>459.0</ele><time>2026-04-03T10:57:17.084Z</time></trkpt><trkpt lat="42.969455" lon="11.6522"><ele>459.0</ele><time>2026-04-03T10:57:18.085Z</time></trkpt><trkpt lat="42.9694183" lon="11.6520133"><ele>459.0</ele><time>2026-04-03T10:57:19.085Z</time></trkpt><trkpt lat="42.9693783" lon="11.651845"><ele>459.0</ele><time>2026-04-03T10:57:20.084Z</time></trkpt><trkpt lat="42.9693167" lon="11.651695"><ele>459.5</ele><time>2026-04-03T10:57:21.084Z</time></trkpt><trkpt lat="42.9692333" lon="11.6515433"><ele>460.0</ele><time>2026-04-03T10:57:22.085Z</time></trkpt><trkpt lat="42.9691417" lon="11.651395"><ele>460.5</ele><time>2026-04-03T10:57:23.084Z</time></trkpt><trkpt lat="42.969065" lon="11.6512217"><ele>461.0</ele><time>2026-04-03T10:57:24.084Z</time></trkpt><trkpt lat="42.968985" lon="11.6510633"><ele>461.0</ele><time>2026-04-03T10:57:25.084Z</time></trkpt><trkpt lat="42.9689133" lon="11.6509233"><ele>461.0</ele><time>2026-04-03T10:57:26.084Z</time></trkpt><trkpt lat="42.9688717" lon="11.6507983"><ele>461.0</ele><time>2026-04-03T10:57:27.085Z</time></trkpt><trkpt lat="42.96884" lon="11.650675"><ele>461.0</ele><time>2026-04-03T10:57:28.084Z</time></trkpt><trkpt lat="42.9688467" lon="11.6505633"><ele>461.0</ele><time>2026-04-03T10:57:29.084Z</time></trkpt><trkpt lat="42.9689033" lon="11.6504433"><ele>461.0</ele><time>2026-04-03T10:57:30.084Z</time></trkpt><trkpt lat="42.9689717" lon="11.65031"><ele>461.0</ele><time>2026-04-03T10:57:31.084Z</time></trkpt><trkpt lat="42.9690583" lon="11.6501733"><ele>461.0</ele><time>2026-04-03T10:57:32.084Z</time></trkpt><trkpt lat="42.9691517" lon="11.6500067"><ele>461.0</ele><time>2026-04-03T10:57:33.083Z</time></trkpt><trkpt lat="42.96925" lon="11.6498383"><ele>456.5</ele><time>2026-04-03T10:57:34.083Z</time></trkpt><trkpt lat="42.969345" lon="11.6496667"><ele>452.0</ele><time>2026-04-03T10:57:35.083Z</time></trkpt><trkpt lat="42.969435" lon="11.64951"><ele>447.5</ele><time>2026-04-03T10:57:36.084Z</time></trkpt><trkpt lat="42.969515" lon="11.6493683"><ele>443.0</ele><time>2026-04-03T10:57:37.084Z</time></trkpt><trkpt lat="42.9695933" lon="11.6492317"><ele>443.0</ele><time>2026-04-03T10:57:38.083Z</time></trkpt><trkpt lat="42.96965" lon="11.64911"><ele>442.99999999999994</ele><time>2026-04-03T10:57:39.084Z</time></trkpt><trkpt lat="42.9696717" lon="11.6489933"><ele>442.99999999999994</ele><time>2026-04-03T10:57:40.083Z</time></trkpt><trkpt lat="42.96967" lon="11.648875"><ele>443.0</ele><time>2026-04-03T10:57:41.083Z</time></trkpt><trkpt lat="42.969645" lon="11.6487433"><ele>443.0</ele><time>2026-04-03T10:57:42.084Z</time></trkpt><trkpt lat="42.9696033" lon="11.648595"><ele>440.3333333333333</ele><time>2026-04-03T10:57:43.083Z</time></trkpt><trkpt lat="42.969535" lon="11.6484267"><ele>437.66666666666663</ele><time>2026-04-03T10:57:44.083Z</time></trkpt><trkpt lat="42.96945" lon="11.6482467"><ele>435.0</ele><time>2026-04-03T10:57:45.083Z</time></trkpt><trkpt lat="42.9693567" lon="11.6480483"><ele>435.0</ele><time>2026-04-03T10:57:46.083Z</time></trkpt><trkpt lat="42.9692583" lon="11.6478333"><ele>435.0</ele><time>2026-04-03T10:57:47.084Z</time></trkpt><trkpt lat="42.9691533" lon="11.6476183"><ele>435.0</ele><time>2026-04-03T10:57:48.083Z</time></trkpt><trkpt lat="42.9690617" lon="11.6473917"><ele>434.66666666666663</ele><time>2026-04-03T10:57:49.084Z</time></trkpt><trkpt lat="42.96897" lon="11.6471767"><ele>434.3333333333333</ele><time>2026-04-03T10:57:50.083Z</time></trkpt><trkpt lat="42.9688817" lon="11.646985"><ele>434.0</ele><time>2026-04-03T10:57:51.083Z</time></trkpt><trkpt lat="42.9688117" lon="11.6468067"><ele>432.0</ele><time>2026-04-03T10:57:52.083Z</time></trkpt><trkpt lat="42.968755" lon="11.646655"><ele>430.0</ele><time>2026-04-03T10:57:53.083Z</time></trkpt><trkpt lat="42.968725" lon="11.6465017"><ele>428.0</ele><time>2026-04-03T10:57:54.084Z</time></trkpt><trkpt lat="42.9687117" lon="11.6463417"><ele>426.0</ele><time>2026-04-03T10:57:55.083Z</time></trkpt><trkpt lat="42.96872" lon="11.6461733"><ele>426.0</ele><time>2026-04-03T10:57:56.083Z</time></trkpt><trkpt lat="42.9687517" lon="11.646"><ele>426.0</ele><time>2026-04-03T10:57:57.083Z</time></trkpt><trkpt lat="42.9688083" lon="11.6458117"><ele>426.0</ele><time>2026-04-03T10:57:58.083Z</time></trkpt><trkpt lat="42.96888" lon="11.645635"><ele>426.0</ele><time>2026-04-03T10:57:59.083Z</time></trkpt><trkpt lat="42.9689533" lon="11.6454717"><ele>426.0</ele><time>2026-04-03T10:58:00.083Z</time></trkpt><trkpt lat="42.9690333" lon="11.6453433"><ele>426.0</ele><time>2026-04-03T10:58:01.083Z</time></trkpt><trkpt lat="42.9691167" lon="11.6452533"><ele>426.0</ele><time>2026-04-03T10:58:02.083Z</time></trkpt><trkpt lat="42.9692233" lon="11.6451967"><ele>426.0</ele><time>2026-04-03T10:58:03.083Z</time></trkpt><trkpt lat="42.9693467" lon="11.6451533"><ele>427.0</ele><time>2026-04-03T10:58:04.083Z</time></trkpt><trkpt lat="42.9694733" lon="11.6451117"><ele>428.0</ele><time>2026-04-03T10:58:05.084Z</time></trkpt><trkpt lat="42.969615" lon="11.645065"><ele>429.0</ele><time>2026-04-03T10:58:06.083Z</time></trkpt><trkpt lat="42.96977" lon="11.6450117"><ele>430.0</ele><time>2026-04-03T10:58:07.083Z</time></trkpt><trkpt lat="42.969915" lon="11.6449567"><ele>430.0</ele><time>2026-04-03T10:58:08.083Z</time></trkpt><trkpt lat="42.9700383" lon="11.64487"><ele>430.0</ele><time>2026-04-03T10:58:09.083Z</time></trkpt><trkpt lat="42.97012" lon="11.64477"><ele>430.0</ele><time>2026-04-03T10:58:10.083Z</time></trkpt><trkpt lat="42.9701817" lon="11.6446567"><ele>430.0</ele><time>2026-04-03T10:58:11.083Z</time></trkpt><trkpt lat="42.9702167" lon="11.6445217"><ele>432.5</ele><time>2026-04-03T10:58:12.083Z</time></trkpt><trkpt lat="42.9702283" lon="11.6443767"><ele>435.0</ele><time>2026-04-03T10:58:13.083Z</time></trkpt><trkpt lat="42.97022" lon="11.6442"><ele>437.5</ele><time>2026-04-03T10:58:14.083Z</time></trkpt><trkpt lat="42.9702117" lon="11.64401"><ele>440.0</ele><time>2026-04-03T10:58:15.083Z</time></trkpt><trkpt lat="42.970215" lon="11.6438117"><ele>439.66666666666663</ele><time>2026-04-03T10:58:16.083Z</time></trkpt><trkpt lat="42.9701967" lon="11.643595"><ele>439.33333333333337</ele><time>2026-04-03T10:58:17.083Z</time></trkpt><trkpt lat="42.970165" lon="11.643375"><ele>439.0</ele><time>2026-04-03T10:58:18.083Z</time></trkpt><trkpt lat="42.9701167" lon="11.6431533"><ele>439.0</ele><time>2026-04-03T10:58:19.083Z</time></trkpt><trkpt lat="42.9700517" lon="11.64292"><ele>439.0</ele><time>2026-04-03T10:58:20.084Z</time></trkpt><trkpt lat="42.9699683" lon="11.6426983"><ele>439.0</ele><time>2026-04-03T10:58:21.083Z</time></trkpt><trkpt lat="42.9698967" lon="11.6425067"><ele>436.2</ele><time>2026-04-03T10:58:22.083Z</time></trkpt><trkpt lat="42.9698383" lon="11.64235"><ele>433.4</ele><time>2026-04-03T10:58:23.083Z</time></trkpt><trkpt lat="42.9697983" lon="11.6422117"><ele>430.6</ele><time>2026-04-03T10:58:24.083Z</time></trkpt><trkpt lat="42.9697783" lon="11.6420733"><ele>427.8</ele><time>2026-04-03T10:58:25.084Z</time></trkpt><trkpt lat="42.9697817" lon="11.64194"><ele>425.0</ele><time>2026-04-03T10:58:26.084Z</time></trkpt><trkpt lat="42.9698033" lon="11.6418083"><ele>423.6</ele><time>2026-04-03T10:58:27.083Z</time></trkpt><trkpt lat="42.9698467" lon="11.6417017"><ele>422.2</ele><time>2026-04-03T10:58:28.083Z</time></trkpt><trkpt lat="42.96992" lon="11.641625"><ele>420.79999999999995</ele><time>2026-04-03T10:58:29.083Z</time></trkpt><trkpt lat="42.97001" lon="11.6415767"><ele>419.4</ele><time>2026-04-03T10:58:30.084Z</time></trkpt><trkpt lat="42.970125" lon="11.641555"><ele>418.0</ele><time>2026-04-03T10:58:31.083Z</time></trkpt><trkpt lat="42.9702567" lon="11.6415583"><ele>416.6666666666667</ele><time>2026-04-03T10:58:32.083Z</time></trkpt><trkpt lat="42.9704133" lon="11.6415683"><ele>415.33333333333337</ele><time>2026-04-03T10:58:33.083Z</time></trkpt><trkpt lat="42.970575" lon="11.64157"><ele>414.0</ele><time>2026-04-03T10:58:34.083Z</time></trkpt><trkpt lat="42.970755" lon="11.64156"><ele>413.33333333333337</ele><time>2026-04-03T10:58:35.084Z</time></trkpt><trkpt lat="42.970915" lon="11.641535"><ele>412.6666666666667</ele><time>2026-04-03T10:58:36.083Z</time></trkpt><trkpt lat="42.9710617" lon="11.641485"><ele>412.0</ele><time>2026-04-03T10:58:37.084Z</time></trkpt><trkpt lat="42.9711933" lon="11.6414033"><ele>412.0</ele><time>2026-04-03T10:58:38.083Z</time></trkpt><trkpt lat="42.9713017" lon="11.6413033"><ele>412.0</ele><time>2026-04-03T10:58:39.084Z</time></trkpt><trkpt lat="42.971375" lon="11.6411867"><ele>412.0</ele><time>2026-04-03T10:58:40.083Z</time></trkpt><trkpt lat="42.97143" lon="11.6410433"><ele>412.0</ele><time>2026-04-03T10:58:41.083Z</time></trkpt><trkpt lat="42.9714783" lon="11.6408967"><ele>411.5</ele><time>2026-04-03T10:58:42.083Z</time></trkpt><trkpt lat="42.9715283" lon="11.640755"><ele>411.0</ele><time>2026-04-03T10:58:43.084Z</time></trkpt><trkpt lat="42.9716033" lon="11.640635"><ele>410.5</ele><time>2026-04-03T10:58:44.084Z</time></trkpt><trkpt lat="42.9716983" lon="11.6405317"><ele>410.0</ele><time>2026-04-03T10:58:45.083Z</time></trkpt><trkpt lat="42.9718133" lon="11.6404483"><ele>410.0</ele><time>2026-04-03T10:58:46.083Z</time></trkpt><trkpt lat="42.971945" lon="11.640385"><ele>410.0</ele><time>2026-04-03T10:58:47.083Z</time></trkpt><trkpt lat="42.972085" lon="11.6403267"><ele>410.0</ele><time>2026-04-03T10:58:48.083Z</time></trkpt><trkpt lat="42.9722167" lon="11.640285"><ele>410.0</ele><time>2026-04-03T10:58:49.083Z</time></trkpt><trkpt lat="42.972335" lon="11.6402583"><ele>410.0</ele><time>2026-04-03T10:58:50.083Z</time></trkpt><trkpt lat="42.9724633" lon="11.640265"><ele>410.0</ele><time>2026-04-03T10:58:51.083Z</time></trkpt><trkpt lat="42.9726017" lon="11.64029"><ele>410.0</ele><time>2026-04-03T10:58:52.083Z</time></trkpt><trkpt lat="42.97276" lon="11.6403267"><ele>410.0</ele><time>2026-04-03T10:58:53.083Z</time></trkpt><trkpt lat="42.97292" lon="11.6403717"><ele>410.0</ele><time>2026-04-03T10:58:54.084Z</time></trkpt><trkpt lat="42.97309" lon="11.6404417"><ele>410.0</ele><time>2026-04-03T10:58:55.083Z</time></trkpt><trkpt lat="42.9732483" lon="11.6405083"><ele>410.0</ele><time>2026-04-03T10:58:56.084Z</time></trkpt><trkpt lat="42.9734183" lon="11.64055"><ele>409.3333333333333</ele><time>2026-04-03T10:58:57.083Z</time></trkpt><trkpt lat="42.9735983" lon="11.6405717"><ele>408.66666666666663</ele><time>2026-04-03T10:58:58.083Z</time></trkpt><trkpt lat="42.973795" lon="11.6405733"><ele>408.0</ele><time>2026-04-03T10:58:59.083Z</time></trkpt><trkpt lat="42.974005" lon="11.640575"><ele>407.0</ele><time>2026-04-03T10:59:00.083Z</time></trkpt><trkpt lat="42.9742183" lon="11.6405733"><ele>406.0</ele><time>2026-04-03T10:59:01.083Z</time></trkpt><trkpt lat="42.9744183" lon="11.6405733"><ele>405.0</ele><time>2026-04-03T10:59:02.083Z</time></trkpt><trkpt lat="42.974615" lon="11.6405867"><ele>405.0</ele><time>2026-04-03T10:59:03.083Z</time></trkpt><trkpt lat="42.9747683" lon="11.6406117"><ele>405.0</ele><time>2026-04-03T10:59:04.083Z</time></trkpt><trkpt lat="42.9749333" lon="11.6406567"><ele>405.0</ele><time>2026-04-03T10:59:05.083Z</time></trkpt><trkpt lat="42.975065" lon="11.640705"><ele>405.5</ele><time>2026-04-03T10:59:06.084Z</time></trkpt><trkpt lat="42.9751883" lon="11.64077"><ele>406.0</ele><time>2026-04-03T10:59:07.083Z</time></trkpt><trkpt lat="42.975315" lon="11.640845"><ele>406.5</ele><time>2026-04-03T10:59:08.084Z</time></trkpt><trkpt lat="42.9754217" lon="11.6409117"><ele>407.0</ele><time>2026-04-03T10:59:09.084Z</time></trkpt><trkpt lat="42.9755367" lon="11.6409467"><ele>406.99999999999994</ele><time>2026-04-03T10:59:10.083Z</time></trkpt><trkpt lat="42.9756317" lon="11.6409683"><ele>407.0</ele><time>2026-04-03T10:59:11.083Z</time></trkpt><trkpt lat="42.9757217" lon="11.640985"><ele>407.0</ele><time>2026-04-03T10:59:12.084Z</time></trkpt><trkpt lat="42.975805" lon="11.6410067"><ele>407.0</ele><time>2026-04-03T10:59:13.083Z</time></trkpt><trkpt lat="42.9758783" lon="11.641035"><ele>406.99999999999994</ele><time>2026-04-03T10:59:14.083Z</time></trkpt><trkpt lat="42.9759533" lon="11.6410633"><ele>407.0</ele><time>2026-04-03T10:59:15.083Z</time></trkpt><trkpt lat="42.9760233" lon="11.6410967"><ele>405.16666666666663</ele><time>2026-04-03T10:59:16.083Z</time></trkpt><trkpt lat="42.9761017" lon="11.64114"><ele>403.3333333333333</ele><time>2026-04-03T10:59:17.083Z</time></trkpt><trkpt lat="42.9761883" lon="11.6411933"><ele>401.5</ele><time>2026-04-03T10:59:18.083Z</time></trkpt><trkpt lat="42.97626" lon="11.6412483"><ele>399.66666666666663</ele><time>2026-04-03T10:59:19.084Z</time></trkpt><trkpt lat="42.9763183" lon="11.6413083"><ele>397.8333333333333</ele><time>2026-04-03T10:59:20.083Z</time></trkpt><trkpt lat="42.97638" lon="11.6414017"><ele>396.0</ele><time>2026-04-03T10:59:21.083Z</time></trkpt><trkpt lat="42.9764533" lon="11.6415033"><ele>396.0</ele><time>2026-04-03T10:59:22.084Z</time></trkpt><trkpt lat="42.9765383" lon="11.64162"><ele>396.0</ele><time>2026-04-03T10:59:23.083Z</time></trkpt><trkpt lat="42.9766217" lon="11.64173"><ele>396.0</ele><time>2026-04-03T10:59:24.083Z</time></trkpt><trkpt lat="42.9767333" lon="11.6418333"><ele>396.0</ele><time>2026-04-03T10:59:25.083Z</time></trkpt><trkpt lat="42.976855" lon="11.6419233"><ele>394.33333333333337</ele><time>2026-04-03T10:59:26.083Z</time></trkpt><trkpt lat="42.977" lon="11.6420133"><ele>392.6666666666667</ele><time>2026-04-03T10:59:27.083Z</time></trkpt><trkpt lat="42.977155" lon="11.64212"><ele>391.0</ele><time>2026-04-03T10:59:28.083Z</time></trkpt><trkpt lat="42.9773333" lon="11.6422183"><ele>393.6666666666667</ele><time>2026-04-03T10:59:29.083Z</time></trkpt><trkpt lat="42.977525" lon="11.6423283"><ele>396.33333333333337</ele><time>2026-04-03T10:59:30.083Z</time></trkpt><trkpt lat="42.9777283" lon="11.64245"><ele>399.0</ele><time>2026-04-03T10:59:31.083Z</time></trkpt><trkpt lat="42.9779317" lon="11.6425867"><ele>399.0</ele><time>2026-04-03T10:59:32.083Z</time></trkpt><trkpt lat="42.97815" lon="11.642725"><ele>399.0</ele><time>2026-04-03T10:59:33.083Z</time></trkpt><trkpt lat="42.97836" lon="11.6428667"><ele>398.0</ele><time>2026-04-03T10:59:34.084Z</time></trkpt><trkpt lat="42.97854" lon="11.64299"><ele>397.0</ele><time>2026-04-03T10:59:35.083Z</time></trkpt><trkpt lat="42.9786883" lon="11.6431217"><ele>396.0</ele><time>2026-04-03T10:59:36.084Z</time></trkpt><trkpt lat="42.9788167" lon="11.6432317"><ele>396.0</ele><time>2026-04-03T10:59:37.083Z</time></trkpt><trkpt lat="42.9789283" lon="11.6433283"><ele>396.0</ele><time>2026-04-03T10:59:38.083Z</time></trkpt><trkpt lat="42.9790183" lon="11.6433817"><ele>396.0</ele><time>2026-04-03T10:59:39.083Z</time></trkpt><trkpt lat="42.9791133" lon="11.6434017"><ele>396.0</ele><time>2026-04-03T10:59:40.083Z</time></trkpt><trkpt lat="42.9791983" lon="11.643395"><ele>396.0</ele><time>2026-04-03T10:59:41.083Z</time></trkpt><trkpt lat="42.97928" lon="11.64335"><ele>395.5</ele><time>2026-04-03T10:59:42.083Z</time></trkpt><trkpt lat="42.979365" lon="11.6432833"><ele>395.0</ele><time>2026-04-03T10:59:43.083Z</time></trkpt><trkpt lat="42.9794567" lon="11.643195"><ele>394.5</ele><time>2026-04-03T10:59:44.083Z</time></trkpt><trkpt lat="42.9795667" lon="11.6430783"><ele>394.0</ele><time>2026-04-03T10:59:45.083Z</time></trkpt><trkpt lat="42.9796733" lon="11.6429533"><ele>394.0</ele><time>2026-04-03T10:59:46.083Z</time></trkpt><trkpt lat="42.9797817" lon="11.6428367"><ele>394.0</ele><time>2026-04-03T10:59:47.083Z</time></trkpt><trkpt lat="42.9798767" lon="11.642735"><ele>394.0</ele><time>2026-04-03T10:59:48.083Z</time></trkpt><trkpt lat="42.9799567" lon="11.6426133"><ele>394.0</ele><time>2026-04-03T10:59:49.083Z</time></trkpt><trkpt lat="42.98002" lon="11.64247"><ele>396.6666666666667</ele><time>2026-04-03T10:59:50.083Z</time></trkpt><trkpt lat="42.9800717" lon="11.6423033"><ele>399.33333333333337</ele><time>2026-04-03T10:59:51.083Z</time></trkpt><trkpt lat="42.9801133" lon="11.6421067"><ele>402.0</ele><time>2026-04-03T10:59:52.083Z</time></trkpt><trkpt lat="42.9801683" lon="11.641885"><ele>403.0</ele><time>2026-04-03T10:59:53.083Z</time></trkpt><trkpt lat="42.9802283" lon="11.6416533"><ele>404.0</ele><time>2026-04-03T10:59:54.084Z</time></trkpt><trkpt lat="42.9802883" lon="11.6414133"><ele>405.0</ele><time>2026-04-03T10:59:55.083Z</time></trkpt><trkpt lat="42.9803367" lon="11.6411917"><ele>406.0</ele><time>2026-04-03T10:59:56.083Z</time></trkpt><trkpt lat="42.9803917" lon="11.6409917"><ele>407.0</ele><time>2026-04-03T10:59:57.084Z</time></trkpt><trkpt lat="42.9804083" lon="11.640805"><ele>408.0</ele><time>2026-04-03T10:59:58.083Z</time></trkpt><trkpt lat="42.9804083" lon="11.640605"><ele>409.0</ele><time>2026-04-03T10:59:59.083Z</time></trkpt><trkpt lat="42.980395" lon="11.640395"><ele>410.6666666666667</ele><time>2026-04-03T11:00:00.083Z</time></trkpt><trkpt lat="42.9803683" lon="11.6401633"><ele>412.33333333333337</ele><time>2026-04-03T11:00:01.083Z</time></trkpt><trkpt lat="42.98034" lon="11.6399233"><ele>414.0</ele><time>2026-04-03T11:00:02.083Z</time></trkpt><trkpt lat="42.9803083" lon="11.639705"><ele>414.0</ele><time>2026-04-03T11:00:03.083Z</time></trkpt><trkpt lat="42.980295" lon="11.6395233"><ele>414.0</ele><time>2026-04-03T11:00:04.084Z</time></trkpt><trkpt lat="42.9802983" lon="11.63937"><ele>414.0</ele><time>2026-04-03T11:00:05.083Z</time></trkpt><trkpt lat="42.980315" lon="11.63924"><ele>414.0</ele><time>2026-04-03T11:00:06.083Z</time></trkpt><trkpt lat="42.98035" lon="11.6391317"><ele>414.0</ele><time>2026-04-03T11:00:07.083Z</time></trkpt><trkpt lat="42.9804183" lon="11.63905"><ele>416.0</ele><time>2026-04-03T11:00:08.083Z</time></trkpt><trkpt lat="42.9805167" lon="11.63899"><ele>418.0</ele><time>2026-04-03T11:00:09.084Z</time></trkpt><trkpt lat="42.98061" lon="11.6389717"><ele>420.0</ele><time>2026-04-03T11:00:10.083Z</time></trkpt><trkpt lat="42.98072" lon="11.6389917"><ele>422.0</ele><time>2026-04-03T11:00:11.083Z</time></trkpt><trkpt lat="42.980825" lon="11.6390617"><ele>424.0</ele><time>2026-04-03T11:00:12.084Z</time></trkpt><trkpt lat="42.9809333" lon="11.6391667"><ele>423.33333333333337</ele><time>2026-04-03T11:00:13.084Z</time></trkpt><trkpt lat="42.9810433" lon="11.6393067"><ele>422.66666666666663</ele><time>2026-04-03T11:00:14.083Z</time></trkpt><trkpt lat="42.98116" lon="11.639475"><ele>422.0</ele><time>2026-04-03T11:00:15.083Z</time></trkpt><trkpt lat="42.9812967" lon="11.639625"><ele>422.0</ele><time>2026-04-03T11:00:16.084Z</time></trkpt><trkpt lat="42.9814383" lon="11.639795"><ele>422.0</ele><time>2026-04-03T11:00:17.084Z</time></trkpt><trkpt lat="42.981565" lon="11.6399467"><ele>422.0</ele><time>2026-04-03T11:00:18.083Z</time></trkpt><trkpt lat="42.9816833" lon="11.64008"><ele>422.20000000000005</ele><time>2026-04-03T11:00:19.083Z</time></trkpt><trkpt lat="42.9817867" lon="11.640195"><ele>422.4</ele><time>2026-04-03T11:00:20.084Z</time></trkpt><trkpt lat="42.9818667" lon="11.6402867"><ele>422.6</ele><time>2026-04-03T11:00:21.083Z</time></trkpt><trkpt lat="42.981945" lon="11.6403433"><ele>422.79999999999995</ele><time>2026-04-03T11:00:22.083Z</time></trkpt><trkpt lat="42.98203" lon="11.6403633"><ele>423.0</ele><time>2026-04-03T11:00:23.083Z</time></trkpt><trkpt lat="42.982105" lon="11.640355"><ele>423.0</ele><time>2026-04-03T11:00:24.083Z</time></trkpt><trkpt lat="42.9821767" lon="11.6403317"><ele>423.0</ele><time>2026-04-03T11:00:25.083Z</time></trkpt><trkpt lat="42.9822533" lon="11.6402717"><ele>423.0</ele><time>2026-04-03T11:00:26.083Z</time></trkpt><trkpt lat="42.98234" lon="11.64019"><ele>423.0</ele><time>2026-04-03T11:00:27.084Z</time></trkpt><trkpt lat="42.9824367" lon="11.6400883"><ele>423.0</ele><time>2026-04-03T11:00:28.083Z</time></trkpt><trkpt lat="42.9825483" lon="11.6399567"><ele>421.66666666666663</ele><time>2026-04-03T11:00:29.083Z</time></trkpt><trkpt lat="42.982675" lon="11.6398083"><ele>420.3333333333333</ele><time>2026-04-03T11:00:30.084Z</time></trkpt><trkpt lat="42.9827967" lon="11.6396633"><ele>419.0</ele><time>2026-04-03T11:00:31.084Z</time></trkpt><trkpt lat="42.9829133" lon="11.639535"><ele>419.5</ele><time>2026-04-03T11:00:32.084Z</time></trkpt><trkpt lat="42.9830233" lon="11.6394283"><ele>420.0</ele><time>2026-04-03T11:00:33.084Z</time></trkpt><trkpt lat="42.98314" lon="11.6393583"><ele>420.5</ele><time>2026-04-03T11:00:34.083Z</time></trkpt><trkpt lat="42.98326" lon="11.6393217"><ele>421.0</ele><time>2026-04-03T11:00:35.083Z</time></trkpt><trkpt lat="42.98338" lon="11.6393117"><ele>419.25</ele><time>2026-04-03T11:00:36.084Z</time></trkpt><trkpt lat="42.9834917" lon="11.6393233"><ele>417.5</ele><time>2026-04-03T11:00:37.083Z</time></trkpt><trkpt lat="42.9836067" lon="11.6393267"><ele>415.75</ele><time>2026-04-03T11:00:38.083Z</time></trkpt><trkpt lat="42.983725" lon="11.639325"><ele>414.0</ele><time>2026-04-03T11:00:39.083Z</time></trkpt><trkpt lat="42.9838333" lon="11.6393083"><ele>414.0</ele><time>2026-04-03T11:00:40.084Z</time></trkpt><trkpt lat="42.9839483" lon="11.6392783"><ele>414.0</ele><time>2026-04-03T11:00:41.084Z</time></trkpt><trkpt lat="42.984065" lon="11.639235"><ele>414.0</ele><time>2026-04-03T11:00:42.084Z</time></trkpt><trkpt lat="42.984195" lon="11.6391817"><ele>414.0</ele><time>2026-04-03T11:00:43.084Z</time></trkpt><trkpt lat="42.9843183" lon="11.63914"><ele>412.25</ele><time>2026-04-03T11:00:44.083Z</time></trkpt><trkpt lat="42.9844317" lon="11.6391067"><ele>410.5</ele><time>2026-04-03T11:00:45.083Z</time></trkpt><trkpt lat="42.9845383" lon="11.6390917"><ele>408.75</ele><time>2026-04-03T11:00:46.083Z</time></trkpt><trkpt lat="42.9846733" lon="11.6391083"><ele>407.0</ele><time>2026-04-03T11:00:47.083Z</time></trkpt><trkpt lat="42.9848083" lon="11.6391633"><ele>407.0</ele><time>2026-04-03T11:00:48.084Z</time></trkpt><trkpt lat="42.984955" lon="11.63923"><ele>407.0</ele><time>2026-04-03T11:00:49.083Z</time></trkpt><trkpt lat="42.9851233" lon="11.6392883"><ele>407.0</ele><time>2026-04-03T11:00:50.083Z</time></trkpt><trkpt lat="42.985295" lon="11.63935"><ele>406.0</ele><time>2026-04-03T11:00:51.083Z</time></trkpt><trkpt lat="42.985465" lon="11.63942"><ele>405.0</ele><time>2026-04-03T11:00:52.084Z</time></trkpt><trkpt lat="42.9856067" lon="11.6394783"><ele>404.0</ele><time>2026-04-03T11:00:53.084Z</time></trkpt><trkpt lat="42.9857417" lon="11.6395267"><ele>400.75</ele><time>2026-04-03T11:00:54.084Z</time></trkpt><trkpt lat="42.98586" lon="11.6395733"><ele>397.5</ele><time>2026-04-03T11:00:55.083Z</time></trkpt><trkpt lat="42.98597" lon="11.6396283"><ele>394.25</ele><time>2026-04-03T11:00:56.083Z</time></trkpt><trkpt lat="42.9860617" lon="11.63971"><ele>391.0</ele><time>2026-04-03T11:00:57.083Z</time></trkpt><trkpt lat="42.9861433" lon="11.6398283"><ele>391.0</ele><time>2026-04-03T11:00:58.083Z</time></trkpt><trkpt lat="42.9862283" lon="11.63999"><ele>391.0</ele><time>2026-04-03T11:00:59.084Z</time></trkpt><trkpt lat="42.9863233" lon="11.640165"><ele>391.0</ele><time>2026-04-03T11:01:00.083Z</time></trkpt><trkpt lat="42.9864167" lon="11.6403233"><ele>392.4</ele><time>2026-04-03T11:01:01.083Z</time></trkpt><trkpt lat="42.9864917" lon="11.6404633"><ele>393.8</ele><time>2026-04-03T11:01:02.084Z</time></trkpt><trkpt lat="42.9865683" lon="11.64057"><ele>395.2</ele><time>2026-04-03T11:01:03.083Z</time></trkpt><trkpt lat="42.9866383" lon="11.6406217"><ele>396.59999999999997</ele><time>2026-04-03T11:01:04.083Z</time></trkpt><trkpt lat="42.98674" lon="11.640635"><ele>398.0</ele><time>2026-04-03T11:01:05.083Z</time></trkpt><trkpt lat="42.9868583" lon="11.64061"><ele>397.2</ele><time>2026-04-03T11:01:06.084Z</time></trkpt><trkpt lat="42.9869733" lon="11.640565"><ele>396.4</ele><time>2026-04-03T11:01:07.084Z</time></trkpt><trkpt lat="42.9870783" lon="11.6405183"><ele>395.59999999999997</ele><time>2026-04-03T11:01:08.083Z</time></trkpt><trkpt lat="42.987175" lon="11.6404567"><ele>394.79999999999995</ele><time>2026-04-03T11:01:09.084Z</time></trkpt><trkpt lat="42.9872533" lon="11.6403633"><ele>394.0</ele><time>2026-04-03T11:01:10.082Z</time></trkpt><trkpt lat="42.9873033" lon="11.6402533"><ele>394.0</ele><time>2026-04-03T11:01:11.082Z</time></trkpt><trkpt lat="42.98732" lon="11.6401"><ele>394.0</ele><time>2026-04-03T11:01:12.083Z</time></trkpt><trkpt lat="42.9873367" lon="11.63992"><ele>394.0</ele><time>2026-04-03T11:01:13.082Z</time></trkpt><trkpt lat="42.987345" lon="11.6397167"><ele>394.0</ele><time>2026-04-03T11:01:14.083Z</time></trkpt><trkpt lat="42.987365" lon="11.6395"><ele>394.75</ele><time>2026-04-03T11:01:15.082Z</time></trkpt><trkpt lat="42.9873833" lon="11.6393183"><ele>395.5</ele><time>2026-04-03T11:01:16.082Z</time></trkpt><trkpt lat="42.9874117" lon="11.6391483"><ele>396.25</ele><time>2026-04-03T11:01:17.082Z</time></trkpt><trkpt lat="42.9874617" lon="11.6389917"><ele>397.0</ele><time>2026-04-03T11:01:18.082Z</time></trkpt><trkpt lat="42.9875233" lon="11.6388533"><ele>397.00000000000006</ele><time>2026-04-03T11:01:19.082Z</time></trkpt><trkpt lat="42.9875883" lon="11.6387383"><ele>397.0</ele><time>2026-04-03T11:01:20.083Z</time></trkpt><trkpt lat="42.9876317" lon="11.638655"><ele>397.0</ele><time>2026-04-03T11:01:21.082Z</time></trkpt><trkpt lat="42.98767" lon="11.6385867"><ele>397.0</ele><time>2026-04-03T11:01:22.082Z</time></trkpt><trkpt lat="42.987715" lon="11.6385117"><ele>397.00000000000006</ele><time>2026-04-03T11:01:23.082Z</time></trkpt><trkpt lat="42.987765" lon="11.6384233"><ele>397.0</ele><time>2026-04-03T11:01:24.082Z</time></trkpt><trkpt lat="42.9878283" lon="11.6383083"><ele>394.25</ele><time>2026-04-03T11:01:25.083Z</time></trkpt><trkpt lat="42.9879" lon="11.6381717"><ele>391.5</ele><time>2026-04-03T11:01:26.082Z</time></trkpt><trkpt lat="42.9879833" lon="11.63802"><ele>388.75</ele><time>2026-04-03T11:01:27.082Z</time></trkpt><trkpt lat="42.9880667" lon="11.6378733"><ele>386.0</ele><time>2026-04-03T11:01:28.082Z</time></trkpt><trkpt lat="42.9881667" lon="11.6377533"><ele>383.5</ele><time>2026-04-03T11:01:29.082Z</time></trkpt><trkpt lat="42.9882833" lon="11.6376333"><ele>381.0</ele><time>2026-04-03T11:01:30.082Z</time></trkpt><trkpt lat="42.98841" lon="11.637515"><ele>378.5</ele><time>2026-04-03T11:01:31.083Z</time></trkpt><trkpt lat="42.9885333" lon="11.6374167"><ele>376.0</ele><time>2026-04-03T11:01:32.082Z</time></trkpt><trkpt lat="42.9886533" lon="11.6373217"><ele>375.75</ele><time>2026-04-03T11:01:33.082Z</time></trkpt><trkpt lat="42.988775" lon="11.6372333"><ele>375.5</ele><time>2026-04-03T11:01:34.082Z</time></trkpt><trkpt lat="42.9888933" lon="11.6371683"><ele>375.25</ele><time>2026-04-03T11:01:35.083Z</time></trkpt><trkpt lat="42.9890133" lon="11.637135"><ele>375.0</ele><time>2026-04-03T11:01:36.083Z</time></trkpt><trkpt lat="42.989165" lon="11.6371217"><ele>374.0</ele><time>2026-04-03T11:01:37.082Z</time></trkpt><trkpt lat="42.989325" lon="11.63711"><ele>373.0</ele><time>2026-04-03T11:01:38.082Z</time></trkpt><trkpt lat="42.98951" lon="11.637085"><ele>372.0</ele><time>2026-04-03T11:01:39.083Z</time></trkpt><trkpt lat="42.9897083" lon="11.637035"><ele>370.6666666666667</ele><time>2026-04-03T11:01:40.083Z</time></trkpt><trkpt lat="42.9899117" lon="11.6369567"><ele>369.33333333333337</ele><time>2026-04-03T11:01:41.083Z</time></trkpt><trkpt lat="42.9901117" lon="11.6368583"><ele>368.0</ele><time>2026-04-03T11:01:42.083Z</time></trkpt><trkpt lat="42.9902917" lon="11.63676"><ele>368.0</ele><time>2026-04-03T11:01:43.082Z</time></trkpt><trkpt lat="42.9904483" lon="11.6366767"><ele>368.0</ele><time>2026-04-03T11:01:44.082Z</time></trkpt><trkpt lat="42.990605" lon="11.6366"><ele>368.0</ele><time>2026-04-03T11:01:45.082Z</time></trkpt><trkpt lat="42.9907517" lon="11.63651"><ele>367.6666666666667</ele><time>2026-04-03T11:01:46.083Z</time></trkpt><trkpt lat="42.9909033" lon="11.6364"><ele>367.3333333333333</ele><time>2026-04-03T11:01:47.083Z</time></trkpt><trkpt lat="42.9910567" lon="11.6362883"><ele>367.0</ele><time>2026-04-03T11:01:48.082Z</time></trkpt><trkpt lat="42.9912267" lon="11.6361567"><ele>364.66666666666663</ele><time>2026-04-03T11:01:49.082Z</time></trkpt><trkpt lat="42.9913733" lon="11.63603"><ele>362.3333333333333</ele><time>2026-04-03T11:01:50.082Z</time></trkpt><trkpt lat="42.9915417" lon="11.6359017"><ele>360.0</ele><time>2026-04-03T11:01:51.082Z</time></trkpt><trkpt lat="42.99171" lon="11.635765"><ele>360.0</ele><time>2026-04-03T11:01:52.082Z</time></trkpt><trkpt lat="42.991875" lon="11.63561"><ele>360.0</ele><time>2026-04-03T11:01:53.082Z</time></trkpt><trkpt lat="42.99203" lon="11.6354633"><ele>360.0</ele><time>2026-04-03T11:01:54.082Z</time></trkpt><trkpt lat="42.9921767" lon="11.6353117"><ele>359.3333333333333</ele><time>2026-04-03T11:01:55.083Z</time></trkpt><trkpt lat="42.9923133" lon="11.6351567"><ele>358.66666666666663</ele><time>2026-04-03T11:01:56.083Z</time></trkpt><trkpt lat="42.9924283" lon="11.634995"><ele>358.0</ele><time>2026-04-03T11:01:57.083Z</time></trkpt><trkpt lat="42.9925133" lon="11.6348183"><ele>358.0</ele><time>2026-04-03T11:01:58.082Z</time></trkpt><trkpt lat="42.9925817" lon="11.6346267"><ele>358.0</ele><time>2026-04-03T11:01:59.083Z</time></trkpt><trkpt lat="42.9926317" lon="11.6343917"><ele>358.0</ele><time>2026-04-03T11:02:00.082Z</time></trkpt><trkpt lat="42.9926717" lon="11.6341417"><ele>358.0</ele><time>2026-04-03T11:02:01.082Z</time></trkpt><trkpt lat="42.9926983" lon="11.6338733"><ele>358.0</ele><time>2026-04-03T11:02:02.082Z</time></trkpt><trkpt lat="42.992745" lon="11.633595"><ele>358.0</ele><time>2026-04-03T11:02:03.083Z</time></trkpt><trkpt lat="42.9927767" lon="11.6333117"><ele>359.0</ele><time>2026-04-03T11:02:04.083Z</time></trkpt><trkpt lat="42.9927933" lon="11.6330433"><ele>360.0</ele><time>2026-04-03T11:02:05.082Z</time></trkpt><trkpt lat="42.9928067" lon="11.6328283"><ele>361.0</ele><time>2026-04-03T11:02:06.082Z</time></trkpt><trkpt lat="42.992785" lon="11.6326167"><ele>361.0</ele><time>2026-04-03T11:02:07.082Z</time></trkpt><trkpt lat="42.9927517" lon="11.632385"><ele>361.0</ele><time>2026-04-03T11:02:08.083Z</time></trkpt><trkpt lat="42.9927117" lon="11.6321317"><ele>361.0</ele><time>2026-04-03T11:02:09.082Z</time></trkpt><trkpt lat="42.9926583" lon="11.6318767"><ele>361.0</ele><time>2026-04-03T11:02:10.082Z</time></trkpt><trkpt lat="42.99262" lon="11.6316167"><ele>361.0</ele><time>2026-04-03T11:02:11.082Z</time></trkpt><trkpt lat="42.992585" lon="11.6313783"><ele>361.0</ele><time>2026-04-03T11:02:12.082Z</time></trkpt><trkpt lat="42.9925633" lon="11.6311867"><ele>358.5</ele><time>2026-04-03T11:02:13.082Z</time></trkpt><trkpt lat="42.9925417" lon="11.631005"><ele>356.0</ele><time>2026-04-03T11:02:14.082Z</time></trkpt><trkpt lat="42.99255" lon="11.6308433"><ele>353.5</ele><time>2026-04-03T11:02:15.082Z</time></trkpt><trkpt lat="42.9925867" lon="11.6307017"><ele>351.0</ele><time>2026-04-03T11:02:16.083Z</time></trkpt><trkpt lat="42.99265" lon="11.630545"><ele>351.0</ele><time>2026-04-03T11:02:17.082Z</time></trkpt><trkpt lat="42.9927417" lon="11.6303767"><ele>351.0</ele><time>2026-04-03T11:02:18.082Z</time></trkpt><trkpt lat="42.9928283" lon="11.6301817"><ele>351.0</ele><time>2026-04-03T11:02:19.082Z</time></trkpt><trkpt lat="42.9929183" lon="11.6299883"><ele>349.0</ele><time>2026-04-03T11:02:20.082Z</time></trkpt><trkpt lat="42.993015" lon="11.6297917"><ele>347.0</ele><time>2026-04-03T11:02:21.083Z</time></trkpt><trkpt lat="42.9931017" lon="11.6296"><ele>345.0</ele><time>2026-04-03T11:02:22.082Z</time></trkpt><trkpt lat="42.9931883" lon="11.629435"><ele>345.0</ele><time>2026-04-03T11:02:23.083Z</time></trkpt><trkpt lat="42.99327" lon="11.6293133"><ele>345.0</ele><time>2026-04-03T11:02:24.082Z</time></trkpt><trkpt lat="42.9933533" lon="11.629235"><ele>345.0</ele><time>2026-04-03T11:02:25.082Z</time></trkpt><trkpt lat="42.9934533" lon="11.6291717"><ele>345.0</ele><time>2026-04-03T11:02:26.082Z</time></trkpt><trkpt lat="42.993585" lon="11.6291483"><ele>344.3333333333333</ele><time>2026-04-03T11:02:27.082Z</time></trkpt><trkpt lat="42.993745" lon="11.6291383"><ele>343.66666666666663</ele><time>2026-04-03T11:02:28.083Z</time></trkpt><trkpt lat="42.9939083" lon="11.629135"><ele>343.0</ele><time>2026-04-03T11:02:29.082Z</time></trkpt><trkpt lat="42.9940933" lon="11.6291383"><ele>345.3333333333333</ele><time>2026-04-03T11:02:30.082Z</time></trkpt><trkpt lat="42.9942933" lon="11.629145"><ele>347.6666666666667</ele><time>2026-04-03T11:02:31.083Z</time></trkpt><trkpt lat="42.9944983" lon="11.6291383"><ele>350.0</ele><time>2026-04-03T11:02:32.083Z</time></trkpt><trkpt lat="42.9947133" lon="11.629125"><ele>350.0</ele><time>2026-04-03T11:02:33.082Z</time></trkpt><trkpt lat="42.9949183" lon="11.6291117"><ele>350.0</ele><time>2026-04-03T11:02:34.082Z</time></trkpt><trkpt lat="42.9951217" lon="11.6291017"><ele>350.0</ele><time>2026-04-03T11:02:35.082Z</time></trkpt><trkpt lat="42.9953383" lon="11.6290917"><ele>352.0</ele><time>2026-04-03T11:02:36.082Z</time></trkpt><trkpt lat="42.9955483" lon="11.6290733"><ele>354.0</ele><time>2026-04-03T11:02:37.083Z</time></trkpt><trkpt lat="42.9957433" lon="11.6290717"><ele>356.0</ele><time>2026-04-03T11:02:38.082Z</time></trkpt><trkpt lat="42.995945" lon="11.6290683"><ele>358.0</ele><time>2026-04-03T11:02:39.082Z</time></trkpt><trkpt lat="42.9961183" lon="11.6290483"><ele>360.0</ele><time>2026-04-03T11:02:40.083Z</time></trkpt><trkpt lat="42.9962783" lon="11.6290317"><ele>362.0</ele><time>2026-04-03T11:02:41.082Z</time></trkpt><trkpt lat="42.9964383" lon="11.6290017"><ele>362.0</ele><time>2026-04-03T11:02:42.082Z</time></trkpt><trkpt lat="42.9965983" lon="11.628945"><ele>362.0</ele><time>2026-04-03T11:02:43.083Z</time></trkpt><trkpt lat="42.9967583" lon="11.6288667"><ele>362.0</ele><time>2026-04-03T11:02:44.082Z</time></trkpt><trkpt lat="42.9969217" lon="11.6287817"><ele>362.6666666666667</ele><time>2026-04-03T11:02:45.082Z</time></trkpt><trkpt lat="42.9970833" lon="11.6286833"><ele>363.3333333333333</ele><time>2026-04-03T11:02:46.082Z</time></trkpt><trkpt lat="42.9972633" lon="11.6286083"><ele>364.0</ele><time>2026-04-03T11:02:47.083Z</time></trkpt><trkpt lat="42.997445" lon="11.6285383"><ele>367.0</ele><time>2026-04-03T11:02:48.082Z</time></trkpt><trkpt lat="42.99763" lon="11.6284883"><ele>370.0</ele><time>2026-04-03T11:02:49.082Z</time></trkpt><trkpt lat="42.9977867" lon="11.62843"><ele>373.0</ele><time>2026-04-03T11:02:50.082Z</time></trkpt><trkpt lat="42.9979383" lon="11.6283867"><ele>373.0</ele><time>2026-04-03T11:02:51.083Z</time></trkpt><trkpt lat="42.9980617" lon="11.62835"><ele>373.0</ele><time>2026-04-03T11:02:52.082Z</time></trkpt><trkpt lat="42.9981683" lon="11.6283067"><ele>373.0</ele><time>2026-04-03T11:02:53.083Z</time></trkpt><trkpt lat="42.9982517" lon="11.6282517"><ele>373.0</ele><time>2026-04-03T11:02:54.082Z</time></trkpt><trkpt lat="42.9983283" lon="11.6281483"><ele>373.0</ele><time>2026-04-03T11:02:55.082Z</time></trkpt><trkpt lat="42.998385" lon="11.6280167"><ele>371.75</ele><time>2026-04-03T11:02:56.082Z</time></trkpt><trkpt lat="42.9984433" lon="11.6278533"><ele>370.5</ele><time>2026-04-03T11:02:57.082Z</time></trkpt><trkpt lat="42.9985117" lon="11.6276583"><ele>369.25</ele><time>2026-04-03T11:02:58.082Z</time></trkpt><trkpt lat="42.99858" lon="11.6274633"><ele>368.0</ele><time>2026-04-03T11:02:59.082Z</time></trkpt><trkpt lat="42.99867" lon="11.627275"><ele>368.0</ele><time>2026-04-03T11:03:00.082Z</time></trkpt><trkpt lat="42.9987717" lon="11.6270867"><ele>368.0</ele><time>2026-04-03T11:03:01.082Z</time></trkpt><trkpt lat="42.998895" lon="11.62693"><ele>368.0</ele><time>2026-04-03T11:03:02.082Z</time></trkpt><trkpt lat="42.9990233" lon="11.6267917"><ele>370.6666666666667</ele><time>2026-04-03T11:03:03.082Z</time></trkpt><trkpt lat="42.9991683" lon="11.6266767"><ele>373.3333333333333</ele><time>2026-04-03T11:03:04.082Z</time></trkpt><trkpt lat="42.9993333" lon="11.6265817"><ele>376.0</ele><time>2026-04-03T11:03:05.082Z</time></trkpt><trkpt lat="42.9995233" lon="11.62651"><ele>376.0</ele><time>2026-04-03T11:03:06.082Z</time></trkpt><trkpt lat="42.9997183" lon="11.6264533"><ele>376.0</ele><time>2026-04-03T11:03:07.082Z</time></trkpt><trkpt lat="42.9999083" lon="11.626405"><ele>376.0</ele><time>2026-04-03T11:03:08.082Z</time></trkpt><trkpt lat="43.0000867" lon="11.626355"><ele>376.0</ele><time>2026-04-03T11:03:09.082Z</time></trkpt><trkpt lat="43.000245" lon="11.6263033"><ele>376.0</ele><time>2026-04-03T11:03:10.082Z</time></trkpt><trkpt lat="43.0003783" lon="11.6262567"><ele>376.0</ele><time>2026-04-03T11:03:11.082Z</time></trkpt><trkpt lat="43.0004883" lon="11.6262217"><ele>376.0</ele><time>2026-04-03T11:03:12.082Z</time></trkpt><trkpt lat="43.0005617" lon="11.62614"><ele>378.20000000000005</ele><time>2026-04-03T11:03:13.083Z</time></trkpt><trkpt lat="43.00061" lon="11.6260283"><ele>380.40000000000003</ele><time>2026-04-03T11:03:14.082Z</time></trkpt><trkpt lat="43.0006483" lon="11.6258983"><ele>382.6</ele><time>2026-04-03T11:03:15.082Z</time></trkpt><trkpt lat="43.0006783" lon="11.625745"><ele>384.8</ele><time>2026-04-03T11:03:16.082Z</time></trkpt><trkpt lat="43.0006933" lon="11.62559"><ele>387.0</ele><time>2026-04-03T11:03:17.082Z</time></trkpt><trkpt lat="43.000745" lon="11.625475"><ele>387.0</ele><time>2026-04-03T11:03:18.082Z</time></trkpt><trkpt lat="43.00082" lon="11.625385"><ele>387.0</ele><time>2026-04-03T11:03:19.082Z</time></trkpt><trkpt lat="43.00093" lon="11.6253017"><ele>387.0</ele><time>2026-04-03T11:03:20.083Z</time></trkpt><trkpt lat="43.0010583" lon="11.6252317"><ele>387.0</ele><time>2026-04-03T11:03:21.082Z</time></trkpt><trkpt lat="43.0012117" lon="11.625175"><ele>387.33333333333337</ele><time>2026-04-03T11:03:22.082Z</time></trkpt><trkpt lat="43.00138" lon="11.6251033"><ele>387.6666666666667</ele><time>2026-04-03T11:03:23.083Z</time></trkpt><trkpt lat="43.0015533" lon="11.6250217"><ele>388.0</ele><time>2026-04-03T11:03:24.082Z</time></trkpt><trkpt lat="43.001725" lon="11.6249117"><ele>387.59999999999997</ele><time>2026-04-03T11:03:25.083Z</time></trkpt><trkpt lat="43.00187" lon="11.6248033"><ele>387.2</ele><time>2026-04-03T11:03:26.082Z</time></trkpt><trkpt lat="43.0019867" lon="11.6247417"><ele>386.8</ele><time>2026-04-03T11:03:27.082Z</time></trkpt><trkpt lat="43.002065" lon="11.62472"><ele>386.4</ele><time>2026-04-03T11:03:28.082Z</time></trkpt><trkpt lat="43.002135" lon="11.62472"><ele>386.0</ele><time>2026-04-03T11:03:29.083Z</time></trkpt><trkpt lat="43.0021917" lon="11.6247917"><ele>386.0</ele><time>2026-04-03T11:03:30.082Z</time></trkpt><trkpt lat="43.0022433" lon="11.624895"><ele>386.0</ele><time>2026-04-03T11:03:31.082Z</time></trkpt><trkpt lat="43.0022617" lon="11.6250283"><ele>386.0</ele><time>2026-04-03T11:03:32.082Z</time></trkpt><trkpt lat="43.002275" lon="11.625165"><ele>386.0</ele><time>2026-04-03T11:03:33.082Z</time></trkpt><trkpt lat="43.0022983" lon="11.62528"><ele>386.0</ele><time>2026-04-03T11:03:34.082Z</time></trkpt><trkpt lat="43.0023433" lon="11.625365"><ele>385.4</ele><time>2026-04-03T11:03:35.082Z</time></trkpt><trkpt lat="43.0024567" lon="11.6254167"><ele>384.8</ele><time>2026-04-03T11:03:37.082Z</time></trkpt><trkpt lat="43.0025433" lon="11.6254017"><ele>384.2</ele><time>2026-04-03T11:03:38.083Z</time></trkpt><trkpt lat="43.0026183" lon="11.62537"><ele>383.59999999999997</ele><time>2026-04-03T11:03:39.082Z</time></trkpt><trkpt lat="43.0026967" lon="11.6253233"><ele>383.0</ele><time>2026-04-03T11:03:40.082Z</time></trkpt><trkpt lat="43.0027767" lon="11.625285"><ele>384.6666666666667</ele><time>2026-04-03T11:03:41.082Z</time></trkpt><trkpt lat="43.00285" lon="11.6252517"><ele>386.33333333333337</ele><time>2026-04-03T11:03:42.082Z</time></trkpt><trkpt lat="43.0029283" lon="11.62523"><ele>388.0</ele><time>2026-04-03T11:03:43.082Z</time></trkpt><trkpt lat="43.0030083" lon="11.6252217"><ele>389.6666666666667</ele><time>2026-04-03T11:03:44.083Z</time></trkpt><trkpt lat="43.003085" lon="11.6252217"><ele>391.3333333333333</ele><time>2026-04-03T11:03:45.082Z</time></trkpt><trkpt lat="43.0031633" lon="11.625235"><ele>393.0</ele><time>2026-04-03T11:03:46.082Z</time></trkpt><trkpt lat="43.0032517" lon="11.62526"><ele>392.79999999999995</ele><time>2026-04-03T11:03:47.082Z</time></trkpt><trkpt lat="43.0033483" lon="11.6252983"><ele>392.6</ele><time>2026-04-03T11:03:48.082Z</time></trkpt><trkpt lat="43.0034517" lon="11.6253417"><ele>392.4</ele><time>2026-04-03T11:03:49.083Z</time></trkpt><trkpt lat="43.0035467" lon="11.6253833"><ele>392.20000000000005</ele><time>2026-04-03T11:03:50.082Z</time></trkpt><trkpt lat="43.00363" lon="11.6254133"><ele>392.0</ele><time>2026-04-03T11:03:51.083Z</time></trkpt><trkpt lat="43.0037217" lon="11.6254083"><ele>391.99999999999994</ele><time>2026-04-03T11:03:52.083Z</time></trkpt><trkpt lat="43.0038017" lon="11.6253783"><ele>392.0</ele><time>2026-04-03T11:03:53.082Z</time></trkpt><trkpt lat="43.003875" lon="11.6253317"><ele>392.0</ele><time>2026-04-03T11:03:54.082Z</time></trkpt><trkpt lat="43.0039317" lon="11.62529"><ele>392.0</ele><time>2026-04-03T11:03:55.082Z</time></trkpt><trkpt lat="43.0040233" lon="11.6252233"><ele>391.99999999999994</ele><time>2026-04-03T11:03:57.082Z</time></trkpt><trkpt lat="43.0040767" lon="11.6252967"><ele>392.0</ele><time>2026-04-03T11:03:59.082Z</time></trkpt><trkpt lat="43.00407" lon="11.6254767"><ele>392.0</ele><time>2026-04-03T11:04:01.082Z</time></trkpt><trkpt lat="43.0040367" lon="11.6255867"><ele>392.0</ele><time>2026-04-03T11:04:02.083Z</time></trkpt><trkpt lat="43.00398" lon="11.6257083"><ele>392.0</ele><time>2026-04-03T11:04:03.083Z</time></trkpt><trkpt lat="43.0039233" lon="11.625835"><ele>392.0</ele><time>2026-04-03T11:04:04.082Z</time></trkpt><trkpt lat="43.0038617" lon="11.6259683"><ele>392.0</ele><time>2026-04-03T11:04:05.082Z</time></trkpt><trkpt lat="43.0038283" lon="11.626105"><ele>391.20000000000005</ele><time>2026-04-03T11:04:06.082Z</time></trkpt><trkpt lat="43.0038183" lon="11.6262583"><ele>390.4</ele><time>2026-04-03T11:04:07.082Z</time></trkpt><trkpt lat="43.003825" lon="11.6264067"><ele>389.6</ele><time>2026-04-03T11:04:08.083Z</time></trkpt><trkpt lat="43.0038317" lon="11.6265583"><ele>388.79999999999995</ele><time>2026-04-03T11:04:09.082Z</time></trkpt><trkpt lat="43.0038467" lon="11.6266967"><ele>388.0</ele><time>2026-04-03T11:04:10.083Z</time></trkpt><trkpt lat="43.0038783" lon="11.6268417"><ele>387.0</ele><time>2026-04-03T11:04:11.082Z</time></trkpt><trkpt lat="43.00392" lon="11.626985"><ele>386.0</ele><time>2026-04-03T11:04:12.082Z</time></trkpt><trkpt lat="43.00397" lon="11.62716"><ele>385.0</ele><time>2026-04-03T11:04:13.083Z</time></trkpt><trkpt lat="43.004015" lon="11.6273517"><ele>384.0</ele><time>2026-04-03T11:04:14.082Z</time></trkpt><trkpt lat="43.0040467" lon="11.6275517"><ele>384.0</ele><time>2026-04-03T11:04:15.082Z</time></trkpt><trkpt lat="43.0040717" lon="11.6277483"><ele>384.0</ele><time>2026-04-03T11:04:16.082Z</time></trkpt><trkpt lat="43.0040817" lon="11.62792"><ele>384.0</ele><time>2026-04-03T11:04:17.083Z</time></trkpt><trkpt lat="43.0041" lon="11.6280983"><ele>384.0</ele><time>2026-04-03T11:04:18.082Z</time></trkpt><trkpt lat="43.0041167" lon="11.6282533"><ele>383.4</ele><time>2026-04-03T11:04:19.082Z</time></trkpt><trkpt lat="43.0041383" lon="11.6283767"><ele>382.79999999999995</ele><time>2026-04-03T11:04:20.083Z</time></trkpt><trkpt lat="43.004175" lon="11.6284933"><ele>382.20000000000005</ele><time>2026-04-03T11:04:21.082Z</time></trkpt><trkpt lat="43.0042233" lon="11.6285867"><ele>381.6</ele><time>2026-04-03T11:04:22.082Z</time></trkpt><trkpt lat="43.00425" lon="11.6286733"><ele>381.0</ele><time>2026-04-03T11:04:23.082Z</time></trkpt><trkpt lat="43.0042733" lon="11.6288533"><ele>379.8</ele><time>2026-04-03T11:04:25.082Z</time></trkpt><trkpt lat="43.00426" lon="11.6289517"><ele>378.6</ele><time>2026-04-03T11:04:26.082Z</time></trkpt><trkpt lat="43.00424" lon="11.629045"><ele>377.4</ele><time>2026-04-03T11:04:27.083Z</time></trkpt><trkpt lat="43.00424" lon="11.629195"><ele>376.2</ele><time>2026-04-03T11:04:29.082Z</time></trkpt><trkpt lat="43.0043233" lon="11.6293317"><ele>375.0</ele><time>2026-04-03T11:04:31.082Z</time></trkpt><trkpt lat="43.004405" lon="11.6293967"><ele>375.0</ele><time>2026-04-03T11:04:32.082Z</time></trkpt><trkpt lat="43.0044933" lon="11.6294533"><ele>375.0</ele><time>2026-04-03T11:04:33.082Z</time></trkpt><trkpt lat="43.0045917" lon="11.6294883"><ele>375.0</ele><time>2026-04-03T11:04:34.082Z</time></trkpt><trkpt lat="43.004705" lon="11.6295067"><ele>375.0</ele><time>2026-04-03T11:04:35.082Z</time></trkpt><trkpt lat="43.004815" lon="11.6295017"><ele>375.0</ele><time>2026-04-03T11:04:36.082Z</time></trkpt><trkpt lat="43.0049233" lon="11.62948"><ele>373.4</ele><time>2026-04-03T11:04:37.083Z</time></trkpt><trkpt lat="43.00503" lon="11.6294533"><ele>371.8</ele><time>2026-04-03T11:04:38.082Z</time></trkpt><trkpt lat="43.0051217" lon="11.6294333"><ele>370.20000000000005</ele><time>2026-04-03T11:04:39.083Z</time></trkpt><trkpt lat="43.0052167" lon="11.6294317"><ele>368.6</ele><time>2026-04-03T11:04:40.082Z</time></trkpt><trkpt lat="43.0053" lon="11.62945"><ele>367.0</ele><time>2026-04-03T11:04:41.082Z</time></trkpt><trkpt lat="43.005375" lon="11.6294767"><ele>365.40000000000003</ele><time>2026-04-03T11:04:42.082Z</time></trkpt><trkpt lat="43.0054383" lon="11.6295317"><ele>363.8</ele><time>2026-04-03T11:04:43.082Z</time></trkpt><trkpt lat="43.0055017" lon="11.629625"><ele>362.2</ele><time>2026-04-03T11:04:44.082Z</time></trkpt><trkpt lat="43.00556" lon="11.629745"><ele>360.6</ele><time>2026-04-03T11:04:45.082Z</time></trkpt><trkpt lat="43.00562" lon="11.6298667"><ele>359.0</ele><time>2026-04-03T11:04:46.082Z</time></trkpt><trkpt lat="43.0056833" lon="11.6299733"><ele>359.0</ele><time>2026-04-03T11:04:47.083Z</time></trkpt><trkpt lat="43.005745" lon="11.63006"><ele>359.0</ele><time>2026-04-03T11:04:48.082Z</time></trkpt><trkpt lat="43.0058083" lon="11.6301217"><ele>359.0</ele><time>2026-04-03T11:04:49.082Z</time></trkpt><trkpt lat="43.0058917" lon="11.63016"><ele>359.0</ele><time>2026-04-03T11:04:50.083Z</time></trkpt><trkpt lat="43.0059633" lon="11.630185"><ele>359.0</ele><time>2026-04-03T11:04:51.083Z</time></trkpt><trkpt lat="43.0060517" lon="11.6302367"><ele>359.0</ele><time>2026-04-03T11:04:53.082Z</time></trkpt><trkpt lat="43.0061183" lon="11.6302633"><ele>356.33333333333337</ele><time>2026-04-03T11:05:00.082Z</time></trkpt><trkpt lat="43.00619" lon="11.6303467"><ele>353.6666666666667</ele><time>2026-04-03T11:05:02.081Z</time></trkpt><trkpt lat="43.006235" lon="11.63049"><ele>351.0</ele><time>2026-04-03T11:05:04.081Z</time></trkpt><trkpt lat="43.00624" lon="11.6305833"><ele>348.3333333333333</ele><time>2026-04-03T11:05:05.082Z</time></trkpt><trkpt lat="43.006245" lon="11.630675"><ele>345.66666666666663</ele><time>2026-04-03T11:05:06.081Z</time></trkpt><trkpt lat="43.0062517" lon="11.6307667"><ele>343.0</ele><time>2026-04-03T11:05:07.081Z</time></trkpt><trkpt lat="43.0062567" lon="11.6309433"><ele>343.0</ele><time>2026-04-03T11:05:09.081Z</time></trkpt><trkpt lat="43.006265" lon="11.6310433"><ele>343.0</ele><time>2026-04-03T11:05:10.081Z</time></trkpt><trkpt lat="43.006275" lon="11.63115"><ele>343.0</ele><time>2026-04-03T11:05:11.081Z</time></trkpt><trkpt lat="43.006285" lon="11.6312583"><ele>343.0</ele><time>2026-04-03T11:05:12.082Z</time></trkpt><trkpt lat="43.0062967" lon="11.631355"><ele>343.0</ele><time>2026-04-03T11:05:13.082Z</time></trkpt><trkpt lat="43.0063517" lon="11.6315033"><ele>343.0</ele><time>2026-04-03T11:05:15.082Z</time></trkpt><trkpt lat="43.0064017" lon="11.6315667"><ele>341.5</ele><time>2026-04-03T11:05:16.081Z</time></trkpt><trkpt lat="43.0064683" lon="11.6316267"><ele>340.0</ele><time>2026-04-03T11:05:17.081Z</time></trkpt><trkpt lat="43.0065467" lon="11.6316883"><ele>338.5</ele><time>2026-04-03T11:05:18.081Z</time></trkpt><trkpt lat="43.0066183" lon="11.63175"><ele>337.0</ele><time>2026-04-03T11:05:19.081Z</time></trkpt><trkpt lat="43.006695" lon="11.63181"><ele>335.5</ele><time>2026-04-03T11:05:20.081Z</time></trkpt><trkpt lat="43.0067667" lon="11.6318617"><ele>334.0</ele><time>2026-04-03T11:05:21.081Z</time></trkpt><trkpt lat="43.0068283" lon="11.6319267"><ele>331.5</ele><time>2026-04-03T11:05:22.082Z</time></trkpt><trkpt lat="43.0068683" lon="11.6319933"><ele>329.0</ele><time>2026-04-03T11:05:23.082Z</time></trkpt><trkpt lat="43.006905" lon="11.63208"><ele>326.5</ele><time>2026-04-03T11:05:24.082Z</time></trkpt><trkpt lat="43.0069267" lon="11.6321833"><ele>324.0</ele><time>2026-04-03T11:05:25.081Z</time></trkpt><trkpt lat="43.006935" lon="11.632295"><ele>321.5</ele><time>2026-04-03T11:05:26.081Z</time></trkpt><trkpt lat="43.0069383" lon="11.63241"><ele>319.0</ele><time>2026-04-03T11:05:27.082Z</time></trkpt><trkpt lat="43.0069417" lon="11.6325233"><ele>319.0</ele><time>2026-04-03T11:05:28.081Z</time></trkpt><trkpt lat="43.006945" lon="11.632635"><ele>319.0</ele><time>2026-04-03T11:05:29.081Z</time></trkpt><trkpt lat="43.0069367" lon="11.63276"><ele>319.0</ele><time>2026-04-03T11:05:30.081Z</time></trkpt><trkpt lat="43.0069167" lon="11.6329"><ele>319.0</ele><time>2026-04-03T11:05:31.081Z</time></trkpt><trkpt lat="43.0068783" lon="11.6330633"><ele>319.0</ele><time>2026-04-03T11:05:32.081Z</time></trkpt><trkpt lat="43.0068417" lon="11.6332417"><ele>316.66666666666663</ele><time>2026-04-03T11:05:33.082Z</time></trkpt><trkpt lat="43.0068233" lon="11.6334533"><ele>314.3333333333333</ele><time>2026-04-03T11:05:34.081Z</time></trkpt><trkpt lat="43.0068117" lon="11.6337017"><ele>312.0</ele><time>2026-04-03T11:05:35.081Z</time></trkpt><trkpt lat="43.006795" lon="11.633955"><ele>311.0</ele><time>2026-04-03T11:05:36.081Z</time></trkpt><trkpt lat="43.0067783" lon="11.6341967"><ele>310.0</ele><time>2026-04-03T11:05:37.081Z</time></trkpt><trkpt lat="43.0067783" lon="11.634385"><ele>309.0</ele><time>2026-04-03T11:05:38.081Z</time></trkpt><trkpt lat="43.0067617" lon="11.6345567"><ele>308.0</ele><time>2026-04-03T11:05:39.081Z</time></trkpt><trkpt lat="43.00675" lon="11.6346967"><ele>307.83333333333337</ele><time>2026-04-03T11:05:40.082Z</time></trkpt><trkpt lat="43.0067617" lon="11.634815"><ele>307.6666666666667</ele><time>2026-04-03T11:05:41.082Z</time></trkpt><trkpt lat="43.0067883" lon="11.634925"><ele>307.5</ele><time>2026-04-03T11:05:42.081Z</time></trkpt><trkpt lat="43.0068383" lon="11.634995"><ele>307.3333333333333</ele><time>2026-04-03T11:05:43.081Z</time></trkpt><trkpt lat="43.00691" lon="11.6350317"><ele>307.16666666666663</ele><time>2026-04-03T11:05:44.082Z</time></trkpt><trkpt lat="43.007" lon="11.63503"><ele>307.0</ele><time>2026-04-03T11:05:45.081Z</time></trkpt><trkpt lat="43.0071017" lon="11.6350067"><ele>307.0</ele><time>2026-04-03T11:05:46.081Z</time></trkpt><trkpt lat="43.0072083" lon="11.63498"><ele>307.0</ele><time>2026-04-03T11:05:47.082Z</time></trkpt><trkpt lat="43.0073183" lon="11.6349617"><ele>307.0</ele><time>2026-04-03T11:05:48.081Z</time></trkpt><trkpt lat="43.0074233" lon="11.6349483"><ele>307.0</ele><time>2026-04-03T11:05:49.082Z</time></trkpt><trkpt lat="43.007505" lon="11.634935"><ele>307.0</ele><time>2026-04-03T11:05:50.081Z</time></trkpt><trkpt lat="43.007585" lon="11.6349183"><ele>306.6</ele><time>2026-04-03T11:05:51.081Z</time></trkpt><trkpt lat="43.0076483" lon="11.63492"><ele>306.2</ele><time>2026-04-03T11:05:52.081Z</time></trkpt><trkpt lat="43.00776" lon="11.6349817"><ele>305.8</ele><time>2026-04-03T11:05:54.082Z</time></trkpt><trkpt lat="43.00784" lon="11.6350133"><ele>305.4</ele><time>2026-04-03T11:05:55.081Z</time></trkpt><trkpt lat="43.007925" lon="11.6350567"><ele>305.0</ele><time>2026-04-03T11:05:56.081Z</time></trkpt><trkpt lat="43.0080083" lon="11.6351117"><ele>305.0</ele><time>2026-04-03T11:05:57.081Z</time></trkpt><trkpt lat="43.00808" lon="11.6351783"><ele>305.0</ele><time>2026-04-03T11:05:58.081Z</time></trkpt><trkpt lat="43.0081183" lon="11.635265"><ele>305.0</ele><time>2026-04-03T11:05:59.081Z</time></trkpt><trkpt lat="43.008155" lon="11.63535"><ele>305.0</ele><time>2026-04-03T11:06:00.081Z</time></trkpt><trkpt lat="43.00817" lon="11.63549"><ele>305.0</ele><time>2026-04-03T11:06:01.081Z</time></trkpt><trkpt lat="43.00817" lon="11.635665"><ele>305.6666666666667</ele><time>2026-04-03T11:06:02.081Z</time></trkpt><trkpt lat="43.008185" lon="11.6358767"><ele>306.3333333333333</ele><time>2026-04-03T11:06:03.081Z</time></trkpt><trkpt lat="43.0082067" lon="11.636115"><ele>307.0</ele><time>2026-04-03T11:06:04.081Z</time></trkpt><trkpt lat="43.0082317" lon="11.6363767"><ele>308.66666666666663</ele><time>2026-04-03T11:06:05.081Z</time></trkpt><trkpt lat="43.0082533" lon="11.63665"><ele>310.3333333333333</ele><time>2026-04-03T11:06:06.081Z</time></trkpt><trkpt lat="43.0082683" lon="11.6369517"><ele>312.0</ele><time>2026-04-03T11:06:07.081Z</time></trkpt><trkpt lat="43.0082883" lon="11.6372267"><ele>311.25</ele><time>2026-04-03T11:06:08.082Z</time></trkpt><trkpt lat="43.008305" lon="11.637485"><ele>310.5</ele><time>2026-04-03T11:06:09.082Z</time></trkpt><trkpt lat="43.008335" lon="11.6376667"><ele>309.75</ele><time>2026-04-03T11:06:10.081Z</time></trkpt><trkpt lat="43.0083783" lon="11.637815"><ele>309.0</ele><time>2026-04-03T11:06:11.081Z</time></trkpt><trkpt lat="43.0084333" lon="11.63795"><ele>309.0</ele><time>2026-04-03T11:06:12.081Z</time></trkpt><trkpt lat="43.0085033" lon="11.6380733"><ele>309.0</ele><time>2026-04-03T11:06:13.081Z</time></trkpt><trkpt lat="43.0085933" lon="11.6381833"><ele>309.0</ele><time>2026-04-03T11:06:14.081Z</time></trkpt><trkpt lat="43.0086883" lon="11.6383083"><ele>309.0</ele><time>2026-04-03T11:06:15.081Z</time></trkpt><trkpt lat="43.0087583" lon="11.6384317"><ele>309.0</ele><time>2026-04-03T11:06:16.081Z</time></trkpt><trkpt lat="43.0088" lon="11.6385483"><ele>309.0</ele><time>2026-04-03T11:06:17.082Z</time></trkpt><trkpt lat="43.0088433" lon="11.6386667"><ele>309.0</ele><time>2026-04-03T11:06:18.081Z</time></trkpt><trkpt lat="43.00889" lon="11.638805"><ele>309.0</ele><time>2026-04-03T11:06:19.081Z</time></trkpt><trkpt lat="43.0089433" lon="11.6389417"><ele>309.0</ele><time>2026-04-03T11:06:20.081Z</time></trkpt><trkpt lat="43.0089917" lon="11.6390817"><ele>309.0</ele><time>2026-04-03T11:06:21.081Z</time></trkpt><trkpt lat="43.0090517" lon="11.63919"><ele>309.0</ele><time>2026-04-03T11:06:22.081Z</time></trkpt><trkpt lat="43.0091317" lon="11.6393033"><ele>309.0</ele><time>2026-04-03T11:06:23.081Z</time></trkpt><trkpt lat="43.0092233" lon="11.6394133"><ele>309.0</ele><time>2026-04-03T11:06:24.081Z</time></trkpt><trkpt lat="43.0093133" lon="11.6395317"><ele>307.25</ele><time>2026-04-03T11:06:25.081Z</time></trkpt><trkpt lat="43.0093883" lon="11.6396683"><ele>305.5</ele><time>2026-04-03T11:06:26.081Z</time></trkpt><trkpt lat="43.00945" lon="11.63983"><ele>303.75</ele><time>2026-04-03T11:06:27.081Z</time></trkpt><trkpt lat="43.0095033" lon="11.64003"><ele>302.0</ele><time>2026-04-03T11:06:28.082Z</time></trkpt><trkpt lat="43.0095533" lon="11.6402667"><ele>300.33333333333337</ele><time>2026-04-03T11:06:29.081Z</time></trkpt><trkpt lat="43.00961" lon="11.64053"><ele>298.6666666666667</ele><time>2026-04-03T11:06:30.081Z</time></trkpt><trkpt lat="43.0096867" lon="11.6407617"><ele>297.0</ele><time>2026-04-03T11:06:31.082Z</time></trkpt><trkpt lat="43.009765" lon="11.64098"><ele>296.0</ele><time>2026-04-03T11:06:32.081Z</time></trkpt><trkpt lat="43.0098517" lon="11.64117"><ele>295.0</ele><time>2026-04-03T11:06:33.081Z</time></trkpt><trkpt lat="43.0099367" lon="11.64134"><ele>294.0</ele><time>2026-04-03T11:06:34.081Z</time></trkpt><trkpt lat="43.010045" lon="11.6414967"><ele>294.0</ele><time>2026-04-03T11:06:35.081Z</time></trkpt><trkpt lat="43.0101683" lon="11.6416317"><ele>294.0</ele><time>2026-04-03T11:06:36.082Z</time></trkpt><trkpt lat="43.0103167" lon="11.6417833"><ele>294.0</ele><time>2026-04-03T11:06:37.082Z</time></trkpt><trkpt lat="43.0104667" lon="11.641955"><ele>293.3333333333333</ele><time>2026-04-03T11:06:38.081Z</time></trkpt><trkpt lat="43.0106067" lon="11.6421317"><ele>292.66666666666663</ele><time>2026-04-03T11:06:39.081Z</time></trkpt><trkpt lat="43.0107417" lon="11.6423117"><ele>292.0</ele><time>2026-04-03T11:06:40.082Z</time></trkpt><trkpt lat="43.01086" lon="11.64248"><ele>291.3333333333333</ele><time>2026-04-03T11:06:41.082Z</time></trkpt><trkpt lat="43.0109933" lon="11.642645"><ele>290.6666666666667</ele><time>2026-04-03T11:06:42.081Z</time></trkpt><trkpt lat="43.0111567" lon="11.642795"><ele>290.0</ele><time>2026-04-03T11:06:43.081Z</time></trkpt><trkpt lat="43.01131" lon="11.64292"><ele>289.75</ele><time>2026-04-03T11:06:44.082Z</time></trkpt><trkpt lat="43.011455" lon="11.6430333"><ele>289.5</ele><time>2026-04-03T11:06:45.082Z</time></trkpt><trkpt lat="43.0115767" lon="11.6431283"><ele>289.25</ele><time>2026-04-03T11:06:46.081Z</time></trkpt><trkpt lat="43.0117" lon="11.6432067"><ele>289.0</ele><time>2026-04-03T11:06:47.082Z</time></trkpt><trkpt lat="43.01181" lon="11.64325"><ele>288.75</ele><time>2026-04-03T11:06:48.082Z</time></trkpt><trkpt lat="43.0119333" lon="11.6432517"><ele>288.5</ele><time>2026-04-03T11:06:49.081Z</time></trkpt><trkpt lat="43.01205" lon="11.6432217"><ele>288.25</ele><time>2026-04-03T11:06:50.081Z</time></trkpt><trkpt lat="43.0121683" lon="11.6431583"><ele>288.0</ele><time>2026-04-03T11:06:51.081Z</time></trkpt><trkpt lat="43.0122883" lon="11.6430667"><ele>288.0</ele><time>2026-04-03T11:06:52.081Z</time></trkpt><trkpt lat="43.0123883" lon="11.6429917"><ele>288.0</ele><time>2026-04-03T11:06:53.081Z</time></trkpt><trkpt lat="43.01248" lon="11.64295"><ele>288.0</ele><time>2026-04-03T11:06:54.081Z</time></trkpt><trkpt lat="43.0125783" lon="11.64294"><ele>288.0</ele><time>2026-04-03T11:06:55.082Z</time></trkpt><trkpt lat="43.0126783" lon="11.6429817"><ele>288.0</ele><time>2026-04-03T11:06:56.081Z</time></trkpt><trkpt lat="43.0128" lon="11.6430583"><ele>286.5</ele><time>2026-04-03T11:06:57.081Z</time></trkpt><trkpt lat="43.0129367" lon="11.6431517"><ele>285.0</ele><time>2026-04-03T11:06:58.081Z</time></trkpt><trkpt lat="43.0130467" lon="11.6432467"><ele>283.5</ele><time>2026-04-03T11:06:59.081Z</time></trkpt><trkpt lat="43.013145" lon="11.6433083"><ele>282.0</ele><time>2026-04-03T11:07:00.081Z</time></trkpt><trkpt lat="43.0132333" lon="11.643325"><ele>282.25</ele><time>2026-04-03T11:07:01.082Z</time></trkpt><trkpt lat="43.0133317" lon="11.6433167"><ele>282.5</ele><time>2026-04-03T11:07:02.081Z</time></trkpt><trkpt lat="43.01346" lon="11.6432983"><ele>282.75</ele><time>2026-04-03T11:07:03.081Z</time></trkpt><trkpt lat="43.01361" lon="11.643265"><ele>283.0</ele><time>2026-04-03T11:07:04.082Z</time></trkpt><trkpt lat="43.0137817" lon="11.6432417"><ele>283.0</ele><time>2026-04-03T11:07:05.081Z</time></trkpt><trkpt lat="43.01397" lon="11.6432133"><ele>283.0</ele><time>2026-04-03T11:07:06.082Z</time></trkpt><trkpt lat="43.0141683" lon="11.6431683"><ele>283.0</ele><time>2026-04-03T11:07:07.081Z</time></trkpt><trkpt lat="43.0143567" lon="11.6431367"><ele>282.25</ele><time>2026-04-03T11:07:08.081Z</time></trkpt><trkpt lat="43.0145233" lon="11.6431067"><ele>281.5</ele><time>2026-04-03T11:07:09.082Z</time></trkpt><trkpt lat="43.0146667" lon="11.6430767"><ele>280.75</ele><time>2026-04-03T11:07:10.081Z</time></trkpt><trkpt lat="43.0147983" lon="11.643055"><ele>280.0</ele><time>2026-04-03T11:07:11.081Z</time></trkpt><trkpt lat="43.0149217" lon="11.6430383"><ele>279.5</ele><time>2026-04-03T11:07:12.081Z</time></trkpt><trkpt lat="43.015045" lon="11.64302"><ele>279.0</ele><time>2026-04-03T11:07:13.081Z</time></trkpt><trkpt lat="43.0151683" lon="11.642995"><ele>278.5</ele><time>2026-04-03T11:07:14.081Z</time></trkpt><trkpt lat="43.0153017" lon="11.6429617"><ele>278.0</ele><time>2026-04-03T11:07:15.082Z</time></trkpt><trkpt lat="43.0154433" lon="11.6429567"><ele>278.0</ele><time>2026-04-03T11:07:16.081Z</time></trkpt><trkpt lat="43.0155833" lon="11.6429683"><ele>278.0</ele><time>2026-04-03T11:07:17.081Z</time></trkpt><trkpt lat="43.0157133" lon="11.6430117"><ele>278.0</ele><time>2026-04-03T11:07:18.081Z</time></trkpt><trkpt lat="43.0158283" lon="11.6430767"><ele>278.0</ele><time>2026-04-03T11:07:19.081Z</time></trkpt><trkpt lat="43.0159233" lon="11.64319"><ele>277.0</ele><time>2026-04-03T11:07:20.082Z</time></trkpt><trkpt lat="43.0160117" lon="11.6432917"><ele>276.0</ele><time>2026-04-03T11:07:21.081Z</time></trkpt><trkpt lat="43.0161167" lon="11.64337"><ele>275.0</ele><time>2026-04-03T11:07:22.082Z</time></trkpt><trkpt lat="43.0162367" lon="11.6434217"><ele>274.0</ele><time>2026-04-03T11:07:23.081Z</time></trkpt><trkpt lat="43.0163817" lon="11.64345"><ele>274.0</ele><time>2026-04-03T11:07:24.082Z</time></trkpt><trkpt lat="43.016545" lon="11.6434683"><ele>274.0</ele><time>2026-04-03T11:07:25.081Z</time></trkpt><trkpt lat="43.0167217" lon="11.6434867"><ele>274.0</ele><time>2026-04-03T11:07:26.081Z</time></trkpt><trkpt lat="43.0169083" lon="11.643515"><ele>274.0</ele><time>2026-04-03T11:07:27.082Z</time></trkpt><trkpt lat="43.0171083" lon="11.6435533"><ele>274.0</ele><time>2026-04-03T11:07:28.081Z</time></trkpt><trkpt lat="43.0173017" lon="11.6435917"><ele>274.0</ele><time>2026-04-03T11:07:29.081Z</time></trkpt><trkpt lat="43.0174867" lon="11.64363"><ele>272.3333333333333</ele><time>2026-04-03T11:07:30.081Z</time></trkpt><trkpt lat="43.01767" lon="11.64365"><ele>270.6666666666667</ele><time>2026-04-03T11:07:31.081Z</time></trkpt><trkpt lat="43.01786" lon="11.6436717"><ele>269.0</ele><time>2026-04-03T11:07:32.082Z</time></trkpt><trkpt lat="43.0180583" lon="11.6436917"><ele>269.0</ele><time>2026-04-03T11:07:33.081Z</time></trkpt><trkpt lat="43.018245" lon="11.6437033"><ele>269.0</ele><time>2026-04-03T11:07:34.082Z</time></trkpt><trkpt lat="43.018415" lon="11.6437233"><ele>269.0</ele><time>2026-04-03T11:07:35.082Z</time></trkpt><trkpt lat="43.01859" lon="11.6437583"><ele>268.6666666666667</ele><time>2026-04-03T11:07:36.081Z</time></trkpt><trkpt lat="43.018765" lon="11.6438133"><ele>268.3333333333333</ele><time>2026-04-03T11:07:37.081Z</time></trkpt><trkpt lat="43.0189433" lon="11.643885"><ele>268.0</ele><time>2026-04-03T11:07:38.081Z</time></trkpt><trkpt lat="43.019115" lon="11.643945"><ele>268.0</ele><time>2026-04-03T11:07:39.081Z</time></trkpt><trkpt lat="43.01928" lon="11.644005"><ele>268.0</ele><time>2026-04-03T11:07:40.082Z</time></trkpt><trkpt lat="43.0194333" lon="11.64405"><ele>268.0</ele><time>2026-04-03T11:07:41.081Z</time></trkpt><trkpt lat="43.0195733" lon="11.6440867"><ele>268.0</ele><time>2026-04-03T11:07:42.081Z</time></trkpt><trkpt lat="43.019695" lon="11.64411"><ele>268.0</ele><time>2026-04-03T11:07:43.081Z</time></trkpt><trkpt lat="43.01979" lon="11.6441033"><ele>268.0</ele><time>2026-04-03T11:07:44.081Z</time></trkpt><trkpt lat="43.0198633" lon="11.6440983"><ele>268.0</ele><time>2026-04-03T11:07:45.081Z</time></trkpt><trkpt lat="43.01994" lon="11.64403"><ele>268.0</ele><time>2026-04-03T11:07:47.081Z</time></trkpt><trkpt lat="43.0199633" lon="11.6438517"><ele>268.0</ele><time>2026-04-03T11:07:49.081Z</time></trkpt><trkpt lat="43.01996" lon="11.6437083"><ele>268.0</ele><time>2026-04-03T11:07:50.081Z</time></trkpt><trkpt lat="43.0199433" lon="11.64353"><ele>268.0</ele><time>2026-04-03T11:07:51.081Z</time></trkpt><trkpt lat="43.01992" lon="11.6433317"><ele>268.0</ele><time>2026-04-03T11:07:52.081Z</time></trkpt><trkpt lat="43.0199067" lon="11.6431133"><ele>268.3333333333333</ele><time>2026-04-03T11:07:53.081Z</time></trkpt><trkpt lat="43.0198917" lon="11.6428917"><ele>268.6666666666667</ele><time>2026-04-03T11:07:54.081Z</time></trkpt><trkpt lat="43.0198867" lon="11.6426417"><ele>269.0</ele><time>2026-04-03T11:07:55.081Z</time></trkpt><trkpt lat="43.0199033" lon="11.6424217"><ele>269.33333333333337</ele><time>2026-04-03T11:07:56.081Z</time></trkpt><trkpt lat="43.0199633" lon="11.6422133"><ele>269.6666666666667</ele><time>2026-04-03T11:07:57.081Z</time></trkpt><trkpt lat="43.0200633" lon="11.6420383"><ele>270.0</ele><time>2026-04-03T11:07:58.081Z</time></trkpt><trkpt lat="43.0201817" lon="11.6418817"><ele>271.0</ele><time>2026-04-03T11:07:59.081Z</time></trkpt><trkpt lat="43.020315" lon="11.6417167"><ele>272.0</ele><time>2026-04-03T11:08:00.081Z</time></trkpt><trkpt lat="43.0204433" lon="11.6415433"><ele>273.0</ele><time>2026-04-03T11:08:01.081Z</time></trkpt><trkpt lat="43.020575" lon="11.6413617"><ele>273.0</ele><time>2026-04-03T11:08:02.082Z</time></trkpt><trkpt lat="43.0207" lon="11.6411683"><ele>273.0</ele><time>2026-04-03T11:08:03.082Z</time></trkpt><trkpt lat="43.02083" lon="11.6409783"><ele>273.0</ele><time>2026-04-03T11:08:04.082Z</time></trkpt><trkpt lat="43.0209533" lon="11.6407633"><ele>275.6666666666667</ele><time>2026-04-03T11:08:05.081Z</time></trkpt><trkpt lat="43.02108" lon="11.640545"><ele>278.33333333333337</ele><time>2026-04-03T11:08:06.081Z</time></trkpt><trkpt lat="43.021195" lon="11.640315"><ele>281.0</ele><time>2026-04-03T11:08:07.082Z</time></trkpt><trkpt lat="43.0212983" lon="11.6400683"><ele>282.0</ele><time>2026-04-03T11:08:08.082Z</time></trkpt><trkpt lat="43.021395" lon="11.639815"><ele>283.0</ele><time>2026-04-03T11:08:09.082Z</time></trkpt><trkpt lat="43.02147" lon="11.6395633"><ele>284.0</ele><time>2026-04-03T11:08:10.082Z</time></trkpt><trkpt lat="43.0215133" lon="11.6392783"><ele>284.33333333333337</ele><time>2026-04-03T11:08:11.081Z</time></trkpt><trkpt lat="43.0215467" lon="11.63901"><ele>284.6666666666667</ele><time>2026-04-03T11:08:12.081Z</time></trkpt><trkpt lat="43.0215767" lon="11.63875"><ele>285.0</ele><time>2026-04-03T11:08:13.081Z</time></trkpt><trkpt lat="43.0216133" lon="11.63849"><ele>285.3333333333333</ele><time>2026-04-03T11:08:14.082Z</time></trkpt><trkpt lat="43.0216417" lon="11.638255"><ele>285.66666666666663</ele><time>2026-04-03T11:08:15.081Z</time></trkpt><trkpt lat="43.0216783" lon="11.63804"><ele>286.0</ele><time>2026-04-03T11:08:16.082Z</time></trkpt><trkpt lat="43.0217017" lon="11.6378467"><ele>286.0</ele><time>2026-04-03T11:08:17.081Z</time></trkpt><trkpt lat="43.0217233" lon="11.6376767"><ele>286.0</ele><time>2026-04-03T11:08:18.081Z</time></trkpt><trkpt lat="43.0217283" lon="11.6375167"><ele>286.0</ele><time>2026-04-03T11:08:19.082Z</time></trkpt><trkpt lat="43.0217483" lon="11.6373717"><ele>286.0</ele><time>2026-04-03T11:08:20.082Z</time></trkpt><trkpt lat="43.0217767" lon="11.6372417"><ele>286.0</ele><time>2026-04-03T11:08:21.081Z</time></trkpt><trkpt lat="43.0218017" lon="11.6371267"><ele>286.0</ele><time>2026-04-03T11:08:22.081Z</time></trkpt><trkpt lat="43.021815" lon="11.637025"><ele>286.0</ele><time>2026-04-03T11:08:23.081Z</time></trkpt><trkpt lat="43.0218233" lon="11.636925"><ele>286.0</ele><time>2026-04-03T11:08:24.082Z</time></trkpt><trkpt lat="43.0218233" lon="11.636835"><ele>286.0</ele><time>2026-04-03T11:08:25.081Z</time></trkpt><trkpt lat="43.021845" lon="11.63671"><ele>286.0</ele><time>2026-04-03T11:08:27.081Z</time></trkpt><trkpt lat="43.0218783" lon="11.6366367"><ele>286.1428571428571</ele><time>2026-04-03T11:08:29.081Z</time></trkpt><trkpt lat="43.0219117" lon="11.6365617"><ele>286.2857142857143</ele><time>2026-04-03T11:08:31.082Z</time></trkpt><trkpt lat="43.021865" lon="11.6366433"><ele>286.42857142857144</ele><time>2026-04-03T11:08:36.081Z</time></trkpt><trkpt lat="43.0218783" lon="11.6367633"><ele>286.57142857142856</ele><time>2026-04-03T11:08:38.08Z</time></trkpt><trkpt lat="43.0219117" lon="11.6368517"><ele>286.7142857142857</ele><time>2026-04-03T11:08:41.08Z</time></trkpt><trkpt lat="43.0219783" lon="11.636845"><ele>286.85714285714283</ele><time>2026-04-03T11:08:46.08Z</time></trkpt><trkpt lat="43.0219317" lon="11.6367717"><ele>287.0</ele><time>2026-04-03T11:11:38.081Z</time></trkpt><trkpt lat="43.021905" lon="11.63668"><ele>287.0</ele><time>2026-04-03T11:11:40.081Z</time></trkpt><trkpt lat="43.021915" lon="11.636515"><ele>287.0</ele><time>2026-04-03T11:11:42.08Z</time></trkpt><trkpt lat="43.0219367" lon="11.6364067"><ele>287.0</ele><time>2026-04-03T11:11:43.08Z</time></trkpt><trkpt lat="43.0219567" lon="11.63629"><ele>287.0</ele><time>2026-04-03T11:11:44.08Z</time></trkpt><trkpt lat="43.0219783" lon="11.6361783"><ele>287.0</ele><time>2026-04-03T11:11:45.08Z</time></trkpt><trkpt lat="43.021995" lon="11.636055"><ele>286.25</ele><time>2026-04-03T11:11:46.08Z</time></trkpt><trkpt lat="43.0220133" lon="11.6359233"><ele>285.5</ele><time>2026-04-03T11:11:47.08Z</time></trkpt><trkpt lat="43.0220367" lon="11.63578"><ele>284.75</ele><time>2026-04-03T11:11:48.08Z</time></trkpt><trkpt lat="43.0220683" lon="11.6356267"><ele>284.0</ele><time>2026-04-03T11:11:49.081Z</time></trkpt><trkpt lat="43.0220967" lon="11.6354533"><ele>283.33333333333337</ele><time>2026-04-03T11:11:50.08Z</time></trkpt><trkpt lat="43.0221417" lon="11.6352617"><ele>282.6666666666667</ele><time>2026-04-03T11:11:51.081Z</time></trkpt><trkpt lat="43.0221917" lon="11.6350483"><ele>282.0</ele><time>2026-04-03T11:11:52.08Z</time></trkpt><trkpt lat="43.022225" lon="11.6348267"><ele>282.0</ele><time>2026-04-03T11:11:53.08Z</time></trkpt><trkpt lat="43.0222567" lon="11.6345917"><ele>282.0</ele><time>2026-04-03T11:11:54.08Z</time></trkpt><trkpt lat="43.02229" lon="11.6343483"><ele>282.0</ele><time>2026-04-03T11:11:55.08Z</time></trkpt><trkpt lat="43.0223217" lon="11.6341117"><ele>281.0</ele><time>2026-04-03T11:11:56.08Z</time></trkpt><trkpt lat="43.0223433" lon="11.6338517"><ele>280.0</ele><time>2026-04-03T11:11:57.08Z</time></trkpt><trkpt lat="43.022375" lon="11.6335967"><ele>279.0</ele><time>2026-04-03T11:11:58.08Z</time></trkpt><trkpt lat="43.0224117" lon="11.6333867"><ele>277.6666666666667</ele><time>2026-04-03T11:11:59.08Z</time></trkpt><trkpt lat="43.022445" lon="11.6331783"><ele>276.33333333333337</ele><time>2026-04-03T11:12:00.08Z</time></trkpt><trkpt lat="43.0225067" lon="11.6329767"><ele>275.0</ele><time>2026-04-03T11:12:01.081Z</time></trkpt><trkpt lat="43.0225933" lon="11.6327967"><ele>273.0</ele><time>2026-04-03T11:12:02.081Z</time></trkpt><trkpt lat="43.0227233" lon="11.6326583"><ele>271.0</ele><time>2026-04-03T11:12:03.081Z</time></trkpt><trkpt lat="43.0228933" lon="11.63255"><ele>269.0</ele><time>2026-04-03T11:12:04.08Z</time></trkpt><trkpt lat="43.0230817" lon="11.6324883"><ele>269.0</ele><time>2026-04-03T11:12:05.08Z</time></trkpt><trkpt lat="43.023255" lon="11.6324383"><ele>269.0</ele><time>2026-04-03T11:12:06.08Z</time></trkpt><trkpt lat="43.023425" lon="11.6323467"><ele>269.0</ele><time>2026-04-03T11:12:07.08Z</time></trkpt><trkpt lat="43.02359" lon="11.6322183"><ele>268.6666666666667</ele><time>2026-04-03T11:12:08.08Z</time></trkpt><trkpt lat="43.0237617" lon="11.6320767"><ele>268.3333333333333</ele><time>2026-04-03T11:12:09.08Z</time></trkpt><trkpt lat="43.0239383" lon="11.6319217"><ele>268.0</ele><time>2026-04-03T11:12:10.08Z</time></trkpt><trkpt lat="43.0241167" lon="11.6317783"><ele>266.66666666666663</ele><time>2026-04-03T11:12:11.08Z</time></trkpt><trkpt lat="43.02428" lon="11.6316267"><ele>265.3333333333333</ele><time>2026-04-03T11:12:12.081Z</time></trkpt><trkpt lat="43.0244367" lon="11.6314767"><ele>264.0</ele><time>2026-04-03T11:12:13.08Z</time></trkpt><trkpt lat="43.0245867" lon="11.6313267"><ele>264.0</ele><time>2026-04-03T11:12:14.08Z</time></trkpt><trkpt lat="43.0246983" lon="11.6311817"><ele>264.0</ele><time>2026-04-03T11:12:15.08Z</time></trkpt><trkpt lat="43.0247583" lon="11.63102"><ele>264.0</ele><time>2026-04-03T11:12:16.08Z</time></trkpt><trkpt lat="43.02478" lon="11.6308133"><ele>264.0</ele><time>2026-04-03T11:12:17.08Z</time></trkpt><trkpt lat="43.02477" lon="11.6306033"><ele>264.3333333333333</ele><time>2026-04-03T11:12:18.08Z</time></trkpt><trkpt lat="43.0247633" lon="11.6304017"><ele>264.66666666666663</ele><time>2026-04-03T11:12:19.08Z</time></trkpt><trkpt lat="43.0247833" lon="11.6301917"><ele>265.0</ele><time>2026-04-03T11:12:20.081Z</time></trkpt><trkpt lat="43.0248333" lon="11.6299783"><ele>265.0</ele><time>2026-04-03T11:12:21.08Z</time></trkpt><trkpt lat="43.0249133" lon="11.629775"><ele>265.0</ele><time>2026-04-03T11:12:22.081Z</time></trkpt><trkpt lat="43.0250033" lon="11.6295983"><ele>265.0</ele><time>2026-04-03T11:12:23.081Z</time></trkpt><trkpt lat="43.0251067" lon="11.6293983"><ele>267.0</ele><time>2026-04-03T11:12:24.08Z</time></trkpt><trkpt lat="43.0252133" lon="11.629195"><ele>269.0</ele><time>2026-04-03T11:12:25.08Z</time></trkpt><trkpt lat="43.0253233" lon="11.62899"><ele>271.0</ele><time>2026-04-03T11:12:26.08Z</time></trkpt><trkpt lat="43.0254333" lon="11.6287867"><ele>273.66666666666663</ele><time>2026-04-03T11:12:27.08Z</time></trkpt><trkpt lat="43.0255283" lon="11.62859"><ele>276.3333333333333</ele><time>2026-04-03T11:12:28.081Z</time></trkpt><trkpt lat="43.025615" lon="11.6284117"><ele>279.0</ele><time>2026-04-03T11:12:29.08Z</time></trkpt><trkpt lat="43.0256883" lon="11.6282717"><ele>279.0</ele><time>2026-04-03T11:12:30.08Z</time></trkpt><trkpt lat="43.025745" lon="11.628155"><ele>279.0</ele><time>2026-04-03T11:12:31.079Z</time></trkpt><trkpt lat="43.0258067" lon="11.62806"><ele>279.0</ele><time>2026-04-03T11:12:32.079Z</time></trkpt><trkpt lat="43.0258717" lon="11.6279833"><ele>279.0</ele><time>2026-04-03T11:12:33.079Z</time></trkpt><trkpt lat="43.0259617" lon="11.6279617"><ele>279.0</ele><time>2026-04-03T11:12:34.079Z</time></trkpt><trkpt lat="43.0260533" lon="11.6279183"><ele>277.5</ele><time>2026-04-03T11:12:35.079Z</time></trkpt><trkpt lat="43.0261567" lon="11.6278833"><ele>276.0</ele><time>2026-04-03T11:12:36.08Z</time></trkpt><trkpt lat="43.0262633" lon="11.6278667"><ele>274.5</ele><time>2026-04-03T11:12:37.08Z</time></trkpt><trkpt lat="43.026385" lon="11.6278517"><ele>273.0</ele><time>2026-04-03T11:12:38.08Z</time></trkpt><trkpt lat="43.0265117" lon="11.6278383"><ele>272.25</ele><time>2026-04-03T11:12:39.079Z</time></trkpt><trkpt lat="43.0266533" lon="11.627825"><ele>271.5</ele><time>2026-04-03T11:12:40.079Z</time></trkpt><trkpt lat="43.0267983" lon="11.6278067"><ele>270.75</ele><time>2026-04-03T11:12:41.079Z</time></trkpt><trkpt lat="43.0269383" lon="11.6277767"><ele>270.0</ele><time>2026-04-03T11:12:42.079Z</time></trkpt><trkpt lat="43.027075" lon="11.6277433"><ele>270.25</ele><time>2026-04-03T11:12:43.079Z</time></trkpt><trkpt lat="43.0272067" lon="11.6277117"><ele>270.5</ele><time>2026-04-03T11:12:44.079Z</time></trkpt><trkpt lat="43.0273317" lon="11.6276483"><ele>270.75</ele><time>2026-04-03T11:12:45.08Z</time></trkpt><trkpt lat="43.0274417" lon="11.62754"><ele>271.0</ele><time>2026-04-03T11:12:46.079Z</time></trkpt><trkpt lat="43.02752" lon="11.627385"><ele>271.0</ele><time>2026-04-03T11:12:47.08Z</time></trkpt><trkpt lat="43.0275883" lon="11.627215"><ele>271.0</ele><time>2026-04-03T11:12:48.079Z</time></trkpt><trkpt lat="43.027645" lon="11.627035"><ele>271.0</ele><time>2026-04-03T11:12:49.079Z</time></trkpt><trkpt lat="43.0276833" lon="11.6268417"><ele>271.0</ele><time>2026-04-03T11:12:50.079Z</time></trkpt><trkpt lat="43.0277183" lon="11.62664"><ele>271.25</ele><time>2026-04-03T11:12:51.079Z</time></trkpt><trkpt lat="43.0277183" lon="11.6264317"><ele>271.5</ele><time>2026-04-03T11:12:52.079Z</time></trkpt><trkpt lat="43.0276983" lon="11.6262433"><ele>271.75</ele><time>2026-04-03T11:12:53.08Z</time></trkpt><trkpt lat="43.0276983" lon="11.6260867"><ele>272.0</ele><time>2026-04-03T11:12:54.079Z</time></trkpt><trkpt lat="43.0277317" lon="11.6259633"><ele>269.75</ele><time>2026-04-03T11:12:55.079Z</time></trkpt><trkpt lat="43.0277917" lon="11.62587"><ele>267.5</ele><time>2026-04-03T11:12:56.079Z</time></trkpt><trkpt lat="43.0278783" lon="11.6257767"><ele>265.25</ele><time>2026-04-03T11:12:57.079Z</time></trkpt><trkpt lat="43.0279783" lon="11.6256833"><ele>263.0</ele><time>2026-04-03T11:12:58.079Z</time></trkpt><trkpt lat="43.0280833" lon="11.625575"><ele>263.0</ele><time>2026-04-03T11:12:59.08Z</time></trkpt><trkpt lat="43.028185" lon="11.6254583"><ele>263.0</ele><time>2026-04-03T11:13:00.079Z</time></trkpt><trkpt lat="43.0282867" lon="11.6253683"><ele>263.0</ele><time>2026-04-03T11:13:01.08Z</time></trkpt><trkpt lat="43.02839" lon="11.6253167"><ele>263.0</ele><time>2026-04-03T11:13:02.079Z</time></trkpt><trkpt lat="43.028495" lon="11.6253183"><ele>262.25</ele><time>2026-04-03T11:13:03.08Z</time></trkpt><trkpt lat="43.0285983" lon="11.6253667"><ele>261.5</ele><time>2026-04-03T11:13:04.079Z</time></trkpt><trkpt lat="43.02868" lon="11.6254783"><ele>260.75</ele><time>2026-04-03T11:13:05.08Z</time></trkpt><trkpt lat="43.02877" lon="11.6256183"><ele>260.0</ele><time>2026-04-03T11:13:06.079Z</time></trkpt><trkpt lat="43.0288683" lon="11.625745"><ele>260.0</ele><time>2026-04-03T11:13:07.079Z</time></trkpt><trkpt lat="43.0289883" lon="11.62585"><ele>260.0</ele><time>2026-04-03T11:13:08.079Z</time></trkpt><trkpt lat="43.0291183" lon="11.62593"><ele>260.0</ele><time>2026-04-03T11:13:09.079Z</time></trkpt><trkpt lat="43.0292733" lon="11.6259733"><ele>260.0</ele><time>2026-04-03T11:13:10.079Z</time></trkpt><trkpt lat="43.0294317" lon="11.6260317"><ele>258.6666666666667</ele><time>2026-04-03T11:13:11.08Z</time></trkpt><trkpt lat="43.0295983" lon="11.6260983"><ele>257.3333333333333</ele><time>2026-04-03T11:13:12.079Z</time></trkpt><trkpt lat="43.0297583" lon="11.626205"><ele>256.0</ele><time>2026-04-03T11:13:13.08Z</time></trkpt><trkpt lat="43.0299167" lon="11.626325"><ele>257.0</ele><time>2026-04-03T11:13:14.079Z</time></trkpt><trkpt lat="43.0300933" lon="11.626425"><ele>258.0</ele><time>2026-04-03T11:13:15.079Z</time></trkpt><trkpt lat="43.0302833" lon="11.6265"><ele>259.0</ele><time>2026-04-03T11:13:16.079Z</time></trkpt><trkpt lat="43.0304883" lon="11.6265417"><ele>259.0</ele><time>2026-04-03T11:13:17.079Z</time></trkpt><trkpt lat="43.0306917" lon="11.626575"><ele>259.0</ele><time>2026-04-03T11:13:18.079Z</time></trkpt><trkpt lat="43.0309067" lon="11.6266067"><ele>259.0</ele><time>2026-04-03T11:13:19.079Z</time></trkpt><trkpt lat="43.0311083" lon="11.6266517"><ele>260.0</ele><time>2026-04-03T11:13:20.08Z</time></trkpt><trkpt lat="43.031315" lon="11.62671"><ele>261.0</ele><time>2026-04-03T11:13:21.079Z</time></trkpt><trkpt lat="43.0315217" lon="11.6267817"><ele>262.0</ele><time>2026-04-03T11:13:22.079Z</time></trkpt><trkpt lat="43.0317317" lon="11.6268567"><ele>262.0</ele><time>2026-04-03T11:13:23.079Z</time></trkpt><trkpt lat="43.0319433" lon="11.6269367"><ele>262.0</ele><time>2026-04-03T11:13:24.079Z</time></trkpt><trkpt lat="43.0321583" lon="11.62701"><ele>262.0</ele><time>2026-04-03T11:13:25.08Z</time></trkpt><trkpt lat="43.0323767" lon="11.6270767"><ele>260.3333333333333</ele><time>2026-04-03T11:13:26.08Z</time></trkpt><trkpt lat="43.032585" lon="11.6271367"><ele>258.6666666666667</ele><time>2026-04-03T11:13:27.079Z</time></trkpt><trkpt lat="43.0327817" lon="11.6271933"><ele>257.0</ele><time>2026-04-03T11:13:28.079Z</time></trkpt><trkpt lat="43.0329567" lon="11.6272533"><ele>257.0</ele><time>2026-04-03T11:13:29.08Z</time></trkpt><trkpt lat="43.0331133" lon="11.6273083"><ele>257.0</ele><time>2026-04-03T11:13:30.079Z</time></trkpt><trkpt lat="43.0332533" lon="11.6273483"><ele>257.0</ele><time>2026-04-03T11:13:31.08Z</time></trkpt><trkpt lat="43.03338" lon="11.6273783"><ele>257.0</ele><time>2026-04-03T11:13:32.079Z</time></trkpt><trkpt lat="43.0334717" lon="11.6274367"><ele>257.25</ele><time>2026-04-03T11:13:33.079Z</time></trkpt><trkpt lat="43.0335317" lon="11.62754"><ele>257.5</ele><time>2026-04-03T11:13:34.079Z</time></trkpt><trkpt lat="43.03357" lon="11.6276683"><ele>257.75</ele><time>2026-04-03T11:13:35.079Z</time></trkpt><trkpt lat="43.033575" lon="11.6278317"><ele>258.0</ele><time>2026-04-03T11:13:36.079Z</time></trkpt><trkpt lat="43.0335467" lon="11.62801"><ele>258.0</ele><time>2026-04-03T11:13:37.079Z</time></trkpt><trkpt lat="43.0335117" lon="11.62821"><ele>258.0</ele><time>2026-04-03T11:13:38.08Z</time></trkpt><trkpt lat="43.0334833" lon="11.6284133"><ele>258.0</ele><time>2026-04-03T11:13:39.079Z</time></trkpt><trkpt lat="43.03346" lon="11.62863"><ele>258.6666666666667</ele><time>2026-04-03T11:13:40.079Z</time></trkpt><trkpt lat="43.0334433" lon="11.6288633"><ele>259.33333333333337</ele><time>2026-04-03T11:13:41.079Z</time></trkpt><trkpt lat="43.03343" lon="11.6291133"><ele>260.0</ele><time>2026-04-03T11:13:42.079Z</time></trkpt><trkpt lat="43.0334067" lon="11.62938"><ele>259.33333333333337</ele><time>2026-04-03T11:13:43.08Z</time></trkpt><trkpt lat="43.0333983" lon="11.6296583"><ele>258.6666666666667</ele><time>2026-04-03T11:13:44.079Z</time></trkpt><trkpt lat="43.03339" lon="11.62994"><ele>258.0</ele><time>2026-04-03T11:13:45.079Z</time></trkpt><trkpt lat="43.0333933" lon="11.63024"><ele>258.3333333333333</ele><time>2026-04-03T11:13:46.079Z</time></trkpt><trkpt lat="43.033405" lon="11.63054"><ele>258.66666666666663</ele><time>2026-04-03T11:13:47.079Z</time></trkpt><trkpt lat="43.0334267" lon="11.6308517"><ele>259.0</ele><time>2026-04-03T11:13:48.079Z</time></trkpt><trkpt lat="43.0334533" lon="11.631165"><ele>259.3333333333333</ele><time>2026-04-03T11:13:49.079Z</time></trkpt><trkpt lat="43.033485" lon="11.6314617"><ele>259.6666666666667</ele><time>2026-04-03T11:13:50.079Z</time></trkpt><trkpt lat="43.0335167" lon="11.6317683"><ele>260.0</ele><time>2026-04-03T11:13:51.08Z</time></trkpt><trkpt lat="43.0335533" lon="11.6320933"><ele>258.5</ele><time>2026-04-03T11:13:52.079Z</time></trkpt><trkpt lat="43.0335883" lon="11.6324167"><ele>257.0</ele><time>2026-04-03T11:13:53.079Z</time></trkpt><trkpt lat="43.03362" lon="11.6327467"><ele>256.5</ele><time>2026-04-03T11:13:54.079Z</time></trkpt><trkpt lat="43.033645" lon="11.6330733"><ele>256.0</ele><time>2026-04-03T11:13:55.079Z</time></trkpt><trkpt lat="43.0336533" lon="11.6333917"><ele>256.0</ele><time>2026-04-03T11:13:56.079Z</time></trkpt><trkpt lat="43.0336433" lon="11.6337283"><ele>256.0</ele><time>2026-04-03T11:13:57.08Z</time></trkpt><trkpt lat="43.0336383" lon="11.634055"><ele>256.0</ele><time>2026-04-03T11:13:58.079Z</time></trkpt><trkpt lat="43.03361" lon="11.6343683"><ele>256.0</ele><time>2026-04-03T11:13:59.079Z</time></trkpt><trkpt lat="43.033555" lon="11.63469"><ele>257.0</ele><time>2026-04-03T11:14:00.079Z</time></trkpt><trkpt lat="43.03351" lon="11.63502"><ele>258.0</ele><time>2026-04-03T11:14:01.08Z</time></trkpt><trkpt lat="43.0334783" lon="11.63535"><ele>259.0</ele><time>2026-04-03T11:14:02.079Z</time></trkpt><trkpt lat="43.0334533" lon="11.635675"><ele>260.0</ele><time>2026-04-03T11:14:03.079Z</time></trkpt><trkpt lat="43.033455" lon="11.6360033"><ele>260.0</ele><time>2026-04-03T11:14:04.079Z</time></trkpt><trkpt lat="43.0334617" lon="11.6363383"><ele>260.0</ele><time>2026-04-03T11:14:05.08Z</time></trkpt><trkpt lat="43.03348" lon="11.6366783"><ele>261.0</ele><time>2026-04-03T11:14:06.079Z</time></trkpt><trkpt lat="43.0335083" lon="11.6370183"><ele>262.0</ele><time>2026-04-03T11:14:07.079Z</time></trkpt><trkpt lat="43.0335283" lon="11.637345"><ele>262.0</ele><time>2026-04-03T11:14:08.079Z</time></trkpt><trkpt lat="43.033555" lon="11.6376783"><ele>262.0</ele><time>2026-04-03T11:14:09.079Z</time></trkpt><trkpt lat="43.0335867" lon="11.6380083"><ele>261.5</ele><time>2026-04-03T11:14:10.079Z</time></trkpt><trkpt lat="43.0336167" lon="11.6383383"><ele>261.0</ele><time>2026-04-03T11:14:11.079Z</time></trkpt><trkpt lat="43.0336633" lon="11.63867"><ele>260.5</ele><time>2026-04-03T11:14:12.079Z</time></trkpt><trkpt lat="43.0337317" lon="11.638995"><ele>260.0</ele><time>2026-04-03T11:14:13.079Z</time></trkpt><trkpt lat="43.0337967" lon="11.63931"><ele>260.0</ele><time>2026-04-03T11:14:14.08Z</time></trkpt><trkpt lat="43.0338583" lon="11.6396167"><ele>260.0</ele><time>2026-04-03T11:14:15.08Z</time></trkpt><trkpt lat="43.0339233" lon="11.63993"><ele>260.0</ele><time>2026-04-03T11:14:16.079Z</time></trkpt><trkpt lat="43.0339933" lon="11.6402567"><ele>260.0</ele><time>2026-04-03T11:14:17.079Z</time></trkpt><trkpt lat="43.0340633" lon="11.6405933"><ele>260.0</ele><time>2026-04-03T11:14:18.08Z</time></trkpt><trkpt lat="43.0341267" lon="11.6409233"><ele>260.0</ele><time>2026-04-03T11:14:19.079Z</time></trkpt><trkpt lat="43.0341917" lon="11.6412583"><ele>261.0</ele><time>2026-04-03T11:14:20.079Z</time></trkpt><trkpt lat="43.0342567" lon="11.64158"><ele>262.0</ele><time>2026-04-03T11:14:21.079Z</time></trkpt><trkpt lat="43.03432" lon="11.6419083"><ele>262.5</ele><time>2026-04-03T11:14:22.079Z</time></trkpt><trkpt lat="43.034375" lon="11.6422367"><ele>263.0</ele><time>2026-04-03T11:14:23.079Z</time></trkpt><trkpt lat="43.0344383" lon="11.6425567"><ele>262.5</ele><time>2026-04-03T11:14:24.079Z</time></trkpt><trkpt lat="43.0345" lon="11.6428783"><ele>262.0</ele><time>2026-04-03T11:14:25.079Z</time></trkpt><trkpt lat="43.0345567" lon="11.6432"><ele>262.0</ele><time>2026-04-03T11:14:26.079Z</time></trkpt><trkpt lat="43.0346167" lon="11.64351"><ele>262.0</ele><time>2026-04-03T11:14:27.079Z</time></trkpt><trkpt lat="43.034675" lon="11.6438267"><ele>262.0</ele><time>2026-04-03T11:14:28.08Z</time></trkpt><trkpt lat="43.0347333" lon="11.6441283"><ele>262.0</ele><time>2026-04-03T11:14:29.08Z</time></trkpt><trkpt lat="43.0347783" lon="11.644395"><ele>262.0</ele><time>2026-04-03T11:14:30.079Z</time></trkpt><trkpt lat="43.0348167" lon="11.644625"><ele>262.0</ele><time>2026-04-03T11:14:31.079Z</time></trkpt><trkpt lat="43.0348583" lon="11.6448233"><ele>262.0</ele><time>2026-04-03T11:14:32.079Z</time></trkpt><trkpt lat="43.034885" lon="11.6449667"><ele>262.0</ele><time>2026-04-03T11:14:33.079Z</time></trkpt><trkpt lat="43.0349017" lon="11.6450767"><ele>262.0</ele><time>2026-04-03T11:14:34.079Z</time></trkpt><trkpt lat="43.03495" lon="11.645215"><ele>262.2</ele><time>2026-04-03T11:14:36.08Z</time></trkpt><trkpt lat="43.0350033" lon="11.64527"><ele>262.4</ele><time>2026-04-03T11:14:37.079Z</time></trkpt><trkpt lat="43.0350733" lon="11.6453367"><ele>262.6</ele><time>2026-04-03T11:14:38.079Z</time></trkpt><trkpt lat="43.0351533" lon="11.6454267"><ele>262.8</ele><time>2026-04-03T11:14:39.08Z</time></trkpt><trkpt lat="43.03524" lon="11.6455383"><ele>263.0</ele><time>2026-04-03T11:14:40.079Z</time></trkpt><trkpt lat="43.0353367" lon="11.64566"><ele>263.5</ele><time>2026-04-03T11:14:41.079Z</time></trkpt><trkpt lat="43.0354433" lon="11.645785"><ele>264.0</ele><time>2026-04-03T11:14:42.079Z</time></trkpt><trkpt lat="43.0355467" lon="11.64591"><ele>264.5</ele><time>2026-04-03T11:14:43.08Z</time></trkpt><trkpt lat="43.0356567" lon="11.64603"><ele>265.0</ele><time>2026-04-03T11:14:44.08Z</time></trkpt><trkpt lat="43.035775" lon="11.6461567"><ele>265.0</ele><time>2026-04-03T11:14:45.079Z</time></trkpt><trkpt lat="43.0358933" lon="11.6462883"><ele>265.0</ele><time>2026-04-03T11:14:46.08Z</time></trkpt><trkpt lat="43.036015" lon="11.6463933"><ele>265.0</ele><time>2026-04-03T11:14:47.079Z</time></trkpt><trkpt lat="43.03615" lon="11.6464817"><ele>265.0</ele><time>2026-04-03T11:14:48.08Z</time></trkpt><trkpt lat="43.0362917" lon="11.6465617"><ele>265.0</ele><time>2026-04-03T11:14:49.079Z</time></trkpt><trkpt lat="43.0364483" lon="11.6466467"><ele>265.0</ele><time>2026-04-03T11:14:50.079Z</time></trkpt><trkpt lat="43.0366067" lon="11.6467117"><ele>265.0</ele><time>2026-04-03T11:14:51.079Z</time></trkpt><trkpt lat="43.0367533" lon="11.646775"><ele>265.0</ele><time>2026-04-03T11:14:52.079Z</time></trkpt><trkpt lat="43.0368867" lon="11.64683"><ele>265.0</ele><time>2026-04-03T11:14:53.079Z</time></trkpt><trkpt lat="43.0370167" lon="11.6468767"><ele>265.0</ele><time>2026-04-03T11:14:54.079Z</time></trkpt><trkpt lat="43.0371317" lon="11.6469217"><ele>265.0</ele><time>2026-04-03T11:14:55.079Z</time></trkpt><trkpt lat="43.03723" lon="11.6469817"><ele>265.25</ele><time>2026-04-03T11:14:56.079Z</time></trkpt><trkpt lat="43.0373283" lon="11.6470583"><ele>265.5</ele><time>2026-04-03T11:14:57.079Z</time></trkpt><trkpt lat="43.0374383" lon="11.6471383"><ele>265.75</ele><time>2026-04-03T11:14:58.079Z</time></trkpt><trkpt lat="43.0375517" lon="11.6472417"><ele>266.0</ele><time>2026-04-03T11:14:59.08Z</time></trkpt><trkpt lat="43.0376733" lon="11.6473583"><ele>266.0</ele><time>2026-04-03T11:15:00.079Z</time></trkpt><trkpt lat="43.03781" lon="11.647485"><ele>266.0</ele><time>2026-04-03T11:15:01.079Z</time></trkpt><trkpt lat="43.0379517" lon="11.6476067"><ele>266.0</ele><time>2026-04-03T11:15:02.079Z</time></trkpt><trkpt lat="43.0381" lon="11.6477333"><ele>266.6666666666667</ele><time>2026-04-03T11:15:03.079Z</time></trkpt><trkpt lat="43.0382567" lon="11.6478683"><ele>267.3333333333333</ele><time>2026-04-03T11:15:04.079Z</time></trkpt><trkpt lat="43.0384233" lon="11.647995"><ele>268.0</ele><time>2026-04-03T11:15:05.079Z</time></trkpt><trkpt lat="43.038595" lon="11.6481117"><ele>268.3333333333333</ele><time>2026-04-03T11:15:06.079Z</time></trkpt><trkpt lat="43.038775" lon="11.6481967"><ele>268.6666666666667</ele><time>2026-04-03T11:15:07.08Z</time></trkpt><trkpt lat="43.03897" lon="11.6482683"><ele>269.0</ele><time>2026-04-03T11:15:08.079Z</time></trkpt><trkpt lat="43.0391683" lon="11.6483217"><ele>269.0</ele><time>2026-04-03T11:15:09.079Z</time></trkpt><trkpt lat="43.0393617" lon="11.6483683"><ele>269.0</ele><time>2026-04-03T11:15:10.079Z</time></trkpt><trkpt lat="43.039555" lon="11.64838"><ele>269.0</ele><time>2026-04-03T11:15:11.079Z</time></trkpt><trkpt lat="43.03974" lon="11.64839"><ele>269.0</ele><time>2026-04-03T11:15:12.079Z</time></trkpt><trkpt lat="43.0399183" lon="11.6483533"><ele>269.0</ele><time>2026-04-03T11:15:13.08Z</time></trkpt><trkpt lat="43.0401083" lon="11.6483017"><ele>269.0</ele><time>2026-04-03T11:15:14.08Z</time></trkpt><trkpt lat="43.0403183" lon="11.64823"><ele>270.0</ele><time>2026-04-03T11:15:15.079Z</time></trkpt><trkpt lat="43.040525" lon="11.6481583"><ele>271.0</ele><time>2026-04-03T11:15:16.079Z</time></trkpt><trkpt lat="43.04073" lon="11.6481"><ele>272.0</ele><time>2026-04-03T11:15:17.08Z</time></trkpt><trkpt lat="43.0409417" lon="11.6480533"><ele>273.33333333333337</ele><time>2026-04-03T11:15:18.079Z</time></trkpt><trkpt lat="43.0411467" lon="11.647995"><ele>274.6666666666667</ele><time>2026-04-03T11:15:19.079Z</time></trkpt><trkpt lat="43.04133" lon="11.6479467"><ele>276.0</ele><time>2026-04-03T11:15:20.079Z</time></trkpt><trkpt lat="43.04147" lon="11.647925"><ele>276.0</ele><time>2026-04-03T11:15:21.08Z</time></trkpt><trkpt lat="43.041595" lon="11.647935"><ele>276.0</ele><time>2026-04-03T11:15:22.079Z</time></trkpt><trkpt lat="43.04172" lon="11.647975"><ele>276.0</ele><time>2026-04-03T11:15:23.079Z</time></trkpt><trkpt lat="43.0418367" lon="11.64805"><ele>276.0</ele><time>2026-04-03T11:15:24.079Z</time></trkpt><trkpt lat="43.0419667" lon="11.64814"><ele>277.3333333333333</ele><time>2026-04-03T11:15:25.08Z</time></trkpt><trkpt lat="43.042115" lon="11.6482317"><ele>278.66666666666663</ele><time>2026-04-03T11:15:26.079Z</time></trkpt><trkpt lat="43.0422683" lon="11.6483333"><ele>280.0</ele><time>2026-04-03T11:15:27.079Z</time></trkpt><trkpt lat="43.04243" lon="11.6484383"><ele>280.66666666666663</ele><time>2026-04-03T11:15:28.079Z</time></trkpt><trkpt lat="43.0426067" lon="11.648535"><ele>281.3333333333333</ele><time>2026-04-03T11:15:29.079Z</time></trkpt><trkpt lat="43.0427717" lon="11.6486267"><ele>282.0</ele><time>2026-04-03T11:15:30.079Z</time></trkpt><trkpt lat="43.0429267" lon="11.648715"><ele>282.75</ele><time>2026-04-03T11:15:31.08Z</time></trkpt><trkpt lat="43.0430533" lon="11.648805"><ele>283.5</ele><time>2026-04-03T11:15:32.079Z</time></trkpt><trkpt lat="43.043155" lon="11.648925"><ele>284.25</ele><time>2026-04-03T11:15:33.079Z</time></trkpt><trkpt lat="43.0432517" lon="11.6490833"><ele>285.0</ele><time>2026-04-03T11:15:34.079Z</time></trkpt><trkpt lat="43.0433317" lon="11.6492733"><ele>286.0</ele><time>2026-04-03T11:15:35.079Z</time></trkpt><trkpt lat="43.0434317" lon="11.6494883"><ele>287.0</ele><time>2026-04-03T11:15:36.079Z</time></trkpt><trkpt lat="43.0435283" lon="11.6497067"><ele>288.0</ele><time>2026-04-03T11:15:37.079Z</time></trkpt><trkpt lat="43.04363" lon="11.64993"><ele>288.0</ele><time>2026-04-03T11:15:38.08Z</time></trkpt><trkpt lat="43.0437383" lon="11.6501683"><ele>288.0</ele><time>2026-04-03T11:15:39.08Z</time></trkpt><trkpt lat="43.04385" lon="11.6504117"><ele>288.0</ele><time>2026-04-03T11:15:40.08Z</time></trkpt><trkpt lat="43.04396" lon="11.6506617"><ele>289.3333333333333</ele><time>2026-04-03T11:15:41.08Z</time></trkpt><trkpt lat="43.0440717" lon="11.6509"><ele>290.66666666666663</ele><time>2026-04-03T11:15:42.079Z</time></trkpt><trkpt lat="43.044165" lon="11.6511283"><ele>292.0</ele><time>2026-04-03T11:15:43.08Z</time></trkpt><trkpt lat="43.0442417" lon="11.6513217"><ele>292.16666666666663</ele><time>2026-04-03T11:15:44.08Z</time></trkpt><trkpt lat="43.0443083" lon="11.6514583"><ele>292.3333333333333</ele><time>2026-04-03T11:15:45.079Z</time></trkpt><trkpt lat="43.0443717" lon="11.6515717"><ele>292.5</ele><time>2026-04-03T11:15:46.08Z</time></trkpt><trkpt lat="43.04443" lon="11.65165"><ele>292.6666666666667</ele><time>2026-04-03T11:15:47.08Z</time></trkpt><trkpt lat="43.04448" lon="11.6517033"><ele>292.83333333333337</ele><time>2026-04-03T11:15:48.079Z</time></trkpt><trkpt lat="43.0445367" lon="11.6517433"><ele>293.0</ele><time>2026-04-03T11:15:49.079Z</time></trkpt><trkpt lat="43.044605" lon="11.651775"><ele>293.0</ele><time>2026-04-03T11:15:50.079Z</time></trkpt><trkpt lat="43.0446783" lon="11.65182"><ele>293.0</ele><time>2026-04-03T11:15:51.079Z</time></trkpt><trkpt lat="43.04476" lon="11.6518717"><ele>293.0</ele><time>2026-04-03T11:15:52.079Z</time></trkpt><trkpt lat="43.0448483" lon="11.6519367"><ele>293.0</ele><time>2026-04-03T11:15:53.079Z</time></trkpt><trkpt lat="43.0449383" lon="11.6520233"><ele>293.0</ele><time>2026-04-03T11:15:54.079Z</time></trkpt><trkpt lat="43.045025" lon="11.6521317"><ele>292.33333333333337</ele><time>2026-04-03T11:15:55.079Z</time></trkpt><trkpt lat="43.0451133" lon="11.6522767"><ele>291.6666666666667</ele><time>2026-04-03T11:15:56.079Z</time></trkpt><trkpt lat="43.0452117" lon="11.652465"><ele>291.0</ele><time>2026-04-03T11:15:57.079Z</time></trkpt><trkpt lat="43.04532" lon="11.65268"><ele>290.6666666666667</ele><time>2026-04-03T11:15:58.079Z</time></trkpt><trkpt lat="43.0454333" lon="11.6529117"><ele>290.33333333333337</ele><time>2026-04-03T11:15:59.079Z</time></trkpt><trkpt lat="43.0455517" lon="11.6531467"><ele>290.0</ele><time>2026-04-03T11:16:00.079Z</time></trkpt><trkpt lat="43.0456817" lon="11.6533917"><ele>287.33333333333337</ele><time>2026-04-03T11:16:01.079Z</time></trkpt><trkpt lat="43.0458083" lon="11.653635"><ele>284.6666666666667</ele><time>2026-04-03T11:16:02.079Z</time></trkpt><trkpt lat="43.0459233" lon="11.6538717"><ele>282.0</ele><time>2026-04-03T11:16:03.079Z</time></trkpt><trkpt lat="43.0460217" lon="11.6540883"><ele>282.0</ele><time>2026-04-03T11:16:04.079Z</time></trkpt><trkpt lat="43.0461183" lon="11.654285"><ele>282.0</ele><time>2026-04-03T11:16:05.079Z</time></trkpt><trkpt lat="43.0462017" lon="11.654455"><ele>282.0</ele><time>2026-04-03T11:16:06.079Z</time></trkpt><trkpt lat="43.04628" lon="11.654595"><ele>281.8</ele><time>2026-04-03T11:16:07.079Z</time></trkpt><trkpt lat="43.0463717" lon="11.654695"><ele>281.6</ele><time>2026-04-03T11:16:08.079Z</time></trkpt><trkpt lat="43.0464683" lon="11.65474"><ele>281.40000000000003</ele><time>2026-04-03T11:16:09.079Z</time></trkpt><trkpt lat="43.046565" lon="11.654765"><ele>281.2</ele><time>2026-04-03T11:16:10.08Z</time></trkpt><trkpt lat="43.0466783" lon="11.6547733"><ele>281.0</ele><time>2026-04-03T11:16:11.079Z</time></trkpt><trkpt lat="43.0468117" lon="11.65475"><ele>281.0</ele><time>2026-04-03T11:16:12.079Z</time></trkpt><trkpt lat="43.04696" lon="11.6547217"><ele>281.0</ele><time>2026-04-03T11:16:13.08Z</time></trkpt><trkpt lat="43.0471283" lon="11.6546933"><ele>281.0</ele><time>2026-04-03T11:16:14.08Z</time></trkpt><trkpt lat="43.0473183" lon="11.6546583"><ele>281.0</ele><time>2026-04-03T11:16:15.08Z</time></trkpt><trkpt lat="43.0475033" lon="11.6546317"><ele>281.0</ele><time>2026-04-03T11:16:16.079Z</time></trkpt><trkpt lat="43.0476717" lon="11.6546167"><ele>281.0</ele><time>2026-04-03T11:16:17.079Z</time></trkpt><trkpt lat="43.0478033" lon="11.6546367"><ele>281.0</ele><time>2026-04-03T11:16:18.079Z</time></trkpt><trkpt lat="43.0479183" lon="11.6546717"><ele>281.0</ele><time>2026-04-03T11:16:19.079Z</time></trkpt><trkpt lat="43.0480217" lon="11.6547567"><ele>281.0</ele><time>2026-04-03T11:16:20.079Z</time></trkpt><trkpt lat="43.0481333" lon="11.654865"><ele>281.0</ele><time>2026-04-03T11:16:21.079Z</time></trkpt><trkpt lat="43.0482517" lon="11.6549967"><ele>281.6666666666667</ele><time>2026-04-03T11:16:22.079Z</time></trkpt><trkpt lat="43.0483833" lon="11.6551483"><ele>282.3333333333333</ele><time>2026-04-03T11:16:23.079Z</time></trkpt><trkpt lat="43.04853" lon="11.65531"><ele>283.0</ele><time>2026-04-03T11:16:24.079Z</time></trkpt><trkpt lat="43.0486817" lon="11.65548"><ele>282.0</ele><time>2026-04-03T11:16:25.08Z</time></trkpt><trkpt lat="43.048845" lon="11.6556483"><ele>281.0</ele><time>2026-04-03T11:16:26.08Z</time></trkpt><trkpt lat="43.0490217" lon="11.6558217"><ele>280.0</ele><time>2026-04-03T11:16:27.079Z</time></trkpt><trkpt lat="43.0492" lon="11.6560183"><ele>280.5</ele><time>2026-04-03T11:16:28.08Z</time></trkpt><trkpt lat="43.0493967" lon="11.6562017"><ele>281.0</ele><time>2026-04-03T11:16:29.079Z</time></trkpt><trkpt lat="43.0495783" lon="11.6563883"><ele>281.0</ele><time>2026-04-03T11:16:30.079Z</time></trkpt><trkpt lat="43.0497417" lon="11.6565533"><ele>281.0</ele><time>2026-04-03T11:16:31.079Z</time></trkpt><trkpt lat="43.0498767" lon="11.6566883"><ele>281.0</ele><time>2026-04-03T11:16:32.079Z</time></trkpt><trkpt lat="43.0500017" lon="11.6568133"><ele>281.5</ele><time>2026-04-03T11:16:33.08Z</time></trkpt><trkpt lat="43.0501283" lon="11.6569"><ele>282.0</ele><time>2026-04-03T11:16:34.08Z</time></trkpt><trkpt lat="43.05024" lon="11.656975"><ele>282.5</ele><time>2026-04-03T11:16:35.079Z</time></trkpt><trkpt lat="43.05037" lon="11.6570033"><ele>283.0</ele><time>2026-04-03T11:16:36.079Z</time></trkpt><trkpt lat="43.0505217" lon="11.657015"><ele>283.0</ele><time>2026-04-03T11:16:37.08Z</time></trkpt><trkpt lat="43.050675" lon="11.6569983"><ele>283.0</ele><time>2026-04-03T11:16:38.079Z</time></trkpt><trkpt lat="43.0508467" lon="11.656965"><ele>283.0</ele><time>2026-04-03T11:16:39.079Z</time></trkpt><trkpt lat="43.05102" lon="11.6569033"><ele>283.0</ele><time>2026-04-03T11:16:40.078Z</time></trkpt><trkpt lat="43.0511717" lon="11.65687"><ele>283.0</ele><time>2026-04-03T11:16:41.079Z</time></trkpt><trkpt lat="43.051335" lon="11.6568617"><ele>283.0</ele><time>2026-04-03T11:16:42.079Z</time></trkpt><trkpt lat="43.0514967" lon="11.65688"><ele>283.3333333333333</ele><time>2026-04-03T11:16:43.078Z</time></trkpt><trkpt lat="43.05166" lon="11.6569233"><ele>283.6666666666667</ele><time>2026-04-03T11:16:44.078Z</time></trkpt><trkpt lat="43.0518233" lon="11.656985"><ele>284.0</ele><time>2026-04-03T11:16:45.079Z</time></trkpt><trkpt lat="43.0519917" lon="11.6570517"><ele>286.33333333333337</ele><time>2026-04-03T11:16:46.078Z</time></trkpt><trkpt lat="43.05216" lon="11.657125"><ele>288.6666666666667</ele><time>2026-04-03T11:16:47.078Z</time></trkpt><trkpt lat="43.0522983" lon="11.65724"><ele>291.0</ele><time>2026-04-03T11:16:48.078Z</time></trkpt><trkpt lat="43.0524067" lon="11.6573583"><ele>290.25</ele><time>2026-04-03T11:16:49.078Z</time></trkpt><trkpt lat="43.0525217" lon="11.657445"><ele>289.5</ele><time>2026-04-03T11:16:50.078Z</time></trkpt><trkpt lat="43.0526333" lon="11.6575317"><ele>288.75</ele><time>2026-04-03T11:16:51.079Z</time></trkpt><trkpt lat="43.0527483" lon="11.6576333"><ele>288.0</ele><time>2026-04-03T11:16:52.078Z</time></trkpt><trkpt lat="43.0528667" lon="11.6577317"><ele>290.5</ele><time>2026-04-03T11:16:53.078Z</time></trkpt><trkpt lat="43.052975" lon="11.6578233"><ele>293.0</ele><time>2026-04-03T11:16:54.078Z</time></trkpt><trkpt lat="43.0530717" lon="11.6579383"><ele>295.5</ele><time>2026-04-03T11:16:55.079Z</time></trkpt><trkpt lat="43.053155" lon="11.658075"><ele>298.0</ele><time>2026-04-03T11:16:56.078Z</time></trkpt><trkpt lat="43.0532517" lon="11.65824"><ele>298.0</ele><time>2026-04-03T11:16:57.078Z</time></trkpt><trkpt lat="43.0533433" lon="11.6584183"><ele>298.0</ele><time>2026-04-03T11:16:58.078Z</time></trkpt><trkpt lat="43.0534267" lon="11.6586083"><ele>298.0</ele><time>2026-04-03T11:16:59.078Z</time></trkpt><trkpt lat="43.0535167" lon="11.658805"><ele>298.0</ele><time>2026-04-03T11:17:00.078Z</time></trkpt><trkpt lat="43.0536067" lon="11.659"><ele>298.0</ele><time>2026-04-03T11:17:01.078Z</time></trkpt><trkpt lat="43.0536817" lon="11.659175"><ele>298.0</ele><time>2026-04-03T11:17:02.079Z</time></trkpt><trkpt lat="43.0537467" lon="11.6593233"><ele>298.0</ele><time>2026-04-03T11:17:03.078Z</time></trkpt><trkpt lat="43.0537967" lon="11.659455"><ele>299.66666666666663</ele><time>2026-04-03T11:17:04.078Z</time></trkpt><trkpt lat="43.0538433" lon="11.6595683"><ele>301.3333333333333</ele><time>2026-04-03T11:17:05.078Z</time></trkpt><trkpt lat="43.05388" lon="11.6596667"><ele>303.0</ele><time>2026-04-03T11:17:06.078Z</time></trkpt><trkpt lat="43.0539117" lon="11.6597467"><ele>304.6666666666667</ele><time>2026-04-03T11:17:07.079Z</time></trkpt><trkpt lat="43.05395" lon="11.6598267"><ele>306.33333333333337</ele><time>2026-04-03T11:17:08.079Z</time></trkpt><trkpt lat="43.053995" lon="11.6599033"><ele>308.0</ele><time>2026-04-03T11:17:09.078Z</time></trkpt><trkpt lat="43.0540433" lon="11.659985"><ele>308.0</ele><time>2026-04-03T11:17:10.078Z</time></trkpt><trkpt lat="43.05409" lon="11.66008"><ele>308.0</ele><time>2026-04-03T11:17:11.079Z</time></trkpt><trkpt lat="43.05413" lon="11.660185"><ele>308.0</ele><time>2026-04-03T11:17:12.078Z</time></trkpt><trkpt lat="43.0541783" lon="11.6602933"><ele>308.0</ele><time>2026-04-03T11:17:13.078Z</time></trkpt><trkpt lat="43.0542417" lon="11.6604117"><ele>308.0</ele><time>2026-04-03T11:17:14.078Z</time></trkpt><trkpt lat="43.0543183" lon="11.6605433"><ele>305.0</ele><time>2026-04-03T11:17:15.079Z</time></trkpt><trkpt lat="43.0544033" lon="11.66067"><ele>302.0</ele><time>2026-04-03T11:17:16.079Z</time></trkpt><trkpt lat="43.0544967" lon="11.6607933"><ele>299.0</ele><time>2026-04-03T11:17:17.079Z</time></trkpt><trkpt lat="43.0546" lon="11.6609067"><ele>296.0</ele><time>2026-04-03T11:17:18.078Z</time></trkpt><trkpt lat="43.0547233" lon="11.6610183"><ele>294.6666666666667</ele><time>2026-04-03T11:17:19.079Z</time></trkpt><trkpt lat="43.0548583" lon="11.66112"><ele>293.3333333333333</ele><time>2026-04-03T11:17:20.078Z</time></trkpt><trkpt lat="43.0550267" lon="11.6612133"><ele>292.0</ele><time>2026-04-03T11:17:21.078Z</time></trkpt><trkpt lat="43.055215" lon="11.6613"><ele>292.0</ele><time>2026-04-03T11:17:22.078Z</time></trkpt><trkpt lat="43.055415" lon="11.6613767"><ele>292.0</ele><time>2026-04-03T11:17:23.079Z</time></trkpt><trkpt lat="43.0556217" lon="11.6614233"><ele>292.0</ele><time>2026-04-03T11:17:24.078Z</time></trkpt><trkpt lat="43.05584" lon="11.66145"><ele>291.0</ele><time>2026-04-03T11:17:25.078Z</time></trkpt><trkpt lat="43.0560517" lon="11.6614867"><ele>290.0</ele><time>2026-04-03T11:17:26.078Z</time></trkpt><trkpt lat="43.0562467" lon="11.6615333"><ele>289.0</ele><time>2026-04-03T11:17:27.078Z</time></trkpt><trkpt lat="43.0564433" lon="11.661605"><ele>289.0</ele><time>2026-04-03T11:17:28.079Z</time></trkpt><trkpt lat="43.0566167" lon="11.6616233"><ele>289.0</ele><time>2026-04-03T11:17:29.078Z</time></trkpt><trkpt lat="43.05678" lon="11.6616533"><ele>289.0</ele><time>2026-04-03T11:17:30.078Z</time></trkpt><trkpt lat="43.05691" lon="11.6616917"><ele>288.75</ele><time>2026-04-03T11:17:31.079Z</time></trkpt><trkpt lat="43.0570167" lon="11.6617833"><ele>288.5</ele><time>2026-04-03T11:17:32.078Z</time></trkpt><trkpt lat="43.0571183" lon="11.6619167"><ele>288.25</ele><time>2026-04-03T11:17:33.078Z</time></trkpt><trkpt lat="43.0572167" lon="11.6620683"><ele>288.0</ele><time>2026-04-03T11:17:34.078Z</time></trkpt><trkpt lat="43.0573283" lon="11.66224"><ele>288.0</ele><time>2026-04-03T11:17:35.078Z</time></trkpt><trkpt lat="43.0574517" lon="11.66242"><ele>288.0</ele><time>2026-04-03T11:17:36.078Z</time></trkpt><trkpt lat="43.057585" lon="11.6626133"><ele>288.0</ele><time>2026-04-03T11:17:37.079Z</time></trkpt><trkpt lat="43.0577333" lon="11.6628133"><ele>288.0</ele><time>2026-04-03T11:17:38.078Z</time></trkpt><trkpt lat="43.057885" lon="11.6630267"><ele>288.0</ele><time>2026-04-03T11:17:39.079Z</time></trkpt><trkpt lat="43.058035" lon="11.6632367"><ele>288.0</ele><time>2026-04-03T11:17:40.079Z</time></trkpt><trkpt lat="43.0582" lon="11.66345"><ele>288.5</ele><time>2026-04-03T11:17:41.078Z</time></trkpt><trkpt lat="43.05838" lon="11.663665"><ele>289.0</ele><time>2026-04-03T11:17:42.078Z</time></trkpt><trkpt lat="43.0585467" lon="11.6638783"><ele>289.0</ele><time>2026-04-03T11:17:43.078Z</time></trkpt><trkpt lat="43.0587017" lon="11.6640833"><ele>289.0</ele><time>2026-04-03T11:17:44.078Z</time></trkpt><trkpt lat="43.0588467" lon="11.6642817"><ele>289.0</ele><time>2026-04-03T11:17:45.078Z</time></trkpt><trkpt lat="43.0589883" lon="11.6644633"><ele>291.0</ele><time>2026-04-03T11:17:46.078Z</time></trkpt><trkpt lat="43.05913" lon="11.664665"><ele>293.0</ele><time>2026-04-03T11:17:47.078Z</time></trkpt><trkpt lat="43.0592717" lon="11.66487"><ele>295.0</ele><time>2026-04-03T11:17:48.078Z</time></trkpt><trkpt lat="43.0594233" lon="11.6650883"><ele>294.0</ele><time>2026-04-03T11:17:49.078Z</time></trkpt><trkpt lat="43.0595817" lon="11.665305"><ele>293.0</ele><time>2026-04-03T11:17:50.079Z</time></trkpt><trkpt lat="43.0597333" lon="11.6655317"><ele>292.0</ele><time>2026-04-03T11:17:51.078Z</time></trkpt><trkpt lat="43.059885" lon="11.6657333"><ele>292.66666666666663</ele><time>2026-04-03T11:17:52.079Z</time></trkpt><trkpt lat="43.06002" lon="11.6659067"><ele>293.3333333333333</ele><time>2026-04-03T11:17:53.079Z</time></trkpt><trkpt lat="43.0601433" lon="11.6660683"><ele>294.0</ele><time>2026-04-03T11:17:54.078Z</time></trkpt><trkpt lat="43.0602433" lon="11.6662167"><ele>294.0</ele><time>2026-04-03T11:17:55.078Z</time></trkpt><trkpt lat="43.0603433" lon="11.66636"><ele>294.0</ele><time>2026-04-03T11:17:56.078Z</time></trkpt><trkpt lat="43.0604283" lon="11.6665367"><ele>294.0</ele><time>2026-04-03T11:17:57.079Z</time></trkpt><trkpt lat="43.06049" lon="11.666735"><ele>294.0</ele><time>2026-04-03T11:17:58.079Z</time></trkpt><trkpt lat="43.060555" lon="11.666955"><ele>294.0</ele><time>2026-04-03T11:17:59.079Z</time></trkpt><trkpt lat="43.0606183" lon="11.6671883"><ele>294.0</ele><time>2026-04-03T11:18:00.079Z</time></trkpt><trkpt lat="43.06068" lon="11.667445"><ele>294.0</ele><time>2026-04-03T11:18:01.079Z</time></trkpt><trkpt lat="43.0607433" lon="11.6677117"><ele>294.0</ele><time>2026-04-03T11:18:02.078Z</time></trkpt><trkpt lat="43.06081" lon="11.667995"><ele>294.0</ele><time>2026-04-03T11:18:03.078Z</time></trkpt><trkpt lat="43.0608817" lon="11.6682833"><ele>293.6666666666667</ele><time>2026-04-03T11:18:04.078Z</time></trkpt><trkpt lat="43.0609533" lon="11.6685617"><ele>293.33333333333337</ele><time>2026-04-03T11:18:05.078Z</time></trkpt><trkpt lat="43.0610017" lon="11.668815"><ele>293.0</ele><time>2026-04-03T11:18:06.078Z</time></trkpt><trkpt lat="43.0610333" lon="11.6690283"><ele>293.0</ele><time>2026-04-03T11:18:07.079Z</time></trkpt><trkpt lat="43.0610783" lon="11.6691583"><ele>293.0</ele><time>2026-04-03T11:18:08.078Z</time></trkpt><trkpt lat="43.061145" lon="11.6692783"><ele>293.0</ele><time>2026-04-03T11:18:09.078Z</time></trkpt><trkpt lat="43.0612317" lon="11.6693933"><ele>293.0</ele><time>2026-04-03T11:18:10.079Z</time></trkpt><trkpt lat="43.0613383" lon="11.6694933"><ele>293.0</ele><time>2026-04-03T11:18:11.079Z</time></trkpt><trkpt lat="43.0614617" lon="11.6696"><ele>293.0</ele><time>2026-04-03T11:18:12.078Z</time></trkpt><trkpt lat="43.06159" lon="11.6697217"><ele>293.0</ele><time>2026-04-03T11:18:13.079Z</time></trkpt><trkpt lat="43.061705" lon="11.6698283"><ele>293.0</ele><time>2026-04-03T11:18:14.078Z</time></trkpt><trkpt lat="43.06179" lon="11.669905"><ele>293.2</ele><time>2026-04-03T11:18:15.078Z</time></trkpt><trkpt lat="43.0618817" lon="11.6699633"><ele>293.4</ele><time>2026-04-03T11:18:16.078Z</time></trkpt><trkpt lat="43.0619417" lon="11.6700017"><ele>293.59999999999997</ele><time>2026-04-03T11:18:17.078Z</time></trkpt><trkpt lat="43.0619983" lon="11.67004"><ele>293.8</ele><time>2026-04-03T11:18:18.078Z</time></trkpt><trkpt lat="43.0621" lon="11.6701017"><ele>294.0</ele><time>2026-04-03T11:18:20.078Z</time></trkpt><trkpt lat="43.0622067" lon="11.6701767"><ele>294.0</ele><time>2026-04-03T11:18:22.078Z</time></trkpt><trkpt lat="43.06233" lon="11.67026"><ele>294.0</ele><time>2026-04-03T11:18:24.078Z</time></trkpt><trkpt lat="43.0624117" lon="11.6703117"><ele>294.0</ele><time>2026-04-03T11:18:25.079Z</time></trkpt><trkpt lat="43.06251" lon="11.6703733"><ele>294.0</ele><time>2026-04-03T11:18:26.078Z</time></trkpt><trkpt lat="43.062615" lon="11.670445"><ele>294.5</ele><time>2026-04-03T11:18:27.078Z</time></trkpt><trkpt lat="43.0627283" lon="11.6705267"><ele>295.0</ele><time>2026-04-03T11:18:28.078Z</time></trkpt><trkpt lat="43.0628533" lon="11.6706167"><ele>295.5</ele><time>2026-04-03T11:18:29.078Z</time></trkpt><trkpt lat="43.0629917" lon="11.67072"><ele>296.0</ele><time>2026-04-03T11:18:30.078Z</time></trkpt><trkpt lat="43.06315" lon="11.6708267"><ele>297.0</ele><time>2026-04-03T11:18:31.079Z</time></trkpt><trkpt lat="43.063315" lon="11.6709283"><ele>298.0</ele><time>2026-04-03T11:18:32.079Z</time></trkpt><trkpt lat="43.0634833" lon="11.6710417"><ele>299.0</ele><time>2026-04-03T11:18:33.079Z</time></trkpt><trkpt lat="43.06366" lon="11.6711583"><ele>299.33333333333337</ele><time>2026-04-03T11:18:34.078Z</time></trkpt><trkpt lat="43.0638483" lon="11.6712717"><ele>299.6666666666667</ele><time>2026-04-03T11:18:35.078Z</time></trkpt><trkpt lat="43.0640333" lon="11.67138"><ele>300.0</ele><time>2026-04-03T11:18:36.079Z</time></trkpt><trkpt lat="43.064205" lon="11.6714933"><ele>300.75</ele><time>2026-04-03T11:18:37.078Z</time></trkpt><trkpt lat="43.064345" lon="11.6715883"><ele>301.5</ele><time>2026-04-03T11:18:38.078Z</time></trkpt><trkpt lat="43.0644583" lon="11.6716683"><ele>302.25</ele><time>2026-04-03T11:18:39.079Z</time></trkpt><trkpt lat="43.0645433" lon="11.6717267"><ele>303.0</ele><time>2026-04-03T11:18:40.078Z</time></trkpt><trkpt lat="43.06461" lon="11.6717817"><ele>303.0</ele><time>2026-04-03T11:18:41.078Z</time></trkpt><trkpt lat="43.0646717" lon="11.6718167"><ele>303.0</ele><time>2026-04-03T11:18:42.078Z</time></trkpt><trkpt lat="43.0647383" lon="11.6718567"><ele>303.0</ele><time>2026-04-03T11:18:43.078Z</time></trkpt><trkpt lat="43.0648" lon="11.6719017"><ele>303.0</ele><time>2026-04-03T11:18:44.078Z</time></trkpt><trkpt lat="43.06486" lon="11.6719583"><ele>303.0</ele><time>2026-04-03T11:18:45.078Z</time></trkpt><trkpt lat="43.0649267" lon="11.67201"><ele>303.0</ele><time>2026-04-03T11:18:46.078Z</time></trkpt><trkpt lat="43.0649967" lon="11.6720583"><ele>303.0</ele><time>2026-04-03T11:18:47.078Z</time></trkpt><trkpt lat="43.0650683" lon="11.672105"><ele>304.0</ele><time>2026-04-03T11:18:48.079Z</time></trkpt><trkpt lat="43.065145" lon="11.6721467"><ele>305.0</ele><time>2026-04-03T11:18:49.079Z</time></trkpt><trkpt lat="43.0652233" lon="11.672175"><ele>306.0</ele><time>2026-04-03T11:18:50.078Z</time></trkpt><trkpt lat="43.0653067" lon="11.6721967"><ele>307.0</ele><time>2026-04-03T11:18:51.079Z</time></trkpt><trkpt lat="43.06539" lon="11.672195"><ele>308.0</ele><time>2026-04-03T11:18:52.078Z</time></trkpt><trkpt lat="43.0654833" lon="11.672155"><ele>309.0</ele><time>2026-04-03T11:18:53.078Z</time></trkpt><trkpt lat="43.0655683" lon="11.6720733"><ele>309.0</ele><time>2026-04-03T11:18:54.078Z</time></trkpt><trkpt lat="43.06565" lon="11.67198"><ele>309.0</ele><time>2026-04-03T11:18:55.078Z</time></trkpt><trkpt lat="43.0657267" lon="11.671905"><ele>309.0</ele><time>2026-04-03T11:18:56.079Z</time></trkpt><trkpt lat="43.0658117" lon="11.6718683"><ele>309.0</ele><time>2026-04-03T11:18:57.078Z</time></trkpt><trkpt lat="43.0659017" lon="11.6718833"><ele>309.0</ele><time>2026-04-03T11:18:58.078Z</time></trkpt><trkpt lat="43.0659917" lon="11.671925"><ele>310.59999999999997</ele><time>2026-04-03T11:18:59.078Z</time></trkpt><trkpt lat="43.06609" lon="11.6719783"><ele>312.2</ele><time>2026-04-03T11:19:00.078Z</time></trkpt><trkpt lat="43.0661917" lon="11.67204"><ele>313.79999999999995</ele><time>2026-04-03T11:19:01.079Z</time></trkpt><trkpt lat="43.066285" lon="11.6721167"><ele>315.4</ele><time>2026-04-03T11:19:02.078Z</time></trkpt><trkpt lat="43.0663583" lon="11.672225"><ele>317.0</ele><time>2026-04-03T11:19:03.078Z</time></trkpt><trkpt lat="43.0664117" lon="11.67235"><ele>317.0</ele><time>2026-04-03T11:19:04.078Z</time></trkpt><trkpt lat="43.06647" lon="11.67247"><ele>317.0</ele><time>2026-04-03T11:19:05.078Z</time></trkpt><trkpt lat="43.0665417" lon="11.6725733"><ele>317.0</ele><time>2026-04-03T11:19:06.079Z</time></trkpt><trkpt lat="43.0666333" lon="11.67263"><ele>317.0</ele><time>2026-04-03T11:19:07.078Z</time></trkpt><trkpt lat="43.06672" lon="11.67269"><ele>317.0</ele><time>2026-04-03T11:19:08.078Z</time></trkpt><trkpt lat="43.0667767" lon="11.6727717"><ele>317.6666666666667</ele><time>2026-04-03T11:19:09.078Z</time></trkpt><trkpt lat="43.0667967" lon="11.6728717"><ele>318.33333333333337</ele><time>2026-04-03T11:19:10.078Z</time></trkpt><trkpt lat="43.0667917" lon="11.672985"><ele>319.0</ele><time>2026-04-03T11:19:11.078Z</time></trkpt><trkpt lat="43.066765" lon="11.6731017"><ele>319.6666666666667</ele><time>2026-04-03T11:19:12.078Z</time></trkpt><trkpt lat="43.0667133" lon="11.6732183"><ele>320.3333333333333</ele><time>2026-04-03T11:19:13.078Z</time></trkpt><trkpt lat="43.066655" lon="11.6733283"><ele>321.0</ele><time>2026-04-03T11:19:14.079Z</time></trkpt><trkpt lat="43.0666033" lon="11.6734317"><ele>321.0</ele><time>2026-04-03T11:19:15.078Z</time></trkpt><trkpt lat="43.066565" lon="11.673535"><ele>321.0</ele><time>2026-04-03T11:19:16.078Z</time></trkpt><trkpt lat="43.0665567" lon="11.673645"><ele>321.0</ele><time>2026-04-03T11:19:17.078Z</time></trkpt><trkpt lat="43.0665667" lon="11.673735"><ele>321.0</ele><time>2026-04-03T11:19:18.078Z</time></trkpt><trkpt lat="43.0666383" lon="11.6738917"><ele>321.0</ele><time>2026-04-03T11:19:20.078Z</time></trkpt><trkpt lat="43.0666767" lon="11.6739733"><ele>321.0</ele><time>2026-04-03T11:19:21.078Z</time></trkpt><trkpt lat="43.0667217" lon="11.6740767"><ele>322.8333333333333</ele><time>2026-04-03T11:19:22.079Z</time></trkpt><trkpt lat="43.0667617" lon="11.6741933"><ele>324.6666666666667</ele><time>2026-04-03T11:19:23.078Z</time></trkpt><trkpt lat="43.066785" lon="11.6743117"><ele>326.5</ele><time>2026-04-03T11:19:24.079Z</time></trkpt><trkpt lat="43.0667967" lon="11.67444"><ele>328.33333333333337</ele><time>2026-04-03T11:19:25.079Z</time></trkpt><trkpt lat="43.0668217" lon="11.6745417"><ele>330.1666666666667</ele><time>2026-04-03T11:19:26.078Z</time></trkpt><trkpt lat="43.0668583" lon="11.674635"><ele>332.0</ele><time>2026-04-03T11:19:27.079Z</time></trkpt><trkpt lat="43.06691" lon="11.6747133"><ele>332.0</ele><time>2026-04-03T11:19:28.079Z</time></trkpt><trkpt lat="43.066975" lon="11.6747717"><ele>332.0</ele><time>2026-04-03T11:19:29.079Z</time></trkpt><trkpt lat="43.06705" lon="11.6748183"><ele>332.0</ele><time>2026-04-03T11:19:30.078Z</time></trkpt><trkpt lat="43.0671217" lon="11.6748467"><ele>332.0</ele><time>2026-04-03T11:19:31.078Z</time></trkpt><trkpt lat="43.067195" lon="11.6748733"><ele>332.0</ele><time>2026-04-03T11:19:32.078Z</time></trkpt><trkpt lat="43.067275" lon="11.6749083"><ele>332.0</ele><time>2026-04-03T11:19:33.078Z</time></trkpt><trkpt lat="43.0673517" lon="11.6749383"><ele>332.0</ele><time>2026-04-03T11:19:34.079Z</time></trkpt><trkpt lat="43.0674233" lon="11.6749733"><ele>332.0</ele><time>2026-04-03T11:19:35.079Z</time></trkpt><trkpt lat="43.0674917" lon="11.675005"><ele>332.0</ele><time>2026-04-03T11:19:36.079Z</time></trkpt><trkpt lat="43.06759" lon="11.67505"><ele>332.0</ele><time>2026-04-03T11:19:38.078Z</time></trkpt><trkpt lat="43.06766" lon="11.6750867"><ele>332.0</ele><time>2026-04-03T11:19:40.078Z</time></trkpt><trkpt lat="43.0677467" lon="11.6751233"><ele>332.0</ele><time>2026-04-03T11:19:42.078Z</time></trkpt><trkpt lat="43.0678467" lon="11.6751833"><ele>333.0</ele><time>2026-04-03T11:19:44.078Z</time></trkpt><trkpt lat="43.0679533" lon="11.6752783"><ele>334.0</ele><time>2026-04-03T11:19:46.078Z</time></trkpt><trkpt lat="43.06802" lon="11.6753433"><ele>335.0</ele><time>2026-04-03T11:19:47.078Z</time></trkpt><trkpt lat="43.068075" lon="11.67542"><ele>336.0</ele><time>2026-04-03T11:19:48.078Z</time></trkpt><trkpt lat="43.0681317" lon="11.6755"><ele>337.0</ele><time>2026-04-03T11:19:49.078Z</time></trkpt><trkpt lat="43.0681917" lon="11.675585"><ele>337.0</ele><time>2026-04-03T11:19:50.078Z</time></trkpt><trkpt lat="43.0682567" lon="11.6756767"><ele>337.0</ele><time>2026-04-03T11:19:51.078Z</time></trkpt><trkpt lat="43.06833" lon="11.6757667"><ele>337.0</ele><time>2026-04-03T11:19:52.078Z</time></trkpt><trkpt lat="43.068405" lon="11.675865"><ele>337.0</ele><time>2026-04-03T11:19:53.078Z</time></trkpt><trkpt lat="43.068475" lon="11.6759583"><ele>337.0</ele><time>2026-04-03T11:19:54.078Z</time></trkpt><trkpt lat="43.0685433" lon="11.6760467"><ele>338.20000000000005</ele><time>2026-04-03T11:19:55.079Z</time></trkpt><trkpt lat="43.0686117" lon="11.676135"><ele>339.4</ele><time>2026-04-03T11:19:56.079Z</time></trkpt><trkpt lat="43.0686783" lon="11.6762217"><ele>340.6</ele><time>2026-04-03T11:19:57.078Z</time></trkpt><trkpt lat="43.068745" lon="11.6763133"><ele>341.79999999999995</ele><time>2026-04-03T11:19:58.078Z</time></trkpt><trkpt lat="43.068815" lon="11.67641"><ele>343.0</ele><time>2026-04-03T11:19:59.078Z</time></trkpt><trkpt lat="43.068885" lon="11.6765133"><ele>343.0</ele><time>2026-04-03T11:20:00.078Z</time></trkpt><trkpt lat="43.0689533" lon="11.67662"><ele>343.0</ele><time>2026-04-03T11:20:01.078Z</time></trkpt><trkpt lat="43.06903" lon="11.6767117"><ele>343.0</ele><time>2026-04-03T11:20:02.078Z</time></trkpt><trkpt lat="43.0690833" lon="11.676815"><ele>343.0</ele><time>2026-04-03T11:20:03.078Z</time></trkpt><trkpt lat="43.0691167" lon="11.67692"><ele>343.0</ele><time>2026-04-03T11:20:04.078Z</time></trkpt><trkpt lat="43.069115" lon="11.6770433"><ele>343.59999999999997</ele><time>2026-04-03T11:20:05.078Z</time></trkpt><trkpt lat="43.0690967" lon="11.6771567"><ele>344.2</ele><time>2026-04-03T11:20:06.078Z</time></trkpt><trkpt lat="43.0690617" lon="11.677265"><ele>344.8</ele><time>2026-04-03T11:20:07.078Z</time></trkpt><trkpt lat="43.0690167" lon="11.6773817"><ele>345.4</ele><time>2026-04-03T11:20:08.078Z</time></trkpt><trkpt lat="43.068975" lon="11.677505"><ele>346.0</ele><time>2026-04-03T11:20:09.078Z</time></trkpt><trkpt lat="43.06892" lon="11.67763"><ele>347.6</ele><time>2026-04-03T11:20:10.078Z</time></trkpt><trkpt lat="43.0688583" lon="11.6777733"><ele>349.20000000000005</ele><time>2026-04-03T11:20:11.078Z</time></trkpt><trkpt lat="43.068805" lon="11.6778833"><ele>350.79999999999995</ele><time>2026-04-03T11:20:12.078Z</time></trkpt><trkpt lat="43.0687567" lon="11.67798"><ele>352.4</ele><time>2026-04-03T11:20:13.078Z</time></trkpt><trkpt lat="43.0687117" lon="11.6780817"><ele>354.0</ele><time>2026-04-03T11:20:14.079Z</time></trkpt><trkpt lat="43.06867" lon="11.6781783"><ele>354.0</ele><time>2026-04-03T11:20:15.078Z</time></trkpt><trkpt lat="43.0686383" lon="11.6782567"><ele>354.0</ele><time>2026-04-03T11:20:16.078Z</time></trkpt><trkpt lat="43.0685933" lon="11.678355"><ele>354.0</ele><time>2026-04-03T11:20:18.078Z</time></trkpt><trkpt lat="43.0685683" lon="11.6784533"><ele>354.0</ele><time>2026-04-03T11:20:21.079Z</time></trkpt><trkpt lat="43.06855" lon="11.6785733"><ele>354.0</ele><time>2026-04-03T11:20:23.079Z</time></trkpt><trkpt lat="43.06855" lon="11.678765"><ele>355.4</ele><time>2026-04-03T11:20:25.078Z</time></trkpt><trkpt lat="43.0685433" lon="11.6788817"><ele>356.79999999999995</ele><time>2026-04-03T11:20:26.078Z</time></trkpt><trkpt lat="43.0685333" lon="11.679015"><ele>358.20000000000005</ele><time>2026-04-03T11:20:27.078Z</time></trkpt><trkpt lat="43.0685183" lon="11.6791583"><ele>359.6</ele><time>2026-04-03T11:20:28.079Z</time></trkpt><trkpt lat="43.0684983" lon="11.67931"><ele>361.0</ele><time>2026-04-03T11:20:29.078Z</time></trkpt><trkpt lat="43.0684833" lon="11.6794717"><ele>361.20000000000005</ele><time>2026-04-03T11:20:30.078Z</time></trkpt><trkpt lat="43.0684867" lon="11.6796167"><ele>361.40000000000003</ele><time>2026-04-03T11:20:31.078Z</time></trkpt><trkpt lat="43.0685017" lon="11.679745"><ele>361.6</ele><time>2026-04-03T11:20:32.079Z</time></trkpt><trkpt lat="43.0685483" lon="11.6798617"><ele>361.8</ele><time>2026-04-03T11:20:33.078Z</time></trkpt><trkpt lat="43.068625" lon="11.6799567"><ele>362.0</ele><time>2026-04-03T11:20:34.078Z</time></trkpt><trkpt lat="43.0687233" lon="11.68"><ele>362.0</ele><time>2026-04-03T11:20:35.078Z</time></trkpt><trkpt lat="43.0688333" lon="11.6799767"><ele>362.0</ele><time>2026-04-03T11:20:36.078Z</time></trkpt><trkpt lat="43.0689367" lon="11.6799"><ele>362.0</ele><time>2026-04-03T11:20:37.078Z</time></trkpt><trkpt lat="43.0690183" lon="11.67979"><ele>362.0</ele><time>2026-04-03T11:20:38.078Z</time></trkpt><trkpt lat="43.0690683" lon="11.6796467"><ele>362.0</ele><time>2026-04-03T11:20:39.077Z</time></trkpt><trkpt lat="43.0691033" lon="11.6794917"><ele>362.0</ele><time>2026-04-03T11:20:40.077Z</time></trkpt><trkpt lat="43.0691483" lon="11.6793233"><ele>362.0</ele><time>2026-04-03T11:20:41.077Z</time></trkpt><trkpt lat="43.0692217" lon="11.6791533"><ele>362.0</ele><time>2026-04-03T11:20:42.077Z</time></trkpt><trkpt lat="43.0693183" lon="11.6789967"><ele>364.25</ele><time>2026-04-03T11:20:43.078Z</time></trkpt><trkpt lat="43.06943" lon="11.6788817"><ele>366.5</ele><time>2026-04-03T11:20:44.078Z</time></trkpt><trkpt lat="43.069575" lon="11.6788167"><ele>368.75</ele><time>2026-04-03T11:20:45.077Z</time></trkpt><trkpt lat="43.06973" lon="11.6787933"><ele>371.0</ele><time>2026-04-03T11:20:46.078Z</time></trkpt><trkpt lat="43.0698833" lon="11.6787933"><ele>374.0</ele><time>2026-04-03T11:20:47.078Z</time></trkpt><trkpt lat="43.0700417" lon="11.678785"><ele>377.0</ele><time>2026-04-03T11:20:48.077Z</time></trkpt><trkpt lat="43.0702033" lon="11.678775"><ele>380.0</ele><time>2026-04-03T11:20:49.078Z</time></trkpt><trkpt lat="43.0703783" lon="11.6787583"><ele>380.0</ele><time>2026-04-03T11:20:50.077Z</time></trkpt><trkpt lat="43.070555" lon="11.6787367"><ele>380.0</ele><time>2026-04-03T11:20:51.077Z</time></trkpt><trkpt lat="43.0707267" lon="11.67872"><ele>380.0</ele><time>2026-04-03T11:20:52.077Z</time></trkpt><trkpt lat="43.0708933" lon="11.6786967"><ele>382.33333333333337</ele><time>2026-04-03T11:20:53.077Z</time></trkpt><trkpt lat="43.0710583" lon="11.6786733"><ele>384.6666666666667</ele><time>2026-04-03T11:20:54.078Z</time></trkpt><trkpt lat="43.0712133" lon="11.6786533"><ele>387.0</ele><time>2026-04-03T11:20:55.077Z</time></trkpt><trkpt lat="43.071355" lon="11.67864"><ele>387.0</ele><time>2026-04-03T11:20:56.077Z</time></trkpt><trkpt lat="43.0714917" lon="11.6786333"><ele>387.0</ele><time>2026-04-03T11:20:57.077Z</time></trkpt><trkpt lat="43.0716217" lon="11.67862"><ele>387.0</ele><time>2026-04-03T11:20:58.078Z</time></trkpt><trkpt lat="43.0717483" lon="11.6785933"><ele>387.0</ele><time>2026-04-03T11:20:59.077Z</time></trkpt><trkpt lat="43.0718783" lon="11.6785633"><ele>386.5</ele><time>2026-04-03T11:21:00.077Z</time></trkpt><trkpt lat="43.0720133" lon="11.6785567"><ele>386.0</ele><time>2026-04-03T11:21:01.077Z</time></trkpt><trkpt lat="43.0721367" lon="11.6785733"><ele>385.5</ele><time>2026-04-03T11:21:02.077Z</time></trkpt><trkpt lat="43.0722417" lon="11.678635"><ele>385.0</ele><time>2026-04-03T11:21:03.077Z</time></trkpt><trkpt lat="43.0722983" lon="11.6787483"><ele>387.5</ele><time>2026-04-03T11:21:04.077Z</time></trkpt><trkpt lat="43.0723033" lon="11.6788917"><ele>390.0</ele><time>2026-04-03T11:21:05.077Z</time></trkpt><trkpt lat="43.0722683" lon="11.6790433"><ele>392.5</ele><time>2026-04-03T11:21:06.077Z</time></trkpt><trkpt lat="43.0722283" lon="11.6791867"><ele>395.0</ele><time>2026-04-03T11:21:07.077Z</time></trkpt><trkpt lat="43.0721717" lon="11.679335"><ele>396.0</ele><time>2026-04-03T11:21:08.077Z</time></trkpt><trkpt lat="43.072115" lon="11.679495"><ele>397.0</ele><time>2026-04-03T11:21:09.078Z</time></trkpt><trkpt lat="43.0720583" lon="11.679665"><ele>398.0</ele><time>2026-04-03T11:21:10.077Z</time></trkpt><trkpt lat="43.0720117" lon="11.679835"><ele>399.0</ele><time>2026-04-03T11:21:11.077Z</time></trkpt><trkpt lat="43.0719967" lon="11.6799833"><ele>399.0</ele><time>2026-04-03T11:21:12.077Z</time></trkpt><trkpt lat="43.072015" lon="11.68011"><ele>399.0</ele><time>2026-04-03T11:21:13.077Z</time></trkpt><trkpt lat="43.0720633" lon="11.6802217"><ele>399.0</ele><time>2026-04-03T11:21:14.078Z</time></trkpt><trkpt lat="43.0721483" lon="11.6802817"><ele>399.0</ele><time>2026-04-03T11:21:15.078Z</time></trkpt><trkpt lat="43.0722517" lon="11.6802733"><ele>399.0</ele><time>2026-04-03T11:21:16.078Z</time></trkpt><trkpt lat="43.072355" lon="11.6802"><ele>401.25</ele><time>2026-04-03T11:21:17.077Z</time></trkpt><trkpt lat="43.0724417" lon="11.6800867"><ele>403.5</ele><time>2026-04-03T11:21:18.077Z</time></trkpt><trkpt lat="43.072515" lon="11.6799383"><ele>405.75</ele><time>2026-04-03T11:21:19.078Z</time></trkpt><trkpt lat="43.07258" lon="11.6797767"><ele>408.0</ele><time>2026-04-03T11:21:20.078Z</time></trkpt><trkpt lat="43.072645" lon="11.679615"><ele>408.0</ele><time>2026-04-03T11:21:21.077Z</time></trkpt><trkpt lat="43.0727117" lon="11.6794533"><ele>408.0</ele><time>2026-04-03T11:21:22.077Z</time></trkpt><trkpt lat="43.0727833" lon="11.6793017"><ele>408.0</ele><time>2026-04-03T11:21:23.077Z</time></trkpt><trkpt lat="43.0728667" lon="11.6791467"><ele>408.0</ele><time>2026-04-03T11:21:24.078Z</time></trkpt><trkpt lat="43.0729467" lon="11.6789983"><ele>407.25</ele><time>2026-04-03T11:21:25.077Z</time></trkpt><trkpt lat="43.0730267" lon="11.6788483"><ele>406.5</ele><time>2026-04-03T11:21:26.077Z</time></trkpt><trkpt lat="43.0731283" lon="11.6787133"><ele>405.75</ele><time>2026-04-03T11:21:27.077Z</time></trkpt><trkpt lat="43.0732333" lon="11.6785833"><ele>405.0</ele><time>2026-04-03T11:21:28.077Z</time></trkpt><trkpt lat="43.07335" lon="11.6784333"><ele>407.66666666666663</ele><time>2026-04-03T11:21:29.078Z</time></trkpt><trkpt lat="43.0734683" lon="11.6782883"><ele>410.3333333333333</ele><time>2026-04-03T11:21:30.077Z</time></trkpt><trkpt lat="43.0735783" lon="11.6781333"><ele>413.0</ele><time>2026-04-03T11:21:31.077Z</time></trkpt><trkpt lat="43.0736717" lon="11.6779567"><ele>413.0</ele><time>2026-04-03T11:21:32.077Z</time></trkpt><trkpt lat="43.0737483" lon="11.6777733"><ele>413.0</ele><time>2026-04-03T11:21:33.077Z</time></trkpt><trkpt lat="43.0738233" lon="11.677575"><ele>413.0</ele><time>2026-04-03T11:21:34.077Z</time></trkpt><trkpt lat="43.0739117" lon="11.6773667"><ele>411.75</ele><time>2026-04-03T11:21:35.077Z</time></trkpt><trkpt lat="43.0739833" lon="11.6771683"><ele>410.5</ele><time>2026-04-03T11:21:36.077Z</time></trkpt><trkpt lat="43.0740433" lon="11.6770017"><ele>409.25</ele><time>2026-04-03T11:21:37.078Z</time></trkpt><trkpt lat="43.0740983" lon="11.676875"><ele>408.0</ele><time>2026-04-03T11:21:38.077Z</time></trkpt><trkpt lat="43.0741283" lon="11.6767767"><ele>408.0</ele><time>2026-04-03T11:21:40.077Z</time></trkpt><trkpt lat="43.0740783" lon="11.67684"><ele>408.0</ele><time>2026-04-03T11:21:46.077Z</time></trkpt><trkpt lat="43.0740533" lon="11.67692"><ele>408.0</ele><time>2026-04-03T11:21:47.077Z</time></trkpt><trkpt lat="43.0740133" lon="11.6770533"><ele>408.0</ele><time>2026-04-03T11:21:48.077Z</time></trkpt><trkpt lat="43.0739617" lon="11.67722"><ele>408.0</ele><time>2026-04-03T11:21:49.078Z</time></trkpt><trkpt lat="43.0739067" lon="11.6773983"><ele>408.0</ele><time>2026-04-03T11:21:50.077Z</time></trkpt><trkpt lat="43.0738317" lon="11.6775883"><ele>408.0</ele><time>2026-04-03T11:21:51.077Z</time></trkpt><trkpt lat="43.07374" lon="11.6777817"><ele>408.0</ele><time>2026-04-03T11:21:52.078Z</time></trkpt><trkpt lat="43.0736533" lon="11.67797"><ele>409.66666666666663</ele><time>2026-04-03T11:21:53.077Z</time></trkpt><trkpt lat="43.073565" lon="11.6781517"><ele>411.3333333333333</ele><time>2026-04-03T11:21:54.077Z</time></trkpt><trkpt lat="43.0734617" lon="11.67833"><ele>413.0</ele><time>2026-04-03T11:21:55.078Z</time></trkpt><trkpt lat="43.0733483" lon="11.6785033"><ele>410.3333333333333</ele><time>2026-04-03T11:21:56.077Z</time></trkpt><trkpt lat="43.073215" lon="11.6786767"><ele>407.66666666666663</ele><time>2026-04-03T11:21:57.077Z</time></trkpt><trkpt lat="43.0730883" lon="11.67884"><ele>405.0</ele><time>2026-04-03T11:21:58.077Z</time></trkpt><trkpt lat="43.0729817" lon="11.6790033"><ele>405.0</ele><time>2026-04-03T11:21:59.078Z</time></trkpt><trkpt lat="43.0728733" lon="11.679155"><ele>405.0</ele><time>2026-04-03T11:22:00.078Z</time></trkpt><trkpt lat="43.072775" lon="11.6793133"><ele>405.0</ele><time>2026-04-03T11:22:01.077Z</time></trkpt><trkpt lat="43.0726933" lon="11.6794883"><ele>405.75</ele><time>2026-04-03T11:22:02.077Z</time></trkpt><trkpt lat="43.0726183" lon="11.6796517"><ele>406.5</ele><time>2026-04-03T11:22:03.077Z</time></trkpt><trkpt lat="43.0725517" lon="11.679815"><ele>407.25</ele><time>2026-04-03T11:22:04.077Z</time></trkpt><trkpt lat="43.072495" lon="11.67996"><ele>408.0</ele><time>2026-04-03T11:22:05.077Z</time></trkpt><trkpt lat="43.0724283" lon="11.6800767"><ele>408.1666666666667</ele><time>2026-04-03T11:22:06.077Z</time></trkpt><trkpt lat="43.0723767" lon="11.6801783"><ele>408.33333333333337</ele><time>2026-04-03T11:22:07.077Z</time></trkpt><trkpt lat="43.0723433" lon="11.680255"><ele>408.5</ele><time>2026-04-03T11:22:08.077Z</time></trkpt><trkpt lat="43.0723367" lon="11.6803417"><ele>408.6666666666667</ele><time>2026-04-03T11:22:10.077Z</time></trkpt><trkpt lat="43.0724367" lon="11.680385"><ele>408.83333333333337</ele><time>2026-04-03T11:22:12.077Z</time></trkpt><trkpt lat="43.0725033" lon="11.6804117"><ele>409.0</ele><time>2026-04-03T11:22:13.077Z</time></trkpt><trkpt lat="43.0725717" lon="11.6804633"><ele>409.0</ele><time>2026-04-03T11:22:14.077Z</time></trkpt><trkpt lat="43.0726333" lon="11.680535"><ele>409.0</ele><time>2026-04-03T11:22:15.077Z</time></trkpt><trkpt lat="43.0727083" lon="11.68062"><ele>409.0</ele><time>2026-04-03T11:22:16.077Z</time></trkpt><trkpt lat="43.0727867" lon="11.6807217"><ele>409.0</ele><time>2026-04-03T11:22:17.078Z</time></trkpt><trkpt lat="43.0728683" lon="11.6808333"><ele>409.0</ele><time>2026-04-03T11:22:18.077Z</time></trkpt><trkpt lat="43.0729517" lon="11.680955"><ele>409.0</ele><time>2026-04-03T11:22:19.078Z</time></trkpt><trkpt lat="43.0730267" lon="11.681095"><ele>409.0</ele><time>2026-04-03T11:22:20.077Z</time></trkpt><trkpt lat="43.0731" lon="11.68123"><ele>409.0</ele><time>2026-04-03T11:22:21.077Z</time></trkpt><trkpt lat="43.073175" lon="11.6813583"><ele>409.0</ele><time>2026-04-03T11:22:22.077Z</time></trkpt><trkpt lat="43.073245" lon="11.6814633"><ele>412.6</ele><time>2026-04-03T11:22:23.077Z</time></trkpt><trkpt lat="43.07332" lon="11.6815483"><ele>416.2</ele><time>2026-04-03T11:22:24.077Z</time></trkpt><trkpt lat="43.0733933" lon="11.6816133"><ele>419.80000000000007</ele><time>2026-04-03T11:22:25.077Z</time></trkpt><trkpt lat="43.07348" lon="11.6816717"><ele>423.40000000000003</ele><time>2026-04-03T11:22:26.077Z</time></trkpt><trkpt lat="43.0735683" lon="11.6817133"><ele>427.0</ele><time>2026-04-03T11:22:27.077Z</time></trkpt><trkpt lat="43.0736583" lon="11.6817483"><ele>427.00000000000006</ele><time>2026-04-03T11:22:28.077Z</time></trkpt><trkpt lat="43.0737633" lon="11.6817583"><ele>427.0</ele><time>2026-04-03T11:22:29.077Z</time></trkpt><trkpt lat="43.0738483" lon="11.6817783"><ele>427.0</ele><time>2026-04-03T11:22:30.077Z</time></trkpt><trkpt lat="43.0739283" lon="11.6817983"><ele>427.0</ele><time>2026-04-03T11:22:31.078Z</time></trkpt><trkpt lat="43.074035" lon="11.6817967"><ele>427.00000000000006</ele><time>2026-04-03T11:22:33.078Z</time></trkpt><trkpt lat="43.0740867" lon="11.6817417"><ele>427.0</ele><time>2026-04-03T11:22:34.077Z</time></trkpt><trkpt lat="43.0741783" lon="11.6816267"><ele>429.42857142857144</ele><time>2026-04-03T11:22:36.078Z</time></trkpt><trkpt lat="43.0742117" lon="11.6815467"><ele>431.8571428571429</ele><time>2026-04-03T11:22:37.078Z</time></trkpt><trkpt lat="43.0742567" lon="11.6814583"><ele>434.2857142857143</ele><time>2026-04-03T11:22:38.078Z</time></trkpt><trkpt lat="43.0743017" lon="11.6813633"><ele>436.7142857142857</ele><time>2026-04-03T11:22:39.077Z</time></trkpt><trkpt lat="43.0743383" lon="11.681275"><ele>439.14285714285717</ele><time>2026-04-03T11:22:40.077Z</time></trkpt><trkpt lat="43.0743817" lon="11.681185"><ele>441.57142857142856</ele><time>2026-04-03T11:22:41.078Z</time></trkpt><trkpt lat="43.0744183" lon="11.6811083"><ele>444.0</ele><time>2026-04-03T11:22:42.078Z</time></trkpt><trkpt lat="43.0744733" lon="11.6810367"><ele>445.0</ele><time>2026-04-03T11:22:43.077Z</time></trkpt><trkpt lat="43.07454" lon="11.680975"><ele>446.0</ele><time>2026-04-03T11:22:44.078Z</time></trkpt><trkpt lat="43.0746017" lon="11.6809133"><ele>447.0</ele><time>2026-04-03T11:22:45.077Z</time></trkpt><trkpt lat="43.0746667" lon="11.6808533"><ele>448.0</ele><time>2026-04-03T11:22:46.077Z</time></trkpt><trkpt lat="43.074725" lon="11.6808"><ele>449.0</ele><time>2026-04-03T11:22:47.077Z</time></trkpt><trkpt lat="43.0747917" lon="11.680735"><ele>450.0</ele><time>2026-04-03T11:22:48.078Z</time></trkpt><trkpt lat="43.0748533" lon="11.680655"><ele>450.0</ele><time>2026-04-03T11:22:49.077Z</time></trkpt><trkpt lat="43.0749033" lon="11.6805817"><ele>450.0</ele><time>2026-04-03T11:22:50.078Z</time></trkpt><trkpt lat="43.0749433" lon="11.6805067"><ele>450.0</ele><time>2026-04-03T11:22:51.077Z</time></trkpt><trkpt lat="43.0750133" lon="11.680415"><ele>450.0</ele><time>2026-04-03T11:22:53.077Z</time></trkpt><trkpt lat="43.0751217" lon="11.6804383"><ele>450.0</ele><time>2026-04-03T11:22:55.077Z</time></trkpt><trkpt lat="43.075185" lon="11.6804633"><ele>450.0</ele><time>2026-04-03T11:22:56.077Z</time></trkpt><trkpt lat="43.0753033" lon="11.68049"><ele>451.1428571428572</ele><time>2026-04-03T11:22:58.077Z</time></trkpt><trkpt lat="43.075375" lon="11.6804733"><ele>452.28571428571433</ele><time>2026-04-03T11:22:59.077Z</time></trkpt><trkpt lat="43.0754467" lon="11.6804367"><ele>453.42857142857144</ele><time>2026-04-03T11:23:00.077Z</time></trkpt><trkpt lat="43.0755067" lon="11.6803867"><ele>454.5714285714286</ele><time>2026-04-03T11:23:01.078Z</time></trkpt><trkpt lat="43.07556" lon="11.6803367"><ele>455.7142857142858</ele><time>2026-04-03T11:23:02.078Z</time></trkpt><trkpt lat="43.07562" lon="11.6802983"><ele>456.85714285714283</ele><time>2026-04-03T11:23:03.077Z</time></trkpt><trkpt lat="43.0756833" lon="11.6802733"><ele>458.0</ele><time>2026-04-03T11:23:04.077Z</time></trkpt><trkpt lat="43.0757517" lon="11.6802583"><ele>462.0</ele><time>2026-04-03T11:23:05.077Z</time></trkpt><trkpt lat="43.075865" lon="11.6802283"><ele>465.99999999999994</ele><time>2026-04-03T11:23:07.078Z</time></trkpt><trkpt lat="43.075915" lon="11.680135"><ele>469.99999999999994</ele><time>2026-04-03T11:23:09.077Z</time></trkpt><trkpt lat="43.075935" lon="11.679975"><ele>474.0</ele><time>2026-04-03T11:23:11.078Z</time></trkpt><trkpt lat="43.07595" lon="11.6798867"><ele>478.0</ele><time>2026-04-03T11:23:12.077Z</time></trkpt><trkpt lat="43.0759617" lon="11.67979"><ele>478.00000000000006</ele><time>2026-04-03T11:23:13.078Z</time></trkpt><trkpt lat="43.0759667" lon="11.6796933"><ele>478.0</ele><time>2026-04-03T11:23:14.077Z</time></trkpt><trkpt lat="43.0759817" lon="11.6795967"><ele>478.0</ele><time>2026-04-03T11:23:15.077Z</time></trkpt><trkpt lat="43.076" lon="11.6795"><ele>478.0</ele><time>2026-04-03T11:23:16.077Z</time></trkpt><trkpt lat="43.07602" lon="11.6793533"><ele>478.00000000000006</ele><time>2026-04-03T11:23:18.077Z</time></trkpt><trkpt lat="43.0760917" lon="11.6793933"><ele>478.0</ele><time>2026-04-03T11:23:25.077Z</time></trkpt><trkpt lat="43.076115" lon="11.6795417"><ele>478.00000000000006</ele><time>2026-04-03T11:23:27.077Z</time></trkpt><trkpt lat="43.0761183" lon="11.67963"><ele>478.0</ele><time>2026-04-03T11:23:28.077Z</time></trkpt><trkpt lat="43.07612" lon="11.6797217"><ele>478.0</ele><time>2026-04-03T11:23:29.077Z</time></trkpt><trkpt lat="43.076115" lon="11.6798317"><ele>478.0</ele><time>2026-04-03T11:23:30.078Z</time></trkpt><trkpt lat="43.076105" lon="11.679945"><ele>478.00000000000006</ele><time>2026-04-03T11:23:31.077Z</time></trkpt><trkpt lat="43.0760833" lon="11.680065"><ele>478.0</ele><time>2026-04-03T11:23:32.077Z</time></trkpt><trkpt lat="43.076065" lon="11.6801883"><ele>478.0</ele><time>2026-04-03T11:23:33.077Z</time></trkpt><trkpt lat="43.0760483" lon="11.680315"><ele>477.99999999999994</ele><time>2026-04-03T11:23:34.077Z</time></trkpt><trkpt lat="43.076025" lon="11.6804383"><ele>477.99999999999994</ele><time>2026-04-03T11:23:35.078Z</time></trkpt><trkpt lat="43.0760133" lon="11.6805667"><ele>478.0</ele><time>2026-04-03T11:23:36.077Z</time></trkpt><trkpt lat="43.0760083" lon="11.6806933"><ele>478.0</ele><time>2026-04-03T11:23:37.077Z</time></trkpt><trkpt lat="43.076015" lon="11.6808217"><ele>478.00000000000006</ele><time>2026-04-03T11:23:38.077Z</time></trkpt><trkpt lat="43.0760267" lon="11.6809467"><ele>478.0</ele><time>2026-04-03T11:23:39.077Z</time></trkpt><trkpt lat="43.0760583" lon="11.681075"><ele>478.0</ele><time>2026-04-03T11:23:40.077Z</time></trkpt><trkpt lat="43.0760933" lon="11.6811867"><ele>478.0</ele><time>2026-04-03T11:23:41.077Z</time></trkpt><trkpt lat="43.07612" lon="11.6813067"><ele>478.00000000000006</ele><time>2026-04-03T11:23:42.077Z</time></trkpt><trkpt lat="43.076145" lon="11.681405"><ele>478.0</ele><time>2026-04-03T11:23:43.077Z</time></trkpt><trkpt lat="43.0761583" lon="11.6814933"><ele>477.0</ele><time>2026-04-03T11:23:44.077Z</time></trkpt><trkpt lat="43.0761567" lon="11.681605"><ele>475.99999999999994</ele><time>2026-04-03T11:23:46.078Z</time></trkpt><trkpt lat="43.07619" lon="11.6817033"><ele>474.99999999999994</ele><time>2026-04-03T11:23:49.077Z</time></trkpt><trkpt lat="43.07629" lon="11.6818133"><ele>474.0</ele><time>2026-04-03T11:23:51.078Z</time></trkpt><trkpt lat="43.0763683" lon="11.6818567"><ele>473.0</ele><time>2026-04-03T11:23:52.078Z</time></trkpt><trkpt lat="43.07646" lon="11.6818767"><ele>473.0</ele><time>2026-04-03T11:23:53.077Z</time></trkpt><trkpt lat="43.0765533" lon="11.68187"><ele>472.99999999999994</ele><time>2026-04-03T11:23:54.077Z</time></trkpt><trkpt lat="43.07666" lon="11.6818567"><ele>472.99999999999994</ele><time>2026-04-03T11:23:55.078Z</time></trkpt><trkpt lat="43.0767583" lon="11.681845"><ele>473.0</ele><time>2026-04-03T11:23:56.077Z</time></trkpt><trkpt lat="43.076845" lon="11.681825"><ele>473.0</ele><time>2026-04-03T11:23:57.077Z</time></trkpt><trkpt lat="43.0769167" lon="11.68181"><ele>475.0</ele><time>2026-04-03T11:23:58.077Z</time></trkpt><trkpt lat="43.0770267" lon="11.681755"><ele>476.99999999999994</ele><time>2026-04-03T11:24:00.077Z</time></trkpt><trkpt lat="43.0770833" lon="11.68171"><ele>478.99999999999994</ele><time>2026-04-03T11:24:02.077Z</time></trkpt><trkpt lat="43.0771083" lon="11.681615"><ele>481.0</ele><time>2026-04-03T11:24:04.077Z</time></trkpt><trkpt lat="43.0770417" lon="11.68163"><ele>483.0</ele><time>2026-04-03T11:24:08.077Z</time></trkpt><trkpt lat="43.0769267" lon="11.6817383"><ele>483.0</ele><time>2026-04-03T11:24:10.078Z</time></trkpt><trkpt lat="43.07683" lon="11.6817767"><ele>483.0</ele><time>2026-04-03T11:24:11.077Z</time></trkpt><trkpt lat="43.07671" lon="11.6817917"><ele>483.0</ele><time>2026-04-03T11:24:12.077Z</time></trkpt><trkpt lat="43.0765817" lon="11.6817967"><ele>483.0</ele><time>2026-04-03T11:24:13.077Z</time></trkpt><trkpt lat="43.0764633" lon="11.6818033"><ele>481.3333333333333</ele><time>2026-04-03T11:24:14.077Z</time></trkpt><trkpt lat="43.07637" lon="11.681775"><ele>479.66666666666663</ele><time>2026-04-03T11:24:15.077Z</time></trkpt><trkpt lat="43.0762833" lon="11.6817533"><ele>478.0</ele><time>2026-04-03T11:24:16.077Z</time></trkpt><trkpt lat="43.07622" lon="11.6816933"><ele>476.3333333333333</ele><time>2026-04-03T11:24:17.077Z</time></trkpt><trkpt lat="43.0761833" lon="11.6816167"><ele>474.66666666666663</ele><time>2026-04-03T11:24:18.077Z</time></trkpt><trkpt lat="43.0761783" lon="11.6817167"><ele>473.0</ele><time>2026-04-03T11:24:22.078Z</time></trkpt><trkpt lat="43.076215" lon="11.6818033"><ele>473.0</ele><time>2026-04-03T11:24:23.077Z</time></trkpt><trkpt lat="43.0762833" lon="11.6818883"><ele>472.99999999999994</ele><time>2026-04-03T11:24:24.077Z</time></trkpt><trkpt lat="43.0763533" lon="11.6819983"><ele>472.99999999999994</ele><time>2026-04-03T11:24:25.076Z</time></trkpt><trkpt lat="43.0764317" lon="11.6821067"><ele>473.0</ele><time>2026-04-03T11:24:26.077Z</time></trkpt><trkpt lat="43.0765" lon="11.682205"><ele>473.0</ele><time>2026-04-03T11:24:27.076Z</time></trkpt><trkpt lat="43.0765983" lon="11.6823017"><ele>471.75</ele><time>2026-04-03T11:24:28.076Z</time></trkpt><trkpt lat="43.076695" lon="11.68238"><ele>470.5</ele><time>2026-04-03T11:24:29.077Z</time></trkpt><trkpt lat="43.0767917" lon="11.682465"><ele>469.25</ele><time>2026-04-03T11:24:30.077Z</time></trkpt><trkpt lat="43.0768983" lon="11.6825483"><ele>468.0</ele><time>2026-04-03T11:24:31.076Z</time></trkpt><trkpt lat="43.0770067" lon="11.6826417"><ele>468.0</ele><time>2026-04-03T11:24:32.076Z</time></trkpt><trkpt lat="43.077105" lon="11.6827367"><ele>468.0</ele><time>2026-04-03T11:24:33.076Z</time></trkpt><trkpt lat="43.0771933" lon="11.682835"><ele>468.0</ele><time>2026-04-03T11:24:34.077Z</time></trkpt><trkpt lat="43.0772933" lon="11.68293"><ele>468.0</ele><time>2026-04-03T11:24:35.076Z</time></trkpt><trkpt lat="43.0774017" lon="11.6830333"><ele>465.0</ele><time>2026-04-03T11:24:36.077Z</time></trkpt><trkpt lat="43.0775017" lon="11.683125"><ele>462.0</ele><time>2026-04-03T11:24:37.076Z</time></trkpt><trkpt lat="43.0776067" lon="11.6832133"><ele>459.0</ele><time>2026-04-03T11:24:38.077Z</time></trkpt><trkpt lat="43.077715" lon="11.6832967"><ele>456.0</ele><time>2026-04-03T11:24:39.077Z</time></trkpt><trkpt lat="43.07781" lon="11.683385"><ele>456.0</ele><time>2026-04-03T11:24:40.077Z</time></trkpt><trkpt lat="43.0779117" lon="11.6834783"><ele>456.0</ele><time>2026-04-03T11:24:41.076Z</time></trkpt><trkpt lat="43.0780233" lon="11.6835633"><ele>456.0</ele><time>2026-04-03T11:24:42.076Z</time></trkpt><trkpt lat="43.0781283" lon="11.68365"><ele>456.0</ele><time>2026-04-03T11:24:43.076Z</time></trkpt><trkpt lat="43.078245" lon="11.6837333"><ele>453.25</ele><time>2026-04-03T11:24:44.077Z</time></trkpt><trkpt lat="43.0783467" lon="11.683825"><ele>450.5</ele><time>2026-04-03T11:24:45.076Z</time></trkpt><trkpt lat="43.0784317" lon="11.6839183"><ele>447.75</ele><time>2026-04-03T11:24:46.076Z</time></trkpt><trkpt lat="43.078525" lon="11.6840233"><ele>445.0</ele><time>2026-04-03T11:24:47.077Z</time></trkpt><trkpt lat="43.07863" lon="11.68413"><ele>445.0</ele><time>2026-04-03T11:24:48.076Z</time></trkpt><trkpt lat="43.0787367" lon="11.6842417"><ele>445.0</ele><time>2026-04-03T11:24:49.076Z</time></trkpt><trkpt lat="43.0788183" lon="11.684345"><ele>445.0</ele><time>2026-04-03T11:24:50.076Z</time></trkpt><trkpt lat="43.0789167" lon="11.6844367"><ele>445.0</ele><time>2026-04-03T11:24:51.076Z</time></trkpt><trkpt lat="43.079015" lon="11.68452"><ele>441.5</ele><time>2026-04-03T11:24:52.076Z</time></trkpt><trkpt lat="43.0791133" lon="11.6846133"><ele>438.0</ele><time>2026-04-03T11:24:53.076Z</time></trkpt><trkpt lat="43.0792083" lon="11.6847017"><ele>434.5</ele><time>2026-04-03T11:24:54.076Z</time></trkpt><trkpt lat="43.0793017" lon="11.684785"><ele>431.0</ele><time>2026-04-03T11:24:55.076Z</time></trkpt><trkpt lat="43.079395" lon="11.68488"><ele>431.0</ele><time>2026-04-03T11:24:56.076Z</time></trkpt><trkpt lat="43.079495" lon="11.684975"><ele>431.0</ele><time>2026-04-03T11:24:57.076Z</time></trkpt><trkpt lat="43.079595" lon="11.6850633"><ele>431.0</ele><time>2026-04-03T11:24:58.077Z</time></trkpt><trkpt lat="43.0797" lon="11.6851467"><ele>431.0</ele><time>2026-04-03T11:24:59.076Z</time></trkpt><trkpt lat="43.0798117" lon="11.6852167"><ele>428.5</ele><time>2026-04-03T11:25:00.077Z</time></trkpt><trkpt lat="43.0799133" lon="11.68529"><ele>426.0</ele><time>2026-04-03T11:25:01.077Z</time></trkpt><trkpt lat="43.080025" lon="11.6853533"><ele>423.5</ele><time>2026-04-03T11:25:02.077Z</time></trkpt><trkpt lat="43.0801317" lon="11.6854167"><ele>421.0</ele><time>2026-04-03T11:25:03.076Z</time></trkpt><trkpt lat="43.080225" lon="11.6855"><ele>419.25</ele><time>2026-04-03T11:25:04.076Z</time></trkpt><trkpt lat="43.0803067" lon="11.6856117"><ele>417.5</ele><time>2026-04-03T11:25:05.076Z</time></trkpt><trkpt lat="43.0803783" lon="11.6857417"><ele>415.75</ele><time>2026-04-03T11:25:06.076Z</time></trkpt><trkpt lat="43.0804483" lon="11.68588"><ele>414.0</ele><time>2026-04-03T11:25:07.077Z</time></trkpt><trkpt lat="43.0805067" lon="11.6860117"><ele>412.5</ele><time>2026-04-03T11:25:08.076Z</time></trkpt><trkpt lat="43.0805683" lon="11.6861167"><ele>411.0</ele><time>2026-04-03T11:25:09.076Z</time></trkpt><trkpt lat="43.0806183" lon="11.6861933"><ele>409.5</ele><time>2026-04-03T11:25:10.077Z</time></trkpt><trkpt lat="43.0806867" lon="11.6862383"><ele>408.0</ele><time>2026-04-03T11:25:11.076Z</time></trkpt><trkpt lat="43.0807867" lon="11.686205"><ele>406.5</ele><time>2026-04-03T11:25:13.077Z</time></trkpt><trkpt lat="43.0808233" lon="11.6861217"><ele>405.0</ele><time>2026-04-03T11:25:14.076Z</time></trkpt><trkpt lat="43.0808567" lon="11.6860067"><ele>405.0</ele><time>2026-04-03T11:25:15.076Z</time></trkpt><trkpt lat="43.0808867" lon="11.68589"><ele>405.0</ele><time>2026-04-03T11:25:16.077Z</time></trkpt><trkpt lat="43.080925" lon="11.685795"><ele>405.0</ele><time>2026-04-03T11:25:17.076Z</time></trkpt><trkpt lat="43.0809683" lon="11.6857067"><ele>405.0</ele><time>2026-04-03T11:25:18.076Z</time></trkpt><trkpt lat="43.08103" lon="11.6856733"><ele>405.0</ele><time>2026-04-03T11:25:19.076Z</time></trkpt><trkpt lat="43.081095" lon="11.685655"><ele>405.0</ele><time>2026-04-03T11:25:20.077Z</time></trkpt><trkpt lat="43.081165" lon="11.6856767"><ele>405.0</ele><time>2026-04-03T11:25:21.077Z</time></trkpt><trkpt lat="43.0812333" lon="11.6857367"><ele>405.0</ele><time>2026-04-03T11:25:22.076Z</time></trkpt><trkpt lat="43.0813033" lon="11.685845"><ele>405.0</ele><time>2026-04-03T11:25:23.076Z</time></trkpt><trkpt lat="43.0813717" lon="11.6859583"><ele>405.0</ele><time>2026-04-03T11:25:24.077Z</time></trkpt><trkpt lat="43.0814367" lon="11.6860683"><ele>405.0</ele><time>2026-04-03T11:25:25.076Z</time></trkpt><trkpt lat="43.081505" lon="11.6861883"><ele>404.5</ele><time>2026-04-03T11:25:26.077Z</time></trkpt><trkpt lat="43.0815717" lon="11.6863133"><ele>404.0</ele><time>2026-04-03T11:25:27.076Z</time></trkpt><trkpt lat="43.0816317" lon="11.6864533"><ele>403.5</ele><time>2026-04-03T11:25:28.076Z</time></trkpt><trkpt lat="43.0816767" lon="11.6866"><ele>403.0</ele><time>2026-04-03T11:25:29.077Z</time></trkpt><trkpt lat="43.0817283" lon="11.6867367"><ele>404.83333333333337</ele><time>2026-04-03T11:25:30.077Z</time></trkpt><trkpt lat="43.081785" lon="11.68687"><ele>406.6666666666667</ele><time>2026-04-03T11:25:31.076Z</time></trkpt><trkpt lat="43.0818367" lon="11.6869983"><ele>408.5</ele><time>2026-04-03T11:25:32.076Z</time></trkpt><trkpt lat="43.0818767" lon="11.6871067"><ele>410.33333333333337</ele><time>2026-04-03T11:25:33.076Z</time></trkpt><trkpt lat="43.0819083" lon="11.6871917"><ele>412.1666666666667</ele><time>2026-04-03T11:25:34.076Z</time></trkpt><trkpt lat="43.0819283" lon="11.6872767"><ele>414.0</ele><time>2026-04-03T11:25:35.076Z</time></trkpt><trkpt lat="43.0819267" lon="11.687365"><ele>414.6</ele><time>2026-04-03T11:25:36.076Z</time></trkpt><trkpt lat="43.081905" lon="11.6874783"><ele>415.2</ele><time>2026-04-03T11:25:37.076Z</time></trkpt><trkpt lat="43.0818533" lon="11.6875967"><ele>415.8</ele><time>2026-04-03T11:25:38.076Z</time></trkpt><trkpt lat="43.0817833" lon="11.6877183"><ele>416.40000000000003</ele><time>2026-04-03T11:25:39.076Z</time></trkpt><trkpt lat="43.0817" lon="11.6878267"><ele>417.0</ele><time>2026-04-03T11:25:40.076Z</time></trkpt><trkpt lat="43.0816133" lon="11.687925"><ele>417.6</ele><time>2026-04-03T11:25:41.076Z</time></trkpt><trkpt lat="43.08152" lon="11.688015"><ele>418.20000000000005</ele><time>2026-04-03T11:25:42.076Z</time></trkpt><trkpt lat="43.0814283" lon="11.688085"><ele>418.8</ele><time>2026-04-03T11:25:43.076Z</time></trkpt><trkpt lat="43.08133" lon="11.6881383"><ele>419.4</ele><time>2026-04-03T11:25:44.076Z</time></trkpt><trkpt lat="43.0812433" lon="11.6881717"><ele>420.0</ele><time>2026-04-03T11:25:45.076Z</time></trkpt><trkpt lat="43.0811683" lon="11.6881933"><ele>420.0</ele><time>2026-04-03T11:25:46.077Z</time></trkpt><trkpt lat="43.0810683" lon="11.6882367"><ele>420.0</ele><time>2026-04-03T11:25:48.076Z</time></trkpt><trkpt lat="43.0809683" lon="11.68829"><ele>420.0</ele><time>2026-04-03T11:25:50.077Z</time></trkpt><trkpt lat="43.0808817" lon="11.688325"><ele>420.0</ele><time>2026-04-03T11:25:52.077Z</time></trkpt><trkpt lat="43.0807967" lon="11.6883617"><ele>420.0</ele><time>2026-04-03T11:25:54.076Z</time></trkpt><trkpt lat="43.08073" lon="11.688395"><ele>418.0</ele><time>2026-04-03T11:25:55.076Z</time></trkpt><trkpt lat="43.0806517" lon="11.6884367"><ele>416.0</ele><time>2026-04-03T11:25:56.076Z</time></trkpt><trkpt lat="43.0805517" lon="11.688475"><ele>414.0</ele><time>2026-04-03T11:25:57.077Z</time></trkpt><trkpt lat="43.0804417" lon="11.6885267"><ele>412.0</ele><time>2026-04-03T11:25:58.077Z</time></trkpt><trkpt lat="43.08032" lon="11.6885867"><ele>410.0</ele><time>2026-04-03T11:25:59.076Z</time></trkpt><trkpt lat="43.0801967" lon="11.6886533"><ele>409.75</ele><time>2026-04-03T11:26:00.077Z</time></trkpt><trkpt lat="43.0800717" lon="11.68873"><ele>409.5</ele><time>2026-04-03T11:26:01.076Z</time></trkpt><trkpt lat="43.079935" lon="11.6888167"><ele>409.25</ele><time>2026-04-03T11:26:02.076Z</time></trkpt><trkpt lat="43.07979" lon="11.6888933"><ele>409.0</ele><time>2026-04-03T11:26:03.077Z</time></trkpt><trkpt lat="43.079655" lon="11.6889633"><ele>409.0</ele><time>2026-04-03T11:26:04.076Z</time></trkpt><trkpt lat="43.079525" lon="11.6890067"><ele>409.0</ele><time>2026-04-03T11:26:05.077Z</time></trkpt><trkpt lat="43.0794017" lon="11.68906"><ele>409.0</ele><time>2026-04-03T11:26:06.076Z</time></trkpt><trkpt lat="43.0792583" lon="11.689145"><ele>409.0</ele><time>2026-04-03T11:26:07.076Z</time></trkpt><trkpt lat="43.0791233" lon="11.6892317"><ele>409.25</ele><time>2026-04-03T11:26:08.077Z</time></trkpt><trkpt lat="43.0789967" lon="11.689325"><ele>409.5</ele><time>2026-04-03T11:26:09.076Z</time></trkpt><trkpt lat="43.07888" lon="11.6894067"><ele>409.75</ele><time>2026-04-03T11:26:10.076Z</time></trkpt><trkpt lat="43.0787817" lon="11.6895117"><ele>410.0</ele><time>2026-04-03T11:26:11.077Z</time></trkpt><trkpt lat="43.0786883" lon="11.68963"><ele>410.0</ele><time>2026-04-03T11:26:12.076Z</time></trkpt><trkpt lat="43.0785983" lon="11.6897683"><ele>410.0</ele><time>2026-04-03T11:26:13.076Z</time></trkpt><trkpt lat="43.0785" lon="11.6898967"><ele>410.0</ele><time>2026-04-03T11:26:14.076Z</time></trkpt><trkpt lat="43.0784033" lon="11.6899967"><ele>410.0</ele><time>2026-04-03T11:26:15.077Z</time></trkpt><trkpt lat="43.0783067" lon="11.690065"><ele>410.0</ele><time>2026-04-03T11:26:16.077Z</time></trkpt><trkpt lat="43.078195" lon="11.6900933"><ele>410.0</ele><time>2026-04-03T11:26:17.076Z</time></trkpt><trkpt lat="43.07807" lon="11.6901"><ele>410.0</ele><time>2026-04-03T11:26:18.076Z</time></trkpt><trkpt lat="43.0779433" lon="11.690085"><ele>410.0</ele><time>2026-04-03T11:26:19.077Z</time></trkpt><trkpt lat="43.0778183" lon="11.6900783"><ele>410.0</ele><time>2026-04-03T11:26:20.076Z</time></trkpt><trkpt lat="43.0776767" lon="11.6900733"><ele>410.0</ele><time>2026-04-03T11:26:21.076Z</time></trkpt><trkpt lat="43.0775383" lon="11.69007"><ele>410.0</ele><time>2026-04-03T11:26:22.076Z</time></trkpt><trkpt lat="43.0773983" lon="11.6900617"><ele>410.0</ele><time>2026-04-03T11:26:23.076Z</time></trkpt><trkpt lat="43.0772517" lon="11.6900767"><ele>410.0</ele><time>2026-04-03T11:26:24.076Z</time></trkpt><trkpt lat="43.0771283" lon="11.6900767"><ele>410.0</ele><time>2026-04-03T11:26:25.076Z</time></trkpt><trkpt lat="43.077005" lon="11.6900733"><ele>410.0</ele><time>2026-04-03T11:26:26.076Z</time></trkpt><trkpt lat="43.0768783" lon="11.6900833"><ele>410.0</ele><time>2026-04-03T11:26:27.077Z</time></trkpt><trkpt lat="43.07675" lon="11.690085"><ele>410.0</ele><time>2026-04-03T11:26:28.077Z</time></trkpt><trkpt lat="43.0766333" lon="11.6900933"><ele>410.0</ele><time>2026-04-03T11:26:29.076Z</time></trkpt><trkpt lat="43.0765383" lon="11.6901"><ele>410.0</ele><time>2026-04-03T11:26:30.077Z</time></trkpt><trkpt lat="43.0764467" lon="11.69011"><ele>410.0</ele><time>2026-04-03T11:26:31.076Z</time></trkpt><trkpt lat="43.0763633" lon="11.6901167"><ele>410.0</ele><time>2026-04-03T11:26:32.076Z</time></trkpt><trkpt lat="43.0762867" lon="11.690135"><ele>409.8333333333333</ele><time>2026-04-03T11:26:33.077Z</time></trkpt><trkpt lat="43.07622" lon="11.6901517"><ele>409.66666666666663</ele><time>2026-04-03T11:26:34.076Z</time></trkpt><trkpt lat="43.0761383" lon="11.6901583"><ele>409.5</ele><time>2026-04-03T11:26:36.076Z</time></trkpt><trkpt lat="43.0760333" lon="11.690175"><ele>409.33333333333337</ele><time>2026-04-03T11:26:38.076Z</time></trkpt><trkpt lat="43.0759567" lon="11.6901717"><ele>409.1666666666667</ele><time>2026-04-03T11:26:39.076Z</time></trkpt><trkpt lat="43.07588" lon="11.69017"><ele>409.0</ele><time>2026-04-03T11:26:40.076Z</time></trkpt><trkpt lat="43.0757783" lon="11.6901583"><ele>410.5</ele><time>2026-04-03T11:26:41.076Z</time></trkpt><trkpt lat="43.07567" lon="11.6901533"><ele>412.0</ele><time>2026-04-03T11:26:42.076Z</time></trkpt><trkpt lat="43.07554" lon="11.690155"><ele>413.5</ele><time>2026-04-03T11:26:43.076Z</time></trkpt><trkpt lat="43.0753883" lon="11.69014"><ele>415.0</ele><time>2026-04-03T11:26:44.076Z</time></trkpt><trkpt lat="43.0752317" lon="11.6901217"><ele>415.0</ele><time>2026-04-03T11:26:45.076Z</time></trkpt><trkpt lat="43.0750817" lon="11.6900967"><ele>415.0</ele><time>2026-04-03T11:26:46.077Z</time></trkpt><trkpt lat="43.0749217" lon="11.69006"><ele>415.0</ele><time>2026-04-03T11:26:47.076Z</time></trkpt><trkpt lat="43.0747433" lon="11.6900183"><ele>417.5</ele><time>2026-04-03T11:26:48.076Z</time></trkpt><trkpt lat="43.0745817" lon="11.6899767"><ele>420.0</ele><time>2026-04-03T11:26:49.076Z</time></trkpt><trkpt lat="43.0744417" lon="11.6899467"><ele>422.5</ele><time>2026-04-03T11:26:50.076Z</time></trkpt><trkpt lat="43.07431" lon="11.6899583"><ele>425.0</ele><time>2026-04-03T11:26:51.077Z</time></trkpt><trkpt lat="43.0741833" lon="11.68998"><ele>427.25</ele><time>2026-04-03T11:26:52.076Z</time></trkpt><trkpt lat="43.0740533" lon="11.6900233"><ele>429.5</ele><time>2026-04-03T11:26:53.077Z</time></trkpt><trkpt lat="43.0739317" lon="11.6900917"><ele>431.75</ele><time>2026-04-03T11:26:54.077Z</time></trkpt><trkpt lat="43.07381" lon="11.6901817"><ele>434.0</ele><time>2026-04-03T11:26:55.076Z</time></trkpt><trkpt lat="43.073725" lon="11.6902783"><ele>434.75</ele><time>2026-04-03T11:26:56.076Z</time></trkpt><trkpt lat="43.0736383" lon="11.6903917"><ele>435.5</ele><time>2026-04-03T11:26:57.076Z</time></trkpt><trkpt lat="43.0735617" lon="11.6905067"><ele>436.25</ele><time>2026-04-03T11:26:58.077Z</time></trkpt><trkpt lat="43.0734967" lon="11.69063"><ele>437.0</ele><time>2026-04-03T11:26:59.077Z</time></trkpt><trkpt lat="43.073445" lon="11.69077"><ele>437.0</ele><time>2026-04-03T11:27:00.076Z</time></trkpt><trkpt lat="43.07339" lon="11.6909167"><ele>437.0</ele><time>2026-04-03T11:27:01.076Z</time></trkpt><trkpt lat="43.0733267" lon="11.691075"><ele>437.0</ele><time>2026-04-03T11:27:02.076Z</time></trkpt><trkpt lat="43.073265" lon="11.6912417"><ele>437.0</ele><time>2026-04-03T11:27:03.076Z</time></trkpt><trkpt lat="43.07318" lon="11.6914117"><ele>441.66666666666663</ele><time>2026-04-03T11:27:04.077Z</time></trkpt><trkpt lat="43.07309" lon="11.6915783"><ele>446.33333333333337</ele><time>2026-04-03T11:27:05.076Z</time></trkpt><trkpt lat="43.0730017" lon="11.691755"><ele>451.0</ele><time>2026-04-03T11:27:06.076Z</time></trkpt><trkpt lat="43.0729083" lon="11.6919333"><ele>451.0</ele><time>2026-04-03T11:27:07.077Z</time></trkpt><trkpt lat="43.0728117" lon="11.6921233"><ele>451.0</ele><time>2026-04-03T11:27:08.076Z</time></trkpt><trkpt lat="43.0727133" lon="11.6922967"><ele>451.0</ele><time>2026-04-03T11:27:09.077Z</time></trkpt><trkpt lat="43.0726433" lon="11.692455"><ele>451.0</ele><time>2026-04-03T11:27:10.077Z</time></trkpt><trkpt lat="43.0725783" lon="11.692595"><ele>451.0</ele><time>2026-04-03T11:27:11.076Z</time></trkpt><trkpt lat="43.0725267" lon="11.6927217"><ele>451.0</ele><time>2026-04-03T11:27:12.076Z</time></trkpt><trkpt lat="43.0724833" lon="11.69284"><ele>451.0</ele><time>2026-04-03T11:27:13.076Z</time></trkpt><trkpt lat="43.0724383" lon="11.6929583"><ele>451.0</ele><time>2026-04-03T11:27:14.076Z</time></trkpt><trkpt lat="43.0723967" lon="11.693075"><ele>450.4</ele><time>2026-04-03T11:27:15.077Z</time></trkpt><trkpt lat="43.0723483" lon="11.6931867"><ele>449.8</ele><time>2026-04-03T11:27:16.076Z</time></trkpt><trkpt lat="43.0722867" lon="11.6933"><ele>449.19999999999993</ele><time>2026-04-03T11:27:17.076Z</time></trkpt><trkpt lat="43.0722133" lon="11.6934117"><ele>448.59999999999997</ele><time>2026-04-03T11:27:18.076Z</time></trkpt><trkpt lat="43.07213" lon="11.693515"><ele>448.0</ele><time>2026-04-03T11:27:19.076Z</time></trkpt><trkpt lat="43.072055" lon="11.693585"><ele>445.83333333333337</ele><time>2026-04-03T11:27:20.076Z</time></trkpt><trkpt lat="43.0719667" lon="11.6936317"><ele>443.6666666666667</ele><time>2026-04-03T11:27:21.077Z</time></trkpt><trkpt lat="43.0718833" lon="11.6936567"><ele>441.5</ele><time>2026-04-03T11:27:22.076Z</time></trkpt><trkpt lat="43.0718083" lon="11.6936683"><ele>439.33333333333337</ele><time>2026-04-03T11:27:23.076Z</time></trkpt><trkpt lat="43.0717417" lon="11.6936533"><ele>437.1666666666667</ele><time>2026-04-03T11:27:24.076Z</time></trkpt><trkpt lat="43.0717083" lon="11.6937667"><ele>435.0</ele><time>2026-04-03T11:27:26.076Z</time></trkpt><trkpt lat="43.07178" lon="11.6939317"><ele>435.0</ele><time>2026-04-03T11:27:28.077Z</time></trkpt><trkpt lat="43.0718333" lon="11.6940383"><ele>435.0</ele><time>2026-04-03T11:27:29.076Z</time></trkpt><trkpt lat="43.0718733" lon="11.6941667"><ele>435.0</ele><time>2026-04-03T11:27:30.077Z</time></trkpt><trkpt lat="43.0718933" lon="11.6942983"><ele>435.0</ele><time>2026-04-03T11:27:31.076Z</time></trkpt><trkpt lat="43.0718983" lon="11.6944317"><ele>435.0</ele><time>2026-04-03T11:27:32.077Z</time></trkpt><trkpt lat="43.0718983" lon="11.6945467"><ele>433.0</ele><time>2026-04-03T11:27:33.077Z</time></trkpt><trkpt lat="43.071885" lon="11.6946667"><ele>431.0</ele><time>2026-04-03T11:27:34.076Z</time></trkpt><trkpt lat="43.0718533" lon="11.6947867"><ele>429.0</ele><time>2026-04-03T11:27:35.077Z</time></trkpt><trkpt lat="43.071815" lon="11.69491"><ele>427.0</ele><time>2026-04-03T11:27:36.076Z</time></trkpt><trkpt lat="43.0717433" lon="11.69504"><ele>425.0</ele><time>2026-04-03T11:27:37.076Z</time></trkpt><trkpt lat="43.0716467" lon="11.6951633"><ele>421.25</ele><time>2026-04-03T11:27:38.076Z</time></trkpt><trkpt lat="43.0715467" lon="11.695275"><ele>417.5</ele><time>2026-04-03T11:27:39.076Z</time></trkpt><trkpt lat="43.071425" lon="11.69539"><ele>413.75</ele><time>2026-04-03T11:27:40.076Z</time></trkpt><trkpt lat="43.0712933" lon="11.6954883"><ele>410.0</ele><time>2026-04-03T11:27:41.076Z</time></trkpt><trkpt lat="43.0711633" lon="11.6955717"><ele>410.0</ele><time>2026-04-03T11:27:42.077Z</time></trkpt><trkpt lat="43.0710167" lon="11.6956417"><ele>410.0</ele><time>2026-04-03T11:27:43.076Z</time></trkpt><trkpt lat="43.0708733" lon="11.6957367"><ele>410.0</ele><time>2026-04-03T11:27:44.076Z</time></trkpt><trkpt lat="43.07074" lon="11.695835"><ele>409.25</ele><time>2026-04-03T11:27:45.076Z</time></trkpt><trkpt lat="43.070625" lon="11.695945"><ele>408.5</ele><time>2026-04-03T11:27:46.076Z</time></trkpt><trkpt lat="43.0705133" lon="11.6960733"><ele>407.75</ele><time>2026-04-03T11:27:47.077Z</time></trkpt><trkpt lat="43.0704067" lon="11.696205"><ele>407.0</ele><time>2026-04-03T11:27:48.077Z</time></trkpt><trkpt lat="43.0702983" lon="11.6963317"><ele>405.8</ele><time>2026-04-03T11:27:49.077Z</time></trkpt><trkpt lat="43.0702033" lon="11.696445"><ele>404.6</ele><time>2026-04-03T11:27:50.076Z</time></trkpt><trkpt lat="43.0701167" lon="11.6965533"><ele>403.40000000000003</ele><time>2026-04-03T11:27:51.076Z</time></trkpt><trkpt lat="43.0700517" lon="11.6966433"><ele>402.20000000000005</ele><time>2026-04-03T11:27:52.076Z</time></trkpt><trkpt lat="43.0699917" lon="11.6967217"><ele>401.0</ele><time>2026-04-03T11:27:53.076Z</time></trkpt><trkpt lat="43.06994" lon="11.6967967"><ele>399.49999999999994</ele><time>2026-04-03T11:27:54.076Z</time></trkpt><trkpt lat="43.069895" lon="11.6968817"><ele>398.0</ele><time>2026-04-03T11:27:55.077Z</time></trkpt><trkpt lat="43.069875" lon="11.6969817"><ele>396.5</ele><time>2026-04-03T11:27:56.076Z</time></trkpt><trkpt lat="43.0698733" lon="11.697095"><ele>395.0</ele><time>2026-04-03T11:27:57.076Z</time></trkpt><trkpt lat="43.0698917" lon="11.6972033"><ele>393.49999999999994</ele><time>2026-04-03T11:27:58.076Z</time></trkpt><trkpt lat="43.0699217" lon="11.69731"><ele>392.0</ele><time>2026-04-03T11:27:59.076Z</time></trkpt><trkpt lat="43.069975" lon="11.6974133"><ele>391.40000000000003</ele><time>2026-04-03T11:28:00.076Z</time></trkpt><trkpt lat="43.0700317" lon="11.6975183"><ele>390.8</ele><time>2026-04-03T11:28:01.076Z</time></trkpt><trkpt lat="43.0700983" lon="11.6976167"><ele>390.2</ele><time>2026-04-03T11:28:02.077Z</time></trkpt><trkpt lat="43.0701583" lon="11.6977083"><ele>389.6</ele><time>2026-04-03T11:28:03.076Z</time></trkpt><trkpt lat="43.0701967" lon="11.697825"><ele>389.0</ele><time>2026-04-03T11:28:04.076Z</time></trkpt><trkpt lat="43.070215" lon="11.6979583"><ele>386.5</ele><time>2026-04-03T11:28:05.076Z</time></trkpt><trkpt lat="43.0702117" lon="11.6981083"><ele>384.0</ele><time>2026-04-03T11:28:06.076Z</time></trkpt><trkpt lat="43.0701833" lon="11.6982633"><ele>381.5</ele><time>2026-04-03T11:28:07.076Z</time></trkpt><trkpt lat="43.070135" lon="11.6984183"><ele>379.0</ele><time>2026-04-03T11:28:08.076Z</time></trkpt><trkpt lat="43.0700633" lon="11.6985717"><ele>377.25</ele><time>2026-04-03T11:28:09.076Z</time></trkpt><trkpt lat="43.0699883" lon="11.6987217"><ele>375.5</ele><time>2026-04-03T11:28:10.076Z</time></trkpt><trkpt lat="43.06991" lon="11.698865"><ele>373.75</ele><time>2026-04-03T11:28:11.076Z</time></trkpt><trkpt lat="43.0698417" lon="11.6990117"><ele>372.0</ele><time>2026-04-03T11:28:12.076Z</time></trkpt><trkpt lat="43.069795" lon="11.6991717"><ele>371.5</ele><time>2026-04-03T11:28:13.076Z</time></trkpt><trkpt lat="43.0697467" lon="11.6993217"><ele>371.0</ele><time>2026-04-03T11:28:14.076Z</time></trkpt><trkpt lat="43.0697133" lon="11.6994867"><ele>370.5</ele><time>2026-04-03T11:28:15.076Z</time></trkpt><trkpt lat="43.0696983" lon="11.6996733"><ele>370.0</ele><time>2026-04-03T11:28:16.076Z</time></trkpt><trkpt lat="43.0696933" lon="11.6998617"><ele>368.25</ele><time>2026-04-03T11:28:17.076Z</time></trkpt><trkpt lat="43.0696867" lon="11.70007"><ele>366.5</ele><time>2026-04-03T11:28:18.075Z</time></trkpt><trkpt lat="43.069675" lon="11.7002667"><ele>364.75</ele><time>2026-04-03T11:28:19.075Z</time></trkpt><trkpt lat="43.0696567" lon="11.70046"><ele>363.0</ele><time>2026-04-03T11:28:20.075Z</time></trkpt><trkpt lat="43.0696317" lon="11.7006483"><ele>360.25</ele><time>2026-04-03T11:28:21.075Z</time></trkpt><trkpt lat="43.06962" lon="11.700825"><ele>357.5</ele><time>2026-04-03T11:28:22.076Z</time></trkpt><trkpt lat="43.069595" lon="11.70098"><ele>354.75</ele><time>2026-04-03T11:28:23.076Z</time></trkpt><trkpt lat="43.069555" lon="11.7011233"><ele>352.0</ele><time>2026-04-03T11:28:24.075Z</time></trkpt><trkpt lat="43.069525" lon="11.7012467"><ele>350.3333333333333</ele><time>2026-04-03T11:28:25.075Z</time></trkpt><trkpt lat="43.0694917" lon="11.701365"><ele>348.66666666666663</ele><time>2026-04-03T11:28:26.075Z</time></trkpt><trkpt lat="43.0694717" lon="11.7014767"><ele>347.0</ele><time>2026-04-03T11:28:27.076Z</time></trkpt><trkpt lat="43.0694783" lon="11.7015883"><ele>345.3333333333333</ele><time>2026-04-03T11:28:28.075Z</time></trkpt><trkpt lat="43.0694933" lon="11.7017083"><ele>343.6666666666667</ele><time>2026-04-03T11:28:29.075Z</time></trkpt><trkpt lat="43.06953" lon="11.701825"><ele>342.0</ele><time>2026-04-03T11:28:30.076Z</time></trkpt><trkpt lat="43.0695867" lon="11.70196"><ele>340.5</ele><time>2026-04-03T11:28:31.076Z</time></trkpt><trkpt lat="43.069655" lon="11.7020967"><ele>339.0</ele><time>2026-04-03T11:28:32.075Z</time></trkpt><trkpt lat="43.069715" lon="11.7022367"><ele>337.5</ele><time>2026-04-03T11:28:33.075Z</time></trkpt><trkpt lat="43.069755" lon="11.7023833"><ele>336.0</ele><time>2026-04-03T11:28:34.075Z</time></trkpt><trkpt lat="43.0697567" lon="11.7025283"><ele>336.0</ele><time>2026-04-03T11:28:35.076Z</time></trkpt><trkpt lat="43.069735" lon="11.70268"><ele>336.0</ele><time>2026-04-03T11:28:36.075Z</time></trkpt><trkpt lat="43.0697" lon="11.7028283"><ele>336.0</ele><time>2026-04-03T11:28:37.075Z</time></trkpt><trkpt lat="43.0696567" lon="11.7029817"><ele>336.0</ele><time>2026-04-03T11:28:38.075Z</time></trkpt><trkpt lat="43.0695967" lon="11.703135"><ele>335.20000000000005</ele><time>2026-04-03T11:28:39.075Z</time></trkpt><trkpt lat="43.06954" lon="11.703275"><ele>334.40000000000003</ele><time>2026-04-03T11:28:40.076Z</time></trkpt><trkpt lat="43.06949" lon="11.70339"><ele>333.6</ele><time>2026-04-03T11:28:41.075Z</time></trkpt><trkpt lat="43.0694517" lon="11.7034967"><ele>332.8</ele><time>2026-04-03T11:28:42.076Z</time></trkpt><trkpt lat="43.069435" lon="11.7036017"><ele>332.0</ele><time>2026-04-03T11:28:43.075Z</time></trkpt><trkpt lat="43.0694417" lon="11.703705"><ele>331.75</ele><time>2026-04-03T11:28:44.076Z</time></trkpt><trkpt lat="43.0694767" lon="11.7038267"><ele>331.5</ele><time>2026-04-03T11:28:45.075Z</time></trkpt><trkpt lat="43.06954" lon="11.7039667"><ele>331.25</ele><time>2026-04-03T11:28:46.075Z</time></trkpt><trkpt lat="43.069625" lon="11.704125"><ele>331.0</ele><time>2026-04-03T11:28:47.075Z</time></trkpt><trkpt lat="43.069735" lon="11.7042933"><ele>331.0</ele><time>2026-04-03T11:28:48.075Z</time></trkpt><trkpt lat="43.06986" lon="11.704475"><ele>331.0</ele><time>2026-04-03T11:28:49.076Z</time></trkpt><trkpt lat="43.0699883" lon="11.7046617"><ele>331.0</ele><time>2026-04-03T11:28:50.075Z</time></trkpt><trkpt lat="43.0701317" lon="11.70486"><ele>331.0</ele><time>2026-04-03T11:28:51.075Z</time></trkpt><trkpt lat="43.0702733" lon="11.7050667"><ele>331.0</ele><time>2026-04-03T11:28:52.075Z</time></trkpt><trkpt lat="43.0704033" lon="11.7052717"><ele>331.0</ele><time>2026-04-03T11:28:53.076Z</time></trkpt><trkpt lat="43.070535" lon="11.7054667"><ele>331.3333333333333</ele><time>2026-04-03T11:28:54.075Z</time></trkpt><trkpt lat="43.0706633" lon="11.7056633"><ele>331.6666666666667</ele><time>2026-04-03T11:28:55.076Z</time></trkpt><trkpt lat="43.0707867" lon="11.7058783"><ele>332.0</ele><time>2026-04-03T11:28:56.075Z</time></trkpt><trkpt lat="43.0709033" lon="11.706125"><ele>333.0</ele><time>2026-04-03T11:28:57.075Z</time></trkpt><trkpt lat="43.071015" lon="11.706375"><ele>334.0</ele><time>2026-04-03T11:28:58.075Z</time></trkpt><trkpt lat="43.0711217" lon="11.7066317"><ele>335.0</ele><time>2026-04-03T11:28:59.076Z</time></trkpt><trkpt lat="43.071215" lon="11.706875"><ele>335.6666666666667</ele><time>2026-04-03T11:29:00.075Z</time></trkpt><trkpt lat="43.0713033" lon="11.7070983"><ele>336.3333333333333</ele><time>2026-04-03T11:29:01.076Z</time></trkpt><trkpt lat="43.071365" lon="11.7073033"><ele>337.0</ele><time>2026-04-03T11:29:02.076Z</time></trkpt><trkpt lat="43.0714033" lon="11.7075117"><ele>337.0</ele><time>2026-04-03T11:29:03.075Z</time></trkpt><trkpt lat="43.0714283" lon="11.7077367"><ele>337.0</ele><time>2026-04-03T11:29:04.075Z</time></trkpt><trkpt lat="43.0714533" lon="11.707955"><ele>337.0</ele><time>2026-04-03T11:29:05.075Z</time></trkpt><trkpt lat="43.07149" lon="11.7081833"><ele>337.0</ele><time>2026-04-03T11:29:06.075Z</time></trkpt><trkpt lat="43.0715383" lon="11.70843"><ele>337.0</ele><time>2026-04-03T11:29:07.075Z</time></trkpt><trkpt lat="43.0715967" lon="11.708685"><ele>337.0</ele><time>2026-04-03T11:29:08.075Z</time></trkpt><trkpt lat="43.0716667" lon="11.708935"><ele>338.0</ele><time>2026-04-03T11:29:09.076Z</time></trkpt><trkpt lat="43.07174" lon="11.709195"><ele>339.0</ele><time>2026-04-03T11:29:10.075Z</time></trkpt><trkpt lat="43.0718133" lon="11.709445"><ele>340.0</ele><time>2026-04-03T11:29:11.075Z</time></trkpt><trkpt lat="43.07187" lon="11.7096783"><ele>340.5</ele><time>2026-04-03T11:29:12.075Z</time></trkpt><trkpt lat="43.0719233" lon="11.7098817"><ele>341.0</ele><time>2026-04-03T11:29:13.076Z</time></trkpt><trkpt lat="43.071975" lon="11.7100617"><ele>341.5</ele><time>2026-04-03T11:29:14.075Z</time></trkpt><trkpt lat="43.07203" lon="11.7102267"><ele>342.0</ele><time>2026-04-03T11:29:15.075Z</time></trkpt><trkpt lat="43.07207" lon="11.7103833"><ele>342.3333333333333</ele><time>2026-04-03T11:29:16.075Z</time></trkpt><trkpt lat="43.0721033" lon="11.7105033"><ele>342.6666666666667</ele><time>2026-04-03T11:29:17.075Z</time></trkpt><trkpt lat="43.0721367" lon="11.710625"><ele>343.0</ele><time>2026-04-03T11:29:18.075Z</time></trkpt><trkpt lat="43.0721717" lon="11.7107167"><ele>343.33333333333337</ele><time>2026-04-03T11:29:19.075Z</time></trkpt><trkpt lat="43.0721983" lon="11.710795"><ele>343.6666666666667</ele><time>2026-04-03T11:29:21.075Z</time></trkpt><trkpt lat="43.072265" lon="11.71069"><ele>344.0</ele><time>2026-04-03T11:29:25.075Z</time></trkpt><trkpt lat="43.0722983" lon="11.7105967"><ele>344.0</ele><time>2026-04-03T11:29:26.075Z</time></trkpt><trkpt lat="43.07233" lon="11.71048"><ele>344.0</ele><time>2026-04-03T11:29:27.076Z</time></trkpt><trkpt lat="43.072365" lon="11.7103617"><ele>344.0</ele><time>2026-04-03T11:29:28.075Z</time></trkpt><trkpt lat="43.0724017" lon="11.7102533"><ele>344.0</ele><time>2026-04-03T11:29:29.076Z</time></trkpt><trkpt lat="43.0724333" lon="11.7101533"><ele>344.0</ele><time>2026-04-03T11:29:30.075Z</time></trkpt><trkpt lat="43.0724683" lon="11.71005"><ele>344.0</ele><time>2026-04-03T11:29:31.076Z</time></trkpt><trkpt lat="43.0725083" lon="11.709945"><ele>344.79999999999995</ele><time>2026-04-03T11:29:32.075Z</time></trkpt><trkpt lat="43.0725583" lon="11.7098367"><ele>345.59999999999997</ele><time>2026-04-03T11:29:33.075Z</time></trkpt><trkpt lat="43.07261" lon="11.709735"><ele>346.4</ele><time>2026-04-03T11:29:34.075Z</time></trkpt><trkpt lat="43.07268" lon="11.7096417"><ele>347.2</ele><time>2026-04-03T11:29:35.076Z</time></trkpt><trkpt lat="43.0727583" lon="11.709555"><ele>348.0</ele><time>2026-04-03T11:29:36.075Z</time></trkpt><trkpt lat="43.0728517" lon="11.709485"><ele>348.0</ele><time>2026-04-03T11:29:37.076Z</time></trkpt><trkpt lat="43.0729567" lon="11.709435"><ele>348.0</ele><time>2026-04-03T11:29:38.075Z</time></trkpt><trkpt lat="43.0730833" lon="11.709385"><ele>348.0</ele><time>2026-04-03T11:29:39.075Z</time></trkpt><trkpt lat="43.0732183" lon="11.70935"><ele>348.0</ele><time>2026-04-03T11:29:40.075Z</time></trkpt><trkpt lat="43.0733567" lon="11.7093317"><ele>347.3333333333333</ele><time>2026-04-03T11:29:41.075Z</time></trkpt><trkpt lat="43.0735017" lon="11.7093083"><ele>346.66666666666663</ele><time>2026-04-03T11:29:42.076Z</time></trkpt><trkpt lat="43.073655" lon="11.709295"><ele>346.0</ele><time>2026-04-03T11:29:43.076Z</time></trkpt><trkpt lat="43.0738033" lon="11.70926"><ele>346.0</ele><time>2026-04-03T11:29:44.075Z</time></trkpt><trkpt lat="43.0739517" lon="11.709215"><ele>346.0</ele><time>2026-04-03T11:29:45.075Z</time></trkpt><trkpt lat="43.0740683" lon="11.7091383"><ele>346.0</ele><time>2026-04-03T11:29:46.075Z</time></trkpt><trkpt lat="43.074165" lon="11.709025"><ele>346.0</ele><time>2026-04-03T11:29:47.075Z</time></trkpt><trkpt lat="43.0742483" lon="11.7089233"><ele>346.5</ele><time>2026-04-03T11:29:48.076Z</time></trkpt><trkpt lat="43.0743083" lon="11.708805"><ele>347.0</ele><time>2026-04-03T11:29:49.076Z</time></trkpt><trkpt lat="43.0743467" lon="11.708655"><ele>347.5</ele><time>2026-04-03T11:29:50.075Z</time></trkpt><trkpt lat="43.0743817" lon="11.7084783"><ele>348.0</ele><time>2026-04-03T11:29:51.075Z</time></trkpt><trkpt lat="43.0744083" lon="11.7082867"><ele>348.3333333333333</ele><time>2026-04-03T11:29:52.075Z</time></trkpt><trkpt lat="43.074435" lon="11.7080667"><ele>348.66666666666663</ele><time>2026-04-03T11:29:53.075Z</time></trkpt><trkpt lat="43.0744633" lon="11.707855"><ele>349.0</ele><time>2026-04-03T11:29:54.075Z</time></trkpt><trkpt lat="43.074495" lon="11.70767"><ele>349.0</ele><time>2026-04-03T11:29:55.075Z</time></trkpt><trkpt lat="43.0745367" lon="11.707505"><ele>349.0</ele><time>2026-04-03T11:29:56.076Z</time></trkpt><trkpt lat="43.0746033" lon="11.707375"><ele>349.0</ele><time>2026-04-03T11:29:57.075Z</time></trkpt><trkpt lat="43.0746867" lon="11.707265"><ele>349.0</ele><time>2026-04-03T11:29:58.076Z</time></trkpt><trkpt lat="43.074785" lon="11.7071767"><ele>349.0</ele><time>2026-04-03T11:29:59.075Z</time></trkpt><trkpt lat="43.0749" lon="11.707075"><ele>349.0</ele><time>2026-04-03T11:30:00.075Z</time></trkpt><trkpt lat="43.0750233" lon="11.70697"><ele>349.0</ele><time>2026-04-03T11:30:01.075Z</time></trkpt><trkpt lat="43.07514" lon="11.7068733"><ele>349.0</ele><time>2026-04-03T11:30:02.076Z</time></trkpt><trkpt lat="43.075265" lon="11.7067833"><ele>350.75</ele><time>2026-04-03T11:30:03.075Z</time></trkpt><trkpt lat="43.0753933" lon="11.706715"><ele>352.5</ele><time>2026-04-03T11:30:04.076Z</time></trkpt><trkpt lat="43.0755217" lon="11.7066633"><ele>354.25</ele><time>2026-04-03T11:30:05.075Z</time></trkpt><trkpt lat="43.0756517" lon="11.706645"><ele>356.0</ele><time>2026-04-03T11:30:06.075Z</time></trkpt><trkpt lat="43.0757567" lon="11.7066433"><ele>357.1666666666667</ele><time>2026-04-03T11:30:07.075Z</time></trkpt><trkpt lat="43.0758633" lon="11.706665"><ele>358.33333333333337</ele><time>2026-04-03T11:30:08.076Z</time></trkpt><trkpt lat="43.0759383" lon="11.7067333"><ele>359.5</ele><time>2026-04-03T11:30:09.076Z</time></trkpt><trkpt lat="43.0759867" lon="11.7068133"><ele>360.6666666666667</ele><time>2026-04-03T11:30:10.076Z</time></trkpt><trkpt lat="43.076" lon="11.706925"><ele>361.8333333333333</ele><time>2026-04-03T11:30:11.075Z</time></trkpt><trkpt lat="43.0759883" lon="11.7070483"><ele>363.0</ele><time>2026-04-03T11:30:12.076Z</time></trkpt><trkpt lat="43.075975" lon="11.7071867"><ele>364.59999999999997</ele><time>2026-04-03T11:30:13.075Z</time></trkpt><trkpt lat="43.07597" lon="11.707315"><ele>366.2</ele><time>2026-04-03T11:30:14.076Z</time></trkpt><trkpt lat="43.075975" lon="11.7074467"><ele>367.8</ele><time>2026-04-03T11:30:15.075Z</time></trkpt><trkpt lat="43.076005" lon="11.7075667"><ele>369.4</ele><time>2026-04-03T11:30:16.075Z</time></trkpt><trkpt lat="43.0760567" lon="11.707665"><ele>371.0</ele><time>2026-04-03T11:30:17.075Z</time></trkpt><trkpt lat="43.0761183" lon="11.7077467"><ele>371.6</ele><time>2026-04-03T11:30:18.075Z</time></trkpt><trkpt lat="43.076215" lon="11.7077867"><ele>372.20000000000005</ele><time>2026-04-03T11:30:19.076Z</time></trkpt><trkpt lat="43.076315" lon="11.707825"><ele>372.79999999999995</ele><time>2026-04-03T11:30:20.075Z</time></trkpt><trkpt lat="43.0764117" lon="11.707815"><ele>373.4</ele><time>2026-04-03T11:30:21.076Z</time></trkpt><trkpt lat="43.0765183" lon="11.70778"><ele>374.0</ele><time>2026-04-03T11:30:22.075Z</time></trkpt><trkpt lat="43.0766233" lon="11.7077233"><ele>375.25</ele><time>2026-04-03T11:30:23.075Z</time></trkpt><trkpt lat="43.076725" lon="11.70765"><ele>376.5</ele><time>2026-04-03T11:30:24.075Z</time></trkpt><trkpt lat="43.0768283" lon="11.7075783"><ele>377.75</ele><time>2026-04-03T11:30:25.075Z</time></trkpt><trkpt lat="43.0769467" lon="11.7075133"><ele>379.0</ele><time>2026-04-03T11:30:26.075Z</time></trkpt><trkpt lat="43.0770833" lon="11.7074533"><ele>379.0</ele><time>2026-04-03T11:30:27.075Z</time></trkpt><trkpt lat="43.077225" lon="11.7074183"><ele>379.0</ele><time>2026-04-03T11:30:28.075Z</time></trkpt><trkpt lat="43.0773633" lon="11.7074033"><ele>379.0</ele><time>2026-04-03T11:30:29.075Z</time></trkpt><trkpt lat="43.0774967" lon="11.70738"><ele>379.0</ele><time>2026-04-03T11:30:30.075Z</time></trkpt><trkpt lat="43.07761" lon="11.7073533"><ele>380.6</ele><time>2026-04-03T11:30:31.075Z</time></trkpt><trkpt lat="43.07771" lon="11.7073367"><ele>382.2</ele><time>2026-04-03T11:30:32.075Z</time></trkpt><trkpt lat="43.0778083" lon="11.70735"><ele>383.8</ele><time>2026-04-03T11:30:33.076Z</time></trkpt><trkpt lat="43.0779" lon="11.7073883"><ele>385.40000000000003</ele><time>2026-04-03T11:30:34.075Z</time></trkpt><trkpt lat="43.0779783" lon="11.70746"><ele>387.0</ele><time>2026-04-03T11:30:35.076Z</time></trkpt><trkpt lat="43.0780467" lon="11.7075583"><ele>387.0</ele><time>2026-04-03T11:30:36.076Z</time></trkpt><trkpt lat="43.0781317" lon="11.7076683"><ele>387.0</ele><time>2026-04-03T11:30:37.075Z</time></trkpt><trkpt lat="43.078215" lon="11.707785"><ele>387.0</ele><time>2026-04-03T11:30:38.075Z</time></trkpt><trkpt lat="43.0783267" lon="11.70792"><ele>387.0</ele><time>2026-04-03T11:30:39.075Z</time></trkpt><trkpt lat="43.0784433" lon="11.708055"><ele>390.5</ele><time>2026-04-03T11:30:40.075Z</time></trkpt><trkpt lat="43.07855" lon="11.7081917"><ele>394.0</ele><time>2026-04-03T11:30:41.075Z</time></trkpt><trkpt lat="43.078665" lon="11.708295"><ele>397.5</ele><time>2026-04-03T11:30:42.075Z</time></trkpt><trkpt lat="43.0787567" lon="11.7083483"><ele>401.0</ele><time>2026-04-03T11:30:43.075Z</time></trkpt><trkpt lat="43.0788433" lon="11.70835"><ele>401.0</ele><time>2026-04-03T11:30:44.075Z</time></trkpt><trkpt lat="43.0789317" lon="11.7083233"><ele>401.0</ele><time>2026-04-03T11:30:45.076Z</time></trkpt><trkpt lat="43.0790267" lon="11.7082833"><ele>401.0</ele><time>2026-04-03T11:30:46.076Z</time></trkpt><trkpt lat="43.0791217" lon="11.708265"><ele>401.0</ele><time>2026-04-03T11:30:47.075Z</time></trkpt><trkpt lat="43.0792133" lon="11.7082967"><ele>401.0</ele><time>2026-04-03T11:30:48.076Z</time></trkpt><trkpt lat="43.0792933" lon="11.708355"><ele>401.3333333333333</ele><time>2026-04-03T11:30:49.075Z</time></trkpt><trkpt lat="43.0793583" lon="11.708435"><ele>401.66666666666663</ele><time>2026-04-03T11:30:50.076Z</time></trkpt><trkpt lat="43.0794017" lon="11.7085283"><ele>402.0</ele><time>2026-04-03T11:30:51.075Z</time></trkpt><trkpt lat="43.079415" lon="11.70863"><ele>402.33333333333337</ele><time>2026-04-03T11:30:52.075Z</time></trkpt><trkpt lat="43.0794217" lon="11.70874"><ele>402.6666666666667</ele><time>2026-04-03T11:30:53.076Z</time></trkpt><trkpt lat="43.079375" lon="11.7088683"><ele>403.0</ele><time>2026-04-03T11:30:54.075Z</time></trkpt><trkpt lat="43.0793283" lon="11.7090067"><ele>405.5</ele><time>2026-04-03T11:30:55.075Z</time></trkpt><trkpt lat="43.0792683" lon="11.7091383"><ele>408.0</ele><time>2026-04-03T11:30:56.075Z</time></trkpt><trkpt lat="43.07919" lon="11.7092717"><ele>410.5</ele><time>2026-04-03T11:30:57.076Z</time></trkpt><trkpt lat="43.0791167" lon="11.7094083"><ele>413.0</ele><time>2026-04-03T11:30:58.076Z</time></trkpt><trkpt lat="43.0790533" lon="11.70953"><ele>413.49999999999994</ele><time>2026-04-03T11:30:59.075Z</time></trkpt><trkpt lat="43.0790283" lon="11.7096467"><ele>414.0</ele><time>2026-04-03T11:31:00.075Z</time></trkpt><trkpt lat="43.07902" lon="11.7097717"><ele>414.5</ele><time>2026-04-03T11:31:01.075Z</time></trkpt><trkpt lat="43.0790367" lon="11.7098683"><ele>415.0</ele><time>2026-04-03T11:31:02.076Z</time></trkpt><trkpt lat="43.079085" lon="11.7099517"><ele>415.49999999999994</ele><time>2026-04-03T11:31:03.075Z</time></trkpt><trkpt lat="43.0791367" lon="11.7100183"><ele>416.0</ele><time>2026-04-03T11:31:04.075Z</time></trkpt><trkpt lat="43.07923" lon="11.7100283"><ele>417.6</ele><time>2026-04-03T11:31:05.076Z</time></trkpt><trkpt lat="43.0793267" lon="11.71"><ele>419.20000000000005</ele><time>2026-04-03T11:31:06.076Z</time></trkpt><trkpt lat="43.07942" lon="11.709955"><ele>420.79999999999995</ele><time>2026-04-03T11:31:07.075Z</time></trkpt><trkpt lat="43.079515" lon="11.7099033"><ele>422.4</ele><time>2026-04-03T11:31:08.076Z</time></trkpt><trkpt lat="43.0796" lon="11.709885"><ele>424.0</ele><time>2026-04-03T11:31:09.076Z</time></trkpt><trkpt lat="43.07966" lon="11.7099267"><ele>424.00000000000006</ele><time>2026-04-03T11:31:10.075Z</time></trkpt><trkpt lat="43.0797067" lon="11.709995"><ele>424.0</ele><time>2026-04-03T11:31:11.076Z</time></trkpt><trkpt lat="43.0797283" lon="11.7100817"><ele>424.0</ele><time>2026-04-03T11:31:12.075Z</time></trkpt><trkpt lat="43.079705" lon="11.7102067"><ele>424.0</ele><time>2026-04-03T11:31:13.075Z</time></trkpt><trkpt lat="43.079675" lon="11.71032"><ele>424.00000000000006</ele><time>2026-04-03T11:31:14.076Z</time></trkpt><trkpt lat="43.0796417" lon="11.7104383"><ele>424.0</ele><time>2026-04-03T11:31:15.075Z</time></trkpt><trkpt lat="43.0796283" lon="11.7105417"><ele>424.1666666666667</ele><time>2026-04-03T11:31:16.075Z</time></trkpt><trkpt lat="43.079625" lon="11.71064"><ele>424.33333333333337</ele><time>2026-04-03T11:31:17.075Z</time></trkpt><trkpt lat="43.0796467" lon="11.71073"><ele>424.5</ele><time>2026-04-03T11:31:18.075Z</time></trkpt><trkpt lat="43.0796783" lon="11.7108117"><ele>424.66666666666663</ele><time>2026-04-03T11:31:19.075Z</time></trkpt><trkpt lat="43.0797583" lon="11.7108717"><ele>424.8333333333333</ele><time>2026-04-03T11:31:20.076Z</time></trkpt><trkpt lat="43.0798417" lon="11.7109133"><ele>425.0</ele><time>2026-04-03T11:31:21.075Z</time></trkpt><trkpt lat="43.079935" lon="11.71091"><ele>427.2</ele><time>2026-04-03T11:31:22.075Z</time></trkpt><trkpt lat="43.08003" lon="11.7108733"><ele>429.4</ele><time>2026-04-03T11:31:23.075Z</time></trkpt><trkpt lat="43.080105" lon="11.7107967"><ele>431.6</ele><time>2026-04-03T11:31:24.076Z</time></trkpt><trkpt lat="43.08019" lon="11.7106967"><ele>433.8</ele><time>2026-04-03T11:31:25.075Z</time></trkpt><trkpt lat="43.0802817" lon="11.7105883"><ele>436.0</ele><time>2026-04-03T11:31:26.075Z</time></trkpt><trkpt lat="43.08037" lon="11.7104583"><ele>436.0</ele><time>2026-04-03T11:31:27.076Z</time></trkpt><trkpt lat="43.0804733" lon="11.710305"><ele>436.0</ele><time>2026-04-03T11:31:28.076Z</time></trkpt><trkpt lat="43.0805783" lon="11.7101433"><ele>436.0</ele><time>2026-04-03T11:31:29.075Z</time></trkpt><trkpt lat="43.0806733" lon="11.710005"><ele>436.0</ele><time>2026-04-03T11:31:30.075Z</time></trkpt><trkpt lat="43.08076" lon="11.7098783"><ele>438.0</ele><time>2026-04-03T11:31:31.075Z</time></trkpt><trkpt lat="43.08084" lon="11.7097967"><ele>440.0</ele><time>2026-04-03T11:31:32.076Z</time></trkpt><trkpt lat="43.08092" lon="11.7097367"><ele>442.0</ele><time>2026-04-03T11:31:33.075Z</time></trkpt><trkpt lat="43.0810183" lon="11.7096867"><ele>444.0</ele><time>2026-04-03T11:31:34.075Z</time></trkpt><trkpt lat="43.0811433" lon="11.7096433"><ele>446.0</ele><time>2026-04-03T11:31:35.076Z</time></trkpt><trkpt lat="43.081285" lon="11.7096"><ele>446.0</ele><time>2026-04-03T11:31:36.076Z</time></trkpt><trkpt lat="43.0814383" lon="11.7095683"><ele>446.0</ele><time>2026-04-03T11:31:37.076Z</time></trkpt><trkpt lat="43.081595" lon="11.7095267"><ele>446.0</ele><time>2026-04-03T11:31:38.075Z</time></trkpt><trkpt lat="43.0817633" lon="11.7094933"><ele>449.66666666666663</ele><time>2026-04-03T11:31:39.076Z</time></trkpt><trkpt lat="43.0819217" lon="11.7094633"><ele>453.33333333333337</ele><time>2026-04-03T11:31:40.075Z</time></trkpt><trkpt lat="43.0820717" lon="11.7094383"><ele>457.0</ele><time>2026-04-03T11:31:41.075Z</time></trkpt><trkpt lat="43.0822267" lon="11.70945"><ele>457.0</ele><time>2026-04-03T11:31:42.075Z</time></trkpt><trkpt lat="43.0823967" lon="11.709475"><ele>457.0</ele><time>2026-04-03T11:31:43.076Z</time></trkpt><trkpt lat="43.0825733" lon="11.7095133"><ele>457.0</ele><time>2026-04-03T11:31:44.075Z</time></trkpt><trkpt lat="43.082745" lon="11.709575"><ele>457.25</ele><time>2026-04-03T11:31:45.076Z</time></trkpt><trkpt lat="43.0829017" lon="11.7096367"><ele>457.5</ele><time>2026-04-03T11:31:46.076Z</time></trkpt><trkpt lat="43.0830367" lon="11.70971"><ele>457.75</ele><time>2026-04-03T11:31:47.075Z</time></trkpt><trkpt lat="43.08316" lon="11.7098017"><ele>458.0</ele><time>2026-04-03T11:31:48.076Z</time></trkpt><trkpt lat="43.0832967" lon="11.7098933"><ele>457.25</ele><time>2026-04-03T11:31:49.075Z</time></trkpt><trkpt lat="43.0834083" lon="11.7099733"><ele>456.5</ele><time>2026-04-03T11:31:50.075Z</time></trkpt><trkpt lat="43.0835233" lon="11.7100333"><ele>455.75</ele><time>2026-04-03T11:31:51.075Z</time></trkpt><trkpt lat="43.0836567" lon="11.7100633"><ele>455.0</ele><time>2026-04-03T11:31:52.075Z</time></trkpt><trkpt lat="43.0837883" lon="11.7100933"><ele>455.0</ele><time>2026-04-03T11:31:53.075Z</time></trkpt><trkpt lat="43.0839433" lon="11.7101133"><ele>455.0</ele><time>2026-04-03T11:31:54.076Z</time></trkpt><trkpt lat="43.0840967" lon="11.7101317"><ele>455.0</ele><time>2026-04-03T11:31:55.076Z</time></trkpt><trkpt lat="43.0842633" lon="11.710155"><ele>456.0</ele><time>2026-04-03T11:31:56.075Z</time></trkpt><trkpt lat="43.0844517" lon="11.710195"><ele>457.0</ele><time>2026-04-03T11:31:57.075Z</time></trkpt><trkpt lat="43.0846283" lon="11.71023"><ele>458.0</ele><time>2026-04-03T11:31:58.075Z</time></trkpt><trkpt lat="43.0848183" lon="11.7102583"><ele>459.0</ele><time>2026-04-03T11:31:59.076Z</time></trkpt><trkpt lat="43.0850083" lon="11.7102967"><ele>460.0</ele><time>2026-04-03T11:32:00.075Z</time></trkpt><trkpt lat="43.085195" lon="11.7103367"><ele>461.0</ele><time>2026-04-03T11:32:01.075Z</time></trkpt><trkpt lat="43.0853717" lon="11.7103733"><ele>461.0</ele><time>2026-04-03T11:32:02.075Z</time></trkpt><trkpt lat="43.08552" lon="11.7104183"><ele>461.0</ele><time>2026-04-03T11:32:03.075Z</time></trkpt><trkpt lat="43.08567" lon="11.7104367"><ele>461.0</ele><time>2026-04-03T11:32:04.075Z</time></trkpt><trkpt lat="43.0858333" lon="11.7104317"><ele>460.3333333333333</ele><time>2026-04-03T11:32:05.075Z</time></trkpt><trkpt lat="43.086" lon="11.710415"><ele>459.66666666666663</ele><time>2026-04-03T11:32:06.075Z</time></trkpt><trkpt lat="43.0861833" lon="11.7103867"><ele>459.0</ele><time>2026-04-03T11:32:07.076Z</time></trkpt><trkpt lat="43.0863667" lon="11.7103483"><ele>459.0</ele><time>2026-04-03T11:32:08.076Z</time></trkpt><trkpt lat="43.086525" lon="11.7103133"><ele>459.0</ele><time>2026-04-03T11:32:09.075Z</time></trkpt><trkpt lat="43.0866633" lon="11.7102933"><ele>459.0</ele><time>2026-04-03T11:32:10.075Z</time></trkpt><trkpt lat="43.0867883" lon="11.7102967"><ele>459.0</ele><time>2026-04-03T11:32:11.075Z</time></trkpt><trkpt lat="43.0869183" lon="11.7103217"><ele>458.0</ele><time>2026-04-03T11:32:12.075Z</time></trkpt><trkpt lat="43.0870433" lon="11.7103567"><ele>457.0</ele><time>2026-04-03T11:32:13.076Z</time></trkpt><trkpt lat="43.0871867" lon="11.710405"><ele>456.0</ele><time>2026-04-03T11:32:14.075Z</time></trkpt><trkpt lat="43.0873217" lon="11.7104533"><ele>455.0</ele><time>2026-04-03T11:32:15.075Z</time></trkpt><trkpt lat="43.0874517" lon="11.7104733"><ele>455.0</ele><time>2026-04-03T11:32:16.075Z</time></trkpt><trkpt lat="43.0875767" lon="11.710475"><ele>455.0</ele><time>2026-04-03T11:32:17.075Z</time></trkpt><trkpt lat="43.087705" lon="11.7104183"><ele>455.0</ele><time>2026-04-03T11:32:18.076Z</time></trkpt><trkpt lat="43.0878333" lon="11.710325"><ele>455.0</ele><time>2026-04-03T11:32:19.075Z</time></trkpt><trkpt lat="43.0879583" lon="11.71021"><ele>454.0</ele><time>2026-04-03T11:32:20.075Z</time></trkpt><trkpt lat="43.0880967" lon="11.7100817"><ele>453.0</ele><time>2026-04-03T11:32:21.075Z</time></trkpt><trkpt lat="43.0882467" lon="11.7099383"><ele>452.0</ele><time>2026-04-03T11:32:22.075Z</time></trkpt><trkpt lat="43.0884117" lon="11.70979"><ele>451.66666666666663</ele><time>2026-04-03T11:32:23.076Z</time></trkpt><trkpt lat="43.08858" lon="11.70964"><ele>451.33333333333337</ele><time>2026-04-03T11:32:24.075Z</time></trkpt><trkpt lat="43.0887467" lon="11.7095"><ele>451.0</ele><time>2026-04-03T11:32:25.075Z</time></trkpt><trkpt lat="43.0888933" lon="11.7093717"><ele>450.6666666666667</ele><time>2026-04-03T11:32:26.076Z</time></trkpt><trkpt lat="43.0890467" lon="11.7092683"><ele>450.33333333333337</ele><time>2026-04-03T11:32:27.074Z</time></trkpt><trkpt lat="43.0891983" lon="11.7091783"><ele>450.0</ele><time>2026-04-03T11:32:28.075Z</time></trkpt><trkpt lat="43.0893517" lon="11.7091367"><ele>451.0</ele><time>2026-04-03T11:32:29.075Z</time></trkpt><trkpt lat="43.0895267" lon="11.7091183"><ele>452.0</ele><time>2026-04-03T11:32:30.074Z</time></trkpt><trkpt lat="43.089705" lon="11.7091033"><ele>453.0</ele><time>2026-04-03T11:32:31.075Z</time></trkpt><trkpt lat="43.0898883" lon="11.7091"><ele>453.33333333333337</ele><time>2026-04-03T11:32:32.074Z</time></trkpt><trkpt lat="43.0900833" lon="11.7090933"><ele>453.6666666666667</ele><time>2026-04-03T11:32:33.074Z</time></trkpt><trkpt lat="43.0902883" lon="11.709085"><ele>454.0</ele><time>2026-04-03T11:32:34.075Z</time></trkpt><trkpt lat="43.09049" lon="11.7090767"><ele>454.0</ele><time>2026-04-03T11:32:35.074Z</time></trkpt><trkpt lat="43.0907017" lon="11.70906"><ele>454.0</ele><time>2026-04-03T11:32:36.075Z</time></trkpt><trkpt lat="43.0909017" lon="11.7090483"><ele>454.0</ele><time>2026-04-03T11:32:37.074Z</time></trkpt><trkpt lat="43.0911083" lon="11.7090383"><ele>455.33333333333337</ele><time>2026-04-03T11:32:38.074Z</time></trkpt><trkpt lat="43.0913083" lon="11.7090267"><ele>456.66666666666663</ele><time>2026-04-03T11:32:39.074Z</time></trkpt><trkpt lat="43.0915" lon="11.7090017"><ele>458.0</ele><time>2026-04-03T11:32:40.074Z</time></trkpt><trkpt lat="43.0916583" lon="11.7089833"><ele>458.79999999999995</ele><time>2026-04-03T11:32:41.074Z</time></trkpt><trkpt lat="43.0917967" lon="11.7089633"><ele>459.59999999999997</ele><time>2026-04-03T11:32:42.074Z</time></trkpt><trkpt lat="43.0919233" lon="11.7089483"><ele>460.40000000000003</ele><time>2026-04-03T11:32:43.074Z</time></trkpt><trkpt lat="43.092025" lon="11.7089417"><ele>461.20000000000005</ele><time>2026-04-03T11:32:44.074Z</time></trkpt><trkpt lat="43.0921033" lon="11.70896"><ele>462.0</ele><time>2026-04-03T11:32:45.074Z</time></trkpt><trkpt lat="43.0922033" lon="11.7090367"><ele>462.0</ele><time>2026-04-03T11:32:47.074Z</time></trkpt><trkpt lat="43.0922633" lon="11.7091933"><ele>462.0</ele><time>2026-04-03T11:32:49.074Z</time></trkpt><trkpt lat="43.092295" lon="11.7093117"><ele>462.0</ele><time>2026-04-03T11:32:50.074Z</time></trkpt><trkpt lat="43.092335" lon="11.7094533"><ele>462.0</ele><time>2026-04-03T11:32:51.074Z</time></trkpt><trkpt lat="43.09239" lon="11.7095983"><ele>465.25</ele><time>2026-04-03T11:32:52.075Z</time></trkpt><trkpt lat="43.0924467" lon="11.7097567"><ele>468.5</ele><time>2026-04-03T11:32:53.074Z</time></trkpt><trkpt lat="43.09251" lon="11.709925"><ele>471.75</ele><time>2026-04-03T11:32:54.075Z</time></trkpt><trkpt lat="43.0925717" lon="11.71008"><ele>475.0</ele><time>2026-04-03T11:32:55.074Z</time></trkpt><trkpt lat="43.0926317" lon="11.7102167"><ele>476.2</ele><time>2026-04-03T11:32:56.074Z</time></trkpt><trkpt lat="43.0926883" lon="11.71035"><ele>477.4</ele><time>2026-04-03T11:32:57.075Z</time></trkpt><trkpt lat="43.0927467" lon="11.7104617"><ele>478.6</ele><time>2026-04-03T11:32:58.074Z</time></trkpt><trkpt lat="43.0927933" lon="11.7105783"><ele>479.8</ele><time>2026-04-03T11:32:59.074Z</time></trkpt><trkpt lat="43.0928417" lon="11.7106767"><ele>481.0</ele><time>2026-04-03T11:33:00.075Z</time></trkpt><trkpt lat="43.0928817" lon="11.710785"><ele>481.00000000000006</ele><time>2026-04-03T11:33:01.074Z</time></trkpt><trkpt lat="43.09292" lon="11.7108833"><ele>481.0</ele><time>2026-04-03T11:33:02.075Z</time></trkpt><trkpt lat="43.092955" lon="11.7109783"><ele>481.0</ele><time>2026-04-03T11:33:03.075Z</time></trkpt><trkpt lat="43.0929933" lon="11.711075"><ele>481.0</ele><time>2026-04-03T11:33:04.074Z</time></trkpt><trkpt lat="43.093025" lon="11.7111733"><ele>481.00000000000006</ele><time>2026-04-03T11:33:05.074Z</time></trkpt><trkpt lat="43.0930567" lon="11.7112717"><ele>481.0</ele><time>2026-04-03T11:33:06.074Z</time></trkpt><trkpt lat="43.0930983" lon="11.7113733"><ele>480.83333333333337</ele><time>2026-04-03T11:33:07.075Z</time></trkpt><trkpt lat="43.093145" lon="11.711475"><ele>480.6666666666667</ele><time>2026-04-03T11:33:08.074Z</time></trkpt><trkpt lat="43.09319" lon="11.711575"><ele>480.5</ele><time>2026-04-03T11:33:09.074Z</time></trkpt><trkpt lat="43.0932383" lon="11.711675"><ele>480.33333333333337</ele><time>2026-04-03T11:33:10.074Z</time></trkpt><trkpt lat="43.0932817" lon="11.7117767"><ele>480.1666666666667</ele><time>2026-04-03T11:33:11.075Z</time></trkpt><trkpt lat="43.0933267" lon="11.7118817"><ele>480.0</ele><time>2026-04-03T11:33:12.074Z</time></trkpt><trkpt lat="43.0933783" lon="11.7119967"><ele>481.2</ele><time>2026-04-03T11:33:13.074Z</time></trkpt><trkpt lat="43.0934233" lon="11.712115"><ele>482.4</ele><time>2026-04-03T11:33:14.075Z</time></trkpt><trkpt lat="43.0934483" lon="11.7122383"><ele>483.6</ele><time>2026-04-03T11:33:15.074Z</time></trkpt><trkpt lat="43.09348" lon="11.7123833"><ele>484.8</ele><time>2026-04-03T11:33:16.074Z</time></trkpt><trkpt lat="43.0935017" lon="11.7125233"><ele>486.0</ele><time>2026-04-03T11:33:17.075Z</time></trkpt><trkpt lat="43.0935317" lon="11.712665"><ele>486.25</ele><time>2026-04-03T11:33:18.074Z</time></trkpt><trkpt lat="43.0935617" lon="11.7128217"><ele>486.5</ele><time>2026-04-03T11:33:19.075Z</time></trkpt><trkpt lat="43.0935933" lon="11.7129833"><ele>486.75</ele><time>2026-04-03T11:33:20.074Z</time></trkpt><trkpt lat="43.0936233" lon="11.7131467"><ele>487.0</ele><time>2026-04-03T11:33:21.074Z</time></trkpt><trkpt lat="43.0936517" lon="11.7133067"><ele>487.0</ele><time>2026-04-03T11:33:22.074Z</time></trkpt><trkpt lat="43.0936767" lon="11.7134717"><ele>487.0</ele><time>2026-04-03T11:33:23.075Z</time></trkpt><trkpt lat="43.0937033" lon="11.713625"><ele>487.0</ele><time>2026-04-03T11:33:24.074Z</time></trkpt><trkpt lat="43.0937367" lon="11.7137717"><ele>487.0</ele><time>2026-04-03T11:33:25.074Z</time></trkpt><trkpt lat="43.0937967" lon="11.71391"><ele>487.0</ele><time>2026-04-03T11:33:26.074Z</time></trkpt><trkpt lat="43.0938917" lon="11.7140317"><ele>487.0</ele><time>2026-04-03T11:33:27.075Z</time></trkpt><trkpt lat="43.0940083" lon="11.71413"><ele>487.0</ele><time>2026-04-03T11:33:28.075Z</time></trkpt><trkpt lat="43.094145" lon="11.7141917"><ele>487.0</ele><time>2026-04-03T11:33:29.074Z</time></trkpt><trkpt lat="43.09428" lon="11.71425"><ele>489.6666666666667</ele><time>2026-04-03T11:33:30.074Z</time></trkpt><trkpt lat="43.0944333" lon="11.714295"><ele>492.33333333333337</ele><time>2026-04-03T11:33:31.075Z</time></trkpt><trkpt lat="43.0945883" lon="11.7143567"><ele>495.0</ele><time>2026-04-03T11:33:32.074Z</time></trkpt><trkpt lat="43.0947467" lon="11.7144167"><ele>498.0</ele><time>2026-04-03T11:33:33.074Z</time></trkpt><trkpt lat="43.0949033" lon="11.714475"><ele>501.0</ele><time>2026-04-03T11:33:34.075Z</time></trkpt><trkpt lat="43.0950467" lon="11.7145317"><ele>504.0</ele><time>2026-04-03T11:33:35.074Z</time></trkpt><trkpt lat="43.0951833" lon="11.7146067"><ele>505.25</ele><time>2026-04-03T11:33:36.074Z</time></trkpt><trkpt lat="43.0952967" lon="11.714715"><ele>506.5</ele><time>2026-04-03T11:33:37.074Z</time></trkpt><trkpt lat="43.0953633" lon="11.7148583"><ele>507.75</ele><time>2026-04-03T11:33:38.075Z</time></trkpt><trkpt lat="43.0954283" lon="11.71504"><ele>509.0</ele><time>2026-04-03T11:33:39.074Z</time></trkpt><trkpt lat="43.09548" lon="11.7151983"><ele>508.75</ele><time>2026-04-03T11:33:40.074Z</time></trkpt><trkpt lat="43.0955467" lon="11.7153317"><ele>508.5</ele><time>2026-04-03T11:33:41.075Z</time></trkpt><trkpt lat="43.09562" lon="11.71545"><ele>508.25</ele><time>2026-04-03T11:33:42.074Z</time></trkpt><trkpt lat="43.0957" lon="11.7155733"><ele>508.0</ele><time>2026-04-03T11:33:43.074Z</time></trkpt><trkpt lat="43.0958" lon="11.7156767"><ele>507.5</ele><time>2026-04-03T11:33:44.074Z</time></trkpt><trkpt lat="43.0959133" lon="11.715775"><ele>507.0</ele><time>2026-04-03T11:33:45.074Z</time></trkpt><trkpt lat="43.0960283" lon="11.7159033"><ele>506.5</ele><time>2026-04-03T11:33:46.075Z</time></trkpt><trkpt lat="43.096125" lon="11.71606"><ele>506.0</ele><time>2026-04-03T11:33:47.074Z</time></trkpt><trkpt lat="43.0962083" lon="11.7162317"><ele>502.0</ele><time>2026-04-03T11:33:48.074Z</time></trkpt><trkpt lat="43.096315" lon="11.7164033"><ele>498.0</ele><time>2026-04-03T11:33:49.074Z</time></trkpt><trkpt lat="43.09643" lon="11.716595"><ele>494.0</ele><time>2026-04-03T11:33:50.075Z</time></trkpt><trkpt lat="43.0965433" lon="11.7167967"><ele>494.0</ele><time>2026-04-03T11:33:51.074Z</time></trkpt><trkpt lat="43.0966617" lon="11.7170167"><ele>494.0</ele><time>2026-04-03T11:33:52.075Z</time></trkpt><trkpt lat="43.09678" lon="11.7172383"><ele>494.0</ele><time>2026-04-03T11:33:53.075Z</time></trkpt><trkpt lat="43.09688" lon="11.7174533"><ele>494.0</ele><time>2026-04-03T11:33:54.075Z</time></trkpt><trkpt lat="43.0969683" lon="11.7176533"><ele>494.0</ele><time>2026-04-03T11:33:55.074Z</time></trkpt><trkpt lat="43.0970533" lon="11.717815"><ele>494.0</ele><time>2026-04-03T11:33:56.074Z</time></trkpt><trkpt lat="43.0971367" lon="11.7179683"><ele>495.75</ele><time>2026-04-03T11:33:57.074Z</time></trkpt><trkpt lat="43.097225" lon="11.7180983"><ele>497.5</ele><time>2026-04-03T11:33:58.074Z</time></trkpt><trkpt lat="43.0973333" lon="11.7181733"><ele>499.25</ele><time>2026-04-03T11:33:59.074Z</time></trkpt><trkpt lat="43.097455" lon="11.7182433"><ele>501.0</ele><time>2026-04-03T11:34:00.074Z</time></trkpt><trkpt lat="43.0975683" lon="11.7183283"><ele>501.0</ele><time>2026-04-03T11:34:01.074Z</time></trkpt><trkpt lat="43.0976733" lon="11.7184533"><ele>501.0</ele><time>2026-04-03T11:34:02.074Z</time></trkpt><trkpt lat="43.0977867" lon="11.7185833"><ele>501.0</ele><time>2026-04-03T11:34:03.074Z</time></trkpt><trkpt lat="43.0978933" lon="11.7187417"><ele>501.0</ele><time>2026-04-03T11:34:04.074Z</time></trkpt><trkpt lat="43.0979983" lon="11.7189183"><ele>498.66666666666663</ele><time>2026-04-03T11:34:05.074Z</time></trkpt><trkpt lat="43.0981133" lon="11.7190867"><ele>496.3333333333333</ele><time>2026-04-03T11:34:06.074Z</time></trkpt><trkpt lat="43.0982317" lon="11.7192283"><ele>494.0</ele><time>2026-04-03T11:34:07.074Z</time></trkpt><trkpt lat="43.0983567" lon="11.7193583"><ele>494.5</ele><time>2026-04-03T11:34:08.075Z</time></trkpt><trkpt lat="43.0984967" lon="11.71947"><ele>495.0</ele><time>2026-04-03T11:34:09.075Z</time></trkpt><trkpt lat="43.09863" lon="11.7195517"><ele>495.5</ele><time>2026-04-03T11:34:10.074Z</time></trkpt><trkpt lat="43.0987667" lon="11.719585"><ele>496.0</ele><time>2026-04-03T11:34:11.075Z</time></trkpt><trkpt lat="43.098915" lon="11.71958"><ele>496.0</ele><time>2026-04-03T11:34:12.075Z</time></trkpt><trkpt lat="43.09907" lon="11.7195483"><ele>496.0</ele><time>2026-04-03T11:34:13.074Z</time></trkpt><trkpt lat="43.0992383" lon="11.7195267"><ele>496.0</ele><time>2026-04-03T11:34:14.074Z</time></trkpt><trkpt lat="43.099405" lon="11.719525"><ele>496.5</ele><time>2026-04-03T11:34:15.074Z</time></trkpt><trkpt lat="43.0995383" lon="11.7195617"><ele>497.0</ele><time>2026-04-03T11:34:16.074Z</time></trkpt><trkpt lat="43.099645" lon="11.7196617"><ele>497.5</ele><time>2026-04-03T11:34:17.074Z</time></trkpt><trkpt lat="43.09975" lon="11.71976"><ele>498.0</ele><time>2026-04-03T11:34:18.074Z</time></trkpt><trkpt lat="43.0998533" lon="11.71988"><ele>497.75</ele><time>2026-04-03T11:34:19.074Z</time></trkpt><trkpt lat="43.0999683" lon="11.7199983"><ele>497.5</ele><time>2026-04-03T11:34:20.074Z</time></trkpt><trkpt lat="43.100085" lon="11.72011"><ele>497.25</ele><time>2026-04-03T11:34:21.075Z</time></trkpt><trkpt lat="43.1001933" lon="11.7202217"><ele>497.0</ele><time>2026-04-03T11:34:22.074Z</time></trkpt><trkpt lat="43.1003083" lon="11.7203183"><ele>497.0</ele><time>2026-04-03T11:34:23.074Z</time></trkpt><trkpt lat="43.10042" lon="11.7204167"><ele>497.0</ele><time>2026-04-03T11:34:24.074Z</time></trkpt><trkpt lat="43.1005033" lon="11.720535"><ele>497.0</ele><time>2026-04-03T11:34:25.074Z</time></trkpt><trkpt lat="43.1005817" lon="11.7206483"><ele>497.0</ele><time>2026-04-03T11:34:26.074Z</time></trkpt><trkpt lat="43.10064" lon="11.7207867"><ele>497.0</ele><time>2026-04-03T11:34:27.075Z</time></trkpt><trkpt lat="43.100685" lon="11.7209433"><ele>497.0</ele><time>2026-04-03T11:34:28.074Z</time></trkpt><trkpt lat="43.1007217" lon="11.7211167"><ele>497.0</ele><time>2026-04-03T11:34:29.074Z</time></trkpt><trkpt lat="43.1007733" lon="11.72131"><ele>497.0</ele><time>2026-04-03T11:34:30.075Z</time></trkpt><trkpt lat="43.1008433" lon="11.721495"><ele>496.66666666666663</ele><time>2026-04-03T11:34:31.074Z</time></trkpt><trkpt lat="43.1009367" lon="11.7216783"><ele>496.33333333333337</ele><time>2026-04-03T11:34:32.075Z</time></trkpt><trkpt lat="43.1010267" lon="11.72184"><ele>496.0</ele><time>2026-04-03T11:34:33.074Z</time></trkpt><trkpt lat="43.1011267" lon="11.7220033"><ele>493.0</ele><time>2026-04-03T11:34:34.074Z</time></trkpt><trkpt lat="43.10123" lon="11.7221733"><ele>490.0</ele><time>2026-04-03T11:34:35.074Z</time></trkpt><trkpt lat="43.1013433" lon="11.7223467"><ele>487.0</ele><time>2026-04-03T11:34:36.074Z</time></trkpt><trkpt lat="43.1014567" lon="11.72253"><ele>487.0</ele><time>2026-04-03T11:34:37.074Z</time></trkpt><trkpt lat="43.1015667" lon="11.722705"><ele>487.0</ele><time>2026-04-03T11:34:38.074Z</time></trkpt><trkpt lat="43.1016767" lon="11.7228767"><ele>487.0</ele><time>2026-04-03T11:34:39.075Z</time></trkpt><trkpt lat="43.1017517" lon="11.7230367"><ele>487.5</ele><time>2026-04-03T11:34:40.074Z</time></trkpt><trkpt lat="43.10184" lon="11.7232"><ele>488.0</ele><time>2026-04-03T11:34:41.075Z</time></trkpt><trkpt lat="43.101915" lon="11.72334"><ele>488.5</ele><time>2026-04-03T11:34:42.075Z</time></trkpt><trkpt lat="43.1019733" lon="11.7234617"><ele>489.0</ele><time>2026-04-03T11:34:43.075Z</time></trkpt><trkpt lat="43.1020233" lon="11.7235633"><ele>489.0</ele><time>2026-04-03T11:34:44.074Z</time></trkpt><trkpt lat="43.1020483" lon="11.7236717"><ele>489.0</ele><time>2026-04-03T11:34:46.074Z</time></trkpt><trkpt lat="43.10216" lon="11.7236033"><ele>489.0</ele><time>2026-04-03T11:34:58.075Z</time></trkpt><trkpt lat="43.1022183" lon="11.7235567"><ele>489.0</ele><time>2026-04-03T11:34:59.074Z</time></trkpt><trkpt lat="43.102295" lon="11.7235"><ele>489.0</ele><time>2026-04-03T11:35:00.075Z</time></trkpt><trkpt lat="43.10237" lon="11.7234583"><ele>489.0</ele><time>2026-04-03T11:35:01.075Z</time></trkpt><trkpt lat="43.1024533" lon="11.7234383"><ele>488.6</ele><time>2026-04-03T11:35:02.074Z</time></trkpt><trkpt lat="43.102545" lon="11.7234283"><ele>488.2</ele><time>2026-04-03T11:35:03.075Z</time></trkpt><trkpt lat="43.102645" lon="11.7234417"><ele>487.80000000000007</ele><time>2026-04-03T11:35:04.074Z</time></trkpt><trkpt lat="43.102755" lon="11.7234383"><ele>487.40000000000003</ele><time>2026-04-03T11:35:05.074Z</time></trkpt><trkpt lat="43.1028833" lon="11.7234283"><ele>487.0</ele><time>2026-04-03T11:35:06.074Z</time></trkpt><trkpt lat="43.1030167" lon="11.72342"><ele>487.0</ele><time>2026-04-03T11:35:07.074Z</time></trkpt><trkpt lat="43.1031617" lon="11.7234183"><ele>487.0</ele><time>2026-04-03T11:35:08.075Z</time></trkpt><trkpt lat="43.1033117" lon="11.7234217"><ele>487.0</ele><time>2026-04-03T11:35:09.074Z</time></trkpt><trkpt lat="43.1034667" lon="11.7234083"><ele>486.33333333333337</ele><time>2026-04-03T11:35:10.075Z</time></trkpt><trkpt lat="43.1036333" lon="11.723395"><ele>485.66666666666663</ele><time>2026-04-03T11:35:11.074Z</time></trkpt><trkpt lat="43.1038083" lon="11.723385"><ele>485.0</ele><time>2026-04-03T11:35:12.074Z</time></trkpt><trkpt lat="43.1039717" lon="11.72339"><ele>486.0</ele><time>2026-04-03T11:35:13.074Z</time></trkpt><trkpt lat="43.1041483" lon="11.72341"><ele>487.0</ele><time>2026-04-03T11:35:14.075Z</time></trkpt><trkpt lat="43.1043283" lon="11.7234183"><ele>488.0</ele><time>2026-04-03T11:35:15.074Z</time></trkpt><trkpt lat="43.1045067" lon="11.7234317"><ele>488.0</ele><time>2026-04-03T11:35:16.074Z</time></trkpt><trkpt lat="43.1046767" lon="11.7234317"><ele>488.0</ele><time>2026-04-03T11:35:17.074Z</time></trkpt><trkpt lat="43.1048367" lon="11.7234383"><ele>488.0</ele><time>2026-04-03T11:35:18.074Z</time></trkpt><trkpt lat="43.1049917" lon="11.7234417"><ele>488.0</ele><time>2026-04-03T11:35:19.074Z</time></trkpt><trkpt lat="43.105155" lon="11.723455"><ele>488.0</ele><time>2026-04-03T11:35:20.075Z</time></trkpt><trkpt lat="43.1053117" lon="11.723515"><ele>488.0</ele><time>2026-04-03T11:35:21.074Z</time></trkpt><trkpt lat="43.1054733" lon="11.7236083"><ele>488.0</ele><time>2026-04-03T11:35:22.075Z</time></trkpt><trkpt lat="43.1056467" lon="11.7237083"><ele>488.0</ele><time>2026-04-03T11:35:23.074Z</time></trkpt><trkpt lat="43.1058417" lon="11.7238017"><ele>488.0</ele><time>2026-04-03T11:35:24.074Z</time></trkpt><trkpt lat="43.1060217" lon="11.723875"><ele>488.0</ele><time>2026-04-03T11:35:25.075Z</time></trkpt><trkpt lat="43.1062133" lon="11.72392"><ele>488.0</ele><time>2026-04-03T11:35:26.074Z</time></trkpt><trkpt lat="43.1064083" lon="11.7239483"><ele>488.0</ele><time>2026-04-03T11:35:27.074Z</time></trkpt><trkpt lat="43.1066167" lon="11.7239617"><ele>488.0</ele><time>2026-04-03T11:35:28.074Z</time></trkpt><trkpt lat="43.1068383" lon="11.7239683"><ele>488.0</ele><time>2026-04-03T11:35:29.074Z</time></trkpt><trkpt lat="43.1070567" lon="11.7239617"><ele>488.0</ele><time>2026-04-03T11:35:30.074Z</time></trkpt><trkpt lat="43.107275" lon="11.7239633"><ele>487.66666666666663</ele><time>2026-04-03T11:35:31.075Z</time></trkpt><trkpt lat="43.1074967" lon="11.7239683"><ele>487.33333333333337</ele><time>2026-04-03T11:35:32.074Z</time></trkpt><trkpt lat="43.1077083" lon="11.7239667"><ele>487.0</ele><time>2026-04-03T11:35:33.074Z</time></trkpt><trkpt lat="43.107895" lon="11.7239683"><ele>487.0</ele><time>2026-04-03T11:35:34.075Z</time></trkpt><trkpt lat="43.1080617" lon="11.7239667"><ele>487.0</ele><time>2026-04-03T11:35:35.075Z</time></trkpt><trkpt lat="43.108225" lon="11.7239417"><ele>487.0</ele><time>2026-04-03T11:35:36.074Z</time></trkpt><trkpt lat="43.1083767" lon="11.7238783"><ele>487.0</ele><time>2026-04-03T11:35:37.074Z</time></trkpt><trkpt lat="43.1085133" lon="11.72378"><ele>487.0</ele><time>2026-04-03T11:35:38.075Z</time></trkpt><trkpt lat="43.1086583" lon="11.7236333"><ele>487.0</ele><time>2026-04-03T11:35:39.074Z</time></trkpt><trkpt lat="43.1087733" lon="11.72348"><ele>488.25</ele><time>2026-04-03T11:35:40.074Z</time></trkpt><trkpt lat="43.1088483" lon="11.723335"><ele>489.5</ele><time>2026-04-03T11:35:41.074Z</time></trkpt><trkpt lat="43.1089" lon="11.7231867"><ele>490.75</ele><time>2026-04-03T11:35:42.074Z</time></trkpt><trkpt lat="43.1089283" lon="11.72305"><ele>492.0</ele><time>2026-04-03T11:35:43.074Z</time></trkpt><trkpt lat="43.108955" lon="11.7228967"><ele>492.75</ele><time>2026-04-03T11:35:44.074Z</time></trkpt><trkpt lat="43.1089567" lon="11.7227117"><ele>493.5</ele><time>2026-04-03T11:35:45.074Z</time></trkpt><trkpt lat="43.108945" lon="11.72253"><ele>494.25</ele><time>2026-04-03T11:35:46.075Z</time></trkpt><trkpt lat="43.1089083" lon="11.7223467"><ele>495.0</ele><time>2026-04-03T11:35:47.074Z</time></trkpt><trkpt lat="43.1088667" lon="11.7221667"><ele>495.0</ele><time>2026-04-03T11:35:48.075Z</time></trkpt><trkpt lat="43.10882" lon="11.72199"><ele>495.0</ele><time>2026-04-03T11:35:49.074Z</time></trkpt><trkpt lat="43.10877" lon="11.7218183"><ele>495.0</ele><time>2026-04-03T11:35:50.074Z</time></trkpt><trkpt lat="43.108725" lon="11.7216583"><ele>495.0</ele><time>2026-04-03T11:35:51.075Z</time></trkpt><trkpt lat="43.1086767" lon="11.7214917"><ele>495.75</ele><time>2026-04-03T11:35:52.075Z</time></trkpt><trkpt lat="43.1086317" lon="11.72133"><ele>496.5</ele><time>2026-04-03T11:35:53.075Z</time></trkpt><trkpt lat="43.10858" lon="11.72117"><ele>497.25</ele><time>2026-04-03T11:35:54.074Z</time></trkpt><trkpt lat="43.1085267" lon="11.7210017"><ele>498.0</ele><time>2026-04-03T11:35:55.075Z</time></trkpt><trkpt lat="43.1084517" lon="11.7208383"><ele>498.33333333333337</ele><time>2026-04-03T11:35:56.074Z</time></trkpt><trkpt lat="43.1083683" lon="11.7206617"><ele>498.6666666666667</ele><time>2026-04-03T11:35:57.074Z</time></trkpt><trkpt lat="43.1082783" lon="11.7204933"><ele>499.0</ele><time>2026-04-03T11:35:58.074Z</time></trkpt><trkpt lat="43.1081817" lon="11.720335"><ele>498.1666666666667</ele><time>2026-04-03T11:35:59.075Z</time></trkpt><trkpt lat="43.1081" lon="11.7201983"><ele>497.33333333333337</ele><time>2026-04-03T11:36:00.074Z</time></trkpt><trkpt lat="43.1080417" lon="11.7200883"><ele>496.5</ele><time>2026-04-03T11:36:01.074Z</time></trkpt><trkpt lat="43.1080067" lon="11.7200033"><ele>495.66666666666663</ele><time>2026-04-03T11:36:02.075Z</time></trkpt><trkpt lat="43.108025" lon="11.719915"><ele>494.8333333333333</ele><time>2026-04-03T11:36:04.075Z</time></trkpt><trkpt lat="43.1080983" lon="11.7199667"><ele>494.0</ele><time>2026-04-03T11:36:06.074Z</time></trkpt><trkpt lat="43.108145" lon="11.7200533"><ele>494.0</ele><time>2026-04-03T11:36:07.074Z</time></trkpt><trkpt lat="43.1082033" lon="11.7201583"><ele>494.0</ele><time>2026-04-03T11:36:08.074Z</time></trkpt><trkpt lat="43.1082733" lon="11.72027"><ele>494.0</ele><time>2026-04-03T11:36:09.074Z</time></trkpt><trkpt lat="43.1083467" lon="11.720385"><ele>494.0</ele><time>2026-04-03T11:36:10.074Z</time></trkpt><trkpt lat="43.10843" lon="11.7205133"><ele>494.0</ele><time>2026-04-03T11:36:11.075Z</time></trkpt><trkpt lat="43.1085167" lon="11.7206483"><ele>495.25</ele><time>2026-04-03T11:36:12.075Z</time></trkpt><trkpt lat="43.10862" lon="11.7207817"><ele>496.5</ele><time>2026-04-03T11:36:13.075Z</time></trkpt><trkpt lat="43.108745" lon="11.7208917"><ele>497.75</ele><time>2026-04-03T11:36:14.074Z</time></trkpt><trkpt lat="43.10888" lon="11.72098"><ele>499.0</ele><time>2026-04-03T11:36:15.075Z</time></trkpt><trkpt lat="43.1090233" lon="11.72106"><ele>497.0</ele><time>2026-04-03T11:36:16.074Z</time></trkpt><trkpt lat="43.10917" lon="11.721115"><ele>495.0</ele><time>2026-04-03T11:36:17.075Z</time></trkpt><trkpt lat="43.109315" lon="11.721185"><ele>493.0</ele><time>2026-04-03T11:36:18.074Z</time></trkpt><trkpt lat="43.1094333" lon="11.72129"><ele>491.0</ele><time>2026-04-03T11:36:19.075Z</time></trkpt><trkpt lat="43.1095367" lon="11.7214483"><ele>491.0</ele><time>2026-04-03T11:36:20.074Z</time></trkpt><trkpt lat="43.1096333" lon="11.7216317"><ele>491.0</ele><time>2026-04-03T11:36:21.074Z</time></trkpt><trkpt lat="43.1097167" lon="11.72183"><ele>491.0</ele><time>2026-04-03T11:36:22.074Z</time></trkpt><trkpt lat="43.1098" lon="11.7220433"><ele>491.3333333333333</ele><time>2026-04-03T11:36:23.074Z</time></trkpt><trkpt lat="43.1098717" lon="11.7222733"><ele>491.66666666666663</ele><time>2026-04-03T11:36:24.074Z</time></trkpt><trkpt lat="43.1099483" lon="11.722515"><ele>492.0</ele><time>2026-04-03T11:36:25.074Z</time></trkpt><trkpt lat="43.1100317" lon="11.7227617"><ele>486.33333333333337</ele><time>2026-04-03T11:36:26.074Z</time></trkpt><trkpt lat="43.1101167" lon="11.72302"><ele>480.6666666666667</ele><time>2026-04-03T11:36:27.074Z</time></trkpt><trkpt lat="43.1102133" lon="11.7232817"><ele>475.0</ele><time>2026-04-03T11:36:28.074Z</time></trkpt><trkpt lat="43.1103117" lon="11.7235267"><ele>474.6666666666667</ele><time>2026-04-03T11:36:29.074Z</time></trkpt><trkpt lat="43.11041" lon="11.7237517"><ele>474.33333333333337</ele><time>2026-04-03T11:36:30.075Z</time></trkpt><trkpt lat="43.1105133" lon="11.7239333"><ele>474.0</ele><time>2026-04-03T11:36:31.074Z</time></trkpt><trkpt lat="43.11063" lon="11.7240817"><ele>471.33333333333337</ele><time>2026-04-03T11:36:32.074Z</time></trkpt><trkpt lat="43.1107767" lon="11.7241817"><ele>468.6666666666667</ele><time>2026-04-03T11:36:33.074Z</time></trkpt><trkpt lat="43.1109517" lon="11.7242467"><ele>466.0</ele><time>2026-04-03T11:36:34.075Z</time></trkpt><trkpt lat="43.1111317" lon="11.7242917"><ele>466.0</ele><time>2026-04-03T11:36:35.075Z</time></trkpt><trkpt lat="43.1113083" lon="11.7243467"><ele>466.0</ele><time>2026-04-03T11:36:36.075Z</time></trkpt><trkpt lat="43.1115" lon="11.7243783"><ele>466.0</ele><time>2026-04-03T11:36:37.074Z</time></trkpt><trkpt lat="43.1116867" lon="11.7243833"><ele>465.33333333333337</ele><time>2026-04-03T11:36:38.075Z</time></trkpt><trkpt lat="43.1118483" lon="11.7243583"><ele>464.66666666666663</ele><time>2026-04-03T11:36:39.074Z</time></trkpt><trkpt lat="43.1120117" lon="11.72429"><ele>464.0</ele><time>2026-04-03T11:36:40.075Z</time></trkpt><trkpt lat="43.1121833" lon="11.7242067"><ele>464.0</ele><time>2026-04-03T11:36:41.074Z</time></trkpt><trkpt lat="43.112325" lon="11.7241017"><ele>464.0</ele><time>2026-04-03T11:36:42.074Z</time></trkpt><trkpt lat="43.11245" lon="11.7239617"><ele>464.0</ele><time>2026-04-03T11:36:43.073Z</time></trkpt><trkpt lat="43.1125633" lon="11.7237917"><ele>464.66666666666663</ele><time>2026-04-03T11:36:44.073Z</time></trkpt><trkpt lat="43.112665" lon="11.7236233"><ele>465.33333333333337</ele><time>2026-04-03T11:36:45.074Z</time></trkpt><trkpt lat="43.1127733" lon="11.7234583"><ele>466.0</ele><time>2026-04-03T11:36:46.073Z</time></trkpt><trkpt lat="43.1128983" lon="11.7232883"><ele>464.6666666666667</ele><time>2026-04-03T11:36:47.073Z</time></trkpt><trkpt lat="43.11302" lon="11.7231133"><ele>463.33333333333337</ele><time>2026-04-03T11:36:48.073Z</time></trkpt><trkpt lat="43.1131567" lon="11.72297"><ele>462.0</ele><time>2026-04-03T11:36:49.074Z</time></trkpt><trkpt lat="43.1133167" lon="11.722855"><ele>462.0</ele><time>2026-04-03T11:36:50.074Z</time></trkpt><trkpt lat="43.1134783" lon="11.7227633"><ele>462.0</ele><time>2026-04-03T11:36:51.074Z</time></trkpt><trkpt lat="43.1136533" lon="11.7226917"><ele>462.0</ele><time>2026-04-03T11:36:52.073Z</time></trkpt><trkpt lat="43.1138217" lon="11.72267"><ele>462.0</ele><time>2026-04-03T11:36:53.074Z</time></trkpt><trkpt lat="43.11399" lon="11.7227233"><ele>462.0</ele><time>2026-04-03T11:36:54.073Z</time></trkpt><trkpt lat="43.11415" lon="11.7228"><ele>462.0</ele><time>2026-04-03T11:36:55.074Z</time></trkpt><trkpt lat="43.1143217" lon="11.7228417"><ele>462.0</ele><time>2026-04-03T11:36:56.074Z</time></trkpt><trkpt lat="43.11449" lon="11.72289"><ele>462.0</ele><time>2026-04-03T11:36:57.073Z</time></trkpt><trkpt lat="43.1146583" lon="11.7229383"><ele>462.0</ele><time>2026-04-03T11:36:58.073Z</time></trkpt><trkpt lat="43.1148133" lon="11.72298"><ele>462.33333333333337</ele><time>2026-04-03T11:36:59.073Z</time></trkpt><trkpt lat="43.1149967" lon="11.72303"><ele>462.6666666666667</ele><time>2026-04-03T11:37:00.074Z</time></trkpt><trkpt lat="43.11518" lon="11.7230917"><ele>463.0</ele><time>2026-04-03T11:37:01.073Z</time></trkpt><trkpt lat="43.1153783" lon="11.7231567"><ele>463.0</ele><time>2026-04-03T11:37:02.073Z</time></trkpt><trkpt lat="43.1155833" lon="11.7232167"><ele>463.0</ele><time>2026-04-03T11:37:03.073Z</time></trkpt><trkpt lat="43.1157883" lon="11.723285"><ele>463.0</ele><time>2026-04-03T11:37:04.074Z</time></trkpt><trkpt lat="43.116" lon="11.7233483"><ele>461.0</ele><time>2026-04-03T11:37:05.074Z</time></trkpt><trkpt lat="43.1162133" lon="11.723435"><ele>459.0</ele><time>2026-04-03T11:37:06.073Z</time></trkpt><trkpt lat="43.1164183" lon="11.723555"><ele>457.0</ele><time>2026-04-03T11:37:07.074Z</time></trkpt><trkpt lat="43.116645" lon="11.7236617"><ele>457.0</ele><time>2026-04-03T11:37:08.073Z</time></trkpt><trkpt lat="43.1168667" lon="11.7237567"><ele>457.0</ele><time>2026-04-03T11:37:09.073Z</time></trkpt><trkpt lat="43.11709" lon="11.7238217"><ele>457.0</ele><time>2026-04-03T11:37:10.073Z</time></trkpt><trkpt lat="43.1173183" lon="11.7238517"><ele>457.0</ele><time>2026-04-03T11:37:11.073Z</time></trkpt><trkpt lat="43.1175533" lon="11.72386"><ele>459.0</ele><time>2026-04-03T11:37:12.073Z</time></trkpt><trkpt lat="43.11779" lon="11.7238567"><ele>461.0</ele><time>2026-04-03T11:37:13.073Z</time></trkpt><trkpt lat="43.1180067" lon="11.72385"><ele>461.0</ele><time>2026-04-03T11:37:14.073Z</time></trkpt><trkpt lat="43.1182117" lon="11.7238383"><ele>461.0</ele><time>2026-04-03T11:37:15.073Z</time></trkpt><trkpt lat="43.1184133" lon="11.72385"><ele>461.0</ele><time>2026-04-03T11:37:16.073Z</time></trkpt><trkpt lat="43.11858" lon="11.7238933"><ele>463.66666666666663</ele><time>2026-04-03T11:37:17.073Z</time></trkpt><trkpt lat="43.1187233" lon="11.7239783"><ele>466.33333333333337</ele><time>2026-04-03T11:37:18.074Z</time></trkpt><trkpt lat="43.1188767" lon="11.724085"><ele>469.0</ele><time>2026-04-03T11:37:19.074Z</time></trkpt><trkpt lat="43.1190333" lon="11.7241983"><ele>467.6666666666667</ele><time>2026-04-03T11:37:20.073Z</time></trkpt><trkpt lat="43.119205" lon="11.7242933"><ele>466.33333333333337</ele><time>2026-04-03T11:37:21.073Z</time></trkpt><trkpt lat="43.1193867" lon="11.7243783"><ele>465.0</ele><time>2026-04-03T11:37:22.073Z</time></trkpt><trkpt lat="43.1195867" lon="11.7244283"><ele>465.0</ele><time>2026-04-03T11:37:23.073Z</time></trkpt><trkpt lat="43.1198" lon="11.7244483"><ele>465.0</ele><time>2026-04-03T11:37:24.073Z</time></trkpt><trkpt lat="43.1200233" lon="11.7244517"><ele>465.0</ele><time>2026-04-03T11:37:25.073Z</time></trkpt><trkpt lat="43.1202433" lon="11.72444"><ele>463.0</ele><time>2026-04-03T11:37:26.073Z</time></trkpt><trkpt lat="43.1204717" lon="11.72442"><ele>461.0</ele><time>2026-04-03T11:37:27.073Z</time></trkpt><trkpt lat="43.1207" lon="11.724395"><ele>463.0</ele><time>2026-04-03T11:37:28.073Z</time></trkpt><trkpt lat="43.120935" lon="11.7243567"><ele>465.0</ele><time>2026-04-03T11:37:29.074Z</time></trkpt><trkpt lat="43.1211567" lon="11.7243033"><ele>465.0</ele><time>2026-04-03T11:37:30.074Z</time></trkpt><trkpt lat="43.1213817" lon="11.7242667"><ele>465.0</ele><time>2026-04-03T11:37:31.073Z</time></trkpt><trkpt lat="43.1216133" lon="11.72424"><ele>466.66666666666663</ele><time>2026-04-03T11:37:32.073Z</time></trkpt><trkpt lat="43.12183" lon="11.7241983"><ele>468.3333333333333</ele><time>2026-04-03T11:37:33.073Z</time></trkpt><trkpt lat="43.12205" lon="11.7241517"><ele>470.0</ele><time>2026-04-03T11:37:34.073Z</time></trkpt><trkpt lat="43.1222733" lon="11.7241067"><ele>471.0</ele><time>2026-04-03T11:37:35.073Z</time></trkpt><trkpt lat="43.1224967" lon="11.72407"><ele>472.0</ele><time>2026-04-03T11:37:36.073Z</time></trkpt><trkpt lat="43.1227217" lon="11.7240483"><ele>472.0</ele><time>2026-04-03T11:37:37.073Z</time></trkpt><trkpt lat="43.1229383" lon="11.7240117"><ele>472.0</ele><time>2026-04-03T11:37:38.073Z</time></trkpt><trkpt lat="43.123165" lon="11.723985"><ele>472.0</ele><time>2026-04-03T11:37:39.074Z</time></trkpt><trkpt lat="43.1233767" lon="11.7239733"><ele>473.6666666666667</ele><time>2026-04-03T11:37:40.073Z</time></trkpt><trkpt lat="43.1235733" lon="11.72399"><ele>475.33333333333337</ele><time>2026-04-03T11:37:41.074Z</time></trkpt><trkpt lat="43.123765" lon="11.7240333"><ele>477.0</ele><time>2026-04-03T11:37:42.073Z</time></trkpt><trkpt lat="43.1239617" lon="11.7240683"><ele>479.33333333333337</ele><time>2026-04-03T11:37:43.074Z</time></trkpt><trkpt lat="43.1241633" lon="11.7241"><ele>481.6666666666667</ele><time>2026-04-03T11:37:44.074Z</time></trkpt><trkpt lat="43.1243633" lon="11.7241283"><ele>484.0</ele><time>2026-04-03T11:37:45.073Z</time></trkpt><trkpt lat="43.1245717" lon="11.724155"><ele>484.0</ele><time>2026-04-03T11:37:46.073Z</time></trkpt><trkpt lat="43.1247867" lon="11.724185"><ele>484.0</ele><time>2026-04-03T11:37:47.073Z</time></trkpt><trkpt lat="43.124995" lon="11.7242167"><ele>484.0</ele><time>2026-04-03T11:37:48.073Z</time></trkpt><trkpt lat="43.125185" lon="11.7242483"><ele>486.33333333333337</ele><time>2026-04-03T11:37:49.073Z</time></trkpt><trkpt lat="43.1253567" lon="11.72432"><ele>488.66666666666663</ele><time>2026-04-03T11:37:50.074Z</time></trkpt><trkpt lat="43.1255217" lon="11.7244483"><ele>491.0</ele><time>2026-04-03T11:37:51.073Z</time></trkpt><trkpt lat="43.1256567" lon="11.7246083"><ele>493.3333333333333</ele><time>2026-04-03T11:37:52.073Z</time></trkpt><trkpt lat="43.1257917" lon="11.7247967"><ele>495.66666666666663</ele><time>2026-04-03T11:37:53.073Z</time></trkpt><trkpt lat="43.1259383" lon="11.72495"><ele>498.0</ele><time>2026-04-03T11:37:54.073Z</time></trkpt><trkpt lat="43.1260917" lon="11.72509"><ele>498.0</ele><time>2026-04-03T11:37:55.073Z</time></trkpt><trkpt lat="43.1262633" lon="11.7252117"><ele>498.0</ele><time>2026-04-03T11:37:56.073Z</time></trkpt><trkpt lat="43.1264467" lon="11.7253233"><ele>498.0</ele><time>2026-04-03T11:37:57.074Z</time></trkpt><trkpt lat="43.126635" lon="11.72544"><ele>500.33333333333337</ele><time>2026-04-03T11:37:58.074Z</time></trkpt><trkpt lat="43.126825" lon="11.7255667"><ele>502.6666666666667</ele><time>2026-04-03T11:37:59.073Z</time></trkpt><trkpt lat="43.1270167" lon="11.7256867"><ele>505.0</ele><time>2026-04-03T11:38:00.073Z</time></trkpt><trkpt lat="43.1272167" lon="11.7258117"><ele>503.33333333333337</ele><time>2026-04-03T11:38:01.073Z</time></trkpt><trkpt lat="43.1274067" lon="11.725935"><ele>501.66666666666663</ele><time>2026-04-03T11:38:02.074Z</time></trkpt><trkpt lat="43.127605" lon="11.7260483"><ele>500.0</ele><time>2026-04-03T11:38:03.073Z</time></trkpt><trkpt lat="43.12779" lon="11.7261617"><ele>499.66666666666663</ele><time>2026-04-03T11:38:04.074Z</time></trkpt><trkpt lat="43.1279567" lon="11.7263"><ele>499.33333333333337</ele><time>2026-04-03T11:38:05.074Z</time></trkpt><trkpt lat="43.1281017" lon="11.7264633"><ele>499.0</ele><time>2026-04-03T11:38:06.073Z</time></trkpt><trkpt lat="43.1282083" lon="11.7266683"><ele>501.0</ele><time>2026-04-03T11:38:07.073Z</time></trkpt><trkpt lat="43.1282867" lon="11.726895"><ele>503.0</ele><time>2026-04-03T11:38:08.073Z</time></trkpt><trkpt lat="43.1283467" lon="11.7271117"><ele>505.0</ele><time>2026-04-03T11:38:09.073Z</time></trkpt><trkpt lat="43.1283883" lon="11.7273483"><ele>505.0</ele><time>2026-04-03T11:38:10.073Z</time></trkpt><trkpt lat="43.1284117" lon="11.7275783"><ele>505.0</ele><time>2026-04-03T11:38:11.074Z</time></trkpt><trkpt lat="43.1284267" lon="11.727785"><ele>505.0</ele><time>2026-04-03T11:38:12.073Z</time></trkpt><trkpt lat="43.128475" lon="11.72795"><ele>505.8</ele><time>2026-04-03T11:38:13.073Z</time></trkpt><trkpt lat="43.128565" lon="11.728055"><ele>506.6</ele><time>2026-04-03T11:38:14.073Z</time></trkpt><trkpt lat="43.128675" lon="11.7280967"><ele>507.4</ele><time>2026-04-03T11:38:15.074Z</time></trkpt><trkpt lat="43.1287767" lon="11.728105"><ele>508.2</ele><time>2026-04-03T11:38:16.073Z</time></trkpt><trkpt lat="43.128885" lon="11.72809"><ele>509.0</ele><time>2026-04-03T11:38:17.073Z</time></trkpt><trkpt lat="43.129005" lon="11.7280567"><ele>510.5</ele><time>2026-04-03T11:38:18.073Z</time></trkpt><trkpt lat="43.1291317" lon="11.7280183"><ele>512.0</ele><time>2026-04-03T11:38:19.074Z</time></trkpt><trkpt lat="43.12927" lon="11.7279883"><ele>513.5</ele><time>2026-04-03T11:38:20.073Z</time></trkpt><trkpt lat="43.1293883" lon="11.72796"><ele>515.0</ele><time>2026-04-03T11:38:21.074Z</time></trkpt><trkpt lat="43.129515" lon="11.7279467"><ele>515.0</ele><time>2026-04-03T11:38:22.073Z</time></trkpt><trkpt lat="43.1296383" lon="11.7279383"><ele>515.0</ele><time>2026-04-03T11:38:23.073Z</time></trkpt><trkpt lat="43.1297683" lon="11.72795"><ele>515.0</ele><time>2026-04-03T11:38:24.074Z</time></trkpt><trkpt lat="43.129885" lon="11.7279817"><ele>515.0</ele><time>2026-04-03T11:38:25.074Z</time></trkpt><trkpt lat="43.1300117" lon="11.7280133"><ele>514.75</ele><time>2026-04-03T11:38:26.074Z</time></trkpt><trkpt lat="43.1301433" lon="11.72804"><ele>514.5</ele><time>2026-04-03T11:38:27.074Z</time></trkpt><trkpt lat="43.1302817" lon="11.728075"><ele>514.25</ele><time>2026-04-03T11:38:28.073Z</time></trkpt><trkpt lat="43.1304233" lon="11.7281117"><ele>514.0</ele><time>2026-04-03T11:38:29.074Z</time></trkpt><trkpt lat="43.13056" lon="11.7281533"><ele>514.0</ele><time>2026-04-03T11:38:30.074Z</time></trkpt><trkpt lat="43.1307133" lon="11.7281783"><ele>514.0</ele><time>2026-04-03T11:38:31.073Z</time></trkpt><trkpt lat="43.13087" lon="11.728225"><ele>514.0</ele><time>2026-04-03T11:38:32.074Z</time></trkpt><trkpt lat="43.1310067" lon="11.7283117"><ele>516.0</ele><time>2026-04-03T11:38:33.073Z</time></trkpt><trkpt lat="43.1311217" lon="11.7284333"><ele>518.0</ele><time>2026-04-03T11:38:34.073Z</time></trkpt><trkpt lat="43.1312267" lon="11.7285817"><ele>520.0</ele><time>2026-04-03T11:38:35.073Z</time></trkpt><trkpt lat="43.1313333" lon="11.7287433"><ele>520.3333333333334</ele><time>2026-04-03T11:38:36.073Z</time></trkpt><trkpt lat="43.1314483" lon="11.7289017"><ele>520.6666666666666</ele><time>2026-04-03T11:38:37.073Z</time></trkpt><trkpt lat="43.1315717" lon="11.7290467"><ele>521.0</ele><time>2026-04-03T11:38:38.073Z</time></trkpt><trkpt lat="43.13172" lon="11.7291633"><ele>521.0</ele><time>2026-04-03T11:38:39.073Z</time></trkpt><trkpt lat="43.13188" lon="11.729265"><ele>521.0</ele><time>2026-04-03T11:38:40.073Z</time></trkpt><trkpt lat="43.1320567" lon="11.7293533"><ele>521.0</ele><time>2026-04-03T11:38:41.073Z</time></trkpt><trkpt lat="43.1322317" lon="11.7294583"><ele>520.3333333333333</ele><time>2026-04-03T11:38:42.073Z</time></trkpt><trkpt lat="43.132405" lon="11.7295817"><ele>519.6666666666666</ele><time>2026-04-03T11:38:43.073Z</time></trkpt><trkpt lat="43.13256" lon="11.729715"><ele>519.0</ele><time>2026-04-03T11:38:44.073Z</time></trkpt><trkpt lat="43.1327033" lon="11.7298417"><ele>519.0</ele><time>2026-04-03T11:38:45.073Z</time></trkpt><trkpt lat="43.1328467" lon="11.7299367"><ele>519.0</ele><time>2026-04-03T11:38:46.073Z</time></trkpt><trkpt lat="43.1329683" lon="11.72998"><ele>519.0</ele><time>2026-04-03T11:38:47.073Z</time></trkpt><trkpt lat="43.13311" lon="11.729995"><ele>519.0</ele><time>2026-04-03T11:38:48.073Z</time></trkpt><trkpt lat="43.1332367" lon="11.7299367"><ele>517.25</ele><time>2026-04-03T11:38:49.074Z</time></trkpt><trkpt lat="43.1333717" lon="11.7298417"><ele>515.5</ele><time>2026-04-03T11:38:50.073Z</time></trkpt><trkpt lat="43.1335083" lon="11.7297533"><ele>513.75</ele><time>2026-04-03T11:38:51.073Z</time></trkpt><trkpt lat="43.13364" lon="11.7296783"><ele>512.0</ele><time>2026-04-03T11:38:52.073Z</time></trkpt><trkpt lat="43.133785" lon="11.7296117"><ele>512.0</ele><time>2026-04-03T11:38:53.074Z</time></trkpt><trkpt lat="43.1339233" lon="11.72956"><ele>512.0</ele><time>2026-04-03T11:38:54.073Z</time></trkpt><trkpt lat="43.1340483" lon="11.7295267"><ele>512.0</ele><time>2026-04-03T11:38:55.073Z</time></trkpt><trkpt lat="43.1341583" lon="11.7295"><ele>512.0</ele><time>2026-04-03T11:38:56.074Z</time></trkpt><trkpt lat="43.13425" lon="11.729485"><ele>512.6</ele><time>2026-04-03T11:38:57.073Z</time></trkpt><trkpt lat="43.13434" lon="11.72946"><ele>513.2</ele><time>2026-04-03T11:38:58.073Z</time></trkpt><trkpt lat="43.1344317" lon="11.7294267"><ele>513.8</ele><time>2026-04-03T11:38:59.073Z</time></trkpt><trkpt lat="43.1345233" lon="11.7293983"><ele>514.4</ele><time>2026-04-03T11:39:00.073Z</time></trkpt><trkpt lat="43.1346183" lon="11.7293767"><ele>515.0</ele><time>2026-04-03T11:39:01.073Z</time></trkpt><trkpt lat="43.1347183" lon="11.7293683"><ele>515.0</ele><time>2026-04-03T11:39:02.073Z</time></trkpt><trkpt lat="43.1348233" lon="11.729355"><ele>515.0</ele><time>2026-04-03T11:39:03.073Z</time></trkpt><trkpt lat="43.13493" lon="11.7293483"><ele>515.0</ele><time>2026-04-03T11:39:04.073Z</time></trkpt><trkpt lat="43.13504" lon="11.7293333"><ele>515.0</ele><time>2026-04-03T11:39:05.074Z</time></trkpt><trkpt lat="43.1351567" lon="11.7293167"><ele>515.0</ele><time>2026-04-03T11:39:06.073Z</time></trkpt><trkpt lat="43.1352683" lon="11.7293167"><ele>515.5</ele><time>2026-04-03T11:39:07.073Z</time></trkpt><trkpt lat="43.1354" lon="11.7293033"><ele>516.0</ele><time>2026-04-03T11:39:08.073Z</time></trkpt><trkpt lat="43.1355317" lon="11.729305"><ele>516.5</ele><time>2026-04-03T11:39:09.073Z</time></trkpt><trkpt lat="43.1356567" lon="11.7293"><ele>517.0</ele><time>2026-04-03T11:39:10.073Z</time></trkpt><trkpt lat="43.1357817" lon="11.7292867"><ele>519.0</ele><time>2026-04-03T11:39:11.073Z</time></trkpt><trkpt lat="43.1359083" lon="11.72927"><ele>521.0</ele><time>2026-04-03T11:39:12.073Z</time></trkpt><trkpt lat="43.1360367" lon="11.7292283"><ele>523.0</ele><time>2026-04-03T11:39:13.073Z</time></trkpt><trkpt lat="43.13616" lon="11.72918"><ele>525.0</ele><time>2026-04-03T11:39:14.074Z</time></trkpt><trkpt lat="43.1362933" lon="11.7291267"><ele>525.0</ele><time>2026-04-03T11:39:15.073Z</time></trkpt><trkpt lat="43.1364317" lon="11.7290767"><ele>525.0</ele><time>2026-04-03T11:39:16.074Z</time></trkpt><trkpt lat="43.1365767" lon="11.7290233"><ele>525.0</ele><time>2026-04-03T11:39:17.073Z</time></trkpt><trkpt lat="43.13672" lon="11.72896"><ele>525.0</ele><time>2026-04-03T11:39:18.074Z</time></trkpt><trkpt lat="43.1368633" lon="11.7289167"><ele>526.6666666666666</ele><time>2026-04-03T11:39:19.073Z</time></trkpt><trkpt lat="43.1370083" lon="11.72887"><ele>528.3333333333333</ele><time>2026-04-03T11:39:20.073Z</time></trkpt><trkpt lat="43.1371633" lon="11.7288167"><ele>530.0</ele><time>2026-04-03T11:39:21.073Z</time></trkpt><trkpt lat="43.1373233" lon="11.7287667"><ele>530.0</ele><time>2026-04-03T11:39:22.073Z</time></trkpt><trkpt lat="43.1374783" lon="11.7287367"><ele>530.0</ele><time>2026-04-03T11:39:23.073Z</time></trkpt><trkpt lat="43.1376283" lon="11.7287533"><ele>530.0</ele><time>2026-04-03T11:39:24.074Z</time></trkpt><trkpt lat="43.1377783" lon="11.7288017"><ele>530.0</ele><time>2026-04-03T11:39:25.073Z</time></trkpt><trkpt lat="43.137935" lon="11.728825"><ele>530.0</ele><time>2026-04-03T11:39:26.073Z</time></trkpt><trkpt lat="43.1380817" lon="11.7288183"><ele>530.0</ele><time>2026-04-03T11:39:27.073Z</time></trkpt><trkpt lat="43.1382317" lon="11.728795"><ele>531.0</ele><time>2026-04-03T11:39:28.073Z</time></trkpt><trkpt lat="43.1383867" lon="11.728755"><ele>532.0</ele><time>2026-04-03T11:39:29.074Z</time></trkpt><trkpt lat="43.1385417" lon="11.72869"><ele>533.0</ele><time>2026-04-03T11:39:30.074Z</time></trkpt><trkpt lat="43.1387" lon="11.7285983"><ele>534.6666666666666</ele><time>2026-04-03T11:39:31.073Z</time></trkpt><trkpt lat="43.1388517" lon="11.7285"><ele>536.3333333333334</ele><time>2026-04-03T11:39:32.074Z</time></trkpt><trkpt lat="43.1390017" lon="11.7284067"><ele>538.0</ele><time>2026-04-03T11:39:33.073Z</time></trkpt><trkpt lat="43.1391533" lon="11.7283117"><ele>538.0</ele><time>2026-04-03T11:39:34.073Z</time></trkpt><trkpt lat="43.1393067" lon="11.7282183"><ele>538.0</ele><time>2026-04-03T11:39:35.074Z</time></trkpt><trkpt lat="43.139475" lon="11.7281317"><ele>538.0</ele><time>2026-04-03T11:39:36.074Z</time></trkpt><trkpt lat="43.1396567" lon="11.7280583"><ele>538.0</ele><time>2026-04-03T11:39:37.073Z</time></trkpt><trkpt lat="43.1398467" lon="11.7280083"><ele>538.0</ele><time>2026-04-03T11:39:38.073Z</time></trkpt><trkpt lat="43.1400267" lon="11.727985"><ele>538.0</ele><time>2026-04-03T11:39:39.073Z</time></trkpt><trkpt lat="43.1402133" lon="11.7279617"><ele>539.0</ele><time>2026-04-03T11:39:40.073Z</time></trkpt><trkpt lat="43.1404017" lon="11.7279383"><ele>540.0</ele><time>2026-04-03T11:39:41.073Z</time></trkpt><trkpt lat="43.1405917" lon="11.727895"><ele>541.0</ele><time>2026-04-03T11:39:42.073Z</time></trkpt><trkpt lat="43.140785" lon="11.727825"><ele>542.3333333333334</ele><time>2026-04-03T11:39:43.073Z</time></trkpt><trkpt lat="43.140975" lon="11.7277583"><ele>543.6666666666666</ele><time>2026-04-03T11:39:44.074Z</time></trkpt><trkpt lat="43.141155" lon="11.7276783"><ele>545.0</ele><time>2026-04-03T11:39:45.074Z</time></trkpt><trkpt lat="43.1412983" lon="11.7275933"><ele>545.25</ele><time>2026-04-03T11:39:46.074Z</time></trkpt><trkpt lat="43.1414333" lon="11.72751"><ele>545.5</ele><time>2026-04-03T11:39:47.073Z</time></trkpt><trkpt lat="43.1415483" lon="11.727435"><ele>545.75</ele><time>2026-04-03T11:39:48.073Z</time></trkpt><trkpt lat="43.141665" lon="11.7273633"><ele>546.0</ele><time>2026-04-03T11:39:49.073Z</time></trkpt><trkpt lat="43.141785" lon="11.72729"><ele>547.0</ele><time>2026-04-03T11:39:50.073Z</time></trkpt><trkpt lat="43.1419067" lon="11.7272317"><ele>548.0</ele><time>2026-04-03T11:39:51.073Z</time></trkpt><trkpt lat="43.14204" lon="11.727165"><ele>549.0</ele><time>2026-04-03T11:39:52.074Z</time></trkpt><trkpt lat="43.1421817" lon="11.7270983"><ele>550.0</ele><time>2026-04-03T11:39:53.074Z</time></trkpt><trkpt lat="43.142325" lon="11.7270283"><ele>549.75</ele><time>2026-04-03T11:39:54.074Z</time></trkpt><trkpt lat="43.142465" lon="11.72698"><ele>549.5</ele><time>2026-04-03T11:39:55.074Z</time></trkpt><trkpt lat="43.1426033" lon="11.7269283"><ele>549.25</ele><time>2026-04-03T11:39:56.073Z</time></trkpt><trkpt lat="43.142745" lon="11.7268567"><ele>549.0</ele><time>2026-04-03T11:39:57.073Z</time></trkpt><trkpt lat="43.14288" lon="11.726775"><ele>549.0</ele><time>2026-04-03T11:39:58.073Z</time></trkpt><trkpt lat="43.1430217" lon="11.7267083"><ele>549.0</ele><time>2026-04-03T11:39:59.073Z</time></trkpt><trkpt lat="43.1431733" lon="11.72664"><ele>549.0</ele><time>2026-04-03T11:40:00.074Z</time></trkpt><trkpt lat="43.14333" lon="11.72657"><ele>549.3333333333334</ele><time>2026-04-03T11:40:01.073Z</time></trkpt><trkpt lat="43.1434917" lon="11.7264917"><ele>549.6666666666667</ele><time>2026-04-03T11:40:02.073Z</time></trkpt><trkpt lat="43.1436467" lon="11.7264283"><ele>550.0</ele><time>2026-04-03T11:40:03.073Z</time></trkpt><trkpt lat="43.1437917" lon="11.7263433"><ele>550.0</ele><time>2026-04-03T11:40:04.074Z</time></trkpt><trkpt lat="43.143925" lon="11.726285"><ele>550.0</ele><time>2026-04-03T11:40:05.073Z</time></trkpt><trkpt lat="43.1440517" lon="11.7262533"><ele>550.0</ele><time>2026-04-03T11:40:06.074Z</time></trkpt><trkpt lat="43.1441533" lon="11.7262083"><ele>550.0</ele><time>2026-04-03T11:40:07.073Z</time></trkpt><trkpt lat="43.14423" lon="11.7261833"><ele>549.5</ele><time>2026-04-03T11:40:08.073Z</time></trkpt><trkpt lat="43.1443167" lon="11.7261533"><ele>549.0</ele><time>2026-04-03T11:40:09.074Z</time></trkpt><trkpt lat="43.144395" lon="11.7261617"><ele>548.5</ele><time>2026-04-03T11:40:10.074Z</time></trkpt><trkpt lat="43.14447" lon="11.72619"><ele>548.0</ele><time>2026-04-03T11:40:11.074Z</time></trkpt><trkpt lat="43.1445317" lon="11.72625"><ele>547.5</ele><time>2026-04-03T11:40:12.073Z</time></trkpt><trkpt lat="43.1445833" lon="11.726335"><ele>547.0</ele><time>2026-04-03T11:40:13.073Z</time></trkpt><trkpt lat="43.1446433" lon="11.726455"><ele>547.0</ele><time>2026-04-03T11:40:14.073Z</time></trkpt><trkpt lat="43.1447017" lon="11.7265667"><ele>547.0</ele><time>2026-04-03T11:40:15.074Z</time></trkpt><trkpt lat="43.1447517" lon="11.72667"><ele>547.0</ele><time>2026-04-03T11:40:16.073Z</time></trkpt><trkpt lat="43.1447867" lon="11.7267667"><ele>547.0</ele><time>2026-04-03T11:40:17.073Z</time></trkpt><trkpt lat="43.1448233" lon="11.726855"><ele>547.0</ele><time>2026-04-03T11:40:18.073Z</time></trkpt><trkpt lat="43.1448767" lon="11.72699"><ele>547.6</ele><time>2026-04-03T11:40:20.073Z</time></trkpt><trkpt lat="43.1449533" lon="11.72708"><ele>548.2</ele><time>2026-04-03T11:40:22.074Z</time></trkpt><trkpt lat="43.14502" lon="11.72712"><ele>548.8</ele><time>2026-04-03T11:40:24.074Z</time></trkpt><trkpt lat="43.145115" lon="11.7271217"><ele>549.4</ele><time>2026-04-03T11:43:34.072Z</time></trkpt><trkpt lat="43.14523" lon="11.7271083"><ele>550.0</ele><time>2026-04-03T11:43:36.072Z</time></trkpt><trkpt lat="43.14532" lon="11.7271067"><ele>550.0</ele><time>2026-04-03T11:43:37.073Z</time></trkpt><trkpt lat="43.14541" lon="11.7271117"><ele>550.0</ele><time>2026-04-03T11:43:38.073Z</time></trkpt><trkpt lat="43.1455" lon="11.7271267"><ele>550.0</ele><time>2026-04-03T11:43:39.072Z</time></trkpt><trkpt lat="43.1455767" lon="11.7271667"><ele>550.0</ele><time>2026-04-03T11:43:40.073Z</time></trkpt><trkpt lat="43.1456583" lon="11.7272367"><ele>550.0</ele><time>2026-04-03T11:43:41.072Z</time></trkpt><trkpt lat="43.1457317" lon="11.7273233"><ele>545.5</ele><time>2026-04-03T11:43:42.073Z</time></trkpt><trkpt lat="43.1457983" lon="11.7274467"><ele>541.0</ele><time>2026-04-03T11:43:43.073Z</time></trkpt><trkpt lat="43.14587" lon="11.7275967"><ele>536.5</ele><time>2026-04-03T11:43:44.072Z</time></trkpt><trkpt lat="43.1459433" lon="11.7277517"><ele>532.0</ele><time>2026-04-03T11:43:45.072Z</time></trkpt><trkpt lat="43.1460167" lon="11.7279"><ele>532.0</ele><time>2026-04-03T11:43:46.072Z</time></trkpt><trkpt lat="43.1460883" lon="11.728035"><ele>532.0</ele><time>2026-04-03T11:43:47.072Z</time></trkpt><trkpt lat="43.1461633" lon="11.7281583"><ele>532.0</ele><time>2026-04-03T11:43:48.072Z</time></trkpt><trkpt lat="43.14622" lon="11.7282633"><ele>532.0</ele><time>2026-04-03T11:43:49.073Z</time></trkpt><trkpt lat="43.1462733" lon="11.7283617"><ele>532.0</ele><time>2026-04-03T11:43:50.073Z</time></trkpt><trkpt lat="43.146315" lon="11.7284617"><ele>530.0</ele><time>2026-04-03T11:43:51.072Z</time></trkpt><trkpt lat="43.1463467" lon="11.728575"><ele>528.0</ele><time>2026-04-03T11:43:52.073Z</time></trkpt><trkpt lat="43.1463533" lon="11.728695"><ele>526.0</ele><time>2026-04-03T11:43:53.073Z</time></trkpt><trkpt lat="43.1463383" lon="11.7288283"><ele>524.0</ele><time>2026-04-03T11:43:54.072Z</time></trkpt><trkpt lat="43.14631" lon="11.7289833"><ele>522.0</ele><time>2026-04-03T11:43:55.072Z</time></trkpt><trkpt lat="43.146285" lon="11.7291567"><ele>522.0</ele><time>2026-04-03T11:43:56.072Z</time></trkpt><trkpt lat="43.1462617" lon="11.7293267"><ele>522.0</ele><time>2026-04-03T11:43:57.072Z</time></trkpt><trkpt lat="43.146235" lon="11.7294867"><ele>522.0</ele><time>2026-04-03T11:43:58.073Z</time></trkpt><trkpt lat="43.1461817" lon="11.7296283"><ele>522.0</ele><time>2026-04-03T11:43:59.072Z</time></trkpt><trkpt lat="43.1461183" lon="11.7297467"><ele>520.0</ele><time>2026-04-03T11:44:00.072Z</time></trkpt><trkpt lat="43.1460283" lon="11.72986"><ele>518.0</ele><time>2026-04-03T11:44:01.073Z</time></trkpt><trkpt lat="43.1459367" lon="11.7299617"><ele>516.0</ele><time>2026-04-03T11:44:02.073Z</time></trkpt><trkpt lat="43.1458567" lon="11.7300517"><ele>514.0</ele><time>2026-04-03T11:44:03.072Z</time></trkpt><trkpt lat="43.1458033" lon="11.7301367"><ele>512.0</ele><time>2026-04-03T11:44:04.072Z</time></trkpt><trkpt lat="43.14577" lon="11.73023"><ele>511.0</ele><time>2026-04-03T11:44:05.072Z</time></trkpt><trkpt lat="43.14577" lon="11.7303317"><ele>510.00000000000006</ele><time>2026-04-03T11:44:06.073Z</time></trkpt><trkpt lat="43.1458133" lon="11.7304233"><ele>509.00000000000006</ele><time>2026-04-03T11:44:07.073Z</time></trkpt><trkpt lat="43.1458633" lon="11.7305283"><ele>508.0</ele><time>2026-04-03T11:44:08.072Z</time></trkpt><trkpt lat="43.1459383" lon="11.7306417"><ele>507.0</ele><time>2026-04-03T11:44:09.073Z</time></trkpt><trkpt lat="43.1460483" lon="11.73078"><ele>507.0</ele><time>2026-04-03T11:44:10.072Z</time></trkpt><trkpt lat="43.1461733" lon="11.7309233"><ele>507.0</ele><time>2026-04-03T11:44:11.072Z</time></trkpt><trkpt lat="43.146295" lon="11.7310667"><ele>507.0</ele><time>2026-04-03T11:44:12.073Z</time></trkpt><trkpt lat="43.146415" lon="11.7312"><ele>507.5</ele><time>2026-04-03T11:44:13.072Z</time></trkpt><trkpt lat="43.1465267" lon="11.7313283"><ele>508.0</ele><time>2026-04-03T11:44:14.072Z</time></trkpt><trkpt lat="43.1466333" lon="11.7314467"><ele>508.5</ele><time>2026-04-03T11:44:15.072Z</time></trkpt><trkpt lat="43.14674" lon="11.7315683"><ele>509.0</ele><time>2026-04-03T11:44:16.072Z</time></trkpt><trkpt lat="43.1468483" lon="11.7316833"><ele>503.66666666666663</ele><time>2026-04-03T11:44:17.072Z</time></trkpt><trkpt lat="43.146955" lon="11.7318217"><ele>498.33333333333337</ele><time>2026-04-03T11:44:18.072Z</time></trkpt><trkpt lat="43.1470617" lon="11.7319683"><ele>493.0</ele><time>2026-04-03T11:44:19.072Z</time></trkpt><trkpt lat="43.1471617" lon="11.7321367"><ele>491.33333333333337</ele><time>2026-04-03T11:44:20.072Z</time></trkpt><trkpt lat="43.1472617" lon="11.732315"><ele>489.66666666666663</ele><time>2026-04-03T11:44:21.072Z</time></trkpt><trkpt lat="43.1473517" lon="11.732505"><ele>488.0</ele><time>2026-04-03T11:44:22.072Z</time></trkpt><trkpt lat="43.1474483" lon="11.7327083"><ele>481.3333333333333</ele><time>2026-04-03T11:44:23.072Z</time></trkpt><trkpt lat="43.14754" lon="11.7329033"><ele>474.66666666666663</ele><time>2026-04-03T11:44:24.072Z</time></trkpt><trkpt lat="43.1476283" lon="11.733085"><ele>468.0</ele><time>2026-04-03T11:44:25.073Z</time></trkpt><trkpt lat="43.1477117" lon="11.73327"><ele>468.0</ele><time>2026-04-03T11:44:26.072Z</time></trkpt><trkpt lat="43.1477867" lon="11.7334433"><ele>468.0</ele><time>2026-04-03T11:44:27.072Z</time></trkpt><trkpt lat="43.1478667" lon="11.733605"><ele>468.0</ele><time>2026-04-03T11:44:28.072Z</time></trkpt><trkpt lat="43.1479417" lon="11.7337817"><ele>468.0</ele><time>2026-04-03T11:44:29.072Z</time></trkpt><trkpt lat="43.14803" lon="11.7339517"><ele>468.33333333333337</ele><time>2026-04-03T11:44:30.072Z</time></trkpt><trkpt lat="43.1481233" lon="11.7341367"><ele>468.6666666666667</ele><time>2026-04-03T11:44:31.072Z</time></trkpt><trkpt lat="43.14822" lon="11.7343183"><ele>469.0</ele><time>2026-04-03T11:44:32.072Z</time></trkpt><trkpt lat="43.1483267" lon="11.734485"><ele>465.0</ele><time>2026-04-03T11:44:33.073Z</time></trkpt><trkpt lat="43.1484133" lon="11.73464"><ele>461.0</ele><time>2026-04-03T11:44:34.072Z</time></trkpt><trkpt lat="43.14851" lon="11.7347767"><ele>457.0</ele><time>2026-04-03T11:44:35.072Z</time></trkpt><trkpt lat="43.1485983" lon="11.734915"><ele>453.0</ele><time>2026-04-03T11:44:36.073Z</time></trkpt><trkpt lat="43.1486683" lon="11.7350717"><ele>453.5</ele><time>2026-04-03T11:44:37.072Z</time></trkpt><trkpt lat="43.14874" lon="11.7352417"><ele>454.0</ele><time>2026-04-03T11:44:38.072Z</time></trkpt><trkpt lat="43.14878" lon="11.7353917"><ele>454.5</ele><time>2026-04-03T11:44:39.072Z</time></trkpt><trkpt lat="43.1488317" lon="11.735525"><ele>455.0</ele><time>2026-04-03T11:44:40.072Z</time></trkpt><trkpt lat="43.1489083" lon="11.7356367"><ele>455.0</ele><time>2026-04-03T11:44:41.072Z</time></trkpt><trkpt lat="43.1489983" lon="11.7357317"><ele>455.0</ele><time>2026-04-03T11:44:42.072Z</time></trkpt><trkpt lat="43.1490983" lon="11.735825"><ele>455.0</ele><time>2026-04-03T11:44:43.072Z</time></trkpt><trkpt lat="43.149205" lon="11.7359283"><ele>455.0</ele><time>2026-04-03T11:44:44.072Z</time></trkpt><trkpt lat="43.1493183" lon="11.736055"><ele>451.0</ele><time>2026-04-03T11:44:45.072Z</time></trkpt><trkpt lat="43.1494383" lon="11.7362033"><ele>447.0</ele><time>2026-04-03T11:44:46.073Z</time></trkpt><trkpt lat="43.1495533" lon="11.73635"><ele>443.0</ele><time>2026-04-03T11:44:47.072Z</time></trkpt><trkpt lat="43.1496583" lon="11.7364883"><ele>443.0</ele><time>2026-04-03T11:44:48.072Z</time></trkpt><trkpt lat="43.1497533" lon="11.7366433"><ele>443.0</ele><time>2026-04-03T11:44:49.072Z</time></trkpt><trkpt lat="43.1498317" lon="11.736805"><ele>443.0</ele><time>2026-04-03T11:44:50.072Z</time></trkpt><trkpt lat="43.1499067" lon="11.736955"><ele>443.0</ele><time>2026-04-03T11:44:51.073Z</time></trkpt><trkpt lat="43.149985" lon="11.737125"><ele>440.2</ele><time>2026-04-03T11:44:52.071Z</time></trkpt><trkpt lat="43.1500433" lon="11.7372633"><ele>437.4</ele><time>2026-04-03T11:44:53.071Z</time></trkpt><trkpt lat="43.1500933" lon="11.7373783"><ele>434.59999999999997</ele><time>2026-04-03T11:44:54.071Z</time></trkpt><trkpt lat="43.15015" lon="11.737465"><ele>431.79999999999995</ele><time>2026-04-03T11:44:55.072Z</time></trkpt><trkpt lat="43.1502333" lon="11.7375333"><ele>429.0</ele><time>2026-04-03T11:44:56.071Z</time></trkpt><trkpt lat="43.1503233" lon="11.737585"><ele>429.0</ele><time>2026-04-03T11:44:57.071Z</time></trkpt><trkpt lat="43.1504433" lon="11.73759"><ele>429.0</ele><time>2026-04-03T11:44:58.071Z</time></trkpt><trkpt lat="43.1505817" lon="11.7375733"><ele>429.0</ele><time>2026-04-03T11:44:59.071Z</time></trkpt><trkpt lat="43.150745" lon="11.7375517"><ele>429.0</ele><time>2026-04-03T11:45:00.072Z</time></trkpt><trkpt lat="43.1509067" lon="11.7375333"><ele>426.25</ele><time>2026-04-03T11:45:01.071Z</time></trkpt><trkpt lat="43.1510617" lon="11.7375333"><ele>423.5</ele><time>2026-04-03T11:45:02.071Z</time></trkpt><trkpt lat="43.1512017" lon="11.737545"><ele>420.75</ele><time>2026-04-03T11:45:03.071Z</time></trkpt><trkpt lat="43.151335" lon="11.73758"><ele>418.0</ele><time>2026-04-03T11:45:04.072Z</time></trkpt><trkpt lat="43.1514667" lon="11.7376267"><ele>417.0</ele><time>2026-04-03T11:45:05.071Z</time></trkpt><trkpt lat="43.1515833" lon="11.7377117"><ele>416.0</ele><time>2026-04-03T11:45:06.071Z</time></trkpt><trkpt lat="43.151685" lon="11.7378483"><ele>415.0</ele><time>2026-04-03T11:45:07.072Z</time></trkpt><trkpt lat="43.1517667" lon="11.7379917"><ele>414.0</ele><time>2026-04-03T11:45:08.072Z</time></trkpt><trkpt lat="43.1518317" lon="11.7381333"><ele>413.75</ele><time>2026-04-03T11:45:09.071Z</time></trkpt><trkpt lat="43.1518817" lon="11.7382783"><ele>413.5</ele><time>2026-04-03T11:45:10.071Z</time></trkpt><trkpt lat="43.1519383" lon="11.7384217"><ele>413.25</ele><time>2026-04-03T11:45:11.071Z</time></trkpt><trkpt lat="43.1519883" lon="11.73859"><ele>413.0</ele><time>2026-04-03T11:45:12.071Z</time></trkpt><trkpt lat="43.1520383" lon="11.7387567"><ele>411.25</ele><time>2026-04-03T11:45:13.071Z</time></trkpt><trkpt lat="43.1521" lon="11.738925"><ele>409.5</ele><time>2026-04-03T11:45:14.072Z</time></trkpt><trkpt lat="43.1521767" lon="11.7390867"><ele>407.75</ele><time>2026-04-03T11:45:15.071Z</time></trkpt><trkpt lat="43.152255" lon="11.7392467"><ele>406.0</ele><time>2026-04-03T11:45:16.071Z</time></trkpt><trkpt lat="43.1523417" lon="11.73939"><ele>403.5</ele><time>2026-04-03T11:45:17.072Z</time></trkpt><trkpt lat="43.1524317" lon="11.7395167"><ele>401.0</ele><time>2026-04-03T11:45:18.072Z</time></trkpt><trkpt lat="43.1525133" lon="11.7396283"><ele>398.5</ele><time>2026-04-03T11:45:19.072Z</time></trkpt><trkpt lat="43.1526033" lon="11.7397233"><ele>396.0</ele><time>2026-04-03T11:45:20.072Z</time></trkpt><trkpt lat="43.1526883" lon="11.7398217"><ele>396.0</ele><time>2026-04-03T11:45:21.071Z</time></trkpt><trkpt lat="43.1527867" lon="11.73991"><ele>396.0</ele><time>2026-04-03T11:45:22.072Z</time></trkpt><trkpt lat="43.1528717" lon="11.739995"><ele>396.0</ele><time>2026-04-03T11:45:23.071Z</time></trkpt><trkpt lat="43.15295" lon="11.7400817"><ele>396.0</ele><time>2026-04-03T11:45:24.071Z</time></trkpt><trkpt lat="43.1530133" lon="11.7401733"><ele>396.0</ele><time>2026-04-03T11:45:25.071Z</time></trkpt><trkpt lat="43.15306" lon="11.7402383"><ele>393.6666666666667</ele><time>2026-04-03T11:45:26.071Z</time></trkpt><trkpt lat="43.1530933" lon="11.740325"><ele>391.3333333333333</ele><time>2026-04-03T11:45:29.072Z</time></trkpt><trkpt lat="43.1530233" lon="11.740405"><ele>389.0</ele><time>2026-04-03T11:45:44.071Z</time></trkpt><trkpt lat="43.1529317" lon="11.7404317"><ele>386.66666666666663</ele><time>2026-04-03T11:45:46.072Z</time></trkpt><trkpt lat="43.152875" lon="11.7404817"><ele>384.3333333333333</ele><time>2026-04-03T11:45:48.071Z</time></trkpt><trkpt lat="43.152925" lon="11.740605"><ele>382.0</ele><time>2026-04-03T11:45:51.071Z</time></trkpt><trkpt lat="43.1529883" lon="11.7406617"><ele>382.0</ele><time>2026-04-03T11:45:52.071Z</time></trkpt><trkpt lat="43.153075" lon="11.7407183"><ele>382.0</ele><time>2026-04-03T11:45:53.071Z</time></trkpt><trkpt lat="43.1531767" lon="11.7407733"><ele>382.0</ele><time>2026-04-03T11:45:54.072Z</time></trkpt><trkpt lat="43.15329" lon="11.74083"><ele>382.0</ele><time>2026-04-03T11:45:55.071Z</time></trkpt><trkpt lat="43.1534" lon="11.7409133"><ele>383.25</ele><time>2026-04-03T11:45:56.072Z</time></trkpt><trkpt lat="43.1535133" lon="11.7409983"><ele>384.5</ele><time>2026-04-03T11:45:57.071Z</time></trkpt><trkpt lat="43.15363" lon="11.7411017"><ele>385.75</ele><time>2026-04-03T11:45:58.071Z</time></trkpt><trkpt lat="43.15374" lon="11.7411983"><ele>387.0</ele><time>2026-04-03T11:45:59.071Z</time></trkpt><trkpt lat="43.1538433" lon="11.7413133"><ele>384.25</ele><time>2026-04-03T11:46:00.072Z</time></trkpt><trkpt lat="43.1539517" lon="11.7414433"><ele>381.5</ele><time>2026-04-03T11:46:01.071Z</time></trkpt><trkpt lat="43.1540417" lon="11.7416"><ele>378.75</ele><time>2026-04-03T11:46:02.072Z</time></trkpt><trkpt lat="43.1541083" lon="11.7417733"><ele>376.0</ele><time>2026-04-03T11:46:03.071Z</time></trkpt><trkpt lat="43.15417" lon="11.7419667"><ele>374.3333333333333</ele><time>2026-04-03T11:46:04.071Z</time></trkpt><trkpt lat="43.1542233" lon="11.7421733"><ele>372.6666666666667</ele><time>2026-04-03T11:46:05.072Z</time></trkpt><trkpt lat="43.154285" lon="11.7423917"><ele>371.0</ele><time>2026-04-03T11:46:06.071Z</time></trkpt><trkpt lat="43.1543433" lon="11.7426267"><ele>370.6666666666667</ele><time>2026-04-03T11:46:07.071Z</time></trkpt><trkpt lat="43.1543667" lon="11.7428567"><ele>370.3333333333333</ele><time>2026-04-03T11:46:08.071Z</time></trkpt><trkpt lat="43.1543467" lon="11.7430767"><ele>370.0</ele><time>2026-04-03T11:46:09.071Z</time></trkpt><trkpt lat="43.1542883" lon="11.7432967"><ele>370.0</ele><time>2026-04-03T11:46:10.071Z</time></trkpt><trkpt lat="43.154215" lon="11.7435233"><ele>370.0</ele><time>2026-04-03T11:46:11.071Z</time></trkpt><trkpt lat="43.154155" lon="11.7437383"><ele>370.0</ele><time>2026-04-03T11:46:12.071Z</time></trkpt><trkpt lat="43.1541017" lon="11.7439617"><ele>371.66666666666663</ele><time>2026-04-03T11:46:13.071Z</time></trkpt><trkpt lat="43.1540633" lon="11.7441917"><ele>373.3333333333333</ele><time>2026-04-03T11:46:14.071Z</time></trkpt><trkpt lat="43.15404" lon="11.7444183"><ele>375.0</ele><time>2026-04-03T11:46:15.071Z</time></trkpt><trkpt lat="43.15403" lon="11.744645"><ele>375.0</ele><time>2026-04-03T11:46:16.071Z</time></trkpt><trkpt lat="43.1540483" lon="11.7448783"><ele>375.0</ele><time>2026-04-03T11:46:17.072Z</time></trkpt><trkpt lat="43.1540783" lon="11.7451083"><ele>375.0</ele><time>2026-04-03T11:46:18.071Z</time></trkpt><trkpt lat="43.1541317" lon="11.7453433"><ele>374.0</ele><time>2026-04-03T11:46:19.071Z</time></trkpt><trkpt lat="43.154185" lon="11.7455817"><ele>373.0</ele><time>2026-04-03T11:46:20.072Z</time></trkpt><trkpt lat="43.154235" lon="11.7458333"><ele>372.0</ele><time>2026-04-03T11:46:21.071Z</time></trkpt><trkpt lat="43.154275" lon="11.74609"><ele>371.0</ele><time>2026-04-03T11:46:22.071Z</time></trkpt><trkpt lat="43.1543067" lon="11.7463567"><ele>370.0</ele><time>2026-04-03T11:46:23.071Z</time></trkpt><trkpt lat="43.1543383" lon="11.7466283"><ele>369.0</ele><time>2026-04-03T11:46:24.071Z</time></trkpt><trkpt lat="43.1543783" lon="11.7468983"><ele>368.3333333333333</ele><time>2026-04-03T11:46:25.071Z</time></trkpt><trkpt lat="43.1544133" lon="11.747175"><ele>367.66666666666663</ele><time>2026-04-03T11:46:26.072Z</time></trkpt><trkpt lat="43.1544733" lon="11.7474733"><ele>367.0</ele><time>2026-04-03T11:46:27.071Z</time></trkpt><trkpt lat="43.1545567" lon="11.7477617"><ele>364.66666666666663</ele><time>2026-04-03T11:46:28.071Z</time></trkpt><trkpt lat="43.1546517" lon="11.7480333"><ele>362.3333333333333</ele><time>2026-04-03T11:46:29.071Z</time></trkpt><trkpt lat="43.1547283" lon="11.7483"><ele>360.0</ele><time>2026-04-03T11:46:30.071Z</time></trkpt><trkpt lat="43.1548183" lon="11.7485383"><ele>363.3333333333333</ele><time>2026-04-03T11:46:31.071Z</time></trkpt><trkpt lat="43.1549" lon="11.7487583"><ele>366.66666666666663</ele><time>2026-04-03T11:46:32.071Z</time></trkpt><trkpt lat="43.155005" lon="11.74894"><ele>370.0</ele><time>2026-04-03T11:46:33.072Z</time></trkpt><trkpt lat="43.1551217" lon="11.749105"><ele>370.0</ele><time>2026-04-03T11:46:34.071Z</time></trkpt><trkpt lat="43.1552533" lon="11.74926"><ele>370.0</ele><time>2026-04-03T11:46:35.071Z</time></trkpt><trkpt lat="43.1553817" lon="11.7494217"><ele>370.0</ele><time>2026-04-03T11:46:36.072Z</time></trkpt><trkpt lat="43.155505" lon="11.749615"><ele>367.0</ele><time>2026-04-03T11:46:37.071Z</time></trkpt><trkpt lat="43.1556183" lon="11.7498283"><ele>364.0</ele><time>2026-04-03T11:46:38.072Z</time></trkpt><trkpt lat="43.155715" lon="11.7500617"><ele>361.0</ele><time>2026-04-03T11:46:39.071Z</time></trkpt><trkpt lat="43.15581" lon="11.7502917"><ele>360.3333333333333</ele><time>2026-04-03T11:46:40.071Z</time></trkpt><trkpt lat="43.1559067" lon="11.7505283"><ele>359.6666666666667</ele><time>2026-04-03T11:46:41.071Z</time></trkpt><trkpt lat="43.156005" lon="11.7507733"><ele>359.0</ele><time>2026-04-03T11:46:42.071Z</time></trkpt><trkpt lat="43.1561" lon="11.751015"><ele>360.33333333333337</ele><time>2026-04-03T11:46:43.071Z</time></trkpt><trkpt lat="43.1561967" lon="11.75127"><ele>361.6666666666667</ele><time>2026-04-03T11:46:44.071Z</time></trkpt><trkpt lat="43.1562983" lon="11.7515117"><ele>363.0</ele><time>2026-04-03T11:46:45.071Z</time></trkpt><trkpt lat="43.15642" lon="11.751745"><ele>364.3333333333333</ele><time>2026-04-03T11:46:46.071Z</time></trkpt><trkpt lat="43.1565667" lon="11.751945"><ele>365.66666666666663</ele><time>2026-04-03T11:46:47.072Z</time></trkpt><trkpt lat="43.15672" lon="11.7520917"><ele>367.0</ele><time>2026-04-03T11:46:48.071Z</time></trkpt><trkpt lat="43.156895" lon="11.7521917"><ele>367.0</ele><time>2026-04-03T11:46:49.072Z</time></trkpt><trkpt lat="43.15706" lon="11.752305"><ele>367.0</ele><time>2026-04-03T11:46:50.071Z</time></trkpt><trkpt lat="43.157215" lon="11.7524267"><ele>367.0</ele><time>2026-04-03T11:46:51.071Z</time></trkpt><trkpt lat="43.15736" lon="11.7525817"><ele>364.3333333333333</ele><time>2026-04-03T11:46:52.072Z</time></trkpt><trkpt lat="43.157465" lon="11.75277"><ele>361.6666666666667</ele><time>2026-04-03T11:46:53.071Z</time></trkpt><trkpt lat="43.1575417" lon="11.7529817"><ele>359.0</ele><time>2026-04-03T11:46:54.071Z</time></trkpt><trkpt lat="43.1576167" lon="11.7532067"><ele>359.0</ele><time>2026-04-03T11:46:55.071Z</time></trkpt><trkpt lat="43.157705" lon="11.75342"><ele>359.0</ele><time>2026-04-03T11:46:56.071Z</time></trkpt><trkpt lat="43.157815" lon="11.753605"><ele>359.0</ele><time>2026-04-03T11:46:57.072Z</time></trkpt><trkpt lat="43.1579367" lon="11.7537833"><ele>357.6666666666667</ele><time>2026-04-03T11:46:58.072Z</time></trkpt><trkpt lat="43.1580783" lon="11.7539683"><ele>356.3333333333333</ele><time>2026-04-03T11:46:59.072Z</time></trkpt><trkpt lat="43.1582233" lon="11.75414"><ele>355.0</ele><time>2026-04-03T11:47:00.071Z</time></trkpt><trkpt lat="43.158365" lon="11.7543083"><ele>350.0</ele><time>2026-04-03T11:47:01.072Z</time></trkpt><trkpt lat="43.15849" lon="11.7544733"><ele>345.0</ele><time>2026-04-03T11:47:02.071Z</time></trkpt><trkpt lat="43.158605" lon="11.7546333"><ele>340.0</ele><time>2026-04-03T11:47:03.071Z</time></trkpt><trkpt lat="43.1587183" lon="11.7547767"><ele>340.0</ele><time>2026-04-03T11:47:04.072Z</time></trkpt><trkpt lat="43.1588333" lon="11.754885"><ele>340.0</ele><time>2026-04-03T11:47:05.071Z</time></trkpt><trkpt lat="43.1589617" lon="11.754975"><ele>340.0</ele><time>2026-04-03T11:47:06.071Z</time></trkpt><trkpt lat="43.1591233" lon="11.75505"><ele>344.3333333333333</ele><time>2026-04-03T11:47:07.072Z</time></trkpt><trkpt lat="43.1592767" lon="11.7551117"><ele>348.6666666666667</ele><time>2026-04-03T11:47:08.072Z</time></trkpt><trkpt lat="43.1594417" lon="11.7551517"><ele>353.0</ele><time>2026-04-03T11:47:09.072Z</time></trkpt><trkpt lat="43.1596083" lon="11.7551833"><ele>350.0</ele><time>2026-04-03T11:47:10.072Z</time></trkpt><trkpt lat="43.1597733" lon="11.7552133"><ele>347.0</ele><time>2026-04-03T11:47:11.072Z</time></trkpt><trkpt lat="43.15994" lon="11.755235"><ele>344.0</ele><time>2026-04-03T11:47:12.071Z</time></trkpt><trkpt lat="43.1601033" lon="11.7552533"><ele>344.0</ele><time>2026-04-03T11:47:13.072Z</time></trkpt><trkpt lat="43.1602783" lon="11.7552783"><ele>344.0</ele><time>2026-04-03T11:47:14.071Z</time></trkpt><trkpt lat="43.1604583" lon="11.755305"><ele>344.0</ele><time>2026-04-03T11:47:15.071Z</time></trkpt><trkpt lat="43.1606417" lon="11.75533"><ele>345.0</ele><time>2026-04-03T11:47:16.072Z</time></trkpt><trkpt lat="43.1608367" lon="11.75536"><ele>346.0</ele><time>2026-04-03T11:47:17.071Z</time></trkpt><trkpt lat="43.1610167" lon="11.7554117"><ele>347.0</ele><time>2026-04-03T11:47:18.071Z</time></trkpt><trkpt lat="43.1611817" lon="11.7555183"><ele>347.0</ele><time>2026-04-03T11:47:19.071Z</time></trkpt><trkpt lat="43.1613317" lon="11.7556783"><ele>347.0</ele><time>2026-04-03T11:47:20.072Z</time></trkpt><trkpt lat="43.1614717" lon="11.7558733"><ele>347.0</ele><time>2026-04-03T11:47:21.071Z</time></trkpt><trkpt lat="43.1616067" lon="11.7560567"><ele>347.33333333333337</ele><time>2026-04-03T11:47:22.071Z</time></trkpt><trkpt lat="43.161755" lon="11.7562417"><ele>347.6666666666667</ele><time>2026-04-03T11:47:23.071Z</time></trkpt><trkpt lat="43.1619067" lon="11.7564"><ele>348.0</ele><time>2026-04-03T11:47:24.071Z</time></trkpt><trkpt lat="43.162055" lon="11.7565433"><ele>348.0</ele><time>2026-04-03T11:47:25.071Z</time></trkpt><trkpt lat="43.16221" lon="11.7566867"><ele>348.0</ele><time>2026-04-03T11:47:26.072Z</time></trkpt><trkpt lat="43.16237" lon="11.7568517"><ele>348.0</ele><time>2026-04-03T11:47:27.071Z</time></trkpt><trkpt lat="43.1625083" lon="11.757045"><ele>349.6666666666667</ele><time>2026-04-03T11:47:28.071Z</time></trkpt><trkpt lat="43.1626367" lon="11.7572533"><ele>351.33333333333337</ele><time>2026-04-03T11:47:29.071Z</time></trkpt><trkpt lat="43.1627517" lon="11.757455"><ele>353.0</ele><time>2026-04-03T11:47:30.072Z</time></trkpt><trkpt lat="43.1628583" lon="11.7576433"><ele>353.25</ele><time>2026-04-03T11:47:31.071Z</time></trkpt><trkpt lat="43.162945" lon="11.7578183"><ele>353.5</ele><time>2026-04-03T11:47:32.071Z</time></trkpt><trkpt lat="43.1630233" lon="11.7579617"><ele>353.75</ele><time>2026-04-03T11:47:33.071Z</time></trkpt><trkpt lat="43.1630817" lon="11.7580767"><ele>354.0</ele><time>2026-04-03T11:47:34.071Z</time></trkpt><trkpt lat="43.163125" lon="11.7581667"><ele>354.0</ele><time>2026-04-03T11:47:35.071Z</time></trkpt><trkpt lat="43.1631967" lon="11.7582917"><ele>354.0</ele><time>2026-04-03T11:47:37.071Z</time></trkpt><trkpt lat="43.1633083" lon="11.7583817"><ele>354.0</ele><time>2026-04-03T11:47:39.071Z</time></trkpt><trkpt lat="43.16338" lon="11.7584433"><ele>354.0</ele><time>2026-04-03T11:47:40.071Z</time></trkpt><trkpt lat="43.1634633" lon="11.75851"><ele>354.0</ele><time>2026-04-03T11:47:41.071Z</time></trkpt><trkpt lat="43.1635517" lon="11.7585783"><ele>351.75</ele><time>2026-04-03T11:47:42.071Z</time></trkpt><trkpt lat="43.1636433" lon="11.7586467"><ele>349.5</ele><time>2026-04-03T11:47:43.071Z</time></trkpt><trkpt lat="43.1637333" lon="11.7587317"><ele>347.25</ele><time>2026-04-03T11:47:44.071Z</time></trkpt><trkpt lat="43.16383" lon="11.758825"><ele>345.0</ele><time>2026-04-03T11:47:45.072Z</time></trkpt><trkpt lat="43.163925" lon="11.7589233"><ele>345.0</ele><time>2026-04-03T11:47:46.072Z</time></trkpt><trkpt lat="43.16401" lon="11.7590117"><ele>345.0</ele><time>2026-04-03T11:47:47.071Z</time></trkpt><trkpt lat="43.1640867" lon="11.759075"><ele>345.0</ele><time>2026-04-03T11:47:48.071Z</time></trkpt><trkpt lat="43.1641683" lon="11.759125"><ele>345.0</ele><time>2026-04-03T11:47:49.071Z</time></trkpt><trkpt lat="43.164255" lon="11.7591783"><ele>345.0</ele><time>2026-04-03T11:47:50.071Z</time></trkpt><trkpt lat="43.16436" lon="11.7592317"><ele>344.25</ele><time>2026-04-03T11:47:51.071Z</time></trkpt><trkpt lat="43.1644717" lon="11.7592867"><ele>343.5</ele><time>2026-04-03T11:47:52.071Z</time></trkpt><trkpt lat="43.16459" lon="11.759335"><ele>342.75</ele><time>2026-04-03T11:47:53.071Z</time></trkpt><trkpt lat="43.16471" lon="11.7593867"><ele>342.0</ele><time>2026-04-03T11:47:54.071Z</time></trkpt><trkpt lat="43.16483" lon="11.7594267"><ele>340.0</ele><time>2026-04-03T11:47:55.071Z</time></trkpt><trkpt lat="43.164945" lon="11.7594517"><ele>338.0</ele><time>2026-04-03T11:47:56.071Z</time></trkpt><trkpt lat="43.165065" lon="11.7594567"><ele>336.0</ele><time>2026-04-03T11:47:57.071Z</time></trkpt><trkpt lat="43.1651717" lon="11.7594733"><ele>334.0</ele><time>2026-04-03T11:47:58.071Z</time></trkpt><trkpt lat="43.165275" lon="11.7595033"><ele>332.0</ele><time>2026-04-03T11:47:59.071Z</time></trkpt><trkpt lat="43.1653867" lon="11.7595517"><ele>332.0</ele><time>2026-04-03T11:48:00.072Z</time></trkpt><trkpt lat="43.16549" lon="11.75961"><ele>332.0</ele><time>2026-04-03T11:48:01.071Z</time></trkpt><trkpt lat="43.165575" lon="11.7596717"><ele>332.0</ele><time>2026-04-03T11:48:02.071Z</time></trkpt><trkpt lat="43.16565" lon="11.759715"><ele>332.0</ele><time>2026-04-03T11:48:03.072Z</time></trkpt><trkpt lat="43.1657517" lon="11.75972"><ele>332.0</ele><time>2026-04-03T11:48:05.071Z</time></trkpt><trkpt lat="43.1658417" lon="11.7596"><ele>331.6</ele><time>2026-04-03T11:48:07.071Z</time></trkpt><trkpt lat="43.16589" lon="11.7594967"><ele>331.20000000000005</ele><time>2026-04-03T11:48:08.071Z</time></trkpt><trkpt lat="43.1659333" lon="11.7593767"><ele>330.8</ele><time>2026-04-03T11:48:09.071Z</time></trkpt><trkpt lat="43.1659667" lon="11.7592383"><ele>330.4</ele><time>2026-04-03T11:48:10.071Z</time></trkpt><trkpt lat="43.1659833" lon="11.7590983"><ele>330.0</ele><time>2026-04-03T11:48:11.071Z</time></trkpt><trkpt lat="43.1659817" lon="11.7589667"><ele>329.4</ele><time>2026-04-03T11:48:12.071Z</time></trkpt><trkpt lat="43.1659633" lon="11.7588367"><ele>328.8</ele><time>2026-04-03T11:48:13.071Z</time></trkpt><trkpt lat="43.16592" lon="11.7587133"><ele>328.20000000000005</ele><time>2026-04-03T11:48:14.071Z</time></trkpt><trkpt lat="43.16586" lon="11.7585967"><ele>327.6</ele><time>2026-04-03T11:48:15.071Z</time></trkpt><trkpt lat="43.1657733" lon="11.758475"><ele>327.0</ele><time>2026-04-03T11:48:16.071Z</time></trkpt><trkpt lat="43.1656867" lon="11.7583517"><ele>326.8</ele><time>2026-04-03T11:48:17.071Z</time></trkpt><trkpt lat="43.165605" lon="11.7582183"><ele>326.6</ele><time>2026-04-03T11:48:18.071Z</time></trkpt><trkpt lat="43.1655533" lon="11.7580917"><ele>326.40000000000003</ele><time>2026-04-03T11:48:19.072Z</time></trkpt><trkpt lat="43.1655417" lon="11.7579633"><ele>326.20000000000005</ele><time>2026-04-03T11:48:20.072Z</time></trkpt><trkpt lat="43.1655467" lon="11.7578383"><ele>326.0</ele><time>2026-04-03T11:48:21.071Z</time></trkpt><trkpt lat="43.1655767" lon="11.7577033"><ele>325.0</ele><time>2026-04-03T11:48:22.071Z</time></trkpt><trkpt lat="43.165615" lon="11.7575617"><ele>324.0</ele><time>2026-04-03T11:48:23.071Z</time></trkpt><trkpt lat="43.1656467" lon="11.7574083"><ele>323.0</ele><time>2026-04-03T11:48:24.071Z</time></trkpt><trkpt lat="43.16567" lon="11.75724"><ele>322.0</ele><time>2026-04-03T11:48:25.071Z</time></trkpt><trkpt lat="43.165675" lon="11.757075"><ele>322.0</ele><time>2026-04-03T11:48:26.07Z</time></trkpt><trkpt lat="43.16567" lon="11.75693"><ele>322.0</ele><time>2026-04-03T11:48:27.07Z</time></trkpt><trkpt lat="43.16568" lon="11.75679"><ele>322.0</ele><time>2026-04-03T11:48:28.07Z</time></trkpt><trkpt lat="43.1657067" lon="11.7566617"><ele>322.0</ele><time>2026-04-03T11:48:29.07Z</time></trkpt><trkpt lat="43.1657467" lon="11.7565267"><ele>322.0</ele><time>2026-04-03T11:48:30.07Z</time></trkpt><trkpt lat="43.1657983" lon="11.7563933"><ele>321.6</ele><time>2026-04-03T11:48:31.07Z</time></trkpt><trkpt lat="43.16585" lon="11.7562683"><ele>321.20000000000005</ele><time>2026-04-03T11:48:32.07Z</time></trkpt><trkpt lat="43.1659" lon="11.756145"><ele>320.8</ele><time>2026-04-03T11:48:33.07Z</time></trkpt><trkpt lat="43.16594" lon="11.7560233"><ele>320.4</ele><time>2026-04-03T11:48:34.07Z</time></trkpt><trkpt lat="43.1659883" lon="11.7559183"><ele>320.0</ele><time>2026-04-03T11:48:35.07Z</time></trkpt><trkpt lat="43.1660483" lon="11.7558333"><ele>320.8</ele><time>2026-04-03T11:48:36.07Z</time></trkpt><trkpt lat="43.1661283" lon="11.7557633"><ele>321.6</ele><time>2026-04-03T11:48:37.07Z</time></trkpt><trkpt lat="43.1662183" lon="11.7556983"><ele>322.4</ele><time>2026-04-03T11:48:38.07Z</time></trkpt><trkpt lat="43.1663183" lon="11.7556283"><ele>323.2</ele><time>2026-04-03T11:48:39.071Z</time></trkpt><trkpt lat="43.166415" lon="11.7555733"><ele>324.0</ele><time>2026-04-03T11:48:40.071Z</time></trkpt><trkpt lat="43.1665" lon="11.755525"><ele>324.0</ele><time>2026-04-03T11:48:41.071Z</time></trkpt><trkpt lat="43.1665717" lon="11.7554667"><ele>324.0</ele><time>2026-04-03T11:48:43.07Z</time></trkpt><trkpt lat="43.1664717" lon="11.7555017"><ele>324.0</ele><time>2026-04-03T11:48:48.07Z</time></trkpt><trkpt lat="43.1663383" lon="11.7556"><ele>324.0</ele><time>2026-04-03T11:48:50.07Z</time></trkpt><trkpt lat="43.1662583" lon="11.7556567"><ele>324.0</ele><time>2026-04-03T11:48:51.07Z</time></trkpt><trkpt lat="43.166185" lon="11.7557233"><ele>324.0</ele><time>2026-04-03T11:48:52.07Z</time></trkpt><trkpt lat="43.166115" lon="11.7557817"><ele>324.0</ele><time>2026-04-03T11:48:53.07Z</time></trkpt><trkpt lat="43.16606" lon="11.7558317"><ele>324.0</ele><time>2026-04-03T11:48:54.071Z</time></trkpt><trkpt lat="43.1659917" lon="11.7559283"><ele>324.0</ele><time>2026-04-03T11:48:56.07Z</time></trkpt><trkpt lat="43.1659333" lon="11.7560583"><ele>324.0</ele><time>2026-04-03T11:48:58.071Z</time></trkpt><trkpt lat="43.1659033" lon="11.75615"><ele>324.0</ele><time>2026-04-03T11:48:59.07Z</time></trkpt><trkpt lat="43.1658683" lon="11.756255"><ele>323.2</ele><time>2026-04-03T11:49:00.07Z</time></trkpt><trkpt lat="43.1658283" lon="11.756375"><ele>322.4</ele><time>2026-04-03T11:49:01.07Z</time></trkpt><trkpt lat="43.1657883" lon="11.7565067"><ele>321.6</ele><time>2026-04-03T11:49:02.071Z</time></trkpt><trkpt lat="43.1657367" lon="11.75664"><ele>320.8</ele><time>2026-04-03T11:49:03.07Z</time></trkpt><trkpt lat="43.16569" lon="11.7567583"><ele>320.0</ele><time>2026-04-03T11:49:04.07Z</time></trkpt><trkpt lat="43.1656567" lon="11.75686"><ele>320.33333333333337</ele><time>2026-04-03T11:49:05.07Z</time></trkpt><trkpt lat="43.165615" lon="11.7569533"><ele>320.6666666666667</ele><time>2026-04-03T11:49:07.07Z</time></trkpt><trkpt lat="43.165545" lon="11.7569033"><ele>321.0</ele><time>2026-04-03T11:49:10.07Z</time></trkpt><trkpt lat="43.16549" lon="11.7567683"><ele>321.3333333333333</ele><time>2026-04-03T11:49:12.07Z</time></trkpt><trkpt lat="43.1654583" lon="11.7566783"><ele>321.66666666666663</ele><time>2026-04-03T11:49:13.07Z</time></trkpt><trkpt lat="43.1654183" lon="11.7565733"><ele>322.0</ele><time>2026-04-03T11:49:14.07Z</time></trkpt><trkpt lat="43.1653733" lon="11.7564633"><ele>320.8</ele><time>2026-04-03T11:49:15.07Z</time></trkpt><trkpt lat="43.1653283" lon="11.75634"><ele>319.6</ele><time>2026-04-03T11:49:16.07Z</time></trkpt><trkpt lat="43.165275" lon="11.7562133"><ele>318.40000000000003</ele><time>2026-04-03T11:49:17.07Z</time></trkpt><trkpt lat="43.1652217" lon="11.75609"><ele>317.20000000000005</ele><time>2026-04-03T11:49:18.07Z</time></trkpt><trkpt lat="43.1651717" lon="11.7559733"><ele>316.0</ele><time>2026-04-03T11:49:19.07Z</time></trkpt><trkpt lat="43.1651217" lon="11.7558533"><ele>314.75</ele><time>2026-04-03T11:49:20.07Z</time></trkpt><trkpt lat="43.1650733" lon="11.7557183"><ele>313.5</ele><time>2026-04-03T11:49:21.07Z</time></trkpt><trkpt lat="43.1650383" lon="11.755565"><ele>312.25</ele><time>2026-04-03T11:49:22.07Z</time></trkpt><trkpt lat="43.16501" lon="11.755405"><ele>311.0</ele><time>2026-04-03T11:49:23.07Z</time></trkpt><trkpt lat="43.1649833" lon="11.7552183"><ele>311.25</ele><time>2026-04-03T11:49:24.071Z</time></trkpt><trkpt lat="43.1649583" lon="11.755055"><ele>311.5</ele><time>2026-04-03T11:49:25.07Z</time></trkpt><trkpt lat="43.1649133" lon="11.7548917"><ele>311.75</ele><time>2026-04-03T11:49:26.07Z</time></trkpt><trkpt lat="43.1648717" lon="11.7547183"><ele>312.0</ele><time>2026-04-03T11:49:27.07Z</time></trkpt><trkpt lat="43.1648167" lon="11.75454"><ele>310.5</ele><time>2026-04-03T11:49:28.07Z</time></trkpt><trkpt lat="43.1647567" lon="11.75436"><ele>309.0</ele><time>2026-04-03T11:49:29.07Z</time></trkpt><trkpt lat="43.1646917" lon="11.7541933"><ele>307.5</ele><time>2026-04-03T11:49:30.07Z</time></trkpt><trkpt lat="43.1646333" lon="11.75403"><ele>306.0</ele><time>2026-04-03T11:49:31.071Z</time></trkpt><trkpt lat="43.1645883" lon="11.753855"><ele>306.0</ele><time>2026-04-03T11:49:32.071Z</time></trkpt><trkpt lat="43.1645433" lon="11.75367"><ele>306.0</ele><time>2026-04-03T11:49:33.07Z</time></trkpt><trkpt lat="43.1644983" lon="11.7534917"><ele>306.0</ele><time>2026-04-03T11:49:34.07Z</time></trkpt><trkpt lat="43.1644567" lon="11.7533"><ele>306.0</ele><time>2026-04-03T11:49:35.07Z</time></trkpt><trkpt lat="43.1644067" lon="11.753105"><ele>304.6666666666667</ele><time>2026-04-03T11:49:36.07Z</time></trkpt><trkpt lat="43.1643533" lon="11.7529117"><ele>303.33333333333337</ele><time>2026-04-03T11:49:37.07Z</time></trkpt><trkpt lat="43.1643033" lon="11.7527133"><ele>302.0</ele><time>2026-04-03T11:49:38.07Z</time></trkpt><trkpt lat="43.1642567" lon="11.75252"><ele>300.75</ele><time>2026-04-03T11:49:39.071Z</time></trkpt><trkpt lat="43.1642083" lon="11.752355"><ele>299.5</ele><time>2026-04-03T11:49:40.071Z</time></trkpt><trkpt lat="43.1641683" lon="11.7521983"><ele>298.25</ele><time>2026-04-03T11:49:41.07Z</time></trkpt><trkpt lat="43.1641417" lon="11.75203"><ele>297.0</ele><time>2026-04-03T11:49:42.07Z</time></trkpt><trkpt lat="43.1641317" lon="11.7518583"><ele>296.75</ele><time>2026-04-03T11:49:43.07Z</time></trkpt><trkpt lat="43.1641567" lon="11.7516717"><ele>296.5</ele><time>2026-04-03T11:49:44.07Z</time></trkpt><trkpt lat="43.1641933" lon="11.751475"><ele>296.25</ele><time>2026-04-03T11:49:45.07Z</time></trkpt><trkpt lat="43.1642367" lon="11.7512633"><ele>296.0</ele><time>2026-04-03T11:49:46.07Z</time></trkpt><trkpt lat="43.164285" lon="11.7510467"><ele>296.0</ele><time>2026-04-03T11:49:47.07Z</time></trkpt><trkpt lat="43.1643267" lon="11.7508333"><ele>296.0</ele><time>2026-04-03T11:49:48.07Z</time></trkpt><trkpt lat="43.1643583" lon="11.75062"><ele>296.0</ele><time>2026-04-03T11:49:49.07Z</time></trkpt><trkpt lat="43.1643967" lon="11.750425"><ele>296.0</ele><time>2026-04-03T11:49:50.07Z</time></trkpt><trkpt lat="43.1644467" lon="11.7502267"><ele>296.0</ele><time>2026-04-03T11:49:51.071Z</time></trkpt><trkpt lat="43.1645283" lon="11.7500417"><ele>296.0</ele><time>2026-04-03T11:49:52.07Z</time></trkpt><trkpt lat="43.1645933" lon="11.7498717"><ele>295.75</ele><time>2026-04-03T11:49:53.07Z</time></trkpt><trkpt lat="43.1646567" lon="11.7496867"><ele>295.5</ele><time>2026-04-03T11:49:54.07Z</time></trkpt><trkpt lat="43.1647033" lon="11.7494867"><ele>295.25</ele><time>2026-04-03T11:49:55.07Z</time></trkpt><trkpt lat="43.1647483" lon="11.7492983"><ele>295.0</ele><time>2026-04-03T11:49:56.071Z</time></trkpt><trkpt lat="43.1648117" lon="11.749145"><ele>293.5</ele><time>2026-04-03T11:49:57.07Z</time></trkpt><trkpt lat="43.1649033" lon="11.74901"><ele>292.0</ele><time>2026-04-03T11:49:58.071Z</time></trkpt><trkpt lat="43.16499" lon="11.7488683"><ele>290.5</ele><time>2026-04-03T11:49:59.07Z</time></trkpt><trkpt lat="43.1650783" lon="11.7487133"><ele>289.0</ele><time>2026-04-03T11:50:00.07Z</time></trkpt><trkpt lat="43.1651583" lon="11.748525"><ele>289.0</ele><time>2026-04-03T11:50:01.071Z</time></trkpt><trkpt lat="43.1652417" lon="11.7483333"><ele>289.0</ele><time>2026-04-03T11:50:02.07Z</time></trkpt><trkpt lat="43.1653233" lon="11.74814"><ele>289.0</ele><time>2026-04-03T11:50:03.07Z</time></trkpt><trkpt lat="43.1653967" lon="11.74798"><ele>289.0</ele><time>2026-04-03T11:50:04.071Z</time></trkpt><trkpt lat="43.165455" lon="11.7478633"><ele>289.0</ele><time>2026-04-03T11:50:05.07Z</time></trkpt><trkpt lat="43.1655183" lon="11.747765"><ele>289.0</ele><time>2026-04-03T11:50:06.071Z</time></trkpt><trkpt lat="43.1655967" lon="11.7477133"><ele>289.0</ele><time>2026-04-03T11:50:07.07Z</time></trkpt><trkpt lat="43.165685" lon="11.7476917"><ele>289.0</ele><time>2026-04-03T11:50:08.07Z</time></trkpt><trkpt lat="43.1657733" lon="11.7476833"><ele>289.16666666666663</ele><time>2026-04-03T11:50:09.07Z</time></trkpt><trkpt lat="43.1658633" lon="11.747715"><ele>289.3333333333333</ele><time>2026-04-03T11:50:10.07Z</time></trkpt><trkpt lat="43.1659433" lon="11.7477417"><ele>289.5</ele><time>2026-04-03T11:50:11.07Z</time></trkpt><trkpt lat="43.1660267" lon="11.7477517"><ele>289.6666666666667</ele><time>2026-04-03T11:50:12.071Z</time></trkpt><trkpt lat="43.1661" lon="11.747705"><ele>289.83333333333337</ele><time>2026-04-03T11:50:13.07Z</time></trkpt><trkpt lat="43.16616" lon="11.7476367"><ele>290.0</ele><time>2026-04-03T11:50:14.07Z</time></trkpt><trkpt lat="43.1662133" lon="11.747555"><ele>291.0</ele><time>2026-04-03T11:50:15.07Z</time></trkpt><trkpt lat="43.166255" lon="11.7474567"><ele>292.0</ele><time>2026-04-03T11:50:16.071Z</time></trkpt><trkpt lat="43.1662967" lon="11.7473533"><ele>293.0</ele><time>2026-04-03T11:50:17.071Z</time></trkpt><trkpt lat="43.16634" lon="11.7472567"><ele>294.0</ele><time>2026-04-03T11:50:18.07Z</time></trkpt><trkpt lat="43.16637" lon="11.747155"><ele>295.0</ele><time>2026-04-03T11:50:19.07Z</time></trkpt><trkpt lat="43.1664" lon="11.7470483"><ele>296.0</ele><time>2026-04-03T11:50:20.07Z</time></trkpt><trkpt lat="43.1664333" lon="11.746945"><ele>297.1666666666667</ele><time>2026-04-03T11:50:21.071Z</time></trkpt><trkpt lat="43.1664683" lon="11.746845"><ele>298.33333333333337</ele><time>2026-04-03T11:50:22.07Z</time></trkpt><trkpt lat="43.1664983" lon="11.7467383"><ele>299.5</ele><time>2026-04-03T11:50:23.07Z</time></trkpt><trkpt lat="43.1665283" lon="11.7466367"><ele>300.6666666666667</ele><time>2026-04-03T11:50:24.07Z</time></trkpt><trkpt lat="43.166555" lon="11.7465383"><ele>301.8333333333333</ele><time>2026-04-03T11:50:25.071Z</time></trkpt><trkpt lat="43.1665833" lon="11.7464433"><ele>303.0</ele><time>2026-04-03T11:50:26.07Z</time></trkpt><trkpt lat="43.166625" lon="11.7463467"><ele>304.8</ele><time>2026-04-03T11:50:27.07Z</time></trkpt><trkpt lat="43.166665" lon="11.74625"><ele>306.6</ele><time>2026-04-03T11:50:28.071Z</time></trkpt><trkpt lat="43.1667117" lon="11.7461467"><ele>308.4</ele><time>2026-04-03T11:50:29.071Z</time></trkpt><trkpt lat="43.1667517" lon="11.7460317"><ele>310.2</ele><time>2026-04-03T11:50:30.07Z</time></trkpt><trkpt lat="43.1667983" lon="11.74591"><ele>312.0</ele><time>2026-04-03T11:50:31.07Z</time></trkpt><trkpt lat="43.166845" lon="11.7457733"><ele>312.75</ele><time>2026-04-03T11:50:32.07Z</time></trkpt><trkpt lat="43.166895" lon="11.7456367"><ele>313.5</ele><time>2026-04-03T11:50:33.07Z</time></trkpt><trkpt lat="43.166945" lon="11.7455"><ele>314.25</ele><time>2026-04-03T11:50:34.071Z</time></trkpt><trkpt lat="43.1669933" lon="11.7453583"><ele>315.0</ele><time>2026-04-03T11:50:35.07Z</time></trkpt><trkpt lat="43.1670417" lon="11.7452183"><ele>317.5</ele><time>2026-04-03T11:50:36.07Z</time></trkpt><trkpt lat="43.167095" lon="11.7450783"><ele>320.0</ele><time>2026-04-03T11:50:37.07Z</time></trkpt><trkpt lat="43.1671433" lon="11.7449383"><ele>322.5</ele><time>2026-04-03T11:50:38.071Z</time></trkpt><trkpt lat="43.167195" lon="11.7447917"><ele>325.0</ele><time>2026-04-03T11:50:39.07Z</time></trkpt><trkpt lat="43.16724" lon="11.7446483"><ele>325.0</ele><time>2026-04-03T11:50:40.07Z</time></trkpt><trkpt lat="43.1672867" lon="11.7445067"><ele>325.0</ele><time>2026-04-03T11:50:41.07Z</time></trkpt><trkpt lat="43.1673267" lon="11.7443667"><ele>325.0</ele><time>2026-04-03T11:50:42.071Z</time></trkpt><trkpt lat="43.16737" lon="11.7442367"><ele>325.0</ele><time>2026-04-03T11:50:43.07Z</time></trkpt><trkpt lat="43.1674083" lon="11.7441183"><ele>325.0</ele><time>2026-04-03T11:50:44.07Z</time></trkpt><trkpt lat="43.167445" lon="11.7440033"><ele>326.4</ele><time>2026-04-03T11:50:45.071Z</time></trkpt><trkpt lat="43.1674783" lon="11.743895"><ele>327.8</ele><time>2026-04-03T11:50:46.07Z</time></trkpt><trkpt lat="43.1675117" lon="11.743795"><ele>329.20000000000005</ele><time>2026-04-03T11:50:47.071Z</time></trkpt><trkpt lat="43.1675733" lon="11.7436833"><ele>330.6</ele><time>2026-04-03T11:50:49.07Z</time></trkpt><trkpt lat="43.16767" lon="11.74366"><ele>332.0</ele><time>2026-04-03T11:50:51.07Z</time></trkpt><trkpt lat="43.1677967" lon="11.743735"><ele>332.0</ele><time>2026-04-03T11:50:53.071Z</time></trkpt><trkpt lat="43.1678933" lon="11.743805"><ele>332.0</ele><time>2026-04-03T11:50:54.07Z</time></trkpt><trkpt lat="43.16802" lon="11.743895"><ele>332.0</ele><time>2026-04-03T11:50:55.07Z</time></trkpt><trkpt lat="43.168145" lon="11.7439783"><ele>332.0</ele><time>2026-04-03T11:50:56.07Z</time></trkpt><trkpt lat="43.168285" lon="11.7440633"><ele>330.33333333333337</ele><time>2026-04-03T11:50:57.071Z</time></trkpt><trkpt lat="43.16843" lon="11.744155"><ele>328.6666666666667</ele><time>2026-04-03T11:50:58.07Z</time></trkpt><trkpt lat="43.16858" lon="11.7442567"><ele>327.0</ele><time>2026-04-03T11:50:59.07Z</time></trkpt><trkpt lat="43.168735" lon="11.744355"><ele>324.3333333333333</ele><time>2026-04-03T11:51:00.071Z</time></trkpt><trkpt lat="43.168895" lon="11.7444567"><ele>321.66666666666663</ele><time>2026-04-03T11:51:01.07Z</time></trkpt><trkpt lat="43.1690533" lon="11.7445417"><ele>319.0</ele><time>2026-04-03T11:51:02.07Z</time></trkpt><trkpt lat="43.169215" lon="11.7446333"><ele>319.0</ele><time>2026-04-03T11:51:03.071Z</time></trkpt><trkpt lat="43.169375" lon="11.74472"><ele>319.0</ele><time>2026-04-03T11:51:04.07Z</time></trkpt><trkpt lat="43.169535" lon="11.7448217"><ele>319.0</ele><time>2026-04-03T11:51:05.07Z</time></trkpt><trkpt lat="43.1696883" lon="11.74492"><ele>319.0</ele><time>2026-04-03T11:51:06.07Z</time></trkpt><trkpt lat="43.16985" lon="11.7450217"><ele>319.0</ele><time>2026-04-03T11:51:07.07Z</time></trkpt><trkpt lat="43.1700117" lon="11.7451167"><ele>319.0</ele><time>2026-04-03T11:51:08.07Z</time></trkpt><trkpt lat="43.17018" lon="11.7452183"><ele>318.66666666666663</ele><time>2026-04-03T11:51:09.07Z</time></trkpt><trkpt lat="43.1703583" lon="11.74532"><ele>318.3333333333333</ele><time>2026-04-03T11:51:10.071Z</time></trkpt><trkpt lat="43.170535" lon="11.7454283"><ele>318.0</ele><time>2026-04-03T11:51:11.07Z</time></trkpt><trkpt lat="43.1707017" lon="11.7455317"><ele>318.0</ele><time>2026-04-03T11:51:12.07Z</time></trkpt><trkpt lat="43.1708667" lon="11.7456367"><ele>318.0</ele><time>2026-04-03T11:51:13.071Z</time></trkpt><trkpt lat="43.171045" lon="11.745745"><ele>318.0</ele><time>2026-04-03T11:51:14.07Z</time></trkpt><trkpt lat="43.1712183" lon="11.7458517"><ele>318.0</ele><time>2026-04-03T11:51:15.07Z</time></trkpt><trkpt lat="43.171385" lon="11.7459583"><ele>318.0</ele><time>2026-04-03T11:51:16.07Z</time></trkpt><trkpt lat="43.1715533" lon="11.7460717"><ele>318.0</ele><time>2026-04-03T11:51:17.071Z</time></trkpt><trkpt lat="43.1717267" lon="11.7462033"><ele>316.0</ele><time>2026-04-03T11:51:18.07Z</time></trkpt><trkpt lat="43.171905" lon="11.74633"><ele>314.0</ele><time>2026-04-03T11:51:19.07Z</time></trkpt><trkpt lat="43.17207" lon="11.7464433"><ele>312.0</ele><time>2026-04-03T11:51:20.07Z</time></trkpt><trkpt lat="43.17223" lon="11.7465517"><ele>313.6666666666667</ele><time>2026-04-03T11:51:21.071Z</time></trkpt><trkpt lat="43.1723717" lon="11.7466617"><ele>315.33333333333337</ele><time>2026-04-03T11:51:22.07Z</time></trkpt><trkpt lat="43.1725183" lon="11.7467633"><ele>317.0</ele><time>2026-04-03T11:51:23.07Z</time></trkpt><trkpt lat="43.1726533" lon="11.7468533"><ele>316.5</ele><time>2026-04-03T11:51:24.07Z</time></trkpt><trkpt lat="43.1727767" lon="11.7469317"><ele>316.0</ele><time>2026-04-03T11:51:25.071Z</time></trkpt><trkpt lat="43.1728767" lon="11.7470067"><ele>315.5</ele><time>2026-04-03T11:51:26.07Z</time></trkpt><trkpt lat="43.1729733" lon="11.7470983"><ele>315.0</ele><time>2026-04-03T11:51:27.07Z</time></trkpt><trkpt lat="43.17308" lon="11.7472067"><ele>315.0</ele><time>2026-04-03T11:51:28.07Z</time></trkpt><trkpt lat="43.1731817" lon="11.7473417"><ele>315.0</ele><time>2026-04-03T11:51:29.07Z</time></trkpt><trkpt lat="43.1732917" lon="11.7474917"><ele>315.0</ele><time>2026-04-03T11:51:30.07Z</time></trkpt><trkpt lat="43.1734117" lon="11.747645"><ele>312.0</ele><time>2026-04-03T11:51:31.07Z</time></trkpt><trkpt lat="43.1735417" lon="11.7478017"><ele>309.0</ele><time>2026-04-03T11:51:32.071Z</time></trkpt><trkpt lat="43.1736733" lon="11.7479633"><ele>306.0</ele><time>2026-04-03T11:51:33.07Z</time></trkpt><trkpt lat="43.17381" lon="11.7481267"><ele>306.0</ele><time>2026-04-03T11:51:34.07Z</time></trkpt><trkpt lat="43.17394" lon="11.7482883"><ele>306.0</ele><time>2026-04-03T11:51:35.07Z</time></trkpt><trkpt lat="43.17406" lon="11.748445"><ele>306.0</ele><time>2026-04-03T11:51:36.07Z</time></trkpt><trkpt lat="43.1741683" lon="11.7485933"><ele>305.5</ele><time>2026-04-03T11:51:37.07Z</time></trkpt><trkpt lat="43.17428" lon="11.7487333"><ele>305.0</ele><time>2026-04-03T11:51:38.07Z</time></trkpt><trkpt lat="43.17438" lon="11.748865"><ele>304.5</ele><time>2026-04-03T11:51:39.071Z</time></trkpt><trkpt lat="43.1744783" lon="11.7489917"><ele>304.0</ele><time>2026-04-03T11:51:40.071Z</time></trkpt><trkpt lat="43.174575" lon="11.7491117"><ele>304.0</ele><time>2026-04-03T11:51:41.07Z</time></trkpt><trkpt lat="43.1746917" lon="11.7492183"><ele>304.0</ele><time>2026-04-03T11:51:42.07Z</time></trkpt><trkpt lat="43.1748167" lon="11.7493283"><ele>304.0</ele><time>2026-04-03T11:51:43.07Z</time></trkpt><trkpt lat="43.17494" lon="11.7494417"><ele>304.0</ele><time>2026-04-03T11:51:44.07Z</time></trkpt><trkpt lat="43.1750783" lon="11.7495683"><ele>302.66666666666663</ele><time>2026-04-03T11:51:45.071Z</time></trkpt><trkpt lat="43.175215" lon="11.7496917"><ele>301.3333333333333</ele><time>2026-04-03T11:51:46.07Z</time></trkpt><trkpt lat="43.1753483" lon="11.74982"><ele>300.0</ele><time>2026-04-03T11:51:47.07Z</time></trkpt><trkpt lat="43.17549" lon="11.7499483"><ele>300.0</ele><time>2026-04-03T11:51:48.07Z</time></trkpt><trkpt lat="43.175635" lon="11.7500683"><ele>300.0</ele><time>2026-04-03T11:51:49.07Z</time></trkpt><trkpt lat="43.1757833" lon="11.7502"><ele>300.0</ele><time>2026-04-03T11:51:50.07Z</time></trkpt><trkpt lat="43.1759283" lon="11.75034"><ele>298.0</ele><time>2026-04-03T11:51:51.071Z</time></trkpt><trkpt lat="43.1760817" lon="11.7504833"><ele>296.0</ele><time>2026-04-03T11:51:52.07Z</time></trkpt><trkpt lat="43.1762467" lon="11.75062"><ele>294.0</ele><time>2026-04-03T11:51:53.07Z</time></trkpt><trkpt lat="43.1764017" lon="11.75077"><ele>294.3333333333333</ele><time>2026-04-03T11:51:54.07Z</time></trkpt><trkpt lat="43.1765617" lon="11.7509117"><ele>294.66666666666663</ele><time>2026-04-03T11:51:55.07Z</time></trkpt><trkpt lat="43.1767183" lon="11.7510517"><ele>295.0</ele><time>2026-04-03T11:51:56.07Z</time></trkpt><trkpt lat="43.1768817" lon="11.751185"><ele>293.66666666666663</ele><time>2026-04-03T11:51:57.07Z</time></trkpt><trkpt lat="43.1770383" lon="11.7513283"><ele>292.3333333333333</ele><time>2026-04-03T11:51:58.07Z</time></trkpt><trkpt lat="43.1771933" lon="11.7514567"><ele>291.0</ele><time>2026-04-03T11:51:59.07Z</time></trkpt><trkpt lat="43.1773467" lon="11.7515867"><ele>291.75</ele><time>2026-04-03T11:52:00.071Z</time></trkpt><trkpt lat="43.1774817" lon="11.7516967"><ele>292.5</ele><time>2026-04-03T11:52:01.07Z</time></trkpt><trkpt lat="43.1776017" lon="11.7518083"><ele>293.25</ele><time>2026-04-03T11:52:02.071Z</time></trkpt><trkpt lat="43.1777033" lon="11.7519317"><ele>294.0</ele><time>2026-04-03T11:52:03.07Z</time></trkpt><trkpt lat="43.177805" lon="11.75205"><ele>295.3333333333333</ele><time>2026-04-03T11:52:04.07Z</time></trkpt><trkpt lat="43.177915" lon="11.75217"><ele>296.66666666666663</ele><time>2026-04-03T11:52:05.07Z</time></trkpt><trkpt lat="43.1780283" lon="11.75231"><ele>298.0</ele><time>2026-04-03T11:52:06.07Z</time></trkpt><trkpt lat="43.1781533" lon="11.7524633"><ele>296.3333333333333</ele><time>2026-04-03T11:52:07.07Z</time></trkpt><trkpt lat="43.1782833" lon="11.7526283"><ele>294.6666666666667</ele><time>2026-04-03T11:52:08.069Z</time></trkpt><trkpt lat="43.1784283" lon="11.7527967"><ele>293.0</ele><time>2026-04-03T11:52:09.07Z</time></trkpt><trkpt lat="43.178575" lon="11.752975"><ele>292.6666666666667</ele><time>2026-04-03T11:52:10.069Z</time></trkpt><trkpt lat="43.1787267" lon="11.7531567"><ele>292.3333333333333</ele><time>2026-04-03T11:52:11.07Z</time></trkpt><trkpt lat="43.1788883" lon="11.7533333"><ele>292.0</ele><time>2026-04-03T11:52:12.069Z</time></trkpt><trkpt lat="43.1790717" lon="11.7535317"><ele>290.5</ele><time>2026-04-03T11:52:13.069Z</time></trkpt><trkpt lat="43.1792467" lon="11.75373"><ele>289.0</ele><time>2026-04-03T11:52:14.069Z</time></trkpt><trkpt lat="43.179435" lon="11.753935"><ele>289.0</ele><time>2026-04-03T11:52:15.069Z</time></trkpt><trkpt lat="43.17963" lon="11.7541417"><ele>289.0</ele><time>2026-04-03T11:52:16.07Z</time></trkpt><trkpt lat="43.1798167" lon="11.7543433"><ele>290.0</ele><time>2026-04-03T11:52:17.069Z</time></trkpt><trkpt lat="43.1799967" lon="11.75453"><ele>291.0</ele><time>2026-04-03T11:52:18.069Z</time></trkpt><trkpt lat="43.180155" lon="11.7547067"><ele>292.0</ele><time>2026-04-03T11:52:19.069Z</time></trkpt><trkpt lat="43.1802883" lon="11.7548583"><ele>292.0</ele><time>2026-04-03T11:52:20.069Z</time></trkpt><trkpt lat="43.1804067" lon="11.754985"><ele>292.0</ele><time>2026-04-03T11:52:21.069Z</time></trkpt><trkpt lat="43.180525" lon="11.7551"><ele>292.0</ele><time>2026-04-03T11:52:22.07Z</time></trkpt><trkpt lat="43.18063" lon="11.7552033"><ele>292.0</ele><time>2026-04-03T11:52:23.069Z</time></trkpt><trkpt lat="43.1807117" lon="11.7552917"><ele>292.6</ele><time>2026-04-03T11:52:24.069Z</time></trkpt><trkpt lat="43.18079" lon="11.7553767"><ele>293.2</ele><time>2026-04-03T11:52:25.069Z</time></trkpt><trkpt lat="43.1808717" lon="11.7554633"><ele>293.8</ele><time>2026-04-03T11:52:26.069Z</time></trkpt><trkpt lat="43.1809617" lon="11.7555517"><ele>294.4</ele><time>2026-04-03T11:52:27.069Z</time></trkpt><trkpt lat="43.18106" lon="11.7556417"><ele>295.0</ele><time>2026-04-03T11:52:28.069Z</time></trkpt><trkpt lat="43.1811717" lon="11.755735"><ele>295.0</ele><time>2026-04-03T11:52:29.069Z</time></trkpt><trkpt lat="43.1812967" lon="11.7558317"><ele>295.0</ele><time>2026-04-03T11:52:30.069Z</time></trkpt><trkpt lat="43.1814167" lon="11.7559333"><ele>295.0</ele><time>2026-04-03T11:52:31.069Z</time></trkpt><trkpt lat="43.181535" lon="11.7560417"><ele>295.0</ele><time>2026-04-03T11:52:32.069Z</time></trkpt><trkpt lat="43.1816567" lon="11.75614"><ele>293.75</ele><time>2026-04-03T11:52:33.069Z</time></trkpt><trkpt lat="43.1817817" lon="11.7562233"><ele>292.5</ele><time>2026-04-03T11:52:34.069Z</time></trkpt><trkpt lat="43.181905" lon="11.7562983"><ele>291.25</ele><time>2026-04-03T11:52:35.069Z</time></trkpt><trkpt lat="43.182035" lon="11.7563733"><ele>290.0</ele><time>2026-04-03T11:52:36.069Z</time></trkpt><trkpt lat="43.1821767" lon="11.7564317"><ele>290.0</ele><time>2026-04-03T11:52:37.069Z</time></trkpt><trkpt lat="43.18233" lon="11.7564933"><ele>290.0</ele><time>2026-04-03T11:52:38.07Z</time></trkpt><trkpt lat="43.1824833" lon="11.756545"><ele>290.0</ele><time>2026-04-03T11:52:39.07Z</time></trkpt><trkpt lat="43.1826483" lon="11.7566"><ele>289.33333333333337</ele><time>2026-04-03T11:52:40.069Z</time></trkpt><trkpt lat="43.1828217" lon="11.7566567"><ele>288.6666666666667</ele><time>2026-04-03T11:52:41.069Z</time></trkpt><trkpt lat="43.1830033" lon="11.7567183"><ele>288.0</ele><time>2026-04-03T11:52:42.07Z</time></trkpt><trkpt lat="43.1831867" lon="11.756785"><ele>288.0</ele><time>2026-04-03T11:52:43.07Z</time></trkpt><trkpt lat="43.18338" lon="11.7568317"><ele>288.0</ele><time>2026-04-03T11:52:44.069Z</time></trkpt><trkpt lat="43.18356" lon="11.7568883"><ele>288.0</ele><time>2026-04-03T11:52:45.069Z</time></trkpt><trkpt lat="43.18374" lon="11.7569417"><ele>289.3333333333333</ele><time>2026-04-03T11:52:46.069Z</time></trkpt><trkpt lat="43.1839267" lon="11.7570067"><ele>290.66666666666663</ele><time>2026-04-03T11:52:47.069Z</time></trkpt><trkpt lat="43.1840983" lon="11.7570683"><ele>292.0</ele><time>2026-04-03T11:52:48.069Z</time></trkpt><trkpt lat="43.1842683" lon="11.75712"><ele>293.5</ele><time>2026-04-03T11:52:49.07Z</time></trkpt><trkpt lat="43.18442" lon="11.757165"><ele>295.0</ele><time>2026-04-03T11:52:50.069Z</time></trkpt><trkpt lat="43.1845533" lon="11.7572033"><ele>296.5</ele><time>2026-04-03T11:52:51.07Z</time></trkpt><trkpt lat="43.1846733" lon="11.7572333"><ele>298.0</ele><time>2026-04-03T11:52:52.07Z</time></trkpt><trkpt lat="43.1847833" lon="11.7572583"><ele>297.0</ele><time>2026-04-03T11:52:53.07Z</time></trkpt><trkpt lat="43.1848883" lon="11.757295"><ele>296.0</ele><time>2026-04-03T11:52:54.07Z</time></trkpt><trkpt lat="43.1849933" lon="11.7573267"><ele>295.0</ele><time>2026-04-03T11:52:55.07Z</time></trkpt><trkpt lat="43.1850967" lon="11.7573683"><ele>294.0</ele><time>2026-04-03T11:52:56.07Z</time></trkpt><trkpt lat="43.1852167" lon="11.7574083"><ele>293.0</ele><time>2026-04-03T11:52:57.069Z</time></trkpt><trkpt lat="43.1853283" lon="11.7574517"><ele>293.0</ele><time>2026-04-03T11:52:58.07Z</time></trkpt><trkpt lat="43.18544" lon="11.7574817"><ele>293.0</ele><time>2026-04-03T11:52:59.07Z</time></trkpt><trkpt lat="43.1855533" lon="11.7575083"><ele>293.0</ele><time>2026-04-03T11:53:00.07Z</time></trkpt><trkpt lat="43.185675" lon="11.7575383"><ele>293.0</ele><time>2026-04-03T11:53:01.07Z</time></trkpt><trkpt lat="43.1857967" lon="11.7575517"><ele>292.25</ele><time>2026-04-03T11:53:02.069Z</time></trkpt><trkpt lat="43.185915" lon="11.7575717"><ele>291.5</ele><time>2026-04-03T11:53:03.069Z</time></trkpt><trkpt lat="43.1860417" lon="11.7576033"><ele>290.75</ele><time>2026-04-03T11:53:04.069Z</time></trkpt><trkpt lat="43.1861917" lon="11.75763"><ele>290.0</ele><time>2026-04-03T11:53:05.07Z</time></trkpt><trkpt lat="43.1863467" lon="11.7576617"><ele>290.0</ele><time>2026-04-03T11:53:06.069Z</time></trkpt><trkpt lat="43.1865033" lon="11.7576933"><ele>290.0</ele><time>2026-04-03T11:53:07.069Z</time></trkpt><trkpt lat="43.1866767" lon="11.757725"><ele>290.0</ele><time>2026-04-03T11:53:08.069Z</time></trkpt><trkpt lat="43.1868417" lon="11.75775"><ele>286.33333333333337</ele><time>2026-04-03T11:53:09.07Z</time></trkpt><trkpt lat="43.1870133" lon="11.7577733"><ele>282.6666666666667</ele><time>2026-04-03T11:53:10.069Z</time></trkpt><trkpt lat="43.1871983" lon="11.7577833"><ele>279.0</ele><time>2026-04-03T11:53:11.069Z</time></trkpt><trkpt lat="43.1873733" lon="11.7578033"><ele>275.6666666666667</ele><time>2026-04-03T11:53:12.069Z</time></trkpt><trkpt lat="43.1875567" lon="11.7578217"><ele>272.33333333333337</ele><time>2026-04-03T11:53:13.07Z</time></trkpt><trkpt lat="43.1877333" lon="11.757845"><ele>269.0</ele><time>2026-04-03T11:53:14.069Z</time></trkpt><trkpt lat="43.1878933" lon="11.757875"><ele>269.0</ele><time>2026-04-03T11:53:15.069Z</time></trkpt><trkpt lat="43.188065" lon="11.7579"><ele>269.0</ele><time>2026-04-03T11:53:16.07Z</time></trkpt><trkpt lat="43.1882267" lon="11.7579217"><ele>269.0</ele><time>2026-04-03T11:53:17.069Z</time></trkpt><trkpt lat="43.1883733" lon="11.75794"><ele>268.25</ele><time>2026-04-03T11:53:18.069Z</time></trkpt><trkpt lat="43.188505" lon="11.757965"><ele>267.5</ele><time>2026-04-03T11:53:19.07Z</time></trkpt><trkpt lat="43.1886333" lon="11.7579917"><ele>266.75</ele><time>2026-04-03T11:53:20.069Z</time></trkpt><trkpt lat="43.18874" lon="11.7580017"><ele>266.0</ele><time>2026-04-03T11:53:21.069Z</time></trkpt><trkpt lat="43.188835" lon="11.7580067"><ele>266.0</ele><time>2026-04-03T11:53:22.069Z</time></trkpt><trkpt lat="43.18892" lon="11.7580167"><ele>266.0</ele><time>2026-04-03T11:53:23.069Z</time></trkpt><trkpt lat="43.1889933" lon="11.75804"><ele>266.0</ele><time>2026-04-03T11:53:24.069Z</time></trkpt><trkpt lat="43.1890683" lon="11.758055"><ele>266.0</ele><time>2026-04-03T11:53:25.069Z</time></trkpt><trkpt lat="43.1891433" lon="11.7580683"><ele>266.0</ele><time>2026-04-03T11:53:26.069Z</time></trkpt><trkpt lat="43.1892067" lon="11.75807"><ele>266.0</ele><time>2026-04-03T11:53:27.069Z</time></trkpt><trkpt lat="43.1892817" lon="11.7580933"><ele>265.6</ele><time>2026-04-03T11:53:29.069Z</time></trkpt><trkpt lat="43.189325" lon="11.7581667"><ele>265.20000000000005</ele><time>2026-04-03T11:53:31.069Z</time></trkpt><trkpt lat="43.1892767" lon="11.7582783"><ele>264.79999999999995</ele><time>2026-04-03T11:53:33.069Z</time></trkpt><trkpt lat="43.1892183" lon="11.7583633"><ele>264.4</ele><time>2026-04-03T11:53:34.069Z</time></trkpt><trkpt lat="43.189145" lon="11.75847"><ele>264.0</ele><time>2026-04-03T11:53:35.069Z</time></trkpt><trkpt lat="43.1890717" lon="11.758595"><ele>264.5</ele><time>2026-04-03T11:53:36.069Z</time></trkpt><trkpt lat="43.1889933" lon="11.7587383"><ele>265.0</ele><time>2026-04-03T11:53:37.069Z</time></trkpt><trkpt lat="43.1889067" lon="11.7588917"><ele>265.5</ele><time>2026-04-03T11:53:38.07Z</time></trkpt><trkpt lat="43.188825" lon="11.75906"><ele>266.0</ele><time>2026-04-03T11:53:39.069Z</time></trkpt><trkpt lat="43.1887367" lon="11.75923"><ele>265.33333333333337</ele><time>2026-04-03T11:53:40.069Z</time></trkpt><trkpt lat="43.188645" lon="11.7594083"><ele>264.6666666666667</ele><time>2026-04-03T11:53:41.069Z</time></trkpt><trkpt lat="43.188555" lon="11.759605"><ele>264.0</ele><time>2026-04-03T11:53:42.069Z</time></trkpt><trkpt lat="43.1884383" lon="11.7598033"><ele>264.0</ele><time>2026-04-03T11:53:43.069Z</time></trkpt><trkpt lat="43.188325" lon="11.7600067"><ele>264.0</ele><time>2026-04-03T11:53:44.069Z</time></trkpt><trkpt lat="43.1882217" lon="11.7602117"><ele>264.0</ele><time>2026-04-03T11:53:45.069Z</time></trkpt><trkpt lat="43.1881167" lon="11.7604267"><ele>263.6666666666667</ele><time>2026-04-03T11:53:46.069Z</time></trkpt><trkpt lat="43.1880117" lon="11.7606467"><ele>263.33333333333337</ele><time>2026-04-03T11:53:47.069Z</time></trkpt><trkpt lat="43.1879083" lon="11.7608633"><ele>263.0</ele><time>2026-04-03T11:53:48.069Z</time></trkpt><trkpt lat="43.1877917" lon="11.7610833"><ele>263.0</ele><time>2026-04-03T11:53:49.069Z</time></trkpt><trkpt lat="43.1876667" lon="11.761295"><ele>263.0</ele><time>2026-04-03T11:53:50.069Z</time></trkpt><trkpt lat="43.1875533" lon="11.76151"><ele>263.0</ele><time>2026-04-03T11:53:51.07Z</time></trkpt><trkpt lat="43.1874433" lon="11.76173"><ele>263.33333333333337</ele><time>2026-04-03T11:53:52.07Z</time></trkpt><trkpt lat="43.1873333" lon="11.76195"><ele>263.6666666666667</ele><time>2026-04-03T11:53:53.069Z</time></trkpt><trkpt lat="43.1872117" lon="11.7621617"><ele>264.0</ele><time>2026-04-03T11:53:54.069Z</time></trkpt><trkpt lat="43.1870983" lon="11.7623833"><ele>264.0</ele><time>2026-04-03T11:53:55.069Z</time></trkpt><trkpt lat="43.1869883" lon="11.7626217"><ele>264.0</ele><time>2026-04-03T11:53:56.069Z</time></trkpt><trkpt lat="43.1868667" lon="11.7628583"><ele>264.0</ele><time>2026-04-03T11:53:57.07Z</time></trkpt><trkpt lat="43.1867433" lon="11.7630983"><ele>263.6666666666667</ele><time>2026-04-03T11:53:58.069Z</time></trkpt><trkpt lat="43.186625" lon="11.7633367"><ele>263.33333333333337</ele><time>2026-04-03T11:53:59.069Z</time></trkpt><trkpt lat="43.1865167" lon="11.76357"><ele>263.0</ele><time>2026-04-03T11:54:00.069Z</time></trkpt><trkpt lat="43.1863983" lon="11.7638067"><ele>263.0</ele><time>2026-04-03T11:54:01.069Z</time></trkpt><trkpt lat="43.18627" lon="11.7640367"><ele>263.0</ele><time>2026-04-03T11:54:02.069Z</time></trkpt><trkpt lat="43.186145" lon="11.7642583"><ele>263.0</ele><time>2026-04-03T11:54:03.069Z</time></trkpt><trkpt lat="43.18603" lon="11.7644833"><ele>263.0</ele><time>2026-04-03T11:54:04.069Z</time></trkpt><trkpt lat="43.1859067" lon="11.76471"><ele>263.0</ele><time>2026-04-03T11:54:05.07Z</time></trkpt><trkpt lat="43.1857833" lon="11.7649167"><ele>263.0</ele><time>2026-04-03T11:54:06.069Z</time></trkpt><trkpt lat="43.1856867" lon="11.7650817"><ele>263.25</ele><time>2026-04-03T11:54:07.07Z</time></trkpt><trkpt lat="43.1856183" lon="11.765225"><ele>263.5</ele><time>2026-04-03T11:54:08.069Z</time></trkpt><trkpt lat="43.185555" lon="11.7653517"><ele>263.75</ele><time>2026-04-03T11:54:09.069Z</time></trkpt><trkpt lat="43.1854917" lon="11.76549"><ele>264.0</ele><time>2026-04-03T11:54:10.069Z</time></trkpt><trkpt lat="43.1854167" lon="11.7656317"><ele>264.0</ele><time>2026-04-03T11:54:11.069Z</time></trkpt><trkpt lat="43.1853383" lon="11.765785"><ele>264.0</ele><time>2026-04-03T11:54:12.069Z</time></trkpt><trkpt lat="43.1852617" lon="11.76593"><ele>264.0</ele><time>2026-04-03T11:54:13.07Z</time></trkpt><trkpt lat="43.1851817" lon="11.7660767"><ele>264.0</ele><time>2026-04-03T11:54:14.07Z</time></trkpt><trkpt lat="43.1851067" lon="11.7662217"><ele>264.0</ele><time>2026-04-03T11:54:15.069Z</time></trkpt><trkpt lat="43.185025" lon="11.766365"><ele>264.0</ele><time>2026-04-03T11:54:16.069Z</time></trkpt><trkpt lat="43.1849517" lon="11.7665117"><ele>264.0</ele><time>2026-04-03T11:54:17.07Z</time></trkpt><trkpt lat="43.1848717" lon="11.7666683"><ele>264.0</ele><time>2026-04-03T11:54:18.07Z</time></trkpt><trkpt lat="43.1847967" lon="11.7668317"><ele>264.5</ele><time>2026-04-03T11:54:19.069Z</time></trkpt><trkpt lat="43.184725" lon="11.7670017"><ele>265.0</ele><time>2026-04-03T11:54:20.069Z</time></trkpt><trkpt lat="43.184645" lon="11.7671683"><ele>265.5</ele><time>2026-04-03T11:54:21.069Z</time></trkpt><trkpt lat="43.18457" lon="11.7673333"><ele>266.0</ele><time>2026-04-03T11:54:22.069Z</time></trkpt><trkpt lat="43.184485" lon="11.767495"><ele>266.0</ele><time>2026-04-03T11:54:23.069Z</time></trkpt><trkpt lat="43.1844017" lon="11.7676533"><ele>266.0</ele><time>2026-04-03T11:54:24.07Z</time></trkpt><trkpt lat="43.18432" lon="11.76781"><ele>266.0</ele><time>2026-04-03T11:54:25.069Z</time></trkpt><trkpt lat="43.1842417" lon="11.7679567"><ele>266.0</ele><time>2026-04-03T11:54:26.069Z</time></trkpt><trkpt lat="43.1841683" lon="11.7681067"><ele>266.0</ele><time>2026-04-03T11:54:27.069Z</time></trkpt><trkpt lat="43.1840967" lon="11.7682533"><ele>266.0</ele><time>2026-04-03T11:54:28.07Z</time></trkpt><trkpt lat="43.184025" lon="11.7684033"><ele>266.0</ele><time>2026-04-03T11:54:29.069Z</time></trkpt><trkpt lat="43.183945" lon="11.7685467"><ele>266.0</ele><time>2026-04-03T11:54:30.07Z</time></trkpt><trkpt lat="43.1838683" lon="11.7686883"><ele>265.6</ele><time>2026-04-03T11:54:31.069Z</time></trkpt><trkpt lat="43.1838" lon="11.7688217"><ele>265.20000000000005</ele><time>2026-04-03T11:54:32.07Z</time></trkpt><trkpt lat="43.1837433" lon="11.7689433"><ele>264.79999999999995</ele><time>2026-04-03T11:54:33.069Z</time></trkpt><trkpt lat="43.183695" lon="11.76905"><ele>264.4</ele><time>2026-04-03T11:54:34.069Z</time></trkpt><trkpt lat="43.1836567" lon="11.7691583"><ele>264.0</ele><time>2026-04-03T11:54:35.069Z</time></trkpt><trkpt lat="43.1836133" lon="11.7692817"><ele>264.1666666666667</ele><time>2026-04-03T11:54:37.069Z</time></trkpt><trkpt lat="43.1836317" lon="11.7693783"><ele>264.3333333333333</ele><time>2026-04-03T11:54:40.069Z</time></trkpt><trkpt lat="43.1837033" lon="11.7694783"><ele>264.5</ele><time>2026-04-03T11:54:42.069Z</time></trkpt><trkpt lat="43.1837517" lon="11.769545"><ele>264.66666666666663</ele><time>2026-04-03T11:54:43.07Z</time></trkpt><trkpt lat="43.1838117" lon="11.7696233"><ele>264.8333333333333</ele><time>2026-04-03T11:54:44.069Z</time></trkpt><trkpt lat="43.1838817" lon="11.76971"><ele>265.0</ele><time>2026-04-03T11:54:45.07Z</time></trkpt><trkpt lat="43.1839633" lon="11.769805"><ele>264.75</ele><time>2026-04-03T11:54:46.069Z</time></trkpt><trkpt lat="43.1840617" lon="11.7699017"><ele>264.5</ele><time>2026-04-03T11:54:47.069Z</time></trkpt><trkpt lat="43.184145" lon="11.7700117"><ele>264.25</ele><time>2026-04-03T11:54:48.07Z</time></trkpt><trkpt lat="43.184235" lon="11.77013"><ele>264.0</ele><time>2026-04-03T11:54:49.069Z</time></trkpt><trkpt lat="43.18433" lon="11.770255"><ele>264.0</ele><time>2026-04-03T11:54:50.069Z</time></trkpt><trkpt lat="43.1844167" lon="11.7703817"><ele>264.0</ele><time>2026-04-03T11:54:51.07Z</time></trkpt><trkpt lat="43.1845067" lon="11.7705067"><ele>264.0</ele><time>2026-04-03T11:54:52.069Z</time></trkpt><trkpt lat="43.184595" lon="11.7706233"><ele>264.0</ele><time>2026-04-03T11:54:53.069Z</time></trkpt><trkpt lat="43.1846783" lon="11.770745"><ele>264.0</ele><time>2026-04-03T11:54:54.07Z</time></trkpt><trkpt lat="43.1847633" lon="11.7708733"><ele>264.0</ele><time>2026-04-03T11:54:55.069Z</time></trkpt><trkpt lat="43.184835" lon="11.77099"><ele>264.0</ele><time>2026-04-03T11:54:56.069Z</time></trkpt><trkpt lat="43.1849217" lon="11.77111"><ele>264.0</ele><time>2026-04-03T11:54:57.07Z</time></trkpt><trkpt lat="43.18502" lon="11.7712283"><ele>263.5</ele><time>2026-04-03T11:54:58.069Z</time></trkpt><trkpt lat="43.1851117" lon="11.77134"><ele>263.0</ele><time>2026-04-03T11:54:59.069Z</time></trkpt><trkpt lat="43.1852017" lon="11.7714517"><ele>262.5</ele><time>2026-04-03T11:55:00.07Z</time></trkpt><trkpt lat="43.18529" lon="11.7715783"><ele>262.0</ele><time>2026-04-03T11:55:01.07Z</time></trkpt><trkpt lat="43.1853817" lon="11.7717133"><ele>262.0</ele><time>2026-04-03T11:55:02.07Z</time></trkpt><trkpt lat="43.1854733" lon="11.7718483"><ele>262.0</ele><time>2026-04-03T11:55:03.069Z</time></trkpt><trkpt lat="43.1855667" lon="11.7719817"><ele>262.0</ele><time>2026-04-03T11:55:04.069Z</time></trkpt><trkpt lat="43.185655" lon="11.7721067"><ele>262.0</ele><time>2026-04-03T11:55:05.069Z</time></trkpt><trkpt lat="43.1857433" lon="11.7722183"><ele>261.66666666666663</ele><time>2026-04-03T11:55:06.069Z</time></trkpt><trkpt lat="43.18582" lon="11.7723233"><ele>261.3333333333333</ele><time>2026-04-03T11:55:07.07Z</time></trkpt><trkpt lat="43.185895" lon="11.7724183"><ele>261.0</ele><time>2026-04-03T11:55:08.069Z</time></trkpt><trkpt lat="43.185955" lon="11.77251"><ele>260.6666666666667</ele><time>2026-04-03T11:55:09.069Z</time></trkpt><trkpt lat="43.1860083" lon="11.7725867"><ele>260.33333333333337</ele><time>2026-04-03T11:55:10.07Z</time></trkpt><trkpt lat="43.1860417" lon="11.7726717"><ele>260.0</ele><time>2026-04-03T11:55:11.069Z</time></trkpt><trkpt lat="43.186005" lon="11.772835"><ele>259.75</ele><time>2026-04-03T11:55:13.069Z</time></trkpt><trkpt lat="43.1859567" lon="11.7729383"><ele>259.5</ele><time>2026-04-03T11:55:14.069Z</time></trkpt><trkpt lat="43.1858933" lon="11.7730567"><ele>259.25</ele><time>2026-04-03T11:55:15.069Z</time></trkpt><trkpt lat="43.18582" lon="11.773205"><ele>259.0</ele><time>2026-04-03T11:55:16.069Z</time></trkpt><trkpt lat="43.185745" lon="11.7733733"><ele>259.5</ele><time>2026-04-03T11:55:17.069Z</time></trkpt><trkpt lat="43.1856667" lon="11.7735367"><ele>260.0</ele><time>2026-04-03T11:55:18.07Z</time></trkpt><trkpt lat="43.1855967" lon="11.7737183"><ele>260.5</ele><time>2026-04-03T11:55:19.069Z</time></trkpt><trkpt lat="43.1855167" lon="11.77388"><ele>261.0</ele><time>2026-04-03T11:55:20.069Z</time></trkpt><trkpt lat="43.185455" lon="11.774035"><ele>261.0</ele><time>2026-04-03T11:55:21.069Z</time></trkpt><trkpt lat="43.1853933" lon="11.7741867"><ele>261.0</ele><time>2026-04-03T11:55:22.069Z</time></trkpt><trkpt lat="43.1853267" lon="11.77433"><ele>261.0</ele><time>2026-04-03T11:55:23.069Z</time></trkpt><trkpt lat="43.1852667" lon="11.7744617"><ele>261.0</ele><time>2026-04-03T11:55:24.069Z</time></trkpt><trkpt lat="43.1852267" lon="11.7745817"><ele>260.6666666666667</ele><time>2026-04-03T11:55:25.069Z</time></trkpt><trkpt lat="43.1851933" lon="11.7746767"><ele>260.3333333333333</ele><time>2026-04-03T11:55:26.069Z</time></trkpt><trkpt lat="43.1851467" lon="11.77476"><ele>260.0</ele><time>2026-04-03T11:55:27.069Z</time></trkpt><trkpt lat="43.1851017" lon="11.77484"><ele>259.66666666666663</ele><time>2026-04-03T11:55:28.07Z</time></trkpt><trkpt lat="43.1850583" lon="11.7749117"><ele>259.3333333333333</ele><time>2026-04-03T11:55:29.07Z</time></trkpt><trkpt lat="43.1849867" lon="11.775055"><ele>259.0</ele><time>2026-04-03T11:55:31.069Z</time></trkpt><trkpt lat="43.1849567" lon="11.775145"><ele>259.2</ele><time>2026-04-03T11:55:32.069Z</time></trkpt><trkpt lat="43.1849183" lon="11.77525"><ele>259.4</ele><time>2026-04-03T11:55:33.07Z</time></trkpt><trkpt lat="43.1848667" lon="11.775365"><ele>259.6</ele><time>2026-04-03T11:55:34.069Z</time></trkpt><trkpt lat="43.1848217" lon="11.7754883"><ele>259.8</ele><time>2026-04-03T11:55:35.07Z</time></trkpt><trkpt lat="43.1847717" lon="11.77561"><ele>260.0</ele><time>2026-04-03T11:55:36.069Z</time></trkpt><trkpt lat="43.1847317" lon="11.7757267"><ele>260.0</ele><time>2026-04-03T11:55:37.069Z</time></trkpt><trkpt lat="43.1846867" lon="11.775835"><ele>260.0</ele><time>2026-04-03T11:55:38.07Z</time></trkpt><trkpt lat="43.1846533" lon="11.7759417"><ele>260.0</ele><time>2026-04-03T11:55:39.069Z</time></trkpt><trkpt lat="43.1846167" lon="11.7760683"><ele>260.0</ele><time>2026-04-03T11:55:40.069Z</time></trkpt><trkpt lat="43.18458" lon="11.7762"><ele>260.0</ele><time>2026-04-03T11:55:41.069Z</time></trkpt><trkpt lat="43.1845517" lon="11.7763267"><ele>260.0</ele><time>2026-04-03T11:55:42.07Z</time></trkpt><trkpt lat="43.18453" lon="11.77644"><ele>260.0</ele><time>2026-04-03T11:55:43.069Z</time></trkpt><trkpt lat="43.1844983" lon="11.7765467"><ele>260.0</ele><time>2026-04-03T11:55:44.07Z</time></trkpt><trkpt lat="43.184475" lon="11.7766367"><ele>260.0</ele><time>2026-04-03T11:55:45.069Z</time></trkpt><trkpt lat="43.1844433" lon="11.7767467"><ele>260.0</ele><time>2026-04-03T11:55:47.069Z</time></trkpt><trkpt lat="43.184465" lon="11.7768333"><ele>260.0</ele><time>2026-04-03T11:55:49.069Z</time></trkpt><trkpt lat="43.184545" lon="11.77697"><ele>259.6</ele><time>2026-04-03T11:55:51.069Z</time></trkpt><trkpt lat="43.1846033" lon="11.7770483"><ele>259.2</ele><time>2026-04-03T11:55:52.069Z</time></trkpt><trkpt lat="43.1846817" lon="11.7771383"><ele>258.8</ele><time>2026-04-03T11:55:53.069Z</time></trkpt><trkpt lat="43.18478" lon="11.7772417"><ele>258.4</ele><time>2026-04-03T11:55:54.07Z</time></trkpt><trkpt lat="43.1848833" lon="11.7773583"><ele>258.0</ele><time>2026-04-03T11:55:55.069Z</time></trkpt><trkpt lat="43.1849967" lon="11.7774817"><ele>258.0</ele><time>2026-04-03T11:55:56.069Z</time></trkpt><trkpt lat="43.1851233" lon="11.7776033"><ele>258.0</ele><time>2026-04-03T11:55:57.069Z</time></trkpt><trkpt lat="43.18524" lon="11.77773"><ele>258.0</ele><time>2026-04-03T11:55:58.07Z</time></trkpt><trkpt lat="43.1853683" lon="11.7778667"><ele>257.3333333333333</ele><time>2026-04-03T11:55:59.069Z</time></trkpt><trkpt lat="43.185505" lon="11.77801"><ele>256.66666666666663</ele><time>2026-04-03T11:56:00.069Z</time></trkpt><trkpt lat="43.1856533" lon="11.7781517"><ele>256.0</ele><time>2026-04-03T11:56:01.069Z</time></trkpt><trkpt lat="43.1858133" lon="11.7783083"><ele>255.66666666666666</ele><time>2026-04-03T11:56:02.07Z</time></trkpt><trkpt lat="43.185985" lon="11.7784717"><ele>255.33333333333331</ele><time>2026-04-03T11:56:03.07Z</time></trkpt><trkpt lat="43.1861767" lon="11.7786283"><ele>255.0</ele><time>2026-04-03T11:56:04.069Z</time></trkpt><trkpt lat="43.18636" lon="11.7787883"><ele>254.66666666666669</ele><time>2026-04-03T11:56:05.069Z</time></trkpt><trkpt lat="43.1865333" lon="11.7789567"><ele>254.33333333333334</ele><time>2026-04-03T11:56:06.068Z</time></trkpt><trkpt lat="43.186715" lon="11.7791267"><ele>254.0</ele><time>2026-04-03T11:56:07.068Z</time></trkpt><trkpt lat="43.1868983" lon="11.779315"><ele>254.5</ele><time>2026-04-03T11:56:08.068Z</time></trkpt><trkpt lat="43.1871017" lon="11.7795117"><ele>255.0</ele><time>2026-04-03T11:56:09.068Z</time></trkpt><trkpt lat="43.1873067" lon="11.779715"><ele>254.5</ele><time>2026-04-03T11:56:10.068Z</time></trkpt><trkpt lat="43.1875117" lon="11.779925"><ele>254.0</ele><time>2026-04-03T11:56:11.068Z</time></trkpt><trkpt lat="43.1877133" lon="11.780135"><ele>253.5</ele><time>2026-04-03T11:56:12.068Z</time></trkpt><trkpt lat="43.18792" lon="11.7803583"><ele>253.0</ele><time>2026-04-03T11:56:13.069Z</time></trkpt><trkpt lat="43.1881417" lon="11.780575"><ele>252.5</ele><time>2026-04-03T11:56:14.068Z</time></trkpt><trkpt lat="43.1883583" lon="11.780795"><ele>252.0</ele><time>2026-04-03T11:56:15.069Z</time></trkpt><trkpt lat="43.18859" lon="11.78102"><ele>252.0</ele><time>2026-04-03T11:56:16.068Z</time></trkpt><trkpt lat="43.1888117" lon="11.78125"><ele>252.0</ele><time>2026-04-03T11:56:17.068Z</time></trkpt><trkpt lat="43.1890383" lon="11.7814917"><ele>251.5</ele><time>2026-04-03T11:56:18.068Z</time></trkpt><trkpt lat="43.18926" lon="11.7817567"><ele>251.0</ele><time>2026-04-03T11:56:19.068Z</time></trkpt><trkpt lat="43.1894767" lon="11.7820283"><ele>251.0</ele><time>2026-04-03T11:56:20.068Z</time></trkpt><trkpt lat="43.189695" lon="11.7822983"><ele>251.0</ele><time>2026-04-03T11:56:21.068Z</time></trkpt><trkpt lat="43.1899117" lon="11.7825717"><ele>251.0</ele><time>2026-04-03T11:56:22.068Z</time></trkpt><trkpt lat="43.1901267" lon="11.78285"><ele>251.0</ele><time>2026-04-03T11:56:23.069Z</time></trkpt><trkpt lat="43.190325" lon="11.78313"><ele>251.0</ele><time>2026-04-03T11:56:24.068Z</time></trkpt><trkpt lat="43.1905133" lon="11.7833817"><ele>251.0</ele><time>2026-04-03T11:56:25.069Z</time></trkpt><trkpt lat="43.1906933" lon="11.783615"><ele>251.0</ele><time>2026-04-03T11:56:26.068Z</time></trkpt><trkpt lat="43.1908683" lon="11.78383"><ele>251.0</ele><time>2026-04-03T11:56:27.069Z</time></trkpt><trkpt lat="43.1910317" lon="11.7840233"><ele>251.0</ele><time>2026-04-03T11:56:28.068Z</time></trkpt><trkpt lat="43.1911867" lon="11.784205"><ele>251.0</ele><time>2026-04-03T11:56:29.068Z</time></trkpt><trkpt lat="43.191335" lon="11.7843783"><ele>251.0</ele><time>2026-04-03T11:56:30.068Z</time></trkpt><trkpt lat="43.1914717" lon="11.784545"><ele>250.66666666666669</ele><time>2026-04-03T11:56:31.068Z</time></trkpt><trkpt lat="43.1916033" lon="11.7847067"><ele>250.33333333333331</ele><time>2026-04-03T11:56:32.068Z</time></trkpt><trkpt lat="43.191735" lon="11.7848567"><ele>250.0</ele><time>2026-04-03T11:56:33.068Z</time></trkpt><trkpt lat="43.1918467" lon="11.785005"><ele>250.0</ele><time>2026-04-03T11:56:34.069Z</time></trkpt><trkpt lat="43.1919517" lon="11.78515"><ele>250.0</ele><time>2026-04-03T11:56:35.069Z</time></trkpt><trkpt lat="43.1920483" lon="11.7852833"><ele>250.0</ele><time>2026-04-03T11:56:36.069Z</time></trkpt><trkpt lat="43.1921333" lon="11.7854033"><ele>250.0</ele><time>2026-04-03T11:56:37.069Z</time></trkpt><trkpt lat="43.1922183" lon="11.7855067"><ele>250.25</ele><time>2026-04-03T11:56:38.069Z</time></trkpt><trkpt lat="43.1923117" lon="11.78561"><ele>250.5</ele><time>2026-04-03T11:56:39.068Z</time></trkpt><trkpt lat="43.1923867" lon="11.7857083"><ele>250.75</ele><time>2026-04-03T11:56:40.069Z</time></trkpt><trkpt lat="43.1924783" lon="11.78582"><ele>251.0</ele><time>2026-04-03T11:56:41.068Z</time></trkpt><trkpt lat="43.1925533" lon="11.7859417"><ele>251.25</ele><time>2026-04-03T11:56:42.068Z</time></trkpt><trkpt lat="43.19262" lon="11.7860883"><ele>251.5</ele><time>2026-04-03T11:56:43.068Z</time></trkpt><trkpt lat="43.19268" lon="11.786245"><ele>251.75</ele><time>2026-04-03T11:56:44.068Z</time></trkpt><trkpt lat="43.19275" lon="11.7864133"><ele>252.0</ele><time>2026-04-03T11:56:45.068Z</time></trkpt><trkpt lat="43.1928167" lon="11.7865767"><ele>252.0</ele><time>2026-04-03T11:56:46.068Z</time></trkpt><trkpt lat="43.1928917" lon="11.7867517"><ele>252.0</ele><time>2026-04-03T11:56:47.068Z</time></trkpt><trkpt lat="43.1929683" lon="11.786935"><ele>252.0</ele><time>2026-04-03T11:56:48.069Z</time></trkpt><trkpt lat="43.1930383" lon="11.7871267"><ele>252.0</ele><time>2026-04-03T11:56:49.069Z</time></trkpt><trkpt lat="43.193115" lon="11.7873117"><ele>252.0</ele><time>2026-04-03T11:56:50.068Z</time></trkpt><trkpt lat="43.193195" lon="11.7875067"><ele>252.0</ele><time>2026-04-03T11:56:51.068Z</time></trkpt><trkpt lat="43.193275" lon="11.787705"><ele>252.0</ele><time>2026-04-03T11:56:52.068Z</time></trkpt><trkpt lat="43.1933533" lon="11.7879117"><ele>252.0</ele><time>2026-04-03T11:56:53.068Z</time></trkpt><trkpt lat="43.1934417" lon="11.78812"><ele>252.0</ele><time>2026-04-03T11:56:54.069Z</time></trkpt><trkpt lat="43.1935317" lon="11.7883417"><ele>251.33333333333331</ele><time>2026-04-03T11:56:55.068Z</time></trkpt><trkpt lat="43.1936083" lon="11.788555"><ele>250.66666666666666</ele><time>2026-04-03T11:56:56.069Z</time></trkpt><trkpt lat="43.1936767" lon="11.788765"><ele>250.0</ele><time>2026-04-03T11:56:57.068Z</time></trkpt><trkpt lat="43.1937583" lon="11.7889567"><ele>250.0</ele><time>2026-04-03T11:56:58.068Z</time></trkpt><trkpt lat="43.1938317" lon="11.7891617"><ele>250.0</ele><time>2026-04-03T11:56:59.068Z</time></trkpt><trkpt lat="43.1939033" lon="11.789365"><ele>250.0</ele><time>2026-04-03T11:57:00.068Z</time></trkpt><trkpt lat="43.1939733" lon="11.7895617"><ele>250.25</ele><time>2026-04-03T11:57:01.068Z</time></trkpt><trkpt lat="43.1940383" lon="11.7897617"><ele>250.5</ele><time>2026-04-03T11:57:02.068Z</time></trkpt><trkpt lat="43.1940983" lon="11.7899483"><ele>250.75</ele><time>2026-04-03T11:57:03.069Z</time></trkpt><trkpt lat="43.194155" lon="11.7901167"><ele>251.0</ele><time>2026-04-03T11:57:04.068Z</time></trkpt><trkpt lat="43.1942067" lon="11.7902717"><ele>251.20000000000002</ele><time>2026-04-03T11:57:05.068Z</time></trkpt><trkpt lat="43.19425" lon="11.7904083"><ele>251.40000000000003</ele><time>2026-04-03T11:57:06.068Z</time></trkpt><trkpt lat="43.19429" lon="11.7905317"><ele>251.6</ele><time>2026-04-03T11:57:07.068Z</time></trkpt><trkpt lat="43.1943283" lon="11.7906433"><ele>251.8</ele><time>2026-04-03T11:57:08.068Z</time></trkpt><trkpt lat="43.1943717" lon="11.79074"><ele>252.0</ele><time>2026-04-03T11:57:09.068Z</time></trkpt><trkpt lat="43.1944233" lon="11.7908167"><ele>252.0</ele><time>2026-04-03T11:57:10.068Z</time></trkpt><trkpt lat="43.194485" lon="11.7908783"><ele>252.0</ele><time>2026-04-03T11:57:11.068Z</time></trkpt><trkpt lat="43.19456" lon="11.7909067"><ele>252.0</ele><time>2026-04-03T11:57:12.068Z</time></trkpt><trkpt lat="43.19464" lon="11.79089"><ele>252.0</ele><time>2026-04-03T11:57:13.068Z</time></trkpt><trkpt lat="43.1947217" lon="11.7908283"><ele>252.0</ele><time>2026-04-03T11:57:14.068Z</time></trkpt><trkpt lat="43.1948117" lon="11.7907583"><ele>252.0</ele><time>2026-04-03T11:57:15.068Z</time></trkpt><trkpt lat="43.19491" lon="11.7906783"><ele>251.75</ele><time>2026-04-03T11:57:16.068Z</time></trkpt><trkpt lat="43.1950133" lon="11.7905917"><ele>251.5</ele><time>2026-04-03T11:57:17.068Z</time></trkpt><trkpt lat="43.195125" lon="11.7905"><ele>251.25</ele><time>2026-04-03T11:57:18.068Z</time></trkpt><trkpt lat="43.195235" lon="11.7904083"><ele>251.0</ele><time>2026-04-03T11:57:19.068Z</time></trkpt><trkpt lat="43.1953633" lon="11.7903233"><ele>251.0</ele><time>2026-04-03T11:57:20.068Z</time></trkpt><trkpt lat="43.1954917" lon="11.7902433"><ele>251.0</ele><time>2026-04-03T11:57:21.068Z</time></trkpt><trkpt lat="43.1956283" lon="11.7901667"><ele>251.0</ele><time>2026-04-03T11:57:22.068Z</time></trkpt><trkpt lat="43.1957667" lon="11.7901017"><ele>251.0</ele><time>2026-04-03T11:57:23.068Z</time></trkpt><trkpt lat="43.1959083" lon="11.7900383"><ele>251.33333333333334</ele><time>2026-04-03T11:57:24.069Z</time></trkpt><trkpt lat="43.1960467" lon="11.7899667"><ele>251.66666666666669</ele><time>2026-04-03T11:57:25.068Z</time></trkpt><trkpt lat="43.1961967" lon="11.7899033"><ele>252.0</ele><time>2026-04-03T11:57:26.069Z</time></trkpt><trkpt lat="43.196345" lon="11.7898367"><ele>252.0</ele><time>2026-04-03T11:57:27.068Z</time></trkpt><trkpt lat="43.1964917" lon="11.7897733"><ele>252.0</ele><time>2026-04-03T11:57:28.069Z</time></trkpt><trkpt lat="43.1966333" lon="11.7897133"><ele>252.0</ele><time>2026-04-03T11:57:29.068Z</time></trkpt><trkpt lat="43.1967717" lon="11.7896467"><ele>252.0</ele><time>2026-04-03T11:57:30.068Z</time></trkpt><trkpt lat="43.1968883" lon="11.7895967"><ele>252.16666666666666</ele><time>2026-04-03T11:57:31.068Z</time></trkpt><trkpt lat="43.1969883" lon="11.7895567"><ele>252.33333333333331</ele><time>2026-04-03T11:57:32.068Z</time></trkpt><trkpt lat="43.19707" lon="11.7895417"><ele>252.5</ele><time>2026-04-03T11:57:33.068Z</time></trkpt><trkpt lat="43.1971333" lon="11.7895417"><ele>252.66666666666666</ele><time>2026-04-03T11:57:34.068Z</time></trkpt><trkpt lat="43.197215" lon="11.7896033"><ele>252.83333333333331</ele><time>2026-04-03T11:57:36.068Z</time></trkpt><trkpt lat="43.1972383" lon="11.7896867"><ele>253.0</ele><time>2026-04-03T11:57:37.068Z</time></trkpt><trkpt lat="43.197255" lon="11.7898033"><ele>253.0</ele><time>2026-04-03T11:57:38.069Z</time></trkpt><trkpt lat="43.1972767" lon="11.7899433"><ele>253.0</ele><time>2026-04-03T11:57:39.068Z</time></trkpt><trkpt lat="43.1972983" lon="11.790105"><ele>253.0</ele><time>2026-04-03T11:57:40.068Z</time></trkpt><trkpt lat="43.19733" lon="11.79028"><ele>253.0</ele><time>2026-04-03T11:57:41.068Z</time></trkpt><trkpt lat="43.1973683" lon="11.7904717"><ele>253.0</ele><time>2026-04-03T11:57:42.069Z</time></trkpt><trkpt lat="43.197405" lon="11.79066"><ele>253.0</ele><time>2026-04-03T11:57:43.068Z</time></trkpt><trkpt lat="43.1974533" lon="11.7908567"><ele>253.0</ele><time>2026-04-03T11:57:44.068Z</time></trkpt><trkpt lat="43.1974917" lon="11.7910683"><ele>253.0</ele><time>2026-04-03T11:57:45.069Z</time></trkpt><trkpt lat="43.1975267" lon="11.7912833"><ele>253.0</ele><time>2026-04-03T11:57:46.069Z</time></trkpt><trkpt lat="43.1975567" lon="11.7914983"><ele>253.0</ele><time>2026-04-03T11:57:47.068Z</time></trkpt><trkpt lat="43.1975817" lon="11.7917133"><ele>253.0</ele><time>2026-04-03T11:57:48.068Z</time></trkpt><trkpt lat="43.1976033" lon="11.7919217"><ele>253.0</ele><time>2026-04-03T11:57:49.069Z</time></trkpt><trkpt lat="43.19761" lon="11.792135"><ele>253.0</ele><time>2026-04-03T11:57:50.068Z</time></trkpt><trkpt lat="43.1976083" lon="11.79235"><ele>253.0</ele><time>2026-04-03T11:57:51.069Z</time></trkpt><trkpt lat="43.197605" lon="11.7925717"><ele>253.0</ele><time>2026-04-03T11:57:52.068Z</time></trkpt><trkpt lat="43.197595" lon="11.7927983"><ele>253.0</ele><time>2026-04-03T11:57:53.069Z</time></trkpt><trkpt lat="43.19758" lon="11.7930433"><ele>253.0</ele><time>2026-04-03T11:57:54.068Z</time></trkpt><trkpt lat="43.1975467" lon="11.79329"><ele>253.0</ele><time>2026-04-03T11:57:55.068Z</time></trkpt><trkpt lat="43.1974983" lon="11.7935433"><ele>253.0</ele><time>2026-04-03T11:57:56.068Z</time></trkpt><trkpt lat="43.19745" lon="11.7938"><ele>253.0</ele><time>2026-04-03T11:57:57.069Z</time></trkpt><trkpt lat="43.1974" lon="11.79407"><ele>253.0</ele><time>2026-04-03T11:57:58.068Z</time></trkpt><trkpt lat="43.1973483" lon="11.7943483"><ele>253.0</ele><time>2026-04-03T11:57:59.069Z</time></trkpt><trkpt lat="43.1973033" lon="11.7946283"><ele>253.0</ele><time>2026-04-03T11:58:00.068Z</time></trkpt><trkpt lat="43.197265" lon="11.7949017"><ele>253.0</ele><time>2026-04-03T11:58:01.068Z</time></trkpt><trkpt lat="43.1972267" lon="11.7951567"><ele>253.0</ele><time>2026-04-03T11:58:02.069Z</time></trkpt><trkpt lat="43.1971833" lon="11.7953933"><ele>252.66666666666666</ele><time>2026-04-03T11:58:03.068Z</time></trkpt><trkpt lat="43.1971317" lon="11.7956017"><ele>252.33333333333331</ele><time>2026-04-03T11:58:04.068Z</time></trkpt><trkpt lat="43.1970817" lon="11.7958033"><ele>252.0</ele><time>2026-04-03T11:58:05.068Z</time></trkpt><trkpt lat="43.1970233" lon="11.7959917"><ele>252.0</ele><time>2026-04-03T11:58:06.068Z</time></trkpt><trkpt lat="43.196955" lon="11.7961817"><ele>252.0</ele><time>2026-04-03T11:58:07.069Z</time></trkpt><trkpt lat="43.1968817" lon="11.7963617"><ele>252.0</ele><time>2026-04-03T11:58:08.069Z</time></trkpt><trkpt lat="43.1968283" lon="11.796545"><ele>252.0</ele><time>2026-04-03T11:58:09.068Z</time></trkpt><trkpt lat="43.1967917" lon="11.79673"><ele>252.33333333333331</ele><time>2026-04-03T11:58:10.068Z</time></trkpt><trkpt lat="43.1967767" lon="11.7969283"><ele>252.66666666666666</ele><time>2026-04-03T11:58:11.069Z</time></trkpt><trkpt lat="43.196775" lon="11.7971333"><ele>253.0</ele><time>2026-04-03T11:58:12.068Z</time></trkpt><trkpt lat="43.196765" lon="11.7973583"><ele>253.0</ele><time>2026-04-03T11:58:13.068Z</time></trkpt><trkpt lat="43.1967667" lon="11.7975733"><ele>253.0</ele><time>2026-04-03T11:58:14.069Z</time></trkpt><trkpt lat="43.1967617" lon="11.7977833"><ele>253.0</ele><time>2026-04-03T11:58:15.069Z</time></trkpt><trkpt lat="43.1967483" lon="11.7980033"><ele>252.66666666666666</ele><time>2026-04-03T11:58:16.068Z</time></trkpt><trkpt lat="43.1967217" lon="11.79823"><ele>252.33333333333331</ele><time>2026-04-03T11:58:17.069Z</time></trkpt><trkpt lat="43.196675" lon="11.79845"><ele>252.0</ele><time>2026-04-03T11:58:18.068Z</time></trkpt><trkpt lat="43.19663" lon="11.7986733"><ele>252.0</ele><time>2026-04-03T11:58:19.068Z</time></trkpt><trkpt lat="43.19657" lon="11.7988883"><ele>252.0</ele><time>2026-04-03T11:58:20.068Z</time></trkpt><trkpt lat="43.1964983" lon="11.799085"><ele>252.0</ele><time>2026-04-03T11:58:21.068Z</time></trkpt><trkpt lat="43.19639" lon="11.79927"><ele>252.0</ele><time>2026-04-03T11:58:22.068Z</time></trkpt><trkpt lat="43.1962833" lon="11.79944"><ele>252.0</ele><time>2026-04-03T11:58:23.068Z</time></trkpt><trkpt lat="43.1961733" lon="11.7996033"><ele>252.0</ele><time>2026-04-03T11:58:24.068Z</time></trkpt><trkpt lat="43.196075" lon="11.7997567"><ele>252.0</ele><time>2026-04-03T11:58:25.068Z</time></trkpt><trkpt lat="43.19599" lon="11.7999133"><ele>252.0</ele><time>2026-04-03T11:58:26.068Z</time></trkpt><trkpt lat="43.19591" lon="11.8000817"><ele>252.0</ele><time>2026-04-03T11:58:27.069Z</time></trkpt><trkpt lat="43.1958433" lon="11.8002717"><ele>252.0</ele><time>2026-04-03T11:58:28.069Z</time></trkpt><trkpt lat="43.1957817" lon="11.8004717"><ele>252.0</ele><time>2026-04-03T11:58:29.068Z</time></trkpt><trkpt lat="43.1957317" lon="11.8006883"><ele>252.0</ele><time>2026-04-03T11:58:30.068Z</time></trkpt><trkpt lat="43.1956883" lon="11.8009233"><ele>252.0</ele><time>2026-04-03T11:58:31.068Z</time></trkpt><trkpt lat="43.19565" lon="11.8011683"><ele>252.0</ele><time>2026-04-03T11:58:32.068Z</time></trkpt><trkpt lat="43.19562" lon="11.8014183"><ele>252.0</ele><time>2026-04-03T11:58:33.068Z</time></trkpt><trkpt lat="43.195585" lon="11.8016567"><ele>252.0</ele><time>2026-04-03T11:58:34.068Z</time></trkpt><trkpt lat="43.1955417" lon="11.8018783"><ele>252.0</ele><time>2026-04-03T11:58:35.069Z</time></trkpt><trkpt lat="43.19548" lon="11.8020933"><ele>252.0</ele><time>2026-04-03T11:58:36.069Z</time></trkpt><trkpt lat="43.1953933" lon="11.802295"><ele>252.0</ele><time>2026-04-03T11:58:37.068Z</time></trkpt><trkpt lat="43.19529" lon="11.8024917"><ele>252.33333333333331</ele><time>2026-04-03T11:58:38.068Z</time></trkpt><trkpt lat="43.1951833" lon="11.802685"><ele>252.66666666666666</ele><time>2026-04-03T11:58:39.068Z</time></trkpt><trkpt lat="43.195055" lon="11.8028817"><ele>253.0</ele><time>2026-04-03T11:58:40.068Z</time></trkpt><trkpt lat="43.1949283" lon="11.8030867"><ele>252.33333333333331</ele><time>2026-04-03T11:58:41.068Z</time></trkpt><trkpt lat="43.19481" lon="11.8032983"><ele>251.66666666666669</ele><time>2026-04-03T11:58:42.068Z</time></trkpt><trkpt lat="43.1946817" lon="11.8035133"><ele>251.0</ele><time>2026-04-03T11:58:43.068Z</time></trkpt><trkpt lat="43.194565" lon="11.8037283"><ele>250.66666666666669</ele><time>2026-04-03T11:58:44.068Z</time></trkpt><trkpt lat="43.194455" lon="11.803945"><ele>250.33333333333331</ele><time>2026-04-03T11:58:45.068Z</time></trkpt><trkpt lat="43.1943467" lon="11.8041517"><ele>250.0</ele><time>2026-04-03T11:58:46.068Z</time></trkpt><trkpt lat="43.1942467" lon="11.80434"><ele>250.5</ele><time>2026-04-03T11:58:47.068Z</time></trkpt><trkpt lat="43.19415" lon="11.8045117"><ele>251.0</ele><time>2026-04-03T11:58:48.068Z</time></trkpt><trkpt lat="43.19407" lon="11.8046733"><ele>251.5</ele><time>2026-04-03T11:58:49.069Z</time></trkpt><trkpt lat="43.1939933" lon="11.80482"><ele>252.0</ele><time>2026-04-03T11:58:50.068Z</time></trkpt><trkpt lat="43.1939217" lon="11.8049533"><ele>252.39999999999998</ele><time>2026-04-03T11:58:51.068Z</time></trkpt><trkpt lat="43.1938533" lon="11.8050717"><ele>252.79999999999998</ele><time>2026-04-03T11:58:52.068Z</time></trkpt><trkpt lat="43.1938" lon="11.8051867"><ele>253.2</ele><time>2026-04-03T11:58:53.069Z</time></trkpt><trkpt lat="43.1937417" lon="11.8052833"><ele>253.6</ele><time>2026-04-03T11:58:54.068Z</time></trkpt><trkpt lat="43.1936833" lon="11.8053817"><ele>254.0</ele><time>2026-04-03T11:58:55.068Z</time></trkpt><trkpt lat="43.193605" lon="11.8054583"><ele>254.0</ele><time>2026-04-03T11:58:56.068Z</time></trkpt><trkpt lat="43.193515" lon="11.80552"><ele>253.99999999999997</ele><time>2026-04-03T11:58:57.068Z</time></trkpt><trkpt lat="43.1934167" lon="11.805545"><ele>253.99999999999997</ele><time>2026-04-03T11:58:58.068Z</time></trkpt><trkpt lat="43.1933167" lon="11.8055817"><ele>254.0</ele><time>2026-04-03T11:58:59.069Z</time></trkpt><trkpt lat="43.1932233" lon="11.8056133"><ele>254.0</ele><time>2026-04-03T11:59:00.069Z</time></trkpt><trkpt lat="43.19314" lon="11.805645"><ele>254.00000000000003</ele><time>2026-04-03T11:59:01.068Z</time></trkpt><trkpt lat="43.19308" lon="11.8056717"><ele>254.0</ele><time>2026-04-03T11:59:02.069Z</time></trkpt><trkpt lat="43.193055" lon="11.8057783"><ele>254.0</ele><time>2026-04-03T11:59:11.069Z</time></trkpt><trkpt lat="43.193055" lon="11.8058683"><ele>254.0</ele><time>2026-04-03T11:59:12.069Z</time></trkpt><trkpt lat="43.1930583" lon="11.805985"><ele>254.00000000000003</ele><time>2026-04-03T11:59:13.068Z</time></trkpt><trkpt lat="43.1930717" lon="11.8061217"><ele>254.0</ele><time>2026-04-03T11:59:14.069Z</time></trkpt><trkpt lat="43.1930883" lon="11.8062717"><ele>254.25</ele><time>2026-04-03T11:59:15.068Z</time></trkpt><trkpt lat="43.1931133" lon="11.8064333"><ele>254.5</ele><time>2026-04-03T11:59:16.068Z</time></trkpt><trkpt lat="43.1931383" lon="11.8066017"><ele>254.75</ele><time>2026-04-03T11:59:17.068Z</time></trkpt><trkpt lat="43.1931633" lon="11.806775"><ele>255.0</ele><time>2026-04-03T11:59:18.068Z</time></trkpt><trkpt lat="43.193195" lon="11.8069683"><ele>255.0</ele><time>2026-04-03T11:59:19.069Z</time></trkpt><trkpt lat="43.1932067" lon="11.8071433"><ele>255.0</ele><time>2026-04-03T11:59:20.068Z</time></trkpt><trkpt lat="43.1931933" lon="11.8073167"><ele>255.0</ele><time>2026-04-03T11:59:21.069Z</time></trkpt><trkpt lat="43.193155" lon="11.8074867"><ele>255.0</ele><time>2026-04-03T11:59:22.068Z</time></trkpt><trkpt lat="43.1931033" lon="11.807665"><ele>255.0</ele><time>2026-04-03T11:59:23.068Z</time></trkpt><trkpt lat="43.1930433" lon="11.8078483"><ele>255.0</ele><time>2026-04-03T11:59:24.069Z</time></trkpt><trkpt lat="43.19298" lon="11.808045"><ele>255.0</ele><time>2026-04-03T11:59:25.068Z</time></trkpt><trkpt lat="43.1929117" lon="11.8082433"><ele>255.0</ele><time>2026-04-03T11:59:26.069Z</time></trkpt><trkpt lat="43.1928317" lon="11.8084383"><ele>255.0</ele><time>2026-04-03T11:59:27.069Z</time></trkpt><trkpt lat="43.1927517" lon="11.80865"><ele>255.0</ele><time>2026-04-03T11:59:28.068Z</time></trkpt><trkpt lat="43.192675" lon="11.8088717"><ele>254.33333333333331</ele><time>2026-04-03T11:59:29.068Z</time></trkpt><trkpt lat="43.192595" lon="11.8091"><ele>253.66666666666666</ele><time>2026-04-03T11:59:30.069Z</time></trkpt><trkpt lat="43.1925083" lon="11.8093383"><ele>253.0</ele><time>2026-04-03T11:59:31.068Z</time></trkpt><trkpt lat="43.1924183" lon="11.8095833"><ele>253.0</ele><time>2026-04-03T11:59:32.068Z</time></trkpt><trkpt lat="43.1923467" lon="11.809835"><ele>253.0</ele><time>2026-04-03T11:59:33.068Z</time></trkpt><trkpt lat="43.19227" lon="11.8101017"><ele>253.0</ele><time>2026-04-03T11:59:34.068Z</time></trkpt><trkpt lat="43.1921933" lon="11.8103733"><ele>253.33333333333331</ele><time>2026-04-03T11:59:35.069Z</time></trkpt><trkpt lat="43.1921117" lon="11.8106417"><ele>253.66666666666669</ele><time>2026-04-03T11:59:36.068Z</time></trkpt><trkpt lat="43.1920283" lon="11.8108867"><ele>254.0</ele><time>2026-04-03T11:59:37.069Z</time></trkpt><trkpt lat="43.191955" lon="11.8111183"><ele>253.0</ele><time>2026-04-03T11:59:38.068Z</time></trkpt><trkpt lat="43.1918733" lon="11.8113433"><ele>252.0</ele><time>2026-04-03T11:59:39.068Z</time></trkpt><trkpt lat="43.191785" lon="11.8115517"><ele>251.0</ele><time>2026-04-03T11:59:40.068Z</time></trkpt><trkpt lat="43.1916967" lon="11.8117283"><ele>251.0</ele><time>2026-04-03T11:59:41.068Z</time></trkpt><trkpt lat="43.19161" lon="11.8118767"><ele>251.00000000000003</ele><time>2026-04-03T11:59:42.068Z</time></trkpt><trkpt lat="43.1915117" lon="11.81199"><ele>251.00000000000003</ele><time>2026-04-03T11:59:43.068Z</time></trkpt><trkpt lat="43.1914433" lon="11.8120767"><ele>251.0</ele><time>2026-04-03T11:59:44.068Z</time></trkpt><trkpt lat="43.1913883" lon="11.8121417"><ele>251.0</ele><time>2026-04-03T11:59:45.068Z</time></trkpt><trkpt lat="43.19131" lon="11.8122367"><ele>251.0</ele><time>2026-04-03T11:59:47.068Z</time></trkpt><trkpt lat="43.19121" lon="11.8123467"><ele>251.0</ele><time>2026-04-03T11:59:49.068Z</time></trkpt><trkpt lat="43.1911417" lon="11.8124417"><ele>251.0</ele><time>2026-04-03T11:59:50.068Z</time></trkpt><trkpt lat="43.1910583" lon="11.8125683"><ele>251.0</ele><time>2026-04-03T11:59:51.069Z</time></trkpt><trkpt lat="43.1909567" lon="11.8127133"><ele>251.33333333333334</ele><time>2026-04-03T11:59:52.069Z</time></trkpt><trkpt lat="43.190845" lon="11.8128717"><ele>251.66666666666669</ele><time>2026-04-03T11:59:53.068Z</time></trkpt><trkpt lat="43.190735" lon="11.8130283"><ele>252.0</ele><time>2026-04-03T11:59:54.068Z</time></trkpt><trkpt lat="43.1906167" lon="11.813215"><ele>251.66666666666669</ele><time>2026-04-03T11:59:55.068Z</time></trkpt><trkpt lat="43.1904867" lon="11.8134117"><ele>251.33333333333334</ele><time>2026-04-03T11:59:56.068Z</time></trkpt><trkpt lat="43.1903383" lon="11.81363"><ele>251.0</ele><time>2026-04-03T11:59:57.068Z</time></trkpt><trkpt lat="43.1901967" lon="11.813855"><ele>251.0</ele><time>2026-04-03T11:59:58.068Z</time></trkpt><trkpt lat="43.1900483" lon="11.8140767"><ele>251.0</ele><time>2026-04-03T11:59:59.069Z</time></trkpt><trkpt lat="43.1898983" lon="11.8143067"><ele>251.0</ele><time>2026-04-03T12:00:00.068Z</time></trkpt><trkpt lat="43.18974" lon="11.8145417"><ele>250.5</ele><time>2026-04-03T12:00:01.068Z</time></trkpt><trkpt lat="43.1895783" lon="11.8147817"><ele>250.0</ele><time>2026-04-03T12:00:02.069Z</time></trkpt><trkpt lat="43.1894133" lon="11.8150217"><ele>250.0</ele><time>2026-04-03T12:00:03.068Z</time></trkpt><trkpt lat="43.1892517" lon="11.8152667"><ele>250.0</ele><time>2026-04-03T12:00:04.068Z</time></trkpt><trkpt lat="43.1890767" lon="11.8155167"><ele>250.0</ele><time>2026-04-03T12:00:05.068Z</time></trkpt><trkpt lat="43.1889067" lon="11.8157683"><ele>250.0</ele><time>2026-04-03T12:00:06.068Z</time></trkpt><trkpt lat="43.18873" lon="11.816025"><ele>249.5</ele><time>2026-04-03T12:00:07.068Z</time></trkpt><trkpt lat="43.1885433" lon="11.81629"><ele>249.0</ele><time>2026-04-03T12:00:08.068Z</time></trkpt><trkpt lat="43.18837" lon="11.8165567"><ele>249.0</ele><time>2026-04-03T12:00:09.067Z</time></trkpt><trkpt lat="43.1881933" lon="11.8168083"><ele>249.0</ele><time>2026-04-03T12:00:10.067Z</time></trkpt><trkpt lat="43.18801" lon="11.8170633"><ele>249.0</ele><time>2026-04-03T12:00:11.067Z</time></trkpt><trkpt lat="43.1878333" lon="11.8173267"><ele>249.0</ele><time>2026-04-03T12:00:12.067Z</time></trkpt><trkpt lat="43.1876517" lon="11.8175933"><ele>249.0</ele><time>2026-04-03T12:00:13.067Z</time></trkpt><trkpt lat="43.1874717" lon="11.8178533"><ele>249.0</ele><time>2026-04-03T12:00:14.067Z</time></trkpt><trkpt lat="43.1872783" lon="11.8181183"><ele>248.5</ele><time>2026-04-03T12:00:15.067Z</time></trkpt><trkpt lat="43.1870967" lon="11.8183783"><ele>248.0</ele><time>2026-04-03T12:00:16.067Z</time></trkpt><trkpt lat="43.1869167" lon="11.8186367"><ele>249.0</ele><time>2026-04-03T12:00:17.067Z</time></trkpt><trkpt lat="43.18674" lon="11.8188883"><ele>250.0</ele><time>2026-04-03T12:00:18.067Z</time></trkpt><trkpt lat="43.1865617" lon="11.8191467"><ele>250.0</ele><time>2026-04-03T12:00:19.067Z</time></trkpt><trkpt lat="43.186385" lon="11.819405"><ele>250.0</ele><time>2026-04-03T12:00:20.067Z</time></trkpt><trkpt lat="43.1862033" lon="11.8196633"><ele>250.0</ele><time>2026-04-03T12:00:21.067Z</time></trkpt><trkpt lat="43.186015" lon="11.8199283"><ele>250.0</ele><time>2026-04-03T12:00:22.067Z</time></trkpt><trkpt lat="43.18583" lon="11.8201917"><ele>250.5</ele><time>2026-04-03T12:00:23.068Z</time></trkpt><trkpt lat="43.1856567" lon="11.820455"><ele>251.0</ele><time>2026-04-03T12:00:24.067Z</time></trkpt><trkpt lat="43.18548" lon="11.8207233"><ele>250.0</ele><time>2026-04-03T12:00:25.067Z</time></trkpt><trkpt lat="43.185295" lon="11.8209883"><ele>249.0</ele><time>2026-04-03T12:00:26.067Z</time></trkpt><trkpt lat="43.1851133" lon="11.8212567"><ele>249.0</ele><time>2026-04-03T12:00:27.067Z</time></trkpt><trkpt lat="43.1849267" lon="11.8215367"><ele>249.0</ele><time>2026-04-03T12:00:28.067Z</time></trkpt><trkpt lat="43.1847433" lon="11.82181"><ele>249.5</ele><time>2026-04-03T12:00:29.067Z</time></trkpt><trkpt lat="43.184555" lon="11.822085"><ele>250.0</ele><time>2026-04-03T12:00:30.067Z</time></trkpt><trkpt lat="43.1843717" lon="11.82235"><ele>250.0</ele><time>2026-04-03T12:00:31.067Z</time></trkpt><trkpt lat="43.1842067" lon="11.8225883"><ele>250.0</ele><time>2026-04-03T12:00:32.067Z</time></trkpt><trkpt lat="43.184055" lon="11.8228"><ele>249.33333333333331</ele><time>2026-04-03T12:00:33.068Z</time></trkpt><trkpt lat="43.1839217" lon="11.8230033"><ele>248.66666666666669</ele><time>2026-04-03T12:00:34.068Z</time></trkpt><trkpt lat="43.1837917" lon="11.8231933"><ele>248.0</ele><time>2026-04-03T12:00:35.067Z</time></trkpt><trkpt lat="43.18358" lon="11.8234867"><ele>248.0</ele><time>2026-04-03T12:00:37.067Z</time></trkpt><trkpt lat="43.1834967" lon="11.82361"><ele>248.0</ele><time>2026-04-03T12:00:38.068Z</time></trkpt><trkpt lat="43.1834383" lon="11.823695"><ele>248.0</ele><time>2026-04-03T12:00:39.068Z</time></trkpt><trkpt lat="43.1833933" lon="11.8237717"><ele>248.0</ele><time>2026-04-03T12:00:40.068Z</time></trkpt><trkpt lat="43.1833267" lon="11.8238633"><ele>248.0</ele><time>2026-04-03T12:00:42.068Z</time></trkpt><trkpt lat="43.1834183" lon="11.82382"><ele>248.0</ele><time>2026-04-03T12:00:47.067Z</time></trkpt><trkpt lat="43.1834633" lon="11.8237483"><ele>248.0</ele><time>2026-04-03T12:00:48.067Z</time></trkpt><trkpt lat="43.1835183" lon="11.8236483"><ele>248.0</ele><time>2026-04-03T12:00:49.067Z</time></trkpt><trkpt lat="43.1835783" lon="11.8235367"><ele>248.0</ele><time>2026-04-03T12:00:50.067Z</time></trkpt><trkpt lat="43.1836583" lon="11.8234083"><ele>248.0</ele><time>2026-04-03T12:00:51.067Z</time></trkpt><trkpt lat="43.1837533" lon="11.823265"><ele>248.0</ele><time>2026-04-03T12:00:52.067Z</time></trkpt><trkpt lat="43.1838667" lon="11.8231083"><ele>248.0</ele><time>2026-04-03T12:00:53.067Z</time></trkpt><trkpt lat="43.1839883" lon="11.8229383"><ele>248.0</ele><time>2026-04-03T12:00:54.068Z</time></trkpt><trkpt lat="43.1841167" lon="11.8227617"><ele>248.66666666666669</ele><time>2026-04-03T12:00:55.067Z</time></trkpt><trkpt lat="43.1842517" lon="11.82257"><ele>249.33333333333331</ele><time>2026-04-03T12:00:56.068Z</time></trkpt><trkpt lat="43.184395" lon="11.8223767"><ele>250.0</ele><time>2026-04-03T12:00:57.067Z</time></trkpt><trkpt lat="43.1845267" lon="11.82219"><ele>250.0</ele><time>2026-04-03T12:00:58.068Z</time></trkpt><trkpt lat="43.1846467" lon="11.8220283"><ele>250.0</ele><time>2026-04-03T12:00:59.067Z</time></trkpt><trkpt lat="43.184745" lon="11.8218833"><ele>250.0</ele><time>2026-04-03T12:01:00.067Z</time></trkpt><trkpt lat="43.1848217" lon="11.8217667"><ele>250.0</ele><time>2026-04-03T12:01:01.068Z</time></trkpt><trkpt lat="43.184895" lon="11.8216667"><ele>249.83333333333331</ele><time>2026-04-03T12:01:02.068Z</time></trkpt><trkpt lat="43.1849483" lon="11.8215967"><ele>249.66666666666666</ele><time>2026-04-03T12:01:03.068Z</time></trkpt><trkpt lat="43.1849967" lon="11.8215367"><ele>249.5</ele><time>2026-04-03T12:01:04.067Z</time></trkpt><trkpt lat="43.1850917" lon="11.8215417"><ele>249.33333333333331</ele><time>2026-04-03T12:01:06.068Z</time></trkpt><trkpt lat="43.1851283" lon="11.8216183"><ele>249.16666666666666</ele><time>2026-04-03T12:01:07.067Z</time></trkpt><trkpt lat="43.185155" lon="11.8217383"><ele>249.0</ele><time>2026-04-03T12:01:08.067Z</time></trkpt><trkpt lat="43.1851833" lon="11.8218683"><ele>249.0</ele><time>2026-04-03T12:01:09.068Z</time></trkpt><trkpt lat="43.1852083" lon="11.8220383"><ele>249.0</ele><time>2026-04-03T12:01:10.067Z</time></trkpt><trkpt lat="43.18524" lon="11.8222417"><ele>249.0</ele><time>2026-04-03T12:01:11.067Z</time></trkpt><trkpt lat="43.1852633" lon="11.8224633"><ele>249.0</ele><time>2026-04-03T12:01:12.068Z</time></trkpt><trkpt lat="43.18529" lon="11.8227017"><ele>248.66666666666669</ele><time>2026-04-03T12:01:13.068Z</time></trkpt><trkpt lat="43.185335" lon="11.822945"><ele>248.33333333333334</ele><time>2026-04-03T12:01:14.067Z</time></trkpt><trkpt lat="43.1853883" lon="11.823195"><ele>248.0</ele><time>2026-04-03T12:01:15.067Z</time></trkpt><trkpt lat="43.1854417" lon="11.82343"><ele>247.66666666666669</ele><time>2026-04-03T12:01:16.067Z</time></trkpt><trkpt lat="43.1854933" lon="11.823655"><ele>247.33333333333331</ele><time>2026-04-03T12:01:17.067Z</time></trkpt><trkpt lat="43.18554" lon="11.8238767"><ele>247.0</ele><time>2026-04-03T12:01:18.067Z</time></trkpt><trkpt lat="43.1855833" lon="11.8240817"><ele>247.0</ele><time>2026-04-03T12:01:19.067Z</time></trkpt><trkpt lat="43.1856317" lon="11.8242833"><ele>247.0</ele><time>2026-04-03T12:01:20.068Z</time></trkpt><trkpt lat="43.1856783" lon="11.8244783"><ele>247.0</ele><time>2026-04-03T12:01:21.068Z</time></trkpt><trkpt lat="43.1857167" lon="11.82467"><ele>247.0</ele><time>2026-04-03T12:01:22.067Z</time></trkpt><trkpt lat="43.1857467" lon="11.8248367"><ele>247.25</ele><time>2026-04-03T12:01:23.067Z</time></trkpt><trkpt lat="43.1857517" lon="11.82499"><ele>247.5</ele><time>2026-04-03T12:01:24.067Z</time></trkpt><trkpt lat="43.185745" lon="11.8251467"><ele>247.75</ele><time>2026-04-03T12:01:25.067Z</time></trkpt><trkpt lat="43.185725" lon="11.8253067"><ele>248.0</ele><time>2026-04-03T12:01:26.067Z</time></trkpt><trkpt lat="43.185695" lon="11.825475"><ele>248.0</ele><time>2026-04-03T12:01:27.067Z</time></trkpt><trkpt lat="43.1856717" lon="11.8256467"><ele>248.0</ele><time>2026-04-03T12:01:28.067Z</time></trkpt><trkpt lat="43.18566" lon="11.8258317"><ele>248.0</ele><time>2026-04-03T12:01:29.068Z</time></trkpt><trkpt lat="43.1856633" lon="11.826"><ele>248.0</ele><time>2026-04-03T12:01:30.067Z</time></trkpt><trkpt lat="43.1856767" lon="11.82616"><ele>248.2</ele><time>2026-04-03T12:01:31.068Z</time></trkpt><trkpt lat="43.185705" lon="11.826315"><ele>248.4</ele><time>2026-04-03T12:01:32.067Z</time></trkpt><trkpt lat="43.185735" lon="11.8264533"><ele>248.59999999999997</ele><time>2026-04-03T12:01:33.067Z</time></trkpt><trkpt lat="43.185775" lon="11.8265867"><ele>248.79999999999998</ele><time>2026-04-03T12:01:34.067Z</time></trkpt><trkpt lat="43.1858167" lon="11.8267183"><ele>249.0</ele><time>2026-04-03T12:01:35.067Z</time></trkpt><trkpt lat="43.185865" lon="11.826855"><ele>249.0</ele><time>2026-04-03T12:01:36.067Z</time></trkpt><trkpt lat="43.1859067" lon="11.8269917"><ele>249.0</ele><time>2026-04-03T12:01:37.067Z</time></trkpt><trkpt lat="43.1859567" lon="11.827135"><ele>249.0</ele><time>2026-04-03T12:01:38.068Z</time></trkpt><trkpt lat="43.186005" lon="11.827295"><ele>249.0</ele><time>2026-04-03T12:01:39.067Z</time></trkpt><trkpt lat="43.18606" lon="11.827475"><ele>248.33333333333331</ele><time>2026-04-03T12:01:40.067Z</time></trkpt><trkpt lat="43.1861133" lon="11.8276567"><ele>247.66666666666666</ele><time>2026-04-03T12:01:41.067Z</time></trkpt><trkpt lat="43.1861833" lon="11.82785"><ele>247.0</ele><time>2026-04-03T12:01:42.067Z</time></trkpt><trkpt lat="43.1862533" lon="11.8280433"><ele>247.0</ele><time>2026-04-03T12:01:43.068Z</time></trkpt><trkpt lat="43.1863067" lon="11.8282"><ele>247.0</ele><time>2026-04-03T12:01:44.067Z</time></trkpt><trkpt lat="43.1863483" lon="11.828345"><ele>247.0</ele><time>2026-04-03T12:01:45.068Z</time></trkpt><trkpt lat="43.18639" lon="11.8284833"><ele>247.0</ele><time>2026-04-03T12:01:46.067Z</time></trkpt><trkpt lat="43.18643" lon="11.828595"><ele>247.0</ele><time>2026-04-03T12:01:47.067Z</time></trkpt><trkpt lat="43.1864717" lon="11.828685"><ele>246.8</ele><time>2026-04-03T12:01:48.067Z</time></trkpt><trkpt lat="43.1865183" lon="11.8287467"><ele>246.6</ele><time>2026-04-03T12:01:49.067Z</time></trkpt><trkpt lat="43.18658" lon="11.8287667"><ele>246.40000000000003</ele><time>2026-04-03T12:01:50.068Z</time></trkpt><trkpt lat="43.1866817" lon="11.828735"><ele>246.20000000000002</ele><time>2026-04-03T12:01:51.067Z</time></trkpt><trkpt lat="43.1868083" lon="11.828695"><ele>246.0</ele><time>2026-04-03T12:01:52.068Z</time></trkpt><trkpt lat="43.1869467" lon="11.8286417"><ele>246.0</ele><time>2026-04-03T12:01:53.068Z</time></trkpt><trkpt lat="43.187095" lon="11.8285817"><ele>246.0</ele><time>2026-04-03T12:01:54.067Z</time></trkpt><trkpt lat="43.187265" lon="11.8285283"><ele>246.0</ele><time>2026-04-03T12:01:55.067Z</time></trkpt><trkpt lat="43.18745" lon="11.82847"><ele>246.33333333333331</ele><time>2026-04-03T12:01:56.067Z</time></trkpt><trkpt lat="43.18764" lon="11.828415"><ele>246.66666666666666</ele><time>2026-04-03T12:01:57.067Z</time></trkpt><trkpt lat="43.1878417" lon="11.8283583"><ele>247.0</ele><time>2026-04-03T12:01:58.067Z</time></trkpt><trkpt lat="43.1880567" lon="11.828295"><ele>247.0</ele><time>2026-04-03T12:01:59.068Z</time></trkpt><trkpt lat="43.1882767" lon="11.8282383"><ele>247.0</ele><time>2026-04-03T12:02:00.067Z</time></trkpt><trkpt lat="43.1884767" lon="11.8281767"><ele>247.0</ele><time>2026-04-03T12:02:01.068Z</time></trkpt><trkpt lat="43.188665" lon="11.8281167"><ele>247.0</ele><time>2026-04-03T12:02:02.067Z</time></trkpt><trkpt lat="43.1888367" lon="11.8280667"><ele>247.0</ele><time>2026-04-03T12:02:03.068Z</time></trkpt><trkpt lat="43.1889967" lon="11.8280183"><ele>247.0</ele><time>2026-04-03T12:02:04.067Z</time></trkpt><trkpt lat="43.1891433" lon="11.8279733"><ele>247.33333333333331</ele><time>2026-04-03T12:02:05.067Z</time></trkpt><trkpt lat="43.1893017" lon="11.8279333"><ele>247.66666666666669</ele><time>2026-04-03T12:02:06.067Z</time></trkpt><trkpt lat="43.18947" lon="11.8278933"><ele>248.0</ele><time>2026-04-03T12:02:07.068Z</time></trkpt><trkpt lat="43.1896367" lon="11.8278417"><ele>248.0</ele><time>2026-04-03T12:02:08.067Z</time></trkpt><trkpt lat="43.189815" lon="11.827785"><ele>248.0</ele><time>2026-04-03T12:02:09.068Z</time></trkpt><trkpt lat="43.1899867" lon="11.8277267"><ele>248.0</ele><time>2026-04-03T12:02:10.068Z</time></trkpt><trkpt lat="43.1901683" lon="11.8276683"><ele>247.66666666666669</ele><time>2026-04-03T12:02:11.067Z</time></trkpt><trkpt lat="43.190365" lon="11.827615"><ele>247.33333333333331</ele><time>2026-04-03T12:02:12.067Z</time></trkpt><trkpt lat="43.1905617" lon="11.827555"><ele>247.0</ele><time>2026-04-03T12:02:13.068Z</time></trkpt><trkpt lat="43.1907717" lon="11.82749"><ele>247.0</ele><time>2026-04-03T12:02:14.068Z</time></trkpt><trkpt lat="43.1909817" lon="11.827425"><ele>247.0</ele><time>2026-04-03T12:02:15.068Z</time></trkpt><trkpt lat="43.1911833" lon="11.8273667"><ele>247.0</ele><time>2026-04-03T12:02:16.067Z</time></trkpt><trkpt lat="43.1913683" lon="11.8273117"><ele>248.0</ele><time>2026-04-03T12:02:17.067Z</time></trkpt><trkpt lat="43.1915267" lon="11.82726"><ele>249.0</ele><time>2026-04-03T12:02:18.067Z</time></trkpt><trkpt lat="43.1916883" lon="11.82722"><ele>250.0</ele><time>2026-04-03T12:02:19.067Z</time></trkpt><trkpt lat="43.191845" lon="11.8271717"><ele>250.0</ele><time>2026-04-03T12:02:20.068Z</time></trkpt><trkpt lat="43.1920017" lon="11.827135"><ele>250.0</ele><time>2026-04-03T12:02:21.067Z</time></trkpt><trkpt lat="43.19215" lon="11.8270967"><ele>250.0</ele><time>2026-04-03T12:02:22.067Z</time></trkpt><trkpt lat="43.192285" lon="11.8270533"><ele>250.0</ele><time>2026-04-03T12:02:23.067Z</time></trkpt><trkpt lat="43.1924067" lon="11.8270183"><ele>249.8</ele><time>2026-04-03T12:02:24.068Z</time></trkpt><trkpt lat="43.1925183" lon="11.8269833"><ele>249.6</ele><time>2026-04-03T12:02:25.067Z</time></trkpt><trkpt lat="43.1926183" lon="11.82696"><ele>249.39999999999998</ele><time>2026-04-03T12:02:26.067Z</time></trkpt><trkpt lat="43.192705" lon="11.8269383"><ele>249.2</ele><time>2026-04-03T12:02:27.068Z</time></trkpt><trkpt lat="43.1927983" lon="11.8269133"><ele>249.0</ele><time>2026-04-03T12:02:29.067Z</time></trkpt><trkpt lat="43.1928" lon="11.82681"><ele>249.0</ele><time>2026-04-03T12:02:32.067Z</time></trkpt><trkpt lat="43.1927617" lon="11.82664"><ele>248.99999999999997</ele><time>2026-04-03T12:02:34.068Z</time></trkpt><trkpt lat="43.19274" lon="11.8265467"><ele>248.99999999999997</ele><time>2026-04-03T12:02:35.067Z</time></trkpt><trkpt lat="43.1927183" lon="11.826455"><ele>249.0</ele><time>2026-04-03T12:02:36.067Z</time></trkpt><trkpt lat="43.1926883" lon="11.8263017"><ele>249.0</ele><time>2026-04-03T12:02:38.068Z</time></trkpt><trkpt lat="43.1926667" lon="11.82616"><ele>249.0</ele><time>2026-04-03T12:02:40.067Z</time></trkpt><trkpt lat="43.1926567" lon="11.8260517"><ele>249.0</ele><time>2026-04-03T12:02:42.068Z</time></trkpt><trkpt lat="43.1926383" lon="11.8259533"><ele>249.0</ele><time>2026-04-03T12:02:45.067Z</time></trkpt><trkpt lat="43.1926317" lon="11.8260567"><ele>249.0</ele><time>2026-04-03T12:02:49.067Z</time></trkpt><trkpt lat="43.1926567" lon="11.8261433"><ele>249.0</ele><time>2026-04-03T12:02:50.067Z</time></trkpt><trkpt lat="43.19268" lon="11.8262617"><ele>249.0</ele><time>2026-04-03T12:02:51.067Z</time></trkpt><trkpt lat="43.1926983" lon="11.8264033"><ele>249.0</ele><time>2026-04-03T12:02:52.068Z</time></trkpt><trkpt lat="43.192725" lon="11.826575"><ele>249.0</ele><time>2026-04-03T12:02:53.068Z</time></trkpt><trkpt lat="43.1927567" lon="11.8267533"><ele>249.0</ele><time>2026-04-03T12:02:54.067Z</time></trkpt><trkpt lat="43.1927817" lon="11.82694"><ele>249.0</ele><time>2026-04-03T12:02:55.067Z</time></trkpt><trkpt lat="43.192815" lon="11.8271283"><ele>249.0</ele><time>2026-04-03T12:02:56.068Z</time></trkpt><trkpt lat="43.1928517" lon="11.827325"><ele>249.0</ele><time>2026-04-03T12:02:57.068Z</time></trkpt><trkpt lat="43.1928883" lon="11.8275"><ele>249.0</ele><time>2026-04-03T12:02:58.067Z</time></trkpt><trkpt lat="43.1929133" lon="11.8276383"><ele>249.0</ele><time>2026-04-03T12:02:59.067Z</time></trkpt><trkpt lat="43.1929383" lon="11.827725"><ele>249.0</ele><time>2026-04-03T12:03:00.067Z</time></trkpt><trkpt lat="43.193015" lon="11.827745"><ele>248.99999999999997</ele><time>2026-04-03T12:03:02.067Z</time></trkpt><trkpt lat="43.1930667" lon="11.82769"><ele>248.99999999999997</ele><time>2026-04-03T12:03:03.067Z</time></trkpt><trkpt lat="43.1931283" lon="11.827615"><ele>249.0</ele><time>2026-04-03T12:03:04.068Z</time></trkpt><trkpt lat="43.1932117" lon="11.8275217"><ele>249.0</ele><time>2026-04-03T12:03:05.067Z</time></trkpt><trkpt lat="43.1933083" lon="11.8274033"><ele>248.75</ele><time>2026-04-03T12:03:06.067Z</time></trkpt><trkpt lat="43.19342" lon="11.8272833"><ele>248.5</ele><time>2026-04-03T12:03:07.067Z</time></trkpt><trkpt lat="43.1935417" lon="11.8271617"><ele>248.25</ele><time>2026-04-03T12:03:08.068Z</time></trkpt><trkpt lat="43.19367" lon="11.82704"><ele>248.0</ele><time>2026-04-03T12:03:09.067Z</time></trkpt><trkpt lat="43.1938" lon="11.8269033"><ele>247.66666666666669</ele><time>2026-04-03T12:03:10.067Z</time></trkpt><trkpt lat="43.1939367" lon="11.8267567"><ele>247.33333333333331</ele><time>2026-04-03T12:03:11.067Z</time></trkpt><trkpt lat="43.1940783" lon="11.8266017"><ele>247.0</ele><time>2026-04-03T12:03:12.068Z</time></trkpt><trkpt lat="43.1942267" lon="11.8264483"><ele>247.0</ele><time>2026-04-03T12:03:13.068Z</time></trkpt><trkpt lat="43.1943817" lon="11.8263067"><ele>247.0</ele><time>2026-04-03T12:03:14.068Z</time></trkpt><trkpt lat="43.1945383" lon="11.8261417"><ele>247.0</ele><time>2026-04-03T12:03:15.067Z</time></trkpt><trkpt lat="43.1946933" lon="11.82598"><ele>248.0</ele><time>2026-04-03T12:03:16.068Z</time></trkpt><trkpt lat="43.1948533" lon="11.82582"><ele>249.0</ele><time>2026-04-03T12:03:17.068Z</time></trkpt><trkpt lat="43.1950033" lon="11.8256767"><ele>250.0</ele><time>2026-04-03T12:03:18.067Z</time></trkpt><trkpt lat="43.1951417" lon="11.8255333"><ele>250.0</ele><time>2026-04-03T12:03:19.067Z</time></trkpt><trkpt lat="43.1952633" lon="11.825405"><ele>250.0</ele><time>2026-04-03T12:03:20.067Z</time></trkpt><trkpt lat="43.19537" lon="11.8253033"><ele>250.0</ele><time>2026-04-03T12:03:21.067Z</time></trkpt><trkpt lat="43.1954567" lon="11.8252133"><ele>250.0</ele><time>2026-04-03T12:03:22.067Z</time></trkpt><trkpt lat="43.1955283" lon="11.8251333"><ele>250.2</ele><time>2026-04-03T12:03:23.067Z</time></trkpt><trkpt lat="43.1955933" lon="11.82507"><ele>250.4</ele><time>2026-04-03T12:03:24.067Z</time></trkpt><trkpt lat="43.1957067" lon="11.825035"><ele>250.60000000000002</ele><time>2026-04-03T12:03:26.067Z</time></trkpt><trkpt lat="43.1957683" lon="11.8251583"><ele>250.8</ele><time>2026-04-03T12:03:28.068Z</time></trkpt><trkpt lat="43.1957933" lon="11.8252583"><ele>251.0</ele><time>2026-04-03T12:03:29.067Z</time></trkpt><trkpt lat="43.1958167" lon="11.8253833"><ele>251.0</ele><time>2026-04-03T12:03:30.067Z</time></trkpt><trkpt lat="43.1958467" lon="11.8255217"><ele>251.0</ele><time>2026-04-03T12:03:31.067Z</time></trkpt><trkpt lat="43.1959067" lon="11.8256917"><ele>251.0</ele><time>2026-04-03T12:03:32.067Z</time></trkpt><trkpt lat="43.19598" lon="11.82588"><ele>251.0</ele><time>2026-04-03T12:03:33.067Z</time></trkpt><trkpt lat="43.1960583" lon="11.8260767"><ele>250.0</ele><time>2026-04-03T12:03:34.067Z</time></trkpt><trkpt lat="43.1961267" lon="11.8262783"><ele>249.0</ele><time>2026-04-03T12:03:35.068Z</time></trkpt><trkpt lat="43.1962017" lon="11.8264917"><ele>248.0</ele><time>2026-04-03T12:03:36.067Z</time></trkpt><trkpt lat="43.1962783" lon="11.826725"><ele>248.0</ele><time>2026-04-03T12:03:37.067Z</time></trkpt><trkpt lat="43.1963517" lon="11.8269633"><ele>248.0</ele><time>2026-04-03T12:03:38.068Z</time></trkpt><trkpt lat="43.1964333" lon="11.8272067"><ele>248.0</ele><time>2026-04-03T12:03:39.067Z</time></trkpt><trkpt lat="43.1965267" lon="11.8274517"><ele>247.66666666666669</ele><time>2026-04-03T12:03:40.067Z</time></trkpt><trkpt lat="43.196615" lon="11.8276967"><ele>247.33333333333331</ele><time>2026-04-03T12:03:41.067Z</time></trkpt><trkpt lat="43.1967033" lon="11.8279483"><ele>247.0</ele><time>2026-04-03T12:03:42.067Z</time></trkpt><trkpt lat="43.1968" lon="11.8281967"><ele>247.0</ele><time>2026-04-03T12:03:43.068Z</time></trkpt><trkpt lat="43.1968883" lon="11.8284233"><ele>247.0</ele><time>2026-04-03T12:03:44.067Z</time></trkpt><trkpt lat="43.1969667" lon="11.8286417"><ele>247.0</ele><time>2026-04-03T12:03:45.067Z</time></trkpt><trkpt lat="43.1970317" lon="11.8288517"><ele>247.33333333333331</ele><time>2026-04-03T12:03:46.067Z</time></trkpt><trkpt lat="43.19711" lon="11.82906"><ele>247.66666666666669</ele><time>2026-04-03T12:03:47.068Z</time></trkpt><trkpt lat="43.1971733" lon="11.829265"><ele>248.0</ele><time>2026-04-03T12:03:48.067Z</time></trkpt><trkpt lat="43.1972283" lon="11.82947"><ele>248.0</ele><time>2026-04-03T12:03:49.068Z</time></trkpt><trkpt lat="43.197285" lon="11.8296867"><ele>248.0</ele><time>2026-04-03T12:03:50.067Z</time></trkpt><trkpt lat="43.1973583" lon="11.8299033"><ele>248.0</ele><time>2026-04-03T12:03:51.067Z</time></trkpt><trkpt lat="43.19744" lon="11.830115"><ele>247.66666666666669</ele><time>2026-04-03T12:03:52.067Z</time></trkpt><trkpt lat="43.197525" lon="11.8303283"><ele>247.33333333333331</ele><time>2026-04-03T12:03:53.068Z</time></trkpt><trkpt lat="43.1976017" lon="11.830555"><ele>247.0</ele><time>2026-04-03T12:03:54.067Z</time></trkpt><trkpt lat="43.197665" lon="11.8307833"><ele>247.0</ele><time>2026-04-03T12:03:55.067Z</time></trkpt><trkpt lat="43.1977383" lon="11.8310233"><ele>247.0</ele><time>2026-04-03T12:03:56.067Z</time></trkpt><trkpt lat="43.197815" lon="11.8312667"><ele>247.0</ele><time>2026-04-03T12:03:57.067Z</time></trkpt><trkpt lat="43.197885" lon="11.8315083"><ele>247.0</ele><time>2026-04-03T12:03:58.067Z</time></trkpt><trkpt lat="43.1979617" lon="11.83175"><ele>247.0</ele><time>2026-04-03T12:03:59.067Z</time></trkpt><trkpt lat="43.198035" lon="11.831995"><ele>247.0</ele><time>2026-04-03T12:04:00.068Z</time></trkpt><trkpt lat="43.1981083" lon="11.8322283"><ele>247.0</ele><time>2026-04-03T12:04:01.068Z</time></trkpt><trkpt lat="43.1981767" lon="11.832445"><ele>247.0</ele><time>2026-04-03T12:04:02.068Z</time></trkpt><trkpt lat="43.1982367" lon="11.83265"><ele>247.0</ele><time>2026-04-03T12:04:03.067Z</time></trkpt><trkpt lat="43.1983017" lon="11.8328567"><ele>246.66666666666666</ele><time>2026-04-03T12:04:04.068Z</time></trkpt><trkpt lat="43.1983617" lon="11.833065"><ele>246.33333333333331</ele><time>2026-04-03T12:04:05.068Z</time></trkpt><trkpt lat="43.198435" lon="11.83327"><ele>246.0</ele><time>2026-04-03T12:04:06.067Z</time></trkpt><trkpt lat="43.1985167" lon="11.8334783"><ele>246.0</ele><time>2026-04-03T12:04:07.067Z</time></trkpt><trkpt lat="43.1985867" lon="11.833695"><ele>246.0</ele><time>2026-04-03T12:04:08.067Z</time></trkpt><trkpt lat="43.1986567" lon="11.83391"><ele>246.0</ele><time>2026-04-03T12:04:09.067Z</time></trkpt><trkpt lat="43.1987167" lon="11.8341267"><ele>246.33333333333331</ele><time>2026-04-03T12:04:10.068Z</time></trkpt><trkpt lat="43.1987783" lon="11.8343467"><ele>246.66666666666666</ele><time>2026-04-03T12:04:11.067Z</time></trkpt><trkpt lat="43.1988367" lon="11.8345433"><ele>247.0</ele><time>2026-04-03T12:04:12.067Z</time></trkpt><trkpt lat="43.1988867" lon="11.834745"><ele>247.0</ele><time>2026-04-03T12:04:13.067Z</time></trkpt><trkpt lat="43.1989383" lon="11.8349467"><ele>247.0</ele><time>2026-04-03T12:04:14.068Z</time></trkpt><trkpt lat="43.1990033" lon="11.8351333"><ele>247.0</ele><time>2026-04-03T12:04:15.067Z</time></trkpt><trkpt lat="43.1990617" lon="11.835315"><ele>247.39999999999998</ele><time>2026-04-03T12:04:16.067Z</time></trkpt><trkpt lat="43.19911" lon="11.8354783"><ele>247.79999999999998</ele><time>2026-04-03T12:04:17.067Z</time></trkpt><trkpt lat="43.1991433" lon="11.835625"><ele>248.2</ele><time>2026-04-03T12:04:18.066Z</time></trkpt><trkpt lat="43.1991683" lon="11.83573"><ele>248.6</ele><time>2026-04-03T12:04:19.066Z</time></trkpt><trkpt lat="43.1992017" lon="11.83581"><ele>249.0</ele><time>2026-04-03T12:04:20.066Z</time></trkpt><trkpt lat="43.19931" lon="11.83581"><ele>249.0</ele><time>2026-04-03T12:04:22.066Z</time></trkpt><trkpt lat="43.19939" lon="11.8357683"><ele>248.99999999999997</ele><time>2026-04-03T12:04:23.066Z</time></trkpt><trkpt lat="43.199485" lon="11.8357133"><ele>248.99999999999997</ele><time>2026-04-03T12:04:24.067Z</time></trkpt><trkpt lat="43.1995917" lon="11.8356567"><ele>249.0</ele><time>2026-04-03T12:04:25.066Z</time></trkpt><trkpt lat="43.1997017" lon="11.8356033"><ele>249.0</ele><time>2026-04-03T12:04:26.067Z</time></trkpt><trkpt lat="43.1998167" lon="11.835545"><ele>248.5</ele><time>2026-04-03T12:04:27.067Z</time></trkpt><trkpt lat="43.1999433" lon="11.8354833"><ele>248.0</ele><time>2026-04-03T12:04:28.066Z</time></trkpt><trkpt lat="43.20008" lon="11.835415"><ele>247.5</ele><time>2026-04-03T12:04:29.066Z</time></trkpt><trkpt lat="43.20022" lon="11.83535"><ele>247.0</ele><time>2026-04-03T12:04:30.066Z</time></trkpt><trkpt lat="43.2003717" lon="11.8352733"><ele>247.0</ele><time>2026-04-03T12:04:31.067Z</time></trkpt><trkpt lat="43.2005333" lon="11.835195"><ele>247.0</ele><time>2026-04-03T12:04:32.066Z</time></trkpt><trkpt lat="43.2007033" lon="11.8351183"><ele>247.0</ele><time>2026-04-03T12:04:33.066Z</time></trkpt><trkpt lat="43.2008717" lon="11.83503"><ele>247.66666666666666</ele><time>2026-04-03T12:04:34.066Z</time></trkpt><trkpt lat="43.2010517" lon="11.83494"><ele>248.33333333333331</ele><time>2026-04-03T12:04:35.066Z</time></trkpt><trkpt lat="43.2012283" lon="11.83485"><ele>249.0</ele><time>2026-04-03T12:04:36.066Z</time></trkpt><trkpt lat="43.2013983" lon="11.8347633"><ele>248.33333333333331</ele><time>2026-04-03T12:04:37.066Z</time></trkpt><trkpt lat="43.2015633" lon="11.8346667"><ele>247.66666666666666</ele><time>2026-04-03T12:04:38.066Z</time></trkpt><trkpt lat="43.2017383" lon="11.83458"><ele>247.0</ele><time>2026-04-03T12:04:39.066Z</time></trkpt><trkpt lat="43.2019117" lon="11.8344917"><ele>247.0</ele><time>2026-04-03T12:04:40.067Z</time></trkpt><trkpt lat="43.2020983" lon="11.8343983"><ele>247.0</ele><time>2026-04-03T12:04:41.066Z</time></trkpt><trkpt lat="43.20227" lon="11.834305"><ele>247.0</ele><time>2026-04-03T12:04:42.066Z</time></trkpt><trkpt lat="43.202455" lon="11.834215"><ele>247.33333333333331</ele><time>2026-04-03T12:04:43.066Z</time></trkpt><trkpt lat="43.2026317" lon="11.8341233"><ele>247.66666666666669</ele><time>2026-04-03T12:04:44.066Z</time></trkpt><trkpt lat="43.2028017" lon="11.8340467"><ele>248.0</ele><time>2026-04-03T12:04:45.067Z</time></trkpt><trkpt lat="43.20298" lon="11.8339583"><ele>248.0</ele><time>2026-04-03T12:04:46.067Z</time></trkpt><trkpt lat="43.2031517" lon="11.83387"><ele>248.0</ele><time>2026-04-03T12:04:47.067Z</time></trkpt><trkpt lat="43.2033217" lon="11.8337783"><ele>248.0</ele><time>2026-04-03T12:04:48.066Z</time></trkpt><trkpt lat="43.2034917" lon="11.8336967"><ele>247.66666666666669</ele><time>2026-04-03T12:04:49.067Z</time></trkpt><trkpt lat="43.2036667" lon="11.8336183"><ele>247.33333333333331</ele><time>2026-04-03T12:04:50.066Z</time></trkpt><trkpt lat="43.2038367" lon="11.8335367"><ele>247.0</ele><time>2026-04-03T12:04:51.066Z</time></trkpt><trkpt lat="43.204015" lon="11.8334567"><ele>246.66666666666666</ele><time>2026-04-03T12:04:52.067Z</time></trkpt><trkpt lat="43.20418" lon="11.8333733"><ele>246.33333333333331</ele><time>2026-04-03T12:04:53.067Z</time></trkpt><trkpt lat="43.2043583" lon="11.8332917"><ele>246.0</ele><time>2026-04-03T12:04:54.066Z</time></trkpt><trkpt lat="43.2045217" lon="11.83321"><ele>246.0</ele><time>2026-04-03T12:04:55.067Z</time></trkpt><trkpt lat="43.2046833" lon="11.833125"><ele>246.0</ele><time>2026-04-03T12:04:56.067Z</time></trkpt><trkpt lat="43.204855" lon="11.833035"><ele>246.0</ele><time>2026-04-03T12:04:57.066Z</time></trkpt><trkpt lat="43.2050233" lon="11.8329483"><ele>246.0</ele><time>2026-04-03T12:04:58.066Z</time></trkpt><trkpt lat="43.20519" lon="11.83287"><ele>246.0</ele><time>2026-04-03T12:04:59.066Z</time></trkpt><trkpt lat="43.20535" lon="11.8327833"><ele>246.0</ele><time>2026-04-03T12:05:00.066Z</time></trkpt><trkpt lat="43.2055" lon="11.8326967"><ele>246.66666666666669</ele><time>2026-04-03T12:05:01.066Z</time></trkpt><trkpt lat="43.2056517" lon="11.8326083"><ele>247.33333333333334</ele><time>2026-04-03T12:05:02.066Z</time></trkpt><trkpt lat="43.20581" lon="11.8325283"><ele>248.0</ele><time>2026-04-03T12:05:03.066Z</time></trkpt><trkpt lat="43.2059683" lon="11.83244"><ele>248.0</ele><time>2026-04-03T12:05:04.066Z</time></trkpt><trkpt lat="43.2061233" lon="11.8323567"><ele>248.0</ele><time>2026-04-03T12:05:05.066Z</time></trkpt><trkpt lat="43.2062867" lon="11.83228"><ele>248.0</ele><time>2026-04-03T12:05:06.067Z</time></trkpt><trkpt lat="43.2064533" lon="11.8321933"><ele>247.33333333333334</ele><time>2026-04-03T12:05:07.066Z</time></trkpt><trkpt lat="43.2066117" lon="11.8321067"><ele>246.66666666666669</ele><time>2026-04-03T12:05:08.067Z</time></trkpt><trkpt lat="43.2067683" lon="11.8320217"><ele>246.0</ele><time>2026-04-03T12:05:09.067Z</time></trkpt><trkpt lat="43.2069267" lon="11.831935"><ele>246.0</ele><time>2026-04-03T12:05:10.066Z</time></trkpt><trkpt lat="43.207095" lon="11.8318533"><ele>246.0</ele><time>2026-04-03T12:05:11.066Z</time></trkpt><trkpt lat="43.2072517" lon="11.8317717"><ele>246.0</ele><time>2026-04-03T12:05:12.066Z</time></trkpt><trkpt lat="43.2074117" lon="11.8316917"><ele>246.33333333333331</ele><time>2026-04-03T12:05:13.066Z</time></trkpt><trkpt lat="43.2075683" lon="11.8316183"><ele>246.66666666666666</ele><time>2026-04-03T12:05:14.067Z</time></trkpt><trkpt lat="43.20773" lon="11.8315567"><ele>247.0</ele><time>2026-04-03T12:05:15.066Z</time></trkpt><trkpt lat="43.2078867" lon="11.8314883"><ele>247.0</ele><time>2026-04-03T12:05:16.066Z</time></trkpt><trkpt lat="43.2080283" lon="11.8314333"><ele>247.0</ele><time>2026-04-03T12:05:17.067Z</time></trkpt><trkpt lat="43.20815" lon="11.8313717"><ele>247.0</ele><time>2026-04-03T12:05:18.066Z</time></trkpt><trkpt lat="43.2082667" lon="11.8313217"><ele>247.0</ele><time>2026-04-03T12:05:19.067Z</time></trkpt><trkpt lat="43.2083883" lon="11.8312633"><ele>247.0</ele><time>2026-04-03T12:05:20.067Z</time></trkpt><trkpt lat="43.2085033" lon="11.8312267"><ele>247.0</ele><time>2026-04-03T12:05:21.067Z</time></trkpt><trkpt lat="43.20862" lon="11.8311867"><ele>247.0</ele><time>2026-04-03T12:05:22.067Z</time></trkpt><trkpt lat="43.2087383" lon="11.8311367"><ele>247.0</ele><time>2026-04-03T12:05:23.066Z</time></trkpt><trkpt lat="43.208855" lon="11.8311017"><ele>247.0</ele><time>2026-04-03T12:05:24.066Z</time></trkpt><trkpt lat="43.2089617" lon="11.8310617"><ele>247.0</ele><time>2026-04-03T12:05:25.066Z</time></trkpt><trkpt lat="43.20905" lon="11.8310367"><ele>247.0</ele><time>2026-04-03T12:05:26.067Z</time></trkpt><trkpt lat="43.20912" lon="11.8310167"><ele>247.0</ele><time>2026-04-03T12:05:27.066Z</time></trkpt><trkpt lat="43.2092417" lon="11.83097"><ele>247.0</ele><time>2026-04-03T12:05:29.067Z</time></trkpt><trkpt lat="43.20931" lon="11.8309483"><ele>247.0</ele><time>2026-04-03T12:05:30.066Z</time></trkpt><trkpt lat="43.2093967" lon="11.83093"><ele>247.0</ele><time>2026-04-03T12:05:31.066Z</time></trkpt><trkpt lat="43.2094867" lon="11.83091"><ele>247.0</ele><time>2026-04-03T12:05:32.066Z</time></trkpt><trkpt lat="43.2095917" lon="11.8308883"><ele>247.0</ele><time>2026-04-03T12:05:33.066Z</time></trkpt><trkpt lat="43.2097133" lon="11.8308633"><ele>247.0</ele><time>2026-04-03T12:05:34.066Z</time></trkpt><trkpt lat="43.20984" lon="11.8308317"><ele>247.0</ele><time>2026-04-03T12:05:35.067Z</time></trkpt><trkpt lat="43.2099717" lon="11.830795"><ele>247.0</ele><time>2026-04-03T12:05:36.066Z</time></trkpt><trkpt lat="43.2101083" lon="11.83075"><ele>247.0</ele><time>2026-04-03T12:05:37.066Z</time></trkpt><trkpt lat="43.2102383" lon="11.8307067"><ele>247.0</ele><time>2026-04-03T12:05:38.066Z</time></trkpt><trkpt lat="43.2103767" lon="11.8306583"><ele>247.0</ele><time>2026-04-03T12:05:39.066Z</time></trkpt><trkpt lat="43.2105233" lon="11.8306017"><ele>247.0</ele><time>2026-04-03T12:05:40.066Z</time></trkpt><trkpt lat="43.2106667" lon="11.83055"><ele>247.0</ele><time>2026-04-03T12:05:41.066Z</time></trkpt><trkpt lat="43.210815" lon="11.8305033"><ele>247.0</ele><time>2026-04-03T12:05:42.066Z</time></trkpt><trkpt lat="43.2109567" lon="11.83046"><ele>247.0</ele><time>2026-04-03T12:05:43.066Z</time></trkpt><trkpt lat="43.211105" lon="11.8304183"><ele>247.0</ele><time>2026-04-03T12:05:44.066Z</time></trkpt><trkpt lat="43.2112483" lon="11.8303733"><ele>247.0</ele><time>2026-04-03T12:05:45.067Z</time></trkpt><trkpt lat="43.2113583" lon="11.830305"><ele>247.0</ele><time>2026-04-03T12:05:46.066Z</time></trkpt><trkpt lat="43.211505" lon="11.8302767"><ele>247.0</ele><time>2026-04-03T12:05:47.066Z</time></trkpt><trkpt lat="43.21165" lon="11.8302383"><ele>247.0</ele><time>2026-04-03T12:05:48.066Z</time></trkpt><trkpt lat="43.2117917" lon="11.830205"><ele>247.0</ele><time>2026-04-03T12:05:49.066Z</time></trkpt><trkpt lat="43.21193" lon="11.8301617"><ele>247.25</ele><time>2026-04-03T12:05:50.067Z</time></trkpt><trkpt lat="43.21207" lon="11.8301133"><ele>247.5</ele><time>2026-04-03T12:05:51.066Z</time></trkpt><trkpt lat="43.212215" lon="11.8300483"><ele>247.75</ele><time>2026-04-03T12:05:52.066Z</time></trkpt><trkpt lat="43.2123533" lon="11.8299983"><ele>248.0</ele><time>2026-04-03T12:05:53.066Z</time></trkpt><trkpt lat="43.2124767" lon="11.82995"><ele>248.0</ele><time>2026-04-03T12:05:54.066Z</time></trkpt><trkpt lat="43.2125833" lon="11.8299167"><ele>248.0</ele><time>2026-04-03T12:05:55.066Z</time></trkpt><trkpt lat="43.21267" lon="11.82989"><ele>248.0</ele><time>2026-04-03T12:05:56.066Z</time></trkpt><trkpt lat="43.2127333" lon="11.829875"><ele>248.0</ele><time>2026-04-03T12:05:57.066Z</time></trkpt><trkpt lat="43.2128667" lon="11.829835"><ele>248.0</ele><time>2026-04-03T12:05:59.066Z</time></trkpt><trkpt lat="43.21297" lon="11.82981"><ele>248.0</ele><time>2026-04-03T12:06:00.066Z</time></trkpt><trkpt lat="43.2130883" lon="11.8297867"><ele>248.0</ele><time>2026-04-03T12:06:01.066Z</time></trkpt><trkpt lat="43.21321" lon="11.829765"><ele>248.0</ele><time>2026-04-03T12:06:02.066Z</time></trkpt><trkpt lat="43.2133417" lon="11.8297383"><ele>248.0</ele><time>2026-04-03T12:06:03.066Z</time></trkpt><trkpt lat="43.21348" lon="11.8296983"><ele>247.66666666666669</ele><time>2026-04-03T12:06:04.066Z</time></trkpt><trkpt lat="43.2136267" lon="11.82966"><ele>247.33333333333331</ele><time>2026-04-03T12:06:05.066Z</time></trkpt><trkpt lat="43.213775" lon="11.8296183"><ele>247.0</ele><time>2026-04-03T12:06:06.066Z</time></trkpt><trkpt lat="43.21392" lon="11.8295717"><ele>247.25</ele><time>2026-04-03T12:06:07.066Z</time></trkpt><trkpt lat="43.2140683" lon="11.8295217"><ele>247.5</ele><time>2026-04-03T12:06:08.067Z</time></trkpt><trkpt lat="43.2142117" lon="11.8294733"><ele>247.75</ele><time>2026-04-03T12:06:09.066Z</time></trkpt><trkpt lat="43.2143567" lon="11.82943"><ele>248.0</ele><time>2026-04-03T12:06:10.067Z</time></trkpt><trkpt lat="43.2144983" lon="11.8293933"><ele>248.0</ele><time>2026-04-03T12:06:11.066Z</time></trkpt><trkpt lat="43.2146567" lon="11.8293533"><ele>248.0</ele><time>2026-04-03T12:06:12.066Z</time></trkpt><trkpt lat="43.2148" lon="11.8293117"><ele>248.0</ele><time>2026-04-03T12:06:13.067Z</time></trkpt><trkpt lat="43.214955" lon="11.82928"><ele>248.0</ele><time>2026-04-03T12:06:14.067Z</time></trkpt><trkpt lat="43.2150967" lon="11.8292417"><ele>248.0</ele><time>2026-04-03T12:06:15.066Z</time></trkpt><trkpt lat="43.2152433" lon="11.829205"><ele>248.0</ele><time>2026-04-03T12:06:16.067Z</time></trkpt><trkpt lat="43.2153917" lon="11.82916"><ele>248.0</ele><time>2026-04-03T12:06:17.066Z</time></trkpt><trkpt lat="43.21554" lon="11.82912"><ele>247.66666666666669</ele><time>2026-04-03T12:06:18.066Z</time></trkpt><trkpt lat="43.2156917" lon="11.82908"><ele>247.33333333333331</ele><time>2026-04-03T12:06:19.066Z</time></trkpt><trkpt lat="43.21584" lon="11.8290467"><ele>247.0</ele><time>2026-04-03T12:06:20.066Z</time></trkpt><trkpt lat="43.215995" lon="11.829005"><ele>247.0</ele><time>2026-04-03T12:06:21.066Z</time></trkpt><trkpt lat="43.2161367" lon="11.828955"><ele>247.0</ele><time>2026-04-03T12:06:22.067Z</time></trkpt><trkpt lat="43.216285" lon="11.82891"><ele>247.0</ele><time>2026-04-03T12:06:23.066Z</time></trkpt><trkpt lat="43.2164333" lon="11.8288617"><ele>247.25</ele><time>2026-04-03T12:06:24.067Z</time></trkpt><trkpt lat="43.216575" lon="11.8288217"><ele>247.5</ele><time>2026-04-03T12:06:25.066Z</time></trkpt><trkpt lat="43.21672" lon="11.8287633"><ele>247.75</ele><time>2026-04-03T12:06:26.067Z</time></trkpt><trkpt lat="43.216865" lon="11.8287267"><ele>248.0</ele><time>2026-04-03T12:06:27.066Z</time></trkpt><trkpt lat="43.217015" lon="11.8286867"><ele>248.0</ele><time>2026-04-03T12:06:28.067Z</time></trkpt><trkpt lat="43.21716" lon="11.8286433"><ele>248.0</ele><time>2026-04-03T12:06:29.066Z</time></trkpt><trkpt lat="43.2173117" lon="11.8285933"><ele>248.0</ele><time>2026-04-03T12:06:30.066Z</time></trkpt><trkpt lat="43.21745" lon="11.8285467"><ele>248.0</ele><time>2026-04-03T12:06:31.067Z</time></trkpt><trkpt lat="43.2176017" lon="11.8285033"><ele>247.66666666666669</ele><time>2026-04-03T12:06:32.067Z</time></trkpt><trkpt lat="43.2177483" lon="11.8284583"><ele>247.33333333333331</ele><time>2026-04-03T12:06:33.066Z</time></trkpt><trkpt lat="43.2179033" lon="11.82842"><ele>247.0</ele><time>2026-04-03T12:06:34.067Z</time></trkpt><trkpt lat="43.2180583" lon="11.8283733"><ele>246.66666666666666</ele><time>2026-04-03T12:06:35.066Z</time></trkpt><trkpt lat="43.2182167" lon="11.8283267"><ele>246.33333333333331</ele><time>2026-04-03T12:06:36.067Z</time></trkpt><trkpt lat="43.2183683" lon="11.8282833"><ele>246.0</ele><time>2026-04-03T12:06:37.066Z</time></trkpt><trkpt lat="43.2185167" lon="11.8282433"><ele>246.0</ele><time>2026-04-03T12:06:38.066Z</time></trkpt><trkpt lat="43.2186617" lon="11.8281983"><ele>246.0</ele><time>2026-04-03T12:06:39.067Z</time></trkpt><trkpt lat="43.2188083" lon="11.8281517"><ele>246.0</ele><time>2026-04-03T12:06:40.066Z</time></trkpt><trkpt lat="43.2189567" lon="11.8281017"><ele>245.66666666666669</ele><time>2026-04-03T12:06:41.066Z</time></trkpt><trkpt lat="43.2191033" lon="11.82806"><ele>245.33333333333334</ele><time>2026-04-03T12:06:42.066Z</time></trkpt><trkpt lat="43.2192517" lon="11.8280133"><ele>245.0</ele><time>2026-04-03T12:06:43.067Z</time></trkpt><trkpt lat="43.219405" lon="11.827975"><ele>245.0</ele><time>2026-04-03T12:06:44.066Z</time></trkpt><trkpt lat="43.21956" lon="11.827935"><ele>245.0</ele><time>2026-04-03T12:06:45.066Z</time></trkpt><trkpt lat="43.21971" lon="11.8278967"><ele>245.0</ele><time>2026-04-03T12:06:46.067Z</time></trkpt><trkpt lat="43.2198633" lon="11.8278533"><ele>245.33333333333334</ele><time>2026-04-03T12:06:47.066Z</time></trkpt><trkpt lat="43.2200167" lon="11.8278067"><ele>245.66666666666669</ele><time>2026-04-03T12:06:48.066Z</time></trkpt><trkpt lat="43.2201617" lon="11.82776"><ele>246.0</ele><time>2026-04-03T12:06:49.066Z</time></trkpt><trkpt lat="43.2203167" lon="11.827715"><ele>246.0</ele><time>2026-04-03T12:06:50.066Z</time></trkpt><trkpt lat="43.2204717" lon="11.82768"><ele>246.0</ele><time>2026-04-03T12:06:51.066Z</time></trkpt><trkpt lat="43.220625" lon="11.82764"><ele>246.0</ele><time>2026-04-03T12:06:52.067Z</time></trkpt><trkpt lat="43.22078" lon="11.8275867"><ele>246.33333333333331</ele><time>2026-04-03T12:06:53.066Z</time></trkpt><trkpt lat="43.2209417" lon="11.8275317"><ele>246.66666666666666</ele><time>2026-04-03T12:06:54.066Z</time></trkpt><trkpt lat="43.2210917" lon="11.827465"><ele>247.0</ele><time>2026-04-03T12:06:55.067Z</time></trkpt><trkpt lat="43.2212367" lon="11.827415"><ele>247.0</ele><time>2026-04-03T12:06:56.067Z</time></trkpt><trkpt lat="43.22137" lon="11.8273633"><ele>247.0</ele><time>2026-04-03T12:06:57.066Z</time></trkpt><trkpt lat="43.2214817" lon="11.82732"><ele>247.0</ele><time>2026-04-03T12:06:58.066Z</time></trkpt><trkpt lat="43.221575" lon="11.8272933"><ele>247.0</ele><time>2026-04-03T12:06:59.066Z</time></trkpt><trkpt lat="43.22167" lon="11.8272717"><ele>247.0</ele><time>2026-04-03T12:07:00.066Z</time></trkpt><trkpt lat="43.2217683" lon="11.8272433"><ele>246.75</ele><time>2026-04-03T12:07:01.066Z</time></trkpt><trkpt lat="43.221875" lon="11.8272067"><ele>246.5</ele><time>2026-04-03T12:07:02.067Z</time></trkpt><trkpt lat="43.2219833" lon="11.8271783"><ele>246.25</ele><time>2026-04-03T12:07:03.067Z</time></trkpt><trkpt lat="43.222095" lon="11.827155"><ele>246.0</ele><time>2026-04-03T12:07:04.067Z</time></trkpt><trkpt lat="43.222215" lon="11.82713"><ele>246.0</ele><time>2026-04-03T12:07:05.067Z</time></trkpt><trkpt lat="43.2223433" lon="11.8271033"><ele>246.0</ele><time>2026-04-03T12:07:06.067Z</time></trkpt><trkpt lat="43.2224817" lon="11.8270667"><ele>246.0</ele><time>2026-04-03T12:07:07.066Z</time></trkpt><trkpt lat="43.2226283" lon="11.8270417"><ele>246.0</ele><time>2026-04-03T12:07:08.066Z</time></trkpt><trkpt lat="43.2227733" lon="11.82701"><ele>246.0</ele><time>2026-04-03T12:07:09.066Z</time></trkpt><trkpt lat="43.2229" lon="11.8269883"><ele>246.00000000000003</ele><time>2026-04-03T12:07:10.067Z</time></trkpt><trkpt lat="43.2230117" lon="11.8269633"><ele>246.00000000000003</ele><time>2026-04-03T12:07:11.067Z</time></trkpt><trkpt lat="43.2231183" lon="11.8269367"><ele>246.0</ele><time>2026-04-03T12:07:12.067Z</time></trkpt><trkpt lat="43.22321" lon="11.8269133"><ele>246.0</ele><time>2026-04-03T12:07:13.066Z</time></trkpt><trkpt lat="43.2232967" lon="11.8269083"><ele>246.4</ele><time>2026-04-03T12:07:14.066Z</time></trkpt><trkpt lat="43.223395" lon="11.8269167"><ele>246.8</ele><time>2026-04-03T12:07:15.066Z</time></trkpt><trkpt lat="43.2234917" lon="11.8269217"><ele>247.20000000000002</ele><time>2026-04-03T12:07:16.066Z</time></trkpt><trkpt lat="43.2236" lon="11.826905"><ele>247.60000000000002</ele><time>2026-04-03T12:07:17.067Z</time></trkpt><trkpt lat="43.223705" lon="11.8269033"><ele>248.0</ele><time>2026-04-03T12:07:18.067Z</time></trkpt><trkpt lat="43.22384" lon="11.8269117"><ele>248.0</ele><time>2026-04-03T12:07:19.066Z</time></trkpt><trkpt lat="43.2239633" lon="11.8269083"><ele>248.0</ele><time>2026-04-03T12:07:20.066Z</time></trkpt><trkpt lat="43.2240917" lon="11.826905"><ele>248.0</ele><time>2026-04-03T12:07:21.067Z</time></trkpt><trkpt lat="43.2242267" lon="11.8269083"><ele>248.0</ele><time>2026-04-03T12:07:22.067Z</time></trkpt><trkpt lat="43.2243583" lon="11.82692"><ele>247.5</ele><time>2026-04-03T12:07:23.066Z</time></trkpt><trkpt lat="43.2244933" lon="11.8269283"><ele>247.0</ele><time>2026-04-03T12:07:24.067Z</time></trkpt><trkpt lat="43.224635" lon="11.8269417"><ele>246.5</ele><time>2026-04-03T12:07:25.067Z</time></trkpt><trkpt lat="43.224785" lon="11.82695"><ele>246.0</ele><time>2026-04-03T12:07:26.066Z</time></trkpt><trkpt lat="43.2249283" lon="11.8269733"><ele>246.0</ele><time>2026-04-03T12:07:27.066Z</time></trkpt><trkpt lat="43.2250633" lon="11.827"><ele>246.0</ele><time>2026-04-03T12:07:28.067Z</time></trkpt><trkpt lat="43.2252083" lon="11.8270267"><ele>246.0</ele><time>2026-04-03T12:07:29.067Z</time></trkpt><trkpt lat="43.2253583" lon="11.8270517"><ele>246.0</ele><time>2026-04-03T12:07:30.066Z</time></trkpt><trkpt lat="43.2255033" lon="11.82707"><ele>246.0</ele><time>2026-04-03T12:07:31.066Z</time></trkpt><trkpt lat="43.2256383" lon="11.8271017"><ele>246.0</ele><time>2026-04-03T12:07:32.066Z</time></trkpt><trkpt lat="43.2257767" lon="11.8271333"><ele>246.0</ele><time>2026-04-03T12:07:33.066Z</time></trkpt><trkpt lat="43.2259033" lon="11.8271483"><ele>246.0</ele><time>2026-04-03T12:07:34.066Z</time></trkpt><trkpt lat="43.226015" lon="11.82717"><ele>246.0</ele><time>2026-04-03T12:07:35.066Z</time></trkpt><trkpt lat="43.2261183" lon="11.8271967"><ele>246.00000000000003</ele><time>2026-04-03T12:07:36.066Z</time></trkpt><trkpt lat="43.2262217" lon="11.82722"><ele>246.00000000000003</ele><time>2026-04-03T12:07:37.066Z</time></trkpt><trkpt lat="43.2263017" lon="11.8272417"><ele>246.0</ele><time>2026-04-03T12:07:38.066Z</time></trkpt><trkpt lat="43.2263967" lon="11.8272533"><ele>246.0</ele><time>2026-04-03T12:07:39.066Z</time></trkpt><trkpt lat="43.226495" lon="11.827275"><ele>246.0</ele><time>2026-04-03T12:07:40.066Z</time></trkpt><trkpt lat="43.226565" lon="11.8273167"><ele>246.00000000000003</ele><time>2026-04-03T12:07:41.066Z</time></trkpt><trkpt lat="43.2266183" lon="11.827365"><ele>246.00000000000003</ele><time>2026-04-03T12:07:42.066Z</time></trkpt><trkpt lat="43.2266667" lon="11.82752"><ele>246.0</ele><time>2026-04-03T12:07:44.067Z</time></trkpt><trkpt lat="43.2267033" lon="11.82765"><ele>246.0</ele><time>2026-04-03T12:07:46.066Z</time></trkpt><trkpt lat="43.226785" lon="11.8277"><ele>246.0</ele><time>2026-04-03T12:07:48.066Z</time></trkpt><trkpt lat="43.2269233" lon="11.82765"><ele>246.0</ele><time>2026-04-03T12:07:50.066Z</time></trkpt><trkpt lat="43.2270183" lon="11.827615"><ele>246.0</ele><time>2026-04-03T12:07:51.066Z</time></trkpt><trkpt lat="43.2271283" lon="11.827605"><ele>246.0</ele><time>2026-04-03T12:07:52.066Z</time></trkpt><trkpt lat="43.2272433" lon="11.82761"><ele>246.25</ele><time>2026-04-03T12:07:53.066Z</time></trkpt><trkpt lat="43.2273767" lon="11.8276167"><ele>246.5</ele><time>2026-04-03T12:07:54.067Z</time></trkpt><trkpt lat="43.2275217" lon="11.82765"><ele>246.75</ele><time>2026-04-03T12:07:55.066Z</time></trkpt><trkpt lat="43.227665" lon="11.8277033"><ele>247.0</ele><time>2026-04-03T12:07:56.067Z</time></trkpt><trkpt lat="43.2278017" lon="11.827755"><ele>247.0</ele><time>2026-04-03T12:07:57.067Z</time></trkpt><trkpt lat="43.22794" lon="11.8277917"><ele>247.0</ele><time>2026-04-03T12:07:58.066Z</time></trkpt><trkpt lat="43.2280867" lon="11.8278483"><ele>247.0</ele><time>2026-04-03T12:07:59.067Z</time></trkpt><trkpt lat="43.2282217" lon="11.8279033"><ele>247.0</ele><time>2026-04-03T12:08:00.066Z</time></trkpt><trkpt lat="43.22837" lon="11.827935"><ele>246.75</ele><time>2026-04-03T12:08:01.066Z</time></trkpt><trkpt lat="43.22852" lon="11.82798"><ele>246.5</ele><time>2026-04-03T12:08:02.066Z</time></trkpt><trkpt lat="43.2286533" lon="11.8280333"><ele>246.25</ele><time>2026-04-03T12:08:03.067Z</time></trkpt><trkpt lat="43.2288" lon="11.8280917"><ele>246.0</ele><time>2026-04-03T12:08:04.066Z</time></trkpt><trkpt lat="43.2289417" lon="11.8281367"><ele>246.25</ele><time>2026-04-03T12:08:05.066Z</time></trkpt><trkpt lat="43.229075" lon="11.8281783"><ele>246.5</ele><time>2026-04-03T12:08:06.066Z</time></trkpt><trkpt lat="43.2292217" lon="11.8282217"><ele>246.75</ele><time>2026-04-03T12:08:07.066Z</time></trkpt><trkpt lat="43.22935" lon="11.8282733"><ele>247.0</ele><time>2026-04-03T12:08:08.066Z</time></trkpt><trkpt lat="43.22949" lon="11.82832"><ele>247.0</ele><time>2026-04-03T12:08:09.066Z</time></trkpt><trkpt lat="43.2296367" lon="11.82836"><ele>247.0</ele><time>2026-04-03T12:08:10.066Z</time></trkpt><trkpt lat="43.2297767" lon="11.828405"><ele>247.0</ele><time>2026-04-03T12:08:11.066Z</time></trkpt><trkpt lat="43.2299217" lon="11.828455"><ele>247.0</ele><time>2026-04-03T12:08:12.067Z</time></trkpt><trkpt lat="43.2300567" lon="11.8284767"><ele>247.0</ele><time>2026-04-03T12:08:13.066Z</time></trkpt><trkpt lat="43.2301817" lon="11.8284933"><ele>247.0</ele><time>2026-04-03T12:08:14.067Z</time></trkpt><trkpt lat="43.2302867" lon="11.82851"><ele>247.0</ele><time>2026-04-03T12:08:15.067Z</time></trkpt><trkpt lat="43.2303883" lon="11.8285517"><ele>247.0</ele><time>2026-04-03T12:08:16.066Z</time></trkpt><trkpt lat="43.2304983" lon="11.8286067"><ele>247.0</ele><time>2026-04-03T12:08:17.066Z</time></trkpt><trkpt lat="43.23062" lon="11.8286733"><ele>247.0</ele><time>2026-04-03T12:08:18.066Z</time></trkpt><trkpt lat="43.23075" lon="11.828745"><ele>247.0</ele><time>2026-04-03T12:08:19.066Z</time></trkpt><trkpt lat="43.2308983" lon="11.8288067"><ele>247.0</ele><time>2026-04-03T12:08:20.066Z</time></trkpt><trkpt lat="43.2310367" lon="11.828865"><ele>246.66666666666666</ele><time>2026-04-03T12:08:21.066Z</time></trkpt><trkpt lat="43.2311767" lon="11.828925"><ele>246.33333333333331</ele><time>2026-04-03T12:08:22.066Z</time></trkpt><trkpt lat="43.2313233" lon="11.8289767"><ele>246.0</ele><time>2026-04-03T12:08:23.066Z</time></trkpt><trkpt lat="43.2314767" lon="11.8290233"><ele>246.66666666666669</ele><time>2026-04-03T12:08:24.066Z</time></trkpt><trkpt lat="43.2316283" lon="11.8290767"><ele>247.33333333333334</ele><time>2026-04-03T12:08:25.066Z</time></trkpt><trkpt lat="43.2317717" lon="11.8291217"><ele>248.0</ele><time>2026-04-03T12:08:26.066Z</time></trkpt><trkpt lat="43.2319167" lon="11.8291817"><ele>248.0</ele><time>2026-04-03T12:08:27.065Z</time></trkpt><trkpt lat="43.23207" lon="11.8292333"><ele>248.0</ele><time>2026-04-03T12:08:28.065Z</time></trkpt><trkpt lat="43.2322183" lon="11.82929"><ele>248.0</ele><time>2026-04-03T12:08:29.066Z</time></trkpt><trkpt lat="43.2323767" lon="11.8293383"><ele>247.66666666666669</ele><time>2026-04-03T12:08:30.065Z</time></trkpt><trkpt lat="43.2325317" lon="11.8293833"><ele>247.33333333333331</ele><time>2026-04-03T12:08:31.065Z</time></trkpt><trkpt lat="43.2326833" lon="11.8294167"><ele>247.0</ele><time>2026-04-03T12:08:32.065Z</time></trkpt><trkpt lat="43.2328367" lon="11.8294567"><ele>247.0</ele><time>2026-04-03T12:08:33.065Z</time></trkpt><trkpt lat="43.232975" lon="11.8295017"><ele>247.0</ele><time>2026-04-03T12:08:34.066Z</time></trkpt><trkpt lat="43.2331267" lon="11.8295583"><ele>247.0</ele><time>2026-04-03T12:08:35.065Z</time></trkpt><trkpt lat="43.233275" lon="11.8296083"><ele>246.33333333333331</ele><time>2026-04-03T12:08:36.066Z</time></trkpt><trkpt lat="43.2334317" lon="11.8296633"><ele>245.66666666666669</ele><time>2026-04-03T12:08:37.065Z</time></trkpt><trkpt lat="43.2335883" lon="11.8297133"><ele>245.0</ele><time>2026-04-03T12:08:38.065Z</time></trkpt><trkpt lat="43.2337383" lon="11.82977"><ele>245.0</ele><time>2026-04-03T12:08:39.065Z</time></trkpt><trkpt lat="43.2338767" lon="11.8298267"><ele>245.0</ele><time>2026-04-03T12:08:40.065Z</time></trkpt><trkpt lat="43.234025" lon="11.829875"><ele>245.0</ele><time>2026-04-03T12:08:41.065Z</time></trkpt><trkpt lat="43.234175" lon="11.8299217"><ele>245.33333333333334</ele><time>2026-04-03T12:08:42.065Z</time></trkpt><trkpt lat="43.2343317" lon="11.82997"><ele>245.66666666666669</ele><time>2026-04-03T12:08:43.065Z</time></trkpt><trkpt lat="43.2344683" lon="11.8300083"><ele>246.0</ele><time>2026-04-03T12:08:44.065Z</time></trkpt><trkpt lat="43.2346233" lon="11.8300533"><ele>246.0</ele><time>2026-04-03T12:08:45.066Z</time></trkpt><trkpt lat="43.234765" lon="11.8301"><ele>246.0</ele><time>2026-04-03T12:08:46.066Z</time></trkpt><trkpt lat="43.2349183" lon="11.8301533"><ele>246.0</ele><time>2026-04-03T12:08:47.065Z</time></trkpt><trkpt lat="43.2350767" lon="11.8302083"><ele>245.66666666666669</ele><time>2026-04-03T12:08:48.065Z</time></trkpt><trkpt lat="43.2352283" lon="11.830265"><ele>245.33333333333334</ele><time>2026-04-03T12:08:49.065Z</time></trkpt><trkpt lat="43.2353783" lon="11.8303117"><ele>245.0</ele><time>2026-04-03T12:08:50.065Z</time></trkpt><trkpt lat="43.235525" lon="11.830355"><ele>245.33333333333334</ele><time>2026-04-03T12:08:51.065Z</time></trkpt><trkpt lat="43.23567" lon="11.8304033"><ele>245.66666666666669</ele><time>2026-04-03T12:08:52.065Z</time></trkpt><trkpt lat="43.2358217" lon="11.8304483"><ele>246.0</ele><time>2026-04-03T12:08:53.065Z</time></trkpt><trkpt lat="43.235975" lon="11.830505"><ele>246.0</ele><time>2026-04-03T12:08:54.065Z</time></trkpt><trkpt lat="43.23611" lon="11.830555"><ele>246.0</ele><time>2026-04-03T12:08:55.066Z</time></trkpt><trkpt lat="43.2362417" lon="11.8305933"><ele>246.0</ele><time>2026-04-03T12:08:56.065Z</time></trkpt><trkpt lat="43.2363633" lon="11.8306417"><ele>246.0</ele><time>2026-04-03T12:08:57.065Z</time></trkpt><trkpt lat="43.2365" lon="11.8306733"><ele>246.25</ele><time>2026-04-03T12:08:58.066Z</time></trkpt><trkpt lat="43.2366267" lon="11.8307"><ele>246.5</ele><time>2026-04-03T12:08:59.066Z</time></trkpt><trkpt lat="43.2367583" lon="11.83073"><ele>246.75</ele><time>2026-04-03T12:09:00.065Z</time></trkpt><trkpt lat="43.23687" lon="11.83075"><ele>247.0</ele><time>2026-04-03T12:09:01.065Z</time></trkpt><trkpt lat="43.23698" lon="11.8307717"><ele>246.99999999999997</ele><time>2026-04-03T12:09:02.065Z</time></trkpt><trkpt lat="43.237065" lon="11.8307867"><ele>247.0</ele><time>2026-04-03T12:09:03.065Z</time></trkpt><trkpt lat="43.2371317" lon="11.8307933"><ele>247.0</ele><time>2026-04-03T12:09:04.065Z</time></trkpt><trkpt lat="43.2372017" lon="11.8307967"><ele>247.0</ele><time>2026-04-03T12:09:13.065Z</time></trkpt><trkpt lat="43.23731" lon="11.83085"><ele>246.99999999999997</ele><time>2026-04-03T12:09:15.065Z</time></trkpt><trkpt lat="43.237395" lon="11.8308883"><ele>247.0</ele><time>2026-04-03T12:09:16.065Z</time></trkpt><trkpt lat="43.2374867" lon="11.8309417"><ele>246.75</ele><time>2026-04-03T12:09:17.065Z</time></trkpt><trkpt lat="43.2375883" lon="11.8309983"><ele>246.5</ele><time>2026-04-03T12:09:18.066Z</time></trkpt><trkpt lat="43.2377183" lon="11.8310567"><ele>246.25</ele><time>2026-04-03T12:09:19.066Z</time></trkpt><trkpt lat="43.2378533" lon="11.8311"><ele>246.0</ele><time>2026-04-03T12:09:20.065Z</time></trkpt><trkpt lat="43.2379767" lon="11.831145"><ele>246.0</ele><time>2026-04-03T12:09:21.065Z</time></trkpt><trkpt lat="43.2381133" lon="11.8311933"><ele>246.0</ele><time>2026-04-03T12:09:22.066Z</time></trkpt><trkpt lat="43.2382567" lon="11.8312417"><ele>246.0</ele><time>2026-04-03T12:09:23.065Z</time></trkpt><trkpt lat="43.2384033" lon="11.831285"><ele>246.0</ele><time>2026-04-03T12:09:24.065Z</time></trkpt><trkpt lat="43.2385483" lon="11.83134"><ele>245.66666666666669</ele><time>2026-04-03T12:09:25.065Z</time></trkpt><trkpt lat="43.2387017" lon="11.8313883"><ele>245.33333333333334</ele><time>2026-04-03T12:09:26.065Z</time></trkpt><trkpt lat="43.2388617" lon="11.8314483"><ele>245.0</ele><time>2026-04-03T12:09:27.065Z</time></trkpt><trkpt lat="43.2390283" lon="11.8315083"><ele>245.66666666666669</ele><time>2026-04-03T12:09:28.066Z</time></trkpt><trkpt lat="43.2391867" lon="11.83156"><ele>246.33333333333331</ele><time>2026-04-03T12:09:29.065Z</time></trkpt><trkpt lat="43.2393467" lon="11.83162"><ele>247.0</ele><time>2026-04-03T12:09:30.065Z</time></trkpt><trkpt lat="43.23951" lon="11.8316767"><ele>247.0</ele><time>2026-04-03T12:09:31.066Z</time></trkpt><trkpt lat="43.2396717" lon="11.8317283"><ele>247.0</ele><time>2026-04-03T12:09:32.065Z</time></trkpt><trkpt lat="43.23985" lon="11.8317683"><ele>247.0</ele><time>2026-04-03T12:09:33.065Z</time></trkpt><trkpt lat="43.2400183" lon="11.8318217"><ele>246.66666666666666</ele><time>2026-04-03T12:09:34.065Z</time></trkpt><trkpt lat="43.2401933" lon="11.831875"><ele>246.33333333333331</ele><time>2026-04-03T12:09:35.065Z</time></trkpt><trkpt lat="43.2403717" lon="11.831925"><ele>246.0</ele><time>2026-04-03T12:09:36.065Z</time></trkpt><trkpt lat="43.2405483" lon="11.8319683"><ele>246.33333333333331</ele><time>2026-04-03T12:09:37.065Z</time></trkpt><trkpt lat="43.2407283" lon="11.8320133"><ele>246.66666666666666</ele><time>2026-04-03T12:09:38.065Z</time></trkpt><trkpt lat="43.2409167" lon="11.8320617"><ele>247.0</ele><time>2026-04-03T12:09:39.065Z</time></trkpt><trkpt lat="43.2411" lon="11.83212"><ele>247.0</ele><time>2026-04-03T12:09:40.065Z</time></trkpt><trkpt lat="43.2412867" lon="11.8321633"><ele>247.0</ele><time>2026-04-03T12:09:41.066Z</time></trkpt><trkpt lat="43.2414717" lon="11.8322133"><ele>247.0</ele><time>2026-04-03T12:09:42.066Z</time></trkpt><trkpt lat="43.2416617" lon="11.8322617"><ele>247.66666666666666</ele><time>2026-04-03T12:09:43.066Z</time></trkpt><trkpt lat="43.24185" lon="11.83231"><ele>248.33333333333331</ele><time>2026-04-03T12:09:44.066Z</time></trkpt><trkpt lat="43.242035" lon="11.832365"><ele>249.0</ele><time>2026-04-03T12:09:45.065Z</time></trkpt><trkpt lat="43.2422183" lon="11.8324233"><ele>248.33333333333331</ele><time>2026-04-03T12:09:46.065Z</time></trkpt><trkpt lat="43.2423983" lon="11.832475"><ele>247.66666666666666</ele><time>2026-04-03T12:09:47.066Z</time></trkpt><trkpt lat="43.2425883" lon="11.8325217"><ele>247.0</ele><time>2026-04-03T12:09:48.066Z</time></trkpt><trkpt lat="43.2427683" lon="11.8325667"><ele>247.0</ele><time>2026-04-03T12:09:49.065Z</time></trkpt><trkpt lat="43.2429517" lon="11.8326267"><ele>247.0</ele><time>2026-04-03T12:09:50.066Z</time></trkpt><trkpt lat="43.2431267" lon="11.8326833"><ele>247.0</ele><time>2026-04-03T12:09:51.065Z</time></trkpt><trkpt lat="43.24331" lon="11.832735"><ele>246.66666666666666</ele><time>2026-04-03T12:09:52.065Z</time></trkpt><trkpt lat="43.2434933" lon="11.8327867"><ele>246.33333333333331</ele><time>2026-04-03T12:09:53.065Z</time></trkpt><trkpt lat="43.2436833" lon="11.832845"><ele>246.0</ele><time>2026-04-03T12:09:54.066Z</time></trkpt><trkpt lat="43.24388" lon="11.832895"><ele>246.0</ele><time>2026-04-03T12:09:55.065Z</time></trkpt><trkpt lat="43.244075" lon="11.83295"><ele>246.0</ele><time>2026-04-03T12:09:56.065Z</time></trkpt><trkpt lat="43.2442733" lon="11.8330033"><ele>246.0</ele><time>2026-04-03T12:09:57.065Z</time></trkpt><trkpt lat="43.24446" lon="11.8330583"><ele>246.0</ele><time>2026-04-03T12:09:58.065Z</time></trkpt><trkpt lat="43.244655" lon="11.8331017"><ele>246.0</ele><time>2026-04-03T12:09:59.066Z</time></trkpt><trkpt lat="43.2448467" lon="11.8331517"><ele>246.0</ele><time>2026-04-03T12:10:00.066Z</time></trkpt><trkpt lat="43.24503" lon="11.8332033"><ele>246.0</ele><time>2026-04-03T12:10:01.065Z</time></trkpt><trkpt lat="43.2452117" lon="11.8332517"><ele>246.0</ele><time>2026-04-03T12:10:02.065Z</time></trkpt><trkpt lat="43.2453883" lon="11.8333067"><ele>246.0</ele><time>2026-04-03T12:10:03.065Z</time></trkpt><trkpt lat="43.2455733" lon="11.83336"><ele>246.0</ele><time>2026-04-03T12:10:04.066Z</time></trkpt><trkpt lat="43.245755" lon="11.8334233"><ele>246.0</ele><time>2026-04-03T12:10:05.065Z</time></trkpt><trkpt lat="43.2459267" lon="11.8334767"><ele>246.0</ele><time>2026-04-03T12:10:06.065Z</time></trkpt><trkpt lat="43.2460933" lon="11.8335317"><ele>246.0</ele><time>2026-04-03T12:10:07.066Z</time></trkpt><trkpt lat="43.2462817" lon="11.8335767"><ele>246.0</ele><time>2026-04-03T12:10:08.065Z</time></trkpt><trkpt lat="43.2464567" lon="11.8336233"><ele>246.0</ele><time>2026-04-03T12:10:09.065Z</time></trkpt><trkpt lat="43.2466367" lon="11.8336667"><ele>246.0</ele><time>2026-04-03T12:10:10.065Z</time></trkpt><trkpt lat="43.2468167" lon="11.83371"><ele>246.0</ele><time>2026-04-03T12:10:11.065Z</time></trkpt><trkpt lat="43.2469933" lon="11.833755"><ele>246.0</ele><time>2026-04-03T12:10:12.065Z</time></trkpt><trkpt lat="43.247165" lon="11.833795"><ele>246.66666666666669</ele><time>2026-04-03T12:10:13.065Z</time></trkpt><trkpt lat="43.24735" lon="11.83382"><ele>247.33333333333334</ele><time>2026-04-03T12:10:14.066Z</time></trkpt><trkpt lat="43.247535" lon="11.8338583"><ele>248.0</ele><time>2026-04-03T12:10:15.065Z</time></trkpt><trkpt lat="43.2476917" lon="11.8338817"><ele>248.0</ele><time>2026-04-03T12:10:16.066Z</time></trkpt><trkpt lat="43.247835" lon="11.8338967"><ele>248.0</ele><time>2026-04-03T12:10:17.065Z</time></trkpt><trkpt lat="43.247965" lon="11.833905"><ele>248.0</ele><time>2026-04-03T12:10:18.065Z</time></trkpt><trkpt lat="43.2480967" lon="11.8339167"><ele>248.0</ele><time>2026-04-03T12:10:19.065Z</time></trkpt><trkpt lat="43.2482183" lon="11.8339217"><ele>247.60000000000002</ele><time>2026-04-03T12:10:20.065Z</time></trkpt><trkpt lat="43.2483283" lon="11.833925"><ele>247.20000000000002</ele><time>2026-04-03T12:10:21.066Z</time></trkpt><trkpt lat="43.2484417" lon="11.8339317"><ele>246.8</ele><time>2026-04-03T12:10:22.065Z</time></trkpt><trkpt lat="43.2485483" lon="11.8339517"><ele>246.4</ele><time>2026-04-03T12:10:23.065Z</time></trkpt><trkpt lat="43.2486583" lon="11.8339683"><ele>246.0</ele><time>2026-04-03T12:10:24.065Z</time></trkpt><trkpt lat="43.2487683" lon="11.833985"><ele>246.0</ele><time>2026-04-03T12:10:25.065Z</time></trkpt><trkpt lat="43.24888" lon="11.834"><ele>246.0</ele><time>2026-04-03T12:10:26.065Z</time></trkpt><trkpt lat="43.2489967" lon="11.8340167"><ele>246.0</ele><time>2026-04-03T12:10:27.065Z</time></trkpt><trkpt lat="43.2491133" lon="11.8340233"><ele>246.0</ele><time>2026-04-03T12:10:28.065Z</time></trkpt><trkpt lat="43.249235" lon="11.8340333"><ele>245.75</ele><time>2026-04-03T12:10:29.065Z</time></trkpt><trkpt lat="43.2493583" lon="11.8340517"><ele>245.5</ele><time>2026-04-03T12:10:30.066Z</time></trkpt><trkpt lat="43.2494783" lon="11.8340633"><ele>245.25</ele><time>2026-04-03T12:10:31.066Z</time></trkpt><trkpt lat="43.2496083" lon="11.8340583"><ele>245.0</ele><time>2026-04-03T12:10:32.065Z</time></trkpt><trkpt lat="43.2497417" lon="11.83406"><ele>245.25</ele><time>2026-04-03T12:10:33.065Z</time></trkpt><trkpt lat="43.249885" lon="11.8340667"><ele>245.5</ele><time>2026-04-03T12:10:34.065Z</time></trkpt><trkpt lat="43.2500317" lon="11.8340917"><ele>245.75</ele><time>2026-04-03T12:10:35.065Z</time></trkpt><trkpt lat="43.25018" lon="11.8341067"><ele>246.0</ele><time>2026-04-03T12:10:36.065Z</time></trkpt><trkpt lat="43.25033" lon="11.8341083"><ele>246.0</ele><time>2026-04-03T12:10:37.066Z</time></trkpt><trkpt lat="43.25048" lon="11.83414"><ele>246.0</ele><time>2026-04-03T12:10:38.066Z</time></trkpt><trkpt lat="43.2506283" lon="11.8341733"><ele>246.0</ele><time>2026-04-03T12:10:39.065Z</time></trkpt><trkpt lat="43.250775" lon="11.83419"><ele>246.0</ele><time>2026-04-03T12:10:40.065Z</time></trkpt><trkpt lat="43.2509183" lon="11.8342167"><ele>246.33333333333331</ele><time>2026-04-03T12:10:41.065Z</time></trkpt><trkpt lat="43.2510717" lon="11.8342333"><ele>246.66666666666666</ele><time>2026-04-03T12:10:42.065Z</time></trkpt><trkpt lat="43.251225" lon="11.834245"><ele>247.0</ele><time>2026-04-03T12:10:43.065Z</time></trkpt><trkpt lat="43.2513783" lon="11.8342733"><ele>246.66666666666666</ele><time>2026-04-03T12:10:44.066Z</time></trkpt><trkpt lat="43.2515317" lon="11.8342883"><ele>246.33333333333331</ele><time>2026-04-03T12:10:45.065Z</time></trkpt><trkpt lat="43.2516967" lon="11.8343083"><ele>246.0</ele><time>2026-04-03T12:10:46.065Z</time></trkpt><trkpt lat="43.251855" lon="11.8343233"><ele>246.0</ele><time>2026-04-03T12:10:47.065Z</time></trkpt><trkpt lat="43.2520033" lon="11.8343367"><ele>246.0</ele><time>2026-04-03T12:10:48.065Z</time></trkpt><trkpt lat="43.2521517" lon="11.8343467"><ele>246.0</ele><time>2026-04-03T12:10:49.066Z</time></trkpt><trkpt lat="43.2523017" lon="11.83436"><ele>246.0</ele><time>2026-04-03T12:10:50.065Z</time></trkpt><trkpt lat="43.2524583" lon="11.834375"><ele>246.0</ele><time>2026-04-03T12:10:51.066Z</time></trkpt><trkpt lat="43.2525983" lon="11.8343917"><ele>246.0</ele><time>2026-04-03T12:10:52.066Z</time></trkpt><trkpt lat="43.25275" lon="11.8344167"><ele>246.0</ele><time>2026-04-03T12:10:53.065Z</time></trkpt><trkpt lat="43.2528983" lon="11.8344333"><ele>246.0</ele><time>2026-04-03T12:10:54.065Z</time></trkpt><trkpt lat="43.2530533" lon="11.83445"><ele>245.66666666666669</ele><time>2026-04-03T12:10:55.066Z</time></trkpt><trkpt lat="43.25321" lon="11.83447"><ele>245.33333333333334</ele><time>2026-04-03T12:10:56.065Z</time></trkpt><trkpt lat="43.2533633" lon="11.8344933"><ele>245.0</ele><time>2026-04-03T12:10:57.065Z</time></trkpt><trkpt lat="43.2535167" lon="11.83452"><ele>245.0</ele><time>2026-04-03T12:10:58.065Z</time></trkpt><trkpt lat="43.2536717" lon="11.8345433"><ele>245.0</ele><time>2026-04-03T12:10:59.065Z</time></trkpt><trkpt lat="43.2538283" lon="11.8345667"><ele>245.0</ele><time>2026-04-03T12:11:00.066Z</time></trkpt><trkpt lat="43.2539833" lon="11.8345833"><ele>245.66666666666669</ele><time>2026-04-03T12:11:01.065Z</time></trkpt><trkpt lat="43.2541517" lon="11.8345967"><ele>246.33333333333331</ele><time>2026-04-03T12:11:02.065Z</time></trkpt><trkpt lat="43.2543083" lon="11.8346167"><ele>247.0</ele><time>2026-04-03T12:11:03.065Z</time></trkpt><trkpt lat="43.254475" lon="11.8346333"><ele>247.0</ele><time>2026-04-03T12:11:04.065Z</time></trkpt><trkpt lat="43.2546483" lon="11.8346617"><ele>247.0</ele><time>2026-04-03T12:11:05.065Z</time></trkpt><trkpt lat="43.2548283" lon="11.8346867"><ele>247.0</ele><time>2026-04-03T12:11:06.065Z</time></trkpt><trkpt lat="43.2550017" lon="11.8346933"><ele>247.33333333333331</ele><time>2026-04-03T12:11:07.066Z</time></trkpt><trkpt lat="43.25518" lon="11.8347067"><ele>247.66666666666669</ele><time>2026-04-03T12:11:08.065Z</time></trkpt><trkpt lat="43.2553667" lon="11.834725"><ele>248.0</ele><time>2026-04-03T12:11:09.065Z</time></trkpt><trkpt lat="43.2555417" lon="11.8347417"><ele>247.33333333333334</ele><time>2026-04-03T12:11:10.065Z</time></trkpt><trkpt lat="43.2557217" lon="11.8347683"><ele>246.66666666666669</ele><time>2026-04-03T12:11:11.065Z</time></trkpt><trkpt lat="43.2559133" lon="11.8347917"><ele>246.0</ele><time>2026-04-03T12:11:12.065Z</time></trkpt><trkpt lat="43.2561017" lon="11.8348067"><ele>246.0</ele><time>2026-04-03T12:11:13.066Z</time></trkpt><trkpt lat="43.2562967" lon="11.834825"><ele>246.0</ele><time>2026-04-03T12:11:14.065Z</time></trkpt><trkpt lat="43.2565" lon="11.83484"><ele>246.0</ele><time>2026-04-03T12:11:15.065Z</time></trkpt><trkpt lat="43.2567033" lon="11.834865"><ele>246.0</ele><time>2026-04-03T12:11:16.065Z</time></trkpt><trkpt lat="43.2568983" lon="11.8348917"><ele>246.0</ele><time>2026-04-03T12:11:17.066Z</time></trkpt><trkpt lat="43.257095" lon="11.834905"><ele>246.0</ele><time>2026-04-03T12:11:18.065Z</time></trkpt><trkpt lat="43.2572867" lon="11.8349183"><ele>246.0</ele><time>2026-04-03T12:11:19.066Z</time></trkpt><trkpt lat="43.2574783" lon="11.8349233"><ele>246.0</ele><time>2026-04-03T12:11:20.065Z</time></trkpt><trkpt lat="43.2576667" lon="11.8349283"><ele>246.0</ele><time>2026-04-03T12:11:21.066Z</time></trkpt><trkpt lat="43.257855" lon="11.8349417"><ele>246.0</ele><time>2026-04-03T12:11:22.065Z</time></trkpt><trkpt lat="43.2580467" lon="11.8349633"><ele>246.0</ele><time>2026-04-03T12:11:23.065Z</time></trkpt><trkpt lat="43.2582333" lon="11.83499"><ele>246.0</ele><time>2026-04-03T12:11:24.066Z</time></trkpt><trkpt lat="43.2584117" lon="11.8350133"><ele>246.0</ele><time>2026-04-03T12:11:25.065Z</time></trkpt><trkpt lat="43.2585783" lon="11.8350333"><ele>246.0</ele><time>2026-04-03T12:11:26.065Z</time></trkpt><trkpt lat="43.25874" lon="11.835045"><ele>246.0</ele><time>2026-04-03T12:11:27.065Z</time></trkpt><trkpt lat="43.2588967" lon="11.8350667"><ele>246.0</ele><time>2026-04-03T12:11:28.065Z</time></trkpt><trkpt lat="43.2590467" lon="11.83508"><ele>246.0</ele><time>2026-04-03T12:11:29.065Z</time></trkpt><trkpt lat="43.2591917" lon="11.8351067"><ele>246.0</ele><time>2026-04-03T12:11:30.065Z</time></trkpt><trkpt lat="43.2593333" lon="11.8351117"><ele>246.0</ele><time>2026-04-03T12:11:31.066Z</time></trkpt><trkpt lat="43.259475" lon="11.8351217"><ele>246.0</ele><time>2026-04-03T12:11:32.065Z</time></trkpt><trkpt lat="43.2596" lon="11.835125"><ele>246.00000000000003</ele><time>2026-04-03T12:11:33.065Z</time></trkpt><trkpt lat="43.2597017" lon="11.8351267"><ele>246.00000000000003</ele><time>2026-04-03T12:11:34.065Z</time></trkpt><trkpt lat="43.2597917" lon="11.835125"><ele>246.0</ele><time>2026-04-03T12:11:35.065Z</time></trkpt><trkpt lat="43.2598617" lon="11.835125"><ele>246.0</ele><time>2026-04-03T12:11:36.065Z</time></trkpt><trkpt lat="43.259925" lon="11.83513"><ele>246.0</ele><time>2026-04-03T12:11:37.065Z</time></trkpt><trkpt lat="43.259995" lon="11.8351417"><ele>246.0</ele><time>2026-04-03T12:11:38.065Z</time></trkpt><trkpt lat="43.260075" lon="11.8351583"><ele>246.0</ele><time>2026-04-03T12:11:39.066Z</time></trkpt><trkpt lat="43.260155" lon="11.83518"><ele>246.0</ele><time>2026-04-03T12:11:40.065Z</time></trkpt><trkpt lat="43.26022" lon="11.8352267"><ele>246.0</ele><time>2026-04-03T12:11:41.066Z</time></trkpt><trkpt lat="43.2602717" lon="11.8352917"><ele>246.0</ele><time>2026-04-03T12:11:42.065Z</time></trkpt><trkpt lat="43.26031" lon="11.83539"><ele>246.0</ele><time>2026-04-03T12:11:43.066Z</time></trkpt><trkpt lat="43.26033" lon="11.8354933"><ele>246.0</ele><time>2026-04-03T12:11:44.065Z</time></trkpt><trkpt lat="43.2603433" lon="11.8356017"><ele>246.0</ele><time>2026-04-03T12:11:45.065Z</time></trkpt><trkpt lat="43.260365" lon="11.8357067"><ele>246.0</ele><time>2026-04-03T12:11:46.065Z</time></trkpt><trkpt lat="43.260385" lon="11.8358167"><ele>246.0</ele><time>2026-04-03T12:11:47.065Z</time></trkpt><trkpt lat="43.2604083" lon="11.835935"><ele>246.0</ele><time>2026-04-03T12:11:48.065Z</time></trkpt><trkpt lat="43.2604267" lon="11.8360517"><ele>245.8</ele><time>2026-04-03T12:11:49.065Z</time></trkpt><trkpt lat="43.2604617" lon="11.8361717"><ele>245.60000000000002</ele><time>2026-04-03T12:11:50.066Z</time></trkpt><trkpt lat="43.260495" lon="11.8362933"><ele>245.4</ele><time>2026-04-03T12:11:51.066Z</time></trkpt><trkpt lat="43.2605267" lon="11.8364333"><ele>245.2</ele><time>2026-04-03T12:11:52.065Z</time></trkpt><trkpt lat="43.2605667" lon="11.8365883"><ele>245.0</ele><time>2026-04-03T12:11:53.066Z</time></trkpt><trkpt lat="43.26061" lon="11.8367517"><ele>245.0</ele><time>2026-04-03T12:11:54.066Z</time></trkpt><trkpt lat="43.2606483" lon="11.8369217"><ele>245.0</ele><time>2026-04-03T12:11:55.065Z</time></trkpt><trkpt lat="43.2607033" lon="11.837095"><ele>245.0</ele><time>2026-04-03T12:11:56.066Z</time></trkpt><trkpt lat="43.2607517" lon="11.8372767"><ele>245.0</ele><time>2026-04-03T12:11:57.066Z</time></trkpt><trkpt lat="43.2607983" lon="11.8374717"><ele>244.75</ele><time>2026-04-03T12:11:58.066Z</time></trkpt><trkpt lat="43.2608483" lon="11.8376583"><ele>244.5</ele><time>2026-04-03T12:11:59.066Z</time></trkpt><trkpt lat="43.2608983" lon="11.837845"><ele>244.25</ele><time>2026-04-03T12:12:00.065Z</time></trkpt><trkpt lat="43.26095" lon="11.8380283"><ele>244.0</ele><time>2026-04-03T12:12:01.065Z</time></trkpt><trkpt lat="43.2610117" lon="11.8381983"><ele>244.0</ele><time>2026-04-03T12:12:02.065Z</time></trkpt><trkpt lat="43.2610733" lon="11.8383683"><ele>244.0</ele><time>2026-04-03T12:12:03.066Z</time></trkpt><trkpt lat="43.2611467" lon="11.8385283"><ele>244.0</ele><time>2026-04-03T12:12:04.065Z</time></trkpt><trkpt lat="43.2612283" lon="11.8386783"><ele>244.0</ele><time>2026-04-03T12:12:05.065Z</time></trkpt><trkpt lat="43.261295" lon="11.8388267"><ele>244.0</ele><time>2026-04-03T12:12:06.065Z</time></trkpt><trkpt lat="43.2613483" lon="11.8389683"><ele>243.99999999999997</ele><time>2026-04-03T12:12:07.066Z</time></trkpt><trkpt lat="43.2613933" lon="11.8390917"><ele>243.99999999999997</ele><time>2026-04-03T12:12:08.065Z</time></trkpt><trkpt lat="43.2614317" lon="11.8392017"><ele>244.0</ele><time>2026-04-03T12:12:09.066Z</time></trkpt><trkpt lat="43.2614583" lon="11.8392917"><ele>244.0</ele><time>2026-04-03T12:12:10.066Z</time></trkpt><trkpt lat="43.2614683" lon="11.839415"><ele>243.83333333333331</ele><time>2026-04-03T12:12:12.065Z</time></trkpt><trkpt lat="43.26146" lon="11.839555"><ele>243.66666666666666</ele><time>2026-04-03T12:12:14.065Z</time></trkpt><trkpt lat="43.2614533" lon="11.83966"><ele>243.5</ele><time>2026-04-03T12:12:15.066Z</time></trkpt><trkpt lat="43.26145" lon="11.8397783"><ele>243.33333333333331</ele><time>2026-04-03T12:12:16.065Z</time></trkpt><trkpt lat="43.2614483" lon="11.839885"><ele>243.16666666666666</ele><time>2026-04-03T12:12:17.065Z</time></trkpt><trkpt lat="43.2614433" lon="11.839975"><ele>243.0</ele><time>2026-04-03T12:12:18.065Z</time></trkpt><trkpt lat="43.2614617" lon="11.840095"><ele>243.16666666666666</ele><time>2026-04-03T12:12:20.065Z</time></trkpt><trkpt lat="43.261535" lon="11.8401683"><ele>243.33333333333331</ele><time>2026-04-03T12:12:22.066Z</time></trkpt><trkpt lat="43.2616017" lon="11.8401967"><ele>243.5</ele><time>2026-04-03T12:12:23.065Z</time></trkpt><trkpt lat="43.261675" lon="11.8402267"><ele>243.66666666666666</ele><time>2026-04-03T12:12:24.066Z</time></trkpt><trkpt lat="43.26176" lon="11.8402683"><ele>243.83333333333331</ele><time>2026-04-03T12:12:25.066Z</time></trkpt><trkpt lat="43.26184" lon="11.84032"><ele>244.0</ele><time>2026-04-03T12:12:26.066Z</time></trkpt><trkpt lat="43.261895" lon="11.840395"><ele>243.99999999999997</ele><time>2026-04-03T12:12:27.066Z</time></trkpt><trkpt lat="43.261935" lon="11.8404883"><ele>244.0</ele><time>2026-04-03T12:12:28.065Z</time></trkpt><trkpt lat="43.26198" lon="11.840585"><ele>244.0</ele><time>2026-04-03T12:12:29.065Z</time></trkpt><trkpt lat="43.2620183" lon="11.84069"><ele>244.0</ele><time>2026-04-03T12:12:30.066Z</time></trkpt><trkpt lat="43.2620533" lon="11.8407883"><ele>243.99999999999997</ele><time>2026-04-03T12:12:31.066Z</time></trkpt><trkpt lat="43.2620867" lon="11.8408783"><ele>244.0</ele><time>2026-04-03T12:12:32.066Z</time></trkpt><trkpt lat="43.2621367" lon="11.8410383"><ele>244.0</ele><time>2026-04-03T12:12:34.064Z</time></trkpt><trkpt lat="43.2621817" lon="11.8411817"><ele>243.99999999999997</ele><time>2026-04-03T12:12:36.064Z</time></trkpt><trkpt lat="43.2622267" lon="11.8412783"><ele>243.99999999999997</ele><time>2026-04-03T12:12:38.065Z</time></trkpt><trkpt lat="43.2622467" lon="11.841405"><ele>244.0</ele><time>2026-04-03T12:29:57.06Z</time></trkpt><trkpt lat="43.2622617" lon="11.841515"><ele>244.0</ele><time>2026-04-03T12:30:37.059Z</time></trkpt><trkpt lat="43.2623" lon="11.8416367"><ele>243.83333333333331</ele><time>2026-04-03T12:30:39.059Z</time></trkpt><trkpt lat="43.2623267" lon="11.8417183"><ele>243.66666666666666</ele><time>2026-04-03T12:30:40.059Z</time></trkpt><trkpt lat="43.26237" lon="11.8418667"><ele>243.5</ele><time>2026-04-03T12:30:42.059Z</time></trkpt><trkpt lat="43.2624033" lon="11.8419483"><ele>243.33333333333331</ele><time>2026-04-03T12:30:43.059Z</time></trkpt><trkpt lat="43.2624483" lon="11.8420383"><ele>243.16666666666666</ele><time>2026-04-03T12:30:44.059Z</time></trkpt><trkpt lat="43.26249" lon="11.84214"><ele>243.0</ele><time>2026-04-03T12:30:45.059Z</time></trkpt><trkpt lat="43.26254" lon="11.842245"><ele>243.0</ele><time>2026-04-03T12:30:46.059Z</time></trkpt><trkpt lat="43.2625833" lon="11.8423667"><ele>243.0</ele><time>2026-04-03T12:30:47.059Z</time></trkpt><trkpt lat="43.2626233" lon="11.8424883"><ele>243.0</ele><time>2026-04-03T12:30:48.059Z</time></trkpt><trkpt lat="43.26267" lon="11.8426083"><ele>243.0</ele><time>2026-04-03T12:30:49.059Z</time></trkpt><trkpt lat="43.2627083" lon="11.84273"><ele>243.0</ele><time>2026-04-03T12:30:50.059Z</time></trkpt><trkpt lat="43.262755" lon="11.8428467"><ele>242.8</ele><time>2026-04-03T12:30:51.059Z</time></trkpt><trkpt lat="43.2627933" lon="11.842945"><ele>242.60000000000002</ele><time>2026-04-03T12:30:52.059Z</time></trkpt><trkpt lat="43.2628217" lon="11.8430283"><ele>242.39999999999998</ele><time>2026-04-03T12:30:53.06Z</time></trkpt><trkpt lat="43.2628667" lon="11.8431917"><ele>242.2</ele><time>2026-04-03T12:30:55.059Z</time></trkpt><trkpt lat="43.2628983" lon="11.8432917"><ele>242.0</ele><time>2026-04-03T12:30:56.059Z</time></trkpt><trkpt lat="43.2629417" lon="11.843415"><ele>242.0</ele><time>2026-04-03T12:30:57.06Z</time></trkpt><trkpt lat="43.262985" lon="11.8435483"><ele>242.0</ele><time>2026-04-03T12:30:58.059Z</time></trkpt><trkpt lat="43.2630317" lon="11.8436967"><ele>242.0</ele><time>2026-04-03T12:30:59.059Z</time></trkpt><trkpt lat="43.2630817" lon="11.8438467"><ele>242.0</ele><time>2026-04-03T12:31:00.06Z</time></trkpt><trkpt lat="43.2631333" lon="11.843995"><ele>242.2</ele><time>2026-04-03T12:31:01.06Z</time></trkpt><trkpt lat="43.263175" lon="11.8441433"><ele>242.39999999999998</ele><time>2026-04-03T12:31:02.059Z</time></trkpt><trkpt lat="43.2632183" lon="11.8442817"><ele>242.60000000000002</ele><time>2026-04-03T12:31:03.059Z</time></trkpt><trkpt lat="43.2632633" lon="11.844415"><ele>242.8</ele><time>2026-04-03T12:31:04.059Z</time></trkpt><trkpt lat="43.26331" lon="11.844555"><ele>243.0</ele><time>2026-04-03T12:31:05.059Z</time></trkpt><trkpt lat="43.2633583" lon="11.8446883"><ele>243.0</ele><time>2026-04-03T12:31:06.059Z</time></trkpt><trkpt lat="43.2634083" lon="11.8448417"><ele>243.0</ele><time>2026-04-03T12:31:07.06Z</time></trkpt><trkpt lat="43.263475" lon="11.8449917"><ele>243.0</ele><time>2026-04-03T12:31:08.059Z</time></trkpt><trkpt lat="43.2635367" lon="11.8451367"><ele>243.0</ele><time>2026-04-03T12:31:09.059Z</time></trkpt><trkpt lat="43.2635917" lon="11.8452983"><ele>242.75</ele><time>2026-04-03T12:31:10.059Z</time></trkpt><trkpt lat="43.2636433" lon="11.8454367"><ele>242.5</ele><time>2026-04-03T12:31:11.059Z</time></trkpt><trkpt lat="43.2636917" lon="11.84558"><ele>242.25</ele><time>2026-04-03T12:31:12.059Z</time></trkpt><trkpt lat="43.26374" lon="11.84573"><ele>242.0</ele><time>2026-04-03T12:31:13.059Z</time></trkpt><trkpt lat="43.2637867" lon="11.845875"><ele>242.0</ele><time>2026-04-03T12:31:14.059Z</time></trkpt><trkpt lat="43.26382" lon="11.84603"><ele>242.0</ele><time>2026-04-03T12:31:15.059Z</time></trkpt><trkpt lat="43.2638517" lon="11.846185"><ele>242.0</ele><time>2026-04-03T12:31:16.059Z</time></trkpt><trkpt lat="43.263875" lon="11.8463367"><ele>242.0</ele><time>2026-04-03T12:31:17.06Z</time></trkpt><trkpt lat="43.26391" lon="11.8464617"><ele>242.0</ele><time>2026-04-03T12:31:18.059Z</time></trkpt><trkpt lat="43.2639483" lon="11.8465667"><ele>242.0</ele><time>2026-04-03T12:31:19.059Z</time></trkpt><trkpt lat="43.2639833" lon="11.8466817"><ele>242.0</ele><time>2026-04-03T12:31:20.06Z</time></trkpt><trkpt lat="43.26402" lon="11.8467983"><ele>242.0</ele><time>2026-04-03T12:31:21.059Z</time></trkpt><trkpt lat="43.2640683" lon="11.8469083"><ele>242.0</ele><time>2026-04-03T12:31:22.059Z</time></trkpt><trkpt lat="43.2641167" lon="11.8470083"><ele>242.0</ele><time>2026-04-03T12:31:23.059Z</time></trkpt><trkpt lat="43.26418" lon="11.8471133"><ele>242.0</ele><time>2026-04-03T12:31:24.06Z</time></trkpt><trkpt lat="43.26425" lon="11.8472217"><ele>242.0</ele><time>2026-04-03T12:31:25.059Z</time></trkpt><trkpt lat="43.2643167" lon="11.8473333"><ele>242.0</ele><time>2026-04-03T12:31:26.06Z</time></trkpt><trkpt lat="43.2643717" lon="11.84744"><ele>242.0</ele><time>2026-04-03T12:31:27.059Z</time></trkpt><trkpt lat="43.2644367" lon="11.847555"><ele>242.0</ele><time>2026-04-03T12:31:28.059Z</time></trkpt><trkpt lat="43.2644967" lon="11.8476733"><ele>242.0</ele><time>2026-04-03T12:31:29.059Z</time></trkpt><trkpt lat="43.2645617" lon="11.8477817"><ele>242.0</ele><time>2026-04-03T12:31:30.059Z</time></trkpt><trkpt lat="43.2646233" lon="11.8478967"><ele>242.0</ele><time>2026-04-03T12:31:31.06Z</time></trkpt><trkpt lat="43.2646783" lon="11.8480217"><ele>242.0</ele><time>2026-04-03T12:31:32.059Z</time></trkpt><trkpt lat="43.26473" lon="11.84815"><ele>242.0</ele><time>2026-04-03T12:31:33.059Z</time></trkpt><trkpt lat="43.2647767" lon="11.84829"><ele>242.39999999999998</ele><time>2026-04-03T12:31:34.059Z</time></trkpt><trkpt lat="43.2648133" lon="11.848435"><ele>242.79999999999998</ele><time>2026-04-03T12:31:35.059Z</time></trkpt><trkpt lat="43.26485" lon="11.848585"><ele>243.2</ele><time>2026-04-03T12:31:36.06Z</time></trkpt><trkpt lat="43.2648783" lon="11.84873"><ele>243.6</ele><time>2026-04-03T12:31:37.059Z</time></trkpt><trkpt lat="43.2649217" lon="11.848865"><ele>244.0</ele><time>2026-04-03T12:31:38.059Z</time></trkpt><trkpt lat="43.2649717" lon="11.8489983"><ele>244.6</ele><time>2026-04-03T12:31:39.06Z</time></trkpt><trkpt lat="43.2650167" lon="11.8491333"><ele>245.2</ele><time>2026-04-03T12:31:40.059Z</time></trkpt><trkpt lat="43.2650633" lon="11.8492683"><ele>245.79999999999998</ele><time>2026-04-03T12:31:41.06Z</time></trkpt><trkpt lat="43.2651133" lon="11.8493983"><ele>246.39999999999998</ele><time>2026-04-03T12:31:42.059Z</time></trkpt><trkpt lat="43.265165" lon="11.8495283"><ele>247.0</ele><time>2026-04-03T12:31:43.059Z</time></trkpt><trkpt lat="43.2652267" lon="11.849655"><ele>248.5</ele><time>2026-04-03T12:31:44.059Z</time></trkpt><trkpt lat="43.2652867" lon="11.8497867"><ele>250.0</ele><time>2026-04-03T12:31:45.059Z</time></trkpt><trkpt lat="43.265345" lon="11.8499283"><ele>251.5</ele><time>2026-04-03T12:31:46.059Z</time></trkpt><trkpt lat="43.2654033" lon="11.850065"><ele>253.0</ele><time>2026-04-03T12:31:47.06Z</time></trkpt><trkpt lat="43.2654517" lon="11.8502033"><ele>254.8</ele><time>2026-04-03T12:31:48.059Z</time></trkpt><trkpt lat="43.2655017" lon="11.8503383"><ele>256.6</ele><time>2026-04-03T12:31:49.059Z</time></trkpt><trkpt lat="43.26555" lon="11.850475"><ele>258.4</ele><time>2026-04-03T12:31:50.059Z</time></trkpt><trkpt lat="43.2656033" lon="11.8506017"><ele>260.2</ele><time>2026-04-03T12:31:51.059Z</time></trkpt><trkpt lat="43.2656517" lon="11.850725"><ele>262.0</ele><time>2026-04-03T12:31:52.059Z</time></trkpt><trkpt lat="43.2656967" lon="11.8508533"><ele>263.8</ele><time>2026-04-03T12:31:53.06Z</time></trkpt><trkpt lat="43.2657367" lon="11.8509783"><ele>265.6</ele><time>2026-04-03T12:31:54.06Z</time></trkpt><trkpt lat="43.2657733" lon="11.8510983"><ele>267.40000000000003</ele><time>2026-04-03T12:31:55.059Z</time></trkpt><trkpt lat="43.2658117" lon="11.851225"><ele>269.2</ele><time>2026-04-03T12:31:56.059Z</time></trkpt><trkpt lat="43.2658433" lon="11.8513367"><ele>271.0</ele><time>2026-04-03T12:31:57.06Z</time></trkpt><trkpt lat="43.2658733" lon="11.8514333"><ele>271.0</ele><time>2026-04-03T12:31:58.059Z</time></trkpt><trkpt lat="43.2658983" lon="11.8515133"><ele>271.0</ele><time>2026-04-03T12:31:59.059Z</time></trkpt><trkpt lat="43.2658917" lon="11.8516167"><ele>271.0</ele><time>2026-04-03T12:32:02.06Z</time></trkpt><trkpt lat="43.26581" lon="11.8516483"><ele>271.0</ele><time>2026-04-03T12:32:04.06Z</time></trkpt><trkpt lat="43.265735" lon="11.85166"><ele>271.0</ele><time>2026-04-03T12:32:05.059Z</time></trkpt><trkpt lat="43.2656383" lon="11.8516783"><ele>271.0</ele><time>2026-04-03T12:32:06.06Z</time></trkpt><trkpt lat="43.2655283" lon="11.8517033"><ele>270.0</ele><time>2026-04-03T12:32:07.059Z</time></trkpt><trkpt lat="43.2654033" lon="11.8517333"><ele>269.0</ele><time>2026-04-03T12:32:08.059Z</time></trkpt><trkpt lat="43.2652767" lon="11.8517733"><ele>268.0</ele><time>2026-04-03T12:32:09.059Z</time></trkpt><trkpt lat="43.2651433" lon="11.851815"><ele>267.0</ele><time>2026-04-03T12:32:10.06Z</time></trkpt><trkpt lat="43.265" lon="11.8518517"><ele>267.0</ele><time>2026-04-03T12:32:11.059Z</time></trkpt><trkpt lat="43.2648567" lon="11.85188"><ele>267.0</ele><time>2026-04-03T12:32:12.059Z</time></trkpt><trkpt lat="43.2647" lon="11.8519283"><ele>267.0</ele><time>2026-04-03T12:32:13.059Z</time></trkpt><trkpt lat="43.2645383" lon="11.8519733"><ele>266.0</ele><time>2026-04-03T12:32:14.059Z</time></trkpt><trkpt lat="43.26437" lon="11.85203"><ele>265.0</ele><time>2026-04-03T12:32:15.06Z</time></trkpt><trkpt lat="43.2642067" lon="11.8520833"><ele>264.0</ele><time>2026-04-03T12:32:16.059Z</time></trkpt><trkpt lat="43.2640367" lon="11.8521317"><ele>261.0</ele><time>2026-04-03T12:32:17.059Z</time></trkpt><trkpt lat="43.2638683" lon="11.8521783"><ele>258.0</ele><time>2026-04-03T12:32:18.06Z</time></trkpt><trkpt lat="43.263705" lon="11.85222"><ele>255.0</ele><time>2026-04-03T12:32:19.06Z</time></trkpt><trkpt lat="43.263535" lon="11.8522683"><ele>255.0</ele><time>2026-04-03T12:32:20.059Z</time></trkpt><trkpt lat="43.2633483" lon="11.8523083"><ele>255.0</ele><time>2026-04-03T12:32:21.059Z</time></trkpt><trkpt lat="43.2631683" lon="11.8523517"><ele>255.0</ele><time>2026-04-03T12:32:22.059Z</time></trkpt><trkpt lat="43.2629983" lon="11.852395"><ele>253.33333333333331</ele><time>2026-04-03T12:32:23.059Z</time></trkpt><trkpt lat="43.2628317" lon="11.852445"><ele>251.66666666666666</ele><time>2026-04-03T12:32:24.059Z</time></trkpt><trkpt lat="43.2626717" lon="11.85249"><ele>250.0</ele><time>2026-04-03T12:32:25.059Z</time></trkpt><trkpt lat="43.262525" lon="11.8525333"><ele>250.0</ele><time>2026-04-03T12:32:26.06Z</time></trkpt><trkpt lat="43.2623883" lon="11.8525667"><ele>250.0</ele><time>2026-04-03T12:32:27.059Z</time></trkpt><trkpt lat="43.262255" lon="11.8526133"><ele>250.0</ele><time>2026-04-03T12:32:28.059Z</time></trkpt><trkpt lat="43.2621333" lon="11.8526517"><ele>250.0</ele><time>2026-04-03T12:32:29.059Z</time></trkpt><trkpt lat="43.2620117" lon="11.85268"><ele>248.25</ele><time>2026-04-03T12:32:30.059Z</time></trkpt><trkpt lat="43.2619017" lon="11.8527083"><ele>246.5</ele><time>2026-04-03T12:32:31.059Z</time></trkpt><trkpt lat="43.261785" lon="11.852725"><ele>244.75</ele><time>2026-04-03T12:32:32.059Z</time></trkpt><trkpt lat="43.2616767" lon="11.8527"><ele>243.0</ele><time>2026-04-03T12:32:33.059Z</time></trkpt><trkpt lat="43.2615617" lon="11.852655"><ele>242.75</ele><time>2026-04-03T12:32:34.06Z</time></trkpt><trkpt lat="43.2614433" lon="11.85258"><ele>242.5</ele><time>2026-04-03T12:32:35.06Z</time></trkpt><trkpt lat="43.2613267" lon="11.8524683"><ele>242.25</ele><time>2026-04-03T12:32:36.059Z</time></trkpt><trkpt lat="43.2612067" lon="11.85235"><ele>242.0</ele><time>2026-04-03T12:32:37.059Z</time></trkpt><trkpt lat="43.2610967" lon="11.8522383"><ele>242.0</ele><time>2026-04-03T12:32:38.059Z</time></trkpt><trkpt lat="43.2609983" lon="11.85214"><ele>242.0</ele><time>2026-04-03T12:32:39.059Z</time></trkpt><trkpt lat="43.26091" lon="11.8520567"><ele>242.0</ele><time>2026-04-03T12:32:40.059Z</time></trkpt><trkpt lat="43.2608333" lon="11.851985"><ele>242.0</ele><time>2026-04-03T12:32:41.059Z</time></trkpt><trkpt lat="43.2607517" lon="11.851935"><ele>242.0</ele><time>2026-04-03T12:32:42.06Z</time></trkpt><trkpt lat="43.2606867" lon="11.8519067"><ele>242.0</ele><time>2026-04-03T12:32:43.059Z</time></trkpt><trkpt lat="43.260585" lon="11.8519317"><ele>242.0</ele><time>2026-04-03T12:32:45.059Z</time></trkpt><trkpt lat="43.2605333" lon="11.8519917"><ele>242.0</ele><time>2026-04-03T12:32:46.059Z</time></trkpt><trkpt lat="43.26047" lon="11.8520867"><ele>242.0</ele><time>2026-04-03T12:32:47.059Z</time></trkpt><trkpt lat="43.2603967" lon="11.8522067"><ele>242.0</ele><time>2026-04-03T12:32:48.06Z</time></trkpt><trkpt lat="43.260305" lon="11.8523367"><ele>242.0</ele><time>2026-04-03T12:32:49.06Z</time></trkpt><trkpt lat="43.260205" lon="11.8524683"><ele>242.0</ele><time>2026-04-03T12:32:50.059Z</time></trkpt><trkpt lat="43.2601133" lon="11.8526067"><ele>242.0</ele><time>2026-04-03T12:32:51.059Z</time></trkpt><trkpt lat="43.2600167" lon="11.8527517"><ele>242.0</ele><time>2026-04-03T12:32:52.059Z</time></trkpt><trkpt lat="43.2599133" lon="11.8529117"><ele>242.66666666666669</ele><time>2026-04-03T12:32:53.059Z</time></trkpt><trkpt lat="43.259825" lon="11.8530833"><ele>243.33333333333331</ele><time>2026-04-03T12:32:54.059Z</time></trkpt><trkpt lat="43.259745" lon="11.8532633"><ele>244.0</ele><time>2026-04-03T12:32:55.059Z</time></trkpt><trkpt lat="43.2596717" lon="11.8534467"><ele>244.0</ele><time>2026-04-03T12:32:56.059Z</time></trkpt><trkpt lat="43.2595983" lon="11.8536383"><ele>244.0</ele><time>2026-04-03T12:32:57.059Z</time></trkpt><trkpt lat="43.2595367" lon="11.853835"><ele>244.0</ele><time>2026-04-03T12:32:58.059Z</time></trkpt><trkpt lat="43.25948" lon="11.8540417"><ele>244.0</ele><time>2026-04-03T12:32:59.059Z</time></trkpt><trkpt lat="43.259435" lon="11.8542467"><ele>244.0</ele><time>2026-04-03T12:33:00.059Z</time></trkpt><trkpt lat="43.2594017" lon="11.8544583"><ele>244.0</ele><time>2026-04-03T12:33:01.059Z</time></trkpt><trkpt lat="43.2593733" lon="11.8546667"><ele>243.66666666666666</ele><time>2026-04-03T12:33:02.059Z</time></trkpt><trkpt lat="43.2593533" lon="11.8548783"><ele>243.33333333333331</ele><time>2026-04-03T12:33:03.059Z</time></trkpt><trkpt lat="43.2593467" lon="11.8550883"><ele>243.0</ele><time>2026-04-03T12:33:04.059Z</time></trkpt><trkpt lat="43.2593517" lon="11.8552983"><ele>243.0</ele><time>2026-04-03T12:33:05.06Z</time></trkpt><trkpt lat="43.2593583" lon="11.8555067"><ele>243.0</ele><time>2026-04-03T12:33:06.059Z</time></trkpt><trkpt lat="43.2593767" lon="11.8557067"><ele>243.0</ele><time>2026-04-03T12:33:07.06Z</time></trkpt><trkpt lat="43.2593983" lon="11.8559067"><ele>243.0</ele><time>2026-04-03T12:33:08.059Z</time></trkpt><trkpt lat="43.2594383" lon="11.8560933"><ele>243.25</ele><time>2026-04-03T12:33:09.059Z</time></trkpt><trkpt lat="43.259485" lon="11.8562667"><ele>243.5</ele><time>2026-04-03T12:33:10.059Z</time></trkpt><trkpt lat="43.2595367" lon="11.8564233"><ele>243.75</ele><time>2026-04-03T12:33:11.059Z</time></trkpt><trkpt lat="43.2595967" lon="11.856565"><ele>244.0</ele><time>2026-04-03T12:33:12.059Z</time></trkpt><trkpt lat="43.2596483" lon="11.856695"><ele>243.99999999999997</ele><time>2026-04-03T12:33:13.06Z</time></trkpt><trkpt lat="43.2596933" lon="11.8567983"><ele>244.0</ele><time>2026-04-03T12:33:14.059Z</time></trkpt><trkpt lat="43.2597267" lon="11.8568783"><ele>244.0</ele><time>2026-04-03T12:33:15.059Z</time></trkpt><trkpt lat="43.2597617" lon="11.8569733"><ele>244.0</ele><time>2026-04-03T12:33:17.06Z</time></trkpt><trkpt lat="43.2598117" lon="11.8570267"><ele>243.99999999999997</ele><time>2026-04-03T12:33:19.06Z</time></trkpt><trkpt lat="43.2598983" lon="11.8571667"><ele>244.0</ele><time>2026-04-03T12:33:21.059Z</time></trkpt><trkpt lat="43.2599533" lon="11.857265"><ele>244.0</ele><time>2026-04-03T12:33:22.059Z</time></trkpt><trkpt lat="43.2600117" lon="11.8573783"><ele>244.0</ele><time>2026-04-03T12:33:23.059Z</time></trkpt><trkpt lat="43.26008" lon="11.8575"><ele>244.0</ele><time>2026-04-03T12:33:24.06Z</time></trkpt><trkpt lat="43.2601667" lon="11.8576167"><ele>244.0</ele><time>2026-04-03T12:33:25.06Z</time></trkpt><trkpt lat="43.26025" lon="11.8577433"><ele>244.0</ele><time>2026-04-03T12:33:26.059Z</time></trkpt><trkpt lat="43.2603383" lon="11.8578867"><ele>244.0</ele><time>2026-04-03T12:33:27.059Z</time></trkpt><trkpt lat="43.2604417" lon="11.8580417"><ele>244.0</ele><time>2026-04-03T12:33:28.059Z</time></trkpt><trkpt lat="43.2605383" lon="11.8581933"><ele>244.0</ele><time>2026-04-03T12:33:29.059Z</time></trkpt><trkpt lat="43.2606483" lon="11.8583567"><ele>244.0</ele><time>2026-04-03T12:33:30.059Z</time></trkpt><trkpt lat="43.26077" lon="11.8585367"><ele>244.0</ele><time>2026-04-03T12:33:31.059Z</time></trkpt><trkpt lat="43.26089" lon="11.8587167"><ele>244.0</ele><time>2026-04-03T12:33:32.06Z</time></trkpt><trkpt lat="43.26101" lon="11.8589"><ele>244.0</ele><time>2026-04-03T12:33:33.059Z</time></trkpt><trkpt lat="43.2611233" lon="11.8590867"><ele>244.0</ele><time>2026-04-03T12:33:34.059Z</time></trkpt><trkpt lat="43.26125" lon="11.859285"><ele>244.0</ele><time>2026-04-03T12:33:35.06Z</time></trkpt><trkpt lat="43.2613767" lon="11.8594867"><ele>243.66666666666666</ele><time>2026-04-03T12:33:36.06Z</time></trkpt><trkpt lat="43.2615017" lon="11.8596967"><ele>243.33333333333331</ele><time>2026-04-03T12:33:37.059Z</time></trkpt><trkpt lat="43.2616317" lon="11.8599017"><ele>243.0</ele><time>2026-04-03T12:33:38.059Z</time></trkpt><trkpt lat="43.261765" lon="11.8601117"><ele>243.33333333333331</ele><time>2026-04-03T12:33:39.059Z</time></trkpt><trkpt lat="43.261895" lon="11.8603283"><ele>243.66666666666666</ele><time>2026-04-03T12:33:40.059Z</time></trkpt><trkpt lat="43.2620267" lon="11.86055"><ele>244.0</ele><time>2026-04-03T12:33:41.059Z</time></trkpt><trkpt lat="43.26217" lon="11.8607617"><ele>244.0</ele><time>2026-04-03T12:33:42.059Z</time></trkpt><trkpt lat="43.2623167" lon="11.86098"><ele>244.0</ele><time>2026-04-03T12:33:43.059Z</time></trkpt><trkpt lat="43.262465" lon="11.8611867"><ele>244.0</ele><time>2026-04-03T12:33:44.059Z</time></trkpt><trkpt lat="43.262605" lon="11.8614017"><ele>244.0</ele><time>2026-04-03T12:33:45.06Z</time></trkpt><trkpt lat="43.26274" lon="11.8616233"><ele>244.0</ele><time>2026-04-03T12:33:46.059Z</time></trkpt><trkpt lat="43.26285" lon="11.8618617"><ele>244.0</ele><time>2026-04-03T12:33:47.059Z</time></trkpt><trkpt lat="43.2629367" lon="11.8621267"><ele>244.0</ele><time>2026-04-03T12:33:48.06Z</time></trkpt><trkpt lat="43.2630083" lon="11.8624117"><ele>244.0</ele><time>2026-04-03T12:33:49.06Z</time></trkpt><trkpt lat="43.2630633" lon="11.8626983"><ele>244.0</ele><time>2026-04-03T12:33:50.059Z</time></trkpt><trkpt lat="43.2631167" lon="11.86299"><ele>244.0</ele><time>2026-04-03T12:33:51.059Z</time></trkpt><trkpt lat="43.2631783" lon="11.86328"><ele>244.0</ele><time>2026-04-03T12:33:52.059Z</time></trkpt><trkpt lat="43.26323" lon="11.8635767"><ele>244.0</ele><time>2026-04-03T12:33:53.06Z</time></trkpt><trkpt lat="43.26329" lon="11.8638717"><ele>244.0</ele><time>2026-04-03T12:33:54.06Z</time></trkpt><trkpt lat="43.2633533" lon="11.8641683"><ele>244.0</ele><time>2026-04-03T12:33:55.059Z</time></trkpt><trkpt lat="43.2634233" lon="11.8644583"><ele>244.0</ele><time>2026-04-03T12:33:56.059Z</time></trkpt><trkpt lat="43.2634983" lon="11.8647467"><ele>244.0</ele><time>2026-04-03T12:33:57.059Z</time></trkpt><trkpt lat="43.263565" lon="11.8650333"><ele>244.0</ele><time>2026-04-03T12:33:58.059Z</time></trkpt><trkpt lat="43.2636183" lon="11.8653333"><ele>244.0</ele><time>2026-04-03T12:33:59.06Z</time></trkpt><trkpt lat="43.2636717" lon="11.8656333"><ele>244.33333333333331</ele><time>2026-04-03T12:34:00.059Z</time></trkpt><trkpt lat="43.2637317" lon="11.8659267"><ele>244.66666666666669</ele><time>2026-04-03T12:34:01.06Z</time></trkpt><trkpt lat="43.26378" lon="11.8662167"><ele>245.0</ele><time>2026-04-03T12:34:02.06Z</time></trkpt><trkpt lat="43.2638267" lon="11.86651"><ele>245.0</ele><time>2026-04-03T12:34:03.059Z</time></trkpt><trkpt lat="43.26388" lon="11.8667783"><ele>245.0</ele><time>2026-04-03T12:34:04.059Z</time></trkpt><trkpt lat="43.263935" lon="11.8670217"><ele>245.0</ele><time>2026-04-03T12:34:05.058Z</time></trkpt><trkpt lat="43.2639883" lon="11.8672467"><ele>245.0</ele><time>2026-04-03T12:34:06.058Z</time></trkpt><trkpt lat="43.2640433" lon="11.86749"><ele>245.0</ele><time>2026-04-03T12:34:07.059Z</time></trkpt><trkpt lat="43.26411" lon="11.8677333"><ele>245.0</ele><time>2026-04-03T12:34:08.058Z</time></trkpt><trkpt lat="43.2641783" lon="11.8679817"><ele>245.0</ele><time>2026-04-03T12:34:09.058Z</time></trkpt><trkpt lat="43.26425" lon="11.8682417"><ele>245.0</ele><time>2026-04-03T12:34:10.058Z</time></trkpt><trkpt lat="43.2643217" lon="11.8685017"><ele>245.0</ele><time>2026-04-03T12:34:11.058Z</time></trkpt><trkpt lat="43.2643917" lon="11.86877"><ele>245.0</ele><time>2026-04-03T12:34:12.058Z</time></trkpt><trkpt lat="43.26445" lon="11.869055"><ele>245.0</ele><time>2026-04-03T12:34:13.058Z</time></trkpt><trkpt lat="43.26451" lon="11.86934"><ele>245.0</ele><time>2026-04-03T12:34:14.058Z</time></trkpt><trkpt lat="43.264565" lon="11.8696233"><ele>245.0</ele><time>2026-04-03T12:34:15.058Z</time></trkpt><trkpt lat="43.26463" lon="11.8699117"><ele>245.0</ele><time>2026-04-03T12:34:16.058Z</time></trkpt><trkpt lat="43.2646967" lon="11.870195"><ele>245.0</ele><time>2026-04-03T12:34:17.058Z</time></trkpt><trkpt lat="43.2647633" lon="11.87048"><ele>245.0</ele><time>2026-04-03T12:34:18.058Z</time></trkpt><trkpt lat="43.26483" lon="11.8707667"><ele>245.0</ele><time>2026-04-03T12:34:19.058Z</time></trkpt><trkpt lat="43.264895" lon="11.8710617"><ele>245.0</ele><time>2026-04-03T12:34:20.059Z</time></trkpt><trkpt lat="43.264965" lon="11.8713483"><ele>245.0</ele><time>2026-04-03T12:34:21.059Z</time></trkpt><trkpt lat="43.2650267" lon="11.8716483"><ele>245.0</ele><time>2026-04-03T12:34:22.059Z</time></trkpt><trkpt lat="43.2650967" lon="11.8719483"><ele>244.5</ele><time>2026-04-03T12:34:23.059Z</time></trkpt><trkpt lat="43.26517" lon="11.8722517"><ele>244.0</ele><time>2026-04-03T12:34:24.058Z</time></trkpt><trkpt lat="43.265235" lon="11.8725533"><ele>244.5</ele><time>2026-04-03T12:34:25.058Z</time></trkpt><trkpt lat="43.2652967" lon="11.8728567"><ele>245.0</ele><time>2026-04-03T12:34:26.058Z</time></trkpt><trkpt lat="43.2653667" lon="11.873155"><ele>246.5</ele><time>2026-04-03T12:34:27.058Z</time></trkpt><trkpt lat="43.2654367" lon="11.873455"><ele>248.0</ele><time>2026-04-03T12:34:28.059Z</time></trkpt><trkpt lat="43.26551" lon="11.8737467"><ele>248.0</ele><time>2026-04-03T12:34:29.059Z</time></trkpt><trkpt lat="43.2655767" lon="11.8740383"><ele>248.0</ele><time>2026-04-03T12:34:30.058Z</time></trkpt><trkpt lat="43.2656533" lon="11.8743233"><ele>248.0</ele><time>2026-04-03T12:34:31.058Z</time></trkpt><trkpt lat="43.26574" lon="11.8746067"><ele>247.0</ele><time>2026-04-03T12:34:32.058Z</time></trkpt><trkpt lat="43.265815" lon="11.8749017"><ele>246.0</ele><time>2026-04-03T12:34:33.059Z</time></trkpt><trkpt lat="43.2658983" lon="11.8751917"><ele>244.5</ele><time>2026-04-03T12:34:34.058Z</time></trkpt><trkpt lat="43.265985" lon="11.8754783"><ele>243.0</ele><time>2026-04-03T12:34:35.058Z</time></trkpt><trkpt lat="43.2660783" lon="11.87576"><ele>243.33333333333331</ele><time>2026-04-03T12:34:36.059Z</time></trkpt><trkpt lat="43.2661717" lon="11.8760383"><ele>243.66666666666666</ele><time>2026-04-03T12:34:37.058Z</time></trkpt><trkpt lat="43.2662667" lon="11.876315"><ele>244.0</ele><time>2026-04-03T12:34:38.059Z</time></trkpt><trkpt lat="43.26636" lon="11.8765933"><ele>244.5</ele><time>2026-04-03T12:34:39.058Z</time></trkpt><trkpt lat="43.266455" lon="11.8768717"><ele>245.0</ele><time>2026-04-03T12:34:40.058Z</time></trkpt><trkpt lat="43.2665467" lon="11.87716"><ele>245.0</ele><time>2026-04-03T12:34:41.058Z</time></trkpt><trkpt lat="43.266645" lon="11.8774317"><ele>245.0</ele><time>2026-04-03T12:34:42.058Z</time></trkpt><trkpt lat="43.26675" lon="11.8777133"><ele>245.5</ele><time>2026-04-03T12:34:43.058Z</time></trkpt><trkpt lat="43.26687" lon="11.877985"><ele>246.0</ele><time>2026-04-03T12:34:44.058Z</time></trkpt><trkpt lat="43.26699" lon="11.8782583"><ele>246.0</ele><time>2026-04-03T12:34:45.058Z</time></trkpt><trkpt lat="43.26713" lon="11.8785183"><ele>246.0</ele><time>2026-04-03T12:34:46.059Z</time></trkpt><trkpt lat="43.2672783" lon="11.878765"><ele>244.5</ele><time>2026-04-03T12:34:47.059Z</time></trkpt><trkpt lat="43.2674233" lon="11.8790033"><ele>243.0</ele><time>2026-04-03T12:34:48.058Z</time></trkpt><trkpt lat="43.2675717" lon="11.8792467"><ele>243.5</ele><time>2026-04-03T12:34:49.059Z</time></trkpt><trkpt lat="43.2677167" lon="11.8794967"><ele>244.0</ele><time>2026-04-03T12:34:50.058Z</time></trkpt><trkpt lat="43.2678567" lon="11.8797467"><ele>244.0</ele><time>2026-04-03T12:34:51.058Z</time></trkpt><trkpt lat="43.268" lon="11.8799833"><ele>244.0</ele><time>2026-04-03T12:34:52.058Z</time></trkpt><trkpt lat="43.2681383" lon="11.88022"><ele>244.0</ele><time>2026-04-03T12:34:53.058Z</time></trkpt><trkpt lat="43.26829" lon="11.8804483"><ele>245.0</ele><time>2026-04-03T12:34:54.059Z</time></trkpt><trkpt lat="43.2684283" lon="11.88069"><ele>246.0</ele><time>2026-04-03T12:34:55.059Z</time></trkpt><trkpt lat="43.268575" lon="11.8809283"><ele>246.0</ele><time>2026-04-03T12:34:56.058Z</time></trkpt><trkpt lat="43.2687167" lon="11.8811717"><ele>246.0</ele><time>2026-04-03T12:34:57.059Z</time></trkpt><trkpt lat="43.268865" lon="11.8814167"><ele>245.5</ele><time>2026-04-03T12:34:58.059Z</time></trkpt><trkpt lat="43.2690133" lon="11.8816583"><ele>245.0</ele><time>2026-04-03T12:34:59.058Z</time></trkpt><trkpt lat="43.269155" lon="11.8819033"><ele>245.0</ele><time>2026-04-03T12:35:00.058Z</time></trkpt><trkpt lat="43.2693" lon="11.88215"><ele>245.0</ele><time>2026-04-03T12:35:01.058Z</time></trkpt><trkpt lat="43.2694383" lon="11.8823967"><ele>245.5</ele><time>2026-04-03T12:35:02.058Z</time></trkpt><trkpt lat="43.2695867" lon="11.8826517"><ele>246.0</ele><time>2026-04-03T12:35:03.059Z</time></trkpt><trkpt lat="43.2697417" lon="11.8829"><ele>246.5</ele><time>2026-04-03T12:35:04.058Z</time></trkpt><trkpt lat="43.2698933" lon="11.8831483"><ele>247.0</ele><time>2026-04-03T12:35:05.058Z</time></trkpt><trkpt lat="43.270045" lon="11.883385"><ele>246.0</ele><time>2026-04-03T12:35:06.059Z</time></trkpt><trkpt lat="43.27019" lon="11.883635"><ele>245.0</ele><time>2026-04-03T12:35:07.058Z</time></trkpt><trkpt lat="43.2703033" lon="11.8839017"><ele>245.0</ele><time>2026-04-03T12:35:08.058Z</time></trkpt><trkpt lat="43.2703883" lon="11.8841867"><ele>245.0</ele><time>2026-04-03T12:35:09.058Z</time></trkpt><trkpt lat="43.2704667" lon="11.8844783"><ele>245.5</ele><time>2026-04-03T12:35:10.059Z</time></trkpt><trkpt lat="43.2705517" lon="11.8847667"><ele>246.0</ele><time>2026-04-03T12:35:11.059Z</time></trkpt><trkpt lat="43.2706283" lon="11.8850583"><ele>246.0</ele><time>2026-04-03T12:35:12.059Z</time></trkpt><trkpt lat="43.270715" lon="11.885345"><ele>246.0</ele><time>2026-04-03T12:35:13.058Z</time></trkpt><trkpt lat="43.2708067" lon="11.8856267"><ele>246.0</ele><time>2026-04-03T12:35:14.059Z</time></trkpt><trkpt lat="43.270895" lon="11.88591"><ele>246.0</ele><time>2026-04-03T12:35:15.058Z</time></trkpt><trkpt lat="43.2709867" lon="11.8862017"><ele>245.5</ele><time>2026-04-03T12:35:16.059Z</time></trkpt><trkpt lat="43.271075" lon="11.886495"><ele>245.0</ele><time>2026-04-03T12:35:17.059Z</time></trkpt><trkpt lat="43.2711683" lon="11.8867883"><ele>245.0</ele><time>2026-04-03T12:35:18.058Z</time></trkpt><trkpt lat="43.2712567" lon="11.887075"><ele>245.0</ele><time>2026-04-03T12:35:19.059Z</time></trkpt><trkpt lat="43.271345" lon="11.887365"><ele>245.66666666666669</ele><time>2026-04-03T12:35:20.058Z</time></trkpt><trkpt lat="43.2714267" lon="11.8876483"><ele>246.33333333333331</ele><time>2026-04-03T12:35:21.058Z</time></trkpt><trkpt lat="43.2715117" lon="11.88792"><ele>247.0</ele><time>2026-04-03T12:35:22.058Z</time></trkpt><trkpt lat="43.2715883" lon="11.8881967"><ele>247.0</ele><time>2026-04-03T12:35:23.058Z</time></trkpt><trkpt lat="43.2716517" lon="11.8884833"><ele>247.0</ele><time>2026-04-03T12:35:24.058Z</time></trkpt><trkpt lat="43.2717033" lon="11.8887783"><ele>247.0</ele><time>2026-04-03T12:35:25.058Z</time></trkpt><trkpt lat="43.2717433" lon="11.8890783"><ele>246.0</ele><time>2026-04-03T12:35:26.058Z</time></trkpt><trkpt lat="43.2717783" lon="11.889385"><ele>245.0</ele><time>2026-04-03T12:35:27.059Z</time></trkpt><trkpt lat="43.2718067" lon="11.8896917"><ele>245.0</ele><time>2026-04-03T12:35:28.058Z</time></trkpt><trkpt lat="43.27184" lon="11.889985"><ele>245.0</ele><time>2026-04-03T12:35:29.058Z</time></trkpt><trkpt lat="43.2718733" lon="11.890275"><ele>245.0</ele><time>2026-04-03T12:35:30.058Z</time></trkpt><trkpt lat="43.2719083" lon="11.8905683"><ele>245.33333333333334</ele><time>2026-04-03T12:35:31.059Z</time></trkpt><trkpt lat="43.27194" lon="11.89086"><ele>245.66666666666669</ele><time>2026-04-03T12:35:32.058Z</time></trkpt><trkpt lat="43.27197" lon="11.891155"><ele>246.0</ele><time>2026-04-03T12:35:33.059Z</time></trkpt><trkpt lat="43.2720033" lon="11.8914383"><ele>246.0</ele><time>2026-04-03T12:35:34.059Z</time></trkpt><trkpt lat="43.27204" lon="11.8917317"><ele>246.0</ele><time>2026-04-03T12:35:35.058Z</time></trkpt><trkpt lat="43.2720733" lon="11.8920233"><ele>246.0</ele><time>2026-04-03T12:35:36.058Z</time></trkpt><trkpt lat="43.2721183" lon="11.89232"><ele>246.33333333333331</ele><time>2026-04-03T12:35:37.058Z</time></trkpt><trkpt lat="43.2721567" lon="11.8926083"><ele>246.66666666666666</ele><time>2026-04-03T12:35:38.058Z</time></trkpt><trkpt lat="43.2721967" lon="11.8929033"><ele>247.0</ele><time>2026-04-03T12:35:39.059Z</time></trkpt><trkpt lat="43.2722383" lon="11.8931983"><ele>246.66666666666666</ele><time>2026-04-03T12:35:40.059Z</time></trkpt><trkpt lat="43.2722767" lon="11.8934883"><ele>246.33333333333331</ele><time>2026-04-03T12:35:41.058Z</time></trkpt><trkpt lat="43.2723167" lon="11.8937917"><ele>246.0</ele><time>2026-04-03T12:35:42.059Z</time></trkpt><trkpt lat="43.2723483" lon="11.8940883"><ele>246.0</ele><time>2026-04-03T12:35:43.058Z</time></trkpt><trkpt lat="43.2723817" lon="11.89439"><ele>246.0</ele><time>2026-04-03T12:35:44.058Z</time></trkpt><trkpt lat="43.2724167" lon="11.8946983"><ele>246.0</ele><time>2026-04-03T12:35:45.058Z</time></trkpt><trkpt lat="43.2724583" lon="11.8949933"><ele>245.66666666666669</ele><time>2026-04-03T12:35:46.058Z</time></trkpt><trkpt lat="43.27249" lon="11.8953"><ele>245.33333333333334</ele><time>2026-04-03T12:35:47.058Z</time></trkpt><trkpt lat="43.2725217" lon="11.8956"><ele>245.0</ele><time>2026-04-03T12:35:48.058Z</time></trkpt><trkpt lat="43.27256" lon="11.8959017"><ele>245.0</ele><time>2026-04-03T12:35:49.058Z</time></trkpt><trkpt lat="43.2725917" lon="11.8961783"><ele>245.0</ele><time>2026-04-03T12:35:50.058Z</time></trkpt><trkpt lat="43.2726217" lon="11.8964333"><ele>245.0</ele><time>2026-04-03T12:35:51.058Z</time></trkpt><trkpt lat="43.2726567" lon="11.896655"><ele>245.0</ele><time>2026-04-03T12:35:52.058Z</time></trkpt><trkpt lat="43.2727017" lon="11.8968483"><ele>245.0</ele><time>2026-04-03T12:35:53.058Z</time></trkpt><trkpt lat="43.27277" lon="11.89701"><ele>245.0</ele><time>2026-04-03T12:35:54.058Z</time></trkpt><trkpt lat="43.2728883" lon="11.897135"><ele>245.0</ele><time>2026-04-03T12:35:55.058Z</time></trkpt><trkpt lat="43.273025" lon="11.8972183"><ele>245.0</ele><time>2026-04-03T12:35:56.059Z</time></trkpt><trkpt lat="43.2731767" lon="11.8972967"><ele>245.0</ele><time>2026-04-03T12:35:57.058Z</time></trkpt><trkpt lat="43.27333" lon="11.8973667"><ele>245.0</ele><time>2026-04-03T12:35:58.059Z</time></trkpt><trkpt lat="43.273485" lon="11.8974483"><ele>245.0</ele><time>2026-04-03T12:35:59.058Z</time></trkpt><trkpt lat="43.2736433" lon="11.8975283"><ele>245.0</ele><time>2026-04-03T12:36:00.058Z</time></trkpt><trkpt lat="43.2738067" lon="11.8976083"><ele>245.0</ele><time>2026-04-03T12:36:01.059Z</time></trkpt><trkpt lat="43.273975" lon="11.897695"><ele>245.33333333333334</ele><time>2026-04-03T12:36:02.058Z</time></trkpt><trkpt lat="43.274145" lon="11.89778"><ele>245.66666666666669</ele><time>2026-04-03T12:36:03.058Z</time></trkpt><trkpt lat="43.2743083" lon="11.8978683"><ele>246.0</ele><time>2026-04-03T12:36:04.058Z</time></trkpt><trkpt lat="43.2744733" lon="11.8979567"><ele>246.0</ele><time>2026-04-03T12:36:05.058Z</time></trkpt><trkpt lat="43.27465" lon="11.8980517"><ele>246.0</ele><time>2026-04-03T12:36:06.058Z</time></trkpt><trkpt lat="43.2748333" lon="11.8981333"><ele>246.0</ele><time>2026-04-03T12:36:07.059Z</time></trkpt><trkpt lat="43.2750117" lon="11.89823"><ele>245.66666666666669</ele><time>2026-04-03T12:36:08.058Z</time></trkpt><trkpt lat="43.27518" lon="11.89833"><ele>245.33333333333334</ele><time>2026-04-03T12:36:09.059Z</time></trkpt><trkpt lat="43.27535" lon="11.898435"><ele>245.0</ele><time>2026-04-03T12:36:10.058Z</time></trkpt><trkpt lat="43.2755267" lon="11.8985233"><ele>244.66666666666669</ele><time>2026-04-03T12:36:11.059Z</time></trkpt><trkpt lat="43.2757017" lon="11.898615"><ele>244.33333333333331</ele><time>2026-04-03T12:36:12.058Z</time></trkpt><trkpt lat="43.275875" lon="11.8987"><ele>244.0</ele><time>2026-04-03T12:36:13.058Z</time></trkpt><trkpt lat="43.276035" lon="11.8987733"><ele>244.0</ele><time>2026-04-03T12:36:14.058Z</time></trkpt><trkpt lat="43.27618" lon="11.8988417"><ele>244.0</ele><time>2026-04-03T12:36:15.059Z</time></trkpt><trkpt lat="43.2763083" lon="11.8989283"><ele>244.0</ele><time>2026-04-03T12:36:16.058Z</time></trkpt><trkpt lat="43.2764233" lon="11.8990383"><ele>244.0</ele><time>2026-04-03T12:36:17.058Z</time></trkpt><trkpt lat="43.276525" lon="11.8991683"><ele>244.25</ele><time>2026-04-03T12:36:18.058Z</time></trkpt><trkpt lat="43.2766217" lon="11.8993167"><ele>244.5</ele><time>2026-04-03T12:36:19.058Z</time></trkpt><trkpt lat="43.2766933" lon="11.8994933"><ele>244.75</ele><time>2026-04-03T12:36:20.058Z</time></trkpt><trkpt lat="43.2767517" lon="11.8996833"><ele>245.0</ele><time>2026-04-03T12:36:21.058Z</time></trkpt><trkpt lat="43.27679" lon="11.8998933"><ele>244.33333333333334</ele><time>2026-04-03T12:36:22.058Z</time></trkpt><trkpt lat="43.2768" lon="11.9001233"><ele>243.66666666666669</ele><time>2026-04-03T12:36:23.059Z</time></trkpt><trkpt lat="43.2767817" lon="11.9003683"><ele>243.0</ele><time>2026-04-03T12:36:24.058Z</time></trkpt><trkpt lat="43.276745" lon="11.9006217"><ele>243.0</ele><time>2026-04-03T12:36:25.058Z</time></trkpt><trkpt lat="43.2766933" lon="11.900875"><ele>243.0</ele><time>2026-04-03T12:36:26.058Z</time></trkpt><trkpt lat="43.2766333" lon="11.9011317"><ele>243.0</ele><time>2026-04-03T12:36:27.059Z</time></trkpt><trkpt lat="43.276575" lon="11.90139"><ele>243.0</ele><time>2026-04-03T12:36:28.058Z</time></trkpt><trkpt lat="43.276515" lon="11.9016483"><ele>243.0</ele><time>2026-04-03T12:36:29.059Z</time></trkpt><trkpt lat="43.276455" lon="11.9019183"><ele>243.0</ele><time>2026-04-03T12:36:30.059Z</time></trkpt><trkpt lat="43.2763917" lon="11.9021817"><ele>243.66666666666669</ele><time>2026-04-03T12:36:31.058Z</time></trkpt><trkpt lat="43.276325" lon="11.9024517"><ele>244.33333333333334</ele><time>2026-04-03T12:36:32.059Z</time></trkpt><trkpt lat="43.276265" lon="11.90273"><ele>245.0</ele><time>2026-04-03T12:36:33.058Z</time></trkpt><trkpt lat="43.2762033" lon="11.90301"><ele>245.0</ele><time>2026-04-03T12:36:34.058Z</time></trkpt><trkpt lat="43.2761367" lon="11.9032883"><ele>245.0</ele><time>2026-04-03T12:36:35.058Z</time></trkpt><trkpt lat="43.2760733" lon="11.9035383"><ele>245.0</ele><time>2026-04-03T12:36:36.058Z</time></trkpt><trkpt lat="43.2760233" lon="11.9037683"><ele>245.0</ele><time>2026-04-03T12:36:37.058Z</time></trkpt><trkpt lat="43.2759867" lon="11.9039833"><ele>245.0</ele><time>2026-04-03T12:36:38.058Z</time></trkpt><trkpt lat="43.2759933" lon="11.9041983"><ele>245.0</ele><time>2026-04-03T12:36:39.058Z</time></trkpt><trkpt lat="43.2760267" lon="11.904395"><ele>245.25</ele><time>2026-04-03T12:36:40.058Z</time></trkpt><trkpt lat="43.2761083" lon="11.904555"><ele>245.5</ele><time>2026-04-03T12:36:41.058Z</time></trkpt><trkpt lat="43.2762333" lon="11.9046767"><ele>245.75</ele><time>2026-04-03T12:36:42.058Z</time></trkpt><trkpt lat="43.2763767" lon="11.9047483"><ele>246.0</ele><time>2026-04-03T12:36:43.059Z</time></trkpt><trkpt lat="43.2765267" lon="11.90481"><ele>246.33333333333331</ele><time>2026-04-03T12:36:44.059Z</time></trkpt><trkpt lat="43.2766833" lon="11.9048567"><ele>246.66666666666666</ele><time>2026-04-03T12:36:45.058Z</time></trkpt><trkpt lat="43.276835" lon="11.9048917"><ele>247.0</ele><time>2026-04-03T12:36:46.058Z</time></trkpt><trkpt lat="43.2769983" lon="11.90493"><ele>247.0</ele><time>2026-04-03T12:36:47.058Z</time></trkpt><trkpt lat="43.2771633" lon="11.9049683"><ele>247.0</ele><time>2026-04-03T12:36:48.058Z</time></trkpt><trkpt lat="43.27733" lon="11.9050183"><ele>247.0</ele><time>2026-04-03T12:36:49.058Z</time></trkpt><trkpt lat="43.277505" lon="11.9050817"><ele>247.66666666666666</ele><time>2026-04-03T12:36:50.058Z</time></trkpt><trkpt lat="43.277685" lon="11.9051383"><ele>248.33333333333331</ele><time>2026-04-03T12:36:51.059Z</time></trkpt><trkpt lat="43.2778633" lon="11.9052"><ele>249.0</ele><time>2026-04-03T12:36:52.058Z</time></trkpt><trkpt lat="43.2780417" lon="11.9052533"><ele>249.0</ele><time>2026-04-03T12:36:53.058Z</time></trkpt><trkpt lat="43.2782183" lon="11.9053"><ele>249.0</ele><time>2026-04-03T12:36:54.058Z</time></trkpt><trkpt lat="43.2784067" lon="11.9053533"><ele>249.0</ele><time>2026-04-03T12:36:55.058Z</time></trkpt><trkpt lat="43.2785933" lon="11.90541"><ele>249.0</ele><time>2026-04-03T12:36:56.058Z</time></trkpt><trkpt lat="43.2787817" lon="11.9054717"><ele>249.0</ele><time>2026-04-03T12:36:57.058Z</time></trkpt><trkpt lat="43.27898" lon="11.90553"><ele>249.0</ele><time>2026-04-03T12:36:58.058Z</time></trkpt><trkpt lat="43.2791617" lon="11.9056033"><ele>248.33333333333331</ele><time>2026-04-03T12:36:59.058Z</time></trkpt><trkpt lat="43.279375" lon="11.9056783"><ele>247.66666666666666</ele><time>2026-04-03T12:37:00.058Z</time></trkpt><trkpt lat="43.279585" lon="11.9057667"><ele>247.0</ele><time>2026-04-03T12:37:01.058Z</time></trkpt><trkpt lat="43.2797867" lon="11.905855"><ele>247.0</ele><time>2026-04-03T12:37:02.058Z</time></trkpt><trkpt lat="43.279995" lon="11.9059583"><ele>247.0</ele><time>2026-04-03T12:37:03.058Z</time></trkpt><trkpt lat="43.2801983" lon="11.9060583"><ele>247.0</ele><time>2026-04-03T12:37:04.058Z</time></trkpt><trkpt lat="43.2804133" lon="11.9061567"><ele>247.0</ele><time>2026-04-03T12:37:05.058Z</time></trkpt><trkpt lat="43.2806333" lon="11.9062667"><ele>247.0</ele><time>2026-04-03T12:37:06.059Z</time></trkpt><trkpt lat="43.280855" lon="11.906365"><ele>247.0</ele><time>2026-04-03T12:37:07.059Z</time></trkpt><trkpt lat="43.2810717" lon="11.9064683"><ele>247.0</ele><time>2026-04-03T12:37:08.059Z</time></trkpt><trkpt lat="43.2812917" lon="11.9065633"><ele>247.0</ele><time>2026-04-03T12:37:09.058Z</time></trkpt><trkpt lat="43.28149" lon="11.9066517"><ele>247.0</ele><time>2026-04-03T12:37:10.058Z</time></trkpt><trkpt lat="43.28166" lon="11.9067583"><ele>247.0</ele><time>2026-04-03T12:37:11.058Z</time></trkpt><trkpt lat="43.28181" lon="11.906915"><ele>247.0</ele><time>2026-04-03T12:37:12.058Z</time></trkpt><trkpt lat="43.2819517" lon="11.9071117"><ele>247.0</ele><time>2026-04-03T12:37:13.059Z</time></trkpt><trkpt lat="43.28207" lon="11.9073333"><ele>247.0</ele><time>2026-04-03T12:37:14.058Z</time></trkpt><trkpt lat="43.2821783" lon="11.90757"><ele>247.0</ele><time>2026-04-03T12:37:15.059Z</time></trkpt><trkpt lat="43.2822967" lon="11.9078183"><ele>247.0</ele><time>2026-04-03T12:37:16.058Z</time></trkpt><trkpt lat="43.2824183" lon="11.90806"><ele>247.0</ele><time>2026-04-03T12:37:17.058Z</time></trkpt><trkpt lat="43.2825467" lon="11.9083017"><ele>248.0</ele><time>2026-04-03T12:37:18.058Z</time></trkpt><trkpt lat="43.2826817" lon="11.9085367"><ele>249.0</ele><time>2026-04-03T12:37:19.058Z</time></trkpt><trkpt lat="43.282815" lon="11.9087733"><ele>250.0</ele><time>2026-04-03T12:37:20.058Z</time></trkpt><trkpt lat="43.2829567" lon="11.9090083"><ele>249.33333333333331</ele><time>2026-04-03T12:37:21.058Z</time></trkpt><trkpt lat="43.28308" lon="11.9092467"><ele>248.66666666666669</ele><time>2026-04-03T12:37:22.058Z</time></trkpt><trkpt lat="43.2831683" lon="11.909465"><ele>248.0</ele><time>2026-04-03T12:37:23.058Z</time></trkpt><trkpt lat="43.283215" lon="11.90971"><ele>247.33333333333334</ele><time>2026-04-03T12:37:24.058Z</time></trkpt><trkpt lat="43.28321" lon="11.909955"><ele>246.66666666666669</ele><time>2026-04-03T12:37:25.058Z</time></trkpt><trkpt lat="43.2831867" lon="11.9101983"><ele>246.0</ele><time>2026-04-03T12:37:26.058Z</time></trkpt><trkpt lat="43.2831417" lon="11.9104333"><ele>246.33333333333331</ele><time>2026-04-03T12:37:27.058Z</time></trkpt><trkpt lat="43.2830783" lon="11.9106483"><ele>246.66666666666666</ele><time>2026-04-03T12:37:28.059Z</time></trkpt><trkpt lat="43.2829917" lon="11.910835"><ele>247.0</ele><time>2026-04-03T12:37:29.058Z</time></trkpt><trkpt lat="43.2828983" lon="11.9109667"><ele>246.99999999999997</ele><time>2026-04-03T12:37:30.058Z</time></trkpt><trkpt lat="43.28283" lon="11.91105"><ele>247.0</ele><time>2026-04-03T12:37:31.058Z</time></trkpt><trkpt lat="43.2827733" lon="11.9110983"><ele>247.0</ele><time>2026-04-03T12:37:32.058Z</time></trkpt><trkpt lat="43.2826817" lon="11.9111617"><ele>247.0</ele><time>2026-04-03T12:37:34.059Z</time></trkpt><trkpt lat="43.282745" lon="11.911155"><ele>246.99999999999997</ele><time>2026-04-03T12:37:41.058Z</time></trkpt><trkpt lat="43.282805" lon="11.9110967"><ele>247.0</ele><time>2026-04-03T12:37:42.058Z</time></trkpt><trkpt lat="43.2828667" lon="11.9110333"><ele>246.99999999999997</ele><time>2026-04-03T12:37:43.059Z</time></trkpt><trkpt lat="43.282925" lon="11.9109617"><ele>247.0</ele><time>2026-04-03T12:37:44.058Z</time></trkpt><trkpt lat="43.2829767" lon="11.9108933"><ele>247.0</ele><time>2026-04-03T12:37:45.058Z</time></trkpt><trkpt lat="43.2830367" lon="11.91081"><ele>247.0</ele><time>2026-04-03T12:37:46.059Z</time></trkpt><trkpt lat="43.28309" lon="11.9107067"><ele>246.99999999999997</ele><time>2026-04-03T12:37:47.059Z</time></trkpt><trkpt lat="43.2831517" lon="11.9105967"><ele>247.0</ele><time>2026-04-03T12:37:48.058Z</time></trkpt><trkpt lat="43.2832017" lon="11.910465"><ele>246.75</ele><time>2026-04-03T12:37:49.058Z</time></trkpt><trkpt lat="43.2832417" lon="11.9103183"><ele>246.5</ele><time>2026-04-03T12:37:50.059Z</time></trkpt><trkpt lat="43.2832533" lon="11.9101467"><ele>246.25</ele><time>2026-04-03T12:37:51.058Z</time></trkpt><trkpt lat="43.2832583" lon="11.909965"><ele>246.0</ele><time>2026-04-03T12:37:52.058Z</time></trkpt><trkpt lat="43.28326" lon="11.9098067"><ele>246.0</ele><time>2026-04-03T12:37:53.057Z</time></trkpt><trkpt lat="43.2832417" lon="11.9096833"><ele>246.00000000000003</ele><time>2026-04-03T12:37:54.058Z</time></trkpt><trkpt lat="43.2832617" lon="11.9095667"><ele>246.00000000000003</ele><time>2026-04-03T12:37:56.057Z</time></trkpt><trkpt lat="43.2833567" lon="11.909635"><ele>246.0</ele><time>2026-04-03T12:38:00.058Z</time></trkpt><trkpt lat="43.2834083" lon="11.909795"><ele>246.0</ele><time>2026-04-03T12:38:02.057Z</time></trkpt><trkpt lat="43.28345" lon="11.9099033"><ele>246.0</ele><time>2026-04-03T12:38:03.058Z</time></trkpt><trkpt lat="43.2835033" lon="11.9100217"><ele>246.0</ele><time>2026-04-03T12:38:04.057Z</time></trkpt><trkpt lat="43.283565" lon="11.91015"><ele>246.0</ele><time>2026-04-03T12:38:05.057Z</time></trkpt><trkpt lat="43.2836233" lon="11.910285"><ele>246.0</ele><time>2026-04-03T12:38:06.057Z</time></trkpt><trkpt lat="43.28369" lon="11.9104367"><ele>246.0</ele><time>2026-04-03T12:38:07.057Z</time></trkpt><trkpt lat="43.2837533" lon="11.9105817"><ele>246.0</ele><time>2026-04-03T12:38:08.057Z</time></trkpt><trkpt lat="43.283825" lon="11.9107383"><ele>246.0</ele><time>2026-04-03T12:38:09.058Z</time></trkpt><trkpt lat="43.28389" lon="11.9109167"><ele>246.0</ele><time>2026-04-03T12:38:10.057Z</time></trkpt><trkpt lat="43.2839517" lon="11.9110967"><ele>245.8</ele><time>2026-04-03T12:38:11.057Z</time></trkpt><trkpt lat="43.284005" lon="11.9112633"><ele>245.60000000000002</ele><time>2026-04-03T12:38:12.057Z</time></trkpt><trkpt lat="43.284055" lon="11.9114117"><ele>245.4</ele><time>2026-04-03T12:38:13.057Z</time></trkpt><trkpt lat="43.2840917" lon="11.9115283"><ele>245.2</ele><time>2026-04-03T12:38:14.057Z</time></trkpt><trkpt lat="43.284125" lon="11.9116217"><ele>245.0</ele><time>2026-04-03T12:38:15.057Z</time></trkpt><trkpt lat="43.284165" lon="11.911735"><ele>245.0</ele><time>2026-04-03T12:38:17.057Z</time></trkpt><trkpt lat="43.28421" lon="11.9119033"><ele>245.0</ele><time>2026-04-03T12:38:43.057Z</time></trkpt><trkpt lat="43.2842467" lon="11.912005"><ele>245.0</ele><time>2026-04-03T12:38:44.057Z</time></trkpt><trkpt lat="43.28429" lon="11.9121283"><ele>245.0</ele><time>2026-04-03T12:38:45.057Z</time></trkpt><trkpt lat="43.2843433" lon="11.912275"><ele>245.0</ele><time>2026-04-03T12:38:46.057Z</time></trkpt><trkpt lat="43.2844067" lon="11.9124367"><ele>245.33333333333334</ele><time>2026-04-03T12:38:47.058Z</time></trkpt><trkpt lat="43.28447" lon="11.912615"><ele>245.66666666666669</ele><time>2026-04-03T12:38:48.058Z</time></trkpt><trkpt lat="43.2845333" lon="11.912805"><ele>246.0</ele><time>2026-04-03T12:38:49.057Z</time></trkpt><trkpt lat="43.2846033" lon="11.913"><ele>246.0</ele><time>2026-04-03T12:38:50.057Z</time></trkpt><trkpt lat="43.2846667" lon="11.9132133"><ele>246.0</ele><time>2026-04-03T12:38:51.057Z</time></trkpt><trkpt lat="43.284745" lon="11.9134183"><ele>246.0</ele><time>2026-04-03T12:38:52.057Z</time></trkpt><trkpt lat="43.2848167" lon="11.9136283"><ele>246.0</ele><time>2026-04-03T12:38:53.057Z</time></trkpt><trkpt lat="43.2849033" lon="11.91384"><ele>246.0</ele><time>2026-04-03T12:38:54.058Z</time></trkpt><trkpt lat="43.2849833" lon="11.9140583"><ele>246.0</ele><time>2026-04-03T12:38:55.057Z</time></trkpt><trkpt lat="43.2850733" lon="11.9142767"><ele>247.0</ele><time>2026-04-03T12:38:56.058Z</time></trkpt><trkpt lat="43.2851633" lon="11.9144967"><ele>248.0</ele><time>2026-04-03T12:38:57.057Z</time></trkpt><trkpt lat="43.2852467" lon="11.91471"><ele>249.0</ele><time>2026-04-03T12:38:58.058Z</time></trkpt><trkpt lat="43.2853167" lon="11.9149167"><ele>248.33333333333331</ele><time>2026-04-03T12:38:59.057Z</time></trkpt><trkpt lat="43.2853883" lon="11.9151117"><ele>247.66666666666666</ele><time>2026-04-03T12:39:00.057Z</time></trkpt><trkpt lat="43.2854617" lon="11.91529"><ele>247.0</ele><time>2026-04-03T12:39:01.057Z</time></trkpt><trkpt lat="43.2855383" lon="11.91547"><ele>246.5</ele><time>2026-04-03T12:39:02.057Z</time></trkpt><trkpt lat="43.2856067" lon="11.9156533"><ele>246.0</ele><time>2026-04-03T12:39:03.057Z</time></trkpt><trkpt lat="43.2856783" lon="11.9158217"><ele>245.5</ele><time>2026-04-03T12:39:04.057Z</time></trkpt><trkpt lat="43.2857517" lon="11.91599"><ele>245.0</ele><time>2026-04-03T12:39:05.058Z</time></trkpt><trkpt lat="43.285825" lon="11.9161633"><ele>245.0</ele><time>2026-04-03T12:39:06.057Z</time></trkpt><trkpt lat="43.285885" lon="11.91634"><ele>245.0</ele><time>2026-04-03T12:39:07.057Z</time></trkpt><trkpt lat="43.28595" lon="11.916515"><ele>245.0</ele><time>2026-04-03T12:39:08.057Z</time></trkpt><trkpt lat="43.2860217" lon="11.9166833"><ele>245.0</ele><time>2026-04-03T12:39:09.058Z</time></trkpt><trkpt lat="43.2860883" lon="11.9168567"><ele>245.25</ele><time>2026-04-03T12:39:10.057Z</time></trkpt><trkpt lat="43.286155" lon="11.9170133"><ele>245.5</ele><time>2026-04-03T12:39:11.057Z</time></trkpt><trkpt lat="43.286215" lon="11.9171617"><ele>245.75</ele><time>2026-04-03T12:39:12.058Z</time></trkpt><trkpt lat="43.28627" lon="11.9173017"><ele>246.0</ele><time>2026-04-03T12:39:13.057Z</time></trkpt><trkpt lat="43.2863183" lon="11.91744"><ele>246.0</ele><time>2026-04-03T12:39:14.058Z</time></trkpt><trkpt lat="43.2863767" lon="11.9175567"><ele>246.0</ele><time>2026-04-03T12:39:15.057Z</time></trkpt><trkpt lat="43.2864067" lon="11.9176683"><ele>246.0</ele><time>2026-04-03T12:39:16.057Z</time></trkpt><trkpt lat="43.28641" lon="11.9177783"><ele>246.0</ele><time>2026-04-03T12:39:17.057Z</time></trkpt><trkpt lat="43.28641" lon="11.9178867"><ele>246.0</ele><time>2026-04-03T12:39:18.057Z</time></trkpt><trkpt lat="43.2863967" lon="11.91801"><ele>246.0</ele><time>2026-04-03T12:39:19.057Z</time></trkpt><trkpt lat="43.2863833" lon="11.9181517"><ele>246.0</ele><time>2026-04-03T12:39:20.057Z</time></trkpt><trkpt lat="43.28638" lon="11.9183"><ele>246.0</ele><time>2026-04-03T12:39:21.057Z</time></trkpt><trkpt lat="43.28637" lon="11.9184683"><ele>246.0</ele><time>2026-04-03T12:39:22.057Z</time></trkpt><trkpt lat="43.2863567" lon="11.9186467"><ele>246.0</ele><time>2026-04-03T12:39:23.057Z</time></trkpt><trkpt lat="43.286345" lon="11.91884"><ele>246.25</ele><time>2026-04-03T12:39:24.058Z</time></trkpt><trkpt lat="43.2863433" lon="11.9190317"><ele>246.5</ele><time>2026-04-03T12:39:25.057Z</time></trkpt><trkpt lat="43.2863317" lon="11.9192317"><ele>246.75</ele><time>2026-04-03T12:39:26.058Z</time></trkpt><trkpt lat="43.2863217" lon="11.9194317"><ele>247.0</ele><time>2026-04-03T12:39:27.057Z</time></trkpt><trkpt lat="43.2863117" lon="11.919645"><ele>247.0</ele><time>2026-04-03T12:39:28.057Z</time></trkpt><trkpt lat="43.2862983" lon="11.919855"><ele>247.0</ele><time>2026-04-03T12:39:29.057Z</time></trkpt><trkpt lat="43.28629" lon="11.920065"><ele>247.0</ele><time>2026-04-03T12:39:30.057Z</time></trkpt><trkpt lat="43.2862717" lon="11.92027"><ele>246.66666666666666</ele><time>2026-04-03T12:39:31.058Z</time></trkpt><trkpt lat="43.28626" lon="11.9204767"><ele>246.33333333333331</ele><time>2026-04-03T12:39:32.057Z</time></trkpt><trkpt lat="43.28625" lon="11.92068"><ele>246.0</ele><time>2026-04-03T12:39:33.058Z</time></trkpt><trkpt lat="43.28624" lon="11.9208883"><ele>245.75</ele><time>2026-04-03T12:39:34.058Z</time></trkpt><trkpt lat="43.2862283" lon="11.9211"><ele>245.5</ele><time>2026-04-03T12:39:35.057Z</time></trkpt><trkpt lat="43.28622" lon="11.92131"><ele>245.25</ele><time>2026-04-03T12:39:36.058Z</time></trkpt><trkpt lat="43.286215" lon="11.9215033"><ele>245.0</ele><time>2026-04-03T12:39:37.057Z</time></trkpt><trkpt lat="43.28621" lon="11.9216833"><ele>245.0</ele><time>2026-04-03T12:39:38.057Z</time></trkpt><trkpt lat="43.2862067" lon="11.921855"><ele>245.0</ele><time>2026-04-03T12:39:39.057Z</time></trkpt><trkpt lat="43.28621" lon="11.9219967"><ele>245.0</ele><time>2026-04-03T12:39:40.057Z</time></trkpt><trkpt lat="43.2862267" lon="11.9221133"><ele>245.0</ele><time>2026-04-03T12:39:41.057Z</time></trkpt><trkpt lat="43.2862317" lon="11.9222167"><ele>245.0</ele><time>2026-04-03T12:39:42.058Z</time></trkpt><trkpt lat="43.2862267" lon="11.9223083"><ele>245.00000000000003</ele><time>2026-04-03T12:39:43.057Z</time></trkpt><trkpt lat="43.28621" lon="11.922395"><ele>245.0</ele><time>2026-04-03T12:39:44.057Z</time></trkpt><trkpt lat="43.28619" lon="11.922485"><ele>245.0</ele><time>2026-04-03T12:39:45.057Z</time></trkpt><trkpt lat="43.286165" lon="11.9225833"><ele>245.0</ele><time>2026-04-03T12:39:46.058Z</time></trkpt><trkpt lat="43.2861433" lon="11.9226933"><ele>245.00000000000003</ele><time>2026-04-03T12:39:47.057Z</time></trkpt><trkpt lat="43.2861183" lon="11.922825"><ele>245.0</ele><time>2026-04-03T12:39:48.057Z</time></trkpt><trkpt lat="43.2860817" lon="11.922975"><ele>245.25</ele><time>2026-04-03T12:39:49.057Z</time></trkpt><trkpt lat="43.2860383" lon="11.9231467"><ele>245.5</ele><time>2026-04-03T12:39:50.057Z</time></trkpt><trkpt lat="43.2859967" lon="11.923325"><ele>245.75</ele><time>2026-04-03T12:39:51.058Z</time></trkpt><trkpt lat="43.2859583" lon="11.9235"><ele>246.0</ele><time>2026-04-03T12:39:52.057Z</time></trkpt><trkpt lat="43.285915" lon="11.92368"><ele>246.0</ele><time>2026-04-03T12:39:53.057Z</time></trkpt><trkpt lat="43.285875" lon="11.923865"><ele>246.0</ele><time>2026-04-03T12:39:54.057Z</time></trkpt><trkpt lat="43.2858383" lon="11.9240517"><ele>246.0</ele><time>2026-04-03T12:39:55.057Z</time></trkpt><trkpt lat="43.2857933" lon="11.9242467"><ele>246.0</ele><time>2026-04-03T12:39:56.058Z</time></trkpt><trkpt lat="43.28576" lon="11.924435"><ele>245.66666666666669</ele><time>2026-04-03T12:39:57.057Z</time></trkpt><trkpt lat="43.2857217" lon="11.9246283"><ele>245.33333333333334</ele><time>2026-04-03T12:39:58.058Z</time></trkpt><trkpt lat="43.2856783" lon="11.9248283"><ele>245.0</ele><time>2026-04-03T12:39:59.058Z</time></trkpt><trkpt lat="43.2856333" lon="11.9250333"><ele>245.66666666666669</ele><time>2026-04-03T12:40:00.057Z</time></trkpt><trkpt lat="43.2855917" lon="11.9252433"><ele>246.33333333333331</ele><time>2026-04-03T12:40:01.057Z</time></trkpt><trkpt lat="43.28554" lon="11.9254617"><ele>247.0</ele><time>2026-04-03T12:40:02.057Z</time></trkpt><trkpt lat="43.285495" lon="11.9256683"><ele>247.0</ele><time>2026-04-03T12:40:03.058Z</time></trkpt><trkpt lat="43.2854467" lon="11.9258767"><ele>247.0</ele><time>2026-04-03T12:40:04.058Z</time></trkpt><trkpt lat="43.285405" lon="11.9260717"><ele>247.0</ele><time>2026-04-03T12:40:05.057Z</time></trkpt><trkpt lat="43.2853633" lon="11.92627"><ele>246.5</ele><time>2026-04-03T12:40:06.057Z</time></trkpt><trkpt lat="43.2853167" lon="11.9264667"><ele>246.0</ele><time>2026-04-03T12:40:07.057Z</time></trkpt><trkpt lat="43.2852733" lon="11.9266517"><ele>245.5</ele><time>2026-04-03T12:40:08.058Z</time></trkpt><trkpt lat="43.2852217" lon="11.926835"><ele>245.0</ele><time>2026-04-03T12:40:09.057Z</time></trkpt><trkpt lat="43.28517" lon="11.927015"><ele>245.0</ele><time>2026-04-03T12:40:10.058Z</time></trkpt><trkpt lat="43.2851183" lon="11.9271933"><ele>245.0</ele><time>2026-04-03T12:40:11.057Z</time></trkpt><trkpt lat="43.2850667" lon="11.9273767"><ele>245.0</ele><time>2026-04-03T12:40:12.057Z</time></trkpt><trkpt lat="43.2850133" lon="11.9275633"><ele>245.0</ele><time>2026-04-03T12:40:13.057Z</time></trkpt><trkpt lat="43.2849717" lon="11.9277433"><ele>245.5</ele><time>2026-04-03T12:40:14.058Z</time></trkpt><trkpt lat="43.284925" lon="11.9279217"><ele>246.0</ele><time>2026-04-03T12:40:15.057Z</time></trkpt><trkpt lat="43.2848817" lon="11.9280917"><ele>246.5</ele><time>2026-04-03T12:40:16.057Z</time></trkpt><trkpt lat="43.2848417" lon="11.9282433"><ele>247.0</ele><time>2026-04-03T12:40:17.057Z</time></trkpt><trkpt lat="43.284805" lon="11.92838"><ele>246.99999999999997</ele><time>2026-04-03T12:40:18.058Z</time></trkpt><trkpt lat="43.28477" lon="11.9285033"><ele>247.0</ele><time>2026-04-03T12:40:19.057Z</time></trkpt><trkpt lat="43.2847383" lon="11.9286167"><ele>247.0</ele><time>2026-04-03T12:40:20.057Z</time></trkpt><trkpt lat="43.2847083" lon="11.9287167"><ele>247.0</ele><time>2026-04-03T12:40:21.058Z</time></trkpt><trkpt lat="43.2846917" lon="11.928805"><ele>246.99999999999997</ele><time>2026-04-03T12:40:22.057Z</time></trkpt><trkpt lat="43.284695" lon="11.9288933"><ele>247.0</ele><time>2026-04-03T12:40:23.058Z</time></trkpt><trkpt lat="43.2847567" lon="11.9290133"><ele>247.0</ele><time>2026-04-03T12:40:25.057Z</time></trkpt><trkpt lat="43.2848783" lon="11.9290667"><ele>247.0</ele><time>2026-04-03T12:40:27.057Z</time></trkpt><trkpt lat="43.2849517" lon="11.9290833"><ele>247.0</ele><time>2026-04-03T12:40:28.058Z</time></trkpt><trkpt lat="43.28503" lon="11.9291117"><ele>247.0</ele><time>2026-04-03T12:40:29.057Z</time></trkpt><trkpt lat="43.2851117" lon="11.92914"><ele>247.0</ele><time>2026-04-03T12:40:30.057Z</time></trkpt><trkpt lat="43.285195" lon="11.929155"><ele>246.99999999999997</ele><time>2026-04-03T12:40:31.057Z</time></trkpt><trkpt lat="43.2852667" lon="11.9291833"><ele>247.0</ele><time>2026-04-03T12:40:32.057Z</time></trkpt><trkpt lat="43.2853417" lon="11.9292167"><ele>247.0</ele><time>2026-04-03T12:40:33.057Z</time></trkpt><trkpt lat="43.2854217" lon="11.9292467"><ele>247.0</ele><time>2026-04-03T12:40:34.058Z</time></trkpt><trkpt lat="43.2854967" lon="11.9292767"><ele>246.99999999999997</ele><time>2026-04-03T12:40:35.058Z</time></trkpt><trkpt lat="43.2855733" lon="11.9293083"><ele>247.0</ele><time>2026-04-03T12:40:36.058Z</time></trkpt><trkpt lat="43.2856433" lon="11.9293483"><ele>247.0</ele><time>2026-04-03T12:40:37.057Z</time></trkpt><trkpt lat="43.285715" lon="11.9293783"><ele>247.0</ele><time>2026-04-03T12:40:38.057Z</time></trkpt><trkpt lat="43.2857983" lon="11.92941"><ele>247.0</ele><time>2026-04-03T12:40:39.057Z</time></trkpt><trkpt lat="43.285885" lon="11.9294417"><ele>247.0</ele><time>2026-04-03T12:40:40.057Z</time></trkpt><trkpt lat="43.28598" lon="11.9294717"><ele>247.0</ele><time>2026-04-03T12:40:41.057Z</time></trkpt><trkpt lat="43.2860783" lon="11.9295133"><ele>247.0</ele><time>2026-04-03T12:40:42.057Z</time></trkpt><trkpt lat="43.2861783" lon="11.9295617"><ele>247.0</ele><time>2026-04-03T12:40:43.058Z</time></trkpt><trkpt lat="43.2862917" lon="11.9296067"><ele>247.0</ele><time>2026-04-03T12:40:44.057Z</time></trkpt><trkpt lat="43.28641" lon="11.9296633"><ele>247.0</ele><time>2026-04-03T12:40:45.057Z</time></trkpt><trkpt lat="43.2865267" lon="11.9297117"><ele>246.75</ele><time>2026-04-03T12:40:46.057Z</time></trkpt><trkpt lat="43.2866467" lon="11.9297633"><ele>246.5</ele><time>2026-04-03T12:40:47.057Z</time></trkpt><trkpt lat="43.286765" lon="11.929815"><ele>246.25</ele><time>2026-04-03T12:40:48.057Z</time></trkpt><trkpt lat="43.286885" lon="11.9298667"><ele>246.0</ele><time>2026-04-03T12:40:49.057Z</time></trkpt><trkpt lat="43.287005" lon="11.9299117"><ele>246.0</ele><time>2026-04-03T12:40:50.058Z</time></trkpt><trkpt lat="43.2871267" lon="11.9299567"><ele>246.0</ele><time>2026-04-03T12:40:51.057Z</time></trkpt><trkpt lat="43.2872467" lon="11.9300083"><ele>246.0</ele><time>2026-04-03T12:40:52.057Z</time></trkpt><trkpt lat="43.2873617" lon="11.9300617"><ele>246.0</ele><time>2026-04-03T12:40:53.057Z</time></trkpt><trkpt lat="43.2874667" lon="11.930105"><ele>245.8</ele><time>2026-04-03T12:40:54.057Z</time></trkpt><trkpt lat="43.287575" lon="11.9301483"><ele>245.60000000000002</ele><time>2026-04-03T12:40:55.057Z</time></trkpt><trkpt lat="43.28768" lon="11.93022"><ele>245.4</ele><time>2026-04-03T12:40:56.057Z</time></trkpt><trkpt lat="43.287785" lon="11.9302783"><ele>245.2</ele><time>2026-04-03T12:40:57.057Z</time></trkpt><trkpt lat="43.2878833" lon="11.9303333"><ele>245.0</ele><time>2026-04-03T12:40:58.058Z</time></trkpt><trkpt lat="43.2879733" lon="11.9303783"><ele>245.0</ele><time>2026-04-03T12:40:59.058Z</time></trkpt><trkpt lat="43.2880683" lon="11.9304183"><ele>245.0</ele><time>2026-04-03T12:41:00.057Z</time></trkpt><trkpt lat="43.2881567" lon="11.9304683"><ele>245.0</ele><time>2026-04-03T12:41:01.058Z</time></trkpt><trkpt lat="43.2882467" lon="11.93052"><ele>245.0</ele><time>2026-04-03T12:41:02.058Z</time></trkpt><trkpt lat="43.2883417" lon="11.93057"><ele>245.0</ele><time>2026-04-03T12:41:03.058Z</time></trkpt><trkpt lat="43.2884317" lon="11.9306167"><ele>245.0</ele><time>2026-04-03T12:41:04.057Z</time></trkpt><trkpt lat="43.28851" lon="11.9306667"><ele>245.0</ele><time>2026-04-03T12:41:05.057Z</time></trkpt><trkpt lat="43.288585" lon="11.9307233"><ele>245.0</ele><time>2026-04-03T12:41:06.057Z</time></trkpt><trkpt lat="43.2886583" lon="11.930805"><ele>245.0</ele><time>2026-04-03T12:41:07.057Z</time></trkpt><trkpt lat="43.2887333" lon="11.9308817"><ele>245.0</ele><time>2026-04-03T12:41:08.058Z</time></trkpt><trkpt lat="43.2888083" lon="11.930955"><ele>244.8</ele><time>2026-04-03T12:41:09.057Z</time></trkpt><trkpt lat="43.288895" lon="11.9310317"><ele>244.6</ele><time>2026-04-03T12:41:10.057Z</time></trkpt><trkpt lat="43.288985" lon="11.931115"><ele>244.39999999999998</ele><time>2026-04-03T12:41:11.058Z</time></trkpt><trkpt lat="43.2890733" lon="11.9311933"><ele>244.2</ele><time>2026-04-03T12:41:12.057Z</time></trkpt><trkpt lat="43.2891583" lon="11.9312717"><ele>244.0</ele><time>2026-04-03T12:41:13.057Z</time></trkpt><trkpt lat="43.2892433" lon="11.9313517"><ele>244.2</ele><time>2026-04-03T12:41:14.057Z</time></trkpt><trkpt lat="43.28933" lon="11.9314483"><ele>244.39999999999998</ele><time>2026-04-03T12:41:15.057Z</time></trkpt><trkpt lat="43.289415" lon="11.931545"><ele>244.6</ele><time>2026-04-03T12:41:16.057Z</time></trkpt><trkpt lat="43.289505" lon="11.931645"><ele>244.8</ele><time>2026-04-03T12:41:17.057Z</time></trkpt><trkpt lat="43.2895883" lon="11.931735"><ele>245.0</ele><time>2026-04-03T12:41:18.057Z</time></trkpt><trkpt lat="43.2896717" lon="11.9318267"><ele>245.0</ele><time>2026-04-03T12:41:19.058Z</time></trkpt><trkpt lat="43.28975" lon="11.931915"><ele>245.0</ele><time>2026-04-03T12:41:20.057Z</time></trkpt><trkpt lat="43.2898333" lon="11.932005"><ele>245.0</ele><time>2026-04-03T12:41:21.057Z</time></trkpt><trkpt lat="43.2899183" lon="11.9320867"><ele>245.0</ele><time>2026-04-03T12:41:22.058Z</time></trkpt><trkpt lat="43.29" lon="11.9321733"><ele>245.0</ele><time>2026-04-03T12:41:23.057Z</time></trkpt><trkpt lat="43.2900733" lon="11.9322617"><ele>245.0</ele><time>2026-04-03T12:41:24.058Z</time></trkpt><trkpt lat="43.2901517" lon="11.93234"><ele>245.0</ele><time>2026-04-03T12:41:25.057Z</time></trkpt><trkpt lat="43.2902333" lon="11.9324167"><ele>245.0</ele><time>2026-04-03T12:41:26.057Z</time></trkpt><trkpt lat="43.2903133" lon="11.932495"><ele>245.0</ele><time>2026-04-03T12:41:27.057Z</time></trkpt><trkpt lat="43.290395" lon="11.9325667"><ele>245.0</ele><time>2026-04-03T12:41:28.058Z</time></trkpt><trkpt lat="43.2904867" lon="11.93263"><ele>245.25</ele><time>2026-04-03T12:41:29.057Z</time></trkpt><trkpt lat="43.2905883" lon="11.93269"><ele>245.5</ele><time>2026-04-03T12:41:30.057Z</time></trkpt><trkpt lat="43.290695" lon="11.9327567"><ele>245.75</ele><time>2026-04-03T12:41:31.057Z</time></trkpt><trkpt lat="43.2907983" lon="11.9328167"><ele>246.0</ele><time>2026-04-03T12:41:32.057Z</time></trkpt><trkpt lat="43.290905" lon="11.9328767"><ele>245.5</ele><time>2026-04-03T12:41:33.057Z</time></trkpt><trkpt lat="43.2910067" lon="11.9329367"><ele>245.0</ele><time>2026-04-03T12:41:34.058Z</time></trkpt><trkpt lat="43.29111" lon="11.9329983"><ele>244.5</ele><time>2026-04-03T12:41:35.057Z</time></trkpt><trkpt lat="43.2912133" lon="11.9330667"><ele>244.0</ele><time>2026-04-03T12:41:36.057Z</time></trkpt><trkpt lat="43.2913267" lon="11.9331217"><ele>244.75</ele><time>2026-04-03T12:41:37.057Z</time></trkpt><trkpt lat="43.2914383" lon="11.9331817"><ele>245.5</ele><time>2026-04-03T12:41:38.057Z</time></trkpt><trkpt lat="43.2915483" lon="11.9332417"><ele>246.25</ele><time>2026-04-03T12:41:39.057Z</time></trkpt><trkpt lat="43.2916483" lon="11.933315"><ele>247.0</ele><time>2026-04-03T12:41:40.056Z</time></trkpt><trkpt lat="43.291745" lon="11.9333783"><ele>246.8</ele><time>2026-04-03T12:41:41.056Z</time></trkpt><trkpt lat="43.29184" lon="11.9334283"><ele>246.6</ele><time>2026-04-03T12:41:42.056Z</time></trkpt><trkpt lat="43.2919417" lon="11.93347"><ele>246.40000000000003</ele><time>2026-04-03T12:41:43.057Z</time></trkpt><trkpt lat="43.2920433" lon="11.9335217"><ele>246.20000000000002</ele><time>2026-04-03T12:41:44.056Z</time></trkpt><trkpt lat="43.2921367" lon="11.9336"><ele>246.0</ele><time>2026-04-03T12:41:45.056Z</time></trkpt><trkpt lat="43.2922133" lon="11.9336783"><ele>245.83333333333334</ele><time>2026-04-03T12:41:46.057Z</time></trkpt><trkpt lat="43.2922767" lon="11.9337583"><ele>245.66666666666669</ele><time>2026-04-03T12:41:47.057Z</time></trkpt><trkpt lat="43.2923433" lon="11.933825"><ele>245.5</ele><time>2026-04-03T12:41:48.056Z</time></trkpt><trkpt lat="43.292415" lon="11.9338933"><ele>245.33333333333334</ele><time>2026-04-03T12:41:49.056Z</time></trkpt><trkpt lat="43.292485" lon="11.933955"><ele>245.16666666666669</ele><time>2026-04-03T12:41:50.056Z</time></trkpt><trkpt lat="43.2925517" lon="11.934025"><ele>245.0</ele><time>2026-04-03T12:41:51.056Z</time></trkpt><trkpt lat="43.2926217" lon="11.9340983"><ele>245.00000000000003</ele><time>2026-04-03T12:41:52.056Z</time></trkpt><trkpt lat="43.2926833" lon="11.9341633"><ele>245.0</ele><time>2026-04-03T12:41:53.056Z</time></trkpt><trkpt lat="43.29274" lon="11.93422"><ele>245.0</ele><time>2026-04-03T12:41:54.056Z</time></trkpt><trkpt lat="43.292795" lon="11.9342683"><ele>245.0</ele><time>2026-04-03T12:41:55.056Z</time></trkpt><trkpt lat="43.292865" lon="11.9343283"><ele>245.00000000000003</ele><time>2026-04-03T12:41:56.056Z</time></trkpt><trkpt lat="43.29293" lon="11.93439"><ele>245.0</ele><time>2026-04-03T12:41:57.057Z</time></trkpt><trkpt lat="43.2930017" lon="11.9344483"><ele>245.0</ele><time>2026-04-03T12:41:58.057Z</time></trkpt><trkpt lat="43.2930683" lon="11.9345017"><ele>245.0</ele><time>2026-04-03T12:41:59.056Z</time></trkpt><trkpt lat="43.29322" lon="11.934505"><ele>245.0</ele><time>2026-04-03T12:42:01.057Z</time></trkpt><trkpt lat="43.2932933" lon="11.9344533"><ele>245.0</ele><time>2026-04-03T12:42:02.056Z</time></trkpt><trkpt lat="43.293365" lon="11.9343867"><ele>245.0</ele><time>2026-04-03T12:42:03.056Z</time></trkpt><trkpt lat="43.2934567" lon="11.93431"><ele>245.0</ele><time>2026-04-03T12:42:04.056Z</time></trkpt><trkpt lat="43.29354" lon="11.9342417"><ele>245.0</ele><time>2026-04-03T12:42:05.056Z</time></trkpt><trkpt lat="43.293615" lon="11.93419"><ele>245.0</ele><time>2026-04-03T12:42:06.056Z</time></trkpt><trkpt lat="43.2937133" lon="11.9341317"><ele>245.0</ele><time>2026-04-03T12:42:08.057Z</time></trkpt><trkpt lat="43.2937817" lon="11.9341367"><ele>245.0</ele><time>2026-04-03T12:42:10.056Z</time></trkpt><trkpt lat="43.2936817" lon="11.9341683"><ele>245.00000000000003</ele><time>2026-04-03T12:42:17.056Z</time></trkpt><trkpt lat="43.2936233" lon="11.934205"><ele>245.0</ele><time>2026-04-03T12:42:18.057Z</time></trkpt><trkpt lat="43.29356" lon="11.9342483"><ele>245.0</ele><time>2026-04-03T12:42:19.056Z</time></trkpt><trkpt lat="43.2934967" lon="11.9342867"><ele>245.0</ele><time>2026-04-03T12:42:20.057Z</time></trkpt><trkpt lat="43.29342" lon="11.9343383"><ele>245.00000000000003</ele><time>2026-04-03T12:42:21.057Z</time></trkpt><trkpt lat="43.29334" lon="11.9343933"><ele>245.0</ele><time>2026-04-03T12:42:22.056Z</time></trkpt><trkpt lat="43.293275" lon="11.93444"><ele>245.00000000000003</ele><time>2026-04-03T12:42:23.056Z</time></trkpt><trkpt lat="43.2932067" lon="11.9344917"><ele>245.0</ele><time>2026-04-03T12:42:24.057Z</time></trkpt><trkpt lat="43.2931317" lon="11.9345233"><ele>245.0</ele><time>2026-04-03T12:42:25.057Z</time></trkpt><trkpt lat="43.2930533" lon="11.93452"><ele>245.0</ele><time>2026-04-03T12:42:26.056Z</time></trkpt><trkpt lat="43.2929883" lon="11.934485"><ele>245.00000000000003</ele><time>2026-04-03T12:42:27.057Z</time></trkpt><trkpt lat="43.292925" lon="11.9344333"><ele>245.0</ele><time>2026-04-03T12:42:28.057Z</time></trkpt><trkpt lat="43.292865" lon="11.9343667"><ele>245.00000000000003</ele><time>2026-04-03T12:42:29.056Z</time></trkpt><trkpt lat="43.2928" lon="11.9343"><ele>245.0</ele><time>2026-04-03T12:42:30.057Z</time></trkpt><trkpt lat="43.2927367" lon="11.9342383"><ele>245.0</ele><time>2026-04-03T12:42:31.056Z</time></trkpt><trkpt lat="43.2926717" lon="11.9341733"><ele>245.0</ele><time>2026-04-03T12:42:32.057Z</time></trkpt><trkpt lat="43.29261" lon="11.9341133"><ele>245.00000000000003</ele><time>2026-04-03T12:42:33.056Z</time></trkpt><trkpt lat="43.2925433" lon="11.9340517"><ele>245.0</ele><time>2026-04-03T12:42:34.057Z</time></trkpt><trkpt lat="43.2924767" lon="11.9339933"><ele>245.00000000000003</ele><time>2026-04-03T12:42:35.056Z</time></trkpt><trkpt lat="43.2924117" lon="11.933935"><ele>245.0</ele><time>2026-04-03T12:42:36.056Z</time></trkpt><trkpt lat="43.29235" lon="11.9338783"><ele>245.0</ele><time>2026-04-03T12:42:37.056Z</time></trkpt><trkpt lat="43.2922883" lon="11.933815"><ele>245.0</ele><time>2026-04-03T12:42:38.056Z</time></trkpt><trkpt lat="43.2922283" lon="11.93375"><ele>245.00000000000003</ele><time>2026-04-03T12:42:39.056Z</time></trkpt><trkpt lat="43.2921717" lon="11.9336833"><ele>245.0</ele><time>2026-04-03T12:42:40.056Z</time></trkpt><trkpt lat="43.2921117" lon="11.9336167"><ele>245.16666666666669</ele><time>2026-04-03T12:42:41.056Z</time></trkpt><trkpt lat="43.2920533" lon="11.93356"><ele>245.33333333333334</ele><time>2026-04-03T12:42:42.057Z</time></trkpt><trkpt lat="43.292" lon="11.9335117"><ele>245.5</ele><time>2026-04-03T12:42:43.056Z</time></trkpt><trkpt lat="43.2919067" lon="11.93345"><ele>245.66666666666669</ele><time>2026-04-03T12:42:45.056Z</time></trkpt><trkpt lat="43.291845" lon="11.9334867"><ele>245.83333333333334</ele><time>2026-04-03T12:42:47.056Z</time></trkpt><trkpt lat="43.2918017" lon="11.9336317"><ele>246.0</ele><time>2026-04-03T12:42:49.057Z</time></trkpt><trkpt lat="43.2917717" lon="11.9337433"><ele>246.0</ele><time>2026-04-03T12:42:50.056Z</time></trkpt><trkpt lat="43.2917383" lon="11.9338717"><ele>246.00000000000003</ele><time>2026-04-03T12:42:51.056Z</time></trkpt><trkpt lat="43.2917" lon="11.934005"><ele>246.00000000000003</ele><time>2026-04-03T12:42:52.056Z</time></trkpt><trkpt lat="43.2916567" lon="11.934145"><ele>246.0</ele><time>2026-04-03T12:42:53.056Z</time></trkpt><trkpt lat="43.2916117" lon="11.9342867"><ele>246.0</ele><time>2026-04-03T12:42:54.056Z</time></trkpt><trkpt lat="43.2915633" lon="11.93442"><ele>246.0</ele><time>2026-04-03T12:42:55.056Z</time></trkpt><trkpt lat="43.2915183" lon="11.9345567"><ele>246.00000000000003</ele><time>2026-04-03T12:42:56.057Z</time></trkpt><trkpt lat="43.29148" lon="11.9346883"><ele>246.00000000000003</ele><time>2026-04-03T12:42:57.056Z</time></trkpt><trkpt lat="43.29144" lon="11.93481"><ele>246.0</ele><time>2026-04-03T12:42:58.057Z</time></trkpt><trkpt lat="43.2914033" lon="11.9349317"><ele>246.0</ele><time>2026-04-03T12:42:59.056Z</time></trkpt><trkpt lat="43.2913783" lon="11.9350333"><ele>246.33333333333334</ele><time>2026-04-03T12:43:00.056Z</time></trkpt><trkpt lat="43.29135" lon="11.935125"><ele>246.66666666666669</ele><time>2026-04-03T12:43:01.057Z</time></trkpt><trkpt lat="43.29133" lon="11.9352083"><ele>247.0</ele><time>2026-04-03T12:43:02.056Z</time></trkpt><trkpt lat="43.2913133" lon="11.9352967"><ele>247.33333333333334</ele><time>2026-04-03T12:43:03.057Z</time></trkpt><trkpt lat="43.2913117" lon="11.93547"><ele>247.66666666666669</ele><time>2026-04-03T12:43:05.056Z</time></trkpt><trkpt lat="43.2913317" lon="11.9355783"><ele>248.0</ele><time>2026-04-03T12:43:06.056Z</time></trkpt><trkpt lat="43.2913617" lon="11.935695"><ele>248.0</ele><time>2026-04-03T12:43:07.056Z</time></trkpt><trkpt lat="43.2914083" lon="11.935805"><ele>248.0</ele><time>2026-04-03T12:43:08.057Z</time></trkpt><trkpt lat="43.29145" lon="11.93593"><ele>248.0</ele><time>2026-04-03T12:43:09.056Z</time></trkpt><trkpt lat="43.2915" lon="11.93605"><ele>248.0</ele><time>2026-04-03T12:43:10.056Z</time></trkpt><trkpt lat="43.2915383" lon="11.9361733"><ele>248.0</ele><time>2026-04-03T12:43:11.057Z</time></trkpt><trkpt lat="43.2915767" lon="11.9363033"><ele>248.0</ele><time>2026-04-03T12:43:12.056Z</time></trkpt><trkpt lat="43.291615" lon="11.9364217"><ele>248.0</ele><time>2026-04-03T12:43:13.056Z</time></trkpt><trkpt lat="43.291655" lon="11.9365233"><ele>248.0</ele><time>2026-04-03T12:43:14.056Z</time></trkpt><trkpt lat="43.291695" lon="11.9366283"><ele>248.0</ele><time>2026-04-03T12:43:15.056Z</time></trkpt><trkpt lat="43.2917383" lon="11.936745"><ele>248.0</ele><time>2026-04-03T12:43:16.056Z</time></trkpt><trkpt lat="43.2917767" lon="11.9368617"><ele>248.0</ele><time>2026-04-03T12:43:17.056Z</time></trkpt><trkpt lat="43.29181" lon="11.937"><ele>248.0</ele><time>2026-04-03T12:43:18.056Z</time></trkpt><trkpt lat="43.29185" lon="11.937135"><ele>248.0</ele><time>2026-04-03T12:43:19.056Z</time></trkpt><trkpt lat="43.2918933" lon="11.9372783"><ele>248.0</ele><time>2026-04-03T12:43:20.057Z</time></trkpt><trkpt lat="43.2919367" lon="11.937415"><ele>248.0</ele><time>2026-04-03T12:43:21.056Z</time></trkpt><trkpt lat="43.2919883" lon="11.9375583"><ele>248.0</ele><time>2026-04-03T12:43:22.056Z</time></trkpt><trkpt lat="43.2920433" lon="11.9376917"><ele>248.0</ele><time>2026-04-03T12:43:23.056Z</time></trkpt><trkpt lat="43.2921" lon="11.9378267"><ele>248.0</ele><time>2026-04-03T12:43:24.057Z</time></trkpt><trkpt lat="43.2921533" lon="11.9379617"><ele>248.0</ele><time>2026-04-03T12:43:25.056Z</time></trkpt><trkpt lat="43.2922" lon="11.9381033"><ele>248.0</ele><time>2026-04-03T12:43:26.056Z</time></trkpt><trkpt lat="43.2922383" lon="11.9382417"><ele>248.0</ele><time>2026-04-03T12:43:27.056Z</time></trkpt><trkpt lat="43.292265" lon="11.9383867"><ele>248.0</ele><time>2026-04-03T12:43:28.056Z</time></trkpt><trkpt lat="43.292275" lon="11.9385133"><ele>248.0</ele><time>2026-04-03T12:43:29.057Z</time></trkpt><trkpt lat="43.29229" lon="11.938635"><ele>248.0</ele><time>2026-04-03T12:43:30.056Z</time></trkpt><trkpt lat="43.292285" lon="11.938745"><ele>248.16666666666669</ele><time>2026-04-03T12:43:31.056Z</time></trkpt><trkpt lat="43.2922767" lon="11.938845"><ele>248.33333333333334</ele><time>2026-04-03T12:43:32.056Z</time></trkpt><trkpt lat="43.2922767" lon="11.93896"><ele>248.5</ele><time>2026-04-03T12:43:33.056Z</time></trkpt><trkpt lat="43.29229" lon="11.939075"><ele>248.66666666666669</ele><time>2026-04-03T12:43:34.056Z</time></trkpt><trkpt lat="43.29232" lon="11.9391917"><ele>248.83333333333334</ele><time>2026-04-03T12:43:35.057Z</time></trkpt><trkpt lat="43.2923533" lon="11.93932"><ele>249.0</ele><time>2026-04-03T12:43:36.056Z</time></trkpt><trkpt lat="43.2923817" lon="11.9394583"><ele>249.39999999999998</ele><time>2026-04-03T12:43:37.056Z</time></trkpt><trkpt lat="43.29241" lon="11.9395967"><ele>249.79999999999998</ele><time>2026-04-03T12:43:38.057Z</time></trkpt><trkpt lat="43.2924467" lon="11.9397383"><ele>250.20000000000002</ele><time>2026-04-03T12:43:39.056Z</time></trkpt><trkpt lat="43.292475" lon="11.9398817"><ele>250.60000000000002</ele><time>2026-04-03T12:43:40.057Z</time></trkpt><trkpt lat="43.2925033" lon="11.94003"><ele>251.0</ele><time>2026-04-03T12:43:41.056Z</time></trkpt><trkpt lat="43.2925383" lon="11.9401767"><ele>251.0</ele><time>2026-04-03T12:43:42.056Z</time></trkpt><trkpt lat="43.2925683" lon="11.9403133"><ele>251.00000000000003</ele><time>2026-04-03T12:43:43.056Z</time></trkpt><trkpt lat="43.292605" lon="11.9404533"><ele>251.00000000000003</ele><time>2026-04-03T12:43:44.057Z</time></trkpt><trkpt lat="43.2926333" lon="11.9405817"><ele>251.0</ele><time>2026-04-03T12:43:45.056Z</time></trkpt><trkpt lat="43.2926467" lon="11.940705"><ele>251.0</ele><time>2026-04-03T12:43:46.056Z</time></trkpt><trkpt lat="43.2926667" lon="11.9408067"><ele>251.16666666666669</ele><time>2026-04-03T12:43:47.056Z</time></trkpt><trkpt lat="43.29269" lon="11.9409"><ele>251.33333333333334</ele><time>2026-04-03T12:43:48.056Z</time></trkpt><trkpt lat="43.2927033" lon="11.9409867"><ele>251.5</ele><time>2026-04-03T12:43:49.057Z</time></trkpt><trkpt lat="43.2926867" lon="11.9411317"><ele>251.66666666666669</ele><time>2026-04-03T12:43:51.056Z</time></trkpt><trkpt lat="43.2926083" lon="11.9412483"><ele>251.83333333333334</ele><time>2026-04-03T12:43:53.057Z</time></trkpt><trkpt lat="43.29254" lon="11.9413183"><ele>252.0</ele><time>2026-04-03T12:43:54.056Z</time></trkpt><trkpt lat="43.29246" lon="11.9414"><ele>252.0</ele><time>2026-04-03T12:43:55.057Z</time></trkpt><trkpt lat="43.2923733" lon="11.9414833"><ele>252.0</ele><time>2026-04-03T12:43:56.056Z</time></trkpt><trkpt lat="43.2922933" lon="11.94156"><ele>252.0</ele><time>2026-04-03T12:43:57.056Z</time></trkpt><trkpt lat="43.2922183" lon="11.941635"><ele>252.0</ele><time>2026-04-03T12:43:58.056Z</time></trkpt><trkpt lat="43.292155" lon="11.9416983"><ele>252.0</ele><time>2026-04-03T12:43:59.056Z</time></trkpt><trkpt lat="43.2921" lon="11.9418083"><ele>251.83333333333334</ele><time>2026-04-03T12:44:01.056Z</time></trkpt><trkpt lat="43.2921683" lon="11.9419267"><ele>251.66666666666669</ele><time>2026-04-03T12:44:04.056Z</time></trkpt><trkpt lat="43.2922283" lon="11.9419817"><ele>251.5</ele><time>2026-04-03T12:44:05.057Z</time></trkpt><trkpt lat="43.2923017" lon="11.9420183"><ele>251.33333333333334</ele><time>2026-04-03T12:44:06.056Z</time></trkpt><trkpt lat="43.2923817" lon="11.94203"><ele>251.16666666666669</ele><time>2026-04-03T12:44:07.056Z</time></trkpt><trkpt lat="43.2924667" lon="11.9420183"><ele>251.0</ele><time>2026-04-03T12:44:08.056Z</time></trkpt><trkpt lat="43.2925617" lon="11.94199"><ele>251.00000000000003</ele><time>2026-04-03T12:44:09.056Z</time></trkpt><trkpt lat="43.2926683" lon="11.941975"><ele>251.0</ele><time>2026-04-03T12:44:10.057Z</time></trkpt><trkpt lat="43.292765" lon="11.94196"><ele>251.0</ele><time>2026-04-03T12:44:11.056Z</time></trkpt><trkpt lat="43.2928467" lon="11.94195"><ele>251.0</ele><time>2026-04-03T12:44:12.056Z</time></trkpt><trkpt lat="43.2929083" lon="11.94198"><ele>251.00000000000003</ele><time>2026-04-03T12:44:13.056Z</time></trkpt><trkpt lat="43.2929533" lon="11.9420433"><ele>251.0</ele><time>2026-04-03T12:44:14.056Z</time></trkpt><trkpt lat="43.29299" lon="11.94213"><ele>251.0</ele><time>2026-04-03T12:44:15.056Z</time></trkpt><trkpt lat="43.2930083" lon="11.9422483"><ele>251.00000000000003</ele><time>2026-04-03T12:44:16.056Z</time></trkpt><trkpt lat="43.293025" lon="11.94239"><ele>251.00000000000003</ele><time>2026-04-03T12:44:17.056Z</time></trkpt><trkpt lat="43.2930433" lon="11.9425433"><ele>251.0</ele><time>2026-04-03T12:44:18.057Z</time></trkpt><trkpt lat="43.2930633" lon="11.94269"><ele>251.0</ele><time>2026-04-03T12:44:19.057Z</time></trkpt><trkpt lat="43.293085" lon="11.9428367"><ele>252.0</ele><time>2026-04-03T12:44:20.056Z</time></trkpt><trkpt lat="43.2931067" lon="11.94299"><ele>253.0</ele><time>2026-04-03T12:44:21.057Z</time></trkpt><trkpt lat="43.2931367" lon="11.9431417"><ele>254.0</ele><time>2026-04-03T12:44:22.056Z</time></trkpt><trkpt lat="43.2931667" lon="11.9432967"><ele>255.0</ele><time>2026-04-03T12:44:23.056Z</time></trkpt><trkpt lat="43.2931967" lon="11.94347"><ele>255.75</ele><time>2026-04-03T12:44:24.056Z</time></trkpt><trkpt lat="43.2932317" lon="11.9436367"><ele>256.5</ele><time>2026-04-03T12:44:25.056Z</time></trkpt><trkpt lat="43.2932683" lon="11.943795"><ele>257.25</ele><time>2026-04-03T12:44:26.056Z</time></trkpt><trkpt lat="43.29329" lon="11.943955"><ele>258.0</ele><time>2026-04-03T12:44:27.056Z</time></trkpt><trkpt lat="43.2933167" lon="11.9441083"><ele>258.4</ele><time>2026-04-03T12:44:28.056Z</time></trkpt><trkpt lat="43.2933483" lon="11.944265"><ele>258.8</ele><time>2026-04-03T12:44:29.057Z</time></trkpt><trkpt lat="43.2933783" lon="11.9444133"><ele>259.2</ele><time>2026-04-03T12:44:30.056Z</time></trkpt><trkpt lat="43.2934033" lon="11.94456"><ele>259.6</ele><time>2026-04-03T12:44:31.056Z</time></trkpt><trkpt lat="43.2934267" lon="11.9447"><ele>260.0</ele><time>2026-04-03T12:44:32.056Z</time></trkpt><trkpt lat="43.2934367" lon="11.9448083"><ele>260.0</ele><time>2026-04-03T12:44:33.056Z</time></trkpt><trkpt lat="43.2934633" lon="11.9449217"><ele>260.0</ele><time>2026-04-03T12:44:35.056Z</time></trkpt><trkpt lat="43.2934383" lon="11.945005"><ele>260.0</ele><time>2026-04-03T12:44:48.056Z</time></trkpt><trkpt lat="43.2933983" lon="11.9450733"><ele>260.0</ele><time>2026-04-03T12:44:49.056Z</time></trkpt><trkpt lat="43.293335" lon="11.9451667"><ele>260.0</ele><time>2026-04-03T12:44:50.056Z</time></trkpt><trkpt lat="43.2932567" lon="11.945275"><ele>260.0</ele><time>2026-04-03T12:44:51.056Z</time></trkpt><trkpt lat="43.2931767" lon="11.945395"><ele>260.0</ele><time>2026-04-03T12:44:52.056Z</time></trkpt><trkpt lat="43.29309" lon="11.9455317"><ele>260.0</ele><time>2026-04-03T12:44:53.056Z</time></trkpt><trkpt lat="43.2929883" lon="11.9456733"><ele>260.0</ele><time>2026-04-03T12:44:54.057Z</time></trkpt><trkpt lat="43.2928833" lon="11.9458233"><ele>260.0</ele><time>2026-04-03T12:44:55.056Z</time></trkpt><trkpt lat="43.2927883" lon="11.9459767"><ele>260.33333333333337</ele><time>2026-04-03T12:44:56.056Z</time></trkpt><trkpt lat="43.2926917" lon="11.9461433"><ele>260.6666666666667</ele><time>2026-04-03T12:44:57.057Z</time></trkpt><trkpt lat="43.2925833" lon="11.94631"><ele>261.0</ele><time>2026-04-03T12:44:58.057Z</time></trkpt><trkpt lat="43.2924683" lon="11.9464867"><ele>261.0</ele><time>2026-04-03T12:44:59.056Z</time></trkpt><trkpt lat="43.2923567" lon="11.94665"><ele>261.0</ele><time>2026-04-03T12:45:00.057Z</time></trkpt><trkpt lat="43.292245" lon="11.946815"><ele>261.0</ele><time>2026-04-03T12:45:01.056Z</time></trkpt><trkpt lat="43.2921367" lon="11.9469817"><ele>261.25</ele><time>2026-04-03T12:45:02.056Z</time></trkpt><trkpt lat="43.2920283" lon="11.9471433"><ele>261.5</ele><time>2026-04-03T12:45:03.057Z</time></trkpt><trkpt lat="43.2919283" lon="11.94729"><ele>261.75</ele><time>2026-04-03T12:45:04.056Z</time></trkpt><trkpt lat="43.291835" lon="11.9474217"><ele>262.0</ele><time>2026-04-03T12:45:05.056Z</time></trkpt><trkpt lat="43.2917517" lon="11.9475617"><ele>262.75</ele><time>2026-04-03T12:45:06.057Z</time></trkpt><trkpt lat="43.2916717" lon="11.9477133"><ele>263.5</ele><time>2026-04-03T12:45:07.057Z</time></trkpt><trkpt lat="43.2915817" lon="11.947865"><ele>264.25</ele><time>2026-04-03T12:45:08.056Z</time></trkpt><trkpt lat="43.2914883" lon="11.94802"><ele>265.0</ele><time>2026-04-03T12:45:09.057Z</time></trkpt><trkpt lat="43.2913917" lon="11.94817"><ele>265.0</ele><time>2026-04-03T12:45:10.056Z</time></trkpt><trkpt lat="43.2912917" lon="11.948325"><ele>265.0</ele><time>2026-04-03T12:45:11.056Z</time></trkpt><trkpt lat="43.2911833" lon="11.9484683"><ele>265.0</ele><time>2026-04-03T12:45:12.056Z</time></trkpt><trkpt lat="43.2910683" lon="11.9486167"><ele>268.0</ele><time>2026-04-03T12:45:13.056Z</time></trkpt><trkpt lat="43.2909417" lon="11.948755"><ele>271.0</ele><time>2026-04-03T12:45:14.057Z</time></trkpt><trkpt lat="43.2908183" lon="11.948895"><ele>274.0</ele><time>2026-04-03T12:45:15.056Z</time></trkpt><trkpt lat="43.2906983" lon="11.9490267"><ele>274.0</ele><time>2026-04-03T12:45:16.056Z</time></trkpt><trkpt lat="43.2906133" lon="11.9491433"><ele>274.0</ele><time>2026-04-03T12:45:17.057Z</time></trkpt><trkpt lat="43.2905517" lon="11.9492617"><ele>274.0</ele><time>2026-04-03T12:45:18.056Z</time></trkpt><trkpt lat="43.2905167" lon="11.9493733"><ele>274.0</ele><time>2026-04-03T12:45:19.056Z</time></trkpt><trkpt lat="43.2904967" lon="11.9494683"><ele>274.0</ele><time>2026-04-03T12:45:20.056Z</time></trkpt><trkpt lat="43.2905733" lon="11.9495467"><ele>275.8333333333333</ele><time>2026-04-03T12:45:23.056Z</time></trkpt><trkpt lat="43.2906417" lon="11.9495333"><ele>277.66666666666663</ele><time>2026-04-03T12:45:25.055Z</time></trkpt><trkpt lat="43.2907117" lon="11.9495317"><ele>279.5</ele><time>2026-04-03T12:45:28.055Z</time></trkpt><trkpt lat="43.2908083" lon="11.9495483"><ele>281.3333333333333</ele><time>2026-04-03T12:45:30.056Z</time></trkpt><trkpt lat="43.2908983" lon="11.9496017"><ele>283.1666666666667</ele><time>2026-04-03T12:45:32.055Z</time></trkpt><trkpt lat="43.2909567" lon="11.9497133"><ele>285.0</ele><time>2026-04-03T12:45:34.056Z</time></trkpt><trkpt lat="43.2909933" lon="11.9498483"><ele>285.0</ele><time>2026-04-03T12:45:36.055Z</time></trkpt><trkpt lat="43.2910433" lon="11.9499067"><ele>285.0</ele><time>2026-04-03T12:45:38.055Z</time></trkpt><trkpt lat="43.2911067" lon="11.9499033"><ele>285.0</ele><time>2026-04-03T12:45:41.056Z</time></trkpt><trkpt lat="43.2910333" lon="11.9498133"><ele>285.0</ele><time>2026-04-03T12:45:45.055Z</time></trkpt><trkpt lat="43.2909583" lon="11.9496783"><ele>285.0</ele><time>2026-04-03T12:45:47.055Z</time></trkpt><trkpt lat="43.2908717" lon="11.9495617"><ele>285.0</ele><time>2026-04-03T12:45:49.055Z</time></trkpt><trkpt lat="43.2907767" lon="11.9494983"><ele>285.0</ele><time>2026-04-03T12:45:51.055Z</time></trkpt><trkpt lat="43.2907133" lon="11.9494783"><ele>285.0</ele><time>2026-04-03T12:45:53.055Z</time></trkpt><trkpt lat="43.29074" lon="11.949395"><ele>285.0</ele><time>2026-04-03T12:45:57.056Z</time></trkpt><trkpt lat="43.2908667" lon="11.94932"><ele>285.0</ele><time>2026-04-03T12:45:59.056Z</time></trkpt><trkpt lat="43.2909517" lon="11.94927"><ele>285.0</ele><time>2026-04-03T12:46:00.055Z</time></trkpt><trkpt lat="43.2910417" lon="11.9492167"><ele>285.0</ele><time>2026-04-03T12:46:01.055Z</time></trkpt><trkpt lat="43.29115" lon="11.9491483"><ele>285.0</ele><time>2026-04-03T12:46:02.055Z</time></trkpt><trkpt lat="43.2912633" lon="11.9490783"><ele>285.0</ele><time>2026-04-03T12:46:03.056Z</time></trkpt><trkpt lat="43.291375" lon="11.9490083"><ele>283.4</ele><time>2026-04-03T12:46:04.055Z</time></trkpt><trkpt lat="43.2914783" lon="11.948965"><ele>281.8</ele><time>2026-04-03T12:46:05.055Z</time></trkpt><trkpt lat="43.2915733" lon="11.9489167"><ele>280.2</ele><time>2026-04-03T12:46:06.055Z</time></trkpt><trkpt lat="43.29168" lon="11.948865"><ele>278.6</ele><time>2026-04-03T12:46:07.055Z</time></trkpt><trkpt lat="43.291785" lon="11.9488183"><ele>277.0</ele><time>2026-04-03T12:46:08.055Z</time></trkpt><trkpt lat="43.291895" lon="11.948765"><ele>277.0</ele><time>2026-04-03T12:46:09.056Z</time></trkpt><trkpt lat="43.2920117" lon="11.9487083"><ele>277.0</ele><time>2026-04-03T12:46:10.055Z</time></trkpt><trkpt lat="43.292125" lon="11.948665"><ele>277.0</ele><time>2026-04-03T12:46:11.056Z</time></trkpt><trkpt lat="43.29223" lon="11.9486267"><ele>277.0</ele><time>2026-04-03T12:46:12.056Z</time></trkpt><trkpt lat="43.2923283" lon="11.948595"><ele>278.0</ele><time>2026-04-03T12:46:13.055Z</time></trkpt><trkpt lat="43.2924183" lon="11.948565"><ele>279.0</ele><time>2026-04-03T12:46:14.055Z</time></trkpt><trkpt lat="43.2925117" lon="11.948555"><ele>280.0</ele><time>2026-04-03T12:46:15.055Z</time></trkpt><trkpt lat="43.2926083" lon="11.9485717"><ele>281.0</ele><time>2026-04-03T12:46:16.056Z</time></trkpt><trkpt lat="43.29271" lon="11.9485967"><ele>282.0</ele><time>2026-04-03T12:46:17.055Z</time></trkpt><trkpt lat="43.2928117" lon="11.9486283"><ele>282.0</ele><time>2026-04-03T12:46:18.055Z</time></trkpt><trkpt lat="43.2929183" lon="11.94865"><ele>282.0</ele><time>2026-04-03T12:46:19.056Z</time></trkpt><trkpt lat="43.2930267" lon="11.9486833"><ele>282.0</ele><time>2026-04-03T12:46:20.055Z</time></trkpt><trkpt lat="43.2931433" lon="11.9487217"><ele>282.0</ele><time>2026-04-03T12:46:21.055Z</time></trkpt><trkpt lat="43.2932583" lon="11.94878"><ele>282.0</ele><time>2026-04-03T12:46:22.055Z</time></trkpt><trkpt lat="43.2933683" lon="11.9488383"><ele>282.0</ele><time>2026-04-03T12:46:23.056Z</time></trkpt><trkpt lat="43.293485" lon="11.9488883"><ele>282.0</ele><time>2026-04-03T12:46:24.056Z</time></trkpt><trkpt lat="43.293605" lon="11.94893"><ele>282.0</ele><time>2026-04-03T12:46:25.055Z</time></trkpt><trkpt lat="43.29372" lon="11.948955"><ele>282.0</ele><time>2026-04-03T12:46:26.055Z</time></trkpt><trkpt lat="43.2938283" lon="11.9489533"><ele>282.0</ele><time>2026-04-03T12:46:27.055Z</time></trkpt><trkpt lat="43.2939333" lon="11.948955"><ele>282.0</ele><time>2026-04-03T12:46:28.055Z</time></trkpt><trkpt lat="43.2940367" lon="11.948945"><ele>282.0</ele><time>2026-04-03T12:46:29.055Z</time></trkpt><trkpt lat="43.29414" lon="11.9489417"><ele>282.0</ele><time>2026-04-03T12:46:30.055Z</time></trkpt><trkpt lat="43.2942467" lon="11.9489267"><ele>281.0</ele><time>2026-04-03T12:46:31.055Z</time></trkpt><trkpt lat="43.29436" lon="11.9489033"><ele>280.0</ele><time>2026-04-03T12:46:32.055Z</time></trkpt><trkpt lat="43.2944767" lon="11.9488617"><ele>279.0</ele><time>2026-04-03T12:46:33.055Z</time></trkpt><trkpt lat="43.2945933" lon="11.9487983"><ele>278.0</ele><time>2026-04-03T12:46:34.055Z</time></trkpt><trkpt lat="43.2946983" lon="11.9487383"><ele>278.25</ele><time>2026-04-03T12:46:35.056Z</time></trkpt><trkpt lat="43.294805" lon="11.94867"><ele>278.5</ele><time>2026-04-03T12:46:36.056Z</time></trkpt><trkpt lat="43.294915" lon="11.9485967"><ele>278.75</ele><time>2026-04-03T12:46:37.055Z</time></trkpt><trkpt lat="43.29502" lon="11.9485233"><ele>279.0</ele><time>2026-04-03T12:46:38.056Z</time></trkpt><trkpt lat="43.2951033" lon="11.9484633"><ele>279.0</ele><time>2026-04-03T12:46:39.055Z</time></trkpt><trkpt lat="43.29518" lon="11.9484133"><ele>279.0</ele><time>2026-04-03T12:46:40.055Z</time></trkpt><trkpt lat="43.2952433" lon="11.9483733"><ele>279.0</ele><time>2026-04-03T12:46:41.055Z</time></trkpt><trkpt lat="43.2953133" lon="11.9483383"><ele>279.0</ele><time>2026-04-03T12:46:42.055Z</time></trkpt><trkpt lat="43.2953867" lon="11.9482983"><ele>279.0</ele><time>2026-04-03T12:46:43.055Z</time></trkpt><trkpt lat="43.2954633" lon="11.9482583"><ele>279.0</ele><time>2026-04-03T12:46:44.055Z</time></trkpt><trkpt lat="43.2955467" lon="11.9482033"><ele>280.0</ele><time>2026-04-03T12:46:45.056Z</time></trkpt><trkpt lat="43.2956267" lon="11.9481333"><ele>281.0</ele><time>2026-04-03T12:46:46.056Z</time></trkpt><trkpt lat="43.295705" lon="11.9480383"><ele>282.0</ele><time>2026-04-03T12:46:47.056Z</time></trkpt><trkpt lat="43.2957667" lon="11.9479283"><ele>283.0</ele><time>2026-04-03T12:46:48.055Z</time></trkpt><trkpt lat="43.2958417" lon="11.947805"><ele>284.0</ele><time>2026-04-03T12:46:49.055Z</time></trkpt><trkpt lat="43.2959083" lon="11.9476717"><ele>283.0</ele><time>2026-04-03T12:46:50.055Z</time></trkpt><trkpt lat="43.2959783" lon="11.9475317"><ele>282.0</ele><time>2026-04-03T12:46:51.055Z</time></trkpt><trkpt lat="43.296035" lon="11.9473733"><ele>281.0</ele><time>2026-04-03T12:46:52.055Z</time></trkpt><trkpt lat="43.2960783" lon="11.94721"><ele>280.0</ele><time>2026-04-03T12:46:53.055Z</time></trkpt><trkpt lat="43.2961233" lon="11.94703"><ele>280.0</ele><time>2026-04-03T12:46:54.055Z</time></trkpt><trkpt lat="43.296175" lon="11.9468617"><ele>280.0</ele><time>2026-04-03T12:46:55.055Z</time></trkpt><trkpt lat="43.2962317" lon="11.9467033"><ele>280.0</ele><time>2026-04-03T12:46:56.055Z</time></trkpt><trkpt lat="43.2962883" lon="11.9465367"><ele>280.0</ele><time>2026-04-03T12:46:57.055Z</time></trkpt><trkpt lat="43.296335" lon="11.94638"><ele>279.75</ele><time>2026-04-03T12:46:58.056Z</time></trkpt><trkpt lat="43.2963883" lon="11.9462117"><ele>279.5</ele><time>2026-04-03T12:46:59.056Z</time></trkpt><trkpt lat="43.2964283" lon="11.9460417"><ele>279.25</ele><time>2026-04-03T12:47:00.055Z</time></trkpt><trkpt lat="43.296465" lon="11.9458717"><ele>279.0</ele><time>2026-04-03T12:47:01.055Z</time></trkpt><trkpt lat="43.296485" lon="11.9456933"><ele>282.75</ele><time>2026-04-03T12:47:02.055Z</time></trkpt><trkpt lat="43.29649" lon="11.9455267"><ele>286.5</ele><time>2026-04-03T12:47:03.055Z</time></trkpt><trkpt lat="43.29649" lon="11.945355"><ele>290.25</ele><time>2026-04-03T12:47:04.056Z</time></trkpt><trkpt lat="43.2965" lon="11.9452"><ele>294.0</ele><time>2026-04-03T12:47:05.055Z</time></trkpt><trkpt lat="43.296515" lon="11.9450483"><ele>293.59999999999997</ele><time>2026-04-03T12:47:06.055Z</time></trkpt><trkpt lat="43.296545" lon="11.9448833"><ele>293.2</ele><time>2026-04-03T12:47:07.055Z</time></trkpt><trkpt lat="43.2965817" lon="11.9447417"><ele>292.79999999999995</ele><time>2026-04-03T12:47:08.055Z</time></trkpt><trkpt lat="43.2966317" lon="11.9446233"><ele>292.4</ele><time>2026-04-03T12:47:09.055Z</time></trkpt><trkpt lat="43.29669" lon="11.944525"><ele>292.0</ele><time>2026-04-03T12:47:10.055Z</time></trkpt><trkpt lat="43.2967617" lon="11.9444533"><ele>292.0</ele><time>2026-04-03T12:47:11.055Z</time></trkpt><trkpt lat="43.2968417" lon="11.9443833"><ele>292.0</ele><time>2026-04-03T12:47:12.056Z</time></trkpt><trkpt lat="43.2969317" lon="11.9443183"><ele>292.0</ele><time>2026-04-03T12:47:13.056Z</time></trkpt><trkpt lat="43.29703" lon="11.944265"><ele>292.0</ele><time>2026-04-03T12:47:14.055Z</time></trkpt><trkpt lat="43.2971383" lon="11.9442017"><ele>292.0</ele><time>2026-04-03T12:47:15.055Z</time></trkpt><trkpt lat="43.2972483" lon="11.9441367"><ele>292.0</ele><time>2026-04-03T12:47:16.055Z</time></trkpt><trkpt lat="43.2973617" lon="11.9440717"><ele>292.0</ele><time>2026-04-03T12:47:17.055Z</time></trkpt><trkpt lat="43.2974783" lon="11.944"><ele>292.0</ele><time>2026-04-03T12:47:18.055Z</time></trkpt><trkpt lat="43.2976083" lon="11.9439083"><ele>292.0</ele><time>2026-04-03T12:47:19.055Z</time></trkpt><trkpt lat="43.2977333" lon="11.9438067"><ele>292.0</ele><time>2026-04-03T12:47:20.055Z</time></trkpt><trkpt lat="43.2978583" lon="11.9437067"><ele>292.0</ele><time>2026-04-03T12:47:21.055Z</time></trkpt><trkpt lat="43.2979833" lon="11.9435917"><ele>292.0</ele><time>2026-04-03T12:47:22.055Z</time></trkpt><trkpt lat="43.2981017" lon="11.94349"><ele>292.0</ele><time>2026-04-03T12:47:23.056Z</time></trkpt><trkpt lat="43.298205" lon="11.9434"><ele>292.2</ele><time>2026-04-03T12:47:24.055Z</time></trkpt><trkpt lat="43.2982783" lon="11.9433083"><ele>292.4</ele><time>2026-04-03T12:47:25.056Z</time></trkpt><trkpt lat="43.2983433" lon="11.9432"><ele>292.6</ele><time>2026-04-03T12:47:26.055Z</time></trkpt><trkpt lat="43.2984033" lon="11.9430683"><ele>292.8</ele><time>2026-04-03T12:47:27.056Z</time></trkpt><trkpt lat="43.29847" lon="11.9429183"><ele>293.0</ele><time>2026-04-03T12:47:28.055Z</time></trkpt><trkpt lat="43.2985317" lon="11.9427717"><ele>293.0</ele><time>2026-04-03T12:47:29.056Z</time></trkpt><trkpt lat="43.2985817" lon="11.9426483"><ele>293.0</ele><time>2026-04-03T12:47:30.056Z</time></trkpt><trkpt lat="43.2986383" lon="11.9425333"><ele>293.0</ele><time>2026-04-03T12:47:31.056Z</time></trkpt><trkpt lat="43.2986917" lon="11.9424167"><ele>293.0</ele><time>2026-04-03T12:47:32.055Z</time></trkpt><trkpt lat="43.2987333" lon="11.9423067"><ele>293.0</ele><time>2026-04-03T12:47:33.055Z</time></trkpt><trkpt lat="43.2987717" lon="11.94222"><ele>293.6</ele><time>2026-04-03T12:47:34.055Z</time></trkpt><trkpt lat="43.29882" lon="11.9421483"><ele>294.20000000000005</ele><time>2026-04-03T12:47:35.056Z</time></trkpt><trkpt lat="43.2988717" lon="11.9420967"><ele>294.8</ele><time>2026-04-03T12:47:36.055Z</time></trkpt><trkpt lat="43.2989883" lon="11.9420917"><ele>295.40000000000003</ele><time>2026-04-03T12:47:38.056Z</time></trkpt><trkpt lat="43.2990933" lon="11.942145"><ele>296.0</ele><time>2026-04-03T12:47:40.055Z</time></trkpt><trkpt lat="43.299185" lon="11.9421067"><ele>296.0</ele><time>2026-04-03T12:47:42.055Z</time></trkpt><trkpt lat="43.299225" lon="11.941945"><ele>296.0</ele><time>2026-04-03T12:47:44.055Z</time></trkpt><trkpt lat="43.299245" lon="11.9418467"><ele>296.0</ele><time>2026-04-03T12:47:45.055Z</time></trkpt><trkpt lat="43.29927" lon="11.94175"><ele>296.0</ele><time>2026-04-03T12:47:46.056Z</time></trkpt><trkpt lat="43.299315" lon="11.9416633"><ele>296.0</ele><time>2026-04-03T12:47:47.055Z</time></trkpt><trkpt lat="43.2993733" lon="11.941575"><ele>296.0</ele><time>2026-04-03T12:47:48.055Z</time></trkpt><trkpt lat="43.29944" lon="11.9414867"><ele>294.8</ele><time>2026-04-03T12:47:49.056Z</time></trkpt><trkpt lat="43.2995033" lon="11.9413917"><ele>293.6</ele><time>2026-04-03T12:47:50.056Z</time></trkpt><trkpt lat="43.2995783" lon="11.9413067"><ele>292.4</ele><time>2026-04-03T12:47:51.055Z</time></trkpt><trkpt lat="43.2996567" lon="11.941205"><ele>291.2</ele><time>2026-04-03T12:47:52.055Z</time></trkpt><trkpt lat="43.2997383" lon="11.9411067"><ele>290.0</ele><time>2026-04-03T12:47:53.055Z</time></trkpt><trkpt lat="43.2998367" lon="11.941005"><ele>292.25</ele><time>2026-04-03T12:47:54.056Z</time></trkpt><trkpt lat="43.299935" lon="11.9409067"><ele>294.5</ele><time>2026-04-03T12:47:55.055Z</time></trkpt><trkpt lat="43.3000417" lon="11.9408283"><ele>296.75</ele><time>2026-04-03T12:47:56.055Z</time></trkpt><trkpt lat="43.3001467" lon="11.94076"><ele>299.0</ele><time>2026-04-03T12:47:57.055Z</time></trkpt><trkpt lat="43.3002433" lon="11.9406983"><ele>299.0</ele><time>2026-04-03T12:47:58.055Z</time></trkpt><trkpt lat="43.300335" lon="11.9406717"><ele>299.0</ele><time>2026-04-03T12:47:59.055Z</time></trkpt><trkpt lat="43.3004317" lon="11.9406317"><ele>299.0</ele><time>2026-04-03T12:48:00.056Z</time></trkpt><trkpt lat="43.3005317" lon="11.9405933"><ele>299.0</ele><time>2026-04-03T12:48:01.056Z</time></trkpt><trkpt lat="43.3006433" lon="11.9405567"><ele>299.0</ele><time>2026-04-03T12:48:02.056Z</time></trkpt><trkpt lat="43.30076" lon="11.940525"><ele>301.4</ele><time>2026-04-03T12:48:03.055Z</time></trkpt><trkpt lat="43.30086" lon="11.9404867"><ele>303.79999999999995</ele><time>2026-04-03T12:48:04.055Z</time></trkpt><trkpt lat="43.3009667" lon="11.9404283"><ele>306.20000000000005</ele><time>2026-04-03T12:48:05.055Z</time></trkpt><trkpt lat="43.3010683" lon="11.9403683"><ele>308.6</ele><time>2026-04-03T12:48:06.055Z</time></trkpt><trkpt lat="43.301155" lon="11.9403083"><ele>311.0</ele><time>2026-04-03T12:48:07.055Z</time></trkpt><trkpt lat="43.3012333" lon="11.9402267"><ele>311.0</ele><time>2026-04-03T12:48:08.055Z</time></trkpt><trkpt lat="43.30131" lon="11.9401183"><ele>311.0</ele><time>2026-04-03T12:48:09.055Z</time></trkpt><trkpt lat="43.3013717" lon="11.94"><ele>311.0</ele><time>2026-04-03T12:48:10.056Z</time></trkpt><trkpt lat="43.3014333" lon="11.93988"><ele>311.0</ele><time>2026-04-03T12:48:11.055Z</time></trkpt><trkpt lat="43.3015033" lon="11.9397583"><ele>311.0</ele><time>2026-04-03T12:48:12.056Z</time></trkpt><trkpt lat="43.3015667" lon="11.9396483"><ele>312.8</ele><time>2026-04-03T12:48:13.055Z</time></trkpt><trkpt lat="43.301635" lon="11.9395567"><ele>314.6</ele><time>2026-04-03T12:48:14.056Z</time></trkpt><trkpt lat="43.3017" lon="11.9394633"><ele>316.4</ele><time>2026-04-03T12:48:15.055Z</time></trkpt><trkpt lat="43.3017633" lon="11.939365"><ele>318.2</ele><time>2026-04-03T12:48:16.055Z</time></trkpt><trkpt lat="43.3018383" lon="11.9392817"><ele>320.0</ele><time>2026-04-03T12:48:17.055Z</time></trkpt><trkpt lat="43.3019117" lon="11.9391983"><ele>320.0</ele><time>2026-04-03T12:48:18.055Z</time></trkpt><trkpt lat="43.3019817" lon="11.9391217"><ele>320.0</ele><time>2026-04-03T12:48:19.055Z</time></trkpt><trkpt lat="43.3020483" lon="11.939065"><ele>320.0</ele><time>2026-04-03T12:48:20.055Z</time></trkpt><trkpt lat="43.3021217" lon="11.93902"><ele>320.0</ele><time>2026-04-03T12:48:21.055Z</time></trkpt><trkpt lat="43.3022" lon="11.9389767"><ele>320.0</ele><time>2026-04-03T12:48:22.055Z</time></trkpt><trkpt lat="43.30228" lon="11.9389533"><ele>320.0</ele><time>2026-04-03T12:48:23.056Z</time></trkpt><trkpt lat="43.302355" lon="11.9389567"><ele>322.1666666666667</ele><time>2026-04-03T12:48:24.055Z</time></trkpt><trkpt lat="43.30243" lon="11.938975"><ele>324.33333333333337</ele><time>2026-04-03T12:48:25.055Z</time></trkpt><trkpt lat="43.302495" lon="11.93901"><ele>326.5</ele><time>2026-04-03T12:48:26.055Z</time></trkpt><trkpt lat="43.3025567" lon="11.93905"><ele>328.6666666666667</ele><time>2026-04-03T12:48:27.056Z</time></trkpt><trkpt lat="43.30263" lon="11.9390933"><ele>330.8333333333333</ele><time>2026-04-03T12:48:28.055Z</time></trkpt><trkpt lat="43.3027117" lon="11.9391367"><ele>333.0</ele><time>2026-04-03T12:48:29.056Z</time></trkpt><trkpt lat="43.30279" lon="11.93915"><ele>333.0</ele><time>2026-04-03T12:48:30.055Z</time></trkpt><trkpt lat="43.302885" lon="11.939105"><ele>333.0</ele><time>2026-04-03T12:48:31.055Z</time></trkpt><trkpt lat="43.3029717" lon="11.939035"><ele>333.0</ele><time>2026-04-03T12:48:32.055Z</time></trkpt><trkpt lat="43.30305" lon="11.938945"><ele>333.0</ele><time>2026-04-03T12:48:33.056Z</time></trkpt><trkpt lat="43.3031067" lon="11.938845"><ele>333.0</ele><time>2026-04-03T12:48:34.055Z</time></trkpt><trkpt lat="43.3031667" lon="11.9387533"><ele>335.3333333333333</ele><time>2026-04-03T12:48:35.055Z</time></trkpt><trkpt lat="43.30323" lon="11.938675"><ele>337.6666666666667</ele><time>2026-04-03T12:48:36.056Z</time></trkpt><trkpt lat="43.3033033" lon="11.9386033"><ele>340.0</ele><time>2026-04-03T12:48:37.056Z</time></trkpt><trkpt lat="43.3033783" lon="11.938545"><ele>342.33333333333337</ele><time>2026-04-03T12:48:38.056Z</time></trkpt><trkpt lat="43.30346" lon="11.938505"><ele>344.6666666666667</ele><time>2026-04-03T12:48:39.055Z</time></trkpt><trkpt lat="43.3035383" lon="11.9384817"><ele>347.0</ele><time>2026-04-03T12:48:40.055Z</time></trkpt><trkpt lat="43.3036133" lon="11.9384733"><ele>347.0</ele><time>2026-04-03T12:48:41.056Z</time></trkpt><trkpt lat="43.3036967" lon="11.9384683"><ele>347.0</ele><time>2026-04-03T12:48:42.055Z</time></trkpt><trkpt lat="43.303785" lon="11.93848"><ele>347.0</ele><time>2026-04-03T12:48:43.055Z</time></trkpt><trkpt lat="43.3038683" lon="11.9385"><ele>347.0</ele><time>2026-04-03T12:48:44.056Z</time></trkpt><trkpt lat="43.3039483" lon="11.9385317"><ele>347.0</ele><time>2026-04-03T12:48:45.055Z</time></trkpt><trkpt lat="43.304025" lon="11.9385917"><ele>347.0</ele><time>2026-04-03T12:48:46.055Z</time></trkpt><trkpt lat="43.3041017" lon="11.9386417"><ele>349.1666666666667</ele><time>2026-04-03T12:48:47.055Z</time></trkpt><trkpt lat="43.3041833" lon="11.9386767"><ele>351.33333333333337</ele><time>2026-04-03T12:48:48.055Z</time></trkpt><trkpt lat="43.304255" lon="11.9386717"><ele>353.5</ele><time>2026-04-03T12:48:49.056Z</time></trkpt><trkpt lat="43.30433" lon="11.938655"><ele>355.6666666666667</ele><time>2026-04-03T12:48:50.055Z</time></trkpt><trkpt lat="43.3044033" lon="11.9386417"><ele>357.8333333333333</ele><time>2026-04-03T12:48:51.056Z</time></trkpt><trkpt lat="43.3044767" lon="11.9386467"><ele>360.0</ele><time>2026-04-03T12:48:52.055Z</time></trkpt><trkpt lat="43.30459" lon="11.9386767"><ele>360.0</ele><time>2026-04-03T12:48:54.055Z</time></trkpt><trkpt lat="43.30469" lon="11.9387167"><ele>360.0</ele><time>2026-04-03T12:48:56.055Z</time></trkpt><trkpt lat="43.3047533" lon="11.9387417"><ele>360.0</ele><time>2026-04-03T12:48:57.055Z</time></trkpt><trkpt lat="43.3048233" lon="11.93877"><ele>360.0</ele><time>2026-04-03T12:48:58.055Z</time></trkpt><trkpt lat="43.30491" lon="11.9387917"><ele>360.0</ele><time>2026-04-03T12:49:00.054Z</time></trkpt><trkpt lat="43.3049617" lon="11.9387167"><ele>360.0</ele><time>2026-04-03T12:49:02.055Z</time></trkpt><trkpt lat="43.3049617" lon="11.9386283"><ele>359.3333333333333</ele><time>2026-04-03T12:49:03.054Z</time></trkpt><trkpt lat="43.304955" lon="11.9385333"><ele>358.6666666666667</ele><time>2026-04-03T12:49:04.054Z</time></trkpt><trkpt lat="43.304945" lon="11.9384333"><ele>358.0</ele><time>2026-04-03T12:49:05.055Z</time></trkpt><trkpt lat="43.30494" lon="11.938325"><ele>357.33333333333337</ele><time>2026-04-03T12:49:06.054Z</time></trkpt><trkpt lat="43.3049467" lon="11.9382283"><ele>356.6666666666667</ele><time>2026-04-03T12:49:07.054Z</time></trkpt><trkpt lat="43.3049617" lon="11.9381183"><ele>356.0</ele><time>2026-04-03T12:49:08.054Z</time></trkpt><trkpt lat="43.3049783" lon="11.9379983"><ele>355.8</ele><time>2026-04-03T12:49:09.054Z</time></trkpt><trkpt lat="43.305025" lon="11.9378717"><ele>355.6</ele><time>2026-04-03T12:49:10.054Z</time></trkpt><trkpt lat="43.305075" lon="11.937745"><ele>355.4</ele><time>2026-04-03T12:49:11.054Z</time></trkpt><trkpt lat="43.3051183" lon="11.93763"><ele>355.2</ele><time>2026-04-03T12:49:12.054Z</time></trkpt><trkpt lat="43.30517" lon="11.9375283"><ele>355.0</ele><time>2026-04-03T12:49:13.055Z</time></trkpt><trkpt lat="43.3052233" lon="11.93744"><ele>354.5</ele><time>2026-04-03T12:49:14.054Z</time></trkpt><trkpt lat="43.3052883" lon="11.9373667"><ele>354.0</ele><time>2026-04-03T12:49:15.054Z</time></trkpt><trkpt lat="43.305355" lon="11.9372967"><ele>353.5</ele><time>2026-04-03T12:49:16.055Z</time></trkpt><trkpt lat="43.3054167" lon="11.93722"><ele>353.0</ele><time>2026-04-03T12:49:17.054Z</time></trkpt><trkpt lat="43.3054733" lon="11.937125"><ele>352.5</ele><time>2026-04-03T12:49:18.054Z</time></trkpt><trkpt lat="43.3055433" lon="11.9370317"><ele>352.0</ele><time>2026-04-03T12:49:19.055Z</time></trkpt><trkpt lat="43.3055983" lon="11.936935"><ele>352.16666666666663</ele><time>2026-04-03T12:49:20.055Z</time></trkpt><trkpt lat="43.3056533" lon="11.9368167"><ele>352.3333333333333</ele><time>2026-04-03T12:49:21.054Z</time></trkpt><trkpt lat="43.3057067" lon="11.9367033"><ele>352.5</ele><time>2026-04-03T12:49:22.054Z</time></trkpt><trkpt lat="43.30575" lon="11.9366133"><ele>352.6666666666667</ele><time>2026-04-03T12:49:23.054Z</time></trkpt><trkpt lat="43.3057967" lon="11.9365417"><ele>352.83333333333337</ele><time>2026-04-03T12:49:24.055Z</time></trkpt><trkpt lat="43.305855" lon="11.9365083"><ele>353.0</ele><time>2026-04-03T12:49:25.055Z</time></trkpt><trkpt lat="43.3059683" lon="11.9364617"><ele>353.0</ele><time>2026-04-03T12:49:27.054Z</time></trkpt><trkpt lat="43.3060483" lon="11.936445"><ele>353.0</ele><time>2026-04-03T12:49:28.055Z</time></trkpt><trkpt lat="43.3061383" lon="11.9364433"><ele>353.0</ele><time>2026-04-03T12:49:29.054Z</time></trkpt><trkpt lat="43.306235" lon="11.9364467"><ele>353.0</ele><time>2026-04-03T12:49:30.055Z</time></trkpt><trkpt lat="43.3063367" lon="11.9364483"><ele>353.0</ele><time>2026-04-03T12:49:31.055Z</time></trkpt><trkpt lat="43.3064333" lon="11.9364567"><ele>353.0</ele><time>2026-04-03T12:49:32.054Z</time></trkpt><trkpt lat="43.3065217" lon="11.93647"><ele>353.0</ele><time>2026-04-03T12:49:33.055Z</time></trkpt><trkpt lat="43.3066017" lon="11.93649"><ele>353.0</ele><time>2026-04-03T12:49:34.054Z</time></trkpt><trkpt lat="43.3066767" lon="11.9365167"><ele>353.0</ele><time>2026-04-03T12:49:35.055Z</time></trkpt><trkpt lat="43.30675" lon="11.9365333"><ele>353.0</ele><time>2026-04-03T12:49:36.054Z</time></trkpt><trkpt lat="43.3068217" lon="11.936545"><ele>353.0</ele><time>2026-04-03T12:49:37.054Z</time></trkpt><trkpt lat="43.3068933" lon="11.936535"><ele>353.0</ele><time>2026-04-03T12:49:38.054Z</time></trkpt><trkpt lat="43.3069717" lon="11.936515"><ele>353.0</ele><time>2026-04-03T12:49:39.055Z</time></trkpt><trkpt lat="43.3070567" lon="11.936495"><ele>353.0</ele><time>2026-04-03T12:49:40.054Z</time></trkpt><trkpt lat="43.3071583" lon="11.9364733"><ele>353.0</ele><time>2026-04-03T12:49:41.054Z</time></trkpt><trkpt lat="43.3072517" lon="11.9364617"><ele>353.0</ele><time>2026-04-03T12:49:42.054Z</time></trkpt><trkpt lat="43.307345" lon="11.9364417"><ele>351.33333333333337</ele><time>2026-04-03T12:49:43.055Z</time></trkpt><trkpt lat="43.3074367" lon="11.93642"><ele>349.6666666666667</ele><time>2026-04-03T12:49:44.055Z</time></trkpt><trkpt lat="43.3075267" lon="11.936395"><ele>348.0</ele><time>2026-04-03T12:49:45.054Z</time></trkpt><trkpt lat="43.30761" lon="11.9363733"><ele>346.3333333333333</ele><time>2026-04-03T12:49:46.055Z</time></trkpt><trkpt lat="43.307695" lon="11.9363533"><ele>344.66666666666663</ele><time>2026-04-03T12:49:47.054Z</time></trkpt><trkpt lat="43.3077683" lon="11.936325"><ele>343.0</ele><time>2026-04-03T12:49:48.055Z</time></trkpt><trkpt lat="43.3078283" lon="11.936275"><ele>343.0</ele><time>2026-04-03T12:49:49.054Z</time></trkpt><trkpt lat="43.307875" lon="11.9362033"><ele>343.0</ele><time>2026-04-03T12:49:50.055Z</time></trkpt><trkpt lat="43.307915" lon="11.9360667"><ele>343.0</ele><time>2026-04-03T12:49:52.054Z</time></trkpt><trkpt lat="43.3079417" lon="11.9359617"><ele>343.0</ele><time>2026-04-03T12:49:54.054Z</time></trkpt><trkpt lat="43.3079083" lon="11.93588"><ele>343.0</ele><time>2026-04-03T12:50:14.054Z</time></trkpt><trkpt lat="43.3078683" lon="11.9357233"><ele>343.0</ele><time>2026-04-03T12:50:16.055Z</time></trkpt><trkpt lat="43.307825" lon="11.93557"><ele>341.0</ele><time>2026-04-03T12:50:18.054Z</time></trkpt><trkpt lat="43.3077917" lon="11.9354483"><ele>339.0</ele><time>2026-04-03T12:50:20.055Z</time></trkpt><trkpt lat="43.3077583" lon="11.93533"><ele>337.0</ele><time>2026-04-03T12:50:25.055Z</time></trkpt><trkpt lat="43.30773" lon="11.9352033"><ele>335.0</ele><time>2026-04-03T12:50:27.054Z</time></trkpt><trkpt lat="43.3077067" lon="11.9351067"><ele>333.0</ele><time>2026-04-03T12:50:28.054Z</time></trkpt><trkpt lat="43.3076817" lon="11.9349917"><ele>331.0</ele><time>2026-04-03T12:50:29.055Z</time></trkpt><trkpt lat="43.3076517" lon="11.9348733"><ele>329.3333333333333</ele><time>2026-04-03T12:50:30.055Z</time></trkpt><trkpt lat="43.3076167" lon="11.93476"><ele>327.66666666666663</ele><time>2026-04-03T12:50:31.054Z</time></trkpt><trkpt lat="43.3075983" lon="11.9346617"><ele>326.0</ele><time>2026-04-03T12:50:32.054Z</time></trkpt><trkpt lat="43.3075867" lon="11.9345717"><ele>324.3333333333333</ele><time>2026-04-03T12:50:33.055Z</time></trkpt><trkpt lat="43.3075733" lon="11.9344817"><ele>322.6666666666667</ele><time>2026-04-03T12:50:34.054Z</time></trkpt><trkpt lat="43.3075533" lon="11.93433"><ele>321.0</ele><time>2026-04-03T12:50:36.054Z</time></trkpt><trkpt lat="43.307535" lon="11.9341817"><ele>319.8333333333333</ele><time>2026-04-03T12:50:38.054Z</time></trkpt><trkpt lat="43.30753" lon="11.9340383"><ele>318.6666666666667</ele><time>2026-04-03T12:50:40.054Z</time></trkpt><trkpt lat="43.3075283" lon="11.9339067"><ele>317.5</ele><time>2026-04-03T12:50:42.054Z</time></trkpt><trkpt lat="43.3075267" lon="11.933795"><ele>316.33333333333337</ele><time>2026-04-03T12:50:44.054Z</time></trkpt><trkpt lat="43.3075317" lon="11.933685"><ele>315.1666666666667</ele><time>2026-04-03T12:50:46.054Z</time></trkpt><trkpt lat="43.3075117" lon="11.9338017"><ele>314.0</ele><time>2026-04-03T12:50:58.055Z</time></trkpt><trkpt lat="43.307515" lon="11.9339017"><ele>314.0</ele><time>2026-04-03T12:50:59.054Z</time></trkpt><trkpt lat="43.3075183" lon="11.9340017"><ele>314.0</ele><time>2026-04-03T12:51:00.054Z</time></trkpt><trkpt lat="43.307525" lon="11.9341133"><ele>314.0</ele><time>2026-04-03T12:51:01.055Z</time></trkpt><trkpt lat="43.3075317" lon="11.9342317"><ele>314.0</ele><time>2026-04-03T12:51:02.054Z</time></trkpt><trkpt lat="43.3075367" lon="11.9343517"><ele>314.0</ele><time>2026-04-03T12:51:03.054Z</time></trkpt><trkpt lat="43.30755" lon="11.9344683"><ele>314.0</ele><time>2026-04-03T12:51:04.054Z</time></trkpt><trkpt lat="43.30757" lon="11.9345817"><ele>315.1666666666667</ele><time>2026-04-03T12:51:05.055Z</time></trkpt><trkpt lat="43.3075883" lon="11.93469"><ele>316.33333333333337</ele><time>2026-04-03T12:51:06.055Z</time></trkpt><trkpt lat="43.3076083" lon="11.9348"><ele>317.5</ele><time>2026-04-03T12:51:07.054Z</time></trkpt><trkpt lat="43.3076317" lon="11.93491"><ele>318.6666666666667</ele><time>2026-04-03T12:51:08.054Z</time></trkpt><trkpt lat="43.3076583" lon="11.9350183"><ele>319.8333333333333</ele><time>2026-04-03T12:51:09.054Z</time></trkpt><trkpt lat="43.3076783" lon="11.9351333"><ele>321.0</ele><time>2026-04-03T12:51:10.054Z</time></trkpt><trkpt lat="43.3077017" lon="11.93524"><ele>322.6666666666667</ele><time>2026-04-03T12:51:11.054Z</time></trkpt><trkpt lat="43.3077267" lon="11.9353533"><ele>324.3333333333333</ele><time>2026-04-03T12:51:12.054Z</time></trkpt><trkpt lat="43.3077583" lon="11.93546"><ele>326.0</ele><time>2026-04-03T12:51:13.054Z</time></trkpt><trkpt lat="43.307795" lon="11.935565"><ele>327.66666666666663</ele><time>2026-04-03T12:51:14.054Z</time></trkpt><trkpt lat="43.3078317" lon="11.9356667"><ele>329.3333333333333</ele><time>2026-04-03T12:51:15.054Z</time></trkpt><trkpt lat="43.3078733" lon="11.9357633"><ele>331.0</ele><time>2026-04-03T12:51:16.054Z</time></trkpt><trkpt lat="43.3079083" lon="11.935845"><ele>333.0</ele><time>2026-04-03T12:51:17.054Z</time></trkpt><trkpt lat="43.307935" lon="11.9359383"><ele>335.0</ele><time>2026-04-03T12:51:19.054Z</time></trkpt><trkpt lat="43.308" lon="11.935925"><ele>337.0</ele><time>2026-04-03T12:51:22.054Z</time></trkpt><trkpt lat="43.3080817" lon="11.935845"><ele>339.0</ele><time>2026-04-03T12:51:24.055Z</time></trkpt><trkpt lat="43.3081533" lon="11.9357517"><ele>341.0</ele><time>2026-04-03T12:51:26.054Z</time></trkpt><trkpt lat="43.3082133" lon="11.9356317"><ele>343.0</ele><time>2026-04-03T12:51:28.054Z</time></trkpt><trkpt lat="43.308285" lon="11.93551"><ele>343.0</ele><time>2026-04-03T12:51:30.055Z</time></trkpt><trkpt lat="43.30837" lon="11.9353917"><ele>343.0</ele><time>2026-04-03T12:51:32.054Z</time></trkpt><trkpt lat="43.3084283" lon="11.9352683"><ele>343.0</ele><time>2026-04-03T12:51:34.055Z</time></trkpt><trkpt lat="43.3084883" lon="11.9351617"><ele>343.0</ele><time>2026-04-03T12:51:36.055Z</time></trkpt><trkpt lat="43.3085433" lon="11.935055"><ele>343.0</ele><time>2026-04-03T12:51:38.055Z</time></trkpt><trkpt lat="43.3086017" lon="11.9349433"><ele>343.0</ele><time>2026-04-03T12:51:40.055Z</time></trkpt><trkpt lat="43.3086567" lon="11.9348483"><ele>343.0</ele><time>2026-04-03T12:51:42.055Z</time></trkpt><trkpt lat="43.3087233" lon="11.934725"><ele>343.0</ele><time>2026-04-03T12:51:44.054Z</time></trkpt><trkpt lat="43.3088283" lon="11.9346283"><ele>343.0</ele><time>2026-04-03T12:51:46.054Z</time></trkpt><trkpt lat="43.3088967" lon="11.9346"><ele>343.0</ele><time>2026-04-03T12:51:47.054Z</time></trkpt><trkpt lat="43.3089683" lon="11.934595"><ele>344.14285714285717</ele><time>2026-04-03T12:51:48.055Z</time></trkpt><trkpt lat="43.3090367" lon="11.9346083"><ele>345.2857142857143</ele><time>2026-04-03T12:51:49.054Z</time></trkpt><trkpt lat="43.3091067" lon="11.9346433"><ele>346.42857142857144</ele><time>2026-04-03T12:51:50.055Z</time></trkpt><trkpt lat="43.3091817" lon="11.9346867"><ele>347.57142857142856</ele><time>2026-04-03T12:51:51.054Z</time></trkpt><trkpt lat="43.3092467" lon="11.9347217"><ele>348.7142857142857</ele><time>2026-04-03T12:51:52.054Z</time></trkpt><trkpt lat="43.3093" lon="11.9347783"><ele>349.8571428571429</ele><time>2026-04-03T12:51:53.055Z</time></trkpt><trkpt lat="43.30936" lon="11.93484"><ele>351.0</ele><time>2026-04-03T12:51:54.054Z</time></trkpt><trkpt lat="43.3094267" lon="11.9348917"><ele>351.0</ele><time>2026-04-03T12:51:55.054Z</time></trkpt><trkpt lat="43.309495" lon="11.9349217"><ele>351.0</ele><time>2026-04-03T12:51:56.055Z</time></trkpt><trkpt lat="43.3095633" lon="11.934945"><ele>351.0</ele><time>2026-04-03T12:51:57.054Z</time></trkpt><trkpt lat="43.3096333" lon="11.934945"><ele>351.0</ele><time>2026-04-03T12:51:58.054Z</time></trkpt><trkpt lat="43.30971" lon="11.9349267"><ele>351.0</ele><time>2026-04-03T12:51:59.054Z</time></trkpt><trkpt lat="43.309785" lon="11.934905"><ele>351.0</ele><time>2026-04-03T12:52:00.054Z</time></trkpt><trkpt lat="43.3098833" lon="11.93483"><ele>350.3333333333333</ele><time>2026-04-03T12:52:02.055Z</time></trkpt><trkpt lat="43.3099433" lon="11.9346783"><ele>349.6666666666667</ele><time>2026-04-03T12:52:04.054Z</time></trkpt><trkpt lat="43.30997" lon="11.93457"><ele>349.0</ele><time>2026-04-03T12:52:05.054Z</time></trkpt><trkpt lat="43.3099983" lon="11.9344683"><ele>348.33333333333337</ele><time>2026-04-03T12:52:06.054Z</time></trkpt><trkpt lat="43.3100333" lon="11.934375"><ele>347.6666666666667</ele><time>2026-04-03T12:52:07.054Z</time></trkpt><trkpt lat="43.3100883" lon="11.9342883"><ele>347.0</ele><time>2026-04-03T12:52:08.054Z</time></trkpt><trkpt lat="43.31014" lon="11.9342133"><ele>345.40000000000003</ele><time>2026-04-03T12:52:09.054Z</time></trkpt><trkpt lat="43.310205" lon="11.9341383"><ele>343.8</ele><time>2026-04-03T12:52:10.054Z</time></trkpt><trkpt lat="43.310265" lon="11.93408"><ele>342.2</ele><time>2026-04-03T12:52:11.054Z</time></trkpt><trkpt lat="43.3103367" lon="11.9339867"><ele>340.6</ele><time>2026-04-03T12:52:13.054Z</time></trkpt><trkpt lat="43.3103633" lon="11.9338567"><ele>339.0</ele><time>2026-04-03T12:52:15.054Z</time></trkpt><trkpt lat="43.3103933" lon="11.9336967"><ele>339.0</ele><time>2026-04-03T12:52:17.054Z</time></trkpt><trkpt lat="43.310425" lon="11.9336083"><ele>339.0</ele><time>2026-04-03T12:52:18.054Z</time></trkpt><trkpt lat="43.3104683" lon="11.93352"><ele>339.0</ele><time>2026-04-03T12:52:19.054Z</time></trkpt><trkpt lat="43.31052" lon="11.93342"><ele>339.0</ele><time>2026-04-03T12:52:20.055Z</time></trkpt><trkpt lat="43.3105817" lon="11.93332"><ele>339.0</ele><time>2026-04-03T12:52:21.054Z</time></trkpt><trkpt lat="43.3106533" lon="11.93323"><ele>339.0</ele><time>2026-04-03T12:52:22.054Z</time></trkpt><trkpt lat="43.3107317" lon="11.9331517"><ele>341.6</ele><time>2026-04-03T12:52:23.054Z</time></trkpt><trkpt lat="43.310805" lon="11.9330567"><ele>344.2</ele><time>2026-04-03T12:52:24.054Z</time></trkpt><trkpt lat="43.310875" lon="11.9329683"><ele>346.8</ele><time>2026-04-03T12:52:25.054Z</time></trkpt><trkpt lat="43.3109533" lon="11.932865"><ele>349.40000000000003</ele><time>2026-04-03T12:52:26.054Z</time></trkpt><trkpt lat="43.3110217" lon="11.9327617"><ele>352.0</ele><time>2026-04-03T12:52:27.055Z</time></trkpt><trkpt lat="43.3110917" lon="11.93267"><ele>352.0</ele><time>2026-04-03T12:52:28.055Z</time></trkpt><trkpt lat="43.3111467" lon="11.9325967"><ele>352.0</ele><time>2026-04-03T12:52:29.054Z</time></trkpt><trkpt lat="43.3111917" lon="11.932525"><ele>352.0</ele><time>2026-04-03T12:52:30.054Z</time></trkpt><trkpt lat="43.31129" lon="11.9324583"><ele>352.0</ele><time>2026-04-03T12:52:32.054Z</time></trkpt><trkpt lat="43.3113933" lon="11.9324017"><ele>352.0</ele><time>2026-04-03T12:52:34.054Z</time></trkpt><trkpt lat="43.3114583" lon="11.93237"><ele>352.0</ele><time>2026-04-03T12:52:35.053Z</time></trkpt><trkpt lat="43.31153" lon="11.9323333"><ele>352.3333333333333</ele><time>2026-04-03T12:52:36.053Z</time></trkpt><trkpt lat="43.3115933" lon="11.9322917"><ele>352.66666666666663</ele><time>2026-04-03T12:52:37.053Z</time></trkpt><trkpt lat="43.3116567" lon="11.93223"><ele>353.0</ele><time>2026-04-03T12:52:38.053Z</time></trkpt><trkpt lat="43.3117117" lon="11.93207"><ele>353.3333333333333</ele><time>2026-04-03T12:52:40.053Z</time></trkpt><trkpt lat="43.3117217" lon="11.9319717"><ele>353.6666666666667</ele><time>2026-04-03T12:52:41.054Z</time></trkpt><trkpt lat="43.3117283" lon="11.931865"><ele>354.0</ele><time>2026-04-03T12:52:42.053Z</time></trkpt><trkpt lat="43.3117483" lon="11.9317533"><ele>353.8333333333333</ele><time>2026-04-03T12:52:43.053Z</time></trkpt><trkpt lat="43.31178" lon="11.9316433"><ele>353.6666666666667</ele><time>2026-04-03T12:52:44.054Z</time></trkpt><trkpt lat="43.31182" lon="11.93154"><ele>353.5</ele><time>2026-04-03T12:52:45.054Z</time></trkpt><trkpt lat="43.311865" lon="11.93144"><ele>353.33333333333337</ele><time>2026-04-03T12:52:46.054Z</time></trkpt><trkpt lat="43.3119083" lon="11.9313267"><ele>353.1666666666667</ele><time>2026-04-03T12:52:47.053Z</time></trkpt><trkpt lat="43.311945" lon="11.931215"><ele>353.0</ele><time>2026-04-03T12:52:48.053Z</time></trkpt><trkpt lat="43.3119783" lon="11.9311"><ele>353.0</ele><time>2026-04-03T12:52:49.053Z</time></trkpt><trkpt lat="43.31201" lon="11.930985"><ele>353.0</ele><time>2026-04-03T12:52:50.053Z</time></trkpt><trkpt lat="43.3120433" lon="11.93088"><ele>353.0</ele><time>2026-04-03T12:52:51.053Z</time></trkpt><trkpt lat="43.31208" lon="11.930775"><ele>353.0</ele><time>2026-04-03T12:52:52.054Z</time></trkpt><trkpt lat="43.3121133" lon="11.93067"><ele>353.0</ele><time>2026-04-03T12:52:53.054Z</time></trkpt><trkpt lat="43.31215" lon="11.9305683"><ele>353.0</ele><time>2026-04-03T12:52:54.053Z</time></trkpt><trkpt lat="43.3121917" lon="11.93049"><ele>356.79999999999995</ele><time>2026-04-03T12:52:55.053Z</time></trkpt><trkpt lat="43.312275" lon="11.93038"><ele>360.6</ele><time>2026-04-03T12:52:57.053Z</time></trkpt><trkpt lat="43.3123733" lon="11.9302867"><ele>364.4</ele><time>2026-04-03T12:52:59.053Z</time></trkpt><trkpt lat="43.3124733" lon="11.9302067"><ele>368.20000000000005</ele><time>2026-04-03T12:53:01.053Z</time></trkpt><trkpt lat="43.3125317" lon="11.93017"><ele>372.0</ele><time>2026-04-03T12:53:02.053Z</time></trkpt><trkpt lat="43.3126" lon="11.930145"><ele>372.0</ele><time>2026-04-03T12:53:03.053Z</time></trkpt><trkpt lat="43.31269" lon="11.93012"><ele>372.0</ele><time>2026-04-03T12:53:04.054Z</time></trkpt><trkpt lat="43.3127767" lon="11.930105"><ele>372.0</ele><time>2026-04-03T12:53:05.053Z</time></trkpt><trkpt lat="43.3128767" lon="11.9300817"><ele>372.0</ele><time>2026-04-03T12:53:06.053Z</time></trkpt><trkpt lat="43.312985" lon="11.9300633"><ele>372.0</ele><time>2026-04-03T12:53:07.054Z</time></trkpt><trkpt lat="43.3130917" lon="11.9300317"><ele>368.25</ele><time>2026-04-03T12:53:08.053Z</time></trkpt><trkpt lat="43.3132067" lon="11.9299867"><ele>364.5</ele><time>2026-04-03T12:53:09.054Z</time></trkpt><trkpt lat="43.31332" lon="11.9299383"><ele>360.75</ele><time>2026-04-03T12:53:10.054Z</time></trkpt><trkpt lat="43.31343" lon="11.92988"><ele>357.0</ele><time>2026-04-03T12:53:11.053Z</time></trkpt><trkpt lat="43.3135333" lon="11.9298267"><ele>357.0</ele><time>2026-04-03T12:53:12.053Z</time></trkpt><trkpt lat="43.3136367" lon="11.9297767"><ele>357.0</ele><time>2026-04-03T12:53:13.053Z</time></trkpt><trkpt lat="43.3137283" lon="11.92971"><ele>357.0</ele><time>2026-04-03T12:53:14.053Z</time></trkpt><trkpt lat="43.3138167" lon="11.92965"><ele>357.0</ele><time>2026-04-03T12:53:15.053Z</time></trkpt><trkpt lat="43.3138967" lon="11.9295917"><ele>357.0</ele><time>2026-04-03T12:53:16.054Z</time></trkpt><trkpt lat="43.313965" lon="11.92953"><ele>356.8333333333333</ele><time>2026-04-03T12:53:17.053Z</time></trkpt><trkpt lat="43.31404" lon="11.9294733"><ele>356.6666666666667</ele><time>2026-04-03T12:53:18.053Z</time></trkpt><trkpt lat="43.3141183" lon="11.9294183"><ele>356.5</ele><time>2026-04-03T12:53:19.054Z</time></trkpt><trkpt lat="43.3141933" lon="11.9293767"><ele>356.33333333333337</ele><time>2026-04-03T12:53:20.053Z</time></trkpt><trkpt lat="43.3142717" lon="11.9293367"><ele>356.1666666666667</ele><time>2026-04-03T12:53:21.053Z</time></trkpt><trkpt lat="43.3143483" lon="11.9293033"><ele>356.0</ele><time>2026-04-03T12:53:22.053Z</time></trkpt><trkpt lat="43.3144283" lon="11.9292683"><ele>356.0</ele><time>2026-04-03T12:53:23.053Z</time></trkpt><trkpt lat="43.314505" lon="11.92923"><ele>356.0</ele><time>2026-04-03T12:53:24.053Z</time></trkpt><trkpt lat="43.3145817" lon="11.9291967"><ele>356.0</ele><time>2026-04-03T12:53:25.053Z</time></trkpt><trkpt lat="43.3146683" lon="11.9291767"><ele>356.0</ele><time>2026-04-03T12:53:26.053Z</time></trkpt><trkpt lat="43.314755" lon="11.9291683"><ele>356.0</ele><time>2026-04-03T12:53:27.053Z</time></trkpt><trkpt lat="43.3148333" lon="11.9291733"><ele>356.0</ele><time>2026-04-03T12:53:28.054Z</time></trkpt><trkpt lat="43.3149117" lon="11.9291917"><ele>355.4285714285714</ele><time>2026-04-03T12:53:29.053Z</time></trkpt><trkpt lat="43.3149767" lon="11.92923"><ele>354.85714285714283</ele><time>2026-04-03T12:53:30.053Z</time></trkpt><trkpt lat="43.315045" lon="11.9292717"><ele>354.2857142857143</ele><time>2026-04-03T12:53:31.053Z</time></trkpt><trkpt lat="43.3151167" lon="11.929295"><ele>353.71428571428567</ele><time>2026-04-03T12:53:32.053Z</time></trkpt><trkpt lat="43.31519" lon="11.92932"><ele>353.1428571428571</ele><time>2026-04-03T12:53:33.053Z</time></trkpt><trkpt lat="43.315265" lon="11.9293367"><ele>352.57142857142856</ele><time>2026-04-03T12:53:34.053Z</time></trkpt><trkpt lat="43.3153333" lon="11.9293283"><ele>352.0</ele><time>2026-04-03T12:53:35.053Z</time></trkpt><trkpt lat="43.315405" lon="11.9292917"><ele>352.0</ele><time>2026-04-03T12:53:36.053Z</time></trkpt><trkpt lat="43.31548" lon="11.9292283"><ele>352.0</ele><time>2026-04-03T12:53:37.053Z</time></trkpt><trkpt lat="43.3155567" lon="11.9291567"><ele>352.0</ele><time>2026-04-03T12:53:38.053Z</time></trkpt><trkpt lat="43.3156267" lon="11.92907"><ele>352.0</ele><time>2026-04-03T12:53:39.053Z</time></trkpt><trkpt lat="43.31568" lon="11.9289867"><ele>352.0</ele><time>2026-04-03T12:53:40.054Z</time></trkpt><trkpt lat="43.3157217" lon="11.9289083"><ele>352.0</ele><time>2026-04-03T12:53:41.053Z</time></trkpt><trkpt lat="43.3157483" lon="11.9288267"><ele>350.0</ele><time>2026-04-03T12:53:42.053Z</time></trkpt><trkpt lat="43.3157733" lon="11.9287233"><ele>348.0</ele><time>2026-04-03T12:53:44.053Z</time></trkpt><trkpt lat="43.3158517" lon="11.9287817"><ele>346.0</ele><time>2026-04-03T12:53:47.053Z</time></trkpt><trkpt lat="43.31588" lon="11.9289017"><ele>344.0</ele><time>2026-04-03T12:53:49.053Z</time></trkpt><trkpt lat="43.315915" lon="11.9289817"><ele>342.0</ele><time>2026-04-03T12:53:51.053Z</time></trkpt><trkpt lat="43.3159233" lon="11.9290983"><ele>340.0</ele><time>2026-04-03T12:53:53.054Z</time></trkpt><trkpt lat="43.3159317" lon="11.9292167"><ele>340.42857142857144</ele><time>2026-04-03T12:53:55.053Z</time></trkpt><trkpt lat="43.31596" lon="11.9293033"><ele>340.85714285714283</ele><time>2026-04-03T12:53:57.054Z</time></trkpt><trkpt lat="43.31601" lon="11.9293717"><ele>341.2857142857143</ele><time>2026-04-03T12:53:59.053Z</time></trkpt><trkpt lat="43.31605" lon="11.9294433"><ele>341.7142857142857</ele><time>2026-04-03T12:54:01.054Z</time></trkpt><trkpt lat="43.3161133" lon="11.9294483"><ele>342.1428571428571</ele><time>2026-04-03T12:54:04.054Z</time></trkpt><trkpt lat="43.3161483" lon="11.9293517"><ele>342.57142857142856</ele><time>2026-04-03T13:09:39.049Z</time></trkpt><trkpt lat="43.3161817" lon="11.9292683"><ele>343.0</ele><time>2026-04-03T13:09:41.05Z</time></trkpt><trkpt lat="43.316275" lon="11.929245"><ele>342.4</ele><time>2026-04-03T13:09:44.049Z</time></trkpt><trkpt lat="43.3164033" lon="11.9292817"><ele>341.79999999999995</ele><time>2026-04-03T13:09:46.05Z</time></trkpt><trkpt lat="43.31648" lon="11.929285"><ele>341.2</ele><time>2026-04-03T13:09:47.05Z</time></trkpt><trkpt lat="43.3165733" lon="11.9292733"><ele>340.6</ele><time>2026-04-03T13:09:48.049Z</time></trkpt><trkpt lat="43.3166717" lon="11.9292533"><ele>340.0</ele><time>2026-04-03T13:09:49.049Z</time></trkpt><trkpt lat="43.3167733" lon="11.929225"><ele>340.0</ele><time>2026-04-03T13:09:50.049Z</time></trkpt><trkpt lat="43.31686" lon="11.9291917"><ele>340.0</ele><time>2026-04-03T13:09:51.049Z</time></trkpt><trkpt lat="43.3169833" lon="11.9291233"><ele>340.0</ele><time>2026-04-03T13:09:53.049Z</time></trkpt><trkpt lat="43.3170833" lon="11.9290267"><ele>340.0</ele><time>2026-04-03T13:09:55.049Z</time></trkpt><trkpt lat="43.31714" lon="11.9289683"><ele>340.0</ele><time>2026-04-03T13:09:56.049Z</time></trkpt><trkpt lat="43.3172083" lon="11.9288983"><ele>335.8</ele><time>2026-04-03T13:09:57.05Z</time></trkpt><trkpt lat="43.317275" lon="11.9288183"><ele>331.6</ele><time>2026-04-03T13:09:58.049Z</time></trkpt><trkpt lat="43.31734" lon="11.9287283"><ele>327.4</ele><time>2026-04-03T13:09:59.049Z</time></trkpt><trkpt lat="43.317415" lon="11.9286383"><ele>323.2</ele><time>2026-04-03T13:10:00.049Z</time></trkpt><trkpt lat="43.3174917" lon="11.92855"><ele>319.0</ele><time>2026-04-03T13:10:01.049Z</time></trkpt><trkpt lat="43.317575" lon="11.9284717"><ele>319.0</ele><time>2026-04-03T13:10:02.049Z</time></trkpt><trkpt lat="43.3176633" lon="11.9283983"><ele>319.0</ele><time>2026-04-03T13:10:03.05Z</time></trkpt><trkpt lat="43.3177433" lon="11.92832"><ele>319.0</ele><time>2026-04-03T13:10:04.049Z</time></trkpt><trkpt lat="43.3178217" lon="11.9282367"><ele>319.0</ele><time>2026-04-03T13:10:05.049Z</time></trkpt><trkpt lat="43.3179" lon="11.9281467"><ele>319.0</ele><time>2026-04-03T13:10:06.049Z</time></trkpt><trkpt lat="43.31795" lon="11.9280267"><ele>321.4</ele><time>2026-04-03T13:10:07.049Z</time></trkpt><trkpt lat="43.3179833" lon="11.927905"><ele>323.79999999999995</ele><time>2026-04-03T13:10:08.05Z</time></trkpt><trkpt lat="43.3180133" lon="11.9277683"><ele>326.20000000000005</ele><time>2026-04-03T13:10:09.049Z</time></trkpt><trkpt lat="43.318045" lon="11.92764"><ele>328.6</ele><time>2026-04-03T13:10:10.049Z</time></trkpt><trkpt lat="43.318085" lon="11.9275217"><ele>331.0</ele><time>2026-04-03T13:10:11.049Z</time></trkpt><trkpt lat="43.31812" lon="11.927405"><ele>325.6</ele><time>2026-04-03T13:10:12.049Z</time></trkpt><trkpt lat="43.3181617" lon="11.9272883"><ele>320.20000000000005</ele><time>2026-04-03T13:10:13.049Z</time></trkpt><trkpt lat="43.3182033" lon="11.92717"><ele>314.79999999999995</ele><time>2026-04-03T13:10:14.05Z</time></trkpt><trkpt lat="43.318235" lon="11.9270633"><ele>309.4</ele><time>2026-04-03T13:10:15.049Z</time></trkpt><trkpt lat="43.3182583" lon="11.926975"><ele>304.0</ele><time>2026-04-03T13:10:16.049Z</time></trkpt><trkpt lat="43.3182867" lon="11.9268167"><ele>304.16666666666663</ele><time>2026-04-03T13:10:18.049Z</time></trkpt><trkpt lat="43.3182933" lon="11.9267267"><ele>304.3333333333333</ele><time>2026-04-03T13:10:19.049Z</time></trkpt><trkpt lat="43.3183033" lon="11.926615"><ele>304.5</ele><time>2026-04-03T13:10:20.049Z</time></trkpt><trkpt lat="43.318315" lon="11.92649"><ele>304.6666666666667</ele><time>2026-04-03T13:10:21.049Z</time></trkpt><trkpt lat="43.31833" lon="11.92635"><ele>304.83333333333337</ele><time>2026-04-03T13:10:22.05Z</time></trkpt><trkpt lat="43.31834" lon="11.9262183"><ele>305.0</ele><time>2026-04-03T13:10:23.049Z</time></trkpt><trkpt lat="43.31835" lon="11.926095"><ele>305.0</ele><time>2026-04-03T13:10:24.05Z</time></trkpt><trkpt lat="43.3183583" lon="11.925985"><ele>305.0</ele><time>2026-04-03T13:10:25.049Z</time></trkpt><trkpt lat="43.3183683" lon="11.9258883"><ele>305.0</ele><time>2026-04-03T13:10:26.05Z</time></trkpt><trkpt lat="43.3183517" lon="11.92573"><ele>305.0</ele><time>2026-04-03T13:10:28.049Z</time></trkpt><trkpt lat="43.3183233" lon="11.9256517"><ele>305.0</ele><time>2026-04-03T13:10:31.049Z</time></trkpt><trkpt lat="43.3182783" lon="11.925585"><ele>305.0</ele><time>2026-04-03T13:10:34.049Z</time></trkpt><trkpt lat="43.31821" lon="11.9254683"><ele>304.5</ele><time>2026-04-03T13:10:36.049Z</time></trkpt><trkpt lat="43.31812" lon="11.9253283"><ele>304.0</ele><time>2026-04-03T13:10:38.049Z</time></trkpt><trkpt lat="43.318075" lon="11.9252583"><ele>303.5</ele><time>2026-04-03T13:10:39.049Z</time></trkpt><trkpt lat="43.3180383" lon="11.9251867"><ele>303.0</ele><time>2026-04-03T13:10:40.049Z</time></trkpt><trkpt lat="43.3179667" lon="11.9251183"><ele>302.5</ele><time>2026-04-03T13:10:42.05Z</time></trkpt><trkpt lat="43.3178883" lon="11.9251083"><ele>302.0</ele><time>2026-04-03T13:10:44.05Z</time></trkpt><trkpt lat="43.3177833" lon="11.9251417"><ele>302.0</ele><time>2026-04-03T13:10:46.05Z</time></trkpt><trkpt lat="43.31771" lon="11.925195"><ele>302.0</ele><time>2026-04-03T13:10:47.049Z</time></trkpt><trkpt lat="43.3176367" lon="11.9252517"><ele>302.0</ele><time>2026-04-03T13:10:48.05Z</time></trkpt><trkpt lat="43.3175733" lon="11.9253117"><ele>302.0</ele><time>2026-04-03T13:10:49.048Z</time></trkpt><trkpt lat="43.31752" lon="11.9253683"><ele>302.0</ele><time>2026-04-03T13:10:50.049Z</time></trkpt><trkpt lat="43.31746" lon="11.9254183"><ele>302.0</ele><time>2026-04-03T13:10:51.049Z</time></trkpt><trkpt lat="43.3173017" lon="11.9255217"><ele>302.0</ele><time>2026-04-03T13:10:54.049Z</time></trkpt><trkpt lat="43.3173917" lon="11.9255383"><ele>302.0</ele><time>2026-04-03T13:10:59.048Z</time></trkpt><trkpt lat="43.317495" lon="11.9254317"><ele>302.0</ele><time>2026-04-03T13:11:01.048Z</time></trkpt><trkpt lat="43.3175583" lon="11.92537"><ele>302.0</ele><time>2026-04-03T13:11:02.049Z</time></trkpt><trkpt lat="43.31763" lon="11.9253083"><ele>302.0</ele><time>2026-04-03T13:11:03.048Z</time></trkpt><trkpt lat="43.3177033" lon="11.9252517"><ele>302.0</ele><time>2026-04-03T13:11:04.049Z</time></trkpt><trkpt lat="43.3177767" lon="11.9252033"><ele>302.0</ele><time>2026-04-03T13:11:05.048Z</time></trkpt><trkpt lat="43.3178433" lon="11.92516"><ele>302.0</ele><time>2026-04-03T13:11:06.048Z</time></trkpt><trkpt lat="43.3179183" lon="11.9251017"><ele>302.0</ele><time>2026-04-03T13:11:08.048Z</time></trkpt><trkpt lat="43.3179067" lon="11.92495"><ele>302.0</ele><time>2026-04-03T13:11:16.048Z</time></trkpt><trkpt lat="43.3178683" lon="11.9247933"><ele>298.25</ele><time>2026-04-03T13:11:18.049Z</time></trkpt><trkpt lat="43.3178333" lon="11.924655"><ele>294.5</ele><time>2026-04-03T13:11:20.049Z</time></trkpt><trkpt lat="43.3178033" lon="11.9245283"><ele>290.75</ele><time>2026-04-03T13:11:22.048Z</time></trkpt><trkpt lat="43.3177567" lon="11.9243967"><ele>287.0</ele><time>2026-04-03T13:11:24.048Z</time></trkpt><trkpt lat="43.3176533" lon="11.9242333"><ele>285.57142857142856</ele><time>2026-04-03T13:11:27.049Z</time></trkpt><trkpt lat="43.31761" lon="11.9240883"><ele>284.1428571428571</ele><time>2026-04-03T13:11:29.048Z</time></trkpt><trkpt lat="43.3175867" lon="11.9240017"><ele>282.7142857142857</ele><time>2026-04-03T13:11:30.048Z</time></trkpt><trkpt lat="43.31757" lon="11.923915"><ele>281.2857142857143</ele><time>2026-04-03T13:11:31.048Z</time></trkpt><trkpt lat="43.3175567" lon="11.92383"><ele>279.85714285714283</ele><time>2026-04-03T13:11:32.048Z</time></trkpt><trkpt lat="43.3175367" lon="11.92374"><ele>278.42857142857144</ele><time>2026-04-03T13:11:33.048Z</time></trkpt><trkpt lat="43.3175233" lon="11.92365"><ele>277.0</ele><time>2026-04-03T13:11:34.049Z</time></trkpt><trkpt lat="43.317495" lon="11.9234867"><ele>277.0</ele><time>2026-04-03T13:11:36.049Z</time></trkpt><trkpt lat="43.317485" lon="11.9234"><ele>277.0</ele><time>2026-04-03T13:11:37.049Z</time></trkpt><trkpt lat="43.3174517" lon="11.92324"><ele>277.0</ele><time>2026-04-03T13:11:39.048Z</time></trkpt><trkpt lat="43.3174167" lon="11.9231033"><ele>277.0</ele><time>2026-04-03T13:11:41.048Z</time></trkpt><trkpt lat="43.3173833" lon="11.9229867"><ele>277.0</ele><time>2026-04-03T13:11:43.048Z</time></trkpt><trkpt lat="43.31737" lon="11.9228967"><ele>277.0</ele><time>2026-04-03T13:12:06.048Z</time></trkpt><trkpt lat="43.317285" lon="11.9228633"><ele>274.2</ele><time>2026-04-03T13:12:08.048Z</time></trkpt><trkpt lat="43.3171467" lon="11.9228767"><ele>271.4</ele><time>2026-04-03T13:12:10.048Z</time></trkpt><trkpt lat="43.3170583" lon="11.9228783"><ele>268.6</ele><time>2026-04-03T13:12:11.049Z</time></trkpt><trkpt lat="43.3169767" lon="11.922855"><ele>265.8</ele><time>2026-04-03T13:12:12.048Z</time></trkpt><trkpt lat="43.3169117" lon="11.9227967"><ele>263.0</ele><time>2026-04-03T13:12:13.048Z</time></trkpt><trkpt lat="43.3168567" lon="11.922705"><ele>263.0</ele><time>2026-04-03T13:12:14.049Z</time></trkpt><trkpt lat="43.31681" lon="11.9225967"><ele>263.0</ele><time>2026-04-03T13:12:15.048Z</time></trkpt><trkpt lat="43.3167717" lon="11.9224833"><ele>263.0</ele><time>2026-04-03T13:12:16.048Z</time></trkpt><trkpt lat="43.3167517" lon="11.92237"><ele>263.0</ele><time>2026-04-03T13:12:17.048Z</time></trkpt><trkpt lat="43.316725" lon="11.9222617"><ele>263.0</ele><time>2026-04-03T13:12:18.048Z</time></trkpt><trkpt lat="43.31669" lon="11.9221583"><ele>263.0</ele><time>2026-04-03T13:12:19.049Z</time></trkpt><trkpt lat="43.316655" lon="11.9220533"><ele>262.0</ele><time>2026-04-03T13:12:20.048Z</time></trkpt><trkpt lat="43.3166317" lon="11.9219433"><ele>261.0</ele><time>2026-04-03T13:12:21.049Z</time></trkpt><trkpt lat="43.316585" lon="11.9218433"><ele>260.0</ele><time>2026-04-03T13:12:22.048Z</time></trkpt><trkpt lat="43.3165417" lon="11.92173"><ele>259.0</ele><time>2026-04-03T13:12:23.049Z</time></trkpt><trkpt lat="43.3165083" lon="11.9216133"><ele>258.0</ele><time>2026-04-03T13:12:24.048Z</time></trkpt><trkpt lat="43.3164767" lon="11.9214967"><ele>257.0</ele><time>2026-04-03T13:12:25.049Z</time></trkpt><trkpt lat="43.3164417" lon="11.9213783"><ele>256.4</ele><time>2026-04-03T13:12:26.048Z</time></trkpt><trkpt lat="43.3164017" lon="11.9212617"><ele>255.79999999999998</ele><time>2026-04-03T13:12:27.048Z</time></trkpt><trkpt lat="43.31636" lon="11.921155"><ele>255.2</ele><time>2026-04-03T13:12:28.048Z</time></trkpt><trkpt lat="43.3163067" lon="11.9210617"><ele>254.6</ele><time>2026-04-03T13:12:29.048Z</time></trkpt><trkpt lat="43.3162483" lon="11.9209717"><ele>254.0</ele><time>2026-04-03T13:12:30.048Z</time></trkpt><trkpt lat="43.3161783" lon="11.9208817"><ele>253.75</ele><time>2026-04-03T13:12:31.049Z</time></trkpt><trkpt lat="43.316105" lon="11.92079"><ele>253.5</ele><time>2026-04-03T13:12:32.049Z</time></trkpt><trkpt lat="43.3160133" lon="11.9207067"><ele>253.25</ele><time>2026-04-03T13:12:33.049Z</time></trkpt><trkpt lat="43.3158983" lon="11.9206417"><ele>253.0</ele><time>2026-04-03T13:12:34.048Z</time></trkpt><trkpt lat="43.3157683" lon="11.9205783"><ele>253.0</ele><time>2026-04-03T13:12:35.048Z</time></trkpt><trkpt lat="43.3156367" lon="11.9205017"><ele>253.0</ele><time>2026-04-03T13:12:36.048Z</time></trkpt><trkpt lat="43.315495" lon="11.9204133"><ele>253.0</ele><time>2026-04-03T13:12:37.048Z</time></trkpt><trkpt lat="43.3153383" lon="11.9203267"><ele>252.0</ele><time>2026-04-03T13:12:38.049Z</time></trkpt><trkpt lat="43.315185" lon="11.9202417"><ele>251.0</ele><time>2026-04-03T13:12:39.048Z</time></trkpt><trkpt lat="43.3150483" lon="11.92016"><ele>250.0</ele><time>2026-04-03T13:12:40.048Z</time></trkpt><trkpt lat="43.314925" lon="11.9200833"><ele>249.75</ele><time>2026-04-03T13:12:41.048Z</time></trkpt><trkpt lat="43.3148167" lon="11.9200183"><ele>249.5</ele><time>2026-04-03T13:12:42.048Z</time></trkpt><trkpt lat="43.314725" lon="11.91995"><ele>249.25</ele><time>2026-04-03T13:12:43.048Z</time></trkpt><trkpt lat="43.3145567" lon="11.9197833"><ele>249.0</ele><time>2026-04-03T13:12:45.049Z</time></trkpt><trkpt lat="43.3144133" lon="11.919575"><ele>249.0</ele><time>2026-04-03T13:12:47.048Z</time></trkpt><trkpt lat="43.314255" lon="11.9193417"><ele>249.0</ele><time>2026-04-03T13:12:49.048Z</time></trkpt><trkpt lat="43.3140933" lon="11.9191033"><ele>248.5</ele><time>2026-04-03T13:12:51.048Z</time></trkpt><trkpt lat="43.31392" lon="11.9188633"><ele>248.0</ele><time>2026-04-03T13:12:53.049Z</time></trkpt><trkpt lat="43.3137517" lon="11.9186317"><ele>247.5</ele><time>2026-04-03T13:12:55.048Z</time></trkpt><trkpt lat="43.3135833" lon="11.9183967"><ele>247.0</ele><time>2026-04-03T13:12:57.048Z</time></trkpt><trkpt lat="43.31343" lon="11.9181717"><ele>247.0</ele><time>2026-04-03T13:12:59.049Z</time></trkpt><trkpt lat="43.313275" lon="11.9179617"><ele>247.0</ele><time>2026-04-03T13:13:01.049Z</time></trkpt><trkpt lat="43.3131067" lon="11.91773"><ele>246.5</ele><time>2026-04-03T13:13:03.048Z</time></trkpt><trkpt lat="43.3129317" lon="11.9174867"><ele>246.0</ele><time>2026-04-03T13:13:05.049Z</time></trkpt><trkpt lat="43.312755" lon="11.9172433"><ele>246.0</ele><time>2026-04-03T13:13:07.048Z</time></trkpt><trkpt lat="43.31258" lon="11.917005"><ele>246.0</ele><time>2026-04-03T13:13:09.048Z</time></trkpt><trkpt lat="43.3124183" lon="11.9167517"><ele>246.0</ele><time>2026-04-03T13:13:11.048Z</time></trkpt><trkpt lat="43.3122517" lon="11.9164917"><ele>246.0</ele><time>2026-04-03T13:13:13.049Z</time></trkpt><trkpt lat="43.3120767" lon="11.9162483"><ele>246.0</ele><time>2026-04-03T13:13:15.049Z</time></trkpt><trkpt lat="43.3119133" lon="11.91601"><ele>246.0</ele><time>2026-04-03T13:13:17.048Z</time></trkpt><trkpt lat="43.311745" lon="11.9157683"><ele>245.5</ele><time>2026-04-03T13:13:19.048Z</time></trkpt><trkpt lat="43.3115783" lon="11.9155217"><ele>245.0</ele><time>2026-04-03T13:13:21.048Z</time></trkpt><trkpt lat="43.3114167" lon="11.9152617"><ele>245.0</ele><time>2026-04-03T13:13:23.048Z</time></trkpt><trkpt lat="43.31125" lon="11.915005"><ele>245.0</ele><time>2026-04-03T13:13:25.048Z</time></trkpt><trkpt lat="43.3110633" lon="11.9147533"><ele>245.0</ele><time>2026-04-03T13:13:27.048Z</time></trkpt><trkpt lat="43.310895" lon="11.9145"><ele>245.0</ele><time>2026-04-03T13:13:29.048Z</time></trkpt><trkpt lat="43.3107117" lon="11.9142567"><ele>246.5</ele><time>2026-04-03T13:13:31.049Z</time></trkpt><trkpt lat="43.3105267" lon="11.9140067"><ele>248.0</ele><time>2026-04-03T13:13:33.048Z</time></trkpt><trkpt lat="43.3103567" lon="11.9137533"><ele>248.0</ele><time>2026-04-03T13:13:35.049Z</time></trkpt><trkpt lat="43.3101883" lon="11.9134883"><ele>248.0</ele><time>2026-04-03T13:13:37.048Z</time></trkpt><trkpt lat="43.3100233" lon="11.91323"><ele>248.0</ele><time>2026-04-03T13:13:39.048Z</time></trkpt><trkpt lat="43.3098433" lon="11.91297"><ele>248.0</ele><time>2026-04-03T13:13:41.048Z</time></trkpt><trkpt lat="43.30966" lon="11.912725"><ele>246.5</ele><time>2026-04-03T13:13:43.048Z</time></trkpt><trkpt lat="43.3094717" lon="11.9124783"><ele>245.0</ele><time>2026-04-03T13:13:45.048Z</time></trkpt><trkpt lat="43.3092983" lon="11.9122233"><ele>245.0</ele><time>2026-04-03T13:13:47.048Z</time></trkpt><trkpt lat="43.30913" lon="11.911985"><ele>245.0</ele><time>2026-04-03T13:13:49.048Z</time></trkpt><trkpt lat="43.3089617" lon="11.9117517"><ele>246.0</ele><time>2026-04-03T13:13:51.048Z</time></trkpt><trkpt lat="43.3088083" lon="11.9115167"><ele>247.0</ele><time>2026-04-03T13:13:53.048Z</time></trkpt><trkpt lat="43.3086433" lon="11.9112967"><ele>247.0</ele><time>2026-04-03T13:13:55.048Z</time></trkpt><trkpt lat="43.30849" lon="11.91107"><ele>247.0</ele><time>2026-04-03T13:13:57.049Z</time></trkpt><trkpt lat="43.3083283" lon="11.9108417"><ele>247.0</ele><time>2026-04-03T13:13:59.048Z</time></trkpt><trkpt lat="43.30817" lon="11.9106133"><ele>247.0</ele><time>2026-04-03T13:14:01.048Z</time></trkpt><trkpt lat="43.3079733" lon="11.9103267"><ele>246.5</ele><time>2026-04-03T13:14:03.049Z</time></trkpt><trkpt lat="43.3077633" lon="11.9100267"><ele>246.0</ele><time>2026-04-03T13:14:05.048Z</time></trkpt><trkpt lat="43.307555" lon="11.9097133"><ele>246.0</ele><time>2026-04-03T13:14:07.048Z</time></trkpt><trkpt lat="43.3073217" lon="11.9094033"><ele>246.0</ele><time>2026-04-03T13:14:09.049Z</time></trkpt><trkpt lat="43.3070917" lon="11.9090833"><ele>246.5</ele><time>2026-04-03T13:14:11.048Z</time></trkpt><trkpt lat="43.30685" lon="11.908755"><ele>247.0</ele><time>2026-04-03T13:14:13.049Z</time></trkpt><trkpt lat="43.3066133" lon="11.9084033"><ele>247.5</ele><time>2026-04-03T13:14:15.049Z</time></trkpt><trkpt lat="43.3063833" lon="11.908055"><ele>248.0</ele><time>2026-04-03T13:14:17.048Z</time></trkpt><trkpt lat="43.30615" lon="11.9077017"><ele>248.0</ele><time>2026-04-03T13:14:19.048Z</time></trkpt><trkpt lat="43.3058983" lon="11.9073583"><ele>248.0</ele><time>2026-04-03T13:14:21.049Z</time></trkpt><trkpt lat="43.3056483" lon="11.9070017"><ele>247.5</ele><time>2026-04-03T13:14:23.048Z</time></trkpt><trkpt lat="43.305395" lon="11.906645"><ele>247.0</ele><time>2026-04-03T13:14:25.048Z</time></trkpt><trkpt lat="43.305145" lon="11.9062883"><ele>247.0</ele><time>2026-04-03T13:14:27.048Z</time></trkpt><trkpt lat="43.3048833" lon="11.9059217"><ele>247.0</ele><time>2026-04-03T13:14:29.049Z</time></trkpt><trkpt lat="43.3046167" lon="11.9055533"><ele>247.0</ele><time>2026-04-03T13:14:31.048Z</time></trkpt><trkpt lat="43.3043533" lon="11.9051767"><ele>247.0</ele><time>2026-04-03T13:14:33.048Z</time></trkpt><trkpt lat="43.3041033" lon="11.9048033"><ele>246.5</ele><time>2026-04-03T13:14:35.049Z</time></trkpt><trkpt lat="43.30385" lon="11.90443"><ele>246.0</ele><time>2026-04-03T13:14:37.048Z</time></trkpt><trkpt lat="43.3036017" lon="11.9040383"><ele>246.5</ele><time>2026-04-03T13:14:39.048Z</time></trkpt><trkpt lat="43.3033267" lon="11.9036533"><ele>247.0</ele><time>2026-04-03T13:14:41.049Z</time></trkpt><trkpt lat="43.3030517" lon="11.9032567"><ele>247.0</ele><time>2026-04-03T13:14:43.048Z</time></trkpt><trkpt lat="43.30278" lon="11.9028717"><ele>247.0</ele><time>2026-04-03T13:14:45.048Z</time></trkpt><trkpt lat="43.3026417" lon="11.902685"><ele>247.0</ele><time>2026-04-03T13:14:46.049Z</time></trkpt><trkpt lat="43.3023767" lon="11.902295"><ele>247.0</ele><time>2026-04-03T13:14:48.048Z</time></trkpt><trkpt lat="43.30224" lon="11.9021017"><ele>247.5</ele><time>2026-04-03T13:14:49.048Z</time></trkpt><trkpt lat="43.3019633" lon="11.9017"><ele>248.0</ele><time>2026-04-03T13:14:51.048Z</time></trkpt><trkpt lat="43.3016883" lon="11.9013067"><ele>248.0</ele><time>2026-04-03T13:14:53.048Z</time></trkpt><trkpt lat="43.30144" lon="11.90096"><ele>248.0</ele><time>2026-04-03T13:14:55.047Z</time></trkpt><trkpt lat="43.3013217" lon="11.9008083"><ele>247.0</ele><time>2026-04-03T13:14:56.047Z</time></trkpt><trkpt lat="43.301115" lon="11.9005117"><ele>246.0</ele><time>2026-04-03T13:14:58.047Z</time></trkpt><trkpt lat="43.30093" lon="11.9002233"><ele>246.0</ele><time>2026-04-03T13:15:00.048Z</time></trkpt><trkpt lat="43.30079" lon="11.89999"><ele>246.0</ele><time>2026-04-03T13:15:02.047Z</time></trkpt><trkpt lat="43.3006683" lon="11.8998183"><ele>246.0</ele><time>2026-04-03T13:15:04.048Z</time></trkpt><trkpt lat="43.3005383" lon="11.8996333"><ele>246.0</ele><time>2026-04-03T13:15:06.047Z</time></trkpt><trkpt lat="43.3003867" lon="11.89941"><ele>246.0</ele><time>2026-04-03T13:15:08.047Z</time></trkpt><trkpt lat="43.300225" lon="11.8991517"><ele>246.0</ele><time>2026-04-03T13:15:10.047Z</time></trkpt><trkpt lat="43.3000183" lon="11.8988633"><ele>246.0</ele><time>2026-04-03T13:15:12.047Z</time></trkpt><trkpt lat="43.2998" lon="11.8985617"><ele>246.0</ele><time>2026-04-03T13:15:14.047Z</time></trkpt><trkpt lat="43.2995783" lon="11.8982683"><ele>246.0</ele><time>2026-04-03T13:15:16.047Z</time></trkpt><trkpt lat="43.29934" lon="11.89794"><ele>246.0</ele><time>2026-04-03T13:15:18.047Z</time></trkpt><trkpt lat="43.2991233" lon="11.897625"><ele>246.0</ele><time>2026-04-03T13:15:20.048Z</time></trkpt><trkpt lat="43.2990533" lon="11.89752"><ele>246.0</ele><time>2026-04-03T13:15:21.047Z</time></trkpt><trkpt lat="43.2989917" lon="11.8973883"><ele>245.75</ele><time>2026-04-03T13:15:23.048Z</time></trkpt><trkpt lat="43.29899" lon="11.8972983"><ele>245.5</ele><time>2026-04-03T13:15:25.047Z</time></trkpt><trkpt lat="43.29907" lon="11.897205"><ele>245.25</ele><time>2026-04-03T13:15:27.047Z</time></trkpt><trkpt lat="43.2992117" lon="11.8970667"><ele>245.0</ele><time>2026-04-03T13:15:29.047Z</time></trkpt><trkpt lat="43.2993883" lon="11.8968667"><ele>245.33333333333334</ele><time>2026-04-03T13:15:31.048Z</time></trkpt><trkpt lat="43.2995817" lon="11.8966167"><ele>245.66666666666669</ele><time>2026-04-03T13:15:33.048Z</time></trkpt><trkpt lat="43.2996917" lon="11.8964717"><ele>246.0</ele><time>2026-04-03T13:15:34.047Z</time></trkpt><trkpt lat="43.29981" lon="11.8963217"><ele>246.0</ele><time>2026-04-03T13:15:35.047Z</time></trkpt><trkpt lat="43.2999283" lon="11.8961717"><ele>246.0</ele><time>2026-04-03T13:15:36.048Z</time></trkpt><trkpt lat="43.300045" lon="11.8960183"><ele>246.0</ele><time>2026-04-03T13:15:37.047Z</time></trkpt><trkpt lat="43.3001667" lon="11.8958617"><ele>246.0</ele><time>2026-04-03T13:15:38.047Z</time></trkpt><trkpt lat="43.3004017" lon="11.8955317"><ele>246.0</ele><time>2026-04-03T13:15:40.047Z</time></trkpt><trkpt lat="43.3005233" lon="11.8953733"><ele>246.0</ele><time>2026-04-03T13:15:41.047Z</time></trkpt><trkpt lat="43.3006333" lon="11.8952217"><ele>246.0</ele><time>2026-04-03T13:15:42.047Z</time></trkpt><trkpt lat="43.3007333" lon="11.89508"><ele>246.0</ele><time>2026-04-03T13:15:43.048Z</time></trkpt><trkpt lat="43.300815" lon="11.89495"><ele>246.0</ele><time>2026-04-03T13:15:44.047Z</time></trkpt><trkpt lat="43.300895" lon="11.894835"><ele>246.0</ele><time>2026-04-03T13:15:45.048Z</time></trkpt><trkpt lat="43.300975" lon="11.8947367"><ele>246.00000000000003</ele><time>2026-04-03T13:15:46.047Z</time></trkpt><trkpt lat="43.3010367" lon="11.8946417"><ele>246.00000000000003</ele><time>2026-04-03T13:15:47.048Z</time></trkpt><trkpt lat="43.3011017" lon="11.8945483"><ele>246.0</ele><time>2026-04-03T13:15:48.047Z</time></trkpt><trkpt lat="43.30115" lon="11.8944483"><ele>246.0</ele><time>2026-04-03T13:15:49.048Z</time></trkpt><trkpt lat="43.301185" lon="11.89433"><ele>245.75</ele><time>2026-04-03T13:15:50.047Z</time></trkpt><trkpt lat="43.3012183" lon="11.894185"><ele>245.5</ele><time>2026-04-03T13:15:51.048Z</time></trkpt><trkpt lat="43.30124" lon="11.8940167"><ele>245.25</ele><time>2026-04-03T13:15:52.047Z</time></trkpt><trkpt lat="43.30126" lon="11.8938333"><ele>245.0</ele><time>2026-04-03T13:15:53.048Z</time></trkpt><trkpt lat="43.30129" lon="11.8936483"><ele>245.0</ele><time>2026-04-03T13:15:54.048Z</time></trkpt><trkpt lat="43.3013183" lon="11.8934467"><ele>245.0</ele><time>2026-04-03T13:15:55.047Z</time></trkpt><trkpt lat="43.30135" lon="11.8930667"><ele>245.0</ele><time>2026-04-03T13:15:57.047Z</time></trkpt><trkpt lat="43.3013883" lon="11.8928833"><ele>245.33333333333334</ele><time>2026-04-03T13:15:58.047Z</time></trkpt><trkpt lat="43.3014367" lon="11.8927"><ele>245.66666666666669</ele><time>2026-04-03T13:15:59.048Z</time></trkpt><trkpt lat="43.3014967" lon="11.892505"><ele>246.0</ele><time>2026-04-03T13:16:00.047Z</time></trkpt><trkpt lat="43.3015683" lon="11.8923083"><ele>246.0</ele><time>2026-04-03T13:16:01.047Z</time></trkpt><trkpt lat="43.3016467" lon="11.8921083"><ele>246.0</ele><time>2026-04-03T13:16:02.047Z</time></trkpt><trkpt lat="43.30171" lon="11.8918967"><ele>246.0</ele><time>2026-04-03T13:16:03.047Z</time></trkpt><trkpt lat="43.3017767" lon="11.8916817"><ele>245.5</ele><time>2026-04-03T13:16:04.047Z</time></trkpt><trkpt lat="43.301845" lon="11.8914583"><ele>245.0</ele><time>2026-04-03T13:16:05.048Z</time></trkpt><trkpt lat="43.301995" lon="11.89102"><ele>246.66666666666669</ele><time>2026-04-03T13:16:07.047Z</time></trkpt><trkpt lat="43.302075" lon="11.8908"><ele>248.33333333333331</ele><time>2026-04-03T13:16:08.048Z</time></trkpt><trkpt lat="43.3021517" lon="11.890585"><ele>250.0</ele><time>2026-04-03T13:16:09.047Z</time></trkpt><trkpt lat="43.3022333" lon="11.8903717"><ele>250.0</ele><time>2026-04-03T13:16:10.048Z</time></trkpt><trkpt lat="43.302315" lon="11.8901617"><ele>250.0</ele><time>2026-04-03T13:16:11.047Z</time></trkpt><trkpt lat="43.3024083" lon="11.88996"><ele>250.0</ele><time>2026-04-03T13:16:12.047Z</time></trkpt><trkpt lat="43.3024817" lon="11.889755"><ele>250.0</ele><time>2026-04-03T13:16:13.047Z</time></trkpt><trkpt lat="43.30252" lon="11.8895367"><ele>250.0</ele><time>2026-04-03T13:16:14.048Z</time></trkpt><trkpt lat="43.30254" lon="11.8893"><ele>250.0</ele><time>2026-04-03T13:16:15.047Z</time></trkpt><trkpt lat="43.3025517" lon="11.8890667"><ele>252.0</ele><time>2026-04-03T13:16:16.047Z</time></trkpt><trkpt lat="43.3025683" lon="11.8886117"><ele>254.0</ele><time>2026-04-03T13:16:18.047Z</time></trkpt><trkpt lat="43.3025833" lon="11.8883883"><ele>254.25</ele><time>2026-04-03T13:16:19.048Z</time></trkpt><trkpt lat="43.3025933" lon="11.88818"><ele>254.5</ele><time>2026-04-03T13:16:20.048Z</time></trkpt><trkpt lat="43.3026067" lon="11.887975"><ele>254.75</ele><time>2026-04-03T13:16:21.047Z</time></trkpt><trkpt lat="43.3026083" lon="11.887775"><ele>255.0</ele><time>2026-04-03T13:16:22.048Z</time></trkpt><trkpt lat="43.3026" lon="11.8875833"><ele>255.2</ele><time>2026-04-03T13:16:23.047Z</time></trkpt><trkpt lat="43.3026017" lon="11.8874067"><ele>255.4</ele><time>2026-04-03T13:16:24.047Z</time></trkpt><trkpt lat="43.302605" lon="11.887245"><ele>255.60000000000002</ele><time>2026-04-03T13:16:25.047Z</time></trkpt><trkpt lat="43.3026167" lon="11.8871017"><ele>255.8</ele><time>2026-04-03T13:16:26.048Z</time></trkpt><trkpt lat="43.30263" lon="11.886975"><ele>256.0</ele><time>2026-04-03T13:16:27.047Z</time></trkpt><trkpt lat="43.3026417" lon="11.8868583"><ele>256.0</ele><time>2026-04-03T13:16:28.047Z</time></trkpt><trkpt lat="43.30266" lon="11.8867617"><ele>256.0</ele><time>2026-04-03T13:16:29.047Z</time></trkpt><trkpt lat="43.302685" lon="11.8866167"><ele>256.0</ele><time>2026-04-03T13:16:31.047Z</time></trkpt><trkpt lat="43.3026917" lon="11.88652"><ele>256.0</ele><time>2026-04-03T13:16:33.047Z</time></trkpt><trkpt lat="43.3026383" lon="11.8864467"><ele>256.0</ele><time>2026-04-03T13:16:37.047Z</time></trkpt><trkpt lat="43.30252" lon="11.8863767"><ele>256.75</ele><time>2026-04-03T13:16:39.047Z</time></trkpt><trkpt lat="43.3024317" lon="11.886325"><ele>257.5</ele><time>2026-04-03T13:16:40.048Z</time></trkpt><trkpt lat="43.3023233" lon="11.88627"><ele>258.25</ele><time>2026-04-03T13:16:41.047Z</time></trkpt><trkpt lat="43.3022067" lon="11.8862033"><ele>259.0</ele><time>2026-04-03T13:16:42.048Z</time></trkpt><trkpt lat="43.3020833" lon="11.8861233"><ele>259.3333333333333</ele><time>2026-04-03T13:16:43.047Z</time></trkpt><trkpt lat="43.3019583" lon="11.8860433"><ele>259.6666666666667</ele><time>2026-04-03T13:16:44.047Z</time></trkpt><trkpt lat="43.3018167" lon="11.88595"><ele>260.0</ele><time>2026-04-03T13:16:45.047Z</time></trkpt><trkpt lat="43.3015217" lon="11.885755"><ele>259.75</ele><time>2026-04-03T13:16:47.047Z</time></trkpt><trkpt lat="43.3013883" lon="11.885655"><ele>259.5</ele><time>2026-04-03T13:16:48.047Z</time></trkpt><trkpt lat="43.3012717" lon="11.8855583"><ele>259.25</ele><time>2026-04-03T13:16:49.048Z</time></trkpt><trkpt lat="43.30118" lon="11.8854767"><ele>259.0</ele><time>2026-04-03T13:16:50.047Z</time></trkpt><trkpt lat="43.3011117" lon="11.8854033"><ele>259.0</ele><time>2026-04-03T13:16:51.047Z</time></trkpt><trkpt lat="43.301055" lon="11.8853567"><ele>259.0</ele><time>2026-04-03T13:16:52.047Z</time></trkpt><trkpt lat="43.3009867" lon="11.8852933"><ele>259.0</ele><time>2026-04-03T13:16:54.047Z</time></trkpt><trkpt lat="43.300945" lon="11.8851933"><ele>259.0</ele><time>2026-04-03T13:16:57.047Z</time></trkpt></trkseg></trk></gpx>